<?xml version="1.0" encoding="UTF-8"?>
<TrainingCenterDatabase xmlns="http://www.garmin.com/xmlschemas/TrainingCenterDatabase/v2" xmlns:xsi="http://www.w3.org/2001/XMLSchema-instance" xsi:schemaLocation="http://www.garmin.com/xmlschemas/TrainingCenterDatabase/v2 http://www.garmin.com/xmlschemas/TrainingCenterDatabasev2.xsd">
  <Activities>
    <Activity Sport="Other">
      <Id>2021-10-09T06:46:18.000Z</Id>
      <Lap StartTime="2021-10-09T06:46:18.000Z">
        <TotalTimeSeconds>13326</TotalTimeSeconds>
        <DistanceMeters>97760</DistanceMeters>
        <Track>
          <Trackpoint>
            <Time>2021-10-09T06:46:18.000Z</Time>
            <Position>
              <LatitudeDegrees>39.45736619643867015838623046875</LatitudeDegrees>
              <LongitudeDegrees>-0.45231255702674388885498046875</LongitudeDegrees>
            </Position>
            <AltitudeMeters>30.6000003814697265625</AltitudeMeters>
            <DistanceMeters>0</DistanceMeters>
          </Trackpoint>
          <Trackpoint>
            <Time>2021-10-09T06:46:19.000Z</Time>
            <Position>
              <LatitudeDegrees>39.4574043340981006622314453125</LatitudeDegrees>
              <LongitudeDegrees>-0.45223477296531200408935546875</LongitudeDegrees>
            </Position>
            <AltitudeMeters>51.40000152587890625</AltitudeMeters>
            <DistanceMeters>7.9186394555395</DistanceMeters>
          </Trackpoint>
          <Trackpoint>
            <Time>2021-10-09T06:46:20.000Z</Time>
            <Position>
              <LatitudeDegrees>39.45745219476521015167236328125</LatitudeDegrees>
              <LongitudeDegrees>-0.452164113521575927734375</LongitudeDegrees>
            </Position>
            <AltitudeMeters>55.200000762939453125</AltitudeMeters>
            <DistanceMeters>15.996469138321</DistanceMeters>
          </Trackpoint>
          <Trackpoint>
            <Time>2021-10-09T06:46:21.000Z</Time>
            <Position>
              <LatitudeDegrees>39.4574841298162937164306640625</LatitudeDegrees>
              <LongitudeDegrees>-0.4520895145833492279052734375</LongitudeDegrees>
            </Position>
            <AltitudeMeters>56</AltitudeMeters>
            <DistanceMeters>23.327088820038</DistanceMeters>
          </Trackpoint>
          <Trackpoint>
            <Time>2021-10-09T06:46:22.000Z</Time>
            <Position>
              <LatitudeDegrees>39.45752084255218505859375</LatitudeDegrees>
              <LongitudeDegrees>-0.4520150832831859588623046875</LongitudeDegrees>
            </Position>
            <AltitudeMeters>56.40000152587890625</AltitudeMeters>
            <DistanceMeters>30.91733833586</DistanceMeters>
          </Trackpoint>
          <Trackpoint>
            <Time>2021-10-09T06:46:23.000Z</Time>
            <Position>
              <LatitudeDegrees>39.4575441442430019378662109375</LatitudeDegrees>
              <LongitudeDegrees>-0.4519393108785152435302734375</LongitudeDegrees>
            </Position>
            <AltitudeMeters>57.200000762939453125</AltitudeMeters>
            <DistanceMeters>37.926162477976</DistanceMeters>
          </Trackpoint>
          <Trackpoint>
            <Time>2021-10-09T06:46:24.000Z</Time>
            <Position>
              <LatitudeDegrees>39.45757037959992885589599609375</LatitudeDegrees>
              <LongitudeDegrees>-0.451861359179019927978515625</LongitudeDegrees>
            </Position>
            <AltitudeMeters>57.200000762939453125</AltitudeMeters>
            <DistanceMeters>45.233339909318</DistanceMeters>
          </Trackpoint>
          <Trackpoint>
            <Time>2021-10-09T06:46:25.000Z</Time>
            <Position>
              <LatitudeDegrees>39.4575991295278072357177734375</LatitudeDegrees>
              <LongitudeDegrees>-0.451784245669841766357421875</LongitudeDegrees>
            </Position>
            <AltitudeMeters>57.40000152587890625</AltitudeMeters>
            <DistanceMeters>52.592850661457</DistanceMeters>
          </Trackpoint>
          <Trackpoint>
            <Time>2021-10-09T06:46:26.000Z</Time>
            <Position>
              <LatitudeDegrees>39.45762938819825649261474609375</LatitudeDegrees>
              <LongitudeDegrees>-0.45170838944613933563232421875</LongitudeDegrees>
            </Position>
            <AltitudeMeters>57.200000762939453125</AltitudeMeters>
            <DistanceMeters>59.930242279659</DistanceMeters>
          </Trackpoint>
          <Trackpoint>
            <Time>2021-10-09T06:47:14.000Z</Time>
            <Position>
              <LatitudeDegrees>39.457850418984889984130859375</LatitudeDegrees>
              <LongitudeDegrees>-0.45099123381078243255615234375</LongitudeDegrees>
            </Position>
            <AltitudeMeters>57</AltitudeMeters>
            <DistanceMeters>126.28822090158</DistanceMeters>
          </Trackpoint>
          <Trackpoint>
            <Time>2021-10-09T06:47:15.000Z</Time>
            <Position>
              <LatitudeDegrees>39.45787061937153339385986328125</LatitudeDegrees>
              <LongitudeDegrees>-0.450923927128314971923828125</LongitudeDegrees>
            </Position>
            <AltitudeMeters>57</AltitudeMeters>
            <DistanceMeters>132.49412744563</DistanceMeters>
          </Trackpoint>
          <Trackpoint>
            <Time>2021-10-09T06:47:16.000Z</Time>
            <Position>
              <LatitudeDegrees>39.45790263824164867401123046875</LatitudeDegrees>
              <LongitudeDegrees>-0.45085494406521320343017578125</LongitudeDegrees>
            </Position>
            <AltitudeMeters>57</AltitudeMeters>
            <DistanceMeters>139.41152399899</DistanceMeters>
          </Trackpoint>
          <Trackpoint>
            <Time>2021-10-09T06:47:17.000Z</Time>
            <Position>
              <LatitudeDegrees>39.4579246826469898223876953125</LatitudeDegrees>
              <LongitudeDegrees>-0.45078369788825511932373046875</LongitudeDegrees>
            </Position>
            <AltitudeMeters>57</AltitudeMeters>
            <DistanceMeters>146.00750067474</DistanceMeters>
          </Trackpoint>
          <Trackpoint>
            <Time>2021-10-09T06:47:18.000Z</Time>
            <Position>
              <LatitudeDegrees>39.457955025136470794677734375</LatitudeDegrees>
              <LongitudeDegrees>-0.45071094296872615814208984375</LongitudeDegrees>
            </Position>
            <AltitudeMeters>57</AltitudeMeters>
            <DistanceMeters>153.1135676231</DistanceMeters>
          </Trackpoint>
          <Trackpoint>
            <Time>2021-10-09T06:47:19.000Z</Time>
            <Position>
              <LatitudeDegrees>39.457955025136470794677734375</LatitudeDegrees>
              <LongitudeDegrees>-0.45071094296872615814208984375</LongitudeDegrees>
            </Position>
            <AltitudeMeters>57</AltitudeMeters>
            <DistanceMeters>153.1135676231</DistanceMeters>
          </Trackpoint>
          <Trackpoint>
            <Time>2021-10-09T06:47:20.000Z</Time>
            <Position>
              <LatitudeDegrees>39.4580145366489887237548828125</LatitudeDegrees>
              <LongitudeDegrees>-0.45056610368192195892333984375</LongitudeDegrees>
            </Position>
            <AltitudeMeters>57.200000762939453125</AltitudeMeters>
            <DistanceMeters>167.21343155827</DistanceMeters>
          </Trackpoint>
          <Trackpoint>
            <Time>2021-10-09T06:47:21.000Z</Time>
            <Position>
              <LatitudeDegrees>39.45804043672978878021240234375</LatitudeDegrees>
              <LongitudeDegrees>-0.4504915885627269744873046875</LongitudeDegrees>
            </Position>
            <AltitudeMeters>57.200000762939453125</AltitudeMeters>
            <DistanceMeters>174.23641365542</DistanceMeters>
          </Trackpoint>
          <Trackpoint>
            <Time>2021-10-09T06:47:22.000Z</Time>
            <Position>
              <LatitudeDegrees>39.4580671750009059906005859375</LatitudeDegrees>
              <LongitudeDegrees>-0.4504154808819293975830078125</LongitudeDegrees>
            </Position>
            <AltitudeMeters>57.40000152587890625</AltitudeMeters>
            <DistanceMeters>181.42209226683</DistanceMeters>
          </Trackpoint>
          <Trackpoint>
            <Time>2021-10-09T06:47:23.000Z</Time>
            <Position>
              <LatitudeDegrees>39.45809810422360897064208984375</LatitudeDegrees>
              <LongitudeDegrees>-0.450337864458560943603515625</LongitudeDegrees>
            </Position>
            <AltitudeMeters>57.40000152587890625</AltitudeMeters>
            <DistanceMeters>188.92860124306</DistanceMeters>
          </Trackpoint>
          <Trackpoint>
            <Time>2021-10-09T06:47:24.000Z</Time>
            <Position>
              <LatitudeDegrees>39.458129703998565673828125</LatitudeDegrees>
              <LongitudeDegrees>-0.4502585716545581817626953125</LongitudeDegrees>
            </Position>
            <AltitudeMeters>57.200000762939453125</AltitudeMeters>
            <DistanceMeters>196.59696859231</DistanceMeters>
          </Trackpoint>
          <Trackpoint>
            <Time>2021-10-09T06:47:25.000Z</Time>
            <Position>
              <LatitudeDegrees>39.45816298015415668487548828125</LatitudeDegrees>
              <LongitudeDegrees>-0.45017852447926998138427734375</LongitudeDegrees>
            </Position>
            <AltitudeMeters>57.200000762939453125</AltitudeMeters>
            <DistanceMeters>204.40999084757</DistanceMeters>
          </Trackpoint>
          <Trackpoint>
            <Time>2021-10-09T06:47:26.000Z</Time>
            <Position>
              <LatitudeDegrees>39.458195082843303680419921875</LatitudeDegrees>
              <LongitudeDegrees>-0.4500966332852840423583984375</LongitudeDegrees>
            </Position>
            <AltitudeMeters>57.200000762939453125</AltitudeMeters>
            <DistanceMeters>212.30235850946</DistanceMeters>
          </Trackpoint>
          <Trackpoint>
            <Time>2021-10-09T06:47:27.000Z</Time>
            <Position>
              <LatitudeDegrees>39.45822559297084808349609375</LatitudeDegrees>
              <LongitudeDegrees>-0.45001926831901073455810546875</LongitudeDegrees>
            </Position>
            <AltitudeMeters>57.200000762939453125</AltitudeMeters>
            <DistanceMeters>219.76785459559</DistanceMeters>
          </Trackpoint>
          <Trackpoint>
            <Time>2021-10-09T06:47:28.000Z</Time>
            <Position>
              <LatitudeDegrees>39.4582542590796947479248046875</LatitudeDegrees>
              <LongitudeDegrees>-0.44994265772402286529541015625</LongitudeDegrees>
            </Position>
            <AltitudeMeters>57.200000762939453125</AltitudeMeters>
            <DistanceMeters>227.08429451947</DistanceMeters>
          </Trackpoint>
          <Trackpoint>
            <Time>2021-10-09T06:47:29.000Z</Time>
            <Position>
              <LatitudeDegrees>39.45827865041792392730712890625</LatitudeDegrees>
              <LongitudeDegrees>-0.4498686455190181732177734375</LongitudeDegrees>
            </Position>
            <AltitudeMeters>57.200000762939453125</AltitudeMeters>
            <DistanceMeters>233.99973267242</DistanceMeters>
          </Trackpoint>
          <Trackpoint>
            <Time>2021-10-09T06:47:30.000Z</Time>
            <Position>
              <LatitudeDegrees>39.4583058916032314300537109375</LatitudeDegrees>
              <LongitudeDegrees>-0.44979463331401348114013671875</LongitudeDegrees>
            </Position>
            <AltitudeMeters>57.200000762939453125</AltitudeMeters>
            <DistanceMeters>241.0458209694</DistanceMeters>
          </Trackpoint>
          <Trackpoint>
            <Time>2021-10-09T06:47:31.000Z</Time>
            <Position>
              <LatitudeDegrees>39.45833288133144378662109375</LatitudeDegrees>
              <LongitudeDegrees>-0.44972187839448451995849609375</LongitudeDegrees>
            </Position>
            <AltitudeMeters>57.200000762939453125</AltitudeMeters>
            <DistanceMeters>247.98212021997</DistanceMeters>
          </Trackpoint>
          <Trackpoint>
            <Time>2021-10-09T06:47:32.000Z</Time>
            <Position>
              <LatitudeDegrees>39.4583588652312755584716796875</LatitudeDegrees>
              <LongitudeDegrees>-0.4496495425701141357421875</LongitudeDegrees>
            </Position>
            <AltitudeMeters>57.200000762939453125</AltitudeMeters>
            <DistanceMeters>254.83722910417</DistanceMeters>
          </Trackpoint>
          <Trackpoint>
            <Time>2021-10-09T06:47:33.000Z</Time>
            <Position>
              <LatitudeDegrees>39.4583588652312755584716796875</LatitudeDegrees>
              <LongitudeDegrees>-0.4496495425701141357421875</LongitudeDegrees>
            </Position>
            <AltitudeMeters>57.200000762939453125</AltitudeMeters>
            <DistanceMeters>254.83722910417</DistanceMeters>
          </Trackpoint>
          <Trackpoint>
            <Time>2021-10-09T06:47:34.000Z</Time>
            <Position>
              <LatitudeDegrees>39.45840756408870220184326171875</LatitudeDegrees>
              <LongitudeDegrees>-0.449508391320705413818359375</LongitudeDegrees>
            </Position>
            <AltitudeMeters>57</AltitudeMeters>
            <DistanceMeters>268.12296974029</DistanceMeters>
          </Trackpoint>
          <Trackpoint>
            <Time>2021-10-09T06:47:35.000Z</Time>
            <Position>
              <LatitudeDegrees>39.45843488909304141998291015625</LatitudeDegrees>
              <LongitudeDegrees>-0.44943404383957386016845703125</LongitudeDegrees>
            </Position>
            <AltitudeMeters>57</AltitudeMeters>
            <DistanceMeters>275.19847281818</DistanceMeters>
          </Trackpoint>
          <Trackpoint>
            <Time>2021-10-09T06:47:36.000Z</Time>
            <Position>
              <LatitudeDegrees>39.458457939326763153076171875</LatitudeDegrees>
              <LongitudeDegrees>-0.44935458339750766754150390625</LongitudeDegrees>
            </Position>
            <AltitudeMeters>56.799999237060546875</AltitudeMeters>
            <DistanceMeters>282.49390087695</DistanceMeters>
          </Trackpoint>
          <Trackpoint>
            <Time>2021-10-09T06:47:37.000Z</Time>
            <Position>
              <LatitudeDegrees>39.45847369730472564697265625</LatitudeDegrees>
              <LongitudeDegrees>-0.44927529059350490570068359375</LongitudeDegrees>
            </Position>
            <AltitudeMeters>56.799999237060546875</AltitudeMeters>
            <DistanceMeters>289.53101244482</DistanceMeters>
          </Trackpoint>
          <Trackpoint>
            <Time>2021-10-09T06:47:38.000Z</Time>
            <Position>
              <LatitudeDegrees>39.4584933109581470489501953125</LatitudeDegrees>
              <LongitudeDegrees>-0.4491977579891681671142578125</LongitudeDegrees>
            </Position>
            <AltitudeMeters>56.799999237060546875</AltitudeMeters>
            <DistanceMeters>296.54176890075</DistanceMeters>
          </Trackpoint>
          <Trackpoint>
            <Time>2021-10-09T06:47:39.000Z</Time>
            <Position>
              <LatitudeDegrees>39.45850898511707782745361328125</LatitudeDegrees>
              <LongitudeDegrees>-0.44911854900419712066650390625</LongitudeDegrees>
            </Position>
            <AltitudeMeters>56.59999847412109375</AltitudeMeters>
            <DistanceMeters>303.56860730757</DistanceMeters>
          </Trackpoint>
          <Trackpoint>
            <Time>2021-10-09T06:47:40.000Z</Time>
            <Position>
              <LatitudeDegrees>39.458519630134105682373046875</LatitudeDegrees>
              <LongitudeDegrees>-0.4490341432392597198486328125</LongitudeDegrees>
            </Position>
            <AltitudeMeters>56.59999847412109375</AltitudeMeters>
            <DistanceMeters>310.91829555183</DistanceMeters>
          </Trackpoint>
          <Trackpoint>
            <Time>2021-10-09T06:47:41.000Z</Time>
            <Position>
              <LatitudeDegrees>39.4585318677127361297607421875</LatitudeDegrees>
              <LongitudeDegrees>-0.448948480188846588134765625</LongitudeDegrees>
            </Position>
            <AltitudeMeters>56.40000152587890625</AltitudeMeters>
            <DistanceMeters>318.40492927384</DistanceMeters>
          </Trackpoint>
          <Trackpoint>
            <Time>2021-10-09T06:47:42.000Z</Time>
            <Position>
              <LatitudeDegrees>39.4585560075938701629638671875</LatitudeDegrees>
              <LongitudeDegrees>-0.4488698579370975494384765625</LongitudeDegrees>
            </Position>
            <AltitudeMeters>56.40000152587890625</AltitudeMeters>
            <DistanceMeters>325.67555974877</DistanceMeters>
          </Trackpoint>
          <Trackpoint>
            <Time>2021-10-09T06:47:43.000Z</Time>
            <Position>
              <LatitudeDegrees>39.45859305560588836669921875</LatitudeDegrees>
              <LongitudeDegrees>-0.44879735447466373443603515625</LongitudeDegrees>
            </Position>
            <AltitudeMeters>56.40000152587890625</AltitudeMeters>
            <DistanceMeters>333.14710126151</DistanceMeters>
          </Trackpoint>
          <Trackpoint>
            <Time>2021-10-09T06:47:44.000Z</Time>
            <Position>
              <LatitudeDegrees>39.45863152854144573211669921875</LatitudeDegrees>
              <LongitudeDegrees>-0.44872912578284740447998046875</LongitudeDegrees>
            </Position>
            <AltitudeMeters>56.40000152587890625</AltitudeMeters>
            <DistanceMeters>340.40778898925</DistanceMeters>
          </Trackpoint>
          <Trackpoint>
            <Time>2021-10-09T06:47:45.000Z</Time>
            <Position>
              <LatitudeDegrees>39.45866807363927364349365234375</LatitudeDegrees>
              <LongitudeDegrees>-0.4486593045294284820556640625</LongitudeDegrees>
            </Position>
            <AltitudeMeters>56.40000152587890625</AltitudeMeters>
            <DistanceMeters>347.65727482645</DistanceMeters>
          </Trackpoint>
          <Trackpoint>
            <Time>2021-10-09T06:47:46.000Z</Time>
            <Position>
              <LatitudeDegrees>39.458706714212894439697265625</LatitudeDegrees>
              <LongitudeDegrees>-0.44858613051474094390869140625</LongitudeDegrees>
            </Position>
            <AltitudeMeters>56.40000152587890625</AltitudeMeters>
            <DistanceMeters>355.27543085697</DistanceMeters>
          </Trackpoint>
          <Trackpoint>
            <Time>2021-10-09T06:47:47.000Z</Time>
            <Position>
              <LatitudeDegrees>39.45874149911105632781982421875</LatitudeDegrees>
              <LongitudeDegrees>-0.44851295650005340576171875</LongitudeDegrees>
            </Position>
            <AltitudeMeters>56.40000152587890625</AltitudeMeters>
            <DistanceMeters>362.66005215024</DistanceMeters>
          </Trackpoint>
          <Trackpoint>
            <Time>2021-10-09T06:47:48.000Z</Time>
            <Position>
              <LatitudeDegrees>39.45877670310437679290771484375</LatitudeDegrees>
              <LongitudeDegrees>-0.4484366811811923980712890625</LongitudeDegrees>
            </Position>
            <AltitudeMeters>56.40000152587890625</AltitudeMeters>
            <DistanceMeters>370.29655879105</DistanceMeters>
          </Trackpoint>
          <Trackpoint>
            <Time>2021-10-09T06:47:49.000Z</Time>
            <Position>
              <LatitudeDegrees>39.45881023071706295013427734375</LatitudeDegrees>
              <LongitudeDegrees>-0.44835730455815792083740234375</LongitudeDegrees>
            </Position>
            <AltitudeMeters>56.40000152587890625</AltitudeMeters>
            <DistanceMeters>378.07192770784</DistanceMeters>
          </Trackpoint>
          <Trackpoint>
            <Time>2021-10-09T06:47:50.000Z</Time>
            <Position>
              <LatitudeDegrees>39.45884057320654392242431640625</LatitudeDegrees>
              <LongitudeDegrees>-0.44827968813478946685791015625</LongitudeDegrees>
            </Position>
            <AltitudeMeters>56.40000152587890625</AltitudeMeters>
            <DistanceMeters>385.54890592531</DistanceMeters>
          </Trackpoint>
          <Trackpoint>
            <Time>2021-10-09T06:47:51.000Z</Time>
            <Position>
              <LatitudeDegrees>39.45887007750570774078369140625</LatitudeDegrees>
              <LongitudeDegrees>-0.4482013173401355743408203125</LongitudeDegrees>
            </Position>
            <AltitudeMeters>56.200000762939453125</AltitudeMeters>
            <DistanceMeters>393.04217058957</DistanceMeters>
          </Trackpoint>
          <Trackpoint>
            <Time>2021-10-09T06:47:52.000Z</Time>
            <Position>
              <LatitudeDegrees>39.45890109054744243621826171875</LatitudeDegrees>
              <LongitudeDegrees>-0.4481208510696887969970703125</LongitudeDegrees>
            </Position>
            <AltitudeMeters>56.200000762939453125</AltitudeMeters>
            <DistanceMeters>400.77036090815</DistanceMeters>
          </Trackpoint>
          <Trackpoint>
            <Time>2021-10-09T06:47:53.000Z</Time>
            <Position>
              <LatitudeDegrees>39.4589311815798282623291015625</LatitudeDegrees>
              <LongitudeDegrees>-0.4480390436947345733642578125</LongitudeDegrees>
            </Position>
            <AltitudeMeters>56.200000762939453125</AltitudeMeters>
            <DistanceMeters>408.55733485964</DistanceMeters>
          </Trackpoint>
          <Trackpoint>
            <Time>2021-10-09T06:47:54.000Z</Time>
            <Position>
              <LatitudeDegrees>39.45896127261221408843994140625</LatitudeDegrees>
              <LongitudeDegrees>-0.447957403957843780517578125</LongitudeDegrees>
            </Position>
            <AltitudeMeters>56.200000762939453125</AltitudeMeters>
            <DistanceMeters>416.33212306999</DistanceMeters>
          </Trackpoint>
          <Trackpoint>
            <Time>2021-10-09T06:47:55.000Z</Time>
            <Position>
              <LatitudeDegrees>39.458991028368473052978515625</LatitudeDegrees>
              <LongitudeDegrees>-0.44787618331611156463623046875</LongitudeDegrees>
            </Position>
            <AltitudeMeters>56.200000762939453125</AltitudeMeters>
            <DistanceMeters>424.05739168786</DistanceMeters>
          </Trackpoint>
          <Trackpoint>
            <Time>2021-10-09T06:47:56.000Z</Time>
            <Position>
              <LatitudeDegrees>39.45901391096413135528564453125</LatitudeDegrees>
              <LongitudeDegrees>-0.44779571704566478729248046875</LongitudeDegrees>
            </Position>
            <AltitudeMeters>56</AltitudeMeters>
            <DistanceMeters>431.42609914965</DistanceMeters>
          </Trackpoint>
          <Trackpoint>
            <Time>2021-10-09T06:47:57.000Z</Time>
            <Position>
              <LatitudeDegrees>39.4590327702462673187255859375</LatitudeDegrees>
              <LongitudeDegrees>-0.44771768152713775634765625</LongitudeDegrees>
            </Position>
            <AltitudeMeters>56</AltitudeMeters>
            <DistanceMeters>438.45293755647</DistanceMeters>
          </Trackpoint>
          <Trackpoint>
            <Time>2021-10-09T06:47:58.000Z</Time>
            <Position>
              <LatitudeDegrees>39.45904903113842010498046875</LatitudeDegrees>
              <LongitudeDegrees>-0.44764031656086444854736328125</LongitudeDegrees>
            </Position>
            <AltitudeMeters>56</AltitudeMeters>
            <DistanceMeters>445.34352112699</DistanceMeters>
          </Trackpoint>
          <Trackpoint>
            <Time>2021-10-09T06:47:59.000Z</Time>
            <Position>
              <LatitudeDegrees>39.45906152017414569854736328125</LatitudeDegrees>
              <LongitudeDegrees>-0.44756337068974971771240234375</LongitudeDegrees>
            </Position>
            <AltitudeMeters>56</AltitudeMeters>
            <DistanceMeters>452.10044842426</DistanceMeters>
          </Trackpoint>
          <Trackpoint>
            <Time>2021-10-09T06:48:00.000Z</Time>
            <Position>
              <LatitudeDegrees>39.45906671695411205291748046875</LatitudeDegrees>
              <LongitudeDegrees>-0.44748709537088871002197265625</LongitudeDegrees>
            </Position>
            <AltitudeMeters>56</AltitudeMeters>
            <DistanceMeters>458.68066244424</DistanceMeters>
          </Trackpoint>
          <Trackpoint>
            <Time>2021-10-09T06:48:01.000Z</Time>
            <Position>
              <LatitudeDegrees>39.45906017906963825225830078125</LatitudeDegrees>
              <LongitudeDegrees>-0.44741216115653514862060546875</LongitudeDegrees>
            </Position>
            <AltitudeMeters>56</AltitudeMeters>
            <DistanceMeters>465.16062042747</DistanceMeters>
          </Trackpoint>
          <Trackpoint>
            <Time>2021-10-09T06:48:02.000Z</Time>
            <Position>
              <LatitudeDegrees>39.45904207415878772735595703125</LatitudeDegrees>
              <LongitudeDegrees>-0.44734074734151363372802734375</LongitudeDegrees>
            </Position>
            <AltitudeMeters>56</AltitudeMeters>
            <DistanceMeters>471.61894243049</DistanceMeters>
          </Trackpoint>
          <Trackpoint>
            <Time>2021-10-09T06:48:03.000Z</Time>
            <Position>
              <LatitudeDegrees>39.4590156711637973785400390625</LatitudeDegrees>
              <LongitudeDegrees>-0.44726581312716007232666015625</LongitudeDegrees>
            </Position>
            <AltitudeMeters>55.799999237060546875</AltitudeMeters>
            <DistanceMeters>478.69763540218</DistanceMeters>
          </Trackpoint>
          <Trackpoint>
            <Time>2021-10-09T06:48:04.000Z</Time>
            <Position>
              <LatitudeDegrees>39.45899597369134426116943359375</LatitudeDegrees>
              <LongitudeDegrees>-0.44718719087541103363037109375</LongitudeDegrees>
            </Position>
            <AltitudeMeters>55.799999237060546875</AltitudeMeters>
            <DistanceMeters>485.8011603841</DistanceMeters>
          </Trackpoint>
          <Trackpoint>
            <Time>2021-10-09T06:48:05.000Z</Time>
            <Position>
              <LatitudeDegrees>39.4589841552078723907470703125</LatitudeDegrees>
              <LongitudeDegrees>-0.44710370711982250213623046875</LongitudeDegrees>
            </Position>
            <AltitudeMeters>55.799999237060546875</AltitudeMeters>
            <DistanceMeters>493.09535056587</DistanceMeters>
          </Trackpoint>
          <Trackpoint>
            <Time>2021-10-09T06:48:06.000Z</Time>
            <Position>
              <LatitudeDegrees>39.4589831493794918060302734375</LatitudeDegrees>
              <LongitudeDegrees>-0.4470182955265045166015625</LongitudeDegrees>
            </Position>
            <AltitudeMeters>56</AltitudeMeters>
            <DistanceMeters>500.43643333461</DistanceMeters>
          </Trackpoint>
          <Trackpoint>
            <Time>2021-10-09T06:48:07.000Z</Time>
            <Position>
              <LatitudeDegrees>39.45899463258683681488037109375</LatitudeDegrees>
              <LongitudeDegrees>-0.4469356499612331390380859375</LongitudeDegrees>
            </Position>
            <AltitudeMeters>56</AltitudeMeters>
            <DistanceMeters>507.65220916094</DistanceMeters>
          </Trackpoint>
          <Trackpoint>
            <Time>2021-10-09T06:48:08.000Z</Time>
            <Position>
              <LatitudeDegrees>39.459019191563129425048828125</LatitudeDegrees>
              <LongitudeDegrees>-0.44685803353786468505859375</LongitudeDegrees>
            </Position>
            <AltitudeMeters>56</AltitudeMeters>
            <DistanceMeters>514.86047246485</DistanceMeters>
          </Trackpoint>
          <Trackpoint>
            <Time>2021-10-09T06:48:09.000Z</Time>
            <Position>
              <LatitudeDegrees>39.45905439555644989013671875</LatitudeDegrees>
              <LongitudeDegrees>-0.44678536243736743927001953125</LongitudeDegrees>
            </Position>
            <AltitudeMeters>56</AltitudeMeters>
            <DistanceMeters>522.23346779868</DistanceMeters>
          </Trackpoint>
          <Trackpoint>
            <Time>2021-10-09T06:48:10.000Z</Time>
            <Position>
              <LatitudeDegrees>39.45910158567130565643310546875</LatitudeDegrees>
              <LongitudeDegrees>-0.4467220790684223175048828125</LongitudeDegrees>
            </Position>
            <AltitudeMeters>56</AltitudeMeters>
            <DistanceMeters>529.79391645536</DistanceMeters>
          </Trackpoint>
          <Trackpoint>
            <Time>2021-10-09T06:48:11.000Z</Time>
            <Position>
              <LatitudeDegrees>39.4591588340699672698974609375</LatitudeDegrees>
              <LongitudeDegrees>-0.4466748051345348358154296875</LongitudeDegrees>
            </Position>
            <AltitudeMeters>56</AltitudeMeters>
            <DistanceMeters>537.35078111152</DistanceMeters>
          </Trackpoint>
          <Trackpoint>
            <Time>2021-10-09T06:48:12.000Z</Time>
            <Position>
              <LatitudeDegrees>39.45922329090535640716552734375</LatitudeDegrees>
              <LongitudeDegrees>-0.44664571993052959442138671875</LongitudeDegrees>
            </Position>
            <AltitudeMeters>56</AltitudeMeters>
            <DistanceMeters>544.94816543968</DistanceMeters>
          </Trackpoint>
          <Trackpoint>
            <Time>2021-10-09T06:48:13.000Z</Time>
            <Position>
              <LatitudeDegrees>39.45929034613072872161865234375</LatitudeDegrees>
              <LongitudeDegrees>-0.44663633219897747039794921875</LongitudeDegrees>
            </Position>
            <AltitudeMeters>56</AltitudeMeters>
            <DistanceMeters>552.45527587491</DistanceMeters>
          </Trackpoint>
          <Trackpoint>
            <Time>2021-10-09T06:48:14.000Z</Time>
            <Position>
              <LatitudeDegrees>39.459358155727386474609375</LatitudeDegrees>
              <LongitudeDegrees>-0.44664320535957813262939453125</LongitudeDegrees>
            </Position>
            <AltitudeMeters>56</AltitudeMeters>
            <DistanceMeters>560.02586998566</DistanceMeters>
          </Trackpoint>
          <Trackpoint>
            <Time>2021-10-09T06:48:15.000Z</Time>
            <Position>
              <LatitudeDegrees>39.45942294783890247344970703125</LatitudeDegrees>
              <LongitudeDegrees>-0.4466669261455535888671875</LongitudeDegrees>
            </Position>
            <AltitudeMeters>56</AltitudeMeters>
            <DistanceMeters>567.5197371719</DistanceMeters>
          </Trackpoint>
          <Trackpoint>
            <Time>2021-10-09T06:48:16.000Z</Time>
            <Position>
              <LatitudeDegrees>39.4594840519130229949951171875</LatitudeDegrees>
              <LongitudeDegrees>-0.44670590199530124664306640625</LongitudeDegrees>
            </Position>
            <AltitudeMeters>56</AltitudeMeters>
            <DistanceMeters>575.10046315886</DistanceMeters>
          </Trackpoint>
          <Trackpoint>
            <Time>2021-10-09T06:48:17.000Z</Time>
            <Position>
              <LatitudeDegrees>39.45953853428363800048828125</LatitudeDegrees>
              <LongitudeDegrees>-0.44676004908978939056396484375</LongitudeDegrees>
            </Position>
            <AltitudeMeters>56</AltitudeMeters>
            <DistanceMeters>582.74406143404</DistanceMeters>
          </Trackpoint>
          <Trackpoint>
            <Time>2021-10-09T06:48:18.000Z</Time>
            <Position>
              <LatitudeDegrees>39.45958421565592288970947265625</LatitudeDegrees>
              <LongitudeDegrees>-0.44682576321065425872802734375</LongitudeDegrees>
            </Position>
            <AltitudeMeters>56</AltitudeMeters>
            <DistanceMeters>590.34263424626</DistanceMeters>
          </Trackpoint>
          <Trackpoint>
            <Time>2021-10-09T06:48:19.000Z</Time>
            <Position>
              <LatitudeDegrees>39.4596178270876407623291015625</LatitudeDegrees>
              <LongitudeDegrees>-0.44690069742500782012939453125</LongitudeDegrees>
            </Position>
            <AltitudeMeters>56.200000762939453125</AltitudeMeters>
            <DistanceMeters>597.78996460813</DistanceMeters>
          </Trackpoint>
          <Trackpoint>
            <Time>2021-10-09T06:48:20.000Z</Time>
            <Position>
              <LatitudeDegrees>39.4596406258642673492431640625</LatitudeDegrees>
              <LongitudeDegrees>-0.4469834268093109130859375</LongitudeDegrees>
            </Position>
            <AltitudeMeters>56.200000762939453125</AltitudeMeters>
            <DistanceMeters>605.33845997882</DistanceMeters>
          </Trackpoint>
          <Trackpoint>
            <Time>2021-10-09T06:48:21.000Z</Time>
            <Position>
              <LatitudeDegrees>39.4596651010215282440185546875</LatitudeDegrees>
              <LongitudeDegrees>-0.44706515036523342132568359375</LongitudeDegrees>
            </Position>
            <AltitudeMeters>56.200000762939453125</AltitudeMeters>
            <DistanceMeters>612.87018887868</DistanceMeters>
          </Trackpoint>
          <Trackpoint>
            <Time>2021-10-09T06:48:22.000Z</Time>
            <Position>
              <LatitudeDegrees>39.45969837717711925506591796875</LatitudeDegrees>
              <LongitudeDegrees>-0.4471428506076335906982421875</LongitudeDegrees>
            </Position>
            <AltitudeMeters>56.200000762939453125</AltitudeMeters>
            <DistanceMeters>620.50551294005</DistanceMeters>
          </Trackpoint>
          <Trackpoint>
            <Time>2021-10-09T06:48:23.000Z</Time>
            <Position>
              <LatitudeDegrees>39.45973995141685009002685546875</LatitudeDegrees>
              <LongitudeDegrees>-0.44721317477524280548095703125</LongitudeDegrees>
            </Position>
            <AltitudeMeters>56.200000762939453125</AltitudeMeters>
            <DistanceMeters>628.11714682933</DistanceMeters>
          </Trackpoint>
          <Trackpoint>
            <Time>2021-10-09T06:48:24.000Z</Time>
            <Position>
              <LatitudeDegrees>39.45978973992168903350830078125</LatitudeDegrees>
              <LongitudeDegrees>-0.447272099554538726806640625</LongitudeDegrees>
            </Position>
            <AltitudeMeters>56.200000762939453125</AltitudeMeters>
            <DistanceMeters>635.62365580556</DistanceMeters>
          </Trackpoint>
          <Trackpoint>
            <Time>2021-10-09T06:48:25.000Z</Time>
            <Position>
              <LatitudeDegrees>39.45984807796776294708251953125</LatitudeDegrees>
              <LongitudeDegrees>-0.44731400907039642333984375</LongitudeDegrees>
            </Position>
            <AltitudeMeters>56.200000762939453125</AltitudeMeters>
            <DistanceMeters>643.04912863676</DistanceMeters>
          </Trackpoint>
          <Trackpoint>
            <Time>2021-10-09T06:48:26.000Z</Time>
            <Position>
              <LatitudeDegrees>39.45991060696542263031005859375</LatitudeDegrees>
              <LongitudeDegrees>-0.447345860302448272705078125</LongitudeDegrees>
            </Position>
            <AltitudeMeters>56.200000762939453125</AltitudeMeters>
            <DistanceMeters>650.52791821087</DistanceMeters>
          </Trackpoint>
          <Trackpoint>
            <Time>2021-10-09T06:48:27.000Z</Time>
            <Position>
              <LatitudeDegrees>39.45997548289597034454345703125</LatitudeDegrees>
              <LongitudeDegrees>-0.4473750293254852294921875</LongitudeDegrees>
            </Position>
            <AltitudeMeters>56.200000762939453125</AltitudeMeters>
            <DistanceMeters>658.17151648605</DistanceMeters>
          </Trackpoint>
          <Trackpoint>
            <Time>2021-10-09T06:48:28.000Z</Time>
            <Position>
              <LatitudeDegrees>39.4600382633507251739501953125</LatitudeDegrees>
              <LongitudeDegrees>-0.44740294106304645538330078125</LongitudeDegrees>
            </Position>
            <AltitudeMeters>56.200000762939453125</AltitudeMeters>
            <DistanceMeters>665.5591942015</DistanceMeters>
          </Trackpoint>
          <Trackpoint>
            <Time>2021-10-09T06:48:29.000Z</Time>
            <Position>
              <LatitudeDegrees>39.46010305546224117279052734375</LatitudeDegrees>
              <LongitudeDegrees>-0.44742724858224391937255859375</LongitudeDegrees>
            </Position>
            <AltitudeMeters>56.200000762939453125</AltitudeMeters>
            <DistanceMeters>673.06690604754</DistanceMeters>
          </Trackpoint>
          <Trackpoint>
            <Time>2021-10-09T06:48:30.000Z</Time>
            <Position>
              <LatitudeDegrees>39.46016457863152027130126953125</LatitudeDegrees>
              <LongitudeDegrees>-0.44744686223566532135009765625</LongitudeDegrees>
            </Position>
            <AltitudeMeters>56.200000762939453125</AltitudeMeters>
            <DistanceMeters>680.11939929839</DistanceMeters>
          </Trackpoint>
          <Trackpoint>
            <Time>2021-10-09T06:48:31.000Z</Time>
            <Position>
              <LatitudeDegrees>39.46022375486791133880615234375</LatitudeDegrees>
              <LongitudeDegrees>-0.44746748171746730804443359375</LongitudeDegrees>
            </Position>
            <AltitudeMeters>56.40000152587890625</AltitudeMeters>
            <DistanceMeters>686.94017299638</DistanceMeters>
          </Trackpoint>
          <Trackpoint>
            <Time>2021-10-09T06:48:32.000Z</Time>
            <Position>
              <LatitudeDegrees>39.46028527803719043731689453125</LatitudeDegrees>
              <LongitudeDegrees>-0.44748374260962009429931640625</LongitudeDegrees>
            </Position>
            <AltitudeMeters>56.40000152587890625</AltitudeMeters>
            <DistanceMeters>693.92835254537</DistanceMeters>
          </Trackpoint>
          <Trackpoint>
            <Time>2021-10-09T06:48:33.000Z</Time>
            <Position>
              <LatitudeDegrees>39.46034512482583522796630859375</LatitudeDegrees>
              <LongitudeDegrees>-0.44749715365469455718994140625</LongitudeDegrees>
            </Position>
            <AltitudeMeters>56.40000152587890625</AltitudeMeters>
            <DistanceMeters>700.688620061</DistanceMeters>
          </Trackpoint>
          <Trackpoint>
            <Time>2021-10-09T06:48:34.000Z</Time>
            <Position>
              <LatitudeDegrees>39.46040396578609943389892578125</LatitudeDegrees>
              <LongitudeDegrees>-0.44750788249075412750244140625</LongitudeDegrees>
            </Position>
            <AltitudeMeters>56.40000152587890625</AltitudeMeters>
            <DistanceMeters>707.30305279336</DistanceMeters>
          </Trackpoint>
          <Trackpoint>
            <Time>2021-10-09T06:48:35.000Z</Time>
            <Position>
              <LatitudeDegrees>39.4604645669460296630859375</LatitudeDegrees>
              <LongitudeDegrees>-0.44751877896487712860107421875</LongitudeDegrees>
            </Position>
            <AltitudeMeters>56.59999847412109375</AltitudeMeters>
            <DistanceMeters>714.11256397551</DistanceMeters>
          </Trackpoint>
          <Trackpoint>
            <Time>2021-10-09T06:48:36.000Z</Time>
            <Position>
              <LatitudeDegrees>39.46052399463951587677001953125</LatitudeDegrees>
              <LongitudeDegrees>-0.44752833433449268341064453125</LongitudeDegrees>
            </Position>
            <AltitudeMeters>56.799999237060546875</AltitudeMeters>
            <DistanceMeters>720.77799540222</DistanceMeters>
          </Trackpoint>
          <Trackpoint>
            <Time>2021-10-09T06:48:37.000Z</Time>
            <Position>
              <LatitudeDegrees>39.4605783931910991668701171875</LatitudeDegrees>
              <LongitudeDegrees>-0.4475364647805690765380859375</LongitudeDegrees>
            </Position>
            <AltitudeMeters>57</AltitudeMeters>
            <DistanceMeters>726.8730536046</DistanceMeters>
          </Trackpoint>
          <Trackpoint>
            <Time>2021-10-09T06:48:38.000Z</Time>
            <Position>
              <LatitudeDegrees>39.4606335461139678955078125</LatitudeDegrees>
              <LongitudeDegrees>-0.44754442758858203887939453125</LongitudeDegrees>
            </Position>
            <AltitudeMeters>57.40000152587890625</AltitudeMeters>
            <DistanceMeters>733.05052097013</DistanceMeters>
          </Trackpoint>
          <Trackpoint>
            <Time>2021-10-09T06:48:39.000Z</Time>
            <Position>
              <LatitudeDegrees>39.46068576537072658538818359375</LatitudeDegrees>
              <LongitudeDegrees>-0.44755498878657817840576171875</LongitudeDegrees>
            </Position>
            <AltitudeMeters>57.59999847412109375</AltitudeMeters>
            <DistanceMeters>738.93297393919</DistanceMeters>
          </Trackpoint>
          <Trackpoint>
            <Time>2021-10-09T06:48:40.000Z</Time>
            <Position>
              <LatitudeDegrees>39.46073924191296100616455078125</LatitudeDegrees>
              <LongitudeDegrees>-0.4475626163184642791748046875</LongitudeDegrees>
            </Position>
            <AltitudeMeters>58</AltitudeMeters>
            <DistanceMeters>744.92116511508</DistanceMeters>
          </Trackpoint>
          <Trackpoint>
            <Time>2021-10-09T06:48:41.000Z</Time>
            <Position>
              <LatitudeDegrees>39.46079288609325885772705078125</LatitudeDegrees>
              <LongitudeDegrees>-0.4475652985274791717529296875</LongitudeDegrees>
            </Position>
            <AltitudeMeters>58</AltitudeMeters>
            <DistanceMeters>750.89652470756</DistanceMeters>
          </Trackpoint>
          <Trackpoint>
            <Time>2021-10-09T06:48:42.000Z</Time>
            <Position>
              <LatitudeDegrees>39.460846446454524993896484375</LatitudeDegrees>
              <LongitudeDegrees>-0.4475666396319866180419921875</LongitudeDegrees>
            </Position>
            <AltitudeMeters>58.200000762939453125</AltitudeMeters>
            <DistanceMeters>756.85902510251</DistanceMeters>
          </Trackpoint>
          <Trackpoint>
            <Time>2021-10-09T06:48:43.000Z</Time>
            <Position>
              <LatitudeDegrees>39.46089916862547397613525390625</LatitudeDegrees>
              <LongitudeDegrees>-0.44757242314517498016357421875</LongitudeDegrees>
            </Position>
            <AltitudeMeters>58.59999847412109375</AltitudeMeters>
            <DistanceMeters>762.74761521771</DistanceMeters>
          </Trackpoint>
          <Trackpoint>
            <Time>2021-10-09T06:48:44.000Z</Time>
            <Position>
              <LatitudeDegrees>39.460949711501598358154296875</LatitudeDegrees>
              <LongitudeDegrees>-0.447577536106109619140625</LongitudeDegrees>
            </Position>
            <AltitudeMeters>59</AltitudeMeters>
            <DistanceMeters>768.39031399944</DistanceMeters>
          </Trackpoint>
          <Trackpoint>
            <Time>2021-10-09T06:48:45.000Z</Time>
            <Position>
              <LatitudeDegrees>39.4609998352825641632080078125</LatitudeDegrees>
              <LongitudeDegrees>-0.44757761992514133453369140625</LongitudeDegrees>
            </Position>
            <AltitudeMeters>59.59999847412109375</AltitudeMeters>
            <DistanceMeters>773.96944238139</DistanceMeters>
          </Trackpoint>
          <Trackpoint>
            <Time>2021-10-09T06:48:46.000Z</Time>
            <Position>
              <LatitudeDegrees>39.4610507972538471221923828125</LatitudeDegrees>
              <LongitudeDegrees>-0.44757418334484100341796875</LongitudeDegrees>
            </Position>
            <AltitudeMeters>59.799999237060546875</AltitudeMeters>
            <DistanceMeters>779.64882906112</DistanceMeters>
          </Trackpoint>
          <Trackpoint>
            <Time>2021-10-09T06:48:47.000Z</Time>
            <Position>
              <LatitudeDegrees>39.461099244654178619384765625</LatitudeDegrees>
              <LongitudeDegrees>-0.44756923802196979522705078125</LongitudeDegrees>
            </Position>
            <AltitudeMeters>60.200000762939453125</AltitudeMeters>
            <DistanceMeters>785.0578444686</DistanceMeters>
          </Trackpoint>
          <Trackpoint>
            <Time>2021-10-09T06:48:48.000Z</Time>
            <Position>
              <LatitudeDegrees>39.46114811114966869354248046875</LatitudeDegrees>
              <LongitudeDegrees>-0.44756504707038402557373046875</LongitudeDegrees>
            </Position>
            <AltitudeMeters>60.59999847412109375</AltitudeMeters>
            <DistanceMeters>790.50843631726</DistanceMeters>
          </Trackpoint>
          <Trackpoint>
            <Time>2021-10-09T06:48:49.000Z</Time>
            <Position>
              <LatitudeDegrees>39.46119823493063449859619140625</LatitudeDegrees>
              <LongitudeDegrees>-0.44756253249943256378173828125</LongitudeDegrees>
            </Position>
            <AltitudeMeters>61</AltitudeMeters>
            <DistanceMeters>796.09080085284</DistanceMeters>
          </Trackpoint>
          <Trackpoint>
            <Time>2021-10-09T06:48:50.000Z</Time>
            <Position>
              <LatitudeDegrees>39.46124517358839511871337890625</LatitudeDegrees>
              <LongitudeDegrees>-0.4475639574229717254638671875</LongitudeDegrees>
            </Position>
            <AltitudeMeters>61.200000762939453125</AltitudeMeters>
            <DistanceMeters>801.31640619256</DistanceMeters>
          </Trackpoint>
          <Trackpoint>
            <Time>2021-10-09T06:48:51.000Z</Time>
            <Position>
              <LatitudeDegrees>39.46129135787487030029296875</LatitudeDegrees>
              <LongitudeDegrees>-0.44756538234651088714599609375</LongitudeDegrees>
            </Position>
            <AltitudeMeters>61.59999847412109375</AltitudeMeters>
            <DistanceMeters>806.45839645197</DistanceMeters>
          </Trackpoint>
          <Trackpoint>
            <Time>2021-10-09T06:48:52.000Z</Time>
            <Position>
              <LatitudeDegrees>39.46133754216134548187255859375</LatitudeDegrees>
              <LongitudeDegrees>-0.44756286777555942535400390625</LongitudeDegrees>
            </Position>
            <AltitudeMeters>62</AltitudeMeters>
            <DistanceMeters>811.60389780108</DistanceMeters>
          </Trackpoint>
          <Trackpoint>
            <Time>2021-10-09T06:48:53.000Z</Time>
            <Position>
              <LatitudeDegrees>39.46138598956167697906494140625</LatitudeDegrees>
              <LongitudeDegrees>-0.447557084262371063232421875</LongitudeDegrees>
            </Position>
            <AltitudeMeters>62</AltitudeMeters>
            <DistanceMeters>817.01791923963</DistanceMeters>
          </Trackpoint>
          <Trackpoint>
            <Time>2021-10-09T06:48:54.000Z</Time>
            <Position>
              <LatitudeDegrees>39.46143410168588161468505859375</LatitudeDegrees>
              <LongitudeDegrees>-0.4475478641688823699951171875</LongitudeDegrees>
            </Position>
            <AltitudeMeters>62.40000152587890625</AltitudeMeters>
            <DistanceMeters>822.43194067818</DistanceMeters>
          </Trackpoint>
          <Trackpoint>
            <Time>2021-10-09T06:48:55.000Z</Time>
            <Position>
              <LatitudeDegrees>39.461482465267181396484375</LatitudeDegrees>
              <LongitudeDegrees>-0.44753990136086940765380859375</LongitudeDegrees>
            </Position>
            <AltitudeMeters>62.59999847412109375</AltitudeMeters>
            <DistanceMeters>827.85928895889</DistanceMeters>
          </Trackpoint>
          <Trackpoint>
            <Time>2021-10-09T06:48:56.000Z</Time>
            <Position>
              <LatitudeDegrees>39.46153133176267147064208984375</LatitudeDegrees>
              <LongitudeDegrees>-0.44753621332347393035888671875</LongitudeDegrees>
            </Position>
            <AltitudeMeters>63.200000762939453125</AltitudeMeters>
            <DistanceMeters>833.30739516851</DistanceMeters>
          </Trackpoint>
          <Trackpoint>
            <Time>2021-10-09T06:48:57.000Z</Time>
            <Position>
              <LatitudeDegrees>39.46158112026751041412353515625</LatitudeDegrees>
              <LongitudeDegrees>-0.44753235764801502227783203125</LongitudeDegrees>
            </Position>
            <AltitudeMeters>63.40000152587890625</AltitudeMeters>
            <DistanceMeters>838.85812672631</DistanceMeters>
          </Trackpoint>
          <Trackpoint>
            <Time>2021-10-09T06:48:58.000Z</Time>
            <Position>
              <LatitudeDegrees>39.46163191460072994232177734375</LatitudeDegrees>
              <LongitudeDegrees>-0.4475264064967632293701171875</LongitudeDegrees>
            </Position>
            <AltitudeMeters>63.799999237060546875</AltitudeMeters>
            <DistanceMeters>844.53512794425</DistanceMeters>
          </Trackpoint>
          <Trackpoint>
            <Time>2021-10-09T06:48:59.000Z</Time>
            <Position>
              <LatitudeDegrees>39.4616844691336154937744140625</LatitudeDegrees>
              <LongitudeDegrees>-0.4475203715264797210693359375</LongitudeDegrees>
            </Position>
            <AltitudeMeters>64.1999969482421875</AltitudeMeters>
            <DistanceMeters>850.40759437152</DistanceMeters>
          </Trackpoint>
          <Trackpoint>
            <Time>2021-10-09T06:49:00.000Z</Time>
            <Position>
              <LatitudeDegrees>39.46173870004713535308837890625</LatitudeDegrees>
              <LongitudeDegrees>-0.4475123248994350433349609375</LongitudeDegrees>
            </Position>
            <AltitudeMeters>64.40000152587890625</AltitudeMeters>
            <DistanceMeters>856.48336201873</DistanceMeters>
          </Trackpoint>
          <Trackpoint>
            <Time>2021-10-09T06:49:01.000Z</Time>
            <Position>
              <LatitudeDegrees>39.461793936789035797119140625</LatitudeDegrees>
              <LongitudeDegrees>-0.44750335626304149627685546875</LongitudeDegrees>
            </Position>
            <AltitudeMeters>64.59999847412109375</AltitudeMeters>
            <DistanceMeters>862.67980333934</DistanceMeters>
          </Trackpoint>
          <Trackpoint>
            <Time>2021-10-09T06:49:02.000Z</Time>
            <Position>
              <LatitudeDegrees>39.46184783242642879486083984375</LatitudeDegrees>
              <LongitudeDegrees>-0.4474952258169651031494140625</LongitudeDegrees>
            </Position>
            <AltitudeMeters>64.8000030517578125</AltitudeMeters>
            <DistanceMeters>868.71830055973</DistanceMeters>
          </Trackpoint>
          <Trackpoint>
            <Time>2021-10-09T06:49:03.000Z</Time>
            <Position>
              <LatitudeDegrees>39.46190415881574153900146484375</LatitudeDegrees>
              <LongitudeDegrees>-0.447485335171222686767578125</LongitudeDegrees>
            </Position>
            <AltitudeMeters>64.8000030517578125</AltitudeMeters>
            <DistanceMeters>875.04525313392</DistanceMeters>
          </Trackpoint>
          <Trackpoint>
            <Time>2021-10-09T06:49:04.000Z</Time>
            <Position>
              <LatitudeDegrees>39.461962245404720306396484375</LatitudeDegrees>
              <LongitudeDegrees>-0.44747301377356052398681640625</LongitudeDegrees>
            </Position>
            <AltitudeMeters>65</AltitudeMeters>
            <DistanceMeters>881.59589609944</DistanceMeters>
          </Trackpoint>
          <Trackpoint>
            <Time>2021-10-09T06:49:05.000Z</Time>
            <Position>
              <LatitudeDegrees>39.4620217569172382354736328125</LatitudeDegrees>
              <LongitudeDegrees>-0.44746345840394496917724609375</LongitudeDegrees>
            </Position>
            <AltitudeMeters>65</AltitudeMeters>
            <DistanceMeters>888.27080412686</DistanceMeters>
          </Trackpoint>
          <Trackpoint>
            <Time>2021-10-09T06:49:06.000Z</Time>
            <Position>
              <LatitudeDegrees>39.4620831124484539031982421875</LatitudeDegrees>
              <LongitudeDegrees>-0.44745474122464656829833984375</LongitudeDegrees>
            </Position>
            <AltitudeMeters>65</AltitudeMeters>
            <DistanceMeters>895.1403877748</DistanceMeters>
          </Trackpoint>
          <Trackpoint>
            <Time>2021-10-09T06:49:07.000Z</Time>
            <Position>
              <LatitudeDegrees>39.46214438416063785552978515625</LatitudeDegrees>
              <LongitudeDegrees>-0.4474461078643798828125</LongitudeDegrees>
            </Position>
            <AltitudeMeters>65</AltitudeMeters>
            <DistanceMeters>902.00076374306</DistanceMeters>
          </Trackpoint>
          <Trackpoint>
            <Time>2021-10-09T06:49:08.000Z</Time>
            <Position>
              <LatitudeDegrees>39.4622091762721538543701171875</LatitudeDegrees>
              <LongitudeDegrees>-0.4474345408380031585693359375</LongitudeDegrees>
            </Position>
            <AltitudeMeters>65</AltitudeMeters>
            <DistanceMeters>909.2813233868</DistanceMeters>
          </Trackpoint>
          <Trackpoint>
            <Time>2021-10-09T06:49:09.000Z</Time>
            <Position>
              <LatitudeDegrees>39.4622750580310821533203125</LatitudeDegrees>
              <LongitudeDegrees>-0.4474233090877532958984375</LongitudeDegrees>
            </Position>
            <AltitudeMeters>65</AltitudeMeters>
            <DistanceMeters>916.67755236497</DistanceMeters>
          </Trackpoint>
          <Trackpoint>
            <Time>2021-10-09T06:49:10.000Z</Time>
            <Position>
              <LatitudeDegrees>39.46234253235161304473876953125</LatitudeDegrees>
              <LongitudeDegrees>-0.447412244975566864013671875</LongitudeDegrees>
            </Position>
            <AltitudeMeters>65</AltitudeMeters>
            <DistanceMeters>924.2475500607</DistanceMeters>
          </Trackpoint>
          <Trackpoint>
            <Time>2021-10-09T06:49:11.000Z</Time>
            <Position>
              <LatitudeDegrees>39.4624130241572856903076171875</LatitudeDegrees>
              <LongitudeDegrees>-0.4474026896059513092041015625</LongitudeDegrees>
            </Position>
            <AltitudeMeters>64.8000030517578125</AltitudeMeters>
            <DistanceMeters>932.13648451674</DistanceMeters>
          </Trackpoint>
          <Trackpoint>
            <Time>2021-10-09T06:49:12.000Z</Time>
            <Position>
              <LatitudeDegrees>39.462483935058116912841796875</LatitudeDegrees>
              <LongitudeDegrees>-0.4473922960460186004638671875</LongitudeDegrees>
            </Position>
            <AltitudeMeters>65</AltitudeMeters>
            <DistanceMeters>940.07960381044</DistanceMeters>
          </Trackpoint>
          <Trackpoint>
            <Time>2021-10-09T06:49:13.000Z</Time>
            <Position>
              <LatitudeDegrees>39.46255912072956562042236328125</LatitudeDegrees>
              <LongitudeDegrees>-0.44738106429576873779296875</LongitudeDegrees>
            </Position>
            <AltitudeMeters>64.8000030517578125</AltitudeMeters>
            <DistanceMeters>948.50328119603</DistanceMeters>
          </Trackpoint>
          <Trackpoint>
            <Time>2021-10-09T06:49:14.000Z</Time>
            <Position>
              <LatitudeDegrees>39.462635479867458343505859375</LatitudeDegrees>
              <LongitudeDegrees>-0.4473728500306606292724609375</LongitudeDegrees>
            </Position>
            <AltitudeMeters>64.8000030517578125</AltitudeMeters>
            <DistanceMeters>957.03136630816</DistanceMeters>
          </Trackpoint>
          <Trackpoint>
            <Time>2021-10-09T06:49:15.000Z</Time>
            <Position>
              <LatitudeDegrees>39.46271368302404880523681640625</LatitudeDegrees>
              <LongitudeDegrees>-0.4473631270229816436767578125</LongitudeDegrees>
            </Position>
            <AltitudeMeters>64.59999847412109375</AltitudeMeters>
            <DistanceMeters>965.77537324153</DistanceMeters>
          </Trackpoint>
          <Trackpoint>
            <Time>2021-10-09T06:49:16.000Z</Time>
            <Position>
              <LatitudeDegrees>39.46279532276093959808349609375</LatitudeDegrees>
              <LongitudeDegrees>-0.4473510570824146270751953125</LongitudeDegrees>
            </Position>
            <AltitudeMeters>64.40000152587890625</AltitudeMeters>
            <DistanceMeters>974.9206762996</DistanceMeters>
          </Trackpoint>
          <Trackpoint>
            <Time>2021-10-09T06:49:17.000Z</Time>
            <Position>
              <LatitudeDegrees>39.4628800638020038604736328125</LatitudeDegrees>
              <LongitudeDegrees>-0.44733806513249874114990234375</LongitudeDegrees>
            </Position>
            <AltitudeMeters>64.1999969482421875</AltitudeMeters>
            <DistanceMeters>984.41859521246</DistanceMeters>
          </Trackpoint>
          <Trackpoint>
            <Time>2021-10-09T06:49:18.000Z</Time>
            <Position>
              <LatitudeDegrees>39.46296782232820987701416015625</LatitudeDegrees>
              <LongitudeDegrees>-0.447327084839344024658203125</LongitudeDegrees>
            </Position>
            <AltitudeMeters>64</AltitudeMeters>
            <DistanceMeters>994.23168520482</DistanceMeters>
          </Trackpoint>
          <Trackpoint>
            <Time>2021-10-09T06:49:19.000Z</Time>
            <Position>
              <LatitudeDegrees>39.4630577601492404937744140625</LatitudeDegrees>
              <LongitudeDegrees>-0.44731576927006244659423828125</LongitudeDegrees>
            </Position>
            <AltitudeMeters>63.59999847412109375</AltitudeMeters>
            <DistanceMeters>1004.289265248</DistanceMeters>
          </Trackpoint>
          <Trackpoint>
            <Time>2021-10-09T06:49:20.000Z</Time>
            <Position>
              <LatitudeDegrees>39.46314903907477855682373046875</LatitudeDegrees>
              <LongitudeDegrees>-0.4473047889769077301025390625</LongitudeDegrees>
            </Position>
            <AltitudeMeters>63.200000762939453125</AltitudeMeters>
            <DistanceMeters>1014.4921433344</DistanceMeters>
          </Trackpoint>
          <Trackpoint>
            <Time>2021-10-09T06:49:21.000Z</Time>
            <Position>
              <LatitudeDegrees>39.463242329657077789306640625</LatitudeDegrees>
              <LongitudeDegrees>-0.44729246757924556732177734375</LongitudeDegrees>
            </Position>
            <AltitudeMeters>62.59999847412109375</AltitudeMeters>
            <DistanceMeters>1024.9295205059</DistanceMeters>
          </Trackpoint>
          <Trackpoint>
            <Time>2021-10-09T06:49:22.000Z</Time>
            <Position>
              <LatitudeDegrees>39.46333729662001132965087890625</LatitudeDegrees>
              <LongitudeDegrees>-0.44727788306772708892822265625</LongitudeDegrees>
            </Position>
            <AltitudeMeters>62</AltitudeMeters>
            <DistanceMeters>1035.5733609343</DistanceMeters>
          </Trackpoint>
          <Trackpoint>
            <Time>2021-10-09T06:49:23.000Z</Time>
            <Position>
              <LatitudeDegrees>39.46342815645039081573486328125</LatitudeDegrees>
              <LongitudeDegrees>-0.44726581312716007232666015625</LongitudeDegrees>
            </Position>
            <AltitudeMeters>61.59999847412109375</AltitudeMeters>
            <DistanceMeters>1045.7389988791</DistanceMeters>
          </Trackpoint>
          <Trackpoint>
            <Time>2021-10-09T06:49:24.000Z</Time>
            <Position>
              <LatitudeDegrees>39.46351088583469390869140625</LatitudeDegrees>
              <LongitudeDegrees>-0.4472551681101322174072265625</LongitudeDegrees>
            </Position>
            <AltitudeMeters>61</AltitudeMeters>
            <DistanceMeters>1054.9917906073</DistanceMeters>
          </Trackpoint>
          <Trackpoint>
            <Time>2021-10-09T06:49:25.000Z</Time>
            <Position>
              <LatitudeDegrees>39.46358556859195232391357421875</LatitudeDegrees>
              <LongitudeDegrees>-0.44724100269377231597900390625</LongitudeDegrees>
            </Position>
            <AltitudeMeters>60.59999847412109375</AltitudeMeters>
            <DistanceMeters>1063.3929260952</DistanceMeters>
          </Trackpoint>
          <Trackpoint>
            <Time>2021-10-09T06:49:26.000Z</Time>
            <Position>
              <LatitudeDegrees>39.4636535458266735076904296875</LatitudeDegrees>
              <LongitudeDegrees>-0.44721879065036773681640625</LongitudeDegrees>
            </Position>
            <AltitudeMeters>60</AltitudeMeters>
            <DistanceMeters>1071.1961180999</DistanceMeters>
          </Trackpoint>
          <Trackpoint>
            <Time>2021-10-09T06:49:27.000Z</Time>
            <Position>
              <LatitudeDegrees>39.46371431462466716766357421875</LatitudeDegrees>
              <LongitudeDegrees>-0.44717964716255664825439453125</LongitudeDegrees>
            </Position>
            <AltitudeMeters>59.799999237060546875</AltitudeMeters>
            <DistanceMeters>1078.7505924777</DistanceMeters>
          </Trackpoint>
          <Trackpoint>
            <Time>2021-10-09T06:49:28.000Z</Time>
            <Position>
              <LatitudeDegrees>39.46376795880496501922607421875</LatitudeDegrees>
              <LongitudeDegrees>-0.4471244104206562042236328125</LongitudeDegrees>
            </Position>
            <AltitudeMeters>59.200000762939453125</AltitudeMeters>
            <DistanceMeters>1086.377633349</DistanceMeters>
          </Trackpoint>
          <Trackpoint>
            <Time>2021-10-09T06:49:29.000Z</Time>
            <Position>
              <LatitudeDegrees>39.46381959132850170135498046875</LatitudeDegrees>
              <LongitudeDegrees>-0.4470627196133136749267578125</LongitudeDegrees>
            </Position>
            <AltitudeMeters>58.59999847412109375</AltitudeMeters>
            <DistanceMeters>1094.1952773274</DistanceMeters>
          </Trackpoint>
          <Trackpoint>
            <Time>2021-10-09T06:49:30.000Z</Time>
            <Position>
              <LatitudeDegrees>39.4638768397271633148193359375</LatitudeDegrees>
              <LongitudeDegrees>-0.4470090754330158233642578125</LongitudeDegrees>
            </Position>
            <AltitudeMeters>58.40000152587890625</AltitudeMeters>
            <DistanceMeters>1102.058989141</DistanceMeters>
          </Trackpoint>
          <Trackpoint>
            <Time>2021-10-09T06:49:31.000Z</Time>
            <Position>
              <LatitudeDegrees>39.46394213475286960601806640625</LatitudeDegrees>
              <LongitudeDegrees>-0.44697328470647335052490234375</LongitudeDegrees>
            </Position>
            <AltitudeMeters>58.200000762939453125</AltitudeMeters>
            <DistanceMeters>1109.9502125669</DistanceMeters>
          </Trackpoint>
          <Trackpoint>
            <Time>2021-10-09T06:49:32.000Z</Time>
            <Position>
              <LatitudeDegrees>39.46401136927306652069091796875</LatitudeDegrees>
              <LongitudeDegrees>-0.4469574429094791412353515625</LongitudeDegrees>
            </Position>
            <AltitudeMeters>58.200000762939453125</AltitudeMeters>
            <DistanceMeters>1117.7759379929</DistanceMeters>
          </Trackpoint>
          <Trackpoint>
            <Time>2021-10-09T06:49:33.000Z</Time>
            <Position>
              <LatitudeDegrees>39.4640801846981048583984375</LatitudeDegrees>
              <LongitudeDegrees>-0.44696372933685779571533203125</LongitudeDegrees>
            </Position>
            <AltitudeMeters>58</AltitudeMeters>
            <DistanceMeters>1125.4537201614</DistanceMeters>
          </Trackpoint>
          <Trackpoint>
            <Time>2021-10-09T06:49:34.000Z</Time>
            <Position>
              <LatitudeDegrees>39.46414279751479625701904296875</LatitudeDegrees>
              <LongitudeDegrees>-0.44699189253151416778564453125</LongitudeDegrees>
            </Position>
            <AltitudeMeters>58</AltitudeMeters>
            <DistanceMeters>1132.8303888303</DistanceMeters>
          </Trackpoint>
          <Trackpoint>
            <Time>2021-10-09T06:49:35.000Z</Time>
            <Position>
              <LatitudeDegrees>39.4641919992864131927490234375</LatitudeDegrees>
              <LongitudeDegrees>-0.44704402796924114227294921875</LongitudeDegrees>
            </Position>
            <AltitudeMeters>57.799999237060546875</AltitudeMeters>
            <DistanceMeters>1139.9058919082</DistanceMeters>
          </Trackpoint>
          <Trackpoint>
            <Time>2021-10-09T06:49:36.000Z</Time>
            <Position>
              <LatitudeDegrees>39.4642315618693828582763671875</LatitudeDegrees>
              <LongitudeDegrees>-0.4471136815845966339111328125</LongitudeDegrees>
            </Position>
            <AltitudeMeters>57.59999847412109375</AltitudeMeters>
            <DistanceMeters>1147.336227525</DistanceMeters>
          </Trackpoint>
          <Trackpoint>
            <Time>2021-10-09T06:49:37.000Z</Time>
            <Position>
              <LatitudeDegrees>39.46425628848373889923095703125</LatitudeDegrees>
              <LongitudeDegrees>-0.44719289056956768035888671875</LongitudeDegrees>
            </Position>
            <AltitudeMeters>57.59999847412109375</AltitudeMeters>
            <DistanceMeters>1154.6773102937</DistanceMeters>
          </Trackpoint>
          <Trackpoint>
            <Time>2021-10-09T06:49:38.000Z</Time>
            <Position>
              <LatitudeDegrees>39.4642624072730541229248046875</LatitudeDegrees>
              <LongitudeDegrees>-0.44727888889610767364501953125</LongitudeDegrees>
            </Position>
            <AltitudeMeters>57.40000152587890625</AltitudeMeters>
            <DistanceMeters>1162.0979171527</DistanceMeters>
          </Trackpoint>
          <Trackpoint>
            <Time>2021-10-09T06:49:39.000Z</Time>
            <Position>
              <LatitudeDegrees>39.46424857713282108306884765625</LatitudeDegrees>
              <LongitudeDegrees>-0.44736497104167938232421875</LongitudeDegrees>
            </Position>
            <AltitudeMeters>57.40000152587890625</AltitudeMeters>
            <DistanceMeters>1169.6523915306</DistanceMeters>
          </Trackpoint>
          <Trackpoint>
            <Time>2021-10-09T06:49:40.000Z</Time>
            <Position>
              <LatitudeDegrees>39.4642161391675472259521484375</LatitudeDegrees>
              <LongitudeDegrees>-0.44744300656020641326904296875</LongitudeDegrees>
            </Position>
            <AltitudeMeters>57.200000762939453125</AltitudeMeters>
            <DistanceMeters>1177.2675836439</DistanceMeters>
          </Trackpoint>
          <Trackpoint>
            <Time>2021-10-09T06:49:41.000Z</Time>
            <Position>
              <LatitudeDegrees>39.46417205035686492919921875</LatitudeDegrees>
              <LongitudeDegrees>-0.44750838540494441986083984375</LongitudeDegrees>
            </Position>
            <AltitudeMeters>57.200000762939453125</AltitudeMeters>
            <DistanceMeters>1184.727029404</DistanceMeters>
          </Trackpoint>
          <Trackpoint>
            <Time>2021-10-09T06:49:42.000Z</Time>
            <Position>
              <LatitudeDegrees>39.4641192443668842315673828125</LatitudeDegrees>
              <LongitudeDegrees>-0.4475642926990985870361328125</LongitudeDegrees>
            </Position>
            <AltitudeMeters>57</AltitudeMeters>
            <DistanceMeters>1192.3184685209</DistanceMeters>
          </Trackpoint>
          <Trackpoint>
            <Time>2021-10-09T06:49:43.000Z</Time>
            <Position>
              <LatitudeDegrees>39.46406568400561809539794921875</LatitudeDegrees>
              <LongitudeDegrees>-0.4476182721555233001708984375</LongitudeDegrees>
            </Position>
            <AltitudeMeters>57</AltitudeMeters>
            <DistanceMeters>1199.8711496936</DistanceMeters>
          </Trackpoint>
          <Trackpoint>
            <Time>2021-10-09T06:49:44.000Z</Time>
            <Position>
              <LatitudeDegrees>39.4640163145959377288818359375</LatitudeDegrees>
              <LongitudeDegrees>-0.44768339954316616058349609375</LongitudeDegrees>
            </Position>
            <AltitudeMeters>57</AltitudeMeters>
            <DistanceMeters>1207.714164467</DistanceMeters>
          </Trackpoint>
          <Trackpoint>
            <Time>2021-10-09T06:49:45.000Z</Time>
            <Position>
              <LatitudeDegrees>39.4639733992516994476318359375</LatitudeDegrees>
              <LongitudeDegrees>-0.44775464572012424468994140625</LongitudeDegrees>
            </Position>
            <AltitudeMeters>57</AltitudeMeters>
            <DistanceMeters>1215.4796554684</DistanceMeters>
          </Trackpoint>
          <Trackpoint>
            <Time>2021-10-09T06:49:46.000Z</Time>
            <Position>
              <LatitudeDegrees>39.46393794380128383636474609375</LatitudeDegrees>
              <LongitudeDegrees>-0.447832010686397552490234375</LongitudeDegrees>
            </Position>
            <AltitudeMeters>57</AltitudeMeters>
            <DistanceMeters>1223.2101823525</DistanceMeters>
          </Trackpoint>
          <Trackpoint>
            <Time>2021-10-09T06:49:47.000Z</Time>
            <Position>
              <LatitudeDegrees>39.4639063440263271331787109375</LatitudeDegrees>
              <LongitudeDegrees>-0.44791524298489093780517578125</LongitudeDegrees>
            </Position>
            <AltitudeMeters>57</AltitudeMeters>
            <DistanceMeters>1231.1805391691</DistanceMeters>
          </Trackpoint>
          <Trackpoint>
            <Time>2021-10-09T06:49:48.000Z</Time>
            <Position>
              <LatitudeDegrees>39.4638811983168125152587890625</LatitudeDegrees>
              <LongitudeDegrees>-0.44799855910241603851318359375</LongitudeDegrees>
            </Position>
            <AltitudeMeters>57</AltitudeMeters>
            <DistanceMeters>1238.867724626</DistanceMeters>
          </Trackpoint>
          <Trackpoint>
            <Time>2021-10-09T06:49:49.000Z</Time>
            <Position>
              <LatitudeDegrees>39.46385865099728107452392578125</LatitudeDegrees>
              <LongitudeDegrees>-0.44808380305767059326171875</LongitudeDegrees>
            </Position>
            <AltitudeMeters>57</AltitudeMeters>
            <DistanceMeters>1246.6105069109</DistanceMeters>
          </Trackpoint>
          <Trackpoint>
            <Time>2021-10-09T06:49:50.000Z</Time>
            <Position>
              <LatitudeDegrees>39.46383669041097164154052734375</LatitudeDegrees>
              <LongitudeDegrees>-0.44817005284130573272705078125</LongitudeDegrees>
            </Position>
            <AltitudeMeters>57</AltitudeMeters>
            <DistanceMeters>1254.4142775084</DistanceMeters>
          </Trackpoint>
          <Trackpoint>
            <Time>2021-10-09T06:49:51.000Z</Time>
            <Position>
              <LatitudeDegrees>39.4638148136436939239501953125</LatitudeDegrees>
              <LongitudeDegrees>-0.44825521297752857208251953125</LongitudeDegrees>
            </Position>
            <AltitudeMeters>57</AltitudeMeters>
            <DistanceMeters>1262.1260920458</DistanceMeters>
          </Trackpoint>
          <Trackpoint>
            <Time>2021-10-09T06:49:52.000Z</Time>
            <Position>
              <LatitudeDegrees>39.4637905061244964599609375</LatitudeDegrees>
              <LongitudeDegrees>-0.44833936728537082672119140625</LongitudeDegrees>
            </Position>
            <AltitudeMeters>57</AltitudeMeters>
            <DistanceMeters>1269.8466836428</DistanceMeters>
          </Trackpoint>
          <Trackpoint>
            <Time>2021-10-09T06:49:53.000Z</Time>
            <Position>
              <LatitudeDegrees>39.46376427076756954193115234375</LatitudeDegrees>
              <LongitudeDegrees>-0.4484219290316104888916015625</LongitudeDegrees>
            </Position>
            <AltitudeMeters>57</AltitudeMeters>
            <DistanceMeters>1277.5185829031</DistanceMeters>
          </Trackpoint>
          <Trackpoint>
            <Time>2021-10-09T06:49:54.000Z</Time>
            <Position>
              <LatitudeDegrees>39.4637370295822620391845703125</LatitudeDegrees>
              <LongitudeDegrees>-0.44850432313978672027587890625</LongitudeDegrees>
            </Position>
            <AltitudeMeters>57</AltitudeMeters>
            <DistanceMeters>1285.2198517651</DistanceMeters>
          </Trackpoint>
          <Trackpoint>
            <Time>2021-10-09T06:49:55.000Z</Time>
            <Position>
              <LatitudeDegrees>39.46370811201632022857666015625</LatitudeDegrees>
              <LongitudeDegrees>-0.44858881272375583648681640625</LongitudeDegrees>
            </Position>
            <AltitudeMeters>57</AltitudeMeters>
            <DistanceMeters>1293.1612656118</DistanceMeters>
          </Trackpoint>
          <Trackpoint>
            <Time>2021-10-09T06:49:56.000Z</Time>
            <Position>
              <LatitudeDegrees>39.46367986500263214111328125</LatitudeDegrees>
              <LongitudeDegrees>-0.4486740566790103912353515625</LongitudeDegrees>
            </Position>
            <AltitudeMeters>57</AltitudeMeters>
            <DistanceMeters>1301.1327553055</DistanceMeters>
          </Trackpoint>
          <Trackpoint>
            <Time>2021-10-09T06:49:57.000Z</Time>
            <Position>
              <LatitudeDegrees>39.46365245617926120758056640625</LatitudeDegrees>
              <LongitudeDegrees>-0.4487602226436138153076171875</LongitudeDegrees>
            </Position>
            <AltitudeMeters>57</AltitudeMeters>
            <DistanceMeters>1309.1398485828</DistanceMeters>
          </Trackpoint>
          <Trackpoint>
            <Time>2021-10-09T06:49:58.000Z</Time>
            <Position>
              <LatitudeDegrees>39.46362898685038089752197265625</LatitudeDegrees>
              <LongitudeDegrees>-0.44884689152240753173828125</LongitudeDegrees>
            </Position>
            <AltitudeMeters>57.40000152587890625</AltitudeMeters>
            <DistanceMeters>1317.0322162447</DistanceMeters>
          </Trackpoint>
          <Trackpoint>
            <Time>2021-10-09T06:49:59.000Z</Time>
            <Position>
              <LatitudeDegrees>39.46360786445438861846923828125</LatitudeDegrees>
              <LongitudeDegrees>-0.44893548823893070220947265625</LongitudeDegrees>
            </Position>
            <AltitudeMeters>57.40000152587890625</AltitudeMeters>
            <DistanceMeters>1324.9997401638</DistanceMeters>
          </Trackpoint>
          <Trackpoint>
            <Time>2021-10-09T06:50:00.000Z</Time>
            <Position>
              <LatitudeDegrees>39.463589675724506378173828125</LatitudeDegrees>
              <LongitudeDegrees>-0.4490245878696441650390625</LongitudeDegrees>
            </Position>
            <AltitudeMeters>57.40000152587890625</AltitudeMeters>
            <DistanceMeters>1332.9189497773</DistanceMeters>
          </Trackpoint>
          <Trackpoint>
            <Time>2021-10-09T06:50:01.000Z</Time>
            <Position>
              <LatitudeDegrees>39.46357467211782932281494140625</LatitudeDegrees>
              <LongitudeDegrees>-0.4491119273006916046142578125</LongitudeDegrees>
            </Position>
            <AltitudeMeters>57.40000152587890625</AltitudeMeters>
            <DistanceMeters>1340.6073098366</DistanceMeters>
          </Trackpoint>
          <Trackpoint>
            <Time>2021-10-09T06:50:02.000Z</Time>
            <Position>
              <LatitudeDegrees>39.46356193162500858306884765625</LatitudeDegrees>
              <LongitudeDegrees>-0.44920052401721477508544921875</LongitudeDegrees>
            </Position>
            <AltitudeMeters>57.40000152587890625</AltitudeMeters>
            <DistanceMeters>1348.351258291</DistanceMeters>
          </Trackpoint>
          <Trackpoint>
            <Time>2021-10-09T06:50:03.000Z</Time>
            <Position>
              <LatitudeDegrees>39.4635522924363613128662109375</LatitudeDegrees>
              <LongitudeDegrees>-0.44929021038115024566650390625</LongitudeDegrees>
            </Position>
            <AltitudeMeters>57.40000152587890625</AltitudeMeters>
            <DistanceMeters>1356.1324318887</DistanceMeters>
          </Trackpoint>
          <Trackpoint>
            <Time>2021-10-09T06:50:04.000Z</Time>
            <Position>
              <LatitudeDegrees>39.46354441344738006591796875</LatitudeDegrees>
              <LongitudeDegrees>-0.44938375242054462432861328125</LongitudeDegrees>
            </Position>
            <AltitudeMeters>57.40000152587890625</AltitudeMeters>
            <DistanceMeters>1364.2180829728</DistanceMeters>
          </Trackpoint>
          <Trackpoint>
            <Time>2021-10-09T06:50:05.000Z</Time>
            <Position>
              <LatitudeDegrees>39.46353795938193798065185546875</LatitudeDegrees>
              <LongitudeDegrees>-0.44947746209800243377685546875</LongitudeDegrees>
            </Position>
            <AltitudeMeters>57.40000152587890625</AltitudeMeters>
            <DistanceMeters>1372.3015001431</DistanceMeters>
          </Trackpoint>
          <Trackpoint>
            <Time>2021-10-09T06:50:06.000Z</Time>
            <Position>
              <LatitudeDegrees>39.46353594772517681121826171875</LatitudeDegrees>
              <LongitudeDegrees>-0.4495690762996673583984375</LongitudeDegrees>
            </Position>
            <AltitudeMeters>57.40000152587890625</AltitudeMeters>
            <DistanceMeters>1380.1766868086</DistanceMeters>
          </Trackpoint>
          <Trackpoint>
            <Time>2021-10-09T06:50:07.000Z</Time>
            <Position>
              <LatitudeDegrees>39.4635345228016376495361328125</LatitudeDegrees>
              <LongitudeDegrees>-0.44966219924390316009521484375</LongitudeDegrees>
            </Position>
            <AltitudeMeters>57.200000762939453125</AltitudeMeters>
            <DistanceMeters>1388.1798319539</DistanceMeters>
          </Trackpoint>
          <Trackpoint>
            <Time>2021-10-09T06:50:08.000Z</Time>
            <Position>
              <LatitudeDegrees>39.46353435516357421875</LatitudeDegrees>
              <LongitudeDegrees>-0.449755489826202392578125</LongitudeDegrees>
            </Position>
            <AltitudeMeters>57.40000152587890625</AltitudeMeters>
            <DistanceMeters>1396.1959422311</DistanceMeters>
          </Trackpoint>
          <Trackpoint>
            <Time>2021-10-09T06:50:09.000Z</Time>
            <Position>
              <LatitudeDegrees>39.463538713753223419189453125</LatitudeDegrees>
              <LongitudeDegrees>-0.44984777458012104034423828125</LongitudeDegrees>
            </Position>
            <AltitudeMeters>57.40000152587890625</AltitudeMeters>
            <DistanceMeters>1404.1407666057</DistanceMeters>
          </Trackpoint>
          <Trackpoint>
            <Time>2021-10-09T06:50:10.000Z</Time>
            <Position>
              <LatitudeDegrees>39.46354466490447521209716796875</LatitudeDegrees>
              <LongitudeDegrees>-0.4499370418488979339599609375</LongitudeDegrees>
            </Position>
            <AltitudeMeters>57.40000152587890625</AltitudeMeters>
            <DistanceMeters>1411.8402764507</DistanceMeters>
          </Trackpoint>
          <Trackpoint>
            <Time>2021-10-09T06:50:11.000Z</Time>
            <Position>
              <LatitudeDegrees>39.463554807007312774658203125</LatitudeDegrees>
              <LongitudeDegrees>-0.45002463273704051971435546875</LongitudeDegrees>
            </Position>
            <AltitudeMeters>57.40000152587890625</AltitudeMeters>
            <DistanceMeters>1419.4507238956</DistanceMeters>
          </Trackpoint>
          <Trackpoint>
            <Time>2021-10-09T06:50:12.000Z</Time>
            <Position>
              <LatitudeDegrees>39.46356478147208690643310546875</LatitudeDegrees>
              <LongitudeDegrees>-0.4501130618155002593994140625</LongitudeDegrees>
            </Position>
            <AltitudeMeters>57.40000152587890625</AltitudeMeters>
            <DistanceMeters>1427.1296821049</DistanceMeters>
          </Trackpoint>
          <Trackpoint>
            <Time>2021-10-09T06:50:13.000Z</Time>
            <Position>
              <LatitudeDegrees>39.46357517503201961517333984375</LatitudeDegrees>
              <LongitudeDegrees>-0.450200401246547698974609375</LongitudeDegrees>
            </Position>
            <AltitudeMeters>57.40000152587890625</AltitudeMeters>
            <DistanceMeters>1434.7234998648</DistanceMeters>
          </Trackpoint>
          <Trackpoint>
            <Time>2021-10-09T06:50:14.000Z</Time>
            <Position>
              <LatitudeDegrees>39.4635871611535549163818359375</LatitudeDegrees>
              <LongitudeDegrees>-0.4502884112298488616943359375</LongitudeDegrees>
            </Position>
            <AltitudeMeters>57.40000152587890625</AltitudeMeters>
            <DistanceMeters>1442.402458074</DistanceMeters>
          </Trackpoint>
          <Trackpoint>
            <Time>2021-10-09T06:50:15.000Z</Time>
            <Position>
              <LatitudeDegrees>39.4635995663702487945556640625</LatitudeDegrees>
              <LongitudeDegrees>-0.45037516392767429351806640625</LongitudeDegrees>
            </Position>
            <AltitudeMeters>57.59999847412109375</AltitudeMeters>
            <DistanceMeters>1449.983184061</DistanceMeters>
          </Trackpoint>
          <Trackpoint>
            <Time>2021-10-09T06:50:16.000Z</Time>
            <Position>
              <LatitudeDegrees>39.463611133396625518798828125</LatitudeDegrees>
              <LongitudeDegrees>-0.45046267099678516387939453125</LongitudeDegrees>
            </Position>
            <AltitudeMeters>57.59999847412109375</AltitudeMeters>
            <DistanceMeters>1457.6114087958</DistanceMeters>
          </Trackpoint>
          <Trackpoint>
            <Time>2021-10-09T06:50:17.000Z</Time>
            <Position>
              <LatitudeDegrees>39.463620521128177642822265625</LatitudeDegrees>
              <LongitudeDegrees>-0.45054933987557888031005859375</LongitudeDegrees>
            </Position>
            <AltitudeMeters>57.59999847412109375</AltitudeMeters>
            <DistanceMeters>1465.1323395125</DistanceMeters>
          </Trackpoint>
          <Trackpoint>
            <Time>2021-10-09T06:50:18.000Z</Time>
            <Position>
              <LatitudeDegrees>39.46362731046974658966064453125</LatitudeDegrees>
              <LongitudeDegrees>-0.45063651166856288909912109375</LongitudeDegrees>
            </Position>
            <AltitudeMeters>57.59999847412109375</AltitudeMeters>
            <DistanceMeters>1472.6616701544</DistanceMeters>
          </Trackpoint>
          <Trackpoint>
            <Time>2021-10-09T06:50:19.000Z</Time>
            <Position>
              <LatitudeDegrees>39.463635273277759552001953125</LatitudeDegrees>
              <LongitudeDegrees>-0.45072100125253200531005859375</LongitudeDegrees>
            </Position>
            <AltitudeMeters>57.59999847412109375</AltitudeMeters>
            <DistanceMeters>1479.9756412272</DistanceMeters>
          </Trackpoint>
          <Trackpoint>
            <Time>2021-10-09T06:50:20.000Z</Time>
            <Position>
              <LatitudeDegrees>39.4636451639235019683837890625</LatitudeDegrees>
              <LongitudeDegrees>-0.45080331154167652130126953125</LongitudeDegrees>
            </Position>
            <AltitudeMeters>57.59999847412109375</AltitudeMeters>
            <DistanceMeters>1487.1336195551</DistanceMeters>
          </Trackpoint>
          <Trackpoint>
            <Time>2021-10-09T06:50:21.000Z</Time>
            <Position>
              <LatitudeDegrees>39.46365580894052982330322265625</LatitudeDegrees>
              <LongitudeDegrees>-0.45088830403983592987060546875</LongitudeDegrees>
            </Position>
            <AltitudeMeters>57.59999847412109375</AltitudeMeters>
            <DistanceMeters>1494.5322899359</DistanceMeters>
          </Trackpoint>
          <Trackpoint>
            <Time>2021-10-09T06:50:22.000Z</Time>
            <Position>
              <LatitudeDegrees>39.46366519667208194732666015625</LatitudeDegrees>
              <LongitudeDegrees>-0.45097162015736103057861328125</LongitudeDegrees>
            </Position>
            <AltitudeMeters>57.59999847412109375</AltitudeMeters>
            <DistanceMeters>1501.7680610228</DistanceMeters>
          </Trackpoint>
          <Trackpoint>
            <Time>2021-10-09T06:50:23.000Z</Time>
            <Position>
              <LatitudeDegrees>39.46367424912750720977783203125</LatitudeDegrees>
              <LongitudeDegrees>-0.4510565288364887237548828125</LongitudeDegrees>
            </Position>
            <AltitudeMeters>57.59999847412109375</AltitudeMeters>
            <DistanceMeters>1509.1330911788</DistanceMeters>
          </Trackpoint>
          <Trackpoint>
            <Time>2021-10-09T06:50:24.000Z</Time>
            <Position>
              <LatitudeDegrees>39.4636847265064716339111328125</LatitudeDegrees>
              <LongitudeDegrees>-0.45114126987755298614501953125</LongitudeDegrees>
            </Position>
            <AltitudeMeters>57.59999847412109375</AltitudeMeters>
            <DistanceMeters>1516.507311161</DistanceMeters>
          </Trackpoint>
          <Trackpoint>
            <Time>2021-10-09T06:50:25.000Z</Time>
            <Position>
              <LatitudeDegrees>39.46369570679962635040283203125</LatitudeDegrees>
              <LongitudeDegrees>-0.45122332870960235595703125</LongitudeDegrees>
            </Position>
            <AltitudeMeters>57.59999847412109375</AltitudeMeters>
            <DistanceMeters>1523.6640278376</DistanceMeters>
          </Trackpoint>
          <Trackpoint>
            <Time>2021-10-09T06:50:26.000Z</Time>
            <Position>
              <LatitudeDegrees>39.4637041725218296051025390625</LatitudeDegrees>
              <LongitudeDegrees>-0.451304130256175994873046875</LongitudeDegrees>
            </Position>
            <AltitudeMeters>57.59999847412109375</AltitudeMeters>
            <DistanceMeters>1530.6709191331</DistanceMeters>
          </Trackpoint>
          <Trackpoint>
            <Time>2021-10-09T06:50:27.000Z</Time>
            <Position>
              <LatitudeDegrees>39.4637115485966205596923828125</LatitudeDegrees>
              <LongitudeDegrees>-0.45138719491660594940185546875</LongitudeDegrees>
            </Position>
            <AltitudeMeters>57.59999847412109375</AltitudeMeters>
            <DistanceMeters>1537.8553409576</DistanceMeters>
          </Trackpoint>
          <Trackpoint>
            <Time>2021-10-09T06:50:28.000Z</Time>
            <Position>
              <LatitudeDegrees>39.46372143924236297607421875</LatitudeDegrees>
              <LongitudeDegrees>-0.4514695890247821807861328125</LongitudeDegrees>
            </Position>
            <AltitudeMeters>57.59999847412109375</AltitudeMeters>
            <DistanceMeters>1545.0202543963</DistanceMeters>
          </Trackpoint>
          <Trackpoint>
            <Time>2021-10-09T06:50:29.000Z</Time>
            <Position>
              <LatitudeDegrees>39.46373275481164455413818359375</LatitudeDegrees>
              <LongitudeDegrees>-0.45155550353229045867919921875</LongitudeDegrees>
            </Position>
            <AltitudeMeters>57.59999847412109375</AltitudeMeters>
            <DistanceMeters>1552.5086971394</DistanceMeters>
          </Trackpoint>
          <Trackpoint>
            <Time>2021-10-09T06:50:30.000Z</Time>
            <Position>
              <LatitudeDegrees>39.46374365128576755523681640625</LatitudeDegrees>
              <LongitudeDegrees>-0.4516405798494815826416015625</LongitudeDegrees>
            </Position>
            <AltitudeMeters>57.59999847412109375</AltitudeMeters>
            <DistanceMeters>1559.919562469</DistanceMeters>
          </Trackpoint>
          <Trackpoint>
            <Time>2021-10-09T06:50:31.000Z</Time>
            <Position>
              <LatitudeDegrees>39.46375270374119281768798828125</LatitudeDegrees>
              <LongitudeDegrees>-0.45172490179538726806640625</LongitudeDegrees>
            </Position>
            <AltitudeMeters>57.799999237060546875</AltitudeMeters>
            <DistanceMeters>1567.2347680715</DistanceMeters>
          </Trackpoint>
          <Trackpoint>
            <Time>2021-10-09T06:50:32.000Z</Time>
            <Position>
              <LatitudeDegrees>39.46376242674887180328369140625</LatitudeDegrees>
              <LongitudeDegrees>-0.45180880464613437652587890625</LongitudeDegrees>
            </Position>
            <AltitudeMeters>57.799999237060546875</AltitudeMeters>
            <DistanceMeters>1574.5252433611</DistanceMeters>
          </Trackpoint>
          <Trackpoint>
            <Time>2021-10-09T06:50:33.000Z</Time>
            <Position>
              <LatitudeDegrees>39.4637722335755825042724609375</LatitudeDegrees>
              <LongitudeDegrees>-0.45189119875431060791015625</LongitudeDegrees>
            </Position>
            <AltitudeMeters>57.799999237060546875</AltitudeMeters>
            <DistanceMeters>1581.6895266126</DistanceMeters>
          </Trackpoint>
          <Trackpoint>
            <Time>2021-10-09T06:50:34.000Z</Time>
            <Position>
              <LatitudeDegrees>39.46378069929778575897216796875</LatitudeDegrees>
              <LongitudeDegrees>-0.451972670853137969970703125</LongitudeDegrees>
            </Position>
            <AltitudeMeters>58</AltitudeMeters>
            <DistanceMeters>1588.7528949559</DistanceMeters>
          </Trackpoint>
          <Trackpoint>
            <Time>2021-10-09T06:50:35.000Z</Time>
            <Position>
              <LatitudeDegrees>39.463791511952877044677734375</LatitudeDegrees>
              <LongitudeDegrees>-0.45205120928585529327392578125</LongitudeDegrees>
            </Position>
            <AltitudeMeters>58</AltitudeMeters>
            <DistanceMeters>1595.6080038401</DistanceMeters>
          </Trackpoint>
          <Trackpoint>
            <Time>2021-10-09T06:50:36.000Z</Time>
            <Position>
              <LatitudeDegrees>39.46380165405571460723876953125</LatitudeDegrees>
              <LongitudeDegrees>-0.452131591737270355224609375</LongitudeDegrees>
            </Position>
            <AltitudeMeters>58</AltitudeMeters>
            <DistanceMeters>1602.606513298</DistanceMeters>
          </Trackpoint>
          <Trackpoint>
            <Time>2021-10-09T06:50:37.000Z</Time>
            <Position>
              <LatitudeDegrees>39.46381070651113986968994140625</LatitudeDegrees>
              <LongitudeDegrees>-0.452212393283843994140625</LongitudeDegrees>
            </Position>
            <AltitudeMeters>58</AltitudeMeters>
            <DistanceMeters>1609.6224199889</DistanceMeters>
          </Trackpoint>
          <Trackpoint>
            <Time>2021-10-09T06:50:38.000Z</Time>
            <Position>
              <LatitudeDegrees>39.46381799876689910888671875</LatitudeDegrees>
              <LongitudeDegrees>-0.4522915184497833251953125</LongitudeDegrees>
            </Position>
            <AltitudeMeters>58</AltitudeMeters>
            <DistanceMeters>1616.4689612194</DistanceMeters>
          </Trackpoint>
          <Trackpoint>
            <Time>2021-10-09T06:50:39.000Z</Time>
            <Position>
              <LatitudeDegrees>39.46382713504135608673095703125</LatitudeDegrees>
              <LongitudeDegrees>-0.45237106271088123321533203125</LongitudeDegrees>
            </Position>
            <AltitudeMeters>58</AltitudeMeters>
            <DistanceMeters>1623.3791742577</DistanceMeters>
          </Trackpoint>
          <Trackpoint>
            <Time>2021-10-09T06:50:40.000Z</Time>
            <Position>
              <LatitudeDegrees>39.46383769623935222625732421875</LatitudeDegrees>
              <LongitudeDegrees>-0.45245446264743804931640625</LongitudeDegrees>
            </Position>
            <AltitudeMeters>58</AltitudeMeters>
            <DistanceMeters>1630.6411055734</DistanceMeters>
          </Trackpoint>
          <Trackpoint>
            <Time>2021-10-09T06:50:41.000Z</Time>
            <Position>
              <LatitudeDegrees>39.46384808979928493499755859375</LatitudeDegrees>
              <LongitudeDegrees>-0.4525384493172168731689453125</LongitudeDegrees>
            </Position>
            <AltitudeMeters>58</AltitudeMeters>
            <DistanceMeters>1637.9501364423</DistanceMeters>
          </Trackpoint>
          <Trackpoint>
            <Time>2021-10-09T06:50:42.000Z</Time>
            <Position>
              <LatitudeDegrees>39.46385479532182216644287109375</LatitudeDegrees>
              <LongitudeDegrees>-0.4526202566921710968017578125</LongitudeDegrees>
            </Position>
            <AltitudeMeters>58</AltitudeMeters>
            <DistanceMeters>1645.0192554143</DistanceMeters>
          </Trackpoint>
          <Trackpoint>
            <Time>2021-10-09T06:50:43.000Z</Time>
            <Position>
              <LatitudeDegrees>39.46386300958693027496337890625</LatitudeDegrees>
              <LongitudeDegrees>-0.4527017287909984588623046875</LongitudeDegrees>
            </Position>
            <AltitudeMeters>58</AltitudeMeters>
            <DistanceMeters>1652.0794269399</DistanceMeters>
          </Trackpoint>
          <Trackpoint>
            <Time>2021-10-09T06:50:44.000Z</Time>
            <Position>
              <LatitudeDegrees>39.46387340314686298370361328125</LatitudeDegrees>
              <LongitudeDegrees>-0.45278328470885753631591796875</LongitudeDegrees>
            </Position>
            <AltitudeMeters>58</AltitudeMeters>
            <DistanceMeters>1659.1816805974</DistanceMeters>
          </Trackpoint>
          <Trackpoint>
            <Time>2021-10-09T06:50:45.000Z</Time>
            <Position>
              <LatitudeDegrees>39.4638838805258274078369140625</LatitudeDegrees>
              <LongitudeDegrees>-0.45286458916962146759033203125</LongitudeDegrees>
            </Position>
            <AltitudeMeters>58.200000762939453125</AltitudeMeters>
            <DistanceMeters>1666.2635620261</DistanceMeters>
          </Trackpoint>
          <Trackpoint>
            <Time>2021-10-09T06:50:46.000Z</Time>
            <Position>
              <LatitudeDegrees>39.46389402262866497039794921875</LatitudeDegrees>
              <LongitudeDegrees>-0.45294463634490966796875</LongitudeDegrees>
            </Position>
            <AltitudeMeters>58.200000762939453125</AltitudeMeters>
            <DistanceMeters>1673.2336273965</DistanceMeters>
          </Trackpoint>
          <Trackpoint>
            <Time>2021-10-09T06:50:47.000Z</Time>
            <Position>
              <LatitudeDegrees>39.46390307508409023284912109375</LatitudeDegrees>
              <LongitudeDegrees>-0.45302770100533962249755859375</LongitudeDegrees>
            </Position>
            <AltitudeMeters>58.200000762939453125</AltitudeMeters>
            <DistanceMeters>1680.4418907004</DistanceMeters>
          </Trackpoint>
          <Trackpoint>
            <Time>2021-10-09T06:50:48.000Z</Time>
            <Position>
              <LatitudeDegrees>39.46391447447240352630615234375</LatitudeDegrees>
              <LongitudeDegrees>-0.453113280236721038818359375</LongitudeDegrees>
            </Position>
            <AltitudeMeters>58.200000762939453125</AltitudeMeters>
            <DistanceMeters>1687.9037571797</DistanceMeters>
          </Trackpoint>
          <Trackpoint>
            <Time>2021-10-09T06:50:49.000Z</Time>
            <Position>
              <LatitudeDegrees>39.4639219343662261962890625</LatitudeDegrees>
              <LongitudeDegrees>-0.453195758163928985595703125</LongitudeDegrees>
            </Position>
            <AltitudeMeters>58.200000762939453125</AltitudeMeters>
            <DistanceMeters>1695.0389916531</DistanceMeters>
          </Trackpoint>
          <Trackpoint>
            <Time>2021-10-09T06:50:50.000Z</Time>
            <Position>
              <LatitudeDegrees>39.46393056772649288177490234375</LatitudeDegrees>
              <LongitudeDegrees>-0.45327932573854923248291015625</LongitudeDegrees>
            </Position>
            <AltitudeMeters>58.200000762939453125</AltitudeMeters>
            <DistanceMeters>1702.2834933124</DistanceMeters>
          </Trackpoint>
          <Trackpoint>
            <Time>2021-10-09T06:50:51.000Z</Time>
            <Position>
              <LatitudeDegrees>39.46393878199160099029541015625</LatitudeDegrees>
              <LongitudeDegrees>-0.45336239039897918701171875</LongitudeDegrees>
            </Position>
            <AltitudeMeters>58.200000762939453125</AltitudeMeters>
            <DistanceMeters>1709.4792183162</DistanceMeters>
          </Trackpoint>
          <Trackpoint>
            <Time>2021-10-09T06:50:52.000Z</Time>
            <Position>
              <LatitudeDegrees>39.46394749917089939117431640625</LatitudeDegrees>
              <LongitudeDegrees>-0.4534435272216796875</LongitudeDegrees>
            </Position>
            <AltitudeMeters>58.200000762939453125</AltitudeMeters>
            <DistanceMeters>1716.5188958318</DistanceMeters>
          </Trackpoint>
          <Trackpoint>
            <Time>2021-10-09T06:50:53.000Z</Time>
            <Position>
              <LatitudeDegrees>39.46395571343600749969482421875</LatitudeDegrees>
              <LongitudeDegrees>-0.453528352081775665283203125</LongitudeDegrees>
            </Position>
            <AltitudeMeters>58.200000762939453125</AltitudeMeters>
            <DistanceMeters>1723.8648972496</DistanceMeters>
          </Trackpoint>
          <Trackpoint>
            <Time>2021-10-09T06:50:54.000Z</Time>
            <Position>
              <LatitudeDegrees>39.4639660231769084930419921875</LatitudeDegrees>
              <LongitudeDegrees>-0.4536123387515544891357421875</LongitudeDegrees>
            </Position>
            <AltitudeMeters>58</AltitudeMeters>
            <DistanceMeters>1731.1733103582</DistanceMeters>
          </Trackpoint>
          <Trackpoint>
            <Time>2021-10-09T06:50:55.000Z</Time>
            <Position>
              <LatitudeDegrees>39.46397616527974605560302734375</LatitudeDegrees>
              <LongitudeDegrees>-0.45369791798293590545654296875</LongitudeDegrees>
            </Position>
            <AltitudeMeters>58</AltitudeMeters>
            <DistanceMeters>1738.6133620113</DistanceMeters>
          </Trackpoint>
          <Trackpoint>
            <Time>2021-10-09T06:50:56.000Z</Time>
            <Position>
              <LatitudeDegrees>39.46398488245904445648193359375</LatitudeDegrees>
              <LongitudeDegrees>-0.453781820833683013916015625</LongitudeDegrees>
            </Position>
            <AltitudeMeters>58</AltitudeMeters>
            <DistanceMeters>1745.8877175128</DistanceMeters>
          </Trackpoint>
          <Trackpoint>
            <Time>2021-10-09T06:50:57.000Z</Time>
            <Position>
              <LatitudeDegrees>39.46399242617189884185791015625</LatitudeDegrees>
              <LongitudeDegrees>-0.453864634037017822265625</LongitudeDegrees>
            </Position>
            <AltitudeMeters>58</AltitudeMeters>
            <DistanceMeters>1753.0526309515</DistanceMeters>
          </Trackpoint>
          <Trackpoint>
            <Time>2021-10-09T06:50:58.000Z</Time>
            <Position>
              <LatitudeDegrees>39.46400231681764125823974609375</LatitudeDegrees>
              <LongitudeDegrees>-0.45394887216389179229736328125</LongitudeDegrees>
            </Position>
            <AltitudeMeters>58</AltitudeMeters>
            <DistanceMeters>1760.3746227466</DistanceMeters>
          </Trackpoint>
          <Trackpoint>
            <Time>2021-10-09T06:50:59.000Z</Time>
            <Position>
              <LatitudeDegrees>39.46401203982532024383544921875</LatitudeDegrees>
              <LongitudeDegrees>-0.45403604395687580108642578125</LongitudeDegrees>
            </Position>
            <AltitudeMeters>58</AltitudeMeters>
            <DistanceMeters>1767.9434274713</DistanceMeters>
          </Trackpoint>
          <Trackpoint>
            <Time>2021-10-09T06:51:00.000Z</Time>
            <Position>
              <LatitudeDegrees>39.46402260102331638336181640625</LatitudeDegrees>
              <LongitudeDegrees>-0.45412011444568634033203125</LongitudeDegrees>
            </Position>
            <AltitudeMeters>58</AltitudeMeters>
            <DistanceMeters>1775.2623354134</DistanceMeters>
          </Trackpoint>
          <Trackpoint>
            <Time>2021-10-09T06:51:01.000Z</Time>
            <Position>
              <LatitudeDegrees>39.464032910764217376708984375</LatitudeDegrees>
              <LongitudeDegrees>-0.454204939305782318115234375</LongitudeDegrees>
            </Position>
            <AltitudeMeters>58</AltitudeMeters>
            <DistanceMeters>1782.6414519565</DistanceMeters>
          </Trackpoint>
          <Trackpoint>
            <Time>2021-10-09T06:51:02.000Z</Time>
            <Position>
              <LatitudeDegrees>39.4640438072383403778076171875</LatitudeDegrees>
              <LongitudeDegrees>-0.4542870819568634033203125</LongitudeDegrees>
            </Position>
            <AltitudeMeters>58</AltitudeMeters>
            <DistanceMeters>1789.8032139047</DistanceMeters>
          </Trackpoint>
          <Trackpoint>
            <Time>2021-10-09T06:51:03.000Z</Time>
            <Position>
              <LatitudeDegrees>39.46405461989343166351318359375</LatitudeDegrees>
              <LongitudeDegrees>-0.4543714039027690887451171875</LongitudeDegrees>
            </Position>
            <AltitudeMeters>58</AltitudeMeters>
            <DistanceMeters>1797.1479859689</DistanceMeters>
          </Trackpoint>
          <Trackpoint>
            <Time>2021-10-09T06:51:04.000Z</Time>
            <Position>
              <LatitudeDegrees>39.46405948139727115631103515625</LatitudeDegrees>
              <LongitudeDegrees>-0.45445480383932590484619140625</LongitudeDegrees>
            </Position>
            <AltitudeMeters>58</AltitudeMeters>
            <DistanceMeters>1804.3349211474</DistanceMeters>
          </Trackpoint>
          <Trackpoint>
            <Time>2021-10-09T06:51:05.000Z</Time>
            <Position>
              <LatitudeDegrees>39.464067779481410980224609375</LatitudeDegrees>
              <LongitudeDegrees>-0.45453677885234355926513671875</LongitudeDegrees>
            </Position>
            <AltitudeMeters>58.200000762939453125</AltitudeMeters>
            <DistanceMeters>1811.4390817062</DistanceMeters>
          </Trackpoint>
          <Trackpoint>
            <Time>2021-10-09T06:51:06.000Z</Time>
            <Position>
              <LatitudeDegrees>39.4640810228884220123291015625</LatitudeDegrees>
              <LongitudeDegrees>-0.45462093316018581390380859375</LongitudeDegrees>
            </Position>
            <AltitudeMeters>58.40000152587890625</AltitudeMeters>
            <DistanceMeters>1818.819421882</DistanceMeters>
          </Trackpoint>
          <Trackpoint>
            <Time>2021-10-09T06:51:07.000Z</Time>
            <Position>
              <LatitudeDegrees>39.4640940986573696136474609375</LatitudeDegrees>
              <LongitudeDegrees>-0.45470542274415493011474609375</LongitudeDegrees>
            </Position>
            <AltitudeMeters>58.40000152587890625</AltitudeMeters>
            <DistanceMeters>1826.2241922476</DistanceMeters>
          </Trackpoint>
          <Trackpoint>
            <Time>2021-10-09T06:51:08.000Z</Time>
            <Position>
              <LatitudeDegrees>39.4641044922173023223876953125</LatitudeDegrees>
              <LongitudeDegrees>-0.45479058288037776947021484375</LongitudeDegrees>
            </Position>
            <AltitudeMeters>58.40000152587890625</AltitudeMeters>
            <DistanceMeters>1833.6326201933</DistanceMeters>
          </Trackpoint>
          <Trackpoint>
            <Time>2021-10-09T06:51:09.000Z</Time>
            <Position>
              <LatitudeDegrees>39.46411211974918842315673828125</LatitudeDegrees>
              <LongitudeDegrees>-0.45487783849239349365234375</LongitudeDegrees>
            </Position>
            <AltitudeMeters>58.40000152587890625</AltitudeMeters>
            <DistanceMeters>1841.1787226346</DistanceMeters>
          </Trackpoint>
          <Trackpoint>
            <Time>2021-10-09T06:51:10.000Z</Time>
            <Position>
              <LatitudeDegrees>39.46412033401429653167724609375</LatitudeDegrees>
              <LongitudeDegrees>-0.45496207661926746368408203125</LongitudeDegrees>
            </Position>
            <AltitudeMeters>58.40000152587890625</AltitudeMeters>
            <DistanceMeters>1848.4741506934</DistanceMeters>
          </Trackpoint>
          <Trackpoint>
            <Time>2021-10-09T06:51:11.000Z</Time>
            <Position>
              <LatitudeDegrees>39.46412972174584865570068359375</LatitudeDegrees>
              <LongitudeDegrees>-0.45504556037485599517822265625</LongitudeDegrees>
            </Position>
            <AltitudeMeters>58.40000152587890625</AltitudeMeters>
            <DistanceMeters>1855.7236365306</DistanceMeters>
          </Trackpoint>
          <Trackpoint>
            <Time>2021-10-09T06:51:12.000Z</Time>
            <Position>
              <LatitudeDegrees>39.464136175811290740966796875</LatitudeDegrees>
              <LongitudeDegrees>-0.45512585900723934173583984375</LongitudeDegrees>
            </Position>
            <AltitudeMeters>58.40000152587890625</AltitudeMeters>
            <DistanceMeters>1862.6605866796</DistanceMeters>
          </Trackpoint>
          <Trackpoint>
            <Time>2021-10-09T06:51:13.000Z</Time>
            <Position>
              <LatitudeDegrees>39.464144892990589141845703125</LatitudeDegrees>
              <LongitudeDegrees>-0.4552042298018932342529296875</LongitudeDegrees>
            </Position>
            <AltitudeMeters>58.40000152587890625</AltitudeMeters>
            <DistanceMeters>1869.4641278055</DistanceMeters>
          </Trackpoint>
          <Trackpoint>
            <Time>2021-10-09T06:51:14.000Z</Time>
            <Position>
              <LatitudeDegrees>39.4641531072556972503662109375</LatitudeDegrees>
              <LongitudeDegrees>-0.4552821815013885498046875</LongitudeDegrees>
            </Position>
            <AltitudeMeters>58.40000152587890625</AltitudeMeters>
            <DistanceMeters>1876.2243953211</DistanceMeters>
          </Trackpoint>
          <Trackpoint>
            <Time>2021-10-09T06:51:15.000Z</Time>
            <Position>
              <LatitudeDegrees>39.4641601480543613433837890625</LatitudeDegrees>
              <LongitudeDegrees>-0.45535652898252010345458984375</LongitudeDegrees>
            </Position>
            <AltitudeMeters>58.40000152587890625</AltitudeMeters>
            <DistanceMeters>1882.6617100409</DistanceMeters>
          </Trackpoint>
          <Trackpoint>
            <Time>2021-10-09T06:51:16.000Z</Time>
            <Position>
              <LatitudeDegrees>39.4641681946814060211181640625</LatitudeDegrees>
              <LongitudeDegrees>-0.45543171465396881103515625</LongitudeDegrees>
            </Position>
            <AltitudeMeters>58.40000152587890625</AltitudeMeters>
            <DistanceMeters>1889.1833402091</DistanceMeters>
          </Trackpoint>
          <Trackpoint>
            <Time>2021-10-09T06:51:17.000Z</Time>
            <Position>
              <LatitudeDegrees>39.46417741477489471435546875</LatitudeDegrees>
              <LongitudeDegrees>-0.455508492887020111083984375</LongitudeDegrees>
            </Position>
            <AltitudeMeters>58.40000152587890625</AltitudeMeters>
            <DistanceMeters>1895.8596009386</DistanceMeters>
          </Trackpoint>
          <Trackpoint>
            <Time>2021-10-09T06:51:18.000Z</Time>
            <Position>
              <LatitudeDegrees>39.46418722160160541534423828125</LatitudeDegrees>
              <LongitudeDegrees>-0.45558602549135684967041015625</LongitudeDegrees>
            </Position>
            <AltitudeMeters>58.40000152587890625</AltitudeMeters>
            <DistanceMeters>1902.6111804492</DistanceMeters>
          </Trackpoint>
          <Trackpoint>
            <Time>2021-10-09T06:51:19.000Z</Time>
            <Position>
              <LatitudeDegrees>39.46419727988541126251220703125</LatitudeDegrees>
              <LongitudeDegrees>-0.4556630551815032958984375</LongitudeDegrees>
            </Position>
            <AltitudeMeters>58.40000152587890625</AltitudeMeters>
            <DistanceMeters>1909.3245336749</DistanceMeters>
          </Trackpoint>
          <Trackpoint>
            <Time>2021-10-09T06:51:20.000Z</Time>
            <Position>
              <LatitudeDegrees>39.464207924902439117431640625</LatitudeDegrees>
              <LongitudeDegrees>-0.45574075542390346527099609375</LongitudeDegrees>
            </Position>
            <AltitudeMeters>58.40000152587890625</AltitudeMeters>
            <DistanceMeters>1916.1041420042</DistanceMeters>
          </Trackpoint>
          <Trackpoint>
            <Time>2021-10-09T06:51:21.000Z</Time>
            <Position>
              <LatitudeDegrees>39.46422108449041843414306640625</LatitudeDegrees>
              <LongitudeDegrees>-0.45581753365695476531982421875</LongitudeDegrees>
            </Position>
            <AltitudeMeters>58.59999847412109375</AltitudeMeters>
            <DistanceMeters>1922.8624055869</DistanceMeters>
          </Trackpoint>
          <Trackpoint>
            <Time>2021-10-09T06:51:22.000Z</Time>
            <Position>
              <LatitudeDegrees>39.464238099753856658935546875</LatitudeDegrees>
              <LongitudeDegrees>-0.45589079149067401885986328125</LongitudeDegrees>
            </Position>
            <AltitudeMeters>58.59999847412109375</AltitudeMeters>
            <DistanceMeters>1929.4357544887</DistanceMeters>
          </Trackpoint>
          <Trackpoint>
            <Time>2021-10-09T06:51:23.000Z</Time>
            <Position>
              <LatitudeDegrees>39.4642652571201324462890625</LatitudeDegrees>
              <LongitudeDegrees>-0.455961786210536956787109375</LongitudeDegrees>
            </Position>
            <AltitudeMeters>58.799999237060546875</AltitudeMeters>
            <DistanceMeters>1936.2446025898</DistanceMeters>
          </Trackpoint>
          <Trackpoint>
            <Time>2021-10-09T06:51:24.000Z</Time>
            <Position>
              <LatitudeDegrees>39.4643002934753894805908203125</LatitudeDegrees>
              <LongitudeDegrees>-0.4560229741036891937255859375</LongitudeDegrees>
            </Position>
            <AltitudeMeters>58.59999847412109375</AltitudeMeters>
            <DistanceMeters>1942.7911087421</DistanceMeters>
          </Trackpoint>
          <Trackpoint>
            <Time>2021-10-09T06:51:25.000Z</Time>
            <Position>
              <LatitudeDegrees>39.4643435440957546234130859375</LatitudeDegrees>
              <LongitudeDegrees>-0.4560787975788116455078125</LongitudeDegrees>
            </Position>
            <AltitudeMeters>58.59999847412109375</AltitudeMeters>
            <DistanceMeters>1949.5866816344</DistanceMeters>
          </Trackpoint>
          <Trackpoint>
            <Time>2021-10-09T06:51:26.000Z</Time>
            <Position>
              <LatitudeDegrees>39.46438528597354888916015625</LatitudeDegrees>
              <LongitudeDegrees>-0.45613554306328296661376953125</LongitudeDegrees>
            </Position>
            <AltitudeMeters>58.59999847412109375</AltitudeMeters>
            <DistanceMeters>1956.3221923095</DistanceMeters>
          </Trackpoint>
          <Trackpoint>
            <Time>2021-10-09T06:51:27.000Z</Time>
            <Position>
              <LatitudeDegrees>39.4644253514707088470458984375</LatitudeDegrees>
              <LongitudeDegrees>-0.456194467842578887939453125</LongitudeDegrees>
            </Position>
            <AltitudeMeters>58.59999847412109375</AltitudeMeters>
            <DistanceMeters>1963.0697581988</DistanceMeters>
          </Trackpoint>
          <Trackpoint>
            <Time>2021-10-09T06:51:28.000Z</Time>
            <Position>
              <LatitudeDegrees>39.46446441113948822021484375</LatitudeDegrees>
              <LongitudeDegrees>-0.4562546499073505401611328125</LongitudeDegrees>
            </Position>
            <AltitudeMeters>58.59999847412109375</AltitudeMeters>
            <DistanceMeters>1969.8266854961</DistanceMeters>
          </Trackpoint>
          <Trackpoint>
            <Time>2021-10-09T06:51:29.000Z</Time>
            <Position>
              <LatitudeDegrees>39.464506991207599639892578125</LatitudeDegrees>
              <LongitudeDegrees>-0.4563160054385662078857421875</LongitudeDegrees>
            </Position>
            <AltitudeMeters>58.799999237060546875</AltitudeMeters>
            <DistanceMeters>1976.9162133709</DistanceMeters>
          </Trackpoint>
          <Trackpoint>
            <Time>2021-10-09T06:51:30.000Z</Time>
            <Position>
              <LatitudeDegrees>39.46455694735050201416015625</LatitudeDegrees>
              <LongitudeDegrees>-0.456369481980800628662109375</LongitudeDegrees>
            </Position>
            <AltitudeMeters>58.59999847412109375</AltitudeMeters>
            <DistanceMeters>1984.1294858924</DistanceMeters>
          </Trackpoint>
          <Trackpoint>
            <Time>2021-10-09T06:51:31.000Z</Time>
            <Position>
              <LatitudeDegrees>39.4646151177585124969482421875</LatitudeDegrees>
              <LongitudeDegrees>-0.456407032907009124755859375</LongitudeDegrees>
            </Position>
            <AltitudeMeters>58.59999847412109375</AltitudeMeters>
            <DistanceMeters>1991.3640088946</DistanceMeters>
          </Trackpoint>
          <Trackpoint>
            <Time>2021-10-09T06:51:32.000Z</Time>
            <Position>
              <LatitudeDegrees>39.4646756350994110107421875</LatitudeDegrees>
              <LongitudeDegrees>-0.45642471872270107269287109375</LongitudeDegrees>
            </Position>
            <AltitudeMeters>58.59999847412109375</AltitudeMeters>
            <DistanceMeters>1998.2689928645</DistanceMeters>
          </Trackpoint>
          <Trackpoint>
            <Time>2021-10-09T06:51:33.000Z</Time>
            <Position>
              <LatitudeDegrees>39.46473799645900726318359375</LatitudeDegrees>
              <LongitudeDegrees>-0.4564320109784603118896484375</LongitudeDegrees>
            </Position>
            <AltitudeMeters>58.59999847412109375</AltitudeMeters>
            <DistanceMeters>2005.2377625633</DistanceMeters>
          </Trackpoint>
          <Trackpoint>
            <Time>2021-10-09T06:51:34.000Z</Time>
            <Position>
              <LatitudeDegrees>39.4648005254566669464111328125</LatitudeDegrees>
              <LongitudeDegrees>-0.45642815530300140380859375</LongitudeDegrees>
            </Position>
            <AltitudeMeters>58.59999847412109375</AltitudeMeters>
            <DistanceMeters>2012.2052363496</DistanceMeters>
          </Trackpoint>
          <Trackpoint>
            <Time>2021-10-09T06:51:35.000Z</Time>
            <Position>
              <LatitudeDegrees>39.46486481465399265289306640625</LatitudeDegrees>
              <LongitudeDegrees>-0.45641767792403697967529296875</LongitudeDegrees>
            </Position>
            <AltitudeMeters>58.59999847412109375</AltitudeMeters>
            <DistanceMeters>2019.4178829092</DistanceMeters>
          </Trackpoint>
          <Trackpoint>
            <Time>2021-10-09T06:51:36.000Z</Time>
            <Position>
              <LatitudeDegrees>39.46492885239422321319580078125</LatitudeDegrees>
              <LongitudeDegrees>-0.4564058594405651092529296875</LongitudeDegrees>
            </Position>
            <AltitudeMeters>58.59999847412109375</AltitudeMeters>
            <DistanceMeters>2026.6173716958</DistanceMeters>
          </Trackpoint>
          <Trackpoint>
            <Time>2021-10-09T06:51:37.000Z</Time>
            <Position>
              <LatitudeDegrees>39.46499322541058063507080078125</LatitudeDegrees>
              <LongitudeDegrees>-0.456393621861934661865234375</LongitudeDegrees>
            </Position>
            <AltitudeMeters>58.59999847412109375</AltitudeMeters>
            <DistanceMeters>2033.8587565019</DistanceMeters>
          </Trackpoint>
          <Trackpoint>
            <Time>2021-10-09T06:51:38.000Z</Time>
            <Position>
              <LatitudeDegrees>39.465058185160160064697265625</LatitudeDegrees>
              <LongitudeDegrees>-0.45638029463589191436767578125</LongitudeDegrees>
            </Position>
            <AltitudeMeters>58.59999847412109375</AltitudeMeters>
            <DistanceMeters>2041.1788981411</DistanceMeters>
          </Trackpoint>
          <Trackpoint>
            <Time>2021-10-09T06:51:39.000Z</Time>
            <Position>
              <LatitudeDegrees>39.46512331254780292510986328125</LatitudeDegrees>
              <LongitudeDegrees>-0.456364788115024566650390625</LongitudeDegrees>
            </Position>
            <AltitudeMeters>58.59999847412109375</AltitudeMeters>
            <DistanceMeters>2048.5494435678</DistanceMeters>
          </Trackpoint>
          <Trackpoint>
            <Time>2021-10-09T06:51:40.000Z</Time>
            <Position>
              <LatitudeDegrees>39.46518852375447750091552734375</LatitudeDegrees>
              <LongitudeDegrees>-0.4563518799841403961181640625</LongitudeDegrees>
            </Position>
            <AltitudeMeters>58.59999847412109375</AltitudeMeters>
            <DistanceMeters>2055.8917563077</DistanceMeters>
          </Trackpoint>
          <Trackpoint>
            <Time>2021-10-09T06:51:41.000Z</Time>
            <Position>
              <LatitudeDegrees>39.465253651142120361328125</LatitudeDegrees>
              <LongitudeDegrees>-0.4563391394913196563720703125</LongitudeDegrees>
            </Position>
            <AltitudeMeters>58.59999847412109375</AltitudeMeters>
            <DistanceMeters>2063.2229918785</DistanceMeters>
          </Trackpoint>
          <Trackpoint>
            <Time>2021-10-09T06:51:42.000Z</Time>
            <Position>
              <LatitudeDegrees>39.46531794033944606781005859375</LatitudeDegrees>
              <LongitudeDegrees>-0.456326566636562347412109375</LongitudeDegrees>
            </Position>
            <AltitudeMeters>58.59999847412109375</AltitudeMeters>
            <DistanceMeters>2070.4600108349</DistanceMeters>
          </Trackpoint>
          <Trackpoint>
            <Time>2021-10-09T06:51:43.000Z</Time>
            <Position>
              <LatitudeDegrees>39.46538306772708892822265625</LatitudeDegrees>
              <LongitudeDegrees>-0.45631458051502704620361328125</LongitudeDegrees>
            </Position>
            <AltitudeMeters>58.59999847412109375</AltitudeMeters>
            <DistanceMeters>2077.7813859633</DistanceMeters>
          </Trackpoint>
          <Trackpoint>
            <Time>2021-10-09T06:51:44.000Z</Time>
            <Position>
              <LatitudeDegrees>39.4654479436576366424560546875</LatitudeDegrees>
              <LongitudeDegrees>-0.456303097307682037353515625</LongitudeDegrees>
            </Position>
            <AltitudeMeters>58.59999847412109375</AltitudeMeters>
            <DistanceMeters>2085.0693836062</DistanceMeters>
          </Trackpoint>
          <Trackpoint>
            <Time>2021-10-09T06:51:45.000Z</Time>
            <Position>
              <LatitudeDegrees>39.46551357395946979522705078125</LatitudeDegrees>
              <LongitudeDegrees>-0.4562908597290515899658203125</LongitudeDegrees>
            </Position>
            <AltitudeMeters>58.59999847412109375</AltitudeMeters>
            <DistanceMeters>2092.449723782</DistanceMeters>
          </Trackpoint>
          <Trackpoint>
            <Time>2021-10-09T06:51:46.000Z</Time>
            <Position>
              <LatitudeDegrees>39.46557828225195407867431640625</LatitudeDegrees>
              <LongitudeDegrees>-0.456278957426548004150390625</LongitudeDegrees>
            </Position>
            <AltitudeMeters>58.59999847412109375</AltitudeMeters>
            <DistanceMeters>2099.7240792835</DistanceMeters>
          </Trackpoint>
          <Trackpoint>
            <Time>2021-10-09T06:51:47.000Z</Time>
            <Position>
              <LatitudeDegrees>39.4656424038112163543701171875</LatitudeDegrees>
              <LongitudeDegrees>-0.456266887485980987548828125</LongitudeDegrees>
            </Position>
            <AltitudeMeters>58.59999847412109375</AltitudeMeters>
            <DistanceMeters>2106.9360998268</DistanceMeters>
          </Trackpoint>
          <Trackpoint>
            <Time>2021-10-09T06:51:48.000Z</Time>
            <Position>
              <LatitudeDegrees>39.4657067768275737762451171875</LatitudeDegrees>
              <LongitudeDegrees>-0.45625305734574794769287109375</LongitudeDegrees>
            </Position>
            <AltitudeMeters>58.59999847412109375</AltitudeMeters>
            <DistanceMeters>2114.1980311424</DistanceMeters>
          </Trackpoint>
          <Trackpoint>
            <Time>2021-10-09T06:51:49.000Z</Time>
            <Position>
              <LatitudeDegrees>39.46577073074877262115478515625</LatitudeDegrees>
              <LongitudeDegrees>-0.45623998157680034637451171875</LongitudeDegrees>
            </Position>
            <AltitudeMeters>58.799999237060546875</AltitudeMeters>
            <DistanceMeters>2121.4037885316</DistanceMeters>
          </Trackpoint>
          <Trackpoint>
            <Time>2021-10-09T06:51:50.000Z</Time>
            <Position>
              <LatitudeDegrees>39.4658338464796543121337890625</LatitudeDegrees>
              <LongitudeDegrees>-0.4562274925410747528076171875</LongitudeDegrees>
            </Position>
            <AltitudeMeters>59</AltitudeMeters>
            <DistanceMeters>2128.5111261223</DistanceMeters>
          </Trackpoint>
          <Trackpoint>
            <Time>2021-10-09T06:51:51.000Z</Time>
            <Position>
              <LatitudeDegrees>39.46589813567698001861572265625</LatitudeDegrees>
              <LongitudeDegrees>-0.45621634460985660552978515625</LongitudeDegrees>
            </Position>
            <AltitudeMeters>59</AltitudeMeters>
            <DistanceMeters>2135.7300298589</DistanceMeters>
          </Trackpoint>
          <Trackpoint>
            <Time>2021-10-09T06:51:52.000Z</Time>
            <Position>
              <LatitudeDegrees>39.46596250869333744049072265625</LatitudeDegrees>
              <LongitudeDegrees>-0.45620419085025787353515625</LongitudeDegrees>
            </Position>
            <AltitudeMeters>59</AltitudeMeters>
            <DistanceMeters>2142.9707911333</DistanceMeters>
          </Trackpoint>
          <Trackpoint>
            <Time>2021-10-09T06:51:53.000Z</Time>
            <Position>
              <LatitudeDegrees>39.4660269655287265777587890625</LatitudeDegrees>
              <LongitudeDegrees>-0.456192456185817718505859375</LongitudeDegrees>
            </Position>
            <AltitudeMeters>59</AltitudeMeters>
            <DistanceMeters>2150.2159160024</DistanceMeters>
          </Trackpoint>
          <Trackpoint>
            <Time>2021-10-09T06:51:54.000Z</Time>
            <Position>
              <LatitudeDegrees>39.46609125472605228424072265625</LatitudeDegrees>
              <LongitudeDegrees>-0.4561802186071872711181640625</LongitudeDegrees>
            </Position>
            <AltitudeMeters>59.200000762939453125</AltitudeMeters>
            <DistanceMeters>2157.447942189</DistanceMeters>
          </Trackpoint>
          <Trackpoint>
            <Time>2021-10-09T06:51:55.000Z</Time>
            <Position>
              <LatitudeDegrees>39.46615596301853656768798828125</LatitudeDegrees>
              <LongitudeDegrees>-0.45616789720952510833740234375</LongitudeDegrees>
            </Position>
            <AltitudeMeters>59.40000152587890625</AltitudeMeters>
            <DistanceMeters>2164.7272614273</DistanceMeters>
          </Trackpoint>
          <Trackpoint>
            <Time>2021-10-09T06:51:56.000Z</Time>
            <Position>
              <LatitudeDegrees>39.46622000075876712799072265625</LatitudeDegrees>
              <LongitudeDegrees>-0.45616001822054386138916015625</LongitudeDegrees>
            </Position>
            <AltitudeMeters>59.40000152587890625</AltitudeMeters>
            <DistanceMeters>2171.8871318153</DistanceMeters>
          </Trackpoint>
          <Trackpoint>
            <Time>2021-10-09T06:51:57.000Z</Time>
            <Position>
              <LatitudeDegrees>39.46628554724156856536865234375</LatitudeDegrees>
              <LongitudeDegrees>-0.4561510495841503143310546875</LongitudeDegrees>
            </Position>
            <AltitudeMeters>59.40000152587890625</AltitudeMeters>
            <DistanceMeters>2179.2232926372</DistanceMeters>
          </Trackpoint>
          <Trackpoint>
            <Time>2021-10-09T06:51:58.000Z</Time>
            <Position>
              <LatitudeDegrees>39.46634891442954540252685546875</LatitudeDegrees>
              <LongitudeDegrees>-0.45613956637680530548095703125</LongitudeDegrees>
            </Position>
            <AltitudeMeters>59.40000152587890625</AltitudeMeters>
            <DistanceMeters>2186.3445923297</DistanceMeters>
          </Trackpoint>
          <Trackpoint>
            <Time>2021-10-09T06:51:59.000Z</Time>
            <Position>
              <LatitudeDegrees>39.4664128683507442474365234375</LatitudeDegrees>
              <LongitudeDegrees>-0.4561269097030162811279296875</LongitudeDegrees>
            </Position>
            <AltitudeMeters>59.40000152587890625</AltitudeMeters>
            <DistanceMeters>2193.5453352733</DistanceMeters>
          </Trackpoint>
          <Trackpoint>
            <Time>2021-10-09T06:52:00.000Z</Time>
            <Position>
              <LatitudeDegrees>39.46647581644356250762939453125</LatitudeDegrees>
              <LongitudeDegrees>-0.4561148397624492645263671875</LongitudeDegrees>
            </Position>
            <AltitudeMeters>59.59999847412109375</AltitudeMeters>
            <DistanceMeters>2200.6284916829</DistanceMeters>
          </Trackpoint>
          <Trackpoint>
            <Time>2021-10-09T06:52:01.000Z</Time>
            <Position>
              <LatitudeDegrees>39.466540105640888214111328125</LatitudeDegrees>
              <LongitudeDegrees>-0.456102602183818817138671875</LongitudeDegrees>
            </Position>
            <AltitudeMeters>59.59999847412109375</AltitudeMeters>
            <DistanceMeters>2207.8605178695</DistanceMeters>
          </Trackpoint>
          <Trackpoint>
            <Time>2021-10-09T06:52:02.000Z</Time>
            <Position>
              <LatitudeDegrees>39.466604478657245635986328125</LatitudeDegrees>
              <LongitudeDegrees>-0.45609095133841037750244140625</LongitudeDegrees>
            </Position>
            <AltitudeMeters>59.799999237060546875</AltitudeMeters>
            <DistanceMeters>2215.0950408717</DistanceMeters>
          </Trackpoint>
          <Trackpoint>
            <Time>2021-10-09T06:52:03.000Z</Time>
            <Position>
              <LatitudeDegrees>39.4666683487594127655029296875</LatitudeDegrees>
              <LongitudeDegrees>-0.456077791750431060791015625</LongitudeDegrees>
            </Position>
            <AltitudeMeters>59.799999237060546875</AltitudeMeters>
            <DistanceMeters>2222.2932752827</DistanceMeters>
          </Trackpoint>
          <Trackpoint>
            <Time>2021-10-09T06:52:04.000Z</Time>
            <Position>
              <LatitudeDegrees>39.4667310453951358795166015625</LatitudeDegrees>
              <LongitudeDegrees>-0.45606597326695919036865234375</LongitudeDegrees>
            </Position>
            <AltitudeMeters>60</AltitudeMeters>
            <DistanceMeters>2229.3444880082</DistanceMeters>
          </Trackpoint>
          <Trackpoint>
            <Time>2021-10-09T06:52:05.000Z</Time>
            <Position>
              <LatitudeDegrees>39.466793239116668701171875</LatitudeDegrees>
              <LongitudeDegrees>-0.4560534842312335968017578125</LongitudeDegrees>
            </Position>
            <AltitudeMeters>60</AltitudeMeters>
            <DistanceMeters>2236.3500904429</DistanceMeters>
          </Trackpoint>
          <Trackpoint>
            <Time>2021-10-09T06:52:06.000Z</Time>
            <Position>
              <LatitudeDegrees>39.466856606304645538330078125</LatitudeDegrees>
              <LongitudeDegrees>-0.45604149810969829559326171875</LongitudeDegrees>
            </Position>
            <AltitudeMeters>60.40000152587890625</AltitudeMeters>
            <DistanceMeters>2243.4777275039</DistanceMeters>
          </Trackpoint>
          <Trackpoint>
            <Time>2021-10-09T06:52:07.000Z</Time>
            <Position>
              <LatitudeDegrees>39.46691997349262237548828125</LatitudeDegrees>
              <LongitudeDegrees>-0.4560313560068607330322265625</LongitudeDegrees>
            </Position>
            <AltitudeMeters>60.59999847412109375</AltitudeMeters>
            <DistanceMeters>2250.5850650946</DistanceMeters>
          </Trackpoint>
          <Trackpoint>
            <Time>2021-10-09T06:52:08.000Z</Time>
            <Position>
              <LatitudeDegrees>39.46698325686156749725341796875</LatitudeDegrees>
              <LongitudeDegrees>-0.45602188445627689361572265625</LongitudeDegrees>
            </Position>
            <AltitudeMeters>60.59999847412109375</AltitudeMeters>
            <DistanceMeters>2257.6752298009</DistanceMeters>
          </Trackpoint>
          <Trackpoint>
            <Time>2021-10-09T06:52:09.000Z</Time>
            <Position>
              <LatitudeDegrees>39.4670478813350200653076171875</LatitudeDegrees>
              <LongitudeDegrees>-0.4560095630586147308349609375</LongitudeDegrees>
            </Position>
            <AltitudeMeters>60.40000152587890625</AltitudeMeters>
            <DistanceMeters>2264.9458602759</DistanceMeters>
          </Trackpoint>
          <Trackpoint>
            <Time>2021-10-09T06:52:10.000Z</Time>
            <Position>
              <LatitudeDegrees>39.46711242198944091796875</LatitudeDegrees>
              <LongitudeDegrees>-0.4559981636703014373779296875</LongitudeDegrees>
            </Position>
            <AltitudeMeters>60.200000762939453125</AltitudeMeters>
            <DistanceMeters>2272.1959688944</DistanceMeters>
          </Trackpoint>
          <Trackpoint>
            <Time>2021-10-09T06:52:11.000Z</Time>
            <Position>
              <LatitudeDegrees>39.46717738173902034759521484375</LatitudeDegrees>
              <LongitudeDegrees>-0.45598550699651241302490234375</LongitudeDegrees>
            </Position>
            <AltitudeMeters>60</AltitudeMeters>
            <DistanceMeters>2279.5080877818</DistanceMeters>
          </Trackpoint>
          <Trackpoint>
            <Time>2021-10-09T06:52:12.000Z</Time>
            <Position>
              <LatitudeDegrees>39.4672410003840923309326171875</LatitudeDegrees>
              <LongitudeDegrees>-0.4559720121324062347412109375</LongitudeDegrees>
            </Position>
            <AltitudeMeters>60</AltitudeMeters>
            <DistanceMeters>2286.6837059353</DistanceMeters>
          </Trackpoint>
          <Trackpoint>
            <Time>2021-10-09T06:52:13.000Z</Time>
            <Position>
              <LatitudeDegrees>39.46730528958141803741455078125</LatitudeDegrees>
              <LongitudeDegrees>-0.45595902018249034881591796875</LongitudeDegrees>
            </Position>
            <AltitudeMeters>60</AltitudeMeters>
            <DistanceMeters>2293.9257142193</DistanceMeters>
          </Trackpoint>
          <Trackpoint>
            <Time>2021-10-09T06:52:14.000Z</Time>
            <Position>
              <LatitudeDegrees>39.4673704169690608978271484375</LatitudeDegrees>
              <LongitudeDegrees>-0.4559475369751453399658203125</LongitudeDegrees>
            </Position>
            <AltitudeMeters>60</AltitudeMeters>
            <DistanceMeters>2301.2415370085</DistanceMeters>
          </Trackpoint>
          <Trackpoint>
            <Time>2021-10-09T06:52:15.000Z</Time>
            <Position>
              <LatitudeDegrees>39.46743420325219631195068359375</LatitudeDegrees>
              <LongitudeDegrees>-0.45593571849167346954345703125</LongitudeDegrees>
            </Position>
            <AltitudeMeters>60</AltitudeMeters>
            <DistanceMeters>2308.4133788518</DistanceMeters>
          </Trackpoint>
          <Trackpoint>
            <Time>2021-10-09T06:52:16.000Z</Time>
            <Position>
              <LatitudeDegrees>39.46749622933566570281982421875</LatitudeDegrees>
              <LongitudeDegrees>-0.45592314563691616058349609375</LongitudeDegrees>
            </Position>
            <AltitudeMeters>60</AltitudeMeters>
            <DistanceMeters>2315.4009122744</DistanceMeters>
          </Trackpoint>
          <Trackpoint>
            <Time>2021-10-09T06:52:17.000Z</Time>
            <Position>
              <LatitudeDegrees>39.4675581716001033782958984375</LatitudeDegrees>
              <LongitudeDegrees>-0.45591107569634914398193359375</LongitudeDegrees>
            </Position>
            <AltitudeMeters>60</AltitudeMeters>
            <DistanceMeters>2322.3722730757</DistanceMeters>
          </Trackpoint>
          <Trackpoint>
            <Time>2021-10-09T06:52:18.000Z</Time>
            <Position>
              <LatitudeDegrees>39.46762162260711193084716796875</LatitudeDegrees>
              <LongitudeDegrees>-0.4559026099741458892822265625</LongitudeDegrees>
            </Position>
            <AltitudeMeters>60</AltitudeMeters>
            <DistanceMeters>2329.4719834015</DistanceMeters>
          </Trackpoint>
          <Trackpoint>
            <Time>2021-10-09T06:52:19.000Z</Time>
            <Position>
              <LatitudeDegrees>39.46768348105251789093017578125</LatitudeDegrees>
              <LongitudeDegrees>-0.45589716173708438873291015625</LongitudeDegrees>
            </Position>
            <AltitudeMeters>59.799999237060546875</AltitudeMeters>
            <DistanceMeters>2336.3736971917</DistanceMeters>
          </Trackpoint>
          <Trackpoint>
            <Time>2021-10-09T06:52:20.000Z</Time>
            <Position>
              <LatitudeDegrees>39.46774550713598728179931640625</LatitudeDegrees>
              <LongitudeDegrees>-0.455896072089672088623046875</LongitudeDegrees>
            </Position>
            <AltitudeMeters>59.799999237060546875</AltitudeMeters>
            <DistanceMeters>2343.2786811616</DistanceMeters>
          </Trackpoint>
          <Trackpoint>
            <Time>2021-10-09T06:52:21.000Z</Time>
            <Position>
              <LatitudeDegrees>39.4678096286952495574951171875</LatitudeDegrees>
              <LongitudeDegrees>-0.455896072089672088623046875</LongitudeDegrees>
            </Position>
            <AltitudeMeters>59.799999237060546875</AltitudeMeters>
            <DistanceMeters>2350.4151810841</DistanceMeters>
          </Trackpoint>
          <Trackpoint>
            <Time>2021-10-09T06:52:22.000Z</Time>
            <Position>
              <LatitudeDegrees>39.46787274442613124847412109375</LatitudeDegrees>
              <LongitudeDegrees>-0.45589716173708438873291015625</LongitudeDegrees>
            </Position>
            <AltitudeMeters>59.799999237060546875</AltitudeMeters>
            <DistanceMeters>2357.4407342895</DistanceMeters>
          </Trackpoint>
          <Trackpoint>
            <Time>2021-10-09T06:52:23.000Z</Time>
            <Position>
              <LatitudeDegrees>39.46793644689023494720458984375</LatitudeDegrees>
              <LongitudeDegrees>-0.45590252615511417388916015625</LongitudeDegrees>
            </Position>
            <AltitudeMeters>60</AltitudeMeters>
            <DistanceMeters>2364.5455303683</DistanceMeters>
          </Trackpoint>
          <Trackpoint>
            <Time>2021-10-09T06:52:24.000Z</Time>
            <Position>
              <LatitudeDegrees>39.468000233173370361328125</LatitudeDegrees>
              <LongitudeDegrees>-0.45591224916279315948486328125</LongitudeDegrees>
            </Position>
            <AltitudeMeters>60</AltitudeMeters>
            <DistanceMeters>2371.6934092509</DistanceMeters>
          </Trackpoint>
          <Trackpoint>
            <Time>2021-10-09T06:52:25.000Z</Time>
            <Position>
              <LatitudeDegrees>39.46806368418037891387939453125</LatitudeDegrees>
              <LongitudeDegrees>-0.45592524111270904541015625</LongitudeDegrees>
            </Position>
            <AltitudeMeters>59.799999237060546875</AltitudeMeters>
            <DistanceMeters>2378.8438143321</DistanceMeters>
          </Trackpoint>
          <Trackpoint>
            <Time>2021-10-09T06:52:26.000Z</Time>
            <Position>
              <LatitudeDegrees>39.4681281410157680511474609375</LatitudeDegrees>
              <LongitudeDegrees>-0.45593907125294208526611328125</LongitudeDegrees>
            </Position>
            <AltitudeMeters>59.799999237060546875</AltitudeMeters>
            <DistanceMeters>2386.1156866946</DistanceMeters>
          </Trackpoint>
          <Trackpoint>
            <Time>2021-10-09T06:52:27.000Z</Time>
            <Position>
              <LatitudeDegrees>39.46819175966084003448486328125</LatitudeDegrees>
              <LongitudeDegrees>-0.45595533214509487152099609375</LongitudeDegrees>
            </Position>
            <AltitudeMeters>59.799999237060546875</AltitudeMeters>
            <DistanceMeters>2393.3327138477</DistanceMeters>
          </Trackpoint>
          <Trackpoint>
            <Time>2021-10-09T06:52:28.000Z</Time>
            <Position>
              <LatitudeDegrees>39.46825462393462657928466796875</LatitudeDegrees>
              <LongitudeDegrees>-0.4559787176549434661865234375</LongitudeDegrees>
            </Position>
            <AltitudeMeters>60</AltitudeMeters>
            <DistanceMeters>2400.612033086</DistanceMeters>
          </Trackpoint>
          <Trackpoint>
            <Time>2021-10-09T06:52:29.000Z</Time>
            <Position>
              <LatitudeDegrees>39.4683165661990642547607421875</LatitudeDegrees>
              <LongitudeDegrees>-0.4560036957263946533203125</LongitudeDegrees>
            </Position>
            <AltitudeMeters>59.799999237060546875</AltitudeMeters>
            <DistanceMeters>2407.831562242</DistanceMeters>
          </Trackpoint>
          <Trackpoint>
            <Time>2021-10-09T06:52:30.000Z</Time>
            <Position>
              <LatitudeDegrees>39.46837850846350193023681640625</LatitudeDegrees>
              <LongitudeDegrees>-0.45603194274008274078369140625</LongitudeDegrees>
            </Position>
            <AltitudeMeters>60</AltitudeMeters>
            <DistanceMeters>2415.1405931109</DistanceMeters>
          </Trackpoint>
          <Trackpoint>
            <Time>2021-10-09T06:52:31.000Z</Time>
            <Position>
              <LatitudeDegrees>39.46843902580440044403076171875</LatitudeDegrees>
              <LongitudeDegrees>-0.4560627043247222900390625</LongitudeDegrees>
            </Position>
            <AltitudeMeters>60</AltitudeMeters>
            <DistanceMeters>2422.3763641978</DistanceMeters>
          </Trackpoint>
          <Trackpoint>
            <Time>2021-10-09T06:52:32.000Z</Time>
            <Position>
              <LatitudeDegrees>39.4684992916882038116455078125</LatitudeDegrees>
              <LongitudeDegrees>-0.45609748922288417816162109375</LongitudeDegrees>
            </Position>
            <AltitudeMeters>60</AltitudeMeters>
            <DistanceMeters>2429.7199067029</DistanceMeters>
          </Trackpoint>
          <Trackpoint>
            <Time>2021-10-09T06:52:33.000Z</Time>
            <Position>
              <LatitudeDegrees>39.468559138476848602294921875</LatitudeDegrees>
              <LongitudeDegrees>-0.45613688416779041290283203125</LongitudeDegrees>
            </Position>
            <AltitudeMeters>59.799999237060546875</AltitudeMeters>
            <DistanceMeters>2437.1914482156</DistanceMeters>
          </Trackpoint>
          <Trackpoint>
            <Time>2021-10-09T06:52:34.000Z</Time>
            <Position>
              <LatitudeDegrees>39.46861772798001766204833984375</LatitudeDegrees>
              <LongitudeDegrees>-0.45618130825459957122802734375</LongitudeDegrees>
            </Position>
            <AltitudeMeters>59.799999237060546875</AltitudeMeters>
            <DistanceMeters>2444.7471178271</DistanceMeters>
          </Trackpoint>
          <Trackpoint>
            <Time>2021-10-09T06:52:35.000Z</Time>
            <Position>
              <LatitudeDegrees>39.46867556311190128326416015625</LatitudeDegrees>
              <LongitudeDegrees>-0.456227995455265045166015625</LongitudeDegrees>
            </Position>
            <AltitudeMeters>59.799999237060546875</AltitudeMeters>
            <DistanceMeters>2452.3320118293</DistanceMeters>
          </Trackpoint>
          <Trackpoint>
            <Time>2021-10-09T06:52:36.000Z</Time>
            <Position>
              <LatitudeDegrees>39.4687349908053874969482421875</LatitudeDegrees>
              <LongitudeDegrees>-0.4562774486839771270751953125</LongitudeDegrees>
            </Position>
            <AltitudeMeters>59.799999237060546875</AltitudeMeters>
            <DistanceMeters>2460.1934266627</DistanceMeters>
          </Trackpoint>
          <Trackpoint>
            <Time>2021-10-09T06:52:37.000Z</Time>
            <Position>
              <LatitudeDegrees>39.46879207156598567962646484375</LatitudeDegrees>
              <LongitudeDegrees>-0.4563267342746257781982421875</LongitudeDegrees>
            </Position>
            <AltitudeMeters>59.799999237060546875</AltitudeMeters>
            <DistanceMeters>2467.8287507241</DistanceMeters>
          </Trackpoint>
          <Trackpoint>
            <Time>2021-10-09T06:52:38.000Z</Time>
            <Position>
              <LatitudeDegrees>39.46884672157466411590576171875</LatitudeDegrees>
              <LongitudeDegrees>-0.4563783667981624603271484375</LongitudeDegrees>
            </Position>
            <AltitudeMeters>59.799999237060546875</AltitudeMeters>
            <DistanceMeters>2475.3562821711</DistanceMeters>
          </Trackpoint>
          <Trackpoint>
            <Time>2021-10-09T06:52:39.000Z</Time>
            <Position>
              <LatitudeDegrees>39.46889818646013736724853515625</LatitudeDegrees>
              <LongitudeDegrees>-0.45643243007361888885498046875</LongitudeDegrees>
            </Position>
            <AltitudeMeters>59.799999237060546875</AltitudeMeters>
            <DistanceMeters>2482.7317265983</DistanceMeters>
          </Trackpoint>
          <Trackpoint>
            <Time>2021-10-09T06:52:40.000Z</Time>
            <Position>
              <LatitudeDegrees>39.46894898079335689544677734375</LatitudeDegrees>
              <LongitudeDegrees>-0.45649110339581966400146484375</LongitudeDegrees>
            </Position>
            <AltitudeMeters>59.799999237060546875</AltitudeMeters>
            <DistanceMeters>2490.3076863314</DistanceMeters>
          </Trackpoint>
          <Trackpoint>
            <Time>2021-10-09T06:52:41.000Z</Time>
            <Position>
              <LatitudeDegrees>39.46899860166013240814208984375</LatitudeDegrees>
              <LongitudeDegrees>-0.4565517045557498931884765625</LongitudeDegrees>
            </Position>
            <AltitudeMeters>59.799999237060546875</AltitudeMeters>
            <DistanceMeters>2497.8979358472</DistanceMeters>
          </Trackpoint>
          <Trackpoint>
            <Time>2021-10-09T06:52:42.000Z</Time>
            <Position>
              <LatitudeDegrees>39.46904621087014675140380859375</LatitudeDegrees>
              <LongitudeDegrees>-0.4566133953630924224853515625</LongitudeDegrees>
            </Position>
            <AltitudeMeters>59.59999847412109375</AltitudeMeters>
            <DistanceMeters>2505.3930079321</DistanceMeters>
          </Trackpoint>
          <Trackpoint>
            <Time>2021-10-09T06:52:43.000Z</Time>
            <Position>
              <LatitudeDegrees>39.4690893776714801788330078125</LatitudeDegrees>
              <LongitudeDegrees>-0.45667885802686214447021484375</LongitudeDegrees>
            </Position>
            <AltitudeMeters>59.59999847412109375</AltitudeMeters>
            <DistanceMeters>2512.7904577123</DistanceMeters>
          </Trackpoint>
          <Trackpoint>
            <Time>2021-10-09T06:52:44.000Z</Time>
            <Position>
              <LatitudeDegrees>39.4691292755305767059326171875</LatitudeDegrees>
              <LongitudeDegrees>-0.45674725435674190521240234375</LongitudeDegrees>
            </Position>
            <AltitudeMeters>59.59999847412109375</AltitudeMeters>
            <DistanceMeters>2520.1573267506</DistanceMeters>
          </Trackpoint>
          <Trackpoint>
            <Time>2021-10-09T06:52:45.000Z</Time>
            <Position>
              <LatitudeDegrees>39.46916724555194377899169921875</LatitudeDegrees>
              <LongitudeDegrees>-0.45681699179112911224365234375</LongitudeDegrees>
            </Position>
            <AltitudeMeters>59.59999847412109375</AltitudeMeters>
            <DistanceMeters>2527.4904096783</DistanceMeters>
          </Trackpoint>
          <Trackpoint>
            <Time>2021-10-09T06:52:46.000Z</Time>
            <Position>
              <LatitudeDegrees>39.46920462884008884429931640625</LatitudeDegrees>
              <LongitudeDegrees>-0.45688957907259464263916015625</LongitudeDegrees>
            </Position>
            <AltitudeMeters>59.200000762939453125</AltitudeMeters>
            <DistanceMeters>2534.9878909796</DistanceMeters>
          </Trackpoint>
          <Trackpoint>
            <Time>2021-10-09T06:52:47.000Z</Time>
            <Position>
              <LatitudeDegrees>39.46923899464309215545654296875</LatitudeDegrees>
              <LongitudeDegrees>-0.4569612443447113037109375</LongitudeDegrees>
            </Position>
            <AltitudeMeters>59.40000152587890625</AltitudeMeters>
            <DistanceMeters>2542.236753982</DistanceMeters>
          </Trackpoint>
          <Trackpoint>
            <Time>2021-10-09T06:52:48.000Z</Time>
            <Position>
              <LatitudeDegrees>39.469270594418048858642578125</LatitudeDegrees>
              <LongitudeDegrees>-0.45703542418777942657470703125</LongitudeDegrees>
            </Position>
            <AltitudeMeters>59.59999847412109375</AltitudeMeters>
            <DistanceMeters>2549.5166934494</DistanceMeters>
          </Trackpoint>
          <Trackpoint>
            <Time>2021-10-09T06:52:49.000Z</Time>
            <Position>
              <LatitudeDegrees>39.46929984726011753082275390625</LatitudeDegrees>
              <LongitudeDegrees>-0.4571096040308475494384765625</LongitudeDegrees>
            </Position>
            <AltitudeMeters>59.799999237060546875</AltitudeMeters>
            <DistanceMeters>2556.6746717773</DistanceMeters>
          </Trackpoint>
          <Trackpoint>
            <Time>2021-10-09T06:52:50.000Z</Time>
            <Position>
              <LatitudeDegrees>39.46932851336896419525146484375</LatitudeDegrees>
              <LongitudeDegrees>-0.457184202969074249267578125</LongitudeDegrees>
            </Position>
            <AltitudeMeters>59.799999237060546875</AltitudeMeters>
            <DistanceMeters>2563.8339115342</DistanceMeters>
          </Trackpoint>
          <Trackpoint>
            <Time>2021-10-09T06:52:51.000Z</Time>
            <Position>
              <LatitudeDegrees>39.46935500018298625946044921875</LatitudeDegrees>
              <LongitudeDegrees>-0.45725754462182521820068359375</LongitudeDegrees>
            </Position>
            <AltitudeMeters>60</AltitudeMeters>
            <DistanceMeters>2570.7903603167</DistanceMeters>
          </Trackpoint>
          <Trackpoint>
            <Time>2021-10-09T06:52:52.000Z</Time>
            <Position>
              <LatitudeDegrees>39.46937947534024715423583984375</LatitudeDegrees>
              <LongitudeDegrees>-0.45733398757874965667724609375</LongitudeDegrees>
            </Position>
            <AltitudeMeters>60</AltitudeMeters>
            <DistanceMeters>2577.9015084719</DistanceMeters>
          </Trackpoint>
          <Trackpoint>
            <Time>2021-10-09T06:52:53.000Z</Time>
            <Position>
              <LatitudeDegrees>39.46940378285944461822509765625</LatitudeDegrees>
              <LongitudeDegrees>-0.45740841887891292572021484375</LongitudeDegrees>
            </Position>
            <AltitudeMeters>60</AltitudeMeters>
            <DistanceMeters>2584.8456144771</DistanceMeters>
          </Trackpoint>
          <Trackpoint>
            <Time>2021-10-09T06:52:54.000Z</Time>
            <Position>
              <LatitudeDegrees>39.46942373178899288177490234375</LatitudeDegrees>
              <LongitudeDegrees>-0.4574815928936004638671875</LongitudeDegrees>
            </Position>
            <AltitudeMeters>60</AltitudeMeters>
            <DistanceMeters>2591.5137548783</DistanceMeters>
          </Trackpoint>
          <Trackpoint>
            <Time>2021-10-09T06:52:55.000Z</Time>
            <Position>
              <LatitudeDegrees>39.469438903033733367919921875</LatitudeDegrees>
              <LongitudeDegrees>-0.45754722319543361663818359375</LongitudeDegrees>
            </Position>
            <AltitudeMeters>60</AltitudeMeters>
            <DistanceMeters>2597.3992772203</DistanceMeters>
          </Trackpoint>
          <Trackpoint>
            <Time>2021-10-09T06:52:56.000Z</Time>
            <Position>
              <LatitudeDegrees>39.46945876814424991607666015625</LatitudeDegrees>
              <LongitudeDegrees>-0.45760388486087322235107421875</LongitudeDegrees>
            </Position>
            <AltitudeMeters>60</AltitudeMeters>
            <DistanceMeters>2602.7453217343</DistanceMeters>
          </Trackpoint>
          <Trackpoint>
            <Time>2021-10-09T06:52:57.000Z</Time>
            <Position>
              <LatitudeDegrees>39.469491206109523773193359375</LatitudeDegrees>
              <LongitudeDegrees>-0.4576527513563632965087890625</LongitudeDegrees>
            </Position>
            <AltitudeMeters>60</AltitudeMeters>
            <DistanceMeters>2608.2830233878</DistanceMeters>
          </Trackpoint>
          <Trackpoint>
            <Time>2021-10-09T06:52:58.000Z</Time>
            <Position>
              <LatitudeDegrees>39.4695312716066837310791015625</LatitudeDegrees>
              <LongitudeDegrees>-0.4576949961483478546142578125</LongitudeDegrees>
            </Position>
            <AltitudeMeters>60.200000762939453125</AltitudeMeters>
            <DistanceMeters>2614.0327285856</DistanceMeters>
          </Trackpoint>
          <Trackpoint>
            <Time>2021-10-09T06:52:59.000Z</Time>
            <Position>
              <LatitudeDegrees>39.469573684036731719970703125</LatitudeDegrees>
              <LongitudeDegrees>-0.45773749239742755889892578125</LongitudeDegrees>
            </Position>
            <AltitudeMeters>60.200000762939453125</AltitudeMeters>
            <DistanceMeters>2620.0005272999</DistanceMeters>
          </Trackpoint>
          <Trackpoint>
            <Time>2021-10-09T06:53:00.000Z</Time>
            <Position>
              <LatitudeDegrees>39.46961265988647937774658203125</LatitudeDegrees>
              <LongitudeDegrees>-0.4577831737697124481201171875</LongitudeDegrees>
            </Position>
            <AltitudeMeters>60.200000762939453125</AltitudeMeters>
            <DistanceMeters>2625.8506546253</DistanceMeters>
          </Trackpoint>
          <Trackpoint>
            <Time>2021-10-09T06:53:01.000Z</Time>
            <Position>
              <LatitudeDegrees>39.469646103680133819580078125</LatitudeDegrees>
              <LongitudeDegrees>-0.45783639885485172271728515625</LongitudeDegrees>
            </Position>
            <AltitudeMeters>60.200000762939453125</AltitudeMeters>
            <DistanceMeters>2631.7469071902</DistanceMeters>
          </Trackpoint>
          <Trackpoint>
            <Time>2021-10-09T06:53:02.000Z</Time>
            <Position>
              <LatitudeDegrees>39.4696725904941558837890625</LatitudeDegrees>
              <LongitudeDegrees>-0.45789825730025768280029296875</LongitudeDegrees>
            </Position>
            <AltitudeMeters>60.200000762939453125</AltitudeMeters>
            <DistanceMeters>2637.8241609002</DistanceMeters>
          </Trackpoint>
          <Trackpoint>
            <Time>2021-10-09T06:53:03.000Z</Time>
            <Position>
              <LatitudeDegrees>39.46968859992921352386474609375</LatitudeDegrees>
              <LongitudeDegrees>-0.45796514488756656646728515625</LongitudeDegrees>
            </Position>
            <AltitudeMeters>60.200000762939453125</AltitudeMeters>
            <DistanceMeters>2643.8416858516</DistanceMeters>
          </Trackpoint>
          <Trackpoint>
            <Time>2021-10-09T06:53:04.000Z</Time>
            <Position>
              <LatitudeDegrees>39.46969329379498958587646484375</LatitudeDegrees>
              <LongitudeDegrees>-0.4580368101596832275390625</LongitudeDegrees>
            </Position>
            <AltitudeMeters>60.200000762939453125</AltitudeMeters>
            <DistanceMeters>2650.0213454928</DistanceMeters>
          </Trackpoint>
          <Trackpoint>
            <Time>2021-10-09T06:53:05.000Z</Time>
            <Position>
              <LatitudeDegrees>39.46968935430049896240234375</LatitudeDegrees>
              <LongitudeDegrees>-0.45810847543179988861083984375</LongitudeDegrees>
            </Position>
            <AltitudeMeters>60.40000152587890625</AltitudeMeters>
            <DistanceMeters>2656.1944259712</DistanceMeters>
          </Trackpoint>
          <Trackpoint>
            <Time>2021-10-09T06:53:06.000Z</Time>
            <Position>
              <LatitudeDegrees>39.4696806371212005615234375</LatitudeDegrees>
              <LongitudeDegrees>-0.458183325827121734619140625</LongitudeDegrees>
            </Position>
            <AltitudeMeters>60.59999847412109375</AltitudeMeters>
            <DistanceMeters>2662.6987251756</DistanceMeters>
          </Trackpoint>
          <Trackpoint>
            <Time>2021-10-09T06:53:07.000Z</Time>
            <Position>
              <LatitudeDegrees>39.46967267431318759918212890625</LatitudeDegrees>
              <LongitudeDegrees>-0.45826186425983905792236328125</LongitudeDegrees>
            </Position>
            <AltitudeMeters>60.59999847412109375</AltitudeMeters>
            <DistanceMeters>2669.5049203063</DistanceMeters>
          </Trackpoint>
          <Trackpoint>
            <Time>2021-10-09T06:53:08.000Z</Time>
            <Position>
              <LatitudeDegrees>39.469669573009014129638671875</LatitudeDegrees>
              <LongitudeDegrees>-0.45834199525415897369384765625</LongitudeDegrees>
            </Position>
            <AltitudeMeters>60.59999847412109375</AltitudeMeters>
            <DistanceMeters>2676.3981243689</DistanceMeters>
          </Trackpoint>
          <Trackpoint>
            <Time>2021-10-09T06:53:09.000Z</Time>
            <Position>
              <LatitudeDegrees>39.469669573009014129638671875</LatitudeDegrees>
              <LongitudeDegrees>-0.4584252275526523590087890625</LongitudeDegrees>
            </Position>
            <AltitudeMeters>60.59999847412109375</AltitudeMeters>
            <DistanceMeters>2683.5497922148</DistanceMeters>
          </Trackpoint>
          <Trackpoint>
            <Time>2021-10-09T06:53:10.000Z</Time>
            <Position>
              <LatitudeDegrees>39.46967267431318759918212890625</LatitudeDegrees>
              <LongitudeDegrees>-0.45850762166082859039306640625</LongitudeDegrees>
            </Position>
            <AltitudeMeters>60.40000152587890625</AltitudeMeters>
            <DistanceMeters>2690.6374092514</DistanceMeters>
          </Trackpoint>
          <Trackpoint>
            <Time>2021-10-09T06:53:11.000Z</Time>
            <Position>
              <LatitudeDegrees>39.4696781225502490997314453125</LatitudeDegrees>
              <LongitudeDegrees>-0.458589680492877960205078125</LongitudeDegrees>
            </Position>
            <AltitudeMeters>60.40000152587890625</AltitudeMeters>
            <DistanceMeters>2697.7141884594</DistanceMeters>
          </Trackpoint>
          <Trackpoint>
            <Time>2021-10-09T06:53:12.000Z</Time>
            <Position>
              <LatitudeDegrees>39.4696848280727863311767578125</LatitudeDegrees>
              <LongitudeDegrees>-0.45867190696299076080322265625</LongitudeDegrees>
            </Position>
            <AltitudeMeters>60.200000762939453125</AltitudeMeters>
            <DistanceMeters>2704.8189845382</DistanceMeters>
          </Trackpoint>
          <Trackpoint>
            <Time>2021-10-09T06:53:13.000Z</Time>
            <Position>
              <LatitudeDegrees>39.46969513781368732452392578125</LatitudeDegrees>
              <LongitudeDegrees>-0.4587551392614841461181640625</LongitudeDegrees>
            </Position>
            <AltitudeMeters>60.200000762939453125</AltitudeMeters>
            <DistanceMeters>2712.0622396172</DistanceMeters>
          </Trackpoint>
          <Trackpoint>
            <Time>2021-10-09T06:53:14.000Z</Time>
            <Position>
              <LatitudeDegrees>39.46971156634390354156494140625</LatitudeDegrees>
              <LongitudeDegrees>-0.4588513635098934173583984375</LongitudeDegrees>
            </Position>
            <AltitudeMeters>60.200000762939453125</AltitudeMeters>
            <DistanceMeters>2720.5297544218</DistanceMeters>
          </Trackpoint>
          <Trackpoint>
            <Time>2021-10-09T06:53:15.000Z</Time>
            <Position>
              <LatitudeDegrees>39.46972288191318511962890625</LatitudeDegrees>
              <LongitudeDegrees>-0.45891632325947284698486328125</LongitudeDegrees>
            </Position>
            <AltitudeMeters>60.200000762939453125</AltitudeMeters>
            <DistanceMeters>2726.2519093642</DistanceMeters>
          </Trackpoint>
          <Trackpoint>
            <Time>2021-10-09T06:53:16.000Z</Time>
            <Position>
              <LatitudeDegrees>39.46973637677729129791259765625</LatitudeDegrees>
              <LongitudeDegrees>-0.45899771153926849365234375</LongitudeDegrees>
            </Position>
            <AltitudeMeters>60.40000152587890625</AltitudeMeters>
            <DistanceMeters>2733.4042085089</DistanceMeters>
          </Trackpoint>
          <Trackpoint>
            <Time>2021-10-09T06:53:17.000Z</Time>
            <Position>
              <LatitudeDegrees>39.4697522185742855072021484375</LatitudeDegrees>
              <LongitudeDegrees>-0.45907775871455669403076171875</LongitudeDegrees>
            </Position>
            <AltitudeMeters>60.40000152587890625</AltitudeMeters>
            <DistanceMeters>2740.5039188347</DistanceMeters>
          </Trackpoint>
          <Trackpoint>
            <Time>2021-10-09T06:53:18.000Z</Time>
            <Position>
              <LatitudeDegrees>39.469770155847072601318359375</LatitudeDegrees>
              <LongitudeDegrees>-0.4591578058898448944091796875</LongitudeDegrees>
            </Position>
            <AltitudeMeters>60.200000762939453125</AltitudeMeters>
            <DistanceMeters>2747.6650503183</DistanceMeters>
          </Trackpoint>
          <Trackpoint>
            <Time>2021-10-09T06:53:19.000Z</Time>
            <Position>
              <LatitudeDegrees>39.4697892665863037109375</LatitudeDegrees>
              <LongitudeDegrees>-0.45923701487481594085693359375</LongitudeDegrees>
            </Position>
            <AltitudeMeters>60.200000762939453125</AltitudeMeters>
            <DistanceMeters>2754.7952207496</DistanceMeters>
          </Trackpoint>
          <Trackpoint>
            <Time>2021-10-09T06:53:20.000Z</Time>
            <Position>
              <LatitudeDegrees>39.46980695240199565887451171875</LatitudeDegrees>
              <LongitudeDegrees>-0.45931362546980381011962890625</LongitudeDegrees>
            </Position>
            <AltitudeMeters>60.200000762939453125</AltitudeMeters>
            <DistanceMeters>2761.6661187731</DistanceMeters>
          </Trackpoint>
          <Trackpoint>
            <Time>2021-10-09T06:53:21.000Z</Time>
            <Position>
              <LatitudeDegrees>39.469825141131877899169921875</LatitudeDegrees>
              <LongitudeDegrees>-0.4593921639025211334228515625</LongitudeDegrees>
            </Position>
            <AltitudeMeters>60.200000762939453125</AltitudeMeters>
            <DistanceMeters>2768.7109253805</DistanceMeters>
          </Trackpoint>
          <Trackpoint>
            <Time>2021-10-09T06:53:22.000Z</Time>
            <Position>
              <LatitudeDegrees>39.46984852664172649383544921875</LatitudeDegrees>
              <LongitudeDegrees>-0.45947288163006305694580078125</LongitudeDegrees>
            </Position>
            <AltitudeMeters>60.200000762939453125</AltitudeMeters>
            <DistanceMeters>2776.1181343335</DistanceMeters>
          </Trackpoint>
          <Trackpoint>
            <Time>2021-10-09T06:53:23.000Z</Time>
            <Position>
              <LatitudeDegrees>39.469868727028369903564453125</LatitudeDegrees>
              <LongitudeDegrees>-0.45955452136695384979248046875</LongitudeDegrees>
            </Position>
            <AltitudeMeters>60.200000762939453125</AltitudeMeters>
            <DistanceMeters>2783.4850033719</DistanceMeters>
          </Trackpoint>
          <Trackpoint>
            <Time>2021-10-09T06:53:24.000Z</Time>
            <Position>
              <LatitudeDegrees>39.4698873348534107208251953125</LatitudeDegrees>
              <LongitudeDegrees>-0.4596322216093540191650390625</LongitudeDegrees>
            </Position>
            <AltitudeMeters>60.200000762939453125</AltitudeMeters>
            <DistanceMeters>2790.4744749944</DistanceMeters>
          </Trackpoint>
          <Trackpoint>
            <Time>2021-10-09T06:53:25.000Z</Time>
            <Position>
              <LatitudeDegrees>39.469908289611339569091796875</LatitudeDegrees>
              <LongitudeDegrees>-0.45971176587045192718505859375</LongitudeDegrees>
            </Position>
            <AltitudeMeters>60.200000762939453125</AltitudeMeters>
            <DistanceMeters>2797.6965052865</DistanceMeters>
          </Trackpoint>
          <Trackpoint>
            <Time>2021-10-09T06:53:26.000Z</Time>
            <Position>
              <LatitudeDegrees>39.4699295796453952789306640625</LatitudeDegrees>
              <LongitudeDegrees>-0.4597924835979938507080078125</LongitudeDegrees>
            </Position>
            <AltitudeMeters>60.40000152587890625</AltitudeMeters>
            <DistanceMeters>2805.0252769904</DistanceMeters>
          </Trackpoint>
          <Trackpoint>
            <Time>2021-10-09T06:53:27.000Z</Time>
            <Position>
              <LatitudeDegrees>39.469949863851070404052734375</LatitudeDegrees>
              <LongitudeDegrees>-0.45987253077328205108642578125</LongitudeDegrees>
            </Position>
            <AltitudeMeters>60.40000152587890625</AltitudeMeters>
            <DistanceMeters>2812.2635436012</DistanceMeters>
          </Trackpoint>
          <Trackpoint>
            <Time>2021-10-09T06:53:28.000Z</Time>
            <Position>
              <LatitudeDegrees>39.469969980418682098388671875</LatitudeDegrees>
              <LongitudeDegrees>-0.4599534161388874053955078125</LongitudeDegrees>
            </Position>
            <AltitudeMeters>60.40000152587890625</AltitudeMeters>
            <DistanceMeters>2819.565157897</DistanceMeters>
          </Trackpoint>
          <Trackpoint>
            <Time>2021-10-09T06:53:29.000Z</Time>
            <Position>
              <LatitudeDegrees>39.4699890911579132080078125</LatitudeDegrees>
              <LongitudeDegrees>-0.46003296039998531341552734375</LongitudeDegrees>
            </Position>
            <AltitudeMeters>60.40000152587890625</AltitudeMeters>
            <DistanceMeters>2826.7231362249</DistanceMeters>
          </Trackpoint>
          <Trackpoint>
            <Time>2021-10-09T06:53:30.000Z</Time>
            <Position>
              <LatitudeDegrees>39.47000727988779544830322265625</LatitudeDegrees>
              <LongitudeDegrees>-0.46011275611817836761474609375</LongitudeDegrees>
            </Position>
            <AltitudeMeters>60.40000152587890625</AltitudeMeters>
            <DistanceMeters>2833.8716467408</DistanceMeters>
          </Trackpoint>
          <Trackpoint>
            <Time>2021-10-09T06:53:31.000Z</Time>
            <Position>
              <LatitudeDegrees>39.47002572007477283477783203125</LatitudeDegrees>
              <LongitudeDegrees>-0.4601934738457202911376953125</LongitudeDegrees>
            </Position>
            <AltitudeMeters>60.40000152587890625</AltitudeMeters>
            <DistanceMeters>2841.1036729274</DistanceMeters>
          </Trackpoint>
          <Trackpoint>
            <Time>2021-10-09T06:53:32.000Z</Time>
            <Position>
              <LatitudeDegrees>39.47004483081400394439697265625</LatitudeDegrees>
              <LongitudeDegrees>-0.46027352102100849151611328125</LongitudeDegrees>
            </Position>
            <AltitudeMeters>60.40000152587890625</AltitudeMeters>
            <DistanceMeters>2848.3019073384</DistanceMeters>
          </Trackpoint>
          <Trackpoint>
            <Time>2021-10-09T06:53:33.000Z</Time>
            <Position>
              <LatitudeDegrees>39.4700650312006473541259765625</LatitudeDegrees>
              <LongitudeDegrees>-0.46035365201532840728759765625</LongitudeDegrees>
            </Position>
            <AltitudeMeters>60.40000152587890625</AltitudeMeters>
            <DistanceMeters>2855.5439156225</DistanceMeters>
          </Trackpoint>
          <Trackpoint>
            <Time>2021-10-09T06:53:34.000Z</Time>
            <Position>
              <LatitudeDegrees>39.47008556686341762542724609375</LatitudeDegrees>
              <LongitudeDegrees>-0.460433699190616607666015625</LongitudeDegrees>
            </Position>
            <AltitudeMeters>60.40000152587890625</AltitudeMeters>
            <DistanceMeters>2862.7915327946</DistanceMeters>
          </Trackpoint>
          <Trackpoint>
            <Time>2021-10-09T06:53:35.000Z</Time>
            <Position>
              <LatitudeDegrees>39.47010635398328304290771484375</LatitudeDegrees>
              <LongitudeDegrees>-0.46051374636590480804443359375</LongitudeDegrees>
            </Position>
            <AltitudeMeters>60.40000152587890625</AltitudeMeters>
            <DistanceMeters>2870.0478662865</DistanceMeters>
          </Trackpoint>
          <Trackpoint>
            <Time>2021-10-09T06:53:36.000Z</Time>
            <Position>
              <LatitudeDegrees>39.470126219093799591064453125</LatitudeDegrees>
              <LongitudeDegrees>-0.46059370972216129302978515625</LongitudeDegrees>
            </Position>
            <AltitudeMeters>60.40000152587890625</AltitudeMeters>
            <DistanceMeters>2877.2655190216</DistanceMeters>
          </Trackpoint>
          <Trackpoint>
            <Time>2021-10-09T06:53:37.000Z</Time>
            <Position>
              <LatitudeDegrees>39.4701434858143329620361328125</LatitudeDegrees>
              <LongitudeDegrees>-0.46067199669778347015380859375</LongitudeDegrees>
            </Position>
            <AltitudeMeters>60.40000152587890625</AltitudeMeters>
            <DistanceMeters>2884.2608020216</DistanceMeters>
          </Trackpoint>
          <Trackpoint>
            <Time>2021-10-09T06:53:38.000Z</Time>
            <Position>
              <LatitudeDegrees>39.47016351856291294097900390625</LatitudeDegrees>
              <LongitudeDegrees>-0.460753552615642547607421875</LongitudeDegrees>
            </Position>
            <AltitudeMeters>60.40000152587890625</AltitudeMeters>
            <DistanceMeters>2891.6147892274</DistanceMeters>
          </Trackpoint>
          <Trackpoint>
            <Time>2021-10-09T06:53:39.000Z</Time>
            <Position>
              <LatitudeDegrees>39.47018497623503208160400390625</LatitudeDegrees>
              <LongitudeDegrees>-0.4608385451138019561767578125</LongitudeDegrees>
            </Position>
            <AltitudeMeters>60.59999847412109375</AltitudeMeters>
            <DistanceMeters>2899.2984497997</DistanceMeters>
          </Trackpoint>
          <Trackpoint>
            <Time>2021-10-09T06:53:40.000Z</Time>
            <Position>
              <LatitudeDegrees>39.47020542807877063751220703125</LatitudeDegrees>
              <LongitudeDegrees>-0.46092026866972446441650390625</LongitudeDegrees>
            </Position>
            <AltitudeMeters>60.59999847412109375</AltitudeMeters>
            <DistanceMeters>2906.6800134053</DistanceMeters>
          </Trackpoint>
          <Trackpoint>
            <Time>2021-10-09T06:53:41.000Z</Time>
            <Position>
              <LatitudeDegrees>39.47022554464638233184814453125</LatitudeDegrees>
              <LongitudeDegrees>-0.46099956147372722625732421875</LongitudeDegrees>
            </Position>
            <AltitudeMeters>60.59999847412109375</AltitudeMeters>
            <DistanceMeters>2913.8518552485</DistanceMeters>
          </Trackpoint>
          <Trackpoint>
            <Time>2021-10-09T06:53:42.000Z</Time>
            <Position>
              <LatitudeDegrees>39.47024323046207427978515625</LatitudeDegrees>
              <LongitudeDegrees>-0.46107600443065166473388671875</LongitudeDegrees>
            </Position>
            <AltitudeMeters>60.59999847412109375</AltitudeMeters>
            <DistanceMeters>2920.7082812831</DistanceMeters>
          </Trackpoint>
          <Trackpoint>
            <Time>2021-10-09T06:53:43.000Z</Time>
            <Position>
              <LatitudeDegrees>39.4702611677348613739013671875</LatitudeDegrees>
              <LongitudeDegrees>-0.4611543752253055572509765625</LongitudeDegrees>
            </Position>
            <AltitudeMeters>61</AltitudeMeters>
            <DistanceMeters>2927.7312633802</DistanceMeters>
          </Trackpoint>
          <Trackpoint>
            <Time>2021-10-09T06:53:44.000Z</Time>
            <Position>
              <LatitudeDegrees>39.47028002701699733734130859375</LatitudeDegrees>
              <LongitudeDegrees>-0.4612361826002597808837890625</LongitudeDegrees>
            </Position>
            <AltitudeMeters>61</AltitudeMeters>
            <DistanceMeters>2935.0668087266</DistanceMeters>
          </Trackpoint>
          <Trackpoint>
            <Time>2021-10-09T06:53:45.000Z</Time>
            <Position>
              <LatitudeDegrees>39.4703003950417041778564453125</LatitudeDegrees>
              <LongitudeDegrees>-0.4613186605274677276611328125</LongitudeDegrees>
            </Position>
            <AltitudeMeters>61.40000152587890625</AltitudeMeters>
            <DistanceMeters>2942.5068603798</DistanceMeters>
          </Trackpoint>
          <Trackpoint>
            <Time>2021-10-09T06:53:46.000Z</Time>
            <Position>
              <LatitudeDegrees>39.47032009251415729522705078125</LatitudeDegrees>
              <LongitudeDegrees>-0.4614001326262950897216796875</LongitudeDegrees>
            </Position>
            <AltitudeMeters>61.59999847412109375</AltitudeMeters>
            <DistanceMeters>2949.841790199</DistanceMeters>
          </Trackpoint>
          <Trackpoint>
            <Time>2021-10-09T06:53:47.000Z</Time>
            <Position>
              <LatitudeDegrees>39.4703386165201663970947265625</LatitudeDegrees>
              <LongitudeDegrees>-0.46148168854415416717529296875</LongitudeDegrees>
            </Position>
            <AltitudeMeters>61.799999237060546875</AltitudeMeters>
            <DistanceMeters>2957.1464956488</DistanceMeters>
          </Trackpoint>
          <Trackpoint>
            <Time>2021-10-09T06:53:48.000Z</Time>
            <Position>
              <LatitudeDegrees>39.47035848163068294525146484375</LatitudeDegrees>
              <LongitudeDegrees>-0.46156466938555240631103515625</LongitudeDegrees>
            </Position>
            <AltitudeMeters>61.799999237060546875</AltitudeMeters>
            <DistanceMeters>2964.610782062</DistanceMeters>
          </Trackpoint>
          <Trackpoint>
            <Time>2021-10-09T06:53:49.000Z</Time>
            <Position>
              <LatitudeDegrees>39.47037868201732635498046875</LatitudeDegrees>
              <LongitudeDegrees>-0.46164496801793575286865234375</LongitudeDegrees>
            </Position>
            <AltitudeMeters>62</AltitudeMeters>
            <DistanceMeters>2971.8664933068</DistanceMeters>
          </Trackpoint>
          <Trackpoint>
            <Time>2021-10-09T06:53:50.000Z</Time>
            <Position>
              <LatitudeDegrees>39.4703972898423671722412109375</LatitudeDegrees>
              <LongitudeDegrees>-0.46172576956450939178466796875</LongitudeDegrees>
            </Position>
            <AltitudeMeters>62</AltitudeMeters>
            <DistanceMeters>2979.1109949662</DistanceMeters>
          </Trackpoint>
          <Trackpoint>
            <Time>2021-10-09T06:53:51.000Z</Time>
            <Position>
              <LatitudeDegrees>39.47041715495288372039794921875</LatitudeDegrees>
              <LongitudeDegrees>-0.46180724166333675384521484375</LongitudeDegrees>
            </Position>
            <AltitudeMeters>62</AltitudeMeters>
            <DistanceMeters>2986.4520777349</DistanceMeters>
          </Trackpoint>
          <Trackpoint>
            <Time>2021-10-09T06:53:52.000Z</Time>
            <Position>
              <LatitudeDegrees>39.4704361818730831146240234375</LatitudeDegrees>
              <LongitudeDegrees>-0.46188779175281524658203125</LongitudeDegrees>
            </Position>
            <AltitudeMeters>62</AltitudeMeters>
            <DistanceMeters>2993.6890966913</DistanceMeters>
          </Trackpoint>
          <Trackpoint>
            <Time>2021-10-09T06:53:53.000Z</Time>
            <Position>
              <LatitudeDegrees>39.4704556278884410858154296875</LatitudeDegrees>
              <LongitudeDegrees>-0.46197068877518177032470703125</LongitudeDegrees>
            </Position>
            <AltitudeMeters>61.799999237060546875</AltitudeMeters>
            <DistanceMeters>3001.1327885885</DistanceMeters>
          </Trackpoint>
          <Trackpoint>
            <Time>2021-10-09T06:53:54.000Z</Time>
            <Position>
              <LatitudeDegrees>39.47047599591314792633056640625</LatitudeDegrees>
              <LongitudeDegrees>-0.46205299906432628631591796875</LongitudeDegrees>
            </Position>
            <AltitudeMeters>61.799999237060546875</AltitudeMeters>
            <DistanceMeters>3008.558869442</DistanceMeters>
          </Trackpoint>
          <Trackpoint>
            <Time>2021-10-09T06:53:55.000Z</Time>
            <Position>
              <LatitudeDegrees>39.47049661539494991302490234375</LatitudeDegrees>
              <LongitudeDegrees>-0.4621350578963756561279296875</LongitudeDegrees>
            </Position>
            <AltitudeMeters>61.799999237060546875</AltitudeMeters>
            <DistanceMeters>3015.9733893449</DistanceMeters>
          </Trackpoint>
          <Trackpoint>
            <Time>2021-10-09T06:53:56.000Z</Time>
            <Position>
              <LatitudeDegrees>39.47051656432449817657470703125</LatitudeDegrees>
              <LongitudeDegrees>-0.462217368185520172119140625</LongitudeDegrees>
            </Position>
            <AltitudeMeters>61.799999237060546875</AltitudeMeters>
            <DistanceMeters>3023.3860821864</DistanceMeters>
          </Trackpoint>
          <Trackpoint>
            <Time>2021-10-09T06:53:57.000Z</Time>
            <Position>
              <LatitudeDegrees>39.47053668089210987091064453125</LatitudeDegrees>
              <LongitudeDegrees>-0.4622990079224109649658203125</LongitudeDegrees>
            </Position>
            <AltitudeMeters>61.799999237060546875</AltitudeMeters>
            <DistanceMeters>3030.7504992796</DistanceMeters>
          </Trackpoint>
          <Trackpoint>
            <Time>2021-10-09T06:53:58.000Z</Time>
            <Position>
              <LatitudeDegrees>39.470556713640689849853515625</LatitudeDegrees>
              <LongitudeDegrees>-0.46237955801188945770263671875</LongitudeDegrees>
            </Position>
            <AltitudeMeters>61.799999237060546875</AltitudeMeters>
            <DistanceMeters>3038.022371642</DistanceMeters>
          </Trackpoint>
          <Trackpoint>
            <Time>2021-10-09T06:53:59.000Z</Time>
            <Position>
              <LatitudeDegrees>39.47057926096022129058837890625</LatitudeDegrees>
              <LongitudeDegrees>-0.46245700679719448089599609375</LongitudeDegrees>
            </Position>
            <AltitudeMeters>61.799999237060546875</AltitudeMeters>
            <DistanceMeters>3045.1347895318</DistanceMeters>
          </Trackpoint>
          <Trackpoint>
            <Time>2021-10-09T06:54:00.000Z</Time>
            <Position>
              <LatitudeDegrees>39.47060675360262393951416015625</LatitudeDegrees>
              <LongitudeDegrees>-0.46252590604126453399658203125</LongitudeDegrees>
            </Position>
            <AltitudeMeters>61.799999237060546875</AltitudeMeters>
            <DistanceMeters>3051.7988660583</DistanceMeters>
          </Trackpoint>
          <Trackpoint>
            <Time>2021-10-09T06:54:01.000Z</Time>
            <Position>
              <LatitudeDegrees>39.47063961066305637359619140625</LatitudeDegrees>
              <LongitudeDegrees>-0.46258843503892421722412109375</LongitudeDegrees>
            </Position>
            <AltitudeMeters>61.799999237060546875</AltitudeMeters>
            <DistanceMeters>3058.2969148002</DistanceMeters>
          </Trackpoint>
          <Trackpoint>
            <Time>2021-10-09T06:54:02.000Z</Time>
            <Position>
              <LatitudeDegrees>39.470680765807628631591796875</LatitudeDegrees>
              <LongitudeDegrees>-0.4626473598182201385498046875</LongitudeDegrees>
            </Position>
            <AltitudeMeters>61.799999237060546875</AltitudeMeters>
            <DistanceMeters>3065.1236434844</DistanceMeters>
          </Trackpoint>
          <Trackpoint>
            <Time>2021-10-09T06:54:03.000Z</Time>
            <Position>
              <LatitudeDegrees>39.4707315601408481597900390625</LatitudeDegrees>
              <LongitudeDegrees>-0.46269790269434452056884765625</LongitudeDegrees>
            </Position>
            <AltitudeMeters>61.799999237060546875</AltitudeMeters>
            <DistanceMeters>3072.2525473431</DistanceMeters>
          </Trackpoint>
          <Trackpoint>
            <Time>2021-10-09T06:54:04.000Z</Time>
            <Position>
              <LatitudeDegrees>39.47078830562531948089599609375</LatitudeDegrees>
              <LongitudeDegrees>-0.46273863874375820159912109375</LongitudeDegrees>
            </Position>
            <AltitudeMeters>62</AltitudeMeters>
            <DistanceMeters>3079.4733271754</DistanceMeters>
          </Trackpoint>
          <Trackpoint>
            <Time>2021-10-09T06:54:05.000Z</Time>
            <Position>
              <LatitudeDegrees>39.470844380557537078857421875</LatitudeDegrees>
              <LongitudeDegrees>-0.46277828514575958251953125</LongitudeDegrees>
            </Position>
            <AltitudeMeters>62</AltitudeMeters>
            <DistanceMeters>3086.5832053694</DistanceMeters>
          </Trackpoint>
          <Trackpoint>
            <Time>2021-10-09T06:54:06.000Z</Time>
            <Position>
              <LatitudeDegrees>39.47089609690010547637939453125</LatitudeDegrees>
              <LongitudeDegrees>-0.46282765455543994903564453125</LongitudeDegrees>
            </Position>
            <AltitudeMeters>62</AltitudeMeters>
            <DistanceMeters>3093.7336104507</DistanceMeters>
          </Trackpoint>
          <Trackpoint>
            <Time>2021-10-09T06:54:07.000Z</Time>
            <Position>
              <LatitudeDegrees>39.47093792259693145751953125</LatitudeDegrees>
              <LongitudeDegrees>-0.46288934536278247833251953125</LongitudeDegrees>
            </Position>
            <AltitudeMeters>62</AltitudeMeters>
            <DistanceMeters>3100.7886640549</DistanceMeters>
          </Trackpoint>
          <Trackpoint>
            <Time>2021-10-09T06:54:08.000Z</Time>
            <Position>
              <LatitudeDegrees>39.47096600197255611419677734375</LatitudeDegrees>
              <LongitudeDegrees>-0.46296210028231143951416015625</LongitudeDegrees>
            </Position>
            <AltitudeMeters>62</AltitudeMeters>
            <DistanceMeters>3107.7768436039</DistanceMeters>
          </Trackpoint>
          <Trackpoint>
            <Time>2021-10-09T06:54:09.000Z</Time>
            <Position>
              <LatitudeDegrees>39.4709789939224720001220703125</LatitudeDegrees>
              <LongitudeDegrees>-0.46304290182888507843017578125</LongitudeDegrees>
            </Position>
            <AltitudeMeters>62.200000762939453125</AltitudeMeters>
            <DistanceMeters>3114.8676450847</DistanceMeters>
          </Trackpoint>
          <Trackpoint>
            <Time>2021-10-09T06:54:10.000Z</Time>
            <Position>
              <LatitudeDegrees>39.47097438387572765350341796875</LatitudeDegrees>
              <LongitudeDegrees>-0.46312697231769561767578125</LongitudeDegrees>
            </Position>
            <AltitudeMeters>62.200000762939453125</AltitudeMeters>
            <DistanceMeters>3122.1096533688</DistanceMeters>
          </Trackpoint>
          <Trackpoint>
            <Time>2021-10-09T06:54:11.000Z</Time>
            <Position>
              <LatitudeDegrees>39.470957703888416290283203125</LatitudeDegrees>
              <LongitudeDegrees>-0.46320785768330097198486328125</LongitudeDegrees>
            </Position>
            <AltitudeMeters>62.200000762939453125</AltitudeMeters>
            <DistanceMeters>3129.3028680899</DistanceMeters>
          </Trackpoint>
          <Trackpoint>
            <Time>2021-10-09T06:54:12.000Z</Time>
            <Position>
              <LatitudeDegrees>39.47093381546437740325927734375</LatitudeDegrees>
              <LongitudeDegrees>-0.463290251791477203369140625</LongitudeDegrees>
            </Position>
            <AltitudeMeters>62.200000762939453125</AltitudeMeters>
            <DistanceMeters>3136.8657051366</DistanceMeters>
          </Trackpoint>
          <Trackpoint>
            <Time>2021-10-09T06:54:13.000Z</Time>
            <Position>
              <LatitudeDegrees>39.4709109328687191009521484375</LatitudeDegrees>
              <LongitudeDegrees>-0.4633715562522411346435546875</LongitudeDegrees>
            </Position>
            <AltitudeMeters>62.200000762939453125</AltitudeMeters>
            <DistanceMeters>3144.3009003587</DistanceMeters>
          </Trackpoint>
          <Trackpoint>
            <Time>2021-10-09T06:54:14.000Z</Time>
            <Position>
              <LatitudeDegrees>39.47088972665369510650634765625</LatitudeDegrees>
              <LongitudeDegrees>-0.4634521901607513427734375</LongitudeDegrees>
            </Position>
            <AltitudeMeters>62.200000762939453125</AltitudeMeters>
            <DistanceMeters>3151.6198083008</DistanceMeters>
          </Trackpoint>
          <Trackpoint>
            <Time>2021-10-09T06:54:15.000Z</Time>
            <Position>
              <LatitudeDegrees>39.470874555408954620361328125</LatitudeDegrees>
              <LongitudeDegrees>-0.4635345004498958587646484375</LongitudeDegrees>
            </Position>
            <AltitudeMeters>62</AltitudeMeters>
            <DistanceMeters>3158.8904387757</DistanceMeters>
          </Trackpoint>
          <Trackpoint>
            <Time>2021-10-09T06:54:16.000Z</Time>
            <Position>
              <LatitudeDegrees>39.47086357511579990386962890625</LatitudeDegrees>
              <LongitudeDegrees>-0.46362158842384815216064453125</LongitudeDegrees>
            </Position>
            <AltitudeMeters>62</AltitudeMeters>
            <DistanceMeters>3166.4717603337</DistanceMeters>
          </Trackpoint>
          <Trackpoint>
            <Time>2021-10-09T06:54:17.000Z</Time>
            <Position>
              <LatitudeDegrees>39.470858462154865264892578125</LatitudeDegrees>
              <LongitudeDegrees>-0.463710688054561614990234375</LongitudeDegrees>
            </Position>
            <AltitudeMeters>62</AltitudeMeters>
            <DistanceMeters>3174.1483662812</DistanceMeters>
          </Trackpoint>
          <Trackpoint>
            <Time>2021-10-09T06:54:18.000Z</Time>
            <Position>
              <LatitudeDegrees>39.4708579592406749725341796875</LatitudeDegrees>
              <LongitudeDegrees>-0.463800542056560516357421875</LongitudeDegrees>
            </Position>
            <AltitudeMeters>62</AltitudeMeters>
            <DistanceMeters>3181.8683730513</DistanceMeters>
          </Trackpoint>
          <Trackpoint>
            <Time>2021-10-09T06:54:19.000Z</Time>
            <Position>
              <LatitudeDegrees>39.4708552770316600799560546875</LatitudeDegrees>
              <LongitudeDegrees>-0.46388863585889339447021484375</LongitudeDegrees>
            </Position>
            <AltitudeMeters>62</AltitudeMeters>
            <DistanceMeters>3189.4431407524</DistanceMeters>
          </Trackpoint>
          <Trackpoint>
            <Time>2021-10-09T06:54:20.000Z</Time>
            <Position>
              <LatitudeDegrees>39.47085368447005748748779296875</LatitudeDegrees>
              <LongitudeDegrees>-0.46397723257541656494140625</LongitudeDegrees>
            </Position>
            <AltitudeMeters>62</AltitudeMeters>
            <DistanceMeters>3197.0571469758</DistanceMeters>
          </Trackpoint>
          <Trackpoint>
            <Time>2021-10-09T06:54:21.000Z</Time>
            <Position>
              <LatitudeDegrees>39.4708532653748989105224609375</LatitudeDegrees>
              <LongitudeDegrees>-0.4640645720064640045166015625</LongitudeDegrees>
            </Position>
            <AltitudeMeters>62</AltitudeMeters>
            <DistanceMeters>3204.561249634</DistanceMeters>
          </Trackpoint>
          <Trackpoint>
            <Time>2021-10-09T06:54:22.000Z</Time>
            <Position>
              <LatitudeDegrees>39.47085033170878887176513671875</LatitudeDegrees>
              <LongitudeDegrees>-0.464151240885257720947265625</LongitudeDegrees>
            </Position>
            <AltitudeMeters>62</AltitudeMeters>
            <DistanceMeters>3212.0152459017</DistanceMeters>
          </Trackpoint>
          <Trackpoint>
            <Time>2021-10-09T06:54:23.000Z</Time>
            <Position>
              <LatitudeDegrees>39.470849074423313140869140625</LatitudeDegrees>
              <LongitudeDegrees>-0.46423598192632198333740234375</LongitudeDegrees>
            </Position>
            <AltitudeMeters>62</AltitudeMeters>
            <DistanceMeters>3219.2970457396</DistanceMeters>
          </Trackpoint>
          <Trackpoint>
            <Time>2021-10-09T06:54:24.000Z</Time>
            <Position>
              <LatitudeDegrees>39.4708479009568691253662109375</LatitudeDegrees>
              <LongitudeDegrees>-0.46432214789092540740966796875</LongitudeDegrees>
            </Position>
            <AltitudeMeters>62</AltitudeMeters>
            <DistanceMeters>3226.7018161052</DistanceMeters>
          </Trackpoint>
          <Trackpoint>
            <Time>2021-10-09T06:54:25.000Z</Time>
            <Position>
              <LatitudeDegrees>39.470846392214298248291015625</LatitudeDegrees>
              <LongitudeDegrees>-0.464408397674560546875</LongitudeDegrees>
            </Position>
            <AltitudeMeters>62</AltitudeMeters>
            <DistanceMeters>3234.1138998261</DistanceMeters>
          </Trackpoint>
          <Trackpoint>
            <Time>2021-10-09T06:54:26.000Z</Time>
            <Position>
              <LatitudeDegrees>39.47084463201463222503662109375</LatitudeDegrees>
              <LongitudeDegrees>-0.4644927196204662322998046875</LongitudeDegrees>
            </Position>
            <AltitudeMeters>62.200000762939453125</AltitudeMeters>
            <DistanceMeters>3241.3608940029</DistanceMeters>
          </Trackpoint>
          <Trackpoint>
            <Time>2021-10-09T06:54:27.000Z</Time>
            <Position>
              <LatitudeDegrees>39.47084404528141021728515625</LatitudeDegrees>
              <LongitudeDegrees>-0.46457662247121334075927734375</LongitudeDegrees>
            </Position>
            <AltitudeMeters>62.200000762939453125</AltitudeMeters>
            <DistanceMeters>3248.5697836493</DistanceMeters>
          </Trackpoint>
          <Trackpoint>
            <Time>2021-10-09T06:54:28.000Z</Time>
            <Position>
              <LatitudeDegrees>39.47084312327206134796142578125</LatitudeDegrees>
              <LongitudeDegrees>-0.46465960331261157989501953125</LongitudeDegrees>
            </Position>
            <AltitudeMeters>62.40000152587890625</AltitudeMeters>
            <DistanceMeters>3255.6999540806</DistanceMeters>
          </Trackpoint>
          <Trackpoint>
            <Time>2021-10-09T06:54:29.000Z</Time>
            <Position>
              <LatitudeDegrees>39.4708422012627124786376953125</LatitudeDegrees>
              <LongitudeDegrees>-0.4647438414394855499267578125</LongitudeDegrees>
            </Position>
            <AltitudeMeters>62.40000152587890625</AltitudeMeters>
            <DistanceMeters>3262.9382206913</DistanceMeters>
          </Trackpoint>
          <Trackpoint>
            <Time>2021-10-09T06:54:30.000Z</Time>
            <Position>
              <LatitudeDegrees>39.4708388485014438629150390625</LatitudeDegrees>
              <LongitudeDegrees>-0.46482824720442295074462890625</LongitudeDegrees>
            </Position>
            <AltitudeMeters>62.40000152587890625</AltitudeMeters>
            <DistanceMeters>3270.1995302396</DistanceMeters>
          </Trackpoint>
          <Trackpoint>
            <Time>2021-10-09T06:54:31.000Z</Time>
            <Position>
              <LatitudeDegrees>39.470837675034999847412109375</LatitudeDegrees>
              <LongitudeDegrees>-0.46491198241710662841796875</LongitudeDegrees>
            </Position>
            <AltitudeMeters>62.59999847412109375</AltitudeMeters>
            <DistanceMeters>3277.3946277548</DistanceMeters>
          </Trackpoint>
          <Trackpoint>
            <Time>2021-10-09T06:54:32.000Z</Time>
            <Position>
              <LatitudeDegrees>39.47083465754985809326171875</LatitudeDegrees>
              <LongitudeDegrees>-0.4649963043630123138427734375</LongitudeDegrees>
            </Position>
            <AltitudeMeters>62.40000152587890625</AltitudeMeters>
            <DistanceMeters>3284.6472269638</DistanceMeters>
          </Trackpoint>
          <Trackpoint>
            <Time>2021-10-09T06:54:33.000Z</Time>
            <Position>
              <LatitudeDegrees>39.47083205915987491607666015625</LatitudeDegrees>
              <LongitudeDegrees>-0.46508096158504486083984375</LongitudeDegrees>
            </Position>
            <AltitudeMeters>62.40000152587890625</AltitudeMeters>
            <DistanceMeters>3291.9265462021</DistanceMeters>
          </Trackpoint>
          <Trackpoint>
            <Time>2021-10-09T06:54:34.000Z</Time>
            <Position>
              <LatitudeDegrees>39.47082887403666973114013671875</LatitudeDegrees>
              <LongitudeDegrees>-0.4651661217212677001953125</LongitudeDegrees>
            </Position>
            <AltitudeMeters>62.59999847412109375</AltitudeMeters>
            <DistanceMeters>3299.2522369072</DistanceMeters>
          </Trackpoint>
          <Trackpoint>
            <Time>2021-10-09T06:54:35.000Z</Time>
            <Position>
              <LatitudeDegrees>39.47082468308508396148681640625</LatitudeDegrees>
              <LongitudeDegrees>-0.46525086276233196258544921875</LongitudeDegrees>
            </Position>
            <AltitudeMeters>62.59999847412109375</AltitudeMeters>
            <DistanceMeters>3306.547664966</DistanceMeters>
          </Trackpoint>
          <Trackpoint>
            <Time>2021-10-09T06:54:36.000Z</Time>
            <Position>
              <LatitudeDegrees>39.47082049213349819183349609375</LatitudeDegrees>
              <LongitudeDegrees>-0.4653369449079036712646484375</LongitudeDegrees>
            </Position>
            <AltitudeMeters>62.59999847412109375</AltitudeMeters>
            <DistanceMeters>3313.9585302955</DistanceMeters>
          </Trackpoint>
          <Trackpoint>
            <Time>2021-10-09T06:54:37.000Z</Time>
            <Position>
              <LatitudeDegrees>39.47081982158124446868896484375</LatitudeDegrees>
              <LongitudeDegrees>-0.46542336232960224151611328125</LongitudeDegrees>
            </Position>
            <AltitudeMeters>62.59999847412109375</AltitudeMeters>
            <DistanceMeters>3321.3840031267</DistanceMeters>
          </Trackpoint>
          <Trackpoint>
            <Time>2021-10-09T06:54:38.000Z</Time>
            <Position>
              <LatitudeDegrees>39.4708194024860858917236328125</LatitudeDegrees>
              <LongitudeDegrees>-0.46550810337066650390625</LongitudeDegrees>
            </Position>
            <AltitudeMeters>62.40000152587890625</AltitudeMeters>
            <DistanceMeters>3328.6645627704</DistanceMeters>
          </Trackpoint>
          <Trackpoint>
            <Time>2021-10-09T06:54:39.000Z</Time>
            <Position>
              <LatitudeDegrees>39.470818229019641876220703125</LatitudeDegrees>
              <LongitudeDegrees>-0.46559284441173076629638671875</LongitudeDegrees>
            </Position>
            <AltitudeMeters>62.40000152587890625</AltitudeMeters>
            <DistanceMeters>3335.9463626083</DistanceMeters>
          </Trackpoint>
          <Trackpoint>
            <Time>2021-10-09T06:54:40.000Z</Time>
            <Position>
              <LatitudeDegrees>39.47081881575286388397216796875</LatitudeDegrees>
              <LongitudeDegrees>-0.4656772501766681671142578125</LongitudeDegrees>
            </Position>
            <AltitudeMeters>62.40000152587890625</AltitudeMeters>
            <DistanceMeters>3343.1983392498</DistanceMeters>
          </Trackpoint>
          <Trackpoint>
            <Time>2021-10-09T06:54:41.000Z</Time>
            <Position>
              <LatitudeDegrees>39.470820240676403045654296875</LatitudeDegrees>
              <LongitudeDegrees>-0.46576266176998615264892578125</LongitudeDegrees>
            </Position>
            <AltitudeMeters>62.40000152587890625</AltitudeMeters>
            <DistanceMeters>3350.5394220186</DistanceMeters>
          </Trackpoint>
          <Trackpoint>
            <Time>2021-10-09T06:54:42.000Z</Time>
            <Position>
              <LatitudeDegrees>39.470820911228656768798828125</LatitudeDegrees>
              <LongitudeDegrees>-0.46584698371589183807373046875</LongitudeDegrees>
            </Position>
            <AltitudeMeters>62.40000152587890625</AltitudeMeters>
            <DistanceMeters>3357.7839236779</DistanceMeters>
          </Trackpoint>
          <Trackpoint>
            <Time>2021-10-09T06:54:43.000Z</Time>
            <Position>
              <LatitudeDegrees>39.47081965394318103790283203125</LatitudeDegrees>
              <LongitudeDegrees>-0.46593164093792438507080078125</LongitudeDegrees>
            </Position>
            <AltitudeMeters>62.40000152587890625</AltitudeMeters>
            <DistanceMeters>3365.0582791794</DistanceMeters>
          </Trackpoint>
          <Trackpoint>
            <Time>2021-10-09T06:54:44.000Z</Time>
            <Position>
              <LatitudeDegrees>39.47081931866705417633056640625</LatitudeDegrees>
              <LongitudeDegrees>-0.4660165496170520782470703125</LongitudeDegrees>
            </Position>
            <AltitudeMeters>62.40000152587890625</AltitudeMeters>
            <DistanceMeters>3372.3537072382</DistanceMeters>
          </Trackpoint>
          <Trackpoint>
            <Time>2021-10-09T06:54:45.000Z</Time>
            <Position>
              <LatitudeDegrees>39.47081831283867359161376953125</LatitudeDegrees>
              <LongitudeDegrees>-0.4661010392010211944580078125</LongitudeDegrees>
            </Position>
            <AltitudeMeters>62.40000152587890625</AltitudeMeters>
            <DistanceMeters>3379.6143949659</DistanceMeters>
          </Trackpoint>
          <Trackpoint>
            <Time>2021-10-09T06:54:46.000Z</Time>
            <Position>
              <LatitudeDegrees>39.47081915102899074554443359375</LatitudeDegrees>
              <LongitudeDegrees>-0.4661845229566097259521484375</LongitudeDegrees>
            </Position>
            <AltitudeMeters>62.40000152587890625</AltitudeMeters>
            <DistanceMeters>3386.7874958001</DistanceMeters>
          </Trackpoint>
          <Trackpoint>
            <Time>2021-10-09T06:54:47.000Z</Time>
            <Position>
              <LatitudeDegrees>39.4708205759525299072265625</LatitudeDegrees>
              <LongitudeDegrees>-0.46626674942672252655029296875</LongitudeDegrees>
            </Position>
            <AltitudeMeters>62.59999847412109375</AltitudeMeters>
            <DistanceMeters>3393.8540595149</DistanceMeters>
          </Trackpoint>
          <Trackpoint>
            <Time>2021-10-09T06:54:48.000Z</Time>
            <Position>
              <LatitudeDegrees>39.4708205759525299072265625</LatitudeDegrees>
              <LongitudeDegrees>-0.4663501493632793426513671875</LongitudeDegrees>
            </Position>
            <AltitudeMeters>62.59999847412109375</AltitudeMeters>
            <DistanceMeters>3401.0189729536</DistanceMeters>
          </Trackpoint>
          <Trackpoint>
            <Time>2021-10-09T06:54:49.000Z</Time>
            <Position>
              <LatitudeDegrees>39.47081990540027618408203125</LatitudeDegrees>
              <LongitudeDegrees>-0.46643522568047046661376953125</LongitudeDegrees>
            </Position>
            <AltitudeMeters>62.59999847412109375</AltitudeMeters>
            <DistanceMeters>3408.3280038225</DistanceMeters>
          </Trackpoint>
          <Trackpoint>
            <Time>2021-10-09T06:54:50.000Z</Time>
            <Position>
              <LatitudeDegrees>39.4708190672099590301513671875</LatitudeDegrees>
              <LongitudeDegrees>-0.466520301997661590576171875</LongitudeDegrees>
            </Position>
            <AltitudeMeters>62.59999847412109375</AltitudeMeters>
            <DistanceMeters>3415.6382700553</DistanceMeters>
          </Trackpoint>
          <Trackpoint>
            <Time>2021-10-09T06:54:51.000Z</Time>
            <Position>
              <LatitudeDegrees>39.47081965394318103790283203125</LatitudeDegrees>
              <LongitudeDegrees>-0.46660353429615497589111328125</LongitudeDegrees>
            </Position>
            <AltitudeMeters>62.59999847412109375</AltitudeMeters>
            <DistanceMeters>3422.7899379013</DistanceMeters>
          </Trackpoint>
          <Trackpoint>
            <Time>2021-10-09T06:54:52.000Z</Time>
            <Position>
              <LatitudeDegrees>39.47082015685737133026123046875</LatitudeDegrees>
              <LongitudeDegrees>-0.46668919734656810760498046875</LongitudeDegrees>
            </Position>
            <AltitudeMeters>62.799999237060546875</AltitudeMeters>
            <DistanceMeters>3430.1506755453</DistanceMeters>
          </Trackpoint>
          <Trackpoint>
            <Time>2021-10-09T06:54:53.000Z</Time>
            <Position>
              <LatitudeDegrees>39.47082216851413249969482421875</LatitudeDegrees>
              <LongitudeDegrees>-0.46677536331117153167724609375</LongitudeDegrees>
            </Position>
            <AltitudeMeters>63</AltitudeMeters>
            <DistanceMeters>3437.5578844983</DistanceMeters>
          </Trackpoint>
          <Trackpoint>
            <Time>2021-10-09T06:54:54.000Z</Time>
            <Position>
              <LatitudeDegrees>39.4708230905234813690185546875</LatitudeDegrees>
              <LongitudeDegrees>-0.466859601438045501708984375</LongitudeDegrees>
            </Position>
            <AltitudeMeters>63</AltitudeMeters>
            <DistanceMeters>3444.796151109</DistanceMeters>
          </Trackpoint>
          <Trackpoint>
            <Time>2021-10-09T06:54:55.000Z</Time>
            <Position>
              <LatitudeDegrees>39.47082300670444965362548828125</LatitudeDegrees>
              <LongitudeDegrees>-0.46694601885974407196044921875</LongitudeDegrees>
            </Position>
            <AltitudeMeters>63</AltitudeMeters>
            <DistanceMeters>3452.221015868</DistanceMeters>
          </Trackpoint>
          <Trackpoint>
            <Time>2021-10-09T06:54:56.000Z</Time>
            <Position>
              <LatitudeDegrees>39.47082334198057651519775390625</LatitudeDegrees>
              <LongitudeDegrees>-0.46703302301466464996337890625</LongitudeDegrees>
            </Position>
            <AltitudeMeters>63</AltitudeMeters>
            <DistanceMeters>3459.6961822899</DistanceMeters>
          </Trackpoint>
          <Trackpoint>
            <Time>2021-10-09T06:54:57.000Z</Time>
            <Position>
              <LatitudeDegrees>39.47082459926605224609375</LatitudeDegrees>
              <LongitudeDegrees>-0.46711902134120464324951171875</LongitudeDegrees>
            </Position>
            <AltitudeMeters>63</AltitudeMeters>
            <DistanceMeters>3467.0869151636</DistanceMeters>
          </Trackpoint>
          <Trackpoint>
            <Time>2021-10-09T06:54:58.000Z</Time>
            <Position>
              <LatitudeDegrees>39.47082501836121082305908203125</LatitudeDegrees>
              <LongitudeDegrees>-0.46720384620130062103271484375</LongitudeDegrees>
            </Position>
            <AltitudeMeters>63</AltitudeMeters>
            <DistanceMeters>3474.3749128065</DistanceMeters>
          </Trackpoint>
          <Trackpoint>
            <Time>2021-10-09T06:54:59.000Z</Time>
            <Position>
              <LatitudeDegrees>39.470824934542179107666015625</LatitudeDegrees>
              <LongitudeDegrees>-0.46728841960430145263671875</LongitudeDegrees>
            </Position>
            <AltitudeMeters>63.200000762939453125</AltitudeMeters>
            <DistanceMeters>3481.6418163455</DistanceMeters>
          </Trackpoint>
          <Trackpoint>
            <Time>2021-10-09T06:55:00.000Z</Time>
            <Position>
              <LatitudeDegrees>39.47082468308508396148681640625</LatitudeDegrees>
              <LongitudeDegrees>-0.46737416647374629974365234375</LongitudeDegrees>
            </Position>
            <AltitudeMeters>63.200000762939453125</AltitudeMeters>
            <DistanceMeters>3489.0099110504</DistanceMeters>
          </Trackpoint>
          <Trackpoint>
            <Time>2021-10-09T06:55:01.000Z</Time>
            <Position>
              <LatitudeDegrees>39.47082552127540111541748046875</LatitudeDegrees>
              <LongitudeDegrees>-0.46746016480028629302978515625</LongitudeDegrees>
            </Position>
            <AltitudeMeters>63.200000762939453125</AltitudeMeters>
            <DistanceMeters>3496.4000329934</DistanceMeters>
          </Trackpoint>
          <Trackpoint>
            <Time>2021-10-09T06:55:02.000Z</Time>
            <Position>
              <LatitudeDegrees>39.47082669474184513092041015625</LatitudeDegrees>
              <LongitudeDegrees>-0.46754700131714344024658203125</LongitudeDegrees>
            </Position>
            <AltitudeMeters>63.40000152587890625</AltitudeMeters>
            <DistanceMeters>3503.8631095378</DistanceMeters>
          </Trackpoint>
          <Trackpoint>
            <Time>2021-10-09T06:55:03.000Z</Time>
            <Position>
              <LatitudeDegrees>39.47082904167473316192626953125</LatitudeDegrees>
              <LongitudeDegrees>-0.4676339216530323028564453125</LongitudeDegrees>
            </Position>
            <AltitudeMeters>63.59999847412109375</AltitudeMeters>
            <DistanceMeters>3511.3358595489</DistanceMeters>
          </Trackpoint>
          <Trackpoint>
            <Time>2021-10-09T06:55:04.000Z</Time>
            <Position>
              <LatitudeDegrees>39.4708284549415111541748046875</LatitudeDegrees>
              <LongitudeDegrees>-0.46772100962698459625244140625</LongitudeDegrees>
            </Position>
            <AltitudeMeters>63.59999847412109375</AltitudeMeters>
            <DistanceMeters>3518.8188739167</DistanceMeters>
          </Trackpoint>
          <Trackpoint>
            <Time>2021-10-09T06:55:05.000Z</Time>
            <Position>
              <LatitudeDegrees>39.47082837112247943878173828125</LatitudeDegrees>
              <LongitudeDegrees>-0.46780767850577831268310546875</LongitudeDegrees>
            </Position>
            <AltitudeMeters>63.799999237060546875</AltitudeMeters>
            <DistanceMeters>3526.2655979913</DistanceMeters>
          </Trackpoint>
          <Trackpoint>
            <Time>2021-10-09T06:55:06.000Z</Time>
            <Position>
              <LatitudeDegrees>39.47082954458892345428466796875</LatitudeDegrees>
              <LongitudeDegrees>-0.4678940959274768829345703125</LongitudeDegrees>
            </Position>
            <AltitudeMeters>64</AltitudeMeters>
            <DistanceMeters>3533.6922868174</DistanceMeters>
          </Trackpoint>
          <Trackpoint>
            <Time>2021-10-09T06:55:07.000Z</Time>
            <Position>
              <LatitudeDegrees>39.47083088569343090057373046875</LatitudeDegrees>
              <LongitudeDegrees>-0.467980764806270599365234375</LongitudeDegrees>
            </Position>
            <AltitudeMeters>64</AltitudeMeters>
            <DistanceMeters>3541.1408296058</DistanceMeters>
          </Trackpoint>
          <Trackpoint>
            <Time>2021-10-09T06:55:08.000Z</Time>
            <Position>
              <LatitudeDegrees>39.47083071805536746978759765625</LatitudeDegrees>
              <LongitudeDegrees>-0.4680654220283031463623046875</LongitudeDegrees>
            </Position>
            <AltitudeMeters>64</AltitudeMeters>
            <DistanceMeters>3548.414564402</DistanceMeters>
          </Trackpoint>
          <Trackpoint>
            <Time>2021-10-09T06:55:09.000Z</Time>
            <Position>
              <LatitudeDegrees>39.470831640064716339111328125</LatitudeDegrees>
              <LongitudeDegrees>-0.46815133653581142425537109375</LongitudeDegrees>
            </Position>
            <AltitudeMeters>64</AltitudeMeters>
            <DistanceMeters>3555.7973512346</DistanceMeters>
          </Trackpoint>
          <Trackpoint>
            <Time>2021-10-09T06:55:10.000Z</Time>
            <Position>
              <LatitudeDegrees>39.470831640064716339111328125</LatitudeDegrees>
              <LongitudeDegrees>-0.468235909938812255859375</LongitudeDegrees>
            </Position>
            <AltitudeMeters>64</AltitudeMeters>
            <DistanceMeters>3563.0642547736</DistanceMeters>
          </Trackpoint>
          <Trackpoint>
            <Time>2021-10-09T06:55:11.000Z</Time>
            <Position>
              <LatitudeDegrees>39.47083197534084320068359375</LatitudeDegrees>
              <LongitudeDegrees>-0.46831930987536907196044921875</LongitudeDegrees>
            </Position>
            <AltitudeMeters>64</AltitudeMeters>
            <DistanceMeters>3570.229798344</DistanceMeters>
          </Trackpoint>
          <Trackpoint>
            <Time>2021-10-09T06:55:12.000Z</Time>
            <Position>
              <LatitudeDegrees>39.4708324782550334930419921875</LatitudeDegrees>
              <LongitudeDegrees>-0.46840245835483074188232421875</LongitudeDegrees>
            </Position>
            <AltitudeMeters>64</AltitudeMeters>
            <DistanceMeters>3577.3738862537</DistanceMeters>
          </Trackpoint>
          <Trackpoint>
            <Time>2021-10-09T06:55:13.000Z</Time>
            <Position>
              <LatitudeDegrees>39.47083306498825550079345703125</LatitudeDegrees>
              <LongitudeDegrees>-0.468486361205577850341796875</LongitudeDegrees>
            </Position>
            <AltitudeMeters>64</AltitudeMeters>
            <DistanceMeters>3584.5834021883</DistanceMeters>
          </Trackpoint>
          <Trackpoint>
            <Time>2021-10-09T06:55:14.000Z</Time>
            <Position>
              <LatitudeDegrees>39.4708341546356678009033203125</LatitudeDegrees>
              <LongitudeDegrees>-0.4685720242559909820556640625</LongitudeDegrees>
            </Position>
            <AltitudeMeters>64</AltitudeMeters>
            <DistanceMeters>3591.9447532016</DistanceMeters>
          </Trackpoint>
          <Trackpoint>
            <Time>2021-10-09T06:55:15.000Z</Time>
            <Position>
              <LatitudeDegrees>39.47083608247339725494384765625</LatitudeDegrees>
              <LongitudeDegrees>-0.4686565138399600982666015625</LongitudeDegrees>
            </Position>
            <AltitudeMeters>64</AltitudeMeters>
            <DistanceMeters>3599.2066845172</DistanceMeters>
          </Trackpoint>
          <Trackpoint>
            <Time>2021-10-09T06:55:16.000Z</Time>
            <Position>
              <LatitudeDegrees>39.4708365015685558319091796875</LatitudeDegrees>
              <LongitudeDegrees>-0.46874159015715122222900390625</LongitudeDegrees>
            </Position>
            <AltitudeMeters>64</AltitudeMeters>
            <DistanceMeters>3606.5163330942</DistanceMeters>
          </Trackpoint>
          <Trackpoint>
            <Time>2021-10-09T06:55:17.000Z</Time>
            <Position>
              <LatitudeDegrees>39.4708371721208095550537109375</LatitudeDegrees>
              <LongitudeDegrees>-0.4688258282840251922607421875</LongitudeDegrees>
            </Position>
            <AltitudeMeters>64</AltitudeMeters>
            <DistanceMeters>3613.7545997049</DistanceMeters>
          </Trackpoint>
          <Trackpoint>
            <Time>2021-10-09T06:55:18.000Z</Time>
            <Position>
              <LatitudeDegrees>39.47083775885403156280517578125</LatitudeDegrees>
              <LongitudeDegrees>-0.46890989877283573150634765625</LongitudeDegrees>
            </Position>
            <AltitudeMeters>64</AltitudeMeters>
            <DistanceMeters>3620.9778802403</DistanceMeters>
          </Trackpoint>
          <Trackpoint>
            <Time>2021-10-09T06:55:19.000Z</Time>
            <Position>
              <LatitudeDegrees>39.470838345587253570556640625</LatitudeDegrees>
              <LongitudeDegrees>-0.46899505890905857086181640625</LongitudeDegrees>
            </Position>
            <AltitudeMeters>64</AltitudeMeters>
            <DistanceMeters>3628.2955542774</DistanceMeters>
          </Trackpoint>
          <Trackpoint>
            <Time>2021-10-09T06:55:20.000Z</Time>
            <Position>
              <LatitudeDegrees>39.47083960287272930145263671875</LatitudeDegrees>
              <LongitudeDegrees>-0.46908013522624969482421875</LongitudeDegrees>
            </Position>
            <AltitudeMeters>64.1999969482421875</AltitudeMeters>
            <DistanceMeters>3635.6070556655</DistanceMeters>
          </Trackpoint>
          <Trackpoint>
            <Time>2021-10-09T06:55:21.000Z</Time>
            <Position>
              <LatitudeDegrees>39.47084580548107624053955078125</LatitudeDegrees>
              <LongitudeDegrees>-0.46916454099118709564208984375</LongitudeDegrees>
            </Position>
            <AltitudeMeters>64.1999969482421875</AltitudeMeters>
            <DistanceMeters>3642.8913352582</DistanceMeters>
          </Trackpoint>
          <Trackpoint>
            <Time>2021-10-09T06:55:22.000Z</Time>
            <Position>
              <LatitudeDegrees>39.47086055763065814971923828125</LatitudeDegrees>
              <LongitudeDegrees>-0.46924752183258533477783203125</LongitudeDegrees>
            </Position>
            <AltitudeMeters>64.1999969482421875</AltitudeMeters>
            <DistanceMeters>3650.2071580474</DistanceMeters>
          </Trackpoint>
          <Trackpoint>
            <Time>2021-10-09T06:55:23.000Z</Time>
            <Position>
              <LatitudeDegrees>39.47088486514985561370849609375</LatitudeDegrees>
              <LongitudeDegrees>-0.4693223722279071807861328125</LongitudeDegrees>
            </Position>
            <AltitudeMeters>64.1999969482421875</AltitudeMeters>
            <DistanceMeters>3657.1836981664</DistanceMeters>
          </Trackpoint>
          <Trackpoint>
            <Time>2021-10-09T06:55:24.000Z</Time>
            <Position>
              <LatitudeDegrees>39.47091654874384403228759765625</LatitudeDegrees>
              <LongitudeDegrees>-0.4693877510726451873779296875</LongitudeDegrees>
            </Position>
            <AltitudeMeters>64.40000152587890625</AltitudeMeters>
            <DistanceMeters>3663.8165356011</DistanceMeters>
          </Trackpoint>
          <Trackpoint>
            <Time>2021-10-09T06:55:25.000Z</Time>
            <Position>
              <LatitudeDegrees>39.47095342911779880523681640625</LatitudeDegrees>
              <LongitudeDegrees>-0.46944550238549709320068359375</LongitudeDegrees>
            </Position>
            <AltitudeMeters>64.40000152587890625</AltitudeMeters>
            <DistanceMeters>3670.2559541332</DistanceMeters>
          </Trackpoint>
          <Trackpoint>
            <Time>2021-10-09T06:55:26.000Z</Time>
            <Position>
              <LatitudeDegrees>39.470994584262371063232421875</LatitudeDegrees>
              <LongitudeDegrees>-0.4695010744035243988037109375</LongitudeDegrees>
            </Position>
            <AltitudeMeters>64.40000152587890625</AltitudeMeters>
            <DistanceMeters>3676.8737990054</DistanceMeters>
          </Trackpoint>
          <Trackpoint>
            <Time>2021-10-09T06:55:27.000Z</Time>
            <Position>
              <LatitudeDegrees>39.47103389538824558258056640625</LatitudeDegrees>
              <LongitudeDegrees>-0.46956150792539119720458984375</LongitudeDegrees>
            </Position>
            <AltitudeMeters>64.59999847412109375</AltitudeMeters>
            <DistanceMeters>3683.6633895856</DistanceMeters>
          </Trackpoint>
          <Trackpoint>
            <Time>2021-10-09T06:55:28.000Z</Time>
            <Position>
              <LatitudeDegrees>39.47106591425836086273193359375</LatitudeDegrees>
              <LongitudeDegrees>-0.4696308262646198272705078125</LongitudeDegrees>
            </Position>
            <AltitudeMeters>64.59999847412109375</AltitudeMeters>
            <DistanceMeters>3690.6035933111</DistanceMeters>
          </Trackpoint>
          <Trackpoint>
            <Time>2021-10-09T06:55:29.000Z</Time>
            <Position>
              <LatitudeDegrees>39.4710861146450042724609375</LatitudeDegrees>
              <LongitudeDegrees>-0.46970651485025882720947265625</LongitudeDegrees>
            </Position>
            <AltitudeMeters>64.59999847412109375</AltitudeMeters>
            <DistanceMeters>3697.4836849326</DistanceMeters>
          </Trackpoint>
          <Trackpoint>
            <Time>2021-10-09T06:55:30.000Z</Time>
            <Position>
              <LatitudeDegrees>39.471091814339160919189453125</LatitudeDegrees>
              <LongitudeDegrees>-0.46978555619716644287109375</LongitudeDegrees>
            </Position>
            <AltitudeMeters>64.59999847412109375</AltitudeMeters>
            <DistanceMeters>3704.3044586306</DistanceMeters>
          </Trackpoint>
          <Trackpoint>
            <Time>2021-10-09T06:55:31.000Z</Time>
            <Position>
              <LatitudeDegrees>39.471082426607608795166015625</LatitudeDegrees>
              <LongitudeDegrees>-0.46986426226794719696044921875</LongitudeDegrees>
            </Position>
            <AltitudeMeters>64.59999847412109375</AltitudeMeters>
            <DistanceMeters>3711.1477017534</DistanceMeters>
          </Trackpoint>
          <Trackpoint>
            <Time>2021-10-09T06:55:32.000Z</Time>
            <Position>
              <LatitudeDegrees>39.471055604517459869384765625</LatitudeDegrees>
              <LongitudeDegrees>-0.4699406214058399200439453125</LongitudeDegrees>
            </Position>
            <AltitudeMeters>64.59999847412109375</AltitudeMeters>
            <DistanceMeters>3718.3559650573</DistanceMeters>
          </Trackpoint>
          <Trackpoint>
            <Time>2021-10-09T06:55:33.000Z</Time>
            <Position>
              <LatitudeDegrees>39.4710212387144565582275390625</LatitudeDegrees>
              <LongitudeDegrees>-0.4700130410492420196533203125</LongitudeDegrees>
            </Position>
            <AltitudeMeters>64.59999847412109375</AltitudeMeters>
            <DistanceMeters>3725.660670507</DistanceMeters>
          </Trackpoint>
          <Trackpoint>
            <Time>2021-10-09T06:55:34.000Z</Time>
            <Position>
              <LatitudeDegrees>39.47098444215953350067138671875</LatitudeDegrees>
              <LongitudeDegrees>-0.470078922808170318603515625</LongitudeDegrees>
            </Position>
            <AltitudeMeters>65</AltitudeMeters>
            <DistanceMeters>3732.6475577436</DistanceMeters>
          </Trackpoint>
          <Trackpoint>
            <Time>2021-10-09T06:55:35.000Z</Time>
            <Position>
              <LatitudeDegrees>39.4709498248994350433349609375</LatitudeDegrees>
              <LongitudeDegrees>-0.4701434634625911712646484375</LongitudeDegrees>
            </Position>
            <AltitudeMeters>65</AltitudeMeters>
            <DistanceMeters>3739.4004745979</DistanceMeters>
          </Trackpoint>
          <Trackpoint>
            <Time>2021-10-09T06:55:36.000Z</Time>
            <Position>
              <LatitudeDegrees>39.4709216617047786712646484375</LatitudeDegrees>
              <LongitudeDegrees>-0.4702091775834560394287109375</LongitudeDegrees>
            </Position>
            <AltitudeMeters>65</AltitudeMeters>
            <DistanceMeters>3745.8580974592</DistanceMeters>
          </Trackpoint>
          <Trackpoint>
            <Time>2021-10-09T06:55:37.000Z</Time>
            <Position>
              <LatitudeDegrees>39.470904730260372161865234375</LatitudeDegrees>
              <LongitudeDegrees>-0.47027983702719211578369140625</LongitudeDegrees>
            </Position>
            <AltitudeMeters>65.1999969482421875</AltitudeMeters>
            <DistanceMeters>3752.2142411022</DistanceMeters>
          </Trackpoint>
          <Trackpoint>
            <Time>2021-10-09T06:55:38.000Z</Time>
            <Position>
              <LatitudeDegrees>39.4708914868533611297607421875</LatitudeDegrees>
              <LongitudeDegrees>-0.47037564218044281005859375</LongitudeDegrees>
            </Position>
            <AltitudeMeters>65.1999969482421875</AltitudeMeters>
            <DistanceMeters>3760.5765919667</DistanceMeters>
          </Trackpoint>
          <Trackpoint>
            <Time>2021-10-09T06:55:39.000Z</Time>
            <Position>
              <LatitudeDegrees>39.470889978110790252685546875</LatitudeDegrees>
              <LongitudeDegrees>-0.4704468883574008941650390625</LongitudeDegrees>
            </Position>
            <AltitudeMeters>65.1999969482421875</AltitudeMeters>
            <DistanceMeters>3766.6997347378</DistanceMeters>
          </Trackpoint>
          <Trackpoint>
            <Time>2021-10-09T06:55:40.000Z</Time>
            <Position>
              <LatitudeDegrees>39.47089391760528087615966796875</LatitudeDegrees>
              <LongitudeDegrees>-0.47053263522684574127197265625</LongitudeDegrees>
            </Position>
            <AltitudeMeters>65.40000152587890625</AltitudeMeters>
            <DistanceMeters>3774.0800749136</DistanceMeters>
          </Trackpoint>
          <Trackpoint>
            <Time>2021-10-09T06:55:41.000Z</Time>
            <Position>
              <LatitudeDegrees>39.47090447880327701568603515625</LatitudeDegrees>
              <LongitudeDegrees>-0.47061209566891193389892578125</LongitudeDegrees>
            </Position>
            <AltitudeMeters>65.40000152587890625</AltitudeMeters>
            <DistanceMeters>3781.0072551641</DistanceMeters>
          </Trackpoint>
          <Trackpoint>
            <Time>2021-10-09T06:55:42.000Z</Time>
            <Position>
              <LatitudeDegrees>39.47091487236320972442626953125</LatitudeDegrees>
              <LongitudeDegrees>-0.47069323249161243438720703125</LongitudeDegrees>
            </Position>
            <AltitudeMeters>65.40000152587890625</AltitudeMeters>
            <DistanceMeters>3788.0738188789</DistanceMeters>
          </Trackpoint>
          <Trackpoint>
            <Time>2021-10-09T06:55:43.000Z</Time>
            <Position>
              <LatitudeDegrees>39.4709198176860809326171875</LatitudeDegrees>
              <LongitudeDegrees>-0.4707774706184864044189453125</LongitudeDegrees>
            </Position>
            <AltitudeMeters>65.59999847412109375</AltitudeMeters>
            <DistanceMeters>3795.3320187917</DistanceMeters>
          </Trackpoint>
          <Trackpoint>
            <Time>2021-10-09T06:55:44.000Z</Time>
            <Position>
              <LatitudeDegrees>39.47092660702764987945556640625</LatitudeDegrees>
              <LongitudeDegrees>-0.47086137346923351287841796875</LongitudeDegrees>
            </Position>
            <AltitudeMeters>65.59999847412109375</AltitudeMeters>
            <DistanceMeters>3802.5802589057</DistanceMeters>
          </Trackpoint>
          <Trackpoint>
            <Time>2021-10-09T06:55:45.000Z</Time>
            <Position>
              <LatitudeDegrees>39.4709332287311553955078125</LatitudeDegrees>
              <LongitudeDegrees>-0.47094267792999744415283203125</LongitudeDegrees>
            </Position>
            <AltitudeMeters>65.59999847412109375</AltitudeMeters>
            <DistanceMeters>3809.6045266747</DistanceMeters>
          </Trackpoint>
          <Trackpoint>
            <Time>2021-10-09T06:55:46.000Z</Time>
            <Position>
              <LatitudeDegrees>39.47093750350177288055419921875</LatitudeDegrees>
              <LongitudeDegrees>-0.471027083694934844970703125</LongitudeDegrees>
            </Position>
            <AltitudeMeters>65.59999847412109375</AltitudeMeters>
            <DistanceMeters>3816.8720515023</DistanceMeters>
          </Trackpoint>
          <Trackpoint>
            <Time>2021-10-09T06:55:47.000Z</Time>
            <Position>
              <LatitudeDegrees>39.4709451310336589813232421875</LatitudeDegrees>
              <LongitudeDegrees>-0.47110578976571559906005859375</LongitudeDegrees>
            </Position>
            <AltitudeMeters>65.8000030517578125</AltitudeMeters>
            <DistanceMeters>3823.6875275112</DistanceMeters>
          </Trackpoint>
          <Trackpoint>
            <Time>2021-10-09T06:55:48.000Z</Time>
            <Position>
              <LatitudeDegrees>39.47095057927072048187255859375</LatitudeDegrees>
              <LongitudeDegrees>-0.4711885191500186920166015625</LongitudeDegrees>
            </Position>
            <AltitudeMeters>65.8000030517578125</AltitudeMeters>
            <DistanceMeters>3830.8214963111</DistanceMeters>
          </Trackpoint>
          <Trackpoint>
            <Time>2021-10-09T06:55:49.000Z</Time>
            <Position>
              <LatitudeDegrees>39.4709588773548603057861328125</LatitudeDegrees>
              <LongitudeDegrees>-0.4712708294391632080078125</LongitudeDegrees>
            </Position>
            <AltitudeMeters>65.8000030517578125</AltitudeMeters>
            <DistanceMeters>3837.9529330901</DistanceMeters>
          </Trackpoint>
          <Trackpoint>
            <Time>2021-10-09T06:55:50.000Z</Time>
            <Position>
              <LatitudeDegrees>39.47096608579158782958984375</LatitudeDegrees>
              <LongitudeDegrees>-0.471350289881229400634765625</LongitudeDegrees>
            </Position>
            <AltitudeMeters>65.8000030517578125</AltitudeMeters>
            <DistanceMeters>3844.8271159529</DistanceMeters>
          </Trackpoint>
          <Trackpoint>
            <Time>2021-10-09T06:55:51.000Z</Time>
            <Position>
              <LatitudeDegrees>39.47097337804734706878662109375</LatitudeDegrees>
              <LongitudeDegrees>-0.47143033705651760101318359375</LongitudeDegrees>
            </Position>
            <AltitudeMeters>65.8000030517578125</AltitudeMeters>
            <DistanceMeters>3851.7516885691</DistanceMeters>
          </Trackpoint>
          <Trackpoint>
            <Time>2021-10-09T06:55:52.000Z</Time>
            <Position>
              <LatitudeDegrees>39.4709806703031063079833984375</LatitudeDegrees>
              <LongitudeDegrees>-0.47152630984783172607421875</LongitudeDegrees>
            </Position>
            <AltitudeMeters>66</AltitudeMeters>
            <DistanceMeters>3860.0381052422</DistanceMeters>
          </Trackpoint>
          <Trackpoint>
            <Time>2021-10-09T06:55:53.000Z</Time>
            <Position>
              <LatitudeDegrees>39.47098544798791408538818359375</LatitudeDegrees>
              <LongitudeDegrees>-0.47159043140709400177001953125</LongitudeDegrees>
            </Position>
            <AltitudeMeters>66</AltitudeMeters>
            <DistanceMeters>3865.573360374</DistanceMeters>
          </Trackpoint>
          <Trackpoint>
            <Time>2021-10-09T06:55:54.000Z</Time>
            <Position>
              <LatitudeDegrees>39.47099215351045131683349609375</LatitudeDegrees>
              <LongitudeDegrees>-0.4716693051159381866455078125</LongitudeDegrees>
            </Position>
            <AltitudeMeters>66.1999969482421875</AltitudeMeters>
            <DistanceMeters>3872.391485742</DistanceMeters>
          </Trackpoint>
          <Trackpoint>
            <Time>2021-10-09T06:55:55.000Z</Time>
            <Position>
              <LatitudeDegrees>39.47099869139492511749267578125</LatitudeDegrees>
              <LongitudeDegrees>-0.471747927367687225341796875</LongitudeDegrees>
            </Position>
            <AltitudeMeters>66.40000152587890625</AltitudeMeters>
            <DistanceMeters>3879.1857296868</DistanceMeters>
          </Trackpoint>
          <Trackpoint>
            <Time>2021-10-09T06:55:56.000Z</Time>
            <Position>
              <LatitudeDegrees>39.47100271470844745635986328125</LatitudeDegrees>
              <LongitudeDegrees>-0.47182939946651458740234375</LongitudeDegrees>
            </Position>
            <AltitudeMeters>66.40000152587890625</AltitudeMeters>
            <DistanceMeters>3886.1997054828</DistanceMeters>
          </Trackpoint>
          <Trackpoint>
            <Time>2021-10-09T06:55:57.000Z</Time>
            <Position>
              <LatitudeDegrees>39.47100824676454067230224609375</LatitudeDegrees>
              <LongitudeDegrees>-0.471910871565341949462890625</LongitudeDegrees>
            </Position>
            <AltitudeMeters>66.40000152587890625</AltitudeMeters>
            <DistanceMeters>3893.2265438896</DistanceMeters>
          </Trackpoint>
          <Trackpoint>
            <Time>2021-10-09T06:55:58.000Z</Time>
            <Position>
              <LatitudeDegrees>39.47101444937288761138916015625</LatitudeDegrees>
              <LongitudeDegrees>-0.47199276275932788848876953125</LongitudeDegrees>
            </Position>
            <AltitudeMeters>66.59999847412109375</AltitudeMeters>
            <DistanceMeters>3900.296940144</DistanceMeters>
          </Trackpoint>
          <Trackpoint>
            <Time>2021-10-09T06:55:59.000Z</Time>
            <Position>
              <LatitudeDegrees>39.47102115489542484283447265625</LatitudeDegrees>
              <LongitudeDegrees>-0.4720924235880374908447265625</LongitudeDegrees>
            </Position>
            <AltitudeMeters>66.59999847412109375</AltitudeMeters>
            <DistanceMeters>3908.892525375</DistanceMeters>
          </Trackpoint>
          <Trackpoint>
            <Time>2021-10-09T06:56:00.000Z</Time>
            <Position>
              <LatitudeDegrees>39.47102434001863002777099609375</LatitudeDegrees>
              <LongitudeDegrees>-0.47215989790856838226318359375</LongitudeDegrees>
            </Position>
            <AltitudeMeters>66.59999847412109375</AltitudeMeters>
            <DistanceMeters>3914.700826813</DistanceMeters>
          </Trackpoint>
          <Trackpoint>
            <Time>2021-10-09T06:56:01.000Z</Time>
            <Position>
              <LatitudeDegrees>39.47103188373148441314697265625</LatitudeDegrees>
              <LongitudeDegrees>-0.47225863672792911529541015625</LongitudeDegrees>
            </Position>
            <AltitudeMeters>66.8000030517578125</AltitudeMeters>
            <DistanceMeters>3923.2257347434</DistanceMeters>
          </Trackpoint>
          <Trackpoint>
            <Time>2021-10-09T06:56:02.000Z</Time>
            <Position>
              <LatitudeDegrees>39.47103640995919704437255859375</LatitudeDegrees>
              <LongitudeDegrees>-0.4723261110484600067138671875</LongitudeDegrees>
            </Position>
            <AltitudeMeters>66.8000030517578125</AltitudeMeters>
            <DistanceMeters>3929.0449087969</DistanceMeters>
          </Trackpoint>
          <Trackpoint>
            <Time>2021-10-09T06:56:03.000Z</Time>
            <Position>
              <LatitudeDegrees>39.471041858196258544921875</LatitudeDegrees>
              <LongitudeDegrees>-0.47240816988050937652587890625</LongitudeDegrees>
            </Position>
            <AltitudeMeters>66.8000030517578125</AltitudeMeters>
            <DistanceMeters>3936.1216880048</DistanceMeters>
          </Trackpoint>
          <Trackpoint>
            <Time>2021-10-09T06:56:04.000Z</Time>
            <Position>
              <LatitudeDegrees>39.47104730643332004547119140625</LatitudeDegrees>
              <LongitudeDegrees>-0.4724903963506221771240234375</LongitudeDegrees>
            </Position>
            <AltitudeMeters>66.8000030517578125</AltitudeMeters>
            <DistanceMeters>3943.2131262029</DistanceMeters>
          </Trackpoint>
          <Trackpoint>
            <Time>2021-10-09T06:56:05.000Z</Time>
            <Position>
              <LatitudeDegrees>39.47105401195585727691650390625</LatitudeDegrees>
              <LongitudeDegrees>-0.47257178463041782379150390625</LongitudeDegrees>
            </Position>
            <AltitudeMeters>67</AltitudeMeters>
            <DistanceMeters>3950.2451030662</DistanceMeters>
          </Trackpoint>
          <Trackpoint>
            <Time>2021-10-09T06:56:06.000Z</Time>
            <Position>
              <LatitudeDegrees>39.4710594601929187774658203125</LatitudeDegrees>
              <LongitudeDegrees>-0.47265426255762577056884765625</LongitudeDegrees>
            </Position>
            <AltitudeMeters>67</AltitudeMeters>
            <DistanceMeters>3957.357520956</DistanceMeters>
          </Trackpoint>
          <Trackpoint>
            <Time>2021-10-09T06:56:07.000Z</Time>
            <Position>
              <LatitudeDegrees>39.4710654951632022857666015625</LatitudeDegrees>
              <LongitudeDegrees>-0.4727358184754848480224609375</LongitudeDegrees>
            </Position>
            <AltitudeMeters>67</AltitudeMeters>
            <DistanceMeters>3964.3971984717</DistanceMeters>
          </Trackpoint>
          <Trackpoint>
            <Time>2021-10-09T06:56:08.000Z</Time>
            <Position>
              <LatitudeDegrees>39.47107127867639064788818359375</LatitudeDegrees>
              <LongitudeDegrees>-0.47281838022172451019287109375</LongitudeDegrees>
            </Position>
            <AltitudeMeters>67.1999969482421875</AltitudeMeters>
            <DistanceMeters>3971.5197660889</DistanceMeters>
          </Trackpoint>
          <Trackpoint>
            <Time>2021-10-09T06:56:09.000Z</Time>
            <Position>
              <LatitudeDegrees>39.47107798419892787933349609375</LatitudeDegrees>
              <LongitudeDegrees>-0.47289901413023471832275390625</LongitudeDegrees>
            </Position>
            <AltitudeMeters>67.1999969482421875</AltitudeMeters>
            <DistanceMeters>3978.4872398752</DistanceMeters>
          </Trackpoint>
          <Trackpoint>
            <Time>2021-10-09T06:56:10.000Z</Time>
            <Position>
              <LatitudeDegrees>39.4710836000740528106689453125</LatitudeDegrees>
              <LongitudeDegrees>-0.472978390753269195556640625</LongitudeDegrees>
            </Position>
            <AltitudeMeters>67.1999969482421875</AltitudeMeters>
            <DistanceMeters>3985.3357592079</DistanceMeters>
          </Trackpoint>
          <Trackpoint>
            <Time>2021-10-09T06:56:11.000Z</Time>
            <Position>
              <LatitudeDegrees>39.47109022177755832672119140625</LatitudeDegrees>
              <LongitudeDegrees>-0.47305692918598651885986328125</LongitudeDegrees>
            </Position>
            <AltitudeMeters>67.1999969482421875</AltitudeMeters>
            <DistanceMeters>3992.1240196694</DistanceMeters>
          </Trackpoint>
          <Trackpoint>
            <Time>2021-10-09T06:56:12.000Z</Time>
            <Position>
              <LatitudeDegrees>39.471097849309444427490234375</LatitudeDegrees>
              <LongitudeDegrees>-0.47313773073256015777587890625</LongitudeDegrees>
            </Position>
            <AltitudeMeters>67.40000152587890625</AltitudeMeters>
            <DistanceMeters>3999.1186571992</DistanceMeters>
          </Trackpoint>
          <Trackpoint>
            <Time>2021-10-09T06:56:13.000Z</Time>
            <Position>
              <LatitudeDegrees>39.471102543175220489501953125</LatitudeDegrees>
              <LongitudeDegrees>-0.47321735881268978118896484375</LongitudeDegrees>
            </Position>
            <AltitudeMeters>67.40000152587890625</AltitudeMeters>
            <DistanceMeters>4005.9803493068</DistanceMeters>
          </Trackpoint>
          <Trackpoint>
            <Time>2021-10-09T06:56:14.000Z</Time>
            <Position>
              <LatitudeDegrees>39.4711077399551868438720703125</LatitudeDegrees>
              <LongitudeDegrees>-0.47329547815024852752685546875</LongitudeDegrees>
            </Position>
            <AltitudeMeters>67.59999847412109375</AltitudeMeters>
            <DistanceMeters>4012.7172005154</DistanceMeters>
          </Trackpoint>
          <Trackpoint>
            <Time>2021-10-09T06:56:15.000Z</Time>
            <Position>
              <LatitudeDegrees>39.47111452929675579071044921875</LatitudeDegrees>
              <LongitudeDegrees>-0.4733736813068389892578125</LongitudeDegrees>
            </Position>
            <AltitudeMeters>67.8000030517578125</AltitudeMeters>
            <DistanceMeters>4019.4794713701</DistanceMeters>
          </Trackpoint>
          <Trackpoint>
            <Time>2021-10-09T06:56:16.000Z</Time>
            <Position>
              <LatitudeDegrees>39.47112031280994415283203125</LatitudeDegrees>
              <LongitudeDegrees>-0.47345071099698543548583984375</LongitudeDegrees>
            </Position>
            <AltitudeMeters>67.8000030517578125</AltitudeMeters>
            <DistanceMeters>4026.1299837129</DistanceMeters>
          </Trackpoint>
          <Trackpoint>
            <Time>2021-10-09T06:56:17.000Z</Time>
            <Position>
              <LatitudeDegrees>39.47112609632313251495361328125</LatitudeDegrees>
              <LongitudeDegrees>-0.473526902496814727783203125</LongitudeDegrees>
            </Position>
            <AltitudeMeters>68</AltitudeMeters>
            <DistanceMeters>4032.7088252824</DistanceMeters>
          </Trackpoint>
          <Trackpoint>
            <Time>2021-10-09T06:56:18.000Z</Time>
            <Position>
              <LatitudeDegrees>39.471133053302764892578125</LatitudeDegrees>
              <LongitudeDegrees>-0.4736030101776123046875</LongitudeDegrees>
            </Position>
            <AltitudeMeters>68.1999969482421875</AltitudeMeters>
            <DistanceMeters>4039.2938406266</DistanceMeters>
          </Trackpoint>
          <Trackpoint>
            <Time>2021-10-09T06:56:19.000Z</Time>
            <Position>
              <LatitudeDegrees>39.4711416028439998626708984375</LatitudeDegrees>
              <LongitudeDegrees>-0.47367869876325130462646484375</LongitudeDegrees>
            </Position>
            <AltitudeMeters>68.40000152587890625</AltitudeMeters>
            <DistanceMeters>4045.8665026222</DistanceMeters>
          </Trackpoint>
          <Trackpoint>
            <Time>2021-10-09T06:56:20.000Z</Time>
            <Position>
              <LatitudeDegrees>39.4711513258516788482666015625</LatitudeDegrees>
              <LongitudeDegrees>-0.47375380061566829681396484375</LongitudeDegrees>
            </Position>
            <AltitudeMeters>68.59999847412109375</AltitudeMeters>
            <DistanceMeters>4052.4095594323</DistanceMeters>
          </Trackpoint>
          <Trackpoint>
            <Time>2021-10-09T06:56:21.000Z</Time>
            <Position>
              <LatitudeDegrees>39.47116146795451641082763671875</LatitudeDegrees>
              <LongitudeDegrees>-0.4738288186490535736083984375</LongitudeDegrees>
            </Position>
            <AltitudeMeters>68.8000030517578125</AltitudeMeters>
            <DistanceMeters>4058.9533062564</DistanceMeters>
          </Trackpoint>
          <Trackpoint>
            <Time>2021-10-09T06:56:22.000Z</Time>
            <Position>
              <LatitudeDegrees>39.4711734540760517120361328125</LatitudeDegrees>
              <LongitudeDegrees>-0.4739052616059780120849609375</LongitudeDegrees>
            </Position>
            <AltitudeMeters>69</AltitudeMeters>
            <DistanceMeters>4065.6545427211</DistanceMeters>
          </Trackpoint>
          <Trackpoint>
            <Time>2021-10-09T06:56:23.000Z</Time>
            <Position>
              <LatitudeDegrees>39.471185021102428436279296875</LatitudeDegrees>
              <LongitudeDegrees>-0.473981201648712158203125</LongitudeDegrees>
            </Position>
            <AltitudeMeters>69.1999969482421875</AltitudeMeters>
            <DistanceMeters>4072.3050550639</DistanceMeters>
          </Trackpoint>
          <Trackpoint>
            <Time>2021-10-09T06:56:24.000Z</Time>
            <Position>
              <LatitudeDegrees>39.47119700722396373748779296875</LatitudeDegrees>
              <LongitudeDegrees>-0.47405756078660488128662109375</LongitudeDegrees>
            </Position>
            <AltitudeMeters>69.40000152587890625</AltitudeMeters>
            <DistanceMeters>4079.0002249249</DistanceMeters>
          </Trackpoint>
          <Trackpoint>
            <Time>2021-10-09T06:56:25.000Z</Time>
            <Position>
              <LatitudeDegrees>39.47121041826903820037841796875</LatitudeDegrees>
              <LongitudeDegrees>-0.47413148917257785797119140625</LongitudeDegrees>
            </Position>
            <AltitudeMeters>69.59999847412109375</AltitudeMeters>
            <DistanceMeters>4085.5253157621</DistanceMeters>
          </Trackpoint>
          <Trackpoint>
            <Time>2021-10-09T06:56:26.000Z</Time>
            <Position>
              <LatitudeDegrees>39.4712331332266330718994140625</LatitudeDegrees>
              <LongitudeDegrees>-0.474203489720821380615234375</LongitudeDegrees>
            </Position>
            <AltitudeMeters>69.8000030517578125</AltitudeMeters>
            <DistanceMeters>4092.209011459</DistanceMeters>
          </Trackpoint>
          <Trackpoint>
            <Time>2021-10-09T06:56:27.000Z</Time>
            <Position>
              <LatitudeDegrees>39.4712659902870655059814453125</LatitudeDegrees>
              <LongitudeDegrees>-0.4742680303752422332763671875</LongitudeDegrees>
            </Position>
            <AltitudeMeters>69.8000030517578125</AltitudeMeters>
            <DistanceMeters>4098.852731325</DistanceMeters>
          </Trackpoint>
          <Trackpoint>
            <Time>2021-10-09T06:56:28.000Z</Time>
            <Position>
              <LatitudeDegrees>39.4713082350790500640869140625</LatitudeDegrees>
              <LongitudeDegrees>-0.47432117164134979248046875</LongitudeDegrees>
            </Position>
            <AltitudeMeters>70</AltitudeMeters>
            <DistanceMeters>4105.4068196402</DistanceMeters>
          </Trackpoint>
          <Trackpoint>
            <Time>2021-10-09T06:56:29.000Z</Time>
            <Position>
              <LatitudeDegrees>39.4713588617742061614990234375</LatitudeDegrees>
              <LongitudeDegrees>-0.47435981221497058868408203125</LongitudeDegrees>
            </Position>
            <AltitudeMeters>70</AltitudeMeters>
            <DistanceMeters>4111.9464252888</DistanceMeters>
          </Trackpoint>
          <Trackpoint>
            <Time>2021-10-09T06:56:30.000Z</Time>
            <Position>
              <LatitudeDegrees>39.47141242213547229766845703125</LatitudeDegrees>
              <LongitudeDegrees>-0.47439082525670528411865234375</LongitudeDegrees>
            </Position>
            <AltitudeMeters>70.1999969482421875</AltitudeMeters>
            <DistanceMeters>4118.4763579813</DistanceMeters>
          </Trackpoint>
          <Trackpoint>
            <Time>2021-10-09T06:56:31.000Z</Time>
            <Position>
              <LatitudeDegrees>39.47146673686802387237548828125</LatitudeDegrees>
              <LongitudeDegrees>-0.47442569397389888763427734375</LongitudeDegrees>
            </Position>
            <AltitudeMeters>70.1999969482421875</AltitudeMeters>
            <DistanceMeters>4125.2225854661</DistanceMeters>
          </Trackpoint>
          <Trackpoint>
            <Time>2021-10-09T06:56:32.000Z</Time>
            <Position>
              <LatitudeDegrees>39.4715211354196071624755859375</LatitudeDegrees>
              <LongitudeDegrees>-0.47446358017623424530029296875</LongitudeDegrees>
            </Position>
            <AltitudeMeters>70.1999969482421875</AltitudeMeters>
            <DistanceMeters>4132.0961114866</DistanceMeters>
          </Trackpoint>
          <Trackpoint>
            <Time>2021-10-09T06:56:33.000Z</Time>
            <Position>
              <LatitudeDegrees>39.4715710915625095367431640625</LatitudeDegrees>
              <LongitudeDegrees>-0.47450892627239227294921875</LongitudeDegrees>
            </Position>
            <AltitudeMeters>70.1999969482421875</AltitudeMeters>
            <DistanceMeters>4138.8850370401</DistanceMeters>
          </Trackpoint>
          <Trackpoint>
            <Time>2021-10-09T06:56:34.000Z</Time>
            <Position>
              <LatitudeDegrees>39.47161610238254070281982421875</LatitudeDegrees>
              <LongitudeDegrees>-0.47456265427172183990478515625</LongitudeDegrees>
            </Position>
            <AltitudeMeters>70.40000152587890625</AltitudeMeters>
            <DistanceMeters>4145.6978626596</DistanceMeters>
          </Trackpoint>
          <Trackpoint>
            <Time>2021-10-09T06:56:35.000Z</Time>
            <Position>
              <LatitudeDegrees>39.47165583260357379913330078125</LatitudeDegrees>
              <LongitudeDegrees>-0.474620573222637176513671875</LongitudeDegrees>
            </Position>
            <AltitudeMeters>70.40000152587890625</AltitudeMeters>
            <DistanceMeters>4152.3551605489</DistanceMeters>
          </Trackpoint>
          <Trackpoint>
            <Time>2021-10-09T06:56:36.000Z</Time>
            <Position>
              <LatitudeDegrees>39.4716914556920528411865234375</LatitudeDegrees>
              <LongitudeDegrees>-0.47468553297221660614013671875</LongitudeDegrees>
            </Position>
            <AltitudeMeters>70.40000152587890625</AltitudeMeters>
            <DistanceMeters>4159.2017017794</DistanceMeters>
          </Trackpoint>
          <Trackpoint>
            <Time>2021-10-09T06:56:37.000Z</Time>
            <Position>
              <LatitudeDegrees>39.47172339074313640594482421875</LatitudeDegrees>
              <LongitudeDegrees>-0.47475543804466724395751953125</LongitudeDegrees>
            </Position>
            <AltitudeMeters>70.59999847412109375</AltitudeMeters>
            <DistanceMeters>4166.180830116</DistanceMeters>
          </Trackpoint>
          <Trackpoint>
            <Time>2021-10-09T06:56:38.000Z</Time>
            <Position>
              <LatitudeDegrees>39.47174568660557270050048828125</LatitudeDegrees>
              <LongitudeDegrees>-0.474831126630306243896484375</LongitudeDegrees>
            </Position>
            <AltitudeMeters>70.59999847412109375</AltitudeMeters>
            <DistanceMeters>4173.1405233596</DistanceMeters>
          </Trackpoint>
          <Trackpoint>
            <Time>2021-10-09T06:56:39.000Z</Time>
            <Position>
              <LatitudeDegrees>39.4717585109174251556396484375</LatitudeDegrees>
              <LongitudeDegrees>-0.47490983270108699798583984375</LongitudeDegrees>
            </Position>
            <AltitudeMeters>71</AltitudeMeters>
            <DistanceMeters>4180.050736398</DistanceMeters>
          </Trackpoint>
          <Trackpoint>
            <Time>2021-10-09T06:56:40.000Z</Time>
            <Position>
              <LatitudeDegrees>39.47176479734480381011962890625</LatitudeDegrees>
              <LongitudeDegrees>-0.4749905504286289215087890625</LongitudeDegrees>
            </Position>
            <AltitudeMeters>71</AltitudeMeters>
            <DistanceMeters>4187.0208017684</DistanceMeters>
          </Trackpoint>
          <Trackpoint>
            <Time>2021-10-09T06:56:41.000Z</Time>
            <Position>
              <LatitudeDegrees>39.47176563553512096405029296875</LatitudeDegrees>
              <LongitudeDegrees>-0.47507311217486858367919921875</LongitudeDegrees>
            </Position>
            <AltitudeMeters>71</AltitudeMeters>
            <DistanceMeters>4194.1154226955</DistanceMeters>
          </Trackpoint>
          <Trackpoint>
            <Time>2021-10-09T06:56:42.000Z</Time>
            <Position>
              <LatitudeDegrees>39.47175876237452030181884765625</LatitudeDegrees>
              <LongitudeDegrees>-0.47515324316918849945068359375</LongitudeDegrees>
            </Position>
            <AltitudeMeters>71.1999969482421875</AltitudeMeters>
            <DistanceMeters>4201.042602946</DistanceMeters>
          </Trackpoint>
          <Trackpoint>
            <Time>2021-10-09T06:56:43.000Z</Time>
            <Position>
              <LatitudeDegrees>39.47174392640590667724609375</LatitudeDegrees>
              <LongitudeDegrees>-0.475233457982540130615234375</LongitudeDegrees>
            </Position>
            <AltitudeMeters>71.1999969482421875</AltitudeMeters>
            <DistanceMeters>4208.1295829221</DistanceMeters>
          </Trackpoint>
          <Trackpoint>
            <Time>2021-10-09T06:56:44.000Z</Time>
            <Position>
              <LatitudeDegrees>39.47172255255281925201416015625</LatitudeDegrees>
              <LongitudeDegrees>-0.47531082294881343841552734375</LongitudeDegrees>
            </Position>
            <AltitudeMeters>71.1999969482421875</AltitudeMeters>
            <DistanceMeters>4215.1897544476</DistanceMeters>
          </Trackpoint>
          <Trackpoint>
            <Time>2021-10-09T06:56:45.000Z</Time>
            <Position>
              <LatitudeDegrees>39.47169430553913116455078125</LatitudeDegrees>
              <LongitudeDegrees>-0.47538374550640583038330078125</LongitudeDegrees>
            </Position>
            <AltitudeMeters>71.1999969482421875</AltitudeMeters>
            <DistanceMeters>4222.1998668582</DistanceMeters>
          </Trackpoint>
          <Trackpoint>
            <Time>2021-10-09T06:56:46.000Z</Time>
            <Position>
              <LatitudeDegrees>39.47165851481258869171142578125</LatitudeDegrees>
              <LongitudeDegrees>-0.47545314766466617584228515625</LongitudeDegrees>
            </Position>
            <AltitudeMeters>71.1999969482421875</AltitudeMeters>
            <DistanceMeters>4229.3710791231</DistanceMeters>
          </Trackpoint>
          <Trackpoint>
            <Time>2021-10-09T06:56:47.000Z</Time>
            <Position>
              <LatitudeDegrees>39.47161911986768245697021484375</LatitudeDegrees>
              <LongitudeDegrees>-0.47551785595715045928955078125</LongitudeDegrees>
            </Position>
            <AltitudeMeters>71.1999969482421875</AltitudeMeters>
            <DistanceMeters>4236.4516853412</DistanceMeters>
          </Trackpoint>
          <Trackpoint>
            <Time>2021-10-09T06:56:48.000Z</Time>
            <Position>
              <LatitudeDegrees>39.4715741090476512908935546875</LatitudeDegrees>
              <LongitudeDegrees>-0.4755759425461292266845703125</LongitudeDegrees>
            </Position>
            <AltitudeMeters>71</AltitudeMeters>
            <DistanceMeters>4243.5233586472</DistanceMeters>
          </Trackpoint>
          <Trackpoint>
            <Time>2021-10-09T06:56:49.000Z</Time>
            <Position>
              <LatitudeDegrees>39.47152356617152690887451171875</LatitudeDegrees>
              <LongitudeDegrees>-0.47562606632709503173828125</LongitudeDegrees>
            </Position>
            <AltitudeMeters>71</AltitudeMeters>
            <DistanceMeters>4250.6077898083</DistanceMeters>
          </Trackpoint>
          <Trackpoint>
            <Time>2021-10-09T06:56:50.000Z</Time>
            <Position>
              <LatitudeDegrees>39.47146631777286529541015625</LatitudeDegrees>
              <LongitudeDegrees>-0.475669316947460174560546875</LongitudeDegrees>
            </Position>
            <AltitudeMeters>70.8000030517578125</AltitudeMeters>
            <DistanceMeters>4257.9844584772</DistanceMeters>
          </Trackpoint>
          <Trackpoint>
            <Time>2021-10-09T06:56:51.000Z</Time>
            <Position>
              <LatitudeDegrees>39.47140621952712535858154296875</LatitudeDegrees>
              <LongitudeDegrees>-0.4757020063698291778564453125</LongitudeDegrees>
            </Position>
            <AltitudeMeters>70.8000030517578125</AltitudeMeters>
            <DistanceMeters>4265.240169722</DistanceMeters>
          </Trackpoint>
          <Trackpoint>
            <Time>2021-10-09T06:56:52.000Z</Time>
            <Position>
              <LatitudeDegrees>39.47134352289140224456787109375</LatitudeDegrees>
              <LongitudeDegrees>-0.4757244698703289031982421875</LongitudeDegrees>
            </Position>
            <AltitudeMeters>70.8000030517578125</AltitudeMeters>
            <DistanceMeters>4272.4803074111</DistanceMeters>
          </Trackpoint>
          <Trackpoint>
            <Time>2021-10-09T06:56:53.000Z</Time>
            <Position>
              <LatitudeDegrees>39.47127881459891796112060546875</LatitudeDegrees>
              <LongitudeDegrees>-0.47574500553309917449951171875</LongitudeDegrees>
            </Position>
            <AltitudeMeters>70.59999847412109375</AltitudeMeters>
            <DistanceMeters>4279.8954362345</DistanceMeters>
          </Trackpoint>
          <Trackpoint>
            <Time>2021-10-09T06:56:54.000Z</Time>
            <Position>
              <LatitudeDegrees>39.47121628560125827789306640625</LatitudeDegrees>
              <LongitudeDegrees>-0.47577450983226299285888671875</LongitudeDegrees>
            </Position>
            <AltitudeMeters>70.40000152587890625</AltitudeMeters>
            <DistanceMeters>4287.3020356159</DistanceMeters>
          </Trackpoint>
          <Trackpoint>
            <Time>2021-10-09T06:56:55.000Z</Time>
            <Position>
              <LatitudeDegrees>39.4711585342884063720703125</LatitudeDegrees>
              <LongitudeDegrees>-0.4758206941187381744384765625</LongitudeDegrees>
            </Position>
            <AltitudeMeters>70.40000152587890625</AltitudeMeters>
            <DistanceMeters>4294.855314571</DistanceMeters>
          </Trackpoint>
          <Trackpoint>
            <Time>2021-10-09T06:56:56.000Z</Time>
            <Position>
              <LatitudeDegrees>39.471109919250011444091796875</LatitudeDegrees>
              <LongitudeDegrees>-0.47588397748768329620361328125</LongitudeDegrees>
            </Position>
            <AltitudeMeters>70.1999969482421875</AltitudeMeters>
            <DistanceMeters>4302.5260367084</DistanceMeters>
          </Trackpoint>
          <Trackpoint>
            <Time>2021-10-09T06:56:57.000Z</Time>
            <Position>
              <LatitudeDegrees>39.4710722006857395172119140625</LatitudeDegrees>
              <LongitudeDegrees>-0.47596042044460773468017578125</LongitudeDegrees>
            </Position>
            <AltitudeMeters>70.1999969482421875</AltitudeMeters>
            <DistanceMeters>4310.3211239042</DistanceMeters>
          </Trackpoint>
          <Trackpoint>
            <Time>2021-10-09T06:56:58.000Z</Time>
            <Position>
              <LatitudeDegrees>39.4710463844239711761474609375</LatitudeDegrees>
              <LongitudeDegrees>-0.47604474239051342010498046875</LongitudeDegrees>
            </Position>
            <AltitudeMeters>70.1999969482421875</AltitudeMeters>
            <DistanceMeters>4318.1150525823</DistanceMeters>
          </Trackpoint>
          <Trackpoint>
            <Time>2021-10-09T06:56:59.000Z</Time>
            <Position>
              <LatitudeDegrees>39.47102819569408893585205078125</LatitudeDegrees>
              <LongitudeDegrees>-0.47613032162189483642578125</LongitudeDegrees>
            </Position>
            <AltitudeMeters>70.1999969482421875</AltitudeMeters>
            <DistanceMeters>4325.7415014529</DistanceMeters>
          </Trackpoint>
          <Trackpoint>
            <Time>2021-10-09T06:57:00.000Z</Time>
            <Position>
              <LatitudeDegrees>39.4710131920874118804931640625</LatitudeDegrees>
              <LongitudeDegrees>-0.47621740959584712982177734375</LongitudeDegrees>
            </Position>
            <AltitudeMeters>70.1999969482421875</AltitudeMeters>
            <DistanceMeters>4333.4086911368</DistanceMeters>
          </Trackpoint>
          <Trackpoint>
            <Time>2021-10-09T06:57:01.000Z</Time>
            <Position>
              <LatitudeDegrees>39.47099735029041767120361328125</LatitudeDegrees>
              <LongitudeDegrees>-0.47630474902689456939697265625</LongitudeDegrees>
            </Position>
            <AltitudeMeters>70</AltitudeMeters>
            <DistanceMeters>4341.1175777671</DistanceMeters>
          </Trackpoint>
          <Trackpoint>
            <Time>2021-10-09T06:57:02.000Z</Time>
            <Position>
              <LatitudeDegrees>39.470981173217296600341796875</LatitudeDegrees>
              <LongitudeDegrees>-0.4763943515717983245849609375</LongitudeDegrees>
            </Position>
            <AltitudeMeters>70</AltitudeMeters>
            <DistanceMeters>4349.0236633437</DistanceMeters>
          </Trackpoint>
          <Trackpoint>
            <Time>2021-10-09T06:57:03.000Z</Time>
            <Position>
              <LatitudeDegrees>39.47096181102097034454345703125</LatitudeDegrees>
              <LongitudeDegrees>-0.476484037935733795166015625</LongitudeDegrees>
            </Position>
            <AltitudeMeters>70</AltitudeMeters>
            <DistanceMeters>4357.0251158361</DistanceMeters>
          </Trackpoint>
          <Trackpoint>
            <Time>2021-10-09T06:57:04.000Z</Time>
            <Position>
              <LatitudeDegrees>39.47093817405402660369873046875</LatitudeDegrees>
              <LongitudeDegrees>-0.4765727184712886810302734375</LongitudeDegrees>
            </Position>
            <AltitudeMeters>70</AltitudeMeters>
            <DistanceMeters>4365.0850395291</DistanceMeters>
          </Trackpoint>
          <Trackpoint>
            <Time>2021-10-09T06:57:05.000Z</Time>
            <Position>
              <LatitudeDegrees>39.47090833447873592376708984375</LatitudeDegrees>
              <LongitudeDegrees>-0.476659722626209259033203125</LongitudeDegrees>
            </Position>
            <AltitudeMeters>69.8000030517578125</AltitudeMeters>
            <DistanceMeters>4373.2650680407</DistanceMeters>
          </Trackpoint>
          <Trackpoint>
            <Time>2021-10-09T06:57:06.000Z</Time>
            <Position>
              <LatitudeDegrees>39.47087497450411319732666015625</LatitudeDegrees>
              <LongitudeDegrees>-0.4767430387437343597412109375</LongitudeDegrees>
            </Position>
            <AltitudeMeters>69.8000030517578125</AltitudeMeters>
            <DistanceMeters>4381.3294719585</DistanceMeters>
          </Trackpoint>
          <Trackpoint>
            <Time>2021-10-09T06:57:07.000Z</Time>
            <Position>
              <LatitudeDegrees>39.4708442129194736480712890625</LatitudeDegrees>
              <LongitudeDegrees>-0.476824678480625152587890625</LongitudeDegrees>
            </Position>
            <AltitudeMeters>69.8000030517578125</AltitudeMeters>
            <DistanceMeters>4389.1355564984</DistanceMeters>
          </Trackpoint>
          <Trackpoint>
            <Time>2021-10-09T06:57:08.000Z</Time>
            <Position>
              <LatitudeDegrees>39.4708130322396755218505859375</LatitudeDegrees>
              <LongitudeDegrees>-0.47690573148429393768310546875</LongitudeDegrees>
            </Position>
            <AltitudeMeters>70</AltitudeMeters>
            <DistanceMeters>4396.9161498228</DistanceMeters>
          </Trackpoint>
          <Trackpoint>
            <Time>2021-10-09T06:57:09.000Z</Time>
            <Position>
              <LatitudeDegrees>39.470781348645687103271484375</LatitudeDegrees>
              <LongitudeDegrees>-0.47698720358312129974365234375</LongitudeDegrees>
            </Position>
            <AltitudeMeters>69.8000030517578125</AltitudeMeters>
            <DistanceMeters>4404.7545578324</DistanceMeters>
          </Trackpoint>
          <Trackpoint>
            <Time>2021-10-09T06:57:10.000Z</Time>
            <Position>
              <LatitudeDegrees>39.47074958123266696929931640625</LatitudeDegrees>
              <LongitudeDegrees>-0.47707102261483669281005859375</LongitudeDegrees>
            </Position>
            <AltitudeMeters>70</AltitudeMeters>
            <DistanceMeters>4412.7774242087</DistanceMeters>
          </Trackpoint>
          <Trackpoint>
            <Time>2021-10-09T06:57:11.000Z</Time>
            <Position>
              <LatitudeDegrees>39.4707213342189788818359375</LatitudeDegrees>
              <LongitudeDegrees>-0.477156601846218109130859375</LongitudeDegrees>
            </Position>
            <AltitudeMeters>70</AltitudeMeters>
            <DistanceMeters>4420.7737965925</DistanceMeters>
          </Trackpoint>
          <Trackpoint>
            <Time>2021-10-09T06:57:12.000Z</Time>
            <Position>
              <LatitudeDegrees>39.47069585323333740234375</LatitudeDegrees>
              <LongitudeDegrees>-0.47724184580147266387939453125</LongitudeDegrees>
            </Position>
            <AltitudeMeters>70</AltitudeMeters>
            <DistanceMeters>4428.6283164546</DistanceMeters>
          </Trackpoint>
          <Trackpoint>
            <Time>2021-10-09T06:57:13.000Z</Time>
            <Position>
              <LatitudeDegrees>39.470671378076076507568359375</LatitudeDegrees>
              <LongitudeDegrees>-0.477325916290283203125</LongitudeDegrees>
            </Position>
            <AltitudeMeters>70</AltitudeMeters>
            <DistanceMeters>4436.3483232247</DistanceMeters>
          </Trackpoint>
          <Trackpoint>
            <Time>2021-10-09T06:57:14.000Z</Time>
            <Position>
              <LatitudeDegrees>39.47064547799527645111083984375</LatitudeDegrees>
              <LongitudeDegrees>-0.4774119146168231964111328125</LongitudeDegrees>
            </Position>
            <AltitudeMeters>70</AltitudeMeters>
            <DistanceMeters>4444.2800659453</DistanceMeters>
          </Trackpoint>
          <Trackpoint>
            <Time>2021-10-09T06:57:15.000Z</Time>
            <Position>
              <LatitudeDegrees>39.4706212542951107025146484375</LatitudeDegrees>
              <LongitudeDegrees>-0.47749556601047515869140625</LongitudeDegrees>
            </Position>
            <AltitudeMeters>70</AltitudeMeters>
            <DistanceMeters>4451.9566718928</DistanceMeters>
          </Trackpoint>
          <Trackpoint>
            <Time>2021-10-09T06:57:16.000Z</Time>
            <Position>
              <LatitudeDegrees>39.47059837169945240020751953125</LatitudeDegrees>
              <LongitudeDegrees>-0.47758047468960285186767578125</LongitudeDegrees>
            </Position>
            <AltitudeMeters>70</AltitudeMeters>
            <DistanceMeters>4459.6836936636</DistanceMeters>
          </Trackpoint>
          <Trackpoint>
            <Time>2021-10-09T06:57:17.000Z</Time>
            <Position>
              <LatitudeDegrees>39.4705738127231597900390625</LatitudeDegrees>
              <LongitudeDegrees>-0.4776660539209842681884765625</LongitudeDegrees>
            </Position>
            <AltitudeMeters>70</AltitudeMeters>
            <DistanceMeters>4467.528435276</DistanceMeters>
          </Trackpoint>
          <Trackpoint>
            <Time>2021-10-09T06:57:18.000Z</Time>
            <Position>
              <LatitudeDegrees>39.470547996461391448974609375</LatitudeDegrees>
              <LongitudeDegrees>-0.47775096260011196136474609375</LongitudeDegrees>
            </Position>
            <AltitudeMeters>70</AltitudeMeters>
            <DistanceMeters>4475.3691470059</DistanceMeters>
          </Trackpoint>
          <Trackpoint>
            <Time>2021-10-09T06:57:19.000Z</Time>
            <Position>
              <LatitudeDegrees>39.47052410803735256195068359375</LatitudeDegrees>
              <LongitudeDegrees>-0.47783352434635162353515625</LongitudeDegrees>
            </Position>
            <AltitudeMeters>70</AltitudeMeters>
            <DistanceMeters>4482.945106739</DistanceMeters>
          </Trackpoint>
          <Trackpoint>
            <Time>2021-10-09T06:57:20.000Z</Time>
            <Position>
              <LatitudeDegrees>39.4704995490610599517822265625</LatitudeDegrees>
              <LongitudeDegrees>-0.47791809774935245513916015625</LongitudeDegrees>
            </Position>
            <AltitudeMeters>70</AltitudeMeters>
            <DistanceMeters>4490.7094348065</DistanceMeters>
          </Trackpoint>
          <Trackpoint>
            <Time>2021-10-09T06:57:21.000Z</Time>
            <Position>
              <LatitudeDegrees>39.470476247370243072509765625</LatitudeDegrees>
              <LongitudeDegrees>-0.4780020006000995635986328125</LongitudeDegrees>
            </Position>
            <AltitudeMeters>69.8000030517578125</AltitudeMeters>
            <DistanceMeters>4498.3707334487</DistanceMeters>
          </Trackpoint>
          <Trackpoint>
            <Time>2021-10-09T06:57:22.000Z</Time>
            <Position>
              <LatitudeDegrees>39.47045302949845790863037109375</LatitudeDegrees>
              <LongitudeDegrees>-0.478085316717624664306640625</LongitudeDegrees>
            </Position>
            <AltitudeMeters>69.8000030517578125</AltitudeMeters>
            <DistanceMeters>4505.981774139</DistanceMeters>
          </Trackpoint>
          <Trackpoint>
            <Time>2021-10-09T06:57:23.000Z</Time>
            <Position>
              <LatitudeDegrees>39.47042821906507015228271484375</LatitudeDegrees>
              <LongitudeDegrees>-0.4781686328351497650146484375</LongitudeDegrees>
            </Position>
            <AltitudeMeters>69.8000030517578125</AltitudeMeters>
            <DistanceMeters>4513.6548503418</DistanceMeters>
          </Trackpoint>
          <Trackpoint>
            <Time>2021-10-09T06:57:24.000Z</Time>
            <Position>
              <LatitudeDegrees>39.47040424682199954986572265625</LatitudeDegrees>
              <LongitudeDegrees>-0.47825069166719913482666015625</LongitudeDegrees>
            </Position>
            <AltitudeMeters>69.8000030517578125</AltitudeMeters>
            <DistanceMeters>4521.1937694379</DistanceMeters>
          </Trackpoint>
          <Trackpoint>
            <Time>2021-10-09T06:57:25.000Z</Time>
            <Position>
              <LatitudeDegrees>39.47038195095956325531005859375</LatitudeDegrees>
              <LongitudeDegrees>-0.47833065502345561981201171875</LongitudeDegrees>
            </Position>
            <AltitudeMeters>69.8000030517578125</AltitudeMeters>
            <DistanceMeters>4528.4984748877</DistanceMeters>
          </Trackpoint>
          <Trackpoint>
            <Time>2021-10-09T06:57:26.000Z</Time>
            <Position>
              <LatitudeDegrees>39.4703594036400318145751953125</LatitudeDegrees>
              <LongitudeDegrees>-0.47840885818004608154296875</LongitudeDegrees>
            </Position>
            <AltitudeMeters>69.8000030517578125</AltitudeMeters>
            <DistanceMeters>4535.6715757219</DistanceMeters>
          </Trackpoint>
          <Trackpoint>
            <Time>2021-10-09T06:57:27.000Z</Time>
            <Position>
              <LatitudeDegrees>39.4703369401395320892333984375</LatitudeDegrees>
              <LongitudeDegrees>-0.47848722897469997406005859375</LongitudeDegrees>
            </Position>
            <AltitudeMeters>69.8000030517578125</AltitudeMeters>
            <DistanceMeters>4542.8547405398</DistanceMeters>
          </Trackpoint>
          <Trackpoint>
            <Time>2021-10-09T06:57:28.000Z</Time>
            <Position>
              <LatitudeDegrees>39.47031321935355663299560546875</LatitudeDegrees>
              <LongitudeDegrees>-0.4785692878067493438720703125</LongitudeDegrees>
            </Position>
            <AltitudeMeters>70</AltitudeMeters>
            <DistanceMeters>4550.3834714978</DistanceMeters>
          </Trackpoint>
          <Trackpoint>
            <Time>2021-10-09T06:57:29.000Z</Time>
            <Position>
              <LatitudeDegrees>39.470289163291454315185546875</LatitudeDegrees>
              <LongitudeDegrees>-0.47864916734397411346435546875</LongitudeDegrees>
            </Position>
            <AltitudeMeters>70</AltitudeMeters>
            <DistanceMeters>4557.7503405362</DistanceMeters>
          </Trackpoint>
          <Trackpoint>
            <Time>2021-10-09T06:57:30.000Z</Time>
            <Position>
              <LatitudeDegrees>39.47026561014354228973388671875</LatitudeDegrees>
              <LongitudeDegrees>-0.4787278734147548675537109375</LongitudeDegrees>
            </Position>
            <AltitudeMeters>70</AltitudeMeters>
            <DistanceMeters>4565.0023171777</DistanceMeters>
          </Trackpoint>
          <Trackpoint>
            <Time>2021-10-09T06:57:31.000Z</Time>
            <Position>
              <LatitudeDegrees>39.470242559909820556640625</LatitudeDegrees>
              <LongitudeDegrees>-0.4788086749613285064697265625</LongitudeDegrees>
            </Position>
            <AltitudeMeters>70</AltitudeMeters>
            <DistanceMeters>4572.4034281557</DistanceMeters>
          </Trackpoint>
          <Trackpoint>
            <Time>2021-10-09T06:57:32.000Z</Time>
            <Position>
              <LatitudeDegrees>39.470221437513828277587890625</LatitudeDegrees>
              <LongitudeDegrees>-0.478889644145965576171875</LongitudeDegrees>
            </Position>
            <AltitudeMeters>70</AltitudeMeters>
            <DistanceMeters>4579.7469706608</DistanceMeters>
          </Trackpoint>
          <Trackpoint>
            <Time>2021-10-09T06:57:33.000Z</Time>
            <Position>
              <LatitudeDegrees>39.4702004827558994293212890625</LatitudeDegrees>
              <LongitudeDegrees>-0.478967092931270599365234375</LongitudeDegrees>
            </Position>
            <AltitudeMeters>70.1999969482421875</AltitudeMeters>
            <DistanceMeters>4586.7981833863</DistanceMeters>
          </Trackpoint>
          <Trackpoint>
            <Time>2021-10-09T06:57:34.000Z</Time>
            <Position>
              <LatitudeDegrees>39.470178186893463134765625</LatitudeDegrees>
              <LongitudeDegrees>-0.47904797829687595367431640625</LongitudeDegrees>
            </Position>
            <AltitudeMeters>70.40000152587890625</AltitudeMeters>
            <DistanceMeters>4594.1772999294</DistanceMeters>
          </Trackpoint>
          <Trackpoint>
            <Time>2021-10-09T06:57:35.000Z</Time>
            <Position>
              <LatitudeDegrees>39.4701515324413776397705078125</LatitudeDegrees>
              <LongitudeDegrees>-0.47913414426147937774658203125</LongitudeDegrees>
            </Position>
            <AltitudeMeters>70.40000152587890625</AltitudeMeters>
            <DistanceMeters>4602.1527534257</DistanceMeters>
          </Trackpoint>
          <Trackpoint>
            <Time>2021-10-09T06:57:36.000Z</Time>
            <Position>
              <LatitudeDegrees>39.47012722492218017578125</LatitudeDegrees>
              <LongitudeDegrees>-0.47921955585479736328125</LongitudeDegrees>
            </Position>
            <AltitudeMeters>70.59999847412109375</AltitudeMeters>
            <DistanceMeters>4609.9738619041</DistanceMeters>
          </Trackpoint>
          <Trackpoint>
            <Time>2021-10-09T06:57:37.000Z</Time>
            <Position>
              <LatitudeDegrees>39.47010249830782413482666015625</LatitudeDegrees>
              <LongitudeDegrees>-0.47930463217198848724365234375</LongitudeDegrees>
            </Position>
            <AltitudeMeters>70.59999847412109375</AltitudeMeters>
            <DistanceMeters>4617.7845722723</DistanceMeters>
          </Trackpoint>
          <Trackpoint>
            <Time>2021-10-09T06:57:38.000Z</Time>
            <Position>
              <LatitudeDegrees>39.470077939331531524658203125</LatitudeDegrees>
              <LongitudeDegrees>-0.479389540851116180419921875</LongitudeDegrees>
            </Position>
            <AltitudeMeters>70.59999847412109375</AltitudeMeters>
            <DistanceMeters>4625.5756039021</DistanceMeters>
          </Trackpoint>
          <Trackpoint>
            <Time>2021-10-09T06:57:39.000Z</Time>
            <Position>
              <LatitudeDegrees>39.47005279362201690673828125</LatitudeDegrees>
              <LongitudeDegrees>-0.479474030435085296630859375</LongitudeDegrees>
            </Position>
            <AltitudeMeters>70.59999847412109375</AltitudeMeters>
            <DistanceMeters>4633.3561972265</DistanceMeters>
          </Trackpoint>
          <Trackpoint>
            <Time>2021-10-09T06:57:40.000Z</Time>
            <Position>
              <LatitudeDegrees>39.4700293242931365966796875</LatitudeDegrees>
              <LongitudeDegrees>-0.47955818474292755126953125</LongitudeDegrees>
            </Position>
            <AltitudeMeters>70.59999847412109375</AltitudeMeters>
            <DistanceMeters>4641.0445572858</DistanceMeters>
          </Trackpoint>
          <Trackpoint>
            <Time>2021-10-09T06:57:41.000Z</Time>
            <Position>
              <LatitudeDegrees>39.47000711224973201751708984375</LatitudeDegrees>
              <LongitudeDegrees>-0.479643344879150390625</LongitudeDegrees>
            </Position>
            <AltitudeMeters>70.59999847412109375</AltitudeMeters>
            <DistanceMeters>4648.7680723527</DistanceMeters>
          </Trackpoint>
          <Trackpoint>
            <Time>2021-10-09T06:57:42.000Z</Time>
            <Position>
              <LatitudeDegrees>39.4699845649302005767822265625</LatitudeDegrees>
              <LongitudeDegrees>-0.479729175567626953125</LongitudeDegrees>
            </Position>
            <AltitudeMeters>70.59999847412109375</AltitudeMeters>
            <DistanceMeters>4656.5579448615</DistanceMeters>
          </Trackpoint>
          <Trackpoint>
            <Time>2021-10-09T06:57:43.000Z</Time>
            <Position>
              <LatitudeDegrees>39.4699604250490665435791015625</LatitudeDegrees>
              <LongitudeDegrees>-0.4798124916851520538330078125</LongitudeDegrees>
            </Position>
            <AltitudeMeters>70.59999847412109375</AltitudeMeters>
            <DistanceMeters>4664.2039055532</DistanceMeters>
          </Trackpoint>
          <Trackpoint>
            <Time>2021-10-09T06:57:44.000Z</Time>
            <Position>
              <LatitudeDegrees>39.4699346087872982025146484375</LatitudeDegrees>
              <LongitudeDegrees>-0.479897819459438323974609375</LongitudeDegrees>
            </Position>
            <AltitudeMeters>70.59999847412109375</AltitudeMeters>
            <DistanceMeters>4672.077945486</DistanceMeters>
          </Trackpoint>
          <Trackpoint>
            <Time>2021-10-09T06:57:45.000Z</Time>
            <Position>
              <LatitudeDegrees>39.46990921162068843841552734375</LatitudeDegrees>
              <LongitudeDegrees>-0.47998473979532718658447265625</LongitudeDegrees>
            </Position>
            <AltitudeMeters>70.59999847412109375</AltitudeMeters>
            <DistanceMeters>4680.0635825832</DistanceMeters>
          </Trackpoint>
          <Trackpoint>
            <Time>2021-10-09T06:57:46.000Z</Time>
            <Position>
              <LatitudeDegrees>39.46988389827311038970947265625</LatitudeDegrees>
              <LongitudeDegrees>-0.480071492493152618408203125</LongitudeDegrees>
            </Position>
            <AltitudeMeters>70.59999847412109375</AltitudeMeters>
            <DistanceMeters>4688.0322397821</DistanceMeters>
          </Trackpoint>
          <Trackpoint>
            <Time>2021-10-09T06:57:47.000Z</Time>
            <Position>
              <LatitudeDegrees>39.46986009366810321807861328125</LatitudeDegrees>
              <LongitudeDegrees>-0.4801551438868045806884765625</LongitudeDegrees>
            </Position>
            <AltitudeMeters>70.59999847412109375</AltitudeMeters>
            <DistanceMeters>4695.6923596723</DistanceMeters>
          </Trackpoint>
          <Trackpoint>
            <Time>2021-10-09T06:57:48.000Z</Time>
            <Position>
              <LatitudeDegrees>39.469837211072444915771484375</LatitudeDegrees>
              <LongitudeDegrees>-0.48023887909948825836181640625</LongitudeDegrees>
            </Position>
            <AltitudeMeters>70.59999847412109375</AltitudeMeters>
            <DistanceMeters>4703.3241348959</DistanceMeters>
          </Trackpoint>
          <Trackpoint>
            <Time>2021-10-09T06:57:49.000Z</Time>
            <Position>
              <LatitudeDegrees>39.46981583721935749053955078125</LatitudeDegrees>
              <LongitudeDegrees>-0.48032588325440883636474609375</LongitudeDegrees>
            </Position>
            <AltitudeMeters>70.8000030517578125</AltitudeMeters>
            <DistanceMeters>4711.1694520369</DistanceMeters>
          </Trackpoint>
          <Trackpoint>
            <Time>2021-10-09T06:57:50.000Z</Time>
            <Position>
              <LatitudeDegrees>39.46979203261435031890869140625</LatitudeDegrees>
              <LongitudeDegrees>-0.48041380941867828369140625</LongitudeDegrees>
            </Position>
            <AltitudeMeters>70.59999847412109375</AltitudeMeters>
            <DistanceMeters>4719.1754174752</DistanceMeters>
          </Trackpoint>
          <Trackpoint>
            <Time>2021-10-09T06:57:51.000Z</Time>
            <Position>
              <LatitudeDegrees>39.46976713836193084716796875</LatitudeDegrees>
              <LongitudeDegrees>-0.4805024899542331695556640625</LongitudeDegrees>
            </Position>
            <AltitudeMeters>70.59999847412109375</AltitudeMeters>
            <DistanceMeters>4727.2833738461</DistanceMeters>
          </Trackpoint>
          <Trackpoint>
            <Time>2021-10-09T06:57:52.000Z</Time>
            <Position>
              <LatitudeDegrees>39.46974392049014568328857421875</LatitudeDegrees>
              <LongitudeDegrees>-0.480588488280773162841796875</LongitudeDegrees>
            </Position>
            <AltitudeMeters>70.59999847412109375</AltitudeMeters>
            <DistanceMeters>4735.1114067247</DistanceMeters>
          </Trackpoint>
          <Trackpoint>
            <Time>2021-10-09T06:57:53.000Z</Time>
            <Position>
              <LatitudeDegrees>39.46971927769482135772705078125</LatitudeDegrees>
              <LongitudeDegrees>-0.48067440278828144073486328125</LongitudeDegrees>
            </Position>
            <AltitudeMeters>70.59999847412109375</AltitudeMeters>
            <DistanceMeters>4742.9854466575</DistanceMeters>
          </Trackpoint>
          <Trackpoint>
            <Time>2021-10-09T06:57:54.000Z</Time>
            <Position>
              <LatitudeDegrees>39.4696938805282115936279296875</LatitudeDegrees>
              <LongitudeDegrees>-0.4807604849338531494140625</LongitudeDegrees>
            </Position>
            <AltitudeMeters>70.59999847412109375</AltitudeMeters>
            <DistanceMeters>4750.9029456739</DistanceMeters>
          </Trackpoint>
          <Trackpoint>
            <Time>2021-10-09T06:57:55.000Z</Time>
            <Position>
              <LatitudeDegrees>39.4696697406470775604248046875</LatitudeDegrees>
              <LongitudeDegrees>-0.48084606416523456573486328125</LongitudeDegrees>
            </Position>
            <AltitudeMeters>70.8000030517578125</AltitudeMeters>
            <DistanceMeters>4758.7309785525</DistanceMeters>
          </Trackpoint>
          <Trackpoint>
            <Time>2021-10-09T06:57:56.000Z</Time>
            <Position>
              <LatitudeDegrees>39.46964283473789691925048828125</LatitudeDegrees>
              <LongitudeDegrees>-0.48093273304402828216552734375</LongitudeDegrees>
            </Position>
            <AltitudeMeters>70.8000030517578125</AltitudeMeters>
            <DistanceMeters>4766.7572208458</DistanceMeters>
          </Trackpoint>
          <Trackpoint>
            <Time>2021-10-09T06:57:57.000Z</Time>
            <Position>
              <LatitudeDegrees>39.46961785666644573211669921875</LatitudeDegrees>
              <LongitudeDegrees>-0.4810178093612194061279296875</LongitudeDegrees>
            </Position>
            <AltitudeMeters>70.8000030517578125</AltitudeMeters>
            <DistanceMeters>4774.5783293242</DistanceMeters>
          </Trackpoint>
          <Trackpoint>
            <Time>2021-10-09T06:57:58.000Z</Time>
            <Position>
              <LatitudeDegrees>39.4695932976901531219482421875</LatitudeDegrees>
              <LongitudeDegrees>-0.48110472969710826873779296875</LongitudeDegrees>
            </Position>
            <AltitudeMeters>70.8000030517578125</AltitudeMeters>
            <DistanceMeters>4782.5311059094</DistanceMeters>
          </Trackpoint>
          <Trackpoint>
            <Time>2021-10-09T06:57:59.000Z</Time>
            <Position>
              <LatitudeDegrees>39.46956731379032135009765625</LatitudeDegrees>
              <LongitudeDegrees>-0.481191314756870269775390625</LongitudeDegrees>
            </Position>
            <AltitudeMeters>70.8000030517578125</AltitudeMeters>
            <DistanceMeters>4790.5133499165</DistanceMeters>
          </Trackpoint>
          <Trackpoint>
            <Time>2021-10-09T06:58:00.000Z</Time>
            <Position>
              <LatitudeDegrees>39.46954208426177501678466796875</LatitudeDegrees>
              <LongitudeDegrees>-0.48127655871212482452392578125</LongitudeDegrees>
            </Position>
            <AltitudeMeters>70.8000030517578125</AltitudeMeters>
            <DistanceMeters>4798.3575159581</DistanceMeters>
          </Trackpoint>
          <Trackpoint>
            <Time>2021-10-09T06:58:01.000Z</Time>
            <Position>
              <LatitudeDegrees>39.46951744146645069122314453125</LatitudeDegrees>
              <LongitudeDegrees>-0.4813612997531890869140625</LongitudeDegrees>
            </Position>
            <AltitudeMeters>70.8000030517578125</AltitudeMeters>
            <DistanceMeters>4806.1369486063</DistanceMeters>
          </Trackpoint>
          <Trackpoint>
            <Time>2021-10-09T06:58:02.000Z</Time>
            <Position>
              <LatitudeDegrees>39.46949355304241180419921875</LatitudeDegrees>
              <LongitudeDegrees>-0.48144637607038021087646484375</LongitudeDegrees>
            </Position>
            <AltitudeMeters>70.8000030517578125</AltitudeMeters>
            <DistanceMeters>4813.915220405</DistanceMeters>
          </Trackpoint>
          <Trackpoint>
            <Time>2021-10-09T06:58:03.000Z</Time>
            <Position>
              <LatitudeDegrees>39.469470083713531494140625</LatitudeDegrees>
              <LongitudeDegrees>-0.4815321229398250579833984375</LongitudeDegrees>
            </Position>
            <AltitudeMeters>71</AltitudeMeters>
            <DistanceMeters>4821.7322868174</DistanceMeters>
          </Trackpoint>
          <Trackpoint>
            <Time>2021-10-09T06:58:04.000Z</Time>
            <Position>
              <LatitudeDegrees>39.46944527328014373779296875</LatitudeDegrees>
              <LongitudeDegrees>-0.48161652870476245880126953125</LongitudeDegrees>
            </Position>
            <AltitudeMeters>71</AltitudeMeters>
            <DistanceMeters>4829.4931250377</DistanceMeters>
          </Trackpoint>
          <Trackpoint>
            <Time>2021-10-09T06:58:05.000Z</Time>
            <Position>
              <LatitudeDegrees>39.46942121721804141998291015625</LatitudeDegrees>
              <LongitudeDegrees>-0.4816980846226215362548828125</LongitudeDegrees>
            </Position>
            <AltitudeMeters>71</AltitudeMeters>
            <DistanceMeters>4836.994820606</DistanceMeters>
          </Trackpoint>
          <Trackpoint>
            <Time>2021-10-09T06:58:06.000Z</Time>
            <Position>
              <LatitudeDegrees>39.46939758025109767913818359375</LatitudeDegrees>
              <LongitudeDegrees>-0.48178232274949550628662109375</LongitudeDegrees>
            </Position>
            <AltitudeMeters>71</AltitudeMeters>
            <DistanceMeters>4844.6955031736</DistanceMeters>
          </Trackpoint>
          <Trackpoint>
            <Time>2021-10-09T06:58:07.000Z</Time>
            <Position>
              <LatitudeDegrees>39.46937511675059795379638671875</LatitudeDegrees>
              <LongitudeDegrees>-0.48186664469540119171142578125</LongitudeDegrees>
            </Position>
            <AltitudeMeters>71</AltitudeMeters>
            <DistanceMeters>4852.3597479027</DistanceMeters>
          </Trackpoint>
          <Trackpoint>
            <Time>2021-10-09T06:58:08.000Z</Time>
            <Position>
              <LatitudeDegrees>39.4693529047071933746337890625</LatitudeDegrees>
              <LongitudeDegrees>-0.48195096664130687713623046875</LongitudeDegrees>
            </Position>
            <AltitudeMeters>71</AltitudeMeters>
            <DistanceMeters>4860.0151509699</DistanceMeters>
          </Trackpoint>
          <Trackpoint>
            <Time>2021-10-09T06:58:09.000Z</Time>
            <Position>
              <LatitudeDegrees>39.46932951919734477996826171875</LatitudeDegrees>
              <LongitudeDegrees>-0.48203545622527599334716796875</LongitudeDegrees>
            </Position>
            <AltitudeMeters>71</AltitudeMeters>
            <DistanceMeters>4867.7269655074</DistanceMeters>
          </Trackpoint>
          <Trackpoint>
            <Time>2021-10-09T06:58:10.000Z</Time>
            <Position>
              <LatitudeDegrees>39.46930487640202045440673828125</LatitudeDegrees>
              <LongitudeDegrees>-0.48211927525699138641357421875</LongitudeDegrees>
            </Position>
            <AltitudeMeters>71</AltitudeMeters>
            <DistanceMeters>4875.4335090109</DistanceMeters>
          </Trackpoint>
          <Trackpoint>
            <Time>2021-10-09T06:58:11.000Z</Time>
            <Position>
              <LatitudeDegrees>39.469279982149600982666015625</LatitudeDegrees>
              <LongitudeDegrees>-0.48220359720289707183837890625</LongitudeDegrees>
            </Position>
            <AltitudeMeters>71</AltitudeMeters>
            <DistanceMeters>4883.1896916589</DistanceMeters>
          </Trackpoint>
          <Trackpoint>
            <Time>2021-10-09T06:58:12.000Z</Time>
            <Position>
              <LatitudeDegrees>39.46925542317330837249755859375</LatitudeDegrees>
              <LongitudeDegrees>-0.48229093663394451141357421875</LongitudeDegrees>
            </Position>
            <AltitudeMeters>71</AltitudeMeters>
            <DistanceMeters>4891.1764594657</DistanceMeters>
          </Trackpoint>
          <Trackpoint>
            <Time>2021-10-09T06:58:13.000Z</Time>
            <Position>
              <LatitudeDegrees>39.469231031835079193115234375</LatitudeDegrees>
              <LongitudeDegrees>-0.48237676732242107391357421875</LongitudeDegrees>
            </Position>
            <AltitudeMeters>71</AltitudeMeters>
            <DistanceMeters>4899.0344275698</DistanceMeters>
          </Trackpoint>
          <Trackpoint>
            <Time>2021-10-09T06:58:14.000Z</Time>
            <Position>
              <LatitudeDegrees>39.46920580230653285980224609375</LatitudeDegrees>
              <LongitudeDegrees>-0.48246301710605621337890625</LongitudeDegrees>
            </Position>
            <AltitudeMeters>71</AltitudeMeters>
            <DistanceMeters>4906.9587667593</DistanceMeters>
          </Trackpoint>
          <Trackpoint>
            <Time>2021-10-09T06:58:15.000Z</Time>
            <Position>
              <LatitudeDegrees>39.46917981840670108795166015625</LatitudeDegrees>
              <LongitudeDegrees>-0.482547841966152191162109375</LongitudeDegrees>
            </Position>
            <AltitudeMeters>71</AltitudeMeters>
            <DistanceMeters>4914.8000543135</DistanceMeters>
          </Trackpoint>
          <Trackpoint>
            <Time>2021-10-09T06:58:16.000Z</Time>
            <Position>
              <LatitudeDegrees>39.46915316395461559295654296875</LatitudeDegrees>
              <LongitudeDegrees>-0.4826338402926921844482421875</LongitudeDegrees>
            </Position>
            <AltitudeMeters>71.1999969482421875</AltitudeMeters>
            <DistanceMeters>4922.7619094137</DistanceMeters>
          </Trackpoint>
          <Trackpoint>
            <Time>2021-10-09T06:58:17.000Z</Time>
            <Position>
              <LatitudeDegrees>39.46912751533091068267822265625</LatitudeDegrees>
              <LongitudeDegrees>-0.482718832790851593017578125</LongitudeDegrees>
            </Position>
            <AltitudeMeters>71.1999969482421875</AltitudeMeters>
            <DistanceMeters>4930.6026211435</DistanceMeters>
          </Trackpoint>
          <Trackpoint>
            <Time>2021-10-09T06:58:18.000Z</Time>
            <Position>
              <LatitudeDegrees>39.46910153143107891082763671875</LatitudeDegrees>
              <LongitudeDegrees>-0.48280273564159870147705078125</LongitudeDegrees>
            </Position>
            <AltitudeMeters>71.1999969482421875</AltitudeMeters>
            <DistanceMeters>4938.3704374904</DistanceMeters>
          </Trackpoint>
          <Trackpoint>
            <Time>2021-10-09T06:58:19.000Z</Time>
            <Position>
              <LatitudeDegrees>39.469075463712215423583984375</LatitudeDegrees>
              <LongitudeDegrees>-0.48288806341588497161865234375</LongitudeDegrees>
            </Position>
            <AltitudeMeters>71.1999969482421875</AltitudeMeters>
            <DistanceMeters>4946.2547920131</DistanceMeters>
          </Trackpoint>
          <Trackpoint>
            <Time>2021-10-09T06:58:20.000Z</Time>
            <Position>
              <LatitudeDegrees>39.4690514914691448211669921875</LatitudeDegrees>
              <LongitudeDegrees>-0.4829697869718074798583984375</LongitudeDegrees>
            </Position>
            <AltitudeMeters>71.1999969482421875</AltitudeMeters>
            <DistanceMeters>4953.7661113128</DistanceMeters>
          </Trackpoint>
          <Trackpoint>
            <Time>2021-10-09T06:58:21.000Z</Time>
            <Position>
              <LatitudeDegrees>39.46902894414961338043212890625</LatitudeDegrees>
              <LongitudeDegrees>-0.48305368982255458831787109375</LongitudeDegrees>
            </Position>
            <AltitudeMeters>71.1999969482421875</AltitudeMeters>
            <DistanceMeters>4961.4002526116</DistanceMeters>
          </Trackpoint>
          <Trackpoint>
            <Time>2021-10-09T06:58:22.000Z</Time>
            <Position>
              <LatitudeDegrees>39.46900715120136737823486328125</LatitudeDegrees>
              <LongitudeDegrees>-0.48314035870134830474853515625</LongitudeDegrees>
            </Position>
            <AltitudeMeters>71.1999969482421875</AltitudeMeters>
            <DistanceMeters>4969.2317453944</DistanceMeters>
          </Trackpoint>
          <Trackpoint>
            <Time>2021-10-09T06:58:23.000Z</Time>
            <Position>
              <LatitudeDegrees>39.46898736990988254547119140625</LatitudeDegrees>
              <LongitudeDegrees>-0.4832286201417446136474609375</LongitudeDegrees>
            </Position>
            <AltitudeMeters>71.1999969482421875</AltitudeMeters>
            <DistanceMeters>4977.1286883422</DistanceMeters>
          </Trackpoint>
          <Trackpoint>
            <Time>2021-10-09T06:58:24.000Z</Time>
            <Position>
              <LatitudeDegrees>39.468965493142604827880859375</LatitudeDegrees>
              <LongitudeDegrees>-0.4833164624869823455810546875</LongitudeDegrees>
            </Position>
            <AltitudeMeters>71.1999969482421875</AltitudeMeters>
            <DistanceMeters>4985.0598618058</DistanceMeters>
          </Trackpoint>
          <Trackpoint>
            <Time>2021-10-09T06:58:25.000Z</Time>
            <Position>
              <LatitudeDegrees>39.46894235908985137939453125</LatitudeDegrees>
              <LongitudeDegrees>-0.483401454985141754150390625</LongitudeDegrees>
            </Position>
            <AltitudeMeters>71.1999969482421875</AltitudeMeters>
            <DistanceMeters>4992.8038102602</DistanceMeters>
          </Trackpoint>
          <Trackpoint>
            <Time>2021-10-09T06:58:26.000Z</Time>
            <Position>
              <LatitudeDegrees>39.46891612373292446136474609375</LatitudeDegrees>
              <LongitudeDegrees>-0.48348368145525455474853515625</LongitudeDegrees>
            </Position>
            <AltitudeMeters>71.1999969482421875</AltitudeMeters>
            <DistanceMeters>5000.4485898348</DistanceMeters>
          </Trackpoint>
          <Trackpoint>
            <Time>2021-10-09T06:58:27.000Z</Time>
            <Position>
              <LatitudeDegrees>39.4688915647566318511962890625</LatitudeDegrees>
              <LongitudeDegrees>-0.48356498591601848602294921875</LongitudeDegrees>
            </Position>
            <AltitudeMeters>71.40000152587890625</AltitudeMeters>
            <DistanceMeters>5007.9502854031</DistanceMeters>
          </Trackpoint>
          <Trackpoint>
            <Time>2021-10-09T06:58:28.000Z</Time>
            <Position>
              <LatitudeDegrees>39.46886750869452953338623046875</LatitudeDegrees>
              <LongitudeDegrees>-0.48364662565290927886962890625</LongitudeDegrees>
            </Position>
            <AltitudeMeters>71.40000152587890625</AltitudeMeters>
            <DistanceMeters>5015.4579972491</DistanceMeters>
          </Trackpoint>
          <Trackpoint>
            <Time>2021-10-09T06:58:29.000Z</Time>
            <Position>
              <LatitudeDegrees>39.46884353645145893096923828125</LatitudeDegrees>
              <LongitudeDegrees>-0.48373036086559295654296875</LongitudeDegrees>
            </Position>
            <AltitudeMeters>71.40000152587890625</AltitudeMeters>
            <DistanceMeters>5023.131073452</DistanceMeters>
          </Trackpoint>
          <Trackpoint>
            <Time>2021-10-09T06:58:30.000Z</Time>
            <Position>
              <LatitudeDegrees>39.46882140822708606719970703125</LatitudeDegrees>
              <LongitudeDegrees>-0.48381292261183261871337890625</LongitudeDegrees>
            </Position>
            <AltitudeMeters>71.40000152587890625</AltitudeMeters>
            <DistanceMeters>5030.6399879751</DistanceMeters>
          </Trackpoint>
          <Trackpoint>
            <Time>2021-10-09T06:58:31.000Z</Time>
            <Position>
              <LatitudeDegrees>39.46879525668919086456298828125</LatitudeDegrees>
              <LongitudeDegrees>-0.483899004757404327392578125</LongitudeDegrees>
            </Position>
            <AltitudeMeters>71.59999847412109375</AltitudeMeters>
            <DistanceMeters>5038.5882214142</DistanceMeters>
          </Trackpoint>
          <Trackpoint>
            <Time>2021-10-09T06:58:32.000Z</Time>
            <Position>
              <LatitudeDegrees>39.4687686860561370849609375</LatitudeDegrees>
              <LongitudeDegrees>-0.4839839972555637359619140625</LongitudeDegrees>
            </Position>
            <AltitudeMeters>71.8000030517578125</AltitudeMeters>
            <DistanceMeters>5046.4668472763</DistanceMeters>
          </Trackpoint>
          <Trackpoint>
            <Time>2021-10-09T06:58:33.000Z</Time>
            <Position>
              <LatitudeDegrees>39.46874521672725677490234375</LatitudeDegrees>
              <LongitudeDegrees>-0.484069325029850006103515625</LongitudeDegrees>
            </Position>
            <AltitudeMeters>71.8000030517578125</AltitudeMeters>
            <DistanceMeters>5054.249761434</DistanceMeters>
          </Trackpoint>
          <Trackpoint>
            <Time>2021-10-09T06:58:34.000Z</Time>
            <Position>
              <LatitudeDegrees>39.46872099302709102630615234375</LatitudeDegrees>
              <LongitudeDegrees>-0.4841533116996288299560546875</LongitudeDegrees>
            </Position>
            <AltitudeMeters>71.8000030517578125</AltitudeMeters>
            <DistanceMeters>5061.953375027</DistanceMeters>
          </Trackpoint>
          <Trackpoint>
            <Time>2021-10-09T06:58:35.000Z</Time>
            <Position>
              <LatitudeDegrees>39.46869433857500553131103515625</LatitudeDegrees>
              <LongitudeDegrees>-0.484237968921661376953125</LongitudeDegrees>
            </Position>
            <AltitudeMeters>71.8000030517578125</AltitudeMeters>
            <DistanceMeters>5069.8090444713</DistanceMeters>
          </Trackpoint>
          <Trackpoint>
            <Time>2021-10-09T06:58:36.000Z</Time>
            <Position>
              <LatitudeDegrees>39.468667097389698028564453125</LatitudeDegrees>
              <LongitudeDegrees>-0.4843219555914402008056640625</LongitudeDegrees>
            </Position>
            <AltitudeMeters>72</AltitudeMeters>
            <DistanceMeters>5077.6359237086</DistanceMeters>
          </Trackpoint>
          <Trackpoint>
            <Time>2021-10-09T06:58:37.000Z</Time>
            <Position>
              <LatitudeDegrees>39.468640945851802825927734375</LatitudeDegrees>
              <LongitudeDegrees>-0.48440753482282161712646484375</LongitudeDegrees>
            </Position>
            <AltitudeMeters>72</AltitudeMeters>
            <DistanceMeters>5085.5437223514</DistanceMeters>
          </Trackpoint>
          <Trackpoint>
            <Time>2021-10-09T06:58:38.000Z</Time>
            <Position>
              <LatitudeDegrees>39.46861605159938335418701171875</LatitudeDegrees>
              <LongitudeDegrees>-0.48449185676872730255126953125</LongitudeDegrees>
            </Position>
            <AltitudeMeters>72</AltitudeMeters>
            <DistanceMeters>5093.3004870988</DistanceMeters>
          </Trackpoint>
          <Trackpoint>
            <Time>2021-10-09T06:58:39.000Z</Time>
            <Position>
              <LatitudeDegrees>39.468589983880519866943359375</LatitudeDegrees>
              <LongitudeDegrees>-0.48457466997206211090087890625</LongitudeDegrees>
            </Position>
            <AltitudeMeters>72</AltitudeMeters>
            <DistanceMeters>5100.9853228123</DistanceMeters>
          </Trackpoint>
          <Trackpoint>
            <Time>2021-10-09T06:58:40.000Z</Time>
            <Position>
              <LatitudeDegrees>39.46856282651424407958984375</LatitudeDegrees>
              <LongitudeDegrees>-0.4846555553376674652099609375</LongitudeDegrees>
            </Position>
            <AltitudeMeters>72.1999969482421875</AltitudeMeters>
            <DistanceMeters>5108.563666047</DistanceMeters>
          </Trackpoint>
          <Trackpoint>
            <Time>2021-10-09T06:58:41.000Z</Time>
            <Position>
              <LatitudeDegrees>39.468537680804729461669921875</LatitudeDegrees>
              <LongitudeDegrees>-0.484736524522304534912109375</LongitudeDegrees>
            </Position>
            <AltitudeMeters>72.1999969482421875</AltitudeMeters>
            <DistanceMeters>5116.0623516663</DistanceMeters>
          </Trackpoint>
          <Trackpoint>
            <Time>2021-10-09T06:58:42.000Z</Time>
            <Position>
              <LatitudeDegrees>39.4685138761997222900390625</LatitudeDegrees>
              <LongitudeDegrees>-0.48481808044016361236572265625</LongitudeDegrees>
            </Position>
            <AltitudeMeters>72.40000152587890625</AltitudeMeters>
            <DistanceMeters>5123.5538084738</DistanceMeters>
          </Trackpoint>
          <Trackpoint>
            <Time>2021-10-09T06:58:43.000Z</Time>
            <Position>
              <LatitudeDegrees>39.46849040687084197998046875</LatitudeDegrees>
              <LongitudeDegrees>-0.48489787615835666656494140625</LongitudeDegrees>
            </Position>
            <AltitudeMeters>72.40000152587890625</AltitudeMeters>
            <DistanceMeters>5130.8905847197</DistanceMeters>
          </Trackpoint>
          <Trackpoint>
            <Time>2021-10-09T06:58:44.000Z</Time>
            <Position>
              <LatitudeDegrees>39.46846618317067623138427734375</LatitudeDegrees>
              <LongitudeDegrees>-0.484978593885898590087890625</LongitudeDegrees>
            </Position>
            <AltitudeMeters>72.40000152587890625</AltitudeMeters>
            <DistanceMeters>5138.3318499854</DistanceMeters>
          </Trackpoint>
          <Trackpoint>
            <Time>2021-10-09T06:58:45.000Z</Time>
            <Position>
              <LatitudeDegrees>39.468443132936954498291015625</LatitudeDegrees>
              <LongitudeDegrees>-0.485058389604091644287109375</LongitudeDegrees>
            </Position>
            <AltitudeMeters>72.59999847412109375</AltitudeMeters>
            <DistanceMeters>5145.6532251138</DistanceMeters>
          </Trackpoint>
          <Trackpoint>
            <Time>2021-10-09T06:58:46.000Z</Time>
            <Position>
              <LatitudeDegrees>39.46841890923678874969482421875</LatitudeDegrees>
              <LongitudeDegrees>-0.48513608984649181365966796875</LongitudeDegrees>
            </Position>
            <AltitudeMeters>72.59999847412109375</AltitudeMeters>
            <DistanceMeters>5152.8539680575</DistanceMeters>
          </Trackpoint>
          <Trackpoint>
            <Time>2021-10-09T06:58:47.000Z</Time>
            <Position>
              <LatitudeDegrees>39.4683973677456378936767578125</LatitudeDegrees>
              <LongitudeDegrees>-0.4852141253650188446044921875</LongitudeDegrees>
            </Position>
            <AltitudeMeters>72.59999847412109375</AltitudeMeters>
            <DistanceMeters>5159.9752677499</DistanceMeters>
          </Trackpoint>
          <Trackpoint>
            <Time>2021-10-09T06:58:48.000Z</Time>
            <Position>
              <LatitudeDegrees>39.46837582625448703765869140625</LatitudeDegrees>
              <LongitudeDegrees>-0.48529216088354587554931640625</LongitudeDegrees>
            </Position>
            <AltitudeMeters>72.8000030517578125</AltitudeMeters>
            <DistanceMeters>5167.0965674424</DistanceMeters>
          </Trackpoint>
          <Trackpoint>
            <Time>2021-10-09T06:58:49.000Z</Time>
            <Position>
              <LatitudeDegrees>39.46835202164947986602783203125</LatitudeDegrees>
              <LongitudeDegrees>-0.4853703640401363372802734375</LongitudeDegrees>
            </Position>
            <AltitudeMeters>72.8000030517578125</AltitudeMeters>
            <DistanceMeters>5174.3192228832</DistanceMeters>
          </Trackpoint>
          <Trackpoint>
            <Time>2021-10-09T06:58:50.000Z</Time>
            <Position>
              <LatitudeDegrees>39.4683356769382953643798828125</LatitudeDegrees>
              <LongitudeDegrees>-0.48545158468186855316162109375</LongitudeDegrees>
            </Position>
            <AltitudeMeters>73</AltitudeMeters>
            <DistanceMeters>5181.5312434265</DistanceMeters>
          </Trackpoint>
          <Trackpoint>
            <Time>2021-10-09T06:58:51.000Z</Time>
            <Position>
              <LatitudeDegrees>39.46833643130958080291748046875</LatitudeDegrees>
              <LongitudeDegrees>-0.48553657718002796173095703125</LongitudeDegrees>
            </Position>
            <AltitudeMeters>73</AltitudeMeters>
            <DistanceMeters>5188.8347125716</DistanceMeters>
          </Trackpoint>
          <Trackpoint>
            <Time>2021-10-09T06:58:52.000Z</Time>
            <Position>
              <LatitudeDegrees>39.46835705079138278961181640625</LatitudeDegrees>
              <LongitudeDegrees>-0.48561855219304561614990234375</LongitudeDegrees>
            </Position>
            <AltitudeMeters>73.1999969482421875</AltitudeMeters>
            <DistanceMeters>5196.2431405173</DistanceMeters>
          </Trackpoint>
          <Trackpoint>
            <Time>2021-10-09T06:58:53.000Z</Time>
            <Position>
              <LatitudeDegrees>39.4683842919766902923583984375</LatitudeDegrees>
              <LongitudeDegrees>-0.48570069484412670135498046875</LongitudeDegrees>
            </Position>
            <AltitudeMeters>73.1999969482421875</AltitudeMeters>
            <DistanceMeters>5203.9256257687</DistanceMeters>
          </Trackpoint>
          <Trackpoint>
            <Time>2021-10-09T06:58:54.000Z</Time>
            <Position>
              <LatitudeDegrees>39.46840382181107997894287109375</LatitudeDegrees>
              <LongitudeDegrees>-0.48578501679003238677978515625</LongitudeDegrees>
            </Position>
            <AltitudeMeters>73.1999969482421875</AltitudeMeters>
            <DistanceMeters>5211.4896567277</DistanceMeters>
          </Trackpoint>
          <Trackpoint>
            <Time>2021-10-09T06:58:55.000Z</Time>
            <Position>
              <LatitudeDegrees>39.46841262280941009521484375</LatitudeDegrees>
              <LongitudeDegrees>-0.48587135039269924163818359375</LongitudeDegrees>
            </Position>
            <AltitudeMeters>73.1999969482421875</AltitudeMeters>
            <DistanceMeters>5218.9720676996</DistanceMeters>
          </Trackpoint>
          <Trackpoint>
            <Time>2021-10-09T06:58:56.000Z</Time>
            <Position>
              <LatitudeDegrees>39.46841035969555377960205078125</LatitudeDegrees>
              <LongitudeDegrees>-0.48595885746181011199951171875</LongitudeDegrees>
            </Position>
            <AltitudeMeters>73.1999969482421875</AltitudeMeters>
            <DistanceMeters>5226.4947991899</DistanceMeters>
          </Trackpoint>
          <Trackpoint>
            <Time>2021-10-09T06:58:57.000Z</Time>
            <Position>
              <LatitudeDegrees>39.46839828975498676300048828125</LatitudeDegrees>
              <LongitudeDegrees>-0.486042760312557220458984375</LongitudeDegrees>
            </Position>
            <AltitudeMeters>73.40000152587890625</AltitudeMeters>
            <DistanceMeters>5233.8284977997</DistanceMeters>
          </Trackpoint>
          <Trackpoint>
            <Time>2021-10-09T06:58:58.000Z</Time>
            <Position>
              <LatitudeDegrees>39.46837666444480419158935546875</LatitudeDegrees>
              <LongitudeDegrees>-0.4861217178404331207275390625</LongitudeDegrees>
            </Position>
            <AltitudeMeters>73.40000152587890625</AltitudeMeters>
            <DistanceMeters>5241.0273594258</DistanceMeters>
          </Trackpoint>
          <Trackpoint>
            <Time>2021-10-09T06:58:59.000Z</Time>
            <Position>
              <LatitudeDegrees>39.46834682486951351165771484375</LatitudeDegrees>
              <LongitudeDegrees>-0.486196987330913543701171875</LongitudeDegrees>
            </Position>
            <AltitudeMeters>73.40000152587890625</AltitudeMeters>
            <DistanceMeters>5248.2979899008</DistanceMeters>
          </Trackpoint>
          <Trackpoint>
            <Time>2021-10-09T06:59:00.000Z</Time>
            <Position>
              <LatitudeDegrees>39.46831128560006618499755859375</LatitudeDegrees>
              <LongitudeDegrees>-0.486268736422061920166015625</LongitudeDegrees>
            </Position>
            <AltitudeMeters>73.40000152587890625</AltitudeMeters>
            <DistanceMeters>5255.6230642506</DistanceMeters>
          </Trackpoint>
          <Trackpoint>
            <Time>2021-10-09T06:59:01.000Z</Time>
            <Position>
              <LatitudeDegrees>39.468279518187046051025390625</LatitudeDegrees>
              <LongitudeDegrees>-0.48634308390319347381591796875</LongitudeDegrees>
            </Position>
            <AltitudeMeters>73.40000152587890625</AltitudeMeters>
            <DistanceMeters>5262.9246785464</DistanceMeters>
          </Trackpoint>
          <Trackpoint>
            <Time>2021-10-09T06:59:02.000Z</Time>
            <Position>
              <LatitudeDegrees>39.46825479157269001007080078125</LatitudeDegrees>
              <LongitudeDegrees>-0.48642237670719623565673828125</LongitudeDegrees>
            </Position>
            <AltitudeMeters>73.40000152587890625</AltitudeMeters>
            <DistanceMeters>5270.2719091118</DistanceMeters>
          </Trackpoint>
          <Trackpoint>
            <Time>2021-10-09T06:59:03.000Z</Time>
            <Position>
              <LatitudeDegrees>39.4682374410331249237060546875</LatitudeDegrees>
              <LongitudeDegrees>-0.48650451935827732086181640625</LongitudeDegrees>
            </Position>
            <AltitudeMeters>73.40000152587890625</AltitudeMeters>
            <DistanceMeters>5277.5895831489</DistanceMeters>
          </Trackpoint>
          <Trackpoint>
            <Time>2021-10-09T06:59:04.000Z</Time>
            <Position>
              <LatitudeDegrees>39.4682273827493190765380859375</LatitudeDegrees>
              <LongitudeDegrees>-0.486589260399341583251953125</LongitudeDegrees>
            </Position>
            <AltitudeMeters>73.40000152587890625</AltitudeMeters>
            <DistanceMeters>5284.9564521873</DistanceMeters>
          </Trackpoint>
          <Trackpoint>
            <Time>2021-10-09T06:59:05.000Z</Time>
            <Position>
              <LatitudeDegrees>39.468225538730621337890625</LatitudeDegrees>
              <LongitudeDegrees>-0.48667316325008869171142578125</LongitudeDegrees>
            </Position>
            <AltitudeMeters>73.40000152587890625</AltitudeMeters>
            <DistanceMeters>5292.1684727306</DistanceMeters>
          </Trackpoint>
          <Trackpoint>
            <Time>2021-10-09T06:59:06.000Z</Time>
            <Position>
              <LatitudeDegrees>39.46822746656835079193115234375</LatitudeDegrees>
              <LongitudeDegrees>-0.48675714991986751556396484375</LongitudeDegrees>
            </Position>
            <AltitudeMeters>73.40000152587890625</AltitudeMeters>
            <DistanceMeters>5299.3880018866</DistanceMeters>
          </Trackpoint>
          <Trackpoint>
            <Time>2021-10-09T06:59:07.000Z</Time>
            <Position>
              <LatitudeDegrees>39.46823249571025371551513671875</LatitudeDegrees>
              <LongitudeDegrees>-0.4868392087519168853759765625</LongitudeDegrees>
            </Position>
            <AltitudeMeters>73.40000152587890625</AltitudeMeters>
            <DistanceMeters>5306.4609520136</DistanceMeters>
          </Trackpoint>
          <Trackpoint>
            <Time>2021-10-09T06:59:08.000Z</Time>
            <Position>
              <LatitudeDegrees>39.46823702193796634674072265625</LatitudeDegrees>
              <LongitudeDegrees>-0.48692327924072742462158203125</LongitudeDegrees>
            </Position>
            <AltitudeMeters>73.40000152587890625</AltitudeMeters>
            <DistanceMeters>5313.7010897027</DistanceMeters>
          </Trackpoint>
          <Trackpoint>
            <Time>2021-10-09T06:59:09.000Z</Time>
            <Position>
              <LatitudeDegrees>39.4682411290705204010009765625</LatitudeDegrees>
              <LongitudeDegrees>-0.48700558952987194061279296875</LongitudeDegrees>
            </Position>
            <AltitudeMeters>73.40000152587890625</AltitudeMeters>
            <DistanceMeters>5320.7880696788</DistanceMeters>
          </Trackpoint>
          <Trackpoint>
            <Time>2021-10-09T06:59:10.000Z</Time>
            <Position>
              <LatitudeDegrees>39.468245990574359893798828125</LatitudeDegrees>
              <LongitudeDegrees>-0.487088151276111602783203125</LongitudeDegrees>
            </Position>
            <AltitudeMeters>73.40000152587890625</AltitudeMeters>
            <DistanceMeters>5327.9023917455</DistanceMeters>
          </Trackpoint>
          <Trackpoint>
            <Time>2021-10-09T06:59:11.000Z</Time>
            <Position>
              <LatitudeDegrees>39.46825261227786540985107421875</LatitudeDegrees>
              <LongitudeDegrees>-0.4871714673936367034912109375</LongitudeDegrees>
            </Position>
            <AltitudeMeters>73.59999847412109375</AltitudeMeters>
            <DistanceMeters>5335.0987441831</DistanceMeters>
          </Trackpoint>
          <Trackpoint>
            <Time>2021-10-09T06:59:12.000Z</Time>
            <Position>
              <LatitudeDegrees>39.46825915016233921051025390625</LatitudeDegrees>
              <LongitudeDegrees>-0.48725402913987636566162109375</LongitudeDegrees>
            </Position>
            <AltitudeMeters>73.59999847412109375</AltitudeMeters>
            <DistanceMeters>5342.230180962</DistanceMeters>
          </Trackpoint>
          <Trackpoint>
            <Time>2021-10-09T06:59:13.000Z</Time>
            <Position>
              <LatitudeDegrees>39.468262754380702972412109375</LatitudeDegrees>
              <LongitudeDegrees>-0.48733969219028949737548828125</LongitudeDegrees>
            </Position>
            <AltitudeMeters>73.59999847412109375</AltitudeMeters>
            <DistanceMeters>5349.6007263887</DistanceMeters>
          </Trackpoint>
          <Trackpoint>
            <Time>2021-10-09T06:59:14.000Z</Time>
            <Position>
              <LatitudeDegrees>39.468267448246479034423828125</LatitudeDegrees>
              <LongitudeDegrees>-0.4874246008694171905517578125</LongitudeDegrees>
            </Position>
            <AltitudeMeters>73.59999847412109375</AltitudeMeters>
            <DistanceMeters>5356.9153147524</DistanceMeters>
          </Trackpoint>
          <Trackpoint>
            <Time>2021-10-09T06:59:15.000Z</Time>
            <Position>
              <LatitudeDegrees>39.468272812664508819580078125</LatitudeDegrees>
              <LongitudeDegrees>-0.48751227557659149169921875</LongitudeDegrees>
            </Position>
            <AltitudeMeters>73.8000030517578125</AltitudeMeters>
            <DistanceMeters>5364.4709843639</DistanceMeters>
          </Trackpoint>
          <Trackpoint>
            <Time>2021-10-09T06:59:16.000Z</Time>
            <Position>
              <LatitudeDegrees>39.46827658452093601226806640625</LatitudeDegrees>
              <LongitudeDegrees>-0.487601459026336669921875</LongitudeDegrees>
            </Position>
            <AltitudeMeters>73.8000030517578125</AltitudeMeters>
            <DistanceMeters>5372.1446489703</DistanceMeters>
          </Trackpoint>
          <Trackpoint>
            <Time>2021-10-09T06:59:17.000Z</Time>
            <Position>
              <LatitudeDegrees>39.46827976964414119720458984375</LatitudeDegrees>
              <LongitudeDegrees>-0.4876901395618915557861328125</LongitudeDegrees>
            </Position>
            <AltitudeMeters>73.8000030517578125</AltitudeMeters>
            <DistanceMeters>5379.7728737051</DistanceMeters>
          </Trackpoint>
          <Trackpoint>
            <Time>2021-10-09T06:59:18.000Z</Time>
            <Position>
              <LatitudeDegrees>39.46828278712928295135498046875</LatitudeDegrees>
              <LongitudeDegrees>-0.4877773113548755645751953125</LongitudeDegrees>
            </Position>
            <AltitudeMeters>73.59999847412109375</AltitudeMeters>
            <DistanceMeters>5387.2703550065</DistanceMeters>
          </Trackpoint>
          <Trackpoint>
            <Time>2021-10-09T06:59:19.000Z</Time>
            <Position>
              <LatitudeDegrees>39.468287564814090728759765625</LatitudeDegrees>
              <LongitudeDegrees>-0.48786372877657413482666015625</LongitudeDegrees>
            </Position>
            <AltitudeMeters>73.59999847412109375</AltitudeMeters>
            <DistanceMeters>5394.7140469036</DistanceMeters>
          </Trackpoint>
          <Trackpoint>
            <Time>2021-10-09T06:59:20.000Z</Time>
            <Position>
              <LatitudeDegrees>39.46829326450824737548828125</LatitudeDegrees>
              <LongitudeDegrees>-0.48795123584568500518798828125</LongitudeDegrees>
            </Position>
            <AltitudeMeters>73.59999847412109375</AltitudeMeters>
            <DistanceMeters>5402.2595509941</DistanceMeters>
          </Trackpoint>
          <Trackpoint>
            <Time>2021-10-09T06:59:21.000Z</Time>
            <Position>
              <LatitudeDegrees>39.46829770691692829132080078125</LatitudeDegrees>
              <LongitudeDegrees>-0.48803974874317646026611328125</LongitudeDegrees>
            </Position>
            <AltitudeMeters>73.40000152587890625</AltitudeMeters>
            <DistanceMeters>5409.8806697891</DistanceMeters>
          </Trackpoint>
          <Trackpoint>
            <Time>2021-10-09T06:59:22.000Z</Time>
            <Position>
              <LatitudeDegrees>39.46829921565949916839599609375</LatitudeDegrees>
              <LongitudeDegrees>-0.48812826164066791534423828125</LongitudeDegrees>
            </Position>
            <AltitudeMeters>73.40000152587890625</AltitudeMeters>
            <DistanceMeters>5417.4875567905</DistanceMeters>
          </Trackpoint>
          <Trackpoint>
            <Time>2021-10-09T06:59:23.000Z</Time>
            <Position>
              <LatitudeDegrees>39.46830240078270435333251953125</LatitudeDegrees>
              <LongitudeDegrees>-0.48821811564266681671142578125</LongitudeDegrees>
            </Position>
            <AltitudeMeters>73.40000152587890625</AltitudeMeters>
            <DistanceMeters>5425.2163313167</DistanceMeters>
          </Trackpoint>
          <Trackpoint>
            <Time>2021-10-09T06:59:24.000Z</Time>
            <Position>
              <LatitudeDegrees>39.46830692701041698455810546875</LatitudeDegrees>
              <LongitudeDegrees>-0.4883077181875705718994140625</LongitudeDegrees>
            </Position>
            <AltitudeMeters>73.40000152587890625</AltitudeMeters>
            <DistanceMeters>5432.9316578762</DistanceMeters>
          </Trackpoint>
          <Trackpoint>
            <Time>2021-10-09T06:59:25.000Z</Time>
            <Position>
              <LatitudeDegrees>39.468311034142971038818359375</LatitudeDegrees>
              <LongitudeDegrees>-0.48839631490409374237060546875</LongitudeDegrees>
            </Position>
            <AltitudeMeters>73.40000152587890625</AltitudeMeters>
            <DistanceMeters>5440.5575147001</DistanceMeters>
          </Trackpoint>
          <Trackpoint>
            <Time>2021-10-09T06:59:26.000Z</Time>
            <Position>
              <LatitudeDegrees>39.46831380017101764678955078125</LatitudeDegrees>
              <LongitudeDegrees>-0.48848650418221950531005859375</LongitudeDegrees>
            </Position>
            <AltitudeMeters>73.40000152587890625</AltitudeMeters>
            <DistanceMeters>5448.3125330184</DistanceMeters>
          </Trackpoint>
          <Trackpoint>
            <Time>2021-10-09T06:59:27.000Z</Time>
            <Position>
              <LatitudeDegrees>39.46831606328487396240234375</LatitudeDegrees>
              <LongitudeDegrees>-0.48857602290809154510498046875</LongitudeDegrees>
            </Position>
            <AltitudeMeters>73.40000152587890625</AltitudeMeters>
            <DistanceMeters>5456.0079369272</DistanceMeters>
          </Trackpoint>
          <Trackpoint>
            <Time>2021-10-09T06:59:28.000Z</Time>
            <Position>
              <LatitudeDegrees>39.46831899695098400115966796875</LatitudeDegrees>
              <LongitudeDegrees>-0.4886637814342975616455078125</LongitudeDegrees>
            </Position>
            <AltitudeMeters>73.40000152587890625</AltitudeMeters>
            <DistanceMeters>5463.555235928</DistanceMeters>
          </Trackpoint>
          <Trackpoint>
            <Time>2021-10-09T06:59:29.000Z</Time>
            <Position>
              <LatitudeDegrees>39.46832285262644290924072265625</LatitudeDegrees>
              <LongitudeDegrees>-0.48875170759856700897216796875</LongitudeDegrees>
            </Position>
            <AltitudeMeters>73.59999847412109375</AltitudeMeters>
            <DistanceMeters>5471.1222508435</DistanceMeters>
          </Trackpoint>
          <Trackpoint>
            <Time>2021-10-09T06:59:30.000Z</Time>
            <Position>
              <LatitudeDegrees>39.468327127397060394287109375</LatitudeDegrees>
              <LongitudeDegrees>-0.488840304315090179443359375</LongitudeDegrees>
            </Position>
            <AltitudeMeters>73.59999847412109375</AltitudeMeters>
            <DistanceMeters>5478.7492917148</DistanceMeters>
          </Trackpoint>
          <Trackpoint>
            <Time>2021-10-09T06:59:31.000Z</Time>
            <Position>
              <LatitudeDegrees>39.468330480158329010009765625</LatitudeDegrees>
              <LongitudeDegrees>-0.4889296554028987884521484375</LongitudeDegrees>
            </Position>
            <AltitudeMeters>73.59999847412109375</AltitudeMeters>
            <DistanceMeters>5486.4364771717</DistanceMeters>
          </Trackpoint>
          <Trackpoint>
            <Time>2021-10-09T06:59:32.000Z</Time>
            <Position>
              <LatitudeDegrees>39.46833215653896331787109375</LatitudeDegrees>
              <LongitudeDegrees>-0.4890190064907073974609375</LongitudeDegrees>
            </Position>
            <AltitudeMeters>73.40000152587890625</AltitudeMeters>
            <DistanceMeters>5494.1166112416</DistanceMeters>
          </Trackpoint>
          <Trackpoint>
            <Time>2021-10-09T06:59:33.000Z</Time>
            <Position>
              <LatitudeDegrees>39.46833391673862934112548828125</LatitudeDegrees>
              <LongitudeDegrees>-0.48910860903561115264892578125</LongitudeDegrees>
            </Position>
            <AltitudeMeters>73.59999847412109375</AltitudeMeters>
            <DistanceMeters>5501.8178801036</DistanceMeters>
          </Trackpoint>
          <Trackpoint>
            <Time>2021-10-09T06:59:34.000Z</Time>
            <Position>
              <LatitudeDegrees>39.46833617985248565673828125</LatitudeDegrees>
              <LongitudeDegrees>-0.4891975410282611846923828125</LongitudeDegrees>
            </Position>
            <AltitudeMeters>73.59999847412109375</AltitudeMeters>
            <DistanceMeters>5509.4632502595</DistanceMeters>
          </Trackpoint>
          <Trackpoint>
            <Time>2021-10-09T06:59:35.000Z</Time>
            <Position>
              <LatitudeDegrees>39.46834146045148372650146484375</LatitudeDegrees>
              <LongitudeDegrees>-0.48928580246865749359130859375</LongitudeDegrees>
            </Position>
            <AltitudeMeters>73.8000030517578125</AltitudeMeters>
            <DistanceMeters>5517.0695436917</DistanceMeters>
          </Trackpoint>
          <Trackpoint>
            <Time>2021-10-09T06:59:36.000Z</Time>
            <Position>
              <LatitudeDegrees>39.468347243964672088623046875</LatitudeDegrees>
              <LongitudeDegrees>-0.48937414772808551788330078125</LongitudeDegrees>
            </Position>
            <AltitudeMeters>73.8000030517578125</AltitudeMeters>
            <DistanceMeters>5524.687107031</DistanceMeters>
          </Trackpoint>
          <Trackpoint>
            <Time>2021-10-09T06:59:37.000Z</Time>
            <Position>
              <LatitudeDegrees>39.46835302747786045074462890625</LatitudeDegrees>
              <LongitudeDegrees>-0.48946266062557697296142578125</LongitudeDegrees>
            </Position>
            <AltitudeMeters>73.8000030517578125</AltitudeMeters>
            <DistanceMeters>5532.3194738422</DistanceMeters>
          </Trackpoint>
          <Trackpoint>
            <Time>2021-10-09T06:59:38.000Z</Time>
            <Position>
              <LatitudeDegrees>39.46835738606750965118408203125</LatitudeDegrees>
              <LongitudeDegrees>-0.48955134116113185882568359375</LongitudeDegrees>
            </Position>
            <AltitudeMeters>73.59999847412109375</AltitudeMeters>
            <DistanceMeters>5539.9547979036</DistanceMeters>
          </Trackpoint>
          <Trackpoint>
            <Time>2021-10-09T06:59:39.000Z</Time>
            <Position>
              <LatitudeDegrees>39.46835990063846111297607421875</LatitudeDegrees>
              <LongitudeDegrees>-0.48963918350636959075927734375</LongitudeDegrees>
            </Position>
            <AltitudeMeters>73.40000152587890625</AltitudeMeters>
            <DistanceMeters>5547.5080768586</DistanceMeters>
          </Trackpoint>
          <Trackpoint>
            <Time>2021-10-09T06:59:40.000Z</Time>
            <Position>
              <LatitudeDegrees>39.4683631695806980133056640625</LatitudeDegrees>
              <LongitudeDegrees>-0.489726774394512176513671875</LongitudeDegrees>
            </Position>
            <AltitudeMeters>73.40000152587890625</AltitudeMeters>
            <DistanceMeters>5555.042203253</DistanceMeters>
          </Trackpoint>
          <Trackpoint>
            <Time>2021-10-09T06:59:41.000Z</Time>
            <Position>
              <LatitudeDegrees>39.4683685339987277984619140625</LatitudeDegrees>
              <LongitudeDegrees>-0.48981226980686187744140625</LongitudeDegrees>
            </Position>
            <AltitudeMeters>73.59999847412109375</AltitudeMeters>
            <DistanceMeters>5562.4127486797</DistanceMeters>
          </Trackpoint>
          <Trackpoint>
            <Time>2021-10-09T06:59:42.000Z</Time>
            <Position>
              <LatitudeDegrees>39.4683785922825336456298828125</LatitudeDegrees>
              <LongitudeDegrees>-0.4898965917527675628662109375</LongitudeDegrees>
            </Position>
            <AltitudeMeters>73.59999847412109375</AltitudeMeters>
            <DistanceMeters>5569.7439842505</DistanceMeters>
          </Trackpoint>
          <Trackpoint>
            <Time>2021-10-09T06:59:43.000Z</Time>
            <Position>
              <LatitudeDegrees>39.4683980382978916168212890625</LatitudeDegrees>
              <LongitudeDegrees>-0.48997898586094379425048828125</LongitudeDegrees>
            </Position>
            <AltitudeMeters>73.59999847412109375</AltitudeMeters>
            <DistanceMeters>5577.1469251484</DistanceMeters>
          </Trackpoint>
          <Trackpoint>
            <Time>2021-10-09T06:59:44.000Z</Time>
            <Position>
              <LatitudeDegrees>39.4684335775673389434814453125</LatitudeDegrees>
              <LongitudeDegrees>-0.49005190841853618621826171875</LongitudeDegrees>
            </Position>
            <AltitudeMeters>73.59999847412109375</AltitudeMeters>
            <DistanceMeters>5584.5559625152</DistanceMeters>
          </Trackpoint>
          <Trackpoint>
            <Time>2021-10-09T06:59:45.000Z</Time>
            <Position>
              <LatitudeDegrees>39.4684825278818607330322265625</LatitudeDegrees>
              <LongitudeDegrees>-0.4901084862649440765380859375</LongitudeDegrees>
            </Position>
            <AltitudeMeters>73.59999847412109375</AltitudeMeters>
            <DistanceMeters>5591.8575768111</DistanceMeters>
          </Trackpoint>
          <Trackpoint>
            <Time>2021-10-09T06:59:46.000Z</Time>
            <Position>
              <LatitudeDegrees>39.46853692643344402313232421875</LatitudeDegrees>
              <LongitudeDegrees>-0.49015718512237071990966796875</LongitudeDegrees>
            </Position>
            <AltitudeMeters>73.59999847412109375</AltitudeMeters>
            <DistanceMeters>5599.2170875632</DistanceMeters>
          </Trackpoint>
          <Trackpoint>
            <Time>2021-10-09T06:59:47.000Z</Time>
            <Position>
              <LatitudeDegrees>39.46858738549053668975830078125</LatitudeDegrees>
              <LongitudeDegrees>-0.49021284095942974090576171875</LongitudeDegrees>
            </Position>
            <AltitudeMeters>73.59999847412109375</AltitudeMeters>
            <DistanceMeters>5606.5925319904</DistanceMeters>
          </Trackpoint>
          <Trackpoint>
            <Time>2021-10-09T06:59:48.000Z</Time>
            <Position>
              <LatitudeDegrees>39.468627870082855224609375</LatitudeDegrees>
              <LongitudeDegrees>-0.4902796447277069091796875</LongitudeDegrees>
            </Position>
            <AltitudeMeters>73.59999847412109375</AltitudeMeters>
            <DistanceMeters>5613.8891977162</DistanceMeters>
          </Trackpoint>
          <Trackpoint>
            <Time>2021-10-09T06:59:49.000Z</Time>
            <Position>
              <LatitudeDegrees>39.46865662001073360443115234375</LatitudeDegrees>
              <LongitudeDegrees>-0.49035684205591678619384765625</LongitudeDegrees>
            </Position>
            <AltitudeMeters>73.59999847412109375</AltitudeMeters>
            <DistanceMeters>5621.2536148093</DistanceMeters>
          </Trackpoint>
          <Trackpoint>
            <Time>2021-10-09T06:59:50.000Z</Time>
            <Position>
              <LatitudeDegrees>39.4686694443225860595703125</LatitudeDegrees>
              <LongitudeDegrees>-0.49044066108763217926025390625</LongitudeDegrees>
            </Position>
            <AltitudeMeters>73.8000030517578125</AltitudeMeters>
            <DistanceMeters>5628.5959275492</DistanceMeters>
          </Trackpoint>
          <Trackpoint>
            <Time>2021-10-09T06:59:51.000Z</Time>
            <Position>
              <LatitudeDegrees>39.468665756285190582275390625</LatitudeDegrees>
              <LongitudeDegrees>-0.4905248992145061492919921875</LongitudeDegrees>
            </Position>
            <AltitudeMeters>73.8000030517578125</AltitudeMeters>
            <DistanceMeters>5635.8454133864</DistanceMeters>
          </Trackpoint>
          <Trackpoint>
            <Time>2021-10-09T06:59:52.000Z</Time>
            <Position>
              <LatitudeDegrees>39.46864706464111804962158203125</LatitudeDegrees>
              <LongitudeDegrees>-0.490602515637874603271484375</LongitudeDegrees>
            </Position>
            <AltitudeMeters>73.8000030517578125</AltitudeMeters>
            <DistanceMeters>5642.8310080714</DistanceMeters>
          </Trackpoint>
          <Trackpoint>
            <Time>2021-10-09T06:59:53.000Z</Time>
            <Position>
              <LatitudeDegrees>39.4686159677803516387939453125</LatitudeDegrees>
              <LongitudeDegrees>-0.4906724207103252410888671875</LongitudeDegrees>
            </Position>
            <AltitudeMeters>73.8000030517578125</AltitudeMeters>
            <DistanceMeters>5649.7634006479</DistanceMeters>
          </Trackpoint>
          <Trackpoint>
            <Time>2021-10-09T06:59:54.000Z</Time>
            <Position>
              <LatitudeDegrees>39.4685760699212551116943359375</LatitudeDegrees>
              <LongitudeDegrees>-0.49073788337409496307373046875</LongitudeDegrees>
            </Position>
            <AltitudeMeters>74</AltitudeMeters>
            <DistanceMeters>5656.9302043158</DistanceMeters>
          </Trackpoint>
          <Trackpoint>
            <Time>2021-10-09T06:59:55.000Z</Time>
            <Position>
              <LatitudeDegrees>39.468534328043460845947265625</LatitudeDegrees>
              <LongitudeDegrees>-0.49080066382884979248046875</LongitudeDegrees>
            </Position>
            <AltitudeMeters>74</AltitudeMeters>
            <DistanceMeters>5664.0489674811</DistanceMeters>
          </Trackpoint>
          <Trackpoint>
            <Time>2021-10-09T06:59:56.000Z</Time>
            <Position>
              <LatitudeDegrees>39.46849803440272808074951171875</LatitudeDegrees>
              <LongitudeDegrees>-0.49086780287325382232666015625</LongitudeDegrees>
            </Position>
            <AltitudeMeters>74.1999969482421875</AltitudeMeters>
            <DistanceMeters>5671.0912100096</DistanceMeters>
          </Trackpoint>
          <Trackpoint>
            <Time>2021-10-09T06:59:57.000Z</Time>
            <Position>
              <LatitudeDegrees>39.46847020648419857025146484375</LatitudeDegrees>
              <LongitudeDegrees>-0.4909436590969562530517578125</LongitudeDegrees>
            </Position>
            <AltitudeMeters>74.40000152587890625</AltitudeMeters>
            <DistanceMeters>5678.3069858359</DistanceMeters>
          </Trackpoint>
          <Trackpoint>
            <Time>2021-10-09T06:59:58.000Z</Time>
            <Position>
              <LatitudeDegrees>39.46845629252493381500244140625</LatitudeDegrees>
              <LongitudeDegrees>-0.49102865159511566162109375</LongitudeDegrees>
            </Position>
            <AltitudeMeters>74.40000152587890625</AltitudeMeters>
            <DistanceMeters>5685.772481922</DistanceMeters>
          </Trackpoint>
          <Trackpoint>
            <Time>2021-10-09T06:59:59.000Z</Time>
            <Position>
              <LatitudeDegrees>39.46845226921141147613525390625</LatitudeDegrees>
              <LongitudeDegrees>-0.49111582338809967041015625</LongitudeDegrees>
            </Position>
            <AltitudeMeters>74.40000152587890625</AltitudeMeters>
            <DistanceMeters>5693.2765845802</DistanceMeters>
          </Trackpoint>
          <Trackpoint>
            <Time>2021-10-09T07:00:00.000Z</Time>
            <Position>
              <LatitudeDegrees>39.46845243684947490692138671875</LatitudeDegrees>
              <LongitudeDegrees>-0.49120173789560794830322265625</LongitudeDegrees>
            </Position>
            <AltitudeMeters>74.59999847412109375</AltitudeMeters>
            <DistanceMeters>5700.6587598246</DistanceMeters>
          </Trackpoint>
          <Trackpoint>
            <Time>2021-10-09T07:00:01.000Z</Time>
            <Position>
              <LatitudeDegrees>39.46845176629722118377685546875</LatitudeDegrees>
              <LongitudeDegrees>-0.491286814212799072265625</LongitudeDegrees>
            </Position>
            <AltitudeMeters>74.59999847412109375</AltitudeMeters>
            <DistanceMeters>5707.9690260575</DistanceMeters>
          </Trackpoint>
          <Trackpoint>
            <Time>2021-10-09T07:00:02.000Z</Time>
            <Position>
              <LatitudeDegrees>39.46845411323010921478271484375</LatitudeDegrees>
              <LongitudeDegrees>-0.49136971123516559600830078125</LongitudeDegrees>
            </Position>
            <AltitudeMeters>74.59999847412109375</AltitudeMeters>
            <DistanceMeters>5715.0966631185</DistanceMeters>
          </Trackpoint>
          <Trackpoint>
            <Time>2021-10-09T07:00:03.000Z</Time>
            <Position>
              <LatitudeDegrees>39.46845830418169498443603515625</LatitudeDegrees>
              <LongitudeDegrees>-0.491451434791088104248046875</LongitudeDegrees>
            </Position>
            <AltitudeMeters>74.59999847412109375</AltitudeMeters>
            <DistanceMeters>5722.134416261</DistanceMeters>
          </Trackpoint>
          <Trackpoint>
            <Time>2021-10-09T07:00:04.000Z</Time>
            <Position>
              <LatitudeDegrees>39.46846283040940761566162109375</LatitudeDegrees>
              <LongitudeDegrees>-0.49153181724250316619873046875</LongitudeDegrees>
            </Position>
            <AltitudeMeters>74.59999847412109375</AltitudeMeters>
            <DistanceMeters>5729.0589888773</DistanceMeters>
          </Trackpoint>
          <Trackpoint>
            <Time>2021-10-09T07:00:05.000Z</Time>
            <Position>
              <LatitudeDegrees>39.46846668608486652374267578125</LatitudeDegrees>
              <LongitudeDegrees>-0.491611026227474212646484375</LongitudeDegrees>
            </Position>
            <AltitudeMeters>74.8000030517578125</AltitudeMeters>
            <DistanceMeters>5735.8777764242</DistanceMeters>
          </Trackpoint>
          <Trackpoint>
            <Time>2021-10-09T07:00:06.000Z</Time>
            <Position>
              <LatitudeDegrees>39.46846970357000827789306640625</LatitudeDegrees>
              <LongitudeDegrees>-0.49168847501277923583984375</LongitudeDegrees>
            </Position>
            <AltitudeMeters>74.8000030517578125</AltitudeMeters>
            <DistanceMeters>5742.540497775</DistanceMeters>
          </Trackpoint>
          <Trackpoint>
            <Time>2021-10-09T07:00:07.000Z</Time>
            <Position>
              <LatitudeDegrees>39.4684728048741817474365234375</LatitudeDegrees>
              <LongitudeDegrees>-0.49176491796970367431640625</LongitudeDegrees>
            </Position>
            <AltitudeMeters>74.8000030517578125</AltitudeMeters>
            <DistanceMeters>5749.1186530118</DistanceMeters>
          </Trackpoint>
          <Trackpoint>
            <Time>2021-10-09T07:00:08.000Z</Time>
            <Position>
              <LatitudeDegrees>39.46847699582576751708984375</LatitudeDegrees>
              <LongitudeDegrees>-0.49184077419340610504150390625</LongitudeDegrees>
            </Position>
            <AltitudeMeters>75.1999969482421875</AltitudeMeters>
            <DistanceMeters>5755.6527330103</DistanceMeters>
          </Trackpoint>
          <Trackpoint>
            <Time>2021-10-09T07:00:09.000Z</Time>
            <Position>
              <LatitudeDegrees>39.46848076768219470977783203125</LatitudeDegrees>
              <LongitudeDegrees>-0.4919156245887279510498046875</LongitudeDegrees>
            </Position>
            <AltitudeMeters>75.1999969482421875</AltitudeMeters>
            <DistanceMeters>5762.0970577667</DistanceMeters>
          </Trackpoint>
          <Trackpoint>
            <Time>2021-10-09T07:00:10.000Z</Time>
            <Position>
              <LatitudeDegrees>39.46848395280539989471435546875</LatitudeDegrees>
              <LongitudeDegrees>-0.491989888250827789306640625</LongitudeDegrees>
            </Position>
            <AltitudeMeters>75.40000152587890625</AltitudeMeters>
            <DistanceMeters>5768.4879134024</DistanceMeters>
          </Trackpoint>
          <Trackpoint>
            <Time>2021-10-09T07:00:11.000Z</Time>
            <Position>
              <LatitudeDegrees>39.46848713792860507965087890625</LatitudeDegrees>
              <LongitudeDegrees>-0.49206574447453022003173828125</LongitudeDegrees>
            </Position>
            <AltitudeMeters>75.40000152587890625</AltitudeMeters>
            <DistanceMeters>5775.0150797602</DistanceMeters>
          </Trackpoint>
          <Trackpoint>
            <Time>2021-10-09T07:00:12.000Z</Time>
            <Position>
              <LatitudeDegrees>39.46848906576633453369140625</LatitudeDegrees>
              <LongitudeDegrees>-0.4921416006982326507568359375</LongitudeDegrees>
            </Position>
            <AltitudeMeters>75.59999847412109375</AltitudeMeters>
            <DistanceMeters>5781.5353251465</DistanceMeters>
          </Trackpoint>
          <Trackpoint>
            <Time>2021-10-09T07:00:13.000Z</Time>
            <Position>
              <LatitudeDegrees>39.4684924185276031494140625</LatitudeDegrees>
              <LongitudeDegrees>-0.49221745692193508148193359375</LongitudeDegrees>
            </Position>
            <AltitudeMeters>75.59999847412109375</AltitudeMeters>
            <DistanceMeters>5788.0631831979</DistanceMeters>
          </Trackpoint>
          <Trackpoint>
            <Time>2021-10-09T07:00:14.000Z</Time>
            <Position>
              <LatitudeDegrees>39.46849585510790348052978515625</LatitudeDegrees>
              <LongitudeDegrees>-0.4922921396791934967041015625</LongitudeDegrees>
            </Position>
            <AltitudeMeters>75.8000030517578125</AltitudeMeters>
            <DistanceMeters>5794.4913734415</DistanceMeters>
          </Trackpoint>
          <Trackpoint>
            <Time>2021-10-09T07:00:15.000Z</Time>
            <Position>
              <LatitudeDegrees>39.46849753148853778839111328125</LatitudeDegrees>
              <LongitudeDegrees>-0.49236715771257877349853515625</LongitudeDegrees>
            </Position>
            <AltitudeMeters>75.8000030517578125</AltitudeMeters>
            <DistanceMeters>5800.9392003582</DistanceMeters>
          </Trackpoint>
          <Trackpoint>
            <Time>2021-10-09T07:00:16.000Z</Time>
            <Position>
              <LatitudeDegrees>39.4685006327927112579345703125</LatitudeDegrees>
              <LongitudeDegrees>-0.4924426786601543426513671875</LongitudeDegrees>
            </Position>
            <AltitudeMeters>76</AltitudeMeters>
            <DistanceMeters>5807.4372491001</DistanceMeters>
          </Trackpoint>
          <Trackpoint>
            <Time>2021-10-09T07:00:17.000Z</Time>
            <Position>
              <LatitudeDegrees>39.46850381791591644287109375</LatitudeDegrees>
              <LongitudeDegrees>-0.4925184510648250579833984375</LongitudeDegrees>
            </Position>
            <AltitudeMeters>76.1999969482421875</AltitudeMeters>
            <DistanceMeters>5813.9574944864</DistanceMeters>
          </Trackpoint>
          <Trackpoint>
            <Time>2021-10-09T07:00:18.000Z</Time>
            <Position>
              <LatitudeDegrees>39.46850775741040706634521484375</LatitudeDegrees>
              <LongitudeDegrees>-0.4925922118127346038818359375</LongitudeDegrees>
            </Position>
            <AltitudeMeters>76.1999969482421875</AltitudeMeters>
            <DistanceMeters>5820.3100854246</DistanceMeters>
          </Trackpoint>
          <Trackpoint>
            <Time>2021-10-09T07:00:19.000Z</Time>
            <Position>
              <LatitudeDegrees>39.4685123674571514129638671875</LatitudeDegrees>
              <LongitudeDegrees>-0.49266471527516841888427734375</LongitudeDegrees>
            </Position>
            <AltitudeMeters>76.40000152587890625</AltitudeMeters>
            <DistanceMeters>5826.5616588945</DistanceMeters>
          </Trackpoint>
          <Trackpoint>
            <Time>2021-10-09T07:00:20.000Z</Time>
            <Position>
              <LatitudeDegrees>39.46851831860840320587158203125</LatitudeDegrees>
              <LongitudeDegrees>-0.49273780547082424163818359375</LongitudeDegrees>
            </Position>
            <AltitudeMeters>76.40000152587890625</AltitudeMeters>
            <DistanceMeters>5832.8764682801</DistanceMeters>
          </Trackpoint>
          <Trackpoint>
            <Time>2021-10-09T07:00:21.000Z</Time>
            <Position>
              <LatitudeDegrees>39.46852301247417926788330078125</LatitudeDegrees>
              <LongitudeDegrees>-0.4928108118474483489990234375</LongitudeDegrees>
            </Position>
            <AltitudeMeters>76.59999847412109375</AltitudeMeters>
            <DistanceMeters>5839.1712260543</DistanceMeters>
          </Trackpoint>
          <Trackpoint>
            <Time>2021-10-09T07:00:22.000Z</Time>
            <Position>
              <LatitudeDegrees>39.46852661669254302978515625</LatitudeDegrees>
              <LongitudeDegrees>-0.49288381822407245635986328125</LongitudeDegrees>
            </Position>
            <AltitudeMeters>76.8000030517578125</AltitudeMeters>
            <DistanceMeters>5845.457370701</DistanceMeters>
          </Trackpoint>
          <Trackpoint>
            <Time>2021-10-09T07:00:23.000Z</Time>
            <Position>
              <LatitudeDegrees>39.46853105910122394561767578125</LatitudeDegrees>
              <LongitudeDegrees>-0.4929578304290771484375</LongitudeDegrees>
            </Position>
            <AltitudeMeters>76.8000030517578125</AltitudeMeters>
            <DistanceMeters>5851.8369125758</DistanceMeters>
          </Trackpoint>
          <Trackpoint>
            <Time>2021-10-09T07:00:24.000Z</Time>
            <Position>
              <LatitudeDegrees>39.4685355015099048614501953125</LatitudeDegrees>
              <LongitudeDegrees>-0.49303133971989154815673828125</LongitudeDegrees>
            </Position>
            <AltitudeMeters>77</AltitudeMeters>
            <DistanceMeters>5858.1724227994</DistanceMeters>
          </Trackpoint>
          <Trackpoint>
            <Time>2021-10-09T07:00:25.000Z</Time>
            <Position>
              <LatitudeDegrees>39.46854094974696636199951171875</LatitudeDegrees>
              <LongitudeDegrees>-0.4931051842868328094482421875</LongitudeDegrees>
            </Position>
            <AltitudeMeters>77</AltitudeMeters>
            <DistanceMeters>5864.5455918577</DistanceMeters>
          </Trackpoint>
          <Trackpoint>
            <Time>2021-10-09T07:00:26.000Z</Time>
            <Position>
              <LatitudeDegrees>39.46854514069855213165283203125</LatitudeDegrees>
              <LongitudeDegrees>-0.49317886121571063995361328125</LongitudeDegrees>
            </Position>
            <AltitudeMeters>77.1999969482421875</AltitudeMeters>
            <DistanceMeters>5870.8932056686</DistanceMeters>
          </Trackpoint>
          <Trackpoint>
            <Time>2021-10-09T07:00:27.000Z</Time>
            <Position>
              <LatitudeDegrees>39.46854748763144016265869140625</LatitudeDegrees>
              <LongitudeDegrees>-0.49325228668749332427978515625</LongitudeDegrees>
            </Position>
            <AltitudeMeters>77.1999969482421875</AltitudeMeters>
            <DistanceMeters>5877.2073000217</DistanceMeters>
          </Trackpoint>
          <Trackpoint>
            <Time>2021-10-09T07:00:28.000Z</Time>
            <Position>
              <LatitudeDegrees>39.468549750745296478271484375</LatitudeDegrees>
              <LongitudeDegrees>-0.49332453869283199310302734375</LongitudeDegrees>
            </Position>
            <AltitudeMeters>77.1999969482421875</AltitudeMeters>
            <DistanceMeters>5883.4212043398</DistanceMeters>
          </Trackpoint>
          <Trackpoint>
            <Time>2021-10-09T07:00:29.000Z</Time>
            <Position>
              <LatitudeDegrees>39.46855167858302593231201171875</LatitudeDegrees>
              <LongitudeDegrees>-0.4933985508978366851806640625</LongitudeDegrees>
            </Position>
            <AltitudeMeters>77.1999969482421875</AltitudeMeters>
            <DistanceMeters>5889.7844474418</DistanceMeters>
          </Trackpoint>
          <Trackpoint>
            <Time>2021-10-09T07:00:30.000Z</Time>
            <Position>
              <LatitudeDegrees>39.46855285204946994781494140625</LatitudeDegrees>
              <LongitudeDegrees>-0.49347440712153911590576171875</LongitudeDegrees>
            </Position>
            <AltitudeMeters>77.1999969482421875</AltitudeMeters>
            <DistanceMeters>5896.3033077521</DistanceMeters>
          </Trackpoint>
          <Trackpoint>
            <Time>2021-10-09T07:00:31.000Z</Time>
            <Position>
              <LatitudeDegrees>39.46855603717267513275146484375</LatitudeDegrees>
              <LongitudeDegrees>-0.4935492575168609619140625</LongitudeDegrees>
            </Position>
            <AltitudeMeters>77.40000152587890625</AltitudeMeters>
            <DistanceMeters>5902.7434274022</DistanceMeters>
          </Trackpoint>
          <Trackpoint>
            <Time>2021-10-09T07:00:32.000Z</Time>
            <Position>
              <LatitudeDegrees>39.46856106631457805633544921875</LatitudeDegrees>
              <LongitudeDegrees>-0.49362494610249996185302734375</LongitudeDegrees>
            </Position>
            <AltitudeMeters>77.40000152587890625</AltitudeMeters>
            <DistanceMeters>5909.27059376</DistanceMeters>
          </Trackpoint>
          <Trackpoint>
            <Time>2021-10-09T07:00:33.000Z</Time>
            <Position>
              <LatitudeDegrees>39.46856408379971981048583984375</LatitudeDegrees>
              <LongitudeDegrees>-0.49370189197361469268798828125</LongitudeDegrees>
            </Position>
            <AltitudeMeters>77.40000152587890625</AltitudeMeters>
            <DistanceMeters>5915.890485072</DistanceMeters>
          </Trackpoint>
          <Trackpoint>
            <Time>2021-10-09T07:00:34.000Z</Time>
            <Position>
              <LatitudeDegrees>39.46856760419905185699462890625</LatitudeDegrees>
              <LongitudeDegrees>-0.493777580559253692626953125</LongitudeDegrees>
            </Position>
            <AltitudeMeters>77.40000152587890625</AltitudeMeters>
            <DistanceMeters>5922.4065743469</DistanceMeters>
          </Trackpoint>
          <Trackpoint>
            <Time>2021-10-09T07:00:35.000Z</Time>
            <Position>
              <LatitudeDegrees>39.46857221424579620361328125</LatitudeDegrees>
              <LongitudeDegrees>-0.4938669316470623016357421875</LongitudeDegrees>
            </Position>
            <AltitudeMeters>77.40000152587890625</AltitudeMeters>
            <DistanceMeters>5930.1008047286</DistanceMeters>
          </Trackpoint>
          <Trackpoint>
            <Time>2021-10-09T07:00:36.000Z</Time>
            <Position>
              <LatitudeDegrees>39.4685743935406208038330078125</LatitudeDegrees>
              <LongitudeDegrees>-0.4939276166260242462158203125</LongitudeDegrees>
            </Position>
            <AltitudeMeters>77.59999847412109375</AltitudeMeters>
            <DistanceMeters>5935.3203584099</DistanceMeters>
          </Trackpoint>
          <Trackpoint>
            <Time>2021-10-09T07:00:37.000Z</Time>
            <Position>
              <LatitudeDegrees>39.4685782492160797119140625</LatitudeDegrees>
              <LongitudeDegrees>-0.49400296993553638458251953125</LongitudeDegrees>
            </Position>
            <AltitudeMeters>77.59999847412109375</AltitudeMeters>
            <DistanceMeters>5941.8086722418</DistanceMeters>
          </Trackpoint>
          <Trackpoint>
            <Time>2021-10-09T07:00:38.000Z</Time>
            <Position>
              <LatitudeDegrees>39.46858285926282405853271484375</LatitudeDegrees>
              <LongitudeDegrees>-0.4940794967114925384521484375</LongitudeDegrees>
            </Position>
            <AltitudeMeters>77.59999847412109375</AltitudeMeters>
            <DistanceMeters>5948.4032797475</DistanceMeters>
          </Trackpoint>
          <Trackpoint>
            <Time>2021-10-09T07:00:39.000Z</Time>
            <Position>
              <LatitudeDegrees>39.46858562529087066650390625</LatitudeDegrees>
              <LongitudeDegrees>-0.49415753223001956939697265625</LongitudeDegrees>
            </Position>
            <AltitudeMeters>77.59999847412109375</AltitudeMeters>
            <DistanceMeters>5955.1152877465</DistanceMeters>
          </Trackpoint>
          <Trackpoint>
            <Time>2021-10-09T07:00:40.000Z</Time>
            <Position>
              <LatitudeDegrees>39.46858805604279041290283203125</LatitudeDegrees>
              <LongitudeDegrees>-0.4942357353866100311279296875</LongitudeDegrees>
            </Position>
            <AltitudeMeters>77.8000030517578125</AltitudeMeters>
            <DistanceMeters>5961.8400645332</DistanceMeters>
          </Trackpoint>
          <Trackpoint>
            <Time>2021-10-09T07:00:41.000Z</Time>
            <Position>
              <LatitudeDegrees>39.4685894809663295745849609375</LatitudeDegrees>
              <LongitudeDegrees>-0.494315363466739654541015625</LongitudeDegrees>
            </Position>
            <AltitudeMeters>77.8000030517578125</AltitudeMeters>
            <DistanceMeters>5968.6833076561</DistanceMeters>
          </Trackpoint>
          <Trackpoint>
            <Time>2021-10-09T07:00:42.000Z</Time>
            <Position>
              <LatitudeDegrees>39.4685916602611541748046875</LatitudeDegrees>
              <LongitudeDegrees>-0.49439591355621814727783203125</LongitudeDegrees>
            </Position>
            <AltitudeMeters>77.8000030517578125</AltitudeMeters>
            <DistanceMeters>5975.6085322729</DistanceMeters>
          </Trackpoint>
          <Trackpoint>
            <Time>2021-10-09T07:00:43.000Z</Time>
            <Position>
              <LatitudeDegrees>39.4685955159366130828857421875</LatitudeDegrees>
              <LongitudeDegrees>-0.49447637982666492462158203125</LongitudeDegrees>
            </Position>
            <AltitudeMeters>77.8000030517578125</AltitudeMeters>
            <DistanceMeters>5982.5357125235</DistanceMeters>
          </Trackpoint>
          <Trackpoint>
            <Time>2021-10-09T07:00:44.000Z</Time>
            <Position>
              <LatitudeDegrees>39.4685997068881988525390625</LatitudeDegrees>
              <LongitudeDegrees>-0.4945577681064605712890625</LongitudeDegrees>
            </Position>
            <AltitudeMeters>77.8000030517578125</AltitudeMeters>
            <DistanceMeters>5989.5432481603</DistanceMeters>
          </Trackpoint>
          <Trackpoint>
            <Time>2021-10-09T07:00:45.000Z</Time>
            <Position>
              <LatitudeDegrees>39.46860481984913349151611328125</LatitudeDegrees>
              <LongitudeDegrees>-0.49463898874819278717041015625</LongitudeDegrees>
            </Position>
            <AltitudeMeters>77.8000030517578125</AltitudeMeters>
            <DistanceMeters>5996.544337714</DistanceMeters>
          </Trackpoint>
          <Trackpoint>
            <Time>2021-10-09T07:00:46.000Z</Time>
            <Position>
              <LatitudeDegrees>39.468608759343624114990234375</LatitudeDegrees>
              <LongitudeDegrees>-0.49471937119960784912109375</LongitudeDegrees>
            </Position>
            <AltitudeMeters>77.8000030517578125</AltitudeMeters>
            <DistanceMeters>6003.4643446057</DistanceMeters>
          </Trackpoint>
          <Trackpoint>
            <Time>2021-10-09T07:00:47.000Z</Time>
            <Position>
              <LatitudeDegrees>39.46861370466649532318115234375</LatitudeDegrees>
              <LongitudeDegrees>-0.49480025656521320343017578125</LongitudeDegrees>
            </Position>
            <AltitudeMeters>77.8000030517578125</AltitudeMeters>
            <DistanceMeters>6010.435705407</DistanceMeters>
          </Trackpoint>
          <Trackpoint>
            <Time>2021-10-09T07:00:48.000Z</Time>
            <Position>
              <LatitudeDegrees>39.46861772798001766204833984375</LatitudeDegrees>
              <LongitudeDegrees>-0.4948811419308185577392578125</LongitudeDegrees>
            </Position>
            <AltitudeMeters>77.8000030517578125</AltitudeMeters>
            <DistanceMeters>6017.3999383569</DistanceMeters>
          </Trackpoint>
          <Trackpoint>
            <Time>2021-10-09T07:00:49.000Z</Time>
            <Position>
              <LatitudeDegrees>39.468622505664825439453125</LatitudeDegrees>
              <LongitudeDegrees>-0.4949632845818996429443359375</LongitudeDegrees>
            </Position>
            <AltitudeMeters>77.8000030517578125</AltitudeMeters>
            <DistanceMeters>6024.4779934648</DistanceMeters>
          </Trackpoint>
          <Trackpoint>
            <Time>2021-10-09T07:00:50.000Z</Time>
            <Position>
              <LatitudeDegrees>39.46862560696899890899658203125</LatitudeDegrees>
              <LongitudeDegrees>-0.4950464330613613128662109375</LongitudeDegrees>
            </Position>
            <AltitudeMeters>77.8000030517578125</AltitudeMeters>
            <DistanceMeters>6031.6309238526</DistanceMeters>
          </Trackpoint>
          <Trackpoint>
            <Time>2021-10-09T07:00:51.000Z</Time>
            <Position>
              <LatitudeDegrees>39.46862862445414066314697265625</LatitudeDegrees>
              <LongitudeDegrees>-0.495129413902759552001953125</LongitudeDegrees>
            </Position>
            <AltitudeMeters>77.8000030517578125</AltitudeMeters>
            <DistanceMeters>6038.7680564155</DistanceMeters>
          </Trackpoint>
          <Trackpoint>
            <Time>2021-10-09T07:00:52.000Z</Time>
            <Position>
              <LatitudeDegrees>39.46863164193928241729736328125</LatitudeDegrees>
              <LongitudeDegrees>-0.4952127300202846527099609375</LongitudeDegrees>
            </Position>
            <AltitudeMeters>77.8000030517578125</AltitudeMeters>
            <DistanceMeters>6045.9342300623</DistanceMeters>
          </Trackpoint>
          <Trackpoint>
            <Time>2021-10-09T07:00:53.000Z</Time>
            <Position>
              <LatitudeDegrees>39.4686354137957096099853515625</LatitudeDegrees>
              <LongitudeDegrees>-0.49529545940458774566650390625</LongitudeDegrees>
            </Position>
            <AltitudeMeters>77.8000030517578125</AltitudeMeters>
            <DistanceMeters>6053.0542616041</DistanceMeters>
          </Trackpoint>
          <Trackpoint>
            <Time>2021-10-09T07:00:54.000Z</Time>
            <Position>
              <LatitudeDegrees>39.46863952092826366424560546875</LatitudeDegrees>
              <LongitudeDegrees>-0.49538053572177886962890625</LongitudeDegrees>
            </Position>
            <AltitudeMeters>77.8000030517578125</AltitudeMeters>
            <DistanceMeters>6060.3787195468</DistanceMeters>
          </Trackpoint>
          <Trackpoint>
            <Time>2021-10-09T07:00:55.000Z</Time>
            <Position>
              <LatitudeDegrees>39.46864371187984943389892578125</LatitudeDegrees>
              <LongitudeDegrees>-0.49546577967703342437744140625</LongitudeDegrees>
            </Position>
            <AltitudeMeters>78</AltitudeMeters>
            <DistanceMeters>6067.7185721382</DistanceMeters>
          </Trackpoint>
          <Trackpoint>
            <Time>2021-10-09T07:00:56.000Z</Time>
            <Position>
              <LatitudeDegrees>39.4686501659452915191650390625</LatitudeDegrees>
              <LongitudeDegrees>-0.4955527000129222869873046875</LongitudeDegrees>
            </Position>
            <AltitudeMeters>78</AltitudeMeters>
            <DistanceMeters>6075.221471348</DistanceMeters>
          </Trackpoint>
          <Trackpoint>
            <Time>2021-10-09T07:00:57.000Z</Time>
            <Position>
              <LatitudeDegrees>39.46866097860038280487060546875</LatitudeDegrees>
              <LongitudeDegrees>-0.495637357234954833984375</LongitudeDegrees>
            </Position>
            <AltitudeMeters>78</AltitudeMeters>
            <DistanceMeters>6082.5944666818</DistanceMeters>
          </Trackpoint>
          <Trackpoint>
            <Time>2021-10-09T07:00:58.000Z</Time>
            <Position>
              <LatitudeDegrees>39.4686756469309329986572265625</LatitudeDegrees>
              <LongitudeDegrees>-0.49572092480957508087158203125</LongitudeDegrees>
            </Position>
            <AltitudeMeters>78</AltitudeMeters>
            <DistanceMeters>6089.958883775</DistanceMeters>
          </Trackpoint>
          <Trackpoint>
            <Time>2021-10-09T07:00:59.000Z</Time>
            <Position>
              <LatitudeDegrees>39.4686974398791790008544921875</LatitudeDegrees>
              <LongitudeDegrees>-0.4958014748990535736083984375</LongitudeDegrees>
            </Position>
            <AltitudeMeters>78</AltitudeMeters>
            <DistanceMeters>6097.2925823848</DistanceMeters>
          </Trackpoint>
          <Trackpoint>
            <Time>2021-10-09T07:01:00.000Z</Time>
            <Position>
              <LatitudeDegrees>39.468723423779010772705078125</LatitudeDegrees>
              <LongitudeDegrees>-0.49587942659854888916015625</LongitudeDegrees>
            </Position>
            <AltitudeMeters>78</AltitudeMeters>
            <DistanceMeters>6104.5880104436</DistanceMeters>
          </Trackpoint>
          <Trackpoint>
            <Time>2021-10-09T07:01:01.000Z</Time>
            <Position>
              <LatitudeDegrees>39.468749575316905975341796875</LatitudeDegrees>
              <LongitudeDegrees>-0.49595628865063190460205078125</LongitudeDegrees>
            </Position>
            <AltitudeMeters>78</AltitudeMeters>
            <DistanceMeters>6111.8044119605</DistanceMeters>
          </Trackpoint>
          <Trackpoint>
            <Time>2021-10-09T07:01:02.000Z</Time>
            <Position>
              <LatitudeDegrees>39.46877606213092803955078125</LatitudeDegrees>
              <LongitudeDegrees>-0.49603273160755634307861328125</LongitudeDegrees>
            </Position>
            <AltitudeMeters>78</AltitudeMeters>
            <DistanceMeters>6119.0039007471</DistanceMeters>
          </Trackpoint>
          <Trackpoint>
            <Time>2021-10-09T07:01:03.000Z</Time>
            <Position>
              <LatitudeDegrees>39.46880363859236240386962890625</LatitudeDegrees>
              <LongitudeDegrees>-0.49610733054578304290771484375</LongitudeDegrees>
            </Position>
            <AltitudeMeters>78</AltitudeMeters>
            <DistanceMeters>6126.1099676954</DistanceMeters>
          </Trackpoint>
          <Trackpoint>
            <Time>2021-10-09T07:01:04.000Z</Time>
            <Position>
              <LatitudeDegrees>39.4688416086137294769287109375</LatitudeDegrees>
              <LongitudeDegrees>-0.49617690034210681915283203125</LongitudeDegrees>
            </Position>
            <AltitudeMeters>77.8000030517578125</AltitudeMeters>
            <DistanceMeters>6133.4307261052</DistanceMeters>
          </Trackpoint>
          <Trackpoint>
            <Time>2021-10-09T07:01:05.000Z</Time>
            <Position>
              <LatitudeDegrees>39.4688922353088855743408203125</LatitudeDegrees>
              <LongitudeDegrees>-0.496235825121402740478515625</LongitudeDegrees>
            </Position>
            <AltitudeMeters>77.8000030517578125</AltitudeMeters>
            <DistanceMeters>6141.0054938063</DistanceMeters>
          </Trackpoint>
          <Trackpoint>
            <Time>2021-10-09T07:01:06.000Z</Time>
            <Position>
              <LatitudeDegrees>39.4689529202878475189208984375</LatitudeDegrees>
              <LongitudeDegrees>-0.4962743818759918212890625</LongitudeDegrees>
            </Position>
            <AltitudeMeters>77.8000030517578125</AltitudeMeters>
            <DistanceMeters>6148.5288254586</DistanceMeters>
          </Trackpoint>
          <Trackpoint>
            <Time>2021-10-09T07:01:07.000Z</Time>
            <Position>
              <LatitudeDegrees>39.46901771239936351776123046875</LatitudeDegrees>
              <LongitudeDegrees>-0.49629382789134979248046875</LongitudeDegrees>
            </Position>
            <AltitudeMeters>77.8000030517578125</AltitudeMeters>
            <DistanceMeters>6155.9311564335</DistanceMeters>
          </Trackpoint>
          <Trackpoint>
            <Time>2021-10-09T07:01:08.000Z</Time>
            <Position>
              <LatitudeDegrees>39.4690811634063720703125</LatitudeDegrees>
              <LongitudeDegrees>-0.49630589783191680908203125</LongitudeDegrees>
            </Position>
            <AltitudeMeters>77.59999847412109375</AltitudeMeters>
            <DistanceMeters>6163.0689215807</DistanceMeters>
          </Trackpoint>
          <Trackpoint>
            <Time>2021-10-09T07:01:09.000Z</Time>
            <Position>
              <LatitudeDegrees>39.469145201146602630615234375</LatitudeDegrees>
              <LongitudeDegrees>-0.496320985257625579833984375</LongitudeDegrees>
            </Position>
            <AltitudeMeters>77.59999847412109375</AltitudeMeters>
            <DistanceMeters>6170.3134232401</DistanceMeters>
          </Trackpoint>
          <Trackpoint>
            <Time>2021-10-09T07:01:10.000Z</Time>
            <Position>
              <LatitudeDegrees>39.46920965798199176788330078125</LatitudeDegrees>
              <LongitudeDegrees>-0.49633816815912723541259765625</LongitudeDegrees>
            </Position>
            <AltitudeMeters>77.59999847412109375</AltitudeMeters>
            <DistanceMeters>6177.6372647237</DistanceMeters>
          </Trackpoint>
          <Trackpoint>
            <Time>2021-10-09T07:01:11.000Z</Time>
            <Position>
              <LatitudeDegrees>39.4692737795412540435791015625</LatitudeDegrees>
              <LongitudeDegrees>-0.49635157920420169830322265625</LongitudeDegrees>
            </Position>
            <AltitudeMeters>77.59999847412109375</AltitudeMeters>
            <DistanceMeters>6184.866168678</DistanceMeters>
          </Trackpoint>
          <Trackpoint>
            <Time>2021-10-09T07:01:12.000Z</Time>
            <Position>
              <LatitudeDegrees>39.46933756582438945770263671875</LatitudeDegrees>
              <LongitudeDegrees>-0.49636490643024444580078125</LongitudeDegrees>
            </Position>
            <AltitudeMeters>77.59999847412109375</AltitudeMeters>
            <DistanceMeters>6192.0568722401</DistanceMeters>
          </Trackpoint>
          <Trackpoint>
            <Time>2021-10-09T07:01:13.000Z</Time>
            <Position>
              <LatitudeDegrees>39.46940160356462001800537109375</LatitudeDegrees>
              <LongitudeDegrees>-0.49638058058917522430419921875</LongitudeDegrees>
            </Position>
            <AltitudeMeters>77.59999847412109375</AltitudeMeters>
            <DistanceMeters>6199.3100939631</DistanceMeters>
          </Trackpoint>
          <Trackpoint>
            <Time>2021-10-09T07:01:14.000Z</Time>
            <Position>
              <LatitudeDegrees>39.469464384019374847412109375</LatitudeDegrees>
              <LongitudeDegrees>-0.496397428214550018310546875</LongitudeDegrees>
            </Position>
            <AltitudeMeters>77.59999847412109375</AltitudeMeters>
            <DistanceMeters>6206.4465938856</DistanceMeters>
          </Trackpoint>
          <Trackpoint>
            <Time>2021-10-09T07:01:15.000Z</Time>
            <Position>
              <LatitudeDegrees>39.4695275835692882537841796875</LatitudeDegrees>
              <LongitudeDegrees>-0.49641544930636882781982421875</LongitudeDegrees>
            </Position>
            <AltitudeMeters>77.59999847412109375</AltitudeMeters>
            <DistanceMeters>6213.6498444884</DistanceMeters>
          </Trackpoint>
          <Trackpoint>
            <Time>2021-10-09T07:01:16.000Z</Time>
            <Position>
              <LatitudeDegrees>39.46958986110985279083251953125</LatitudeDegrees>
              <LongitudeDegrees>-0.4964405111968517303466796875</LongitudeDegrees>
            </Position>
            <AltitudeMeters>77.8000030517578125</AltitudeMeters>
            <DistanceMeters>6220.9086664349</DistanceMeters>
          </Trackpoint>
          <Trackpoint>
            <Time>2021-10-09T07:01:17.000Z</Time>
            <Position>
              <LatitudeDegrees>39.4696496240794658660888671875</LatitudeDegrees>
              <LongitudeDegrees>-0.496473871171474456787109375</LongitudeDegrees>
            </Position>
            <AltitudeMeters>77.8000030517578125</AltitudeMeters>
            <DistanceMeters>6228.1519215139</DistanceMeters>
          </Trackpoint>
          <Trackpoint>
            <Time>2021-10-09T07:01:18.000Z</Time>
            <Position>
              <LatitudeDegrees>39.46970704011619091033935546875</LatitudeDegrees>
              <LongitudeDegrees>-0.4965142719447612762451171875</LongitudeDegrees>
            </Position>
            <AltitudeMeters>78</AltitudeMeters>
            <DistanceMeters>6235.4244147405</DistanceMeters>
          </Trackpoint>
          <Trackpoint>
            <Time>2021-10-09T07:01:19.000Z</Time>
            <Position>
              <LatitudeDegrees>39.469760768115520477294921875</LatitudeDegrees>
              <LongitudeDegrees>-0.4965588636696338653564453125</LongitudeDegrees>
            </Position>
            <AltitudeMeters>78</AltitudeMeters>
            <DistanceMeters>6242.5266683981</DistanceMeters>
          </Trackpoint>
          <Trackpoint>
            <Time>2021-10-09T07:01:20.000Z</Time>
            <Position>
              <LatitudeDegrees>39.46981399320065975189208984375</LatitudeDegrees>
              <LongitudeDegrees>-0.49660488031804561614990234375</LongitudeDegrees>
            </Position>
            <AltitudeMeters>78</AltitudeMeters>
            <DistanceMeters>6249.6492360153</DistanceMeters>
          </Trackpoint>
          <Trackpoint>
            <Time>2021-10-09T07:01:21.000Z</Time>
            <Position>
              <LatitudeDegrees>39.4698642008006572723388671875</LatitudeDegrees>
              <LongitudeDegrees>-0.4966525733470916748046875</LongitudeDegrees>
            </Position>
            <AltitudeMeters>78</AltitudeMeters>
            <DistanceMeters>6256.579674429</DistanceMeters>
          </Trackpoint>
          <Trackpoint>
            <Time>2021-10-09T07:01:22.000Z</Time>
            <Position>
              <LatitudeDegrees>39.4699139893054962158203125</LatitudeDegrees>
              <LongitudeDegrees>-0.49669858999550342559814453125</LongitudeDegrees>
            </Position>
            <AltitudeMeters>78.1999969482421875</AltitudeMeters>
            <DistanceMeters>6263.3871961741</DistanceMeters>
          </Trackpoint>
          <Trackpoint>
            <Time>2021-10-09T07:01:23.000Z</Time>
            <Position>
              <LatitudeDegrees>39.469965286552906036376953125</LatitudeDegrees>
              <LongitudeDegrees>-0.49674318172037601470947265625</LongitudeDegrees>
            </Position>
            <AltitudeMeters>78.1999969482421875</AltitudeMeters>
            <DistanceMeters>6270.2633491873</DistanceMeters>
          </Trackpoint>
          <Trackpoint>
            <Time>2021-10-09T07:01:24.000Z</Time>
            <Position>
              <LatitudeDegrees>39.470017589628696441650390625</LatitudeDegrees>
              <LongitudeDegrees>-0.496786348521709442138671875</LongitudeDegrees>
            </Position>
            <AltitudeMeters>78.1999969482421875</AltitudeMeters>
            <DistanceMeters>6277.1657171374</DistanceMeters>
          </Trackpoint>
          <Trackpoint>
            <Time>2021-10-09T07:01:25.000Z</Time>
            <Position>
              <LatitudeDegrees>39.47007064707577228546142578125</LatitudeDegrees>
              <LongitudeDegrees>-0.49682549200952053070068359375</LongitudeDegrees>
            </Position>
            <AltitudeMeters>78.1999969482421875</AltitudeMeters>
            <DistanceMeters>6283.9626187173</DistanceMeters>
          </Trackpoint>
          <Trackpoint>
            <Time>2021-10-09T07:01:26.000Z</Time>
            <Position>
              <LatitudeDegrees>39.470125548541545867919921875</LatitudeDegrees>
              <LongitudeDegrees>-0.4968555830419063568115234375</LongitudeDegrees>
            </Position>
            <AltitudeMeters>78.40000152587890625</AltitudeMeters>
            <DistanceMeters>6290.5968174321</DistanceMeters>
          </Trackpoint>
          <Trackpoint>
            <Time>2021-10-09T07:01:27.000Z</Time>
            <Position>
              <LatitudeDegrees>39.4701833836734294891357421875</LatitudeDegrees>
              <LongitudeDegrees>-0.49687662161886692047119140625</LongitudeDegrees>
            </Position>
            <AltitudeMeters>78.40000152587890625</AltitudeMeters>
            <DistanceMeters>6297.2825394124</DistanceMeters>
          </Trackpoint>
          <Trackpoint>
            <Time>2021-10-09T07:01:28.000Z</Time>
            <Position>
              <LatitudeDegrees>39.47024113498628139495849609375</LatitudeDegrees>
              <LongitudeDegrees>-0.4968954809010028839111328125</LongitudeDegrees>
            </Position>
            <AltitudeMeters>78.40000152587890625</AltitudeMeters>
            <DistanceMeters>6303.9119724238</DistanceMeters>
          </Trackpoint>
          <Trackpoint>
            <Time>2021-10-09T07:01:29.000Z</Time>
            <Position>
              <LatitudeDegrees>39.47029997594654560089111328125</LatitudeDegrees>
              <LongitudeDegrees>-0.49691333435475826263427734375</LongitudeDegrees>
            </Position>
            <AltitudeMeters>78.40000152587890625</AltitudeMeters>
            <DistanceMeters>6310.6380918834</DistanceMeters>
          </Trackpoint>
          <Trackpoint>
            <Time>2021-10-09T07:01:30.000Z</Time>
            <Position>
              <LatitudeDegrees>39.470360241830348968505859375</LatitudeDegrees>
              <LongitudeDegrees>-0.49692909233272075653076171875</LongitudeDegrees>
            </Position>
            <AltitudeMeters>78.8000030517578125</AltitudeMeters>
            <DistanceMeters>6317.4813350062</DistanceMeters>
          </Trackpoint>
          <Trackpoint>
            <Time>2021-10-09T07:01:31.000Z</Time>
            <Position>
              <LatitudeDegrees>39.4704194180667400360107421875</LatitudeDegrees>
              <LongitudeDegrees>-0.49694560468196868896484375</LongitudeDegrees>
            </Position>
            <AltitudeMeters>78.8000030517578125</AltitudeMeters>
            <DistanceMeters>6324.2181862148</DistanceMeters>
          </Trackpoint>
          <Trackpoint>
            <Time>2021-10-09T07:01:32.000Z</Time>
            <Position>
              <LatitudeDegrees>39.47047918103635311126708984375</LatitudeDegrees>
              <LongitudeDegrees>-0.49696396104991436004638671875</LongitudeDegrees>
            </Position>
            <AltitudeMeters>78.59999847412109375</AltitudeMeters>
            <DistanceMeters>6331.0541678998</DistanceMeters>
          </Trackpoint>
          <Trackpoint>
            <Time>2021-10-09T07:01:33.000Z</Time>
            <Position>
              <LatitudeDegrees>39.470538608729839324951171875</LatitudeDegrees>
              <LongitudeDegrees>-0.49698047339916229248046875</LongitudeDegrees>
            </Position>
            <AltitudeMeters>78.8000030517578125</AltitudeMeters>
            <DistanceMeters>6337.8191089504</DistanceMeters>
          </Trackpoint>
          <Trackpoint>
            <Time>2021-10-09T07:01:34.000Z</Time>
            <Position>
              <LatitudeDegrees>39.47059904225170612335205078125</LatitudeDegrees>
              <LongitudeDegrees>-0.49699765630066394805908203125</LongitudeDegrees>
            </Position>
            <AltitudeMeters>79</AltitudeMeters>
            <DistanceMeters>6344.7057599132</DistanceMeters>
          </Trackpoint>
          <Trackpoint>
            <Time>2021-10-09T07:01:35.000Z</Time>
            <Position>
              <LatitudeDegrees>39.47067104279994964599609375</LatitudeDegrees>
              <LongitudeDegrees>-0.49701509065926074981689453125</LongitudeDegrees>
            </Position>
            <AltitudeMeters>79</AltitudeMeters>
            <DistanceMeters>6352.8581437749</DistanceMeters>
          </Trackpoint>
          <Trackpoint>
            <Time>2021-10-09T07:01:36.000Z</Time>
            <Position>
              <LatitudeDegrees>39.470718987286090850830078125</LatitudeDegrees>
              <LongitudeDegrees>-0.4970282502472400665283203125</LongitudeDegrees>
            </Position>
            <AltitudeMeters>79</AltitudeMeters>
            <DistanceMeters>6358.3137035041</DistanceMeters>
          </Trackpoint>
          <Trackpoint>
            <Time>2021-10-09T07:01:37.000Z</Time>
            <Position>
              <LatitudeDegrees>39.47077791206538677215576171875</LatitudeDegrees>
              <LongitudeDegrees>-0.49704224802553653717041015625</LongitudeDegrees>
            </Position>
            <AltitudeMeters>79</AltitudeMeters>
            <DistanceMeters>6364.9818439053</DistanceMeters>
          </Trackpoint>
          <Trackpoint>
            <Time>2021-10-09T07:01:38.000Z</Time>
            <Position>
              <LatitudeDegrees>39.47083708830177783966064453125</LatitudeDegrees>
              <LongitudeDegrees>-0.49705700017511844635009765625</LongitudeDegrees>
            </Position>
            <AltitudeMeters>78.8000030517578125</AltitudeMeters>
            <DistanceMeters>6371.6891414866</DistanceMeters>
          </Trackpoint>
          <Trackpoint>
            <Time>2021-10-09T07:01:39.000Z</Time>
            <Position>
              <LatitudeDegrees>39.47089659981429576873779296875</LatitudeDegrees>
              <LongitudeDegrees>-0.497073344886302947998046875</LongitudeDegrees>
            </Position>
            <AltitudeMeters>78.8000030517578125</AltitudeMeters>
            <DistanceMeters>6378.4594197696</DistanceMeters>
          </Trackpoint>
          <Trackpoint>
            <Time>2021-10-09T07:01:40.000Z</Time>
            <Position>
              <LatitudeDegrees>39.4709546864032745361328125</LatitudeDegrees>
              <LongitudeDegrees>-0.4970882646739482879638671875</LongitudeDegrees>
            </Position>
            <AltitudeMeters>78.8000030517578125</AltitudeMeters>
            <DistanceMeters>6385.0499180584</DistanceMeters>
          </Trackpoint>
          <Trackpoint>
            <Time>2021-10-09T07:01:41.000Z</Time>
            <Position>
              <LatitudeDegrees>39.47101377882063388824462890625</LatitudeDegrees>
              <LongitudeDegrees>-0.49710410647094249725341796875</LongitudeDegrees>
            </Position>
            <AltitudeMeters>78.8000030517578125</AltitudeMeters>
            <DistanceMeters>6391.7652886187</DistanceMeters>
          </Trackpoint>
          <Trackpoint>
            <Time>2021-10-09T07:01:42.000Z</Time>
            <Position>
              <LatitudeDegrees>39.4710722006857395172119140625</LatitudeDegrees>
              <LongitudeDegrees>-0.49712187610566616058349609375</LongitudeDegrees>
            </Position>
            <AltitudeMeters>79</AltitudeMeters>
            <DistanceMeters>6398.4456058107</DistanceMeters>
          </Trackpoint>
          <Trackpoint>
            <Time>2021-10-09T07:01:43.000Z</Time>
            <Position>
              <LatitudeDegrees>39.471130706369876861572265625</LatitudeDegrees>
              <LongitudeDegrees>-0.49713679589331150054931640625</LongitudeDegrees>
            </Position>
            <AltitudeMeters>79</AltitudeMeters>
            <DistanceMeters>6405.0832065045</DistanceMeters>
          </Trackpoint>
          <Trackpoint>
            <Time>2021-10-09T07:01:44.000Z</Time>
            <Position>
              <LatitudeDegrees>39.4712016172707080841064453125</LatitudeDegrees>
              <LongitudeDegrees>-0.497155822813510894775390625</LongitudeDegrees>
            </Position>
            <AltitudeMeters>79</AltitudeMeters>
            <DistanceMeters>6413.1442504872</DistanceMeters>
          </Trackpoint>
          <Trackpoint>
            <Time>2021-10-09T07:01:45.000Z</Time>
            <Position>
              <LatitudeDegrees>39.47124880738556385040283203125</LatitudeDegrees>
              <LongitudeDegrees>-0.49716797657310962677001953125</LongitudeDegrees>
            </Position>
            <AltitudeMeters>79</AltitudeMeters>
            <DistanceMeters>6418.5004200945</DistanceMeters>
          </Trackpoint>
          <Trackpoint>
            <Time>2021-10-09T07:01:46.000Z</Time>
            <Position>
              <LatitudeDegrees>39.4713092409074306488037109375</LatitudeDegrees>
              <LongitudeDegrees>-0.4971848241984844207763671875</LongitudeDegrees>
            </Position>
            <AltitudeMeters>79</AltitudeMeters>
            <DistanceMeters>6425.3805117159</DistanceMeters>
          </Trackpoint>
          <Trackpoint>
            <Time>2021-10-09T07:01:47.000Z</Time>
            <Position>
              <LatitudeDegrees>39.47136917151510715484619140625</LatitudeDegrees>
              <LongitudeDegrees>-0.49720016308128833770751953125</LongitudeDegrees>
            </Position>
            <AltitudeMeters>79</AltitudeMeters>
            <DistanceMeters>6432.1800698922</DistanceMeters>
          </Trackpoint>
          <Trackpoint>
            <Time>2021-10-09T07:01:48.000Z</Time>
            <Position>
              <LatitudeDegrees>39.47142742574214935302734375</LatitudeDegrees>
              <LongitudeDegrees>-0.4972173459827899932861328125</LongitudeDegrees>
            </Position>
            <AltitudeMeters>79</AltitudeMeters>
            <DistanceMeters>6438.8292242948</DistanceMeters>
          </Trackpoint>
          <Trackpoint>
            <Time>2021-10-09T07:01:49.000Z</Time>
            <Position>
              <LatitudeDegrees>39.47148232720792293548583984375</LatitudeDegrees>
              <LongitudeDegrees>-0.49724198877811431884765625</LongitudeDegrees>
            </Position>
            <AltitudeMeters>79</AltitudeMeters>
            <DistanceMeters>6445.2959301032</DistanceMeters>
          </Trackpoint>
          <Trackpoint>
            <Time>2021-10-09T07:01:50.000Z</Time>
            <Position>
              <LatitudeDegrees>39.471531026065349578857421875</LatitudeDegrees>
              <LongitudeDegrees>-0.49727157689630985260009765625</LongitudeDegrees>
            </Position>
            <AltitudeMeters>79</AltitudeMeters>
            <DistanceMeters>6451.2826131085</DistanceMeters>
          </Trackpoint>
          <Trackpoint>
            <Time>2021-10-09T07:01:51.000Z</Time>
            <Position>
              <LatitudeDegrees>39.47157486341893672943115234375</LatitudeDegrees>
              <LongitudeDegrees>-0.49729831516742706298828125</LongitudeDegrees>
            </Position>
            <AltitudeMeters>79</AltitudeMeters>
            <DistanceMeters>6456.675745429</DistanceMeters>
          </Trackpoint>
          <Trackpoint>
            <Time>2021-10-09T07:01:52.000Z</Time>
            <Position>
              <LatitudeDegrees>39.47161593474447727203369140625</LatitudeDegrees>
              <LongitudeDegrees>-0.497317425906658172607421875</LongitudeDegrees>
            </Position>
            <AltitudeMeters>79.1999969482421875</AltitudeMeters>
            <DistanceMeters>6461.5332746103</DistanceMeters>
          </Trackpoint>
          <Trackpoint>
            <Time>2021-10-09T07:01:53.000Z</Time>
            <Position>
              <LatitudeDegrees>39.47165164165198802947998046875</LatitudeDegrees>
              <LongitudeDegrees>-0.497343577444553375244140625</LongitudeDegrees>
            </Position>
            <AltitudeMeters>79.1999969482421875</AltitudeMeters>
            <DistanceMeters>6466.0995035259</DistanceMeters>
          </Trackpoint>
          <Trackpoint>
            <Time>2021-10-09T07:01:54.000Z</Time>
            <Position>
              <LatitudeDegrees>39.47167796082794666290283203125</LatitudeDegrees>
              <LongitudeDegrees>-0.49738607369363307952880859375</LongitudeDegrees>
            </Position>
            <AltitudeMeters>79.1999969482421875</AltitudeMeters>
            <DistanceMeters>6470.7819201675</DistanceMeters>
          </Trackpoint>
          <Trackpoint>
            <Time>2021-10-09T07:01:55.000Z</Time>
            <Position>
              <LatitudeDegrees>39.4716927967965602874755859375</LatitudeDegrees>
              <LongitudeDegrees>-0.49744307063519954681396484375</LongitudeDegrees>
            </Position>
            <AltitudeMeters>79.40000152587890625</AltitudeMeters>
            <DistanceMeters>6475.9501854588</DistanceMeters>
          </Trackpoint>
          <Trackpoint>
            <Time>2021-10-09T07:01:56.000Z</Time>
            <Position>
              <LatitudeDegrees>39.47169740684330463409423828125</LatitudeDegrees>
              <LongitudeDegrees>-0.4975097067654132843017578125</LongitudeDegrees>
            </Position>
            <AltitudeMeters>79.40000152587890625</AltitudeMeters>
            <DistanceMeters>6481.6983199134</DistanceMeters>
          </Trackpoint>
          <Trackpoint>
            <Time>2021-10-09T07:01:57.000Z</Time>
            <Position>
              <LatitudeDegrees>39.47169170714914798736572265625</LatitudeDegrees>
              <LongitudeDegrees>-0.49758472479879856109619140625</LongitudeDegrees>
            </Position>
            <AltitudeMeters>79.40000152587890625</AltitudeMeters>
            <DistanceMeters>6488.1747931113</DistanceMeters>
          </Trackpoint>
          <Trackpoint>
            <Time>2021-10-09T07:01:58.000Z</Time>
            <Position>
              <LatitudeDegrees>39.47168491780757904052734375</LatitudeDegrees>
              <LongitudeDegrees>-0.49766150303184986114501953125</LongitudeDegrees>
            </Position>
            <AltitudeMeters>79.40000152587890625</AltitudeMeters>
            <DistanceMeters>6494.8144341557</DistanceMeters>
          </Trackpoint>
          <Trackpoint>
            <Time>2021-10-09T07:01:59.000Z</Time>
            <Position>
              <LatitudeDegrees>39.47167729027569293975830078125</LatitudeDegrees>
              <LongitudeDegrees>-0.49773761071264743804931640625</LongitudeDegrees>
            </Position>
            <AltitudeMeters>79.40000152587890625</AltitudeMeters>
            <DistanceMeters>6501.407672207</DistanceMeters>
          </Trackpoint>
          <Trackpoint>
            <Time>2021-10-09T07:02:00.000Z</Time>
            <Position>
              <LatitudeDegrees>39.47166756726801395416259765625</LatitudeDegrees>
              <LongitudeDegrees>-0.49781539477407932281494140625</LongitudeDegrees>
            </Position>
            <AltitudeMeters>79.40000152587890625</AltitudeMeters>
            <DistanceMeters>6508.1772835661</DistanceMeters>
          </Trackpoint>
          <Trackpoint>
            <Time>2021-10-09T07:02:01.000Z</Time>
            <Position>
              <LatitudeDegrees>39.47166019119322299957275390625</LatitudeDegrees>
              <LongitudeDegrees>-0.49789384938776493072509765625</LongitudeDegrees>
            </Position>
            <AltitudeMeters>79.1999969482421875</AltitudeMeters>
            <DistanceMeters>6514.9675391079</DistanceMeters>
          </Trackpoint>
          <Trackpoint>
            <Time>2021-10-09T07:02:02.000Z</Time>
            <Position>
              <LatitudeDegrees>39.471655078232288360595703125</LatitudeDegrees>
              <LongitudeDegrees>-0.4979730583727359771728515625</LongitudeDegrees>
            </Position>
            <AltitudeMeters>79.1999969482421875</AltitudeMeters>
            <DistanceMeters>6521.7975738743</DistanceMeters>
          </Trackpoint>
          <Trackpoint>
            <Time>2021-10-09T07:02:03.000Z</Time>
            <Position>
              <LatitudeDegrees>39.47164879180490970611572265625</LatitudeDegrees>
              <LongitudeDegrees>-0.49805126152932643890380859375</LongitudeDegrees>
            </Position>
            <AltitudeMeters>79</AltitudeMeters>
            <DistanceMeters>6528.5531646218</DistanceMeters>
          </Trackpoint>
          <Trackpoint>
            <Time>2021-10-09T07:02:04.000Z</Time>
            <Position>
              <LatitudeDegrees>39.471643008291721343994140625</LatitudeDegrees>
              <LongitudeDegrees>-0.49812871031463146209716796875</LongitudeDegrees>
            </Position>
            <AltitudeMeters>79</AltitudeMeters>
            <DistanceMeters>6535.238886602</DistanceMeters>
          </Trackpoint>
          <Trackpoint>
            <Time>2021-10-09T07:02:05.000Z</Time>
            <Position>
              <LatitudeDegrees>39.47163797914981842041015625</LatitudeDegrees>
              <LongitudeDegrees>-0.498205907642841339111328125</LongitudeDegrees>
            </Position>
            <AltitudeMeters>78.8000030517578125</AltitudeMeters>
            <DistanceMeters>6541.895506248</DistanceMeters>
          </Trackpoint>
          <Trackpoint>
            <Time>2021-10-09T07:02:06.000Z</Time>
            <Position>
              <LatitudeDegrees>39.47163454256951808929443359375</LatitudeDegrees>
              <LongitudeDegrees>-0.4982848651707172393798828125</LongitudeDegrees>
            </Position>
            <AltitudeMeters>78.8000030517578125</AltitudeMeters>
            <DistanceMeters>6548.6910791403</DistanceMeters>
          </Trackpoint>
          <Trackpoint>
            <Time>2021-10-09T07:02:07.000Z</Time>
            <Position>
              <LatitudeDegrees>39.4716314412653446197509765625</LatitudeDegrees>
              <LongitudeDegrees>-0.4983636550605297088623046875</LongitudeDegrees>
            </Position>
            <AltitudeMeters>78.8000030517578125</AltitudeMeters>
            <DistanceMeters>6555.4693553921</DistanceMeters>
          </Trackpoint>
          <Trackpoint>
            <Time>2021-10-09T07:02:08.000Z</Time>
            <Position>
              <LatitudeDegrees>39.47163127362728118896484375</LatitudeDegrees>
              <LongitudeDegrees>-0.4984421096742153167724609375</LongitudeDegrees>
            </Position>
            <AltitudeMeters>78.8000030517578125</AltitudeMeters>
            <DistanceMeters>6562.2102266019</DistanceMeters>
          </Trackpoint>
          <Trackpoint>
            <Time>2021-10-09T07:02:09.000Z</Time>
            <Position>
              <LatitudeDegrees>39.47162926197052001953125</LatitudeDegrees>
              <LongitudeDegrees>-0.4985193908214569091796875</LongitudeDegrees>
            </Position>
            <AltitudeMeters>78.8000030517578125</AltitudeMeters>
            <DistanceMeters>6568.8539464679</DistanceMeters>
          </Trackpoint>
          <Trackpoint>
            <Time>2021-10-09T07:02:10.000Z</Time>
            <Position>
              <LatitudeDegrees>39.47162934578955173492431640625</LatitudeDegrees>
              <LongitudeDegrees>-0.49859658814966678619384765625</LongitudeDegrees>
            </Position>
            <AltitudeMeters>78.8000030517578125</AltitudeMeters>
            <DistanceMeters>6575.4867839026</DistanceMeters>
          </Trackpoint>
          <Trackpoint>
            <Time>2021-10-09T07:02:11.000Z</Time>
            <Position>
              <LatitudeDegrees>39.4716304354369640350341796875</LatitudeDegrees>
              <LongitudeDegrees>-0.498673953115940093994140625</LongitudeDegrees>
            </Position>
            <AltitudeMeters>78.8000030517578125</AltitudeMeters>
            <DistanceMeters>6582.1345800875</DistanceMeters>
          </Trackpoint>
          <Trackpoint>
            <Time>2021-10-09T07:02:12.000Z</Time>
            <Position>
              <LatitudeDegrees>39.4716321118175983428955078125</LatitudeDegrees>
              <LongitudeDegrees>-0.498751737177371978759765625</LongitudeDegrees>
            </Position>
            <AltitudeMeters>78.8000030517578125</AltitudeMeters>
            <DistanceMeters>6588.8203020678</DistanceMeters>
          </Trackpoint>
          <Trackpoint>
            <Time>2021-10-09T07:02:13.000Z</Time>
            <Position>
              <LatitudeDegrees>39.471632950007915496826171875</LatitudeDegrees>
              <LongitudeDegrees>-0.49882926978170871734619140625</LongitudeDegrees>
            </Position>
            <AltitudeMeters>79</AltitudeMeters>
            <DistanceMeters>6595.4816679672</DistanceMeters>
          </Trackpoint>
          <Trackpoint>
            <Time>2021-10-09T07:02:14.000Z</Time>
            <Position>
              <LatitudeDegrees>39.471634291112422943115234375</LatitudeDegrees>
              <LongitudeDegrees>-0.49890638329088687896728515625</LongitudeDegrees>
            </Position>
            <AltitudeMeters>79</AltitudeMeters>
            <DistanceMeters>6602.1083761807</DistanceMeters>
          </Trackpoint>
          <Trackpoint>
            <Time>2021-10-09T07:02:15.000Z</Time>
            <Position>
              <LatitudeDegrees>39.47163521312177181243896484375</LatitudeDegrees>
              <LongitudeDegrees>-0.49898517318069934844970703125</LongitudeDegrees>
            </Position>
            <AltitudeMeters>79</AltitudeMeters>
            <DistanceMeters>6608.8786544637</DistanceMeters>
          </Trackpoint>
          <Trackpoint>
            <Time>2021-10-09T07:02:16.000Z</Time>
            <Position>
              <LatitudeDegrees>39.47163932025432586669921875</LatitudeDegrees>
              <LongitudeDegrees>-0.49906253814697265625</LongitudeDegrees>
            </Position>
            <AltitudeMeters>79.1999969482421875</AltitudeMeters>
            <DistanceMeters>6615.5413758145</DistanceMeters>
          </Trackpoint>
          <Trackpoint>
            <Time>2021-10-09T07:02:17.000Z</Time>
            <Position>
              <LatitudeDegrees>39.471644349396228790283203125</LatitudeDegrees>
              <LongitudeDegrees>-0.49913990311324596405029296875</LongitudeDegrees>
            </Position>
            <AltitudeMeters>79.1999969482421875</AltitudeMeters>
            <DistanceMeters>6622.2122240901</DistanceMeters>
          </Trackpoint>
          <Trackpoint>
            <Time>2021-10-09T07:02:18.000Z</Time>
            <Position>
              <LatitudeDegrees>39.4716478697955608367919921875</LatitudeDegrees>
              <LongitudeDegrees>-0.4992202855646610260009765625</LongitudeDegrees>
            </Position>
            <AltitudeMeters>79.1999969482421875</AltitudeMeters>
            <DistanceMeters>6629.1296206435</DistanceMeters>
          </Trackpoint>
          <Trackpoint>
            <Time>2021-10-09T07:02:19.000Z</Time>
            <Position>
              <LatitudeDegrees>39.47165247984230518341064453125</LatitudeDegrees>
              <LongitudeDegrees>-0.49930016510188579559326171875</LongitudeDegrees>
            </Position>
            <AltitudeMeters>79.40000152587890625</AltitudeMeters>
            <DistanceMeters>6636.0110246333</DistanceMeters>
          </Trackpoint>
          <Trackpoint>
            <Time>2021-10-09T07:02:20.000Z</Time>
            <Position>
              <LatitudeDegrees>39.47165650315582752227783203125</LatitudeDegrees>
              <LongitudeDegrees>-0.4993802122771739959716796875</LongitudeDegrees>
            </Position>
            <AltitudeMeters>79.40000152587890625</AltitudeMeters>
            <DistanceMeters>6642.9029185744</DistanceMeters>
          </Trackpoint>
          <Trackpoint>
            <Time>2021-10-09T07:02:21.000Z</Time>
            <Position>
              <LatitudeDegrees>39.47166086174547672271728515625</LatitudeDegrees>
              <LongitudeDegrees>-0.49946042709052562713623046875</LongitudeDegrees>
            </Position>
            <AltitudeMeters>79.59999847412109375</AltitudeMeters>
            <DistanceMeters>6649.8118247167</DistanceMeters>
          </Trackpoint>
          <Trackpoint>
            <Time>2021-10-09T07:02:22.000Z</Time>
            <Position>
              <LatitudeDegrees>39.47166488505899906158447265625</LatitudeDegrees>
              <LongitudeDegrees>-0.49954022280871868133544921875</LongitudeDegrees>
            </Position>
            <AltitudeMeters>79.8000030517578125</AltitudeMeters>
            <DistanceMeters>6656.6820655839</DistanceMeters>
          </Trackpoint>
          <Trackpoint>
            <Time>2021-10-09T07:02:23.000Z</Time>
            <Position>
              <LatitudeDegrees>39.4716693274676799774169921875</LatitudeDegrees>
              <LongitudeDegrees>-0.499619431793689727783203125</LongitudeDegrees>
            </Position>
            <AltitudeMeters>80</AltitudeMeters>
            <DistanceMeters>6663.505486584</DistanceMeters>
          </Trackpoint>
          <Trackpoint>
            <Time>2021-10-09T07:02:24.000Z</Time>
            <Position>
              <LatitudeDegrees>39.47167561389505863189697265625</LatitudeDegrees>
              <LongitudeDegrees>-0.49969763495028018951416015625</LongitudeDegrees>
            </Position>
            <AltitudeMeters>80</AltitudeMeters>
            <DistanceMeters>6670.2610773315</DistanceMeters>
          </Trackpoint>
          <Trackpoint>
            <Time>2021-10-09T07:02:25.000Z</Time>
            <Position>
              <LatitudeDegrees>39.471681229770183563232421875</LatitudeDegrees>
              <LongitudeDegrees>-0.49977491609752178192138671875</LongitudeDegrees>
            </Position>
            <AltitudeMeters>80</AltitudeMeters>
            <DistanceMeters>6676.9298948044</DistanceMeters>
          </Trackpoint>
          <Trackpoint>
            <Time>2021-10-09T07:02:26.000Z</Time>
            <Position>
              <LatitudeDegrees>39.4716864265501499176025390625</LatitudeDegrees>
              <LongitudeDegrees>-0.49985236488282680511474609375</LongitudeDegrees>
            </Position>
            <AltitudeMeters>80.1999969482421875</AltitudeMeters>
            <DistanceMeters>6683.6095360904</DistanceMeters>
          </Trackpoint>
          <Trackpoint>
            <Time>2021-10-09T07:02:27.000Z</Time>
            <Position>
              <LatitudeDegrees>39.47169103659689426422119140625</LatitudeDegrees>
              <LongitudeDegrees>-0.49992914311587810516357421875</LongitudeDegrees>
            </Position>
            <AltitudeMeters>80.40000152587890625</AltitudeMeters>
            <DistanceMeters>6690.2260163178</DistanceMeters>
          </Trackpoint>
          <Trackpoint>
            <Time>2021-10-09T07:02:28.000Z</Time>
            <Position>
              <LatitudeDegrees>39.47169489227235317230224609375</LatitudeDegrees>
              <LongitudeDegrees>-0.500006340444087982177734375</LongitudeDegrees>
            </Position>
            <AltitudeMeters>80.40000152587890625</AltitudeMeters>
            <DistanceMeters>6696.8724540076</DistanceMeters>
          </Trackpoint>
          <Trackpoint>
            <Time>2021-10-09T07:02:29.000Z</Time>
            <Position>
              <LatitudeDegrees>39.471700675785541534423828125</LatitudeDegrees>
              <LongitudeDegrees>-0.50008236430585384368896484375</LongitudeDegrees>
            </Position>
            <AltitudeMeters>80.40000152587890625</AltitudeMeters>
            <DistanceMeters>6703.4354917675</DistanceMeters>
          </Trackpoint>
          <Trackpoint>
            <Time>2021-10-09T07:02:30.000Z</Time>
            <Position>
              <LatitudeDegrees>39.47170637547969818115234375</LatitudeDegrees>
              <LongitudeDegrees>-0.50015780143439769744873046875</LongitudeDegrees>
            </Position>
            <AltitudeMeters>80.40000152587890625</AltitudeMeters>
            <DistanceMeters>6709.9474222785</DistanceMeters>
          </Trackpoint>
          <Trackpoint>
            <Time>2021-10-09T07:02:31.000Z</Time>
            <Position>
              <LatitudeDegrees>39.47171199135482311248779296875</LatitudeDegrees>
              <LongitudeDegrees>-0.5002334900200366973876953125</LongitudeDegrees>
            </Position>
            <AltitudeMeters>80.59999847412109375</AltitudeMeters>
            <DistanceMeters>6716.4808112422</DistanceMeters>
          </Trackpoint>
          <Trackpoint>
            <Time>2021-10-09T07:02:32.000Z</Time>
            <Position>
              <LatitudeDegrees>39.471717439591884613037109375</LatitudeDegrees>
              <LongitudeDegrees>-0.50030901096761226654052734375</LongitudeDegrees>
            </Position>
            <AltitudeMeters>80.8000030517578125</AltitudeMeters>
            <DistanceMeters>6722.9975933864</DistanceMeters>
          </Trackpoint>
          <Trackpoint>
            <Time>2021-10-09T07:02:33.000Z</Time>
            <Position>
              <LatitudeDegrees>39.47172104381024837493896484375</LatitudeDegrees>
              <LongitudeDegrees>-0.50038478337228298187255859375</LongitudeDegrees>
            </Position>
            <AltitudeMeters>81</AltitudeMeters>
            <DistanceMeters>6729.5206080426</DistanceMeters>
          </Trackpoint>
          <Trackpoint>
            <Time>2021-10-09T07:02:34.000Z</Time>
            <Position>
              <LatitudeDegrees>39.471725486218929290771484375</LatitudeDegrees>
              <LongitudeDegrees>-0.50045854412019252777099609375</LongitudeDegrees>
            </Position>
            <AltitudeMeters>81.1999969482421875</AltitudeMeters>
            <DistanceMeters>6735.8781722116</DistanceMeters>
          </Trackpoint>
          <Trackpoint>
            <Time>2021-10-09T07:02:35.000Z</Time>
            <Position>
              <LatitudeDegrees>39.471730850636959075927734375</LatitudeDegrees>
              <LongitudeDegrees>-0.50053247250616550445556640625</LongitudeDegrees>
            </Position>
            <AltitudeMeters>81.1999969482421875</AltitudeMeters>
            <DistanceMeters>6742.2584217842</DistanceMeters>
          </Trackpoint>
          <Trackpoint>
            <Time>2021-10-09T07:02:36.000Z</Time>
            <Position>
              <LatitudeDegrees>39.47173797525465488433837890625</LatitudeDegrees>
              <LongitudeDegrees>-0.500603802502155303955078125</LongitudeDegrees>
            </Position>
            <AltitudeMeters>81.1999969482421875</AltitudeMeters>
            <DistanceMeters>6748.4388120112</DistanceMeters>
          </Trackpoint>
          <Trackpoint>
            <Time>2021-10-09T07:02:37.000Z</Time>
            <Position>
              <LatitudeDegrees>39.47174468077719211578369140625</LatitudeDegrees>
              <LongitudeDegrees>-0.5006758868694305419921875</LongitudeDegrees>
            </Position>
            <AltitudeMeters>81.40000152587890625</AltitudeMeters>
            <DistanceMeters>6754.6759242694</DistanceMeters>
          </Trackpoint>
          <Trackpoint>
            <Time>2021-10-09T07:02:38.000Z</Time>
            <Position>
              <LatitudeDegrees>39.47175038047134876251220703125</LatitudeDegrees>
              <LongitudeDegrees>-0.5007494799792766571044921875</LongitudeDegrees>
            </Position>
            <AltitudeMeters>81.40000152587890625</AltitudeMeters>
            <DistanceMeters>6761.0292259074</DistanceMeters>
          </Trackpoint>
          <Trackpoint>
            <Time>2021-10-09T07:02:39.000Z</Time>
            <Position>
              <LatitudeDegrees>39.47175457142293453216552734375</LatitudeDegrees>
              <LongitudeDegrees>-0.5008232407271862030029296875</LongitudeDegrees>
            </Position>
            <AltitudeMeters>81.40000152587890625</AltitudeMeters>
            <DistanceMeters>6767.3839487069</DistanceMeters>
          </Trackpoint>
          <Trackpoint>
            <Time>2021-10-09T07:02:40.000Z</Time>
            <Position>
              <LatitudeDegrees>39.471758343279361724853515625</LatitudeDegrees>
              <LongitudeDegrees>-0.50089758820831775665283203125</LongitudeDegrees>
            </Position>
            <AltitudeMeters>81.59999847412109375</AltitudeMeters>
            <DistanceMeters>6773.7860981099</DistanceMeters>
          </Trackpoint>
          <Trackpoint>
            <Time>2021-10-09T07:02:41.000Z</Time>
            <Position>
              <LatitudeDegrees>39.47176530025899410247802734375</LatitudeDegrees>
              <LongitudeDegrees>-0.50097017548978328704833984375</LongitudeDegrees>
            </Position>
            <AltitudeMeters>81.8000030517578125</AltitudeMeters>
            <DistanceMeters>6780.0708060877</DistanceMeters>
          </Trackpoint>
          <Trackpoint>
            <Time>2021-10-09T07:02:42.000Z</Time>
            <Position>
              <LatitudeDegrees>39.47177267633378505706787109375</LatitudeDegrees>
              <LongitudeDegrees>-0.50104410387575626373291015625</LongitudeDegrees>
            </Position>
            <AltitudeMeters>81.8000030517578125</AltitudeMeters>
            <DistanceMeters>6786.4750708549</DistanceMeters>
          </Trackpoint>
          <Trackpoint>
            <Time>2021-10-09T07:02:43.000Z</Time>
            <Position>
              <LatitudeDegrees>39.471779800951480865478515625</LatitudeDegrees>
              <LongitudeDegrees>-0.50111870281398296356201171875</LongitudeDegrees>
            </Position>
            <AltitudeMeters>81.8000030517578125</AltitudeMeters>
            <DistanceMeters>6792.9326937161</DistanceMeters>
          </Trackpoint>
          <Trackpoint>
            <Time>2021-10-09T07:02:44.000Z</Time>
            <Position>
              <LatitudeDegrees>39.47178306989371776580810546875</LatitudeDegrees>
              <LongitudeDegrees>-0.5011947266757488250732421875</LongitudeDegrees>
            </Position>
            <AltitudeMeters>81.8000030517578125</AltitudeMeters>
            <DistanceMeters>6799.4750604396</DistanceMeters>
          </Trackpoint>
          <Trackpoint>
            <Time>2021-10-09T07:02:45.000Z</Time>
            <Position>
              <LatitudeDegrees>39.47178625501692295074462890625</LatitudeDegrees>
              <LongitudeDegrees>-0.50127007998526096343994140625</LongitudeDegrees>
            </Position>
            <AltitudeMeters>82</AltitudeMeters>
            <DistanceMeters>6805.9591976932</DistanceMeters>
          </Trackpoint>
          <Trackpoint>
            <Time>2021-10-09T07:02:46.000Z</Time>
            <Position>
              <LatitudeDegrees>39.47179161943495273590087890625</LatitudeDegrees>
              <LongitudeDegrees>-0.50134451128542423248291015625</LongitudeDegrees>
            </Position>
            <AltitudeMeters>82</AltitudeMeters>
            <DistanceMeters>6812.3817664313</DistanceMeters>
          </Trackpoint>
          <Trackpoint>
            <Time>2021-10-09T07:02:47.000Z</Time>
            <Position>
              <LatitudeDegrees>39.47179765440523624420166015625</LatitudeDegrees>
              <LongitudeDegrees>-0.50141827203333377838134765625</LongitudeDegrees>
            </Position>
            <AltitudeMeters>82</AltitudeMeters>
            <DistanceMeters>6818.7542270054</DistanceMeters>
          </Trackpoint>
          <Trackpoint>
            <Time>2021-10-09T07:02:48.000Z</Time>
            <Position>
              <LatitudeDegrees>39.47180352173745632171630859375</LatitudeDegrees>
              <LongitudeDegrees>-0.50149119459092617034912109375</LongitudeDegrees>
            </Position>
            <AltitudeMeters>82.1999969482421875</AltitudeMeters>
            <DistanceMeters>6825.0532869269</DistanceMeters>
          </Trackpoint>
          <Trackpoint>
            <Time>2021-10-09T07:02:49.000Z</Time>
            <Position>
              <LatitudeDegrees>39.4718084670603275299072265625</LatitudeDegrees>
              <LongitudeDegrees>-0.5015645362436771392822265625</LongitudeDegrees>
            </Position>
            <AltitudeMeters>82.1999969482421875</AltitudeMeters>
            <DistanceMeters>6831.3780982796</DistanceMeters>
          </Trackpoint>
          <Trackpoint>
            <Time>2021-10-09T07:02:50.000Z</Time>
            <Position>
              <LatitudeDegrees>39.4718114845454692840576171875</LatitudeDegrees>
              <LongitudeDegrees>-0.50163787789642810821533203125</LongitudeDegrees>
            </Position>
            <AltitudeMeters>82.1999969482421875</AltitudeMeters>
            <DistanceMeters>6837.688616255</DistanceMeters>
          </Trackpoint>
          <Trackpoint>
            <Time>2021-10-09T07:02:51.000Z</Time>
            <Position>
              <LatitudeDegrees>39.47181425057351589202880859375</LatitudeDegrees>
              <LongitudeDegrees>-0.50171163864433765411376953125</LongitudeDegrees>
            </Position>
            <AltitudeMeters>82.1999969482421875</AltitudeMeters>
            <DistanceMeters>6844.0333842403</DistanceMeters>
          </Trackpoint>
          <Trackpoint>
            <Time>2021-10-09T07:02:52.000Z</Time>
            <Position>
              <LatitudeDegrees>39.4718191958963871002197265625</LatitudeDegrees>
              <LongitudeDegrees>-0.5017848126590251922607421875</LongitudeDegrees>
            </Position>
            <AltitudeMeters>82.40000152587890625</AltitudeMeters>
            <DistanceMeters>6850.3446176533</DistanceMeters>
          </Trackpoint>
          <Trackpoint>
            <Time>2021-10-09T07:02:53.000Z</Time>
            <Position>
              <LatitudeDegrees>39.47182296775281429290771484375</LatitudeDegrees>
              <LongitudeDegrees>-0.501857735216617584228515625</LongitudeDegrees>
            </Position>
            <AltitudeMeters>82.40000152587890625</AltitudeMeters>
            <DistanceMeters>6856.6242947016</DistanceMeters>
          </Trackpoint>
          <Trackpoint>
            <Time>2021-10-09T07:02:54.000Z</Time>
            <Position>
              <LatitudeDegrees>39.471827410161495208740234375</LatitudeDegrees>
              <LongitudeDegrees>-0.50193183124065399169921875</LongitudeDegrees>
            </Position>
            <AltitudeMeters>82.40000152587890625</AltitudeMeters>
            <DistanceMeters>6863.0102030333</DistanceMeters>
          </Trackpoint>
          <Trackpoint>
            <Time>2021-10-09T07:02:55.000Z</Time>
            <Position>
              <LatitudeDegrees>39.4718332774937152862548828125</LatitudeDegrees>
              <LongitudeDegrees>-0.50200584344565868377685546875</LongitudeDegrees>
            </Position>
            <AltitudeMeters>82.40000152587890625</AltitudeMeters>
            <DistanceMeters>6869.4031777701</DistanceMeters>
          </Trackpoint>
          <Trackpoint>
            <Time>2021-10-09T07:02:56.000Z</Time>
            <Position>
              <LatitudeDegrees>39.47183914482593536376953125</LatitudeDegrees>
              <LongitudeDegrees>-0.50208128057420253753662109375</LongitudeDegrees>
            </Position>
            <AltitudeMeters>82.40000152587890625</AltitudeMeters>
            <DistanceMeters>6875.917187995</DistanceMeters>
          </Trackpoint>
          <Trackpoint>
            <Time>2021-10-09T07:02:57.000Z</Time>
            <Position>
              <LatitudeDegrees>39.4718433357775211334228515625</LatitudeDegrees>
              <LongitudeDegrees>-0.50215554423630237579345703125</LongitudeDegrees>
            </Position>
            <AltitudeMeters>82.59999847412109375</AltitudeMeters>
            <DistanceMeters>6882.3143988282</DistanceMeters>
          </Trackpoint>
          <Trackpoint>
            <Time>2021-10-09T07:02:58.000Z</Time>
            <Position>
              <LatitudeDegrees>39.47184794582426548004150390625</LatitudeDegrees>
              <LongitudeDegrees>-0.5022293888032436370849609375</LongitudeDegrees>
            </Position>
            <AltitudeMeters>82.59999847412109375</AltitudeMeters>
            <DistanceMeters>6888.6804794969</DistanceMeters>
          </Trackpoint>
          <Trackpoint>
            <Time>2021-10-09T07:02:59.000Z</Time>
            <Position>
              <LatitudeDegrees>39.4718537293374538421630859375</LatitudeDegrees>
              <LongitudeDegrees>-0.50230239517986774444580078125</LongitudeDegrees>
            </Position>
            <AltitudeMeters>82.8000030517578125</AltitudeMeters>
            <DistanceMeters>6894.9859871357</DistanceMeters>
          </Trackpoint>
          <Trackpoint>
            <Time>2021-10-09T07:03:00.000Z</Time>
            <Position>
              <LatitudeDegrees>39.4718594290316104888916015625</LatitudeDegrees>
              <LongitudeDegrees>-0.502376072108745574951171875</LongitudeDegrees>
            </Position>
            <AltitudeMeters>83</AltitudeMeters>
            <DistanceMeters>6901.3478109797</DistanceMeters>
          </Trackpoint>
          <Trackpoint>
            <Time>2021-10-09T07:03:01.000Z</Time>
            <Position>
              <LatitudeDegrees>39.47186437435448169708251953125</LatitudeDegrees>
              <LongitudeDegrees>-0.50244991667568683624267578125</LongitudeDegrees>
            </Position>
            <AltitudeMeters>83</AltitudeMeters>
            <DistanceMeters>6907.7160189937</DistanceMeters>
          </Trackpoint>
          <Trackpoint>
            <Time>2021-10-09T07:03:02.000Z</Time>
            <Position>
              <LatitudeDegrees>39.47187024168670177459716796875</LatitudeDegrees>
              <LongitudeDegrees>-0.50252418033778667449951171875</LongitudeDegrees>
            </Position>
            <AltitudeMeters>83.1999969482421875</AltitudeMeters>
            <DistanceMeters>6914.1287382395</DistanceMeters>
          </Trackpoint>
          <Trackpoint>
            <Time>2021-10-09T07:03:03.000Z</Time>
            <Position>
              <LatitudeDegrees>39.4718758575618267059326171875</LatitudeDegrees>
              <LongitudeDegrees>-0.50259743817150592803955078125</LongitudeDegrees>
            </Position>
            <AltitudeMeters>83.40000152587890625</AltitudeMeters>
            <DistanceMeters>6920.4535495922</DistanceMeters>
          </Trackpoint>
          <Trackpoint>
            <Time>2021-10-09T07:03:04.000Z</Time>
            <Position>
              <LatitudeDegrees>39.47187996469438076019287109375</LatitudeDegrees>
              <LongitudeDegrees>-0.50267077982425689697265625</LongitudeDegrees>
            </Position>
            <AltitudeMeters>83.59999847412109375</AltitudeMeters>
            <DistanceMeters>6926.7712182984</DistanceMeters>
          </Trackpoint>
          <Trackpoint>
            <Time>2021-10-09T07:03:05.000Z</Time>
            <Position>
              <LatitudeDegrees>39.471883736550807952880859375</LatitudeDegrees>
              <LongitudeDegrees>-0.50274630077183246612548828125</LongitudeDegrees>
            </Position>
            <AltitudeMeters>83.8000030517578125</AltitudeMeters>
            <DistanceMeters>6933.2734346829</DistanceMeters>
          </Trackpoint>
          <Trackpoint>
            <Time>2021-10-09T07:03:06.000Z</Time>
            <Position>
              <LatitudeDegrees>39.471890442073345184326171875</LatitudeDegrees>
              <LongitudeDegrees>-0.50282140262424945831298828125</LongitudeDegrees>
            </Position>
            <AltitudeMeters>83.8000030517578125</AltitudeMeters>
            <DistanceMeters>6939.7687035108</DistanceMeters>
          </Trackpoint>
          <Trackpoint>
            <Time>2021-10-09T07:03:07.000Z</Time>
            <Position>
              <LatitudeDegrees>39.471897818148136138916015625</LatitudeDegrees>
              <LongitudeDegrees>-0.50291108898818492889404296875</LongitudeDegrees>
            </Position>
            <AltitudeMeters>83.8000030517578125</AltitudeMeters>
            <DistanceMeters>6947.5184801804</DistanceMeters>
          </Trackpoint>
          <Trackpoint>
            <Time>2021-10-09T07:03:08.000Z</Time>
            <Position>
              <LatitudeDegrees>39.4719026796519756317138671875</LatitudeDegrees>
              <LongitudeDegrees>-0.50297076813876628875732421875</LongitudeDegrees>
            </Position>
            <AltitudeMeters>84</AltitudeMeters>
            <DistanceMeters>6952.6745004529</DistanceMeters>
          </Trackpoint>
          <Trackpoint>
            <Time>2021-10-09T07:03:09.000Z</Time>
            <Position>
              <LatitudeDegrees>39.471908546984195709228515625</LatitudeDegrees>
              <LongitudeDegrees>-0.5030444450676441192626953125</LongitudeDegrees>
            </Position>
            <AltitudeMeters>84</AltitudeMeters>
            <DistanceMeters>6959.0384530652</DistanceMeters>
          </Trackpoint>
          <Trackpoint>
            <Time>2021-10-09T07:03:10.000Z</Time>
            <Position>
              <LatitudeDegrees>39.47191290557384490966796875</LatitudeDegrees>
              <LongitudeDegrees>-0.5031178705394268035888671875</LongitudeDegrees>
            </Position>
            <AltitudeMeters>84</AltitudeMeters>
            <DistanceMeters>6965.3661192189</DistanceMeters>
          </Trackpoint>
          <Trackpoint>
            <Time>2021-10-09T07:03:11.000Z</Time>
            <Position>
              <LatitudeDegrees>39.4719181023538112640380859375</LatitudeDegrees>
              <LongitudeDegrees>-0.50319205038249492645263671875</LongitudeDegrees>
            </Position>
            <AltitudeMeters>84.1999969482421875</AltitudeMeters>
            <DistanceMeters>6971.7661525586</DistanceMeters>
          </Trackpoint>
          <Trackpoint>
            <Time>2021-10-09T07:03:12.000Z</Time>
            <Position>
              <LatitudeDegrees>39.47192321531474590301513671875</LatitudeDegrees>
              <LongitudeDegrees>-0.50326715223491191864013671875</LongitudeDegrees>
            </Position>
            <AltitudeMeters>84.1999969482421875</AltitudeMeters>
            <DistanceMeters>6978.2440198956</DistanceMeters>
          </Trackpoint>
          <Trackpoint>
            <Time>2021-10-09T07:03:13.000Z</Time>
            <Position>
              <LatitudeDegrees>39.47192958556115627288818359375</LatitudeDegrees>
              <LongitudeDegrees>-0.503341667354106903076171875</LongitudeDegrees>
            </Position>
            <AltitudeMeters>84.1999969482421875</AltitudeMeters>
            <DistanceMeters>6984.6855415528</DistanceMeters>
          </Trackpoint>
          <Trackpoint>
            <Time>2021-10-09T07:03:14.000Z</Time>
            <Position>
              <LatitudeDegrees>39.47193595580756664276123046875</LatitudeDegrees>
              <LongitudeDegrees>-0.5034162662923336029052734375</LongitudeDegrees>
            </Position>
            <AltitudeMeters>84.40000152587890625</AltitudeMeters>
            <DistanceMeters>6991.1333684695</DistanceMeters>
          </Trackpoint>
          <Trackpoint>
            <Time>2021-10-09T07:03:15.000Z</Time>
            <Position>
              <LatitudeDegrees>39.47194081731140613555908203125</LatitudeDegrees>
              <LongitudeDegrees>-0.50349212251603603363037109375</LongitudeDegrees>
            </Position>
            <AltitudeMeters>84.40000152587890625</AltitudeMeters>
            <DistanceMeters>6997.673664496</DistanceMeters>
          </Trackpoint>
          <Trackpoint>
            <Time>2021-10-09T07:03:16.000Z</Time>
            <Position>
              <LatitudeDegrees>39.4719449244439601898193359375</LatitudeDegrees>
              <LongitudeDegrees>-0.503568984568119049072265625</LongitudeDegrees>
            </Position>
            <AltitudeMeters>84.40000152587890625</AltitudeMeters>
            <DistanceMeters>7004.294237814</DistanceMeters>
          </Trackpoint>
          <Trackpoint>
            <Time>2021-10-09T07:03:17.000Z</Time>
            <Position>
              <LatitudeDegrees>39.4719486124813556671142578125</LatitudeDegrees>
              <LongitudeDegrees>-0.50364685244858264923095703125</LongitudeDegrees>
            </Position>
            <AltitudeMeters>84.40000152587890625</AltitudeMeters>
            <DistanceMeters>7010.9974952599</DistanceMeters>
          </Trackpoint>
          <Trackpoint>
            <Time>2021-10-09T07:03:18.000Z</Time>
            <Position>
              <LatitudeDegrees>39.47195456363260746002197265625</LatitudeDegrees>
              <LongitudeDegrees>-0.5037237145006656646728515625</LongitudeDegrees>
            </Position>
            <AltitudeMeters>84.59999847412109375</AltitudeMeters>
            <DistanceMeters>7017.6344156974</DistanceMeters>
          </Trackpoint>
          <Trackpoint>
            <Time>2021-10-09T07:03:19.000Z</Time>
            <Position>
              <LatitudeDegrees>39.47195942513644695281982421875</LatitudeDegrees>
              <LongitudeDegrees>-0.50379890017211437225341796875</LongitudeDegrees>
            </Position>
            <AltitudeMeters>84.59999847412109375</AltitudeMeters>
            <DistanceMeters>7024.1164636526</DistanceMeters>
          </Trackpoint>
          <Trackpoint>
            <Time>2021-10-09T07:03:20.000Z</Time>
            <Position>
              <LatitudeDegrees>39.47196328081190586090087890625</LatitudeDegrees>
              <LongitudeDegrees>-0.50387517549097537994384765625</LongitudeDegrees>
            </Position>
            <AltitudeMeters>84.8000030517578125</AltitudeMeters>
            <DistanceMeters>7030.683627812</DistanceMeters>
          </Trackpoint>
          <Trackpoint>
            <Time>2021-10-09T07:03:21.000Z</Time>
            <Position>
              <LatitudeDegrees>39.471968896687030792236328125</LatitudeDegrees>
              <LongitudeDegrees>-0.50395178608596324920654296875</LongitudeDegrees>
            </Position>
            <AltitudeMeters>84.8000030517578125</AltitudeMeters>
            <DistanceMeters>7037.2960124152</DistanceMeters>
          </Trackpoint>
          <Trackpoint>
            <Time>2021-10-09T07:03:22.000Z</Time>
            <Position>
              <LatitudeDegrees>39.47197434492409229278564453125</LatitudeDegrees>
              <LongitudeDegrees>-0.50402722321450710296630859375</LongitudeDegrees>
            </Position>
            <AltitudeMeters>84.8000030517578125</AltitudeMeters>
            <DistanceMeters>7043.8051689409</DistanceMeters>
          </Trackpoint>
          <Trackpoint>
            <Time>2021-10-09T07:03:23.000Z</Time>
            <Position>
              <LatitudeDegrees>39.47197861969470977783203125</LatitudeDegrees>
              <LongitudeDegrees>-0.50410249270498752593994140625</LongitudeDegrees>
            </Position>
            <AltitudeMeters>84.8000030517578125</AltitudeMeters>
            <DistanceMeters>7050.2893061944</DistanceMeters>
          </Trackpoint>
          <Trackpoint>
            <Time>2021-10-09T07:03:24.000Z</Time>
            <Position>
              <LatitudeDegrees>39.47198239155113697052001953125</LatitudeDegrees>
              <LongitudeDegrees>-0.50417792983353137969970703125</LongitudeDegrees>
            </Position>
            <AltitudeMeters>85</AltitudeMeters>
            <DistanceMeters>7056.7838798578</DistanceMeters>
          </Trackpoint>
          <Trackpoint>
            <Time>2021-10-09T07:03:25.000Z</Time>
            <Position>
              <LatitudeDegrees>39.4719851575791835784912109375</LatitudeDegrees>
              <LongitudeDegrees>-0.5042541213333606719970703125</LongitudeDegrees>
            </Position>
            <AltitudeMeters>85</AltitudeMeters>
            <DistanceMeters>7063.337279248</DistanceMeters>
          </Trackpoint>
          <Trackpoint>
            <Time>2021-10-09T07:03:26.000Z</Time>
            <Position>
              <LatitudeDegrees>39.47198943234980106353759765625</LatitudeDegrees>
              <LongitudeDegrees>-0.50432813353836536407470703125</LongitudeDegrees>
            </Position>
            <AltitudeMeters>85</AltitudeMeters>
            <DistanceMeters>7069.7132814556</DistanceMeters>
          </Trackpoint>
          <Trackpoint>
            <Time>2021-10-09T07:03:27.000Z</Time>
            <Position>
              <LatitudeDegrees>39.4719952158629894256591796875</LatitudeDegrees>
              <LongitudeDegrees>-0.504403151571750640869140625</LongitudeDegrees>
            </Position>
            <AltitudeMeters>85</AltitudeMeters>
            <DistanceMeters>7076.1904517605</DistanceMeters>
          </Trackpoint>
          <Trackpoint>
            <Time>2021-10-09T07:03:28.000Z</Time>
            <Position>
              <LatitudeDegrees>39.47199915535748004913330078125</LatitudeDegrees>
              <LongitudeDegrees>-0.50447951070964336395263671875</LongitudeDegrees>
            </Position>
            <AltitudeMeters>85</AltitudeMeters>
            <DistanceMeters>7082.7658609503</DistanceMeters>
          </Trackpoint>
          <Trackpoint>
            <Time>2021-10-09T07:03:29.000Z</Time>
            <Position>
              <LatitudeDegrees>39.47200401686131954193115234375</LatitudeDegrees>
              <LongitudeDegrees>-0.5045575462281703948974609375</LongitudeDegrees>
            </Position>
            <AltitudeMeters>85</AltitudeMeters>
            <DistanceMeters>7089.4919804099</DistanceMeters>
          </Trackpoint>
          <Trackpoint>
            <Time>2021-10-09T07:03:30.000Z</Time>
            <Position>
              <LatitudeDegrees>39.472009800374507904052734375</LatitudeDegrees>
              <LongitudeDegrees>-0.5046390183269977569580078125</LongitudeDegrees>
            </Position>
            <AltitudeMeters>85</AltitudeMeters>
            <DistanceMeters>7096.5213885145</DistanceMeters>
          </Trackpoint>
          <Trackpoint>
            <Time>2021-10-09T07:03:31.000Z</Time>
            <Position>
              <LatitudeDegrees>39.472015835344791412353515625</LatitudeDegrees>
              <LongitudeDegrees>-0.50472275353968143463134765625</LongitudeDegrees>
            </Position>
            <AltitudeMeters>85</AltitudeMeters>
            <DistanceMeters>7103.7471688875</DistanceMeters>
          </Trackpoint>
          <Trackpoint>
            <Time>2021-10-09T07:03:32.000Z</Time>
            <Position>
              <LatitudeDegrees>39.4720240496098995208740234375</LatitudeDegrees>
              <LongitudeDegrees>-0.50480623729526996612548828125</LongitudeDegrees>
            </Position>
            <AltitudeMeters>85.40000152587890625</AltitudeMeters>
            <DistanceMeters>7110.977946343</DistanceMeters>
          </Trackpoint>
          <Trackpoint>
            <Time>2021-10-09T07:03:33.000Z</Time>
            <Position>
              <LatitudeDegrees>39.47203000076115131378173828125</LatitudeDegrees>
              <LongitudeDegrees>-0.5048884637653827667236328125</LongitudeDegrees>
            </Position>
            <AltitudeMeters>85.40000152587890625</AltitudeMeters>
            <DistanceMeters>7118.0738399619</DistanceMeters>
          </Trackpoint>
          <Trackpoint>
            <Time>2021-10-09T07:03:34.000Z</Time>
            <Position>
              <LatitudeDegrees>39.4720364548265933990478515625</LatitudeDegrees>
              <LongitudeDegrees>-0.5049689300358295440673828125</LongitudeDegrees>
            </Position>
            <AltitudeMeters>85.40000152587890625</AltitudeMeters>
            <DistanceMeters>7125.0244448978</DistanceMeters>
          </Trackpoint>
          <Trackpoint>
            <Time>2021-10-09T07:03:35.000Z</Time>
            <Position>
              <LatitudeDegrees>39.47204257361590862274169921875</LatitudeDegrees>
              <LongitudeDegrees>-0.5050634779036045074462890625</LongitudeDegrees>
            </Position>
            <AltitudeMeters>85.40000152587890625</AltitudeMeters>
            <DistanceMeters>7133.1762749102</DistanceMeters>
          </Trackpoint>
          <Trackpoint>
            <Time>2021-10-09T07:03:36.000Z</Time>
            <Position>
              <LatitudeDegrees>39.47204835712909698486328125</LatitudeDegrees>
              <LongitudeDegrees>-0.5051261745393276214599609375</LongitudeDegrees>
            </Position>
            <AltitudeMeters>85.40000152587890625</AltitudeMeters>
            <DistanceMeters>7138.6019591258</DistanceMeters>
          </Trackpoint>
          <Trackpoint>
            <Time>2021-10-09T07:03:37.000Z</Time>
            <Position>
              <LatitudeDegrees>39.472054727375507354736328125</LatitudeDegrees>
              <LongitudeDegrees>-0.5052042938768863677978515625</LongitudeDegrees>
            </Position>
            <AltitudeMeters>85.40000152587890625</AltitudeMeters>
            <DistanceMeters>7145.3508631541</DistanceMeters>
          </Trackpoint>
          <Trackpoint>
            <Time>2021-10-09T07:03:38.000Z</Time>
            <Position>
              <LatitudeDegrees>39.4720592536032199859619140625</LatitudeDegrees>
              <LongitudeDegrees>-0.505282580852508544921875</LongitudeDegrees>
            </Position>
            <AltitudeMeters>85.59999847412109375</AltitudeMeters>
            <DistanceMeters>7152.095751969</DistanceMeters>
          </Trackpoint>
          <Trackpoint>
            <Time>2021-10-09T07:03:39.000Z</Time>
            <Position>
              <LatitudeDegrees>39.472064115107059478759765625</LatitudeDegrees>
              <LongitudeDegrees>-0.50536095164716243743896484375</LongitudeDegrees>
            </Position>
            <AltitudeMeters>85.59999847412109375</AltitudeMeters>
            <DistanceMeters>7158.8513427165</DistanceMeters>
          </Trackpoint>
          <Trackpoint>
            <Time>2021-10-09T07:03:40.000Z</Time>
            <Position>
              <LatitudeDegrees>39.47206838987767696380615234375</LatitudeDegrees>
              <LongitudeDegrees>-0.50544091500341892242431640625</LongitudeDegrees>
            </Position>
            <AltitudeMeters>85.59999847412109375</AltitudeMeters>
            <DistanceMeters>7165.7379936793</DistanceMeters>
          </Trackpoint>
          <Trackpoint>
            <Time>2021-10-09T07:03:41.000Z</Time>
            <Position>
              <LatitudeDegrees>39.47207341901957988739013671875</LatitudeDegrees>
              <LongitudeDegrees>-0.505520291626453399658203125</LongitudeDegrees>
            </Position>
            <AltitudeMeters>85.59999847412109375</AltitudeMeters>
            <DistanceMeters>7172.5812368021</DistanceMeters>
          </Trackpoint>
          <Trackpoint>
            <Time>2021-10-09T07:03:42.000Z</Time>
            <Position>
              <LatitudeDegrees>39.472078867256641387939453125</LatitudeDegrees>
              <LongitudeDegrees>-0.50559899769723415374755859375</LongitudeDegrees>
            </Position>
            <AltitudeMeters>85.8000030517578125</AltitudeMeters>
            <DistanceMeters>7179.3701623556</DistanceMeters>
          </Trackpoint>
          <Trackpoint>
            <Time>2021-10-09T07:03:43.000Z</Time>
            <Position>
              <LatitudeDegrees>39.47208414785563945770263671875</LatitudeDegrees>
              <LongitudeDegrees>-0.50567694939672946929931640625</LongitudeDegrees>
            </Position>
            <AltitudeMeters>85.8000030517578125</AltitudeMeters>
            <DistanceMeters>7186.0922529921</DistanceMeters>
          </Trackpoint>
          <Trackpoint>
            <Time>2021-10-09T07:03:44.000Z</Time>
            <Position>
              <LatitudeDegrees>39.47208783589303493499755859375</LatitudeDegrees>
              <LongitudeDegrees>-0.50575573928654193878173828125</LongitudeDegrees>
            </Position>
            <AltitudeMeters>85.8000030517578125</AltitudeMeters>
            <DistanceMeters>7192.8745246916</DistanceMeters>
          </Trackpoint>
          <Trackpoint>
            <Time>2021-10-09T07:03:45.000Z</Time>
            <Position>
              <LatitudeDegrees>39.47209320031106472015380859375</LatitudeDegrees>
              <LongitudeDegrees>-0.50583385862410068511962890625</LongitudeDegrees>
            </Position>
            <AltitudeMeters>85.8000030517578125</AltitudeMeters>
            <DistanceMeters>7199.612716167</DistanceMeters>
          </Trackpoint>
          <Trackpoint>
            <Time>2021-10-09T07:03:46.000Z</Time>
            <Position>
              <LatitudeDegrees>39.47209906764328479766845703125</LatitudeDegrees>
              <LongitudeDegrees>-0.50591147504746913909912109375</LongitudeDegrees>
            </Position>
            <AltitudeMeters>85.8000030517578125</AltitudeMeters>
            <DistanceMeters>7206.3139526317</DistanceMeters>
          </Trackpoint>
          <Trackpoint>
            <Time>2021-10-09T07:03:47.000Z</Time>
            <Position>
              <LatitudeDegrees>39.47210392914712429046630859375</LatitudeDegrees>
              <LongitudeDegrees>-0.50598875619471073150634765625</LongitudeDegrees>
            </Position>
            <AltitudeMeters>86</AltitudeMeters>
            <DistanceMeters>7212.9753185311</DistanceMeters>
          </Trackpoint>
          <Trackpoint>
            <Time>2021-10-09T07:03:48.000Z</Time>
            <Position>
              <LatitudeDegrees>39.472109712660312652587890625</LatitudeDegrees>
              <LongitudeDegrees>-0.50606645643711090087890625</LongitudeDegrees>
            </Position>
            <AltitudeMeters>86</AltitudeMeters>
            <DistanceMeters>7219.681269671</DistanceMeters>
          </Trackpoint>
          <Trackpoint>
            <Time>2021-10-09T07:03:49.000Z</Time>
            <Position>
              <LatitudeDegrees>39.4721155799925327301025390625</LatitudeDegrees>
              <LongitudeDegrees>-0.50614289939403533935546875</LongitudeDegrees>
            </Position>
            <AltitudeMeters>86</AltitudeMeters>
            <DistanceMeters>7226.2813521528</DistanceMeters>
          </Trackpoint>
          <Trackpoint>
            <Time>2021-10-09T07:03:50.000Z</Time>
            <Position>
              <LatitudeDegrees>39.47212077677249908447265625</LatitudeDegrees>
              <LongitudeDegrees>-0.506221354007720947265625</LongitudeDegrees>
            </Position>
            <AltitudeMeters>86.1999969482421875</AltitudeMeters>
            <DistanceMeters>7233.0469605877</DistanceMeters>
          </Trackpoint>
          <Trackpoint>
            <Time>2021-10-09T07:03:51.000Z</Time>
            <Position>
              <LatitudeDegrees>39.47212806902825832366943359375</LatitudeDegrees>
              <LongitudeDegrees>-0.5062979646027088165283203125</LongitudeDegrees>
            </Position>
            <AltitudeMeters>86.1999969482421875</AltitudeMeters>
            <DistanceMeters>7239.6797980224</DistanceMeters>
          </Trackpoint>
          <Trackpoint>
            <Time>2021-10-09T07:03:52.000Z</Time>
            <Position>
              <LatitudeDegrees>39.47213443927466869354248046875</LatitudeDegrees>
              <LongitudeDegrees>-0.50637499429285526275634765625</LongitudeDegrees>
            </Position>
            <AltitudeMeters>86.1999969482421875</AltitudeMeters>
            <DistanceMeters>7246.3357393558</DistanceMeters>
          </Trackpoint>
          <Trackpoint>
            <Time>2021-10-09T07:03:53.000Z</Time>
            <Position>
              <LatitudeDegrees>39.47213879786431789398193359375</LatitudeDegrees>
              <LongitudeDegrees>-0.50645261071622371673583984375</LongitudeDegrees>
            </Position>
            <AltitudeMeters>86.1999969482421875</AltitudeMeters>
            <DistanceMeters>7253.0221366274</DistanceMeters>
          </Trackpoint>
          <Trackpoint>
            <Time>2021-10-09T07:03:54.000Z</Time>
            <Position>
              <LatitudeDegrees>39.4721430726349353790283203125</LatitudeDegrees>
              <LongitudeDegrees>-0.50653056241571903228759765625</LongitudeDegrees>
            </Position>
            <AltitudeMeters>86.40000152587890625</AltitudeMeters>
            <DistanceMeters>7259.7361623652</DistanceMeters>
          </Trackpoint>
          <Trackpoint>
            <Time>2021-10-09T07:03:55.000Z</Time>
            <Position>
              <LatitudeDegrees>39.4721474312245845794677734375</LatitudeDegrees>
              <LongitudeDegrees>-0.50660750828683376312255859375</LongitudeDegrees>
            </Position>
            <AltitudeMeters>86.40000152587890625</AltitudeMeters>
            <DistanceMeters>7266.3649142822</DistanceMeters>
          </Trackpoint>
          <Trackpoint>
            <Time>2021-10-09T07:03:56.000Z</Time>
            <Position>
              <LatitudeDegrees>39.4721517898142337799072265625</LatitudeDegrees>
              <LongitudeDegrees>-0.50668395124375820159912109375</LongitudeDegrees>
            </Position>
            <AltitudeMeters>86.59999847412109375</AltitudeMeters>
            <DistanceMeters>7272.9513007905</DistanceMeters>
          </Trackpoint>
          <Trackpoint>
            <Time>2021-10-09T07:03:57.000Z</Time>
            <Position>
              <LatitudeDegrees>39.472157657146453857421875</LatitudeDegrees>
              <LongitudeDegrees>-0.50676089711487293243408203125</LongitudeDegrees>
            </Position>
            <AltitudeMeters>86.59999847412109375</AltitudeMeters>
            <DistanceMeters>7279.5950206565</DistanceMeters>
          </Trackpoint>
          <Trackpoint>
            <Time>2021-10-09T07:03:58.000Z</Time>
            <Position>
              <LatitudeDegrees>39.47216310538351535797119140625</LatitudeDegrees>
              <LongitudeDegrees>-0.506836585700511932373046875</LongitudeDegrees>
            </Position>
            <AltitudeMeters>86.59999847412109375</AltitudeMeters>
            <DistanceMeters>7286.1263360769</DistanceMeters>
          </Trackpoint>
          <Trackpoint>
            <Time>2021-10-09T07:03:59.000Z</Time>
            <Position>
              <LatitudeDegrees>39.4721678830683231353759765625</LatitudeDegrees>
              <LongitudeDegrees>-0.50691294483840465545654296875</LongitudeDegrees>
            </Position>
            <AltitudeMeters>86.59999847412109375</AltitudeMeters>
            <DistanceMeters>7292.7079222613</DistanceMeters>
          </Trackpoint>
          <Trackpoint>
            <Time>2021-10-09T07:04:00.000Z</Time>
            <Position>
              <LatitudeDegrees>39.47217266075313091278076171875</LatitudeDegrees>
              <LongitudeDegrees>-0.506988801062107086181640625</LongitudeDegrees>
            </Position>
            <AltitudeMeters>86.59999847412109375</AltitudeMeters>
            <DistanceMeters>7299.2475279098</DistanceMeters>
          </Trackpoint>
          <Trackpoint>
            <Time>2021-10-09T07:04:01.000Z</Time>
            <Position>
              <LatitudeDegrees>39.472178108990192413330078125</LatitudeDegrees>
              <LongitudeDegrees>-0.50706398673355579376220703125</LongitudeDegrees>
            </Position>
            <AltitudeMeters>86.59999847412109375</AltitudeMeters>
            <DistanceMeters>7305.7351458321</DistanceMeters>
          </Trackpoint>
          <Trackpoint>
            <Time>2021-10-09T07:04:02.000Z</Time>
            <Position>
              <LatitudeDegrees>39.47218355722725391387939453125</LatitudeDegrees>
              <LongitudeDegrees>-0.507139004766941070556640625</LongitudeDegrees>
            </Position>
            <AltitudeMeters>86.59999847412109375</AltitudeMeters>
            <DistanceMeters>7312.208829851</DistanceMeters>
          </Trackpoint>
          <Trackpoint>
            <Time>2021-10-09T07:04:03.000Z</Time>
            <Position>
              <LatitudeDegrees>39.472188167273998260498046875</LatitudeDegrees>
              <LongitudeDegrees>-0.5072149448096752166748046875</LongitudeDegrees>
            </Position>
            <AltitudeMeters>86.8000030517578125</AltitudeMeters>
            <DistanceMeters>7318.7539564846</DistanceMeters>
          </Trackpoint>
          <Trackpoint>
            <Time>2021-10-09T07:04:04.000Z</Time>
            <Position>
              <LatitudeDegrees>39.4721913523972034454345703125</LatitudeDegrees>
              <LongitudeDegrees>-0.50728996284306049346923828125</LongitudeDegrees>
            </Position>
            <AltitudeMeters>86.8000030517578125</AltitudeMeters>
            <DistanceMeters>7325.2101808352</DistanceMeters>
          </Trackpoint>
          <Trackpoint>
            <Time>2021-10-09T07:04:05.000Z</Time>
            <Position>
              <LatitudeDegrees>39.47219478897750377655029296875</LatitudeDegrees>
              <LongitudeDegrees>-0.50736523233354091644287109375</LongitudeDegrees>
            </Position>
            <AltitudeMeters>86.8000030517578125</AltitudeMeters>
            <DistanceMeters>7331.6880481721</DistanceMeters>
          </Trackpoint>
          <Trackpoint>
            <Time>2021-10-09T07:04:06.000Z</Time>
            <Position>
              <LatitudeDegrees>39.47219914756715297698974609375</LatitudeDegrees>
              <LongitudeDegrees>-0.507440082728862762451171875</LongitudeDegrees>
            </Position>
            <AltitudeMeters>86.8000030517578125</AltitudeMeters>
            <DistanceMeters>7338.1372754205</DistanceMeters>
          </Trackpoint>
          <Trackpoint>
            <Time>2021-10-09T07:04:07.000Z</Time>
            <Position>
              <LatitudeDegrees>39.47220417670905590057373046875</LatitudeDegrees>
              <LongitudeDegrees>-0.50751443020999431610107421875</LongitudeDegrees>
            </Position>
            <AltitudeMeters>87</AltitudeMeters>
            <DistanceMeters>7344.5499946663</DistanceMeters>
          </Trackpoint>
          <Trackpoint>
            <Time>2021-10-09T07:04:08.000Z</Time>
            <Position>
              <LatitudeDegrees>39.47220861911773681640625</LatitudeDegrees>
              <LongitudeDegrees>-0.5075881071388721466064453125</LongitudeDegrees>
            </Position>
            <AltitudeMeters>87</AltitudeMeters>
            <DistanceMeters>7350.8997420095</DistanceMeters>
          </Trackpoint>
          <Trackpoint>
            <Time>2021-10-09T07:04:09.000Z</Time>
            <Position>
              <LatitudeDegrees>39.47221406735479831695556640625</LatitudeDegrees>
              <LongitudeDegrees>-0.50766262225806713104248046875</LongitudeDegrees>
            </Position>
            <AltitudeMeters>87.40000152587890625</AltitudeMeters>
            <DistanceMeters>7357.3307411631</DistanceMeters>
          </Trackpoint>
          <Trackpoint>
            <Time>2021-10-09T07:04:10.000Z</Time>
            <Position>
              <LatitudeDegrees>39.4722181744873523712158203125</LatitudeDegrees>
              <LongitudeDegrees>-0.50773487426340579986572265625</LongitudeDegrees>
            </Position>
            <AltitudeMeters>87.40000152587890625</AltitudeMeters>
            <DistanceMeters>7363.5555349766</DistanceMeters>
          </Trackpoint>
          <Trackpoint>
            <Time>2021-10-09T07:04:11.000Z</Time>
            <Position>
              <LatitudeDegrees>39.4722225330770015716552734375</LatitudeDegrees>
              <LongitudeDegrees>-0.50780679099261760711669921875</LongitudeDegrees>
            </Position>
            <AltitudeMeters>87.40000152587890625</AltitudeMeters>
            <DistanceMeters>7369.7534334263</DistanceMeters>
          </Trackpoint>
          <Trackpoint>
            <Time>2021-10-09T07:04:12.000Z</Time>
            <Position>
              <LatitudeDegrees>39.47222747839987277984619140625</LatitudeDegrees>
              <LongitudeDegrees>-0.507879965007305145263671875</LongitudeDegrees>
            </Position>
            <AltitudeMeters>87.59999847412109375</AltitudeMeters>
            <DistanceMeters>7376.0639514017</DistanceMeters>
          </Trackpoint>
          <Trackpoint>
            <Time>2021-10-09T07:04:13.000Z</Time>
            <Position>
              <LatitudeDegrees>39.47223200462758541107177734375</LatitudeDegrees>
              <LongitudeDegrees>-0.50795297138392925262451171875</LongitudeDegrees>
            </Position>
            <AltitudeMeters>87.59999847412109375</AltitudeMeters>
            <DistanceMeters>7382.3572744732</DistanceMeters>
          </Trackpoint>
          <Trackpoint>
            <Time>2021-10-09T07:04:14.000Z</Time>
            <Position>
              <LatitudeDegrees>39.47223686613142490386962890625</LatitudeDegrees>
              <LongitudeDegrees>-0.5080259777605533599853515625</LongitudeDegrees>
            </Position>
            <AltitudeMeters>87.59999847412109375</AltitudeMeters>
            <DistanceMeters>7388.6534666232</DistanceMeters>
          </Trackpoint>
          <Trackpoint>
            <Time>2021-10-09T07:04:15.000Z</Time>
            <Position>
              <LatitudeDegrees>39.47224139235913753509521484375</LatitudeDegrees>
              <LongitudeDegrees>-0.50810082815587520599365234375</LongitudeDegrees>
            </Position>
            <AltitudeMeters>87.59999847412109375</AltitudeMeters>
            <DistanceMeters>7395.1040938992</DistanceMeters>
          </Trackpoint>
          <Trackpoint>
            <Time>2021-10-09T07:04:16.000Z</Time>
            <Position>
              <LatitudeDegrees>39.47224440984427928924560546875</LatitudeDegrees>
              <LongitudeDegrees>-0.50817458890378475189208984375</LongitudeDegrees>
            </Position>
            <AltitudeMeters>87.8000030517578125</AltitudeMeters>
            <DistanceMeters>7401.4502849568</DistanceMeters>
          </Trackpoint>
          <Trackpoint>
            <Time>2021-10-09T07:04:17.000Z</Time>
            <Position>
              <LatitudeDegrees>39.472249858081340789794921875</LatitudeDegrees>
              <LongitudeDegrees>-0.508248098194599151611328125</LongitudeDegrees>
            </Position>
            <AltitudeMeters>87.8000030517578125</AltitudeMeters>
            <DistanceMeters>7407.7943412862</DistanceMeters>
          </Trackpoint>
          <Trackpoint>
            <Time>2021-10-09T07:04:18.000Z</Time>
            <Position>
              <LatitudeDegrees>39.4722530432045459747314453125</LatitudeDegrees>
              <LongitudeDegrees>-0.5083228647708892822265625</LongitudeDegrees>
            </Position>
            <AltitudeMeters>87.8000030517578125</AltitudeMeters>
            <DistanceMeters>7414.2281481235</DistanceMeters>
          </Trackpoint>
          <Trackpoint>
            <Time>2021-10-09T07:04:19.000Z</Time>
            <Position>
              <LatitudeDegrees>39.4722580723464488983154296875</LatitudeDegrees>
              <LongitudeDegrees>-0.508399307727813720703125</LongitudeDegrees>
            </Position>
            <AltitudeMeters>88</AltitudeMeters>
            <DistanceMeters>7420.8200164359</DistanceMeters>
          </Trackpoint>
          <Trackpoint>
            <Time>2021-10-09T07:04:20.000Z</Time>
            <Position>
              <LatitudeDegrees>39.472264610230922698974609375</LatitudeDegrees>
              <LongitudeDegrees>-0.50847709178924560546875</LongitudeDegrees>
            </Position>
            <AltitudeMeters>88</AltitudeMeters>
            <DistanceMeters>7427.5421070724</DistanceMeters>
          </Trackpoint>
          <Trackpoint>
            <Time>2021-10-09T07:04:21.000Z</Time>
            <Position>
              <LatitudeDegrees>39.4722721539437770843505859375</LatitudeDegrees>
              <LongitudeDegrees>-0.508554875850677490234375</LongitudeDegrees>
            </Position>
            <AltitudeMeters>88</AltitudeMeters>
            <DistanceMeters>7434.2776177475</DistanceMeters>
          </Trackpoint>
          <Trackpoint>
            <Time>2021-10-09T07:04:22.000Z</Time>
            <Position>
              <LatitudeDegrees>39.47227743454277515411376953125</LatitudeDegrees>
              <LongitudeDegrees>-0.50863307900726795196533203125</LongitudeDegrees>
            </Position>
            <AltitudeMeters>88.1999969482421875</AltitudeMeters>
            <DistanceMeters>7441.0225065624</DistanceMeters>
          </Trackpoint>
          <Trackpoint>
            <Time>2021-10-09T07:04:23.000Z</Time>
            <Position>
              <LatitudeDegrees>39.4722823798656463623046875</LatitudeDegrees>
              <LongitudeDegrees>-0.5087092705070972442626953125</LongitudeDegrees>
            </Position>
            <AltitudeMeters>88.1999969482421875</AltitudeMeters>
            <DistanceMeters>7447.5924202149</DistanceMeters>
          </Trackpoint>
          <Trackpoint>
            <Time>2021-10-09T07:04:24.000Z</Time>
            <Position>
              <LatitudeDegrees>39.4722879119217395782470703125</LatitudeDegrees>
              <LongitudeDegrees>-0.508785881102085113525390625</LongitudeDegrees>
            </Position>
            <AltitudeMeters>88.40000152587890625</AltitudeMeters>
            <DistanceMeters>7454.2034390463</DistanceMeters>
          </Trackpoint>
          <Trackpoint>
            <Time>2021-10-09T07:04:25.000Z</Time>
            <Position>
              <LatitudeDegrees>39.4722915999591350555419921875</LatitudeDegrees>
              <LongitudeDegrees>-0.50886240787804126739501953125</LongitudeDegrees>
            </Position>
            <AltitudeMeters>88.40000152587890625</AltitudeMeters>
            <DistanceMeters>7460.7905110296</DistanceMeters>
          </Trackpoint>
          <Trackpoint>
            <Time>2021-10-09T07:04:26.000Z</Time>
            <Position>
              <LatitudeDegrees>39.47229553945362567901611328125</LatitudeDegrees>
              <LongitudeDegrees>-0.50893851555883884429931640625</LongitudeDegrees>
            </Position>
            <AltitudeMeters>88.40000152587890625</AltitudeMeters>
            <DistanceMeters>7467.3439104198</DistanceMeters>
          </Trackpoint>
          <Trackpoint>
            <Time>2021-10-09T07:04:27.000Z</Time>
            <Position>
              <LatitudeDegrees>39.47230123914778232574462890625</LatitudeDegrees>
              <LongitudeDegrees>-0.5090140365064144134521484375</LongitudeDegrees>
            </Position>
            <AltitudeMeters>88.59999847412109375</AltitudeMeters>
            <DistanceMeters>7473.8634633049</DistanceMeters>
          </Trackpoint>
          <Trackpoint>
            <Time>2021-10-09T07:04:28.000Z</Time>
            <Position>
              <LatitudeDegrees>39.47230593301355838775634765625</LatitudeDegrees>
              <LongitudeDegrees>-0.50908972509205341339111328125</LongitudeDegrees>
            </Position>
            <AltitudeMeters>88.59999847412109375</AltitudeMeters>
            <DistanceMeters>7480.3871700948</DistanceMeters>
          </Trackpoint>
          <Trackpoint>
            <Time>2021-10-09T07:04:29.000Z</Time>
            <Position>
              <LatitudeDegrees>39.4723092019557952880859375</LatitudeDegrees>
              <LongitudeDegrees>-0.509167425334453582763671875</LongitudeDegrees>
            </Position>
            <AltitudeMeters>88.8000030517578125</AltitudeMeters>
            <DistanceMeters>7487.0728920751</DistanceMeters>
          </Trackpoint>
          <Trackpoint>
            <Time>2021-10-09T07:04:30.000Z</Time>
            <Position>
              <LatitudeDegrees>39.47231414727866649627685546875</LatitudeDegrees>
              <LongitudeDegrees>-0.50924411974847316741943359375</LongitudeDegrees>
            </Position>
            <AltitudeMeters>88.8000030517578125</AltitudeMeters>
            <DistanceMeters>7493.6845938277</DistanceMeters>
          </Trackpoint>
          <Trackpoint>
            <Time>2021-10-09T07:04:31.000Z</Time>
            <Position>
              <LatitudeDegrees>39.47231984697282314300537109375</LatitudeDegrees>
              <LongitudeDegrees>-0.50931955687701702117919921875</LongitudeDegrees>
            </Position>
            <AltitudeMeters>88.8000030517578125</AltitudeMeters>
            <DistanceMeters>7500.1965243387</DistanceMeters>
          </Trackpoint>
          <Trackpoint>
            <Time>2021-10-09T07:04:32.000Z</Time>
            <Position>
              <LatitudeDegrees>39.4723257981240749359130859375</LatitudeDegrees>
              <LongitudeDegrees>-0.50939482636749744415283203125</LongitudeDegrees>
            </Position>
            <AltitudeMeters>88.8000030517578125</AltitudeMeters>
            <DistanceMeters>7506.6973518059</DistanceMeters>
          </Trackpoint>
          <Trackpoint>
            <Time>2021-10-09T07:04:33.000Z</Time>
            <Position>
              <LatitudeDegrees>39.47233133018016815185546875</LatitudeDegrees>
              <LongitudeDegrees>-0.50947160460054874420166015625</LongitudeDegrees>
            </Position>
            <AltitudeMeters>88.8000030517578125</AltitudeMeters>
            <DistanceMeters>7513.3226972002</DistanceMeters>
          </Trackpoint>
          <Trackpoint>
            <Time>2021-10-09T07:04:34.000Z</Time>
            <Position>
              <LatitudeDegrees>39.47233644314110279083251953125</LatitudeDegrees>
              <LongitudeDegrees>-0.50954796373844146728515625</LongitudeDegrees>
            </Position>
            <AltitudeMeters>88.8000030517578125</AltitudeMeters>
            <DistanceMeters>7519.9077125444</DistanceMeters>
          </Trackpoint>
          <Trackpoint>
            <Time>2021-10-09T07:04:35.000Z</Time>
            <Position>
              <LatitudeDegrees>39.47234264574944972991943359375</LatitudeDegrees>
              <LongitudeDegrees>-0.50962348468601703643798828125</LongitudeDegrees>
            </Position>
            <AltitudeMeters>88.8000030517578125</AltitudeMeters>
            <DistanceMeters>7526.4328033816</DistanceMeters>
          </Trackpoint>
          <Trackpoint>
            <Time>2021-10-09T07:04:36.000Z</Time>
            <Position>
              <LatitudeDegrees>39.47234817780554294586181640625</LatitudeDegrees>
              <LongitudeDegrees>-0.5097015202045440673828125</LongitudeDegrees>
            </Position>
            <AltitudeMeters>88.8000030517578125</AltitudeMeters>
            <DistanceMeters>7533.1656321889</DistanceMeters>
          </Trackpoint>
          <Trackpoint>
            <Time>2021-10-09T07:04:37.000Z</Time>
            <Position>
              <LatitudeDegrees>39.4723536260426044464111328125</LatitudeDegrees>
              <LongitudeDegrees>-0.50977955572307109832763671875</LongitudeDegrees>
            </Position>
            <AltitudeMeters>88.8000030517578125</AltitudeMeters>
            <DistanceMeters>7539.8971196617</DistanceMeters>
          </Trackpoint>
          <Trackpoint>
            <Time>2021-10-09T07:04:38.000Z</Time>
            <Position>
              <LatitudeDegrees>39.47235974483191967010498046875</LatitudeDegrees>
              <LongitudeDegrees>-0.50985935144126415252685546875</LongitudeDegrees>
            </Position>
            <AltitudeMeters>88.8000030517578125</AltitudeMeters>
            <DistanceMeters>7546.7877032322</DistanceMeters>
          </Trackpoint>
          <Trackpoint>
            <Time>2021-10-09T07:04:39.000Z</Time>
            <Position>
              <LatitudeDegrees>39.47236678563058376312255859375</LatitudeDegrees>
              <LongitudeDegrees>-0.50993981771171092987060546875</LongitudeDegrees>
            </Position>
            <AltitudeMeters>88.8000030517578125</AltitudeMeters>
            <DistanceMeters>7553.7460988729</DistanceMeters>
          </Trackpoint>
          <Trackpoint>
            <Time>2021-10-09T07:04:40.000Z</Time>
            <Position>
              <LatitudeDegrees>39.47237231768667697906494140625</LatitudeDegrees>
              <LongitudeDegrees>-0.51002112217247486114501953125</LongitudeDegrees>
            </Position>
            <AltitudeMeters>88.8000030517578125</AltitudeMeters>
            <DistanceMeters>7560.7587871102</DistanceMeters>
          </Trackpoint>
          <Trackpoint>
            <Time>2021-10-09T07:04:41.000Z</Time>
            <Position>
              <LatitudeDegrees>39.4723784364759922027587890625</LatitudeDegrees>
              <LongitudeDegrees>-0.51010192371904850006103515625</LongitudeDegrees>
            </Position>
            <AltitudeMeters>89</AltitudeMeters>
            <DistanceMeters>7567.7340327603</DistanceMeters>
          </Trackpoint>
          <Trackpoint>
            <Time>2021-10-09T07:04:42.000Z</Time>
            <Position>
              <LatitudeDegrees>39.472382627427577972412109375</LatitudeDegrees>
              <LongitudeDegrees>-0.5101843178272247314453125</LongitudeDegrees>
            </Position>
            <AltitudeMeters>89</AltitudeMeters>
            <DistanceMeters>7574.8286536874</DistanceMeters>
          </Trackpoint>
          <Trackpoint>
            <Time>2021-10-09T07:04:43.000Z</Time>
            <Position>
              <LatitudeDegrees>39.472385309636592864990234375</LatitudeDegrees>
              <LongitudeDegrees>-0.5102669633924961090087890625</LongitudeDegrees>
            </Position>
            <AltitudeMeters>89</AltitudeMeters>
            <DistanceMeters>7581.9347206358</DistanceMeters>
          </Trackpoint>
          <Trackpoint>
            <Time>2021-10-09T07:04:44.000Z</Time>
            <Position>
              <LatitudeDegrees>39.47238975204527378082275390625</LatitudeDegrees>
              <LongitudeDegrees>-0.51034851931035518646240234375</LongitudeDegrees>
            </Position>
            <AltitudeMeters>89</AltitudeMeters>
            <DistanceMeters>7588.9596311524</DistanceMeters>
          </Trackpoint>
          <Trackpoint>
            <Time>2021-10-09T07:04:45.000Z</Time>
            <Position>
              <LatitudeDegrees>39.472394026815891265869140625</LatitudeDegrees>
              <LongitudeDegrees>-0.51042982377111911773681640625</LongitudeDegrees>
            </Position>
            <AltitudeMeters>89</AltitudeMeters>
            <DistanceMeters>7595.960720706</DistanceMeters>
          </Trackpoint>
          <Trackpoint>
            <Time>2021-10-09T07:04:46.000Z</Time>
            <Position>
              <LatitudeDegrees>39.47239972651004791259765625</LatitudeDegrees>
              <LongitudeDegrees>-0.510509200394153594970703125</LongitudeDegrees>
            </Position>
            <AltitudeMeters>89</AltitudeMeters>
            <DistanceMeters>7602.8105584561</DistanceMeters>
          </Trackpoint>
          <Trackpoint>
            <Time>2021-10-09T07:04:47.000Z</Time>
            <Position>
              <LatitudeDegrees>39.47240500710904598236083984375</LatitudeDegrees>
              <LongitudeDegrees>-0.51058807410299777984619140625</LongitudeDegrees>
            </Position>
            <AltitudeMeters>89</AltitudeMeters>
            <DistanceMeters>7609.6127721912</DistanceMeters>
          </Trackpoint>
          <Trackpoint>
            <Time>2021-10-09T07:04:48.000Z</Time>
            <Position>
              <LatitudeDegrees>39.47241154499351978302001953125</LatitudeDegrees>
              <LongitudeDegrees>-0.5106662772595882415771484375</LongitudeDegrees>
            </Position>
            <AltitudeMeters>89</AltitudeMeters>
            <DistanceMeters>7616.371035774</DistanceMeters>
          </Trackpoint>
          <Trackpoint>
            <Time>2021-10-09T07:04:49.000Z</Time>
            <Position>
              <LatitudeDegrees>39.47241757996380329132080078125</LatitudeDegrees>
              <LongitudeDegrees>-0.5107448995113372802734375</LongitudeDegrees>
            </Position>
            <AltitudeMeters>89</AltitudeMeters>
            <DistanceMeters>7623.1599613274</DistanceMeters>
          </Trackpoint>
          <Trackpoint>
            <Time>2021-10-09T07:04:50.000Z</Time>
            <Position>
              <LatitudeDegrees>39.47242244146764278411865234375</LatitudeDegrees>
              <LongitudeDegrees>-0.51082628779113292694091796875</LongitudeDegrees>
            </Position>
            <AltitudeMeters>89</AltitudeMeters>
            <DistanceMeters>7630.1739371234</DistanceMeters>
          </Trackpoint>
          <Trackpoint>
            <Time>2021-10-09T07:04:51.000Z</Time>
            <Position>
              <LatitudeDegrees>39.47242814116179943084716796875</LatitudeDegrees>
              <LongitudeDegrees>-0.51090725697576999664306640625</LongitudeDegrees>
            </Position>
            <AltitudeMeters>89</AltitudeMeters>
            <DistanceMeters>7637.1595318084</DistanceMeters>
          </Trackpoint>
          <Trackpoint>
            <Time>2021-10-09T07:04:52.000Z</Time>
            <Position>
              <LatitudeDegrees>39.47243417613208293914794921875</LatitudeDegrees>
              <LongitudeDegrees>-0.51098956726491451263427734375</LongitudeDegrees>
            </Position>
            <AltitudeMeters>89</AltitudeMeters>
            <DistanceMeters>7644.2624211566</DistanceMeters>
          </Trackpoint>
          <Trackpoint>
            <Time>2021-10-09T07:04:53.000Z</Time>
            <Position>
              <LatitudeDegrees>39.4724397920072078704833984375</LatitudeDegrees>
              <LongitudeDegrees>-0.511069782078266143798828125</LongitudeDegrees>
            </Position>
            <AltitudeMeters>89</AltitudeMeters>
            <DistanceMeters>7651.1830804791</DistanceMeters>
          </Trackpoint>
          <Trackpoint>
            <Time>2021-10-09T07:04:54.000Z</Time>
            <Position>
              <LatitudeDegrees>39.47244456969201564788818359375</LatitudeDegrees>
              <LongitudeDegrees>-0.51114848814904689788818359375</LongitudeDegrees>
            </Position>
            <AltitudeMeters>88.8000030517578125</AltitudeMeters>
            <DistanceMeters>7657.9666834715</DistanceMeters>
          </Trackpoint>
          <Trackpoint>
            <Time>2021-10-09T07:04:55.000Z</Time>
            <Position>
              <LatitudeDegrees>39.4724485091865062713623046875</LatitudeDegrees>
              <LongitudeDegrees>-0.51122727803885936737060546875</LongitudeDegrees>
            </Position>
            <AltitudeMeters>88.8000030517578125</AltitudeMeters>
            <DistanceMeters>7664.7502864639</DistanceMeters>
          </Trackpoint>
          <Trackpoint>
            <Time>2021-10-09T07:04:56.000Z</Time>
            <Position>
              <LatitudeDegrees>39.4724538736045360565185546875</LatitudeDegrees>
              <LongitudeDegrees>-0.511306822299957275390625</LongitudeDegrees>
            </Position>
            <AltitudeMeters>88.59999847412109375</AltitudeMeters>
            <DistanceMeters>7671.6106624321</DistanceMeters>
          </Trackpoint>
          <Trackpoint>
            <Time>2021-10-09T07:04:57.000Z</Time>
            <Position>
              <LatitudeDegrees>39.4724592380225658416748046875</LatitudeDegrees>
              <LongitudeDegrees>-0.511386282742023468017578125</LongitudeDegrees>
            </Position>
            <AltitudeMeters>88.40000152587890625</AltitudeMeters>
            <DistanceMeters>7678.4631362561</DistanceMeters>
          </Trackpoint>
          <Trackpoint>
            <Time>2021-10-09T07:04:58.000Z</Time>
            <Position>
              <LatitudeDegrees>39.47246678173542022705078125</LatitudeDegrees>
              <LongitudeDegrees>-0.51146632991731166839599609375</LongitudeDegrees>
            </Position>
            <AltitudeMeters>88.40000152587890625</AltitudeMeters>
            <DistanceMeters>7685.3916199558</DistanceMeters>
          </Trackpoint>
          <Trackpoint>
            <Time>2021-10-09T07:04:59.000Z</Time>
            <Position>
              <LatitudeDegrees>39.47247256524860858917236328125</LatitudeDegrees>
              <LongitudeDegrees>-0.51154696382582187652587890625</LongitudeDegrees>
            </Position>
            <AltitudeMeters>88.40000152587890625</AltitudeMeters>
            <DistanceMeters>7692.3493667043</DistanceMeters>
          </Trackpoint>
          <Trackpoint>
            <Time>2021-10-09T07:05:00.000Z</Time>
            <Position>
              <LatitudeDegrees>39.47247776202857494354248046875</LatitudeDegrees>
              <LongitudeDegrees>-0.51162810064852237701416015625</LongitudeDegrees>
            </Position>
            <AltitudeMeters>88.40000152587890625</AltitudeMeters>
            <DistanceMeters>7699.3440042341</DistanceMeters>
          </Trackpoint>
          <Trackpoint>
            <Time>2021-10-09T07:05:01.000Z</Time>
            <Position>
              <LatitudeDegrees>39.47248421609401702880859375</LatitudeDegrees>
              <LongitudeDegrees>-0.511709153652191162109375</LongitudeDegrees>
            </Position>
            <AltitudeMeters>88.40000152587890625</AltitudeMeters>
            <DistanceMeters>7706.3450937877</DistanceMeters>
          </Trackpoint>
          <Trackpoint>
            <Time>2021-10-09T07:05:02.000Z</Time>
            <Position>
              <LatitudeDegrees>39.47249067015945911407470703125</LatitudeDegrees>
              <LongitudeDegrees>-0.51179070957005023956298828125</LongitudeDegrees>
            </Position>
            <AltitudeMeters>88.40000152587890625</AltitudeMeters>
            <DistanceMeters>7713.3886184723</DistanceMeters>
          </Trackpoint>
          <Trackpoint>
            <Time>2021-10-09T07:05:03.000Z</Time>
            <Position>
              <LatitudeDegrees>39.47249670512974262237548828125</LatitudeDegrees>
              <LongitudeDegrees>-0.51187318749725818634033203125</LongitudeDegrees>
            </Position>
            <AltitudeMeters>88.40000152587890625</AltitudeMeters>
            <DistanceMeters>7720.5067473646</DistanceMeters>
          </Trackpoint>
          <Trackpoint>
            <Time>2021-10-09T07:05:04.000Z</Time>
            <Position>
              <LatitudeDegrees>39.4725004769861698150634765625</LatitudeDegrees>
              <LongitudeDegrees>-0.5119560845196247100830078125</LongitudeDegrees>
            </Position>
            <AltitudeMeters>88.40000152587890625</AltitudeMeters>
            <DistanceMeters>7727.6407161645</DistanceMeters>
          </Trackpoint>
          <Trackpoint>
            <Time>2021-10-09T07:05:05.000Z</Time>
            <Position>
              <LatitudeDegrees>39.47250391356647014617919921875</LatitudeDegrees>
              <LongitudeDegrees>-0.51203965209424495697021484375</LongitudeDegrees>
            </Position>
            <AltitudeMeters>88.40000152587890625</AltitudeMeters>
            <DistanceMeters>7734.8314197266</DistanceMeters>
          </Trackpoint>
          <Trackpoint>
            <Time>2021-10-09T07:05:06.000Z</Time>
            <Position>
              <LatitudeDegrees>39.47251011617481708526611328125</LatitudeDegrees>
              <LongitudeDegrees>-0.51212179474532604217529296875</LongitudeDegrees>
            </Position>
            <AltitudeMeters>88.59999847412109375</AltitudeMeters>
            <DistanceMeters>7741.9234945847</DistanceMeters>
          </Trackpoint>
          <Trackpoint>
            <Time>2021-10-09T07:05:07.000Z</Time>
            <Position>
              <LatitudeDegrees>39.47251640260219573974609375</LatitudeDegrees>
              <LongitudeDegrees>-0.51220326684415340423583984375</LongitudeDegrees>
            </Position>
            <AltitudeMeters>88.59999847412109375</AltitudeMeters>
            <DistanceMeters>7748.9580392688</DistanceMeters>
          </Trackpoint>
          <Trackpoint>
            <Time>2021-10-09T07:05:08.000Z</Time>
            <Position>
              <LatitudeDegrees>39.4725232757627964019775390625</LatitudeDegrees>
              <LongitudeDegrees>-0.5122849904000759124755859375</LongitudeDegrees>
            </Position>
            <AltitudeMeters>88.59999847412109375</AltitudeMeters>
            <DistanceMeters>7756.0207683643</DistanceMeters>
          </Trackpoint>
          <Trackpoint>
            <Time>2021-10-09T07:05:09.000Z</Time>
            <Position>
              <LatitudeDegrees>39.4725299812853336334228515625</LatitudeDegrees>
              <LongitudeDegrees>-0.51236755214631557464599609375</LongitudeDegrees>
            </Position>
            <AltitudeMeters>88.59999847412109375</AltitudeMeters>
            <DistanceMeters>7763.1534712661</DistanceMeters>
          </Trackpoint>
          <Trackpoint>
            <Time>2021-10-09T07:05:10.000Z</Time>
            <Position>
              <LatitudeDegrees>39.47253610007464885711669921875</LatitudeDegrees>
              <LongitudeDegrees>-0.512449778616428375244140625</LongitudeDegrees>
            </Position>
            <AltitudeMeters>88.8000030517578125</AltitudeMeters>
            <DistanceMeters>7770.2506373487</DistanceMeters>
          </Trackpoint>
          <Trackpoint>
            <Time>2021-10-09T07:05:11.000Z</Time>
            <Position>
              <LatitudeDegrees>39.47254096157848834991455078125</LatitudeDegrees>
              <LongitudeDegrees>-0.51253326237201690673828125</LongitudeDegrees>
            </Position>
            <AltitudeMeters>88.8000030517578125</AltitudeMeters>
            <DistanceMeters>7777.4438520698</DistanceMeters>
          </Trackpoint>
          <Trackpoint>
            <Time>2021-10-09T07:05:12.000Z</Time>
            <Position>
              <LatitudeDegrees>39.47254532016813755035400390625</LatitudeDegrees>
              <LongitudeDegrees>-0.51261582411825656890869140625</LongitudeDegrees>
            </Position>
            <AltitudeMeters>88.8000030517578125</AltitudeMeters>
            <DistanceMeters>7784.5537302638</DistanceMeters>
          </Trackpoint>
          <Trackpoint>
            <Time>2021-10-09T07:05:13.000Z</Time>
            <Position>
              <LatitudeDegrees>39.472549594938755035400390625</LatitudeDegrees>
              <LongitudeDegrees>-0.5126980505883693695068359375</LongitudeDegrees>
            </Position>
            <AltitudeMeters>88.8000030517578125</AltitudeMeters>
            <DistanceMeters>7791.634336482</DistanceMeters>
          </Trackpoint>
          <Trackpoint>
            <Time>2021-10-09T07:05:14.000Z</Time>
            <Position>
              <LatitudeDegrees>39.472553618252277374267578125</LatitudeDegrees>
              <LongitudeDegrees>-0.51278077997267246246337890625</LongitudeDegrees>
            </Position>
            <AltitudeMeters>88.8000030517578125</AltitudeMeters>
            <DistanceMeters>7798.7569040992</DistanceMeters>
          </Trackpoint>
          <Trackpoint>
            <Time>2021-10-09T07:05:15.000Z</Time>
            <Position>
              <LatitudeDegrees>39.47255923412740230560302734375</LatitudeDegrees>
              <LongitudeDegrees>-0.51286518573760986328125</LongitudeDegrees>
            </Position>
            <AltitudeMeters>88.8000030517578125</AltitudeMeters>
            <DistanceMeters>7806.0362233375</DistanceMeters>
          </Trackpoint>
          <Trackpoint>
            <Time>2021-10-09T07:05:16.000Z</Time>
            <Position>
              <LatitudeDegrees>39.47256409563124179840087890625</LatitudeDegrees>
              <LongitudeDegrees>-0.5129525251686573028564453125</LongitudeDegrees>
            </Position>
            <AltitudeMeters>88.8000030517578125</AltitudeMeters>
            <DistanceMeters>7813.5595549899</DistanceMeters>
          </Trackpoint>
          <Trackpoint>
            <Time>2021-10-09T07:05:17.000Z</Time>
            <Position>
              <LatitudeDegrees>39.472568370401859283447265625</LatitudeDegrees>
              <LongitudeDegrees>-0.51304078660905361175537109375</LongitudeDegrees>
            </Position>
            <AltitudeMeters>89</AltitudeMeters>
            <DistanceMeters>7821.1575335833</DistanceMeters>
          </Trackpoint>
          <Trackpoint>
            <Time>2021-10-09T07:05:18.000Z</Time>
            <Position>
              <LatitudeDegrees>39.47257314808666706085205078125</LatitudeDegrees>
              <LongitudeDegrees>-0.5131268687546253204345703125</LongitudeDegrees>
            </Position>
            <AltitudeMeters>88.8000030517578125</AltitudeMeters>
            <DistanceMeters>7828.5732712771</DistanceMeters>
          </Trackpoint>
          <Trackpoint>
            <Time>2021-10-09T07:05:19.000Z</Time>
            <Position>
              <LatitudeDegrees>39.47257817722856998443603515625</LatitudeDegrees>
              <LongitudeDegrees>-0.5132138729095458984375</LongitudeDegrees>
            </Position>
            <AltitudeMeters>88.8000030517578125</AltitudeMeters>
            <DistanceMeters>7836.0701503469</DistanceMeters>
          </Trackpoint>
          <Trackpoint>
            <Time>2021-10-09T07:05:20.000Z</Time>
            <Position>
              <LatitudeDegrees>39.47258354164659976959228515625</LatitudeDegrees>
              <LongitudeDegrees>-0.51329903304576873779296875</LongitudeDegrees>
            </Position>
            <AltitudeMeters>88.8000030517578125</AltitudeMeters>
            <DistanceMeters>7843.4112331157</DistanceMeters>
          </Trackpoint>
          <Trackpoint>
            <Time>2021-10-09T07:05:21.000Z</Time>
            <Position>
              <LatitudeDegrees>39.47258756496012210845947265625</LatitudeDegrees>
              <LongitudeDegrees>-0.51338293589651584625244140625</LongitudeDegrees>
            </Position>
            <AltitudeMeters>88.8000030517578125</AltitudeMeters>
            <DistanceMeters>7850.6338885565</DistanceMeters>
          </Trackpoint>
          <Trackpoint>
            <Time>2021-10-09T07:05:22.000Z</Time>
            <Position>
              <LatitudeDegrees>39.4725906662642955780029296875</LatitudeDegrees>
              <LongitudeDegrees>-0.5134668387472629547119140625</LongitudeDegrees>
            </Position>
            <AltitudeMeters>88.8000030517578125</AltitudeMeters>
            <DistanceMeters>7857.8509157096</DistanceMeters>
          </Trackpoint>
          <Trackpoint>
            <Time>2021-10-09T07:05:23.000Z</Time>
            <Position>
              <LatitudeDegrees>39.4725961983203887939453125</LatitudeDegrees>
              <LongitudeDegrees>-0.51355124451220035552978515625</LongitudeDegrees>
            </Position>
            <AltitudeMeters>88.8000030517578125</AltitudeMeters>
            <DistanceMeters>7865.128994331</DistanceMeters>
          </Trackpoint>
          <Trackpoint>
            <Time>2021-10-09T07:05:24.000Z</Time>
            <Position>
              <LatitudeDegrees>39.4726002216339111328125</LatitudeDegrees>
              <LongitudeDegrees>-0.5136364884674549102783203125</LongitudeDegrees>
            </Position>
            <AltitudeMeters>89</AltitudeMeters>
            <DistanceMeters>7872.4663859493</DistanceMeters>
          </Trackpoint>
          <Trackpoint>
            <Time>2021-10-09T07:05:25.000Z</Time>
            <Position>
              <LatitudeDegrees>39.4726040773093700408935546875</LatitudeDegrees>
              <LongitudeDegrees>-0.51371905021369457244873046875</LongitudeDegrees>
            </Position>
            <AltitudeMeters>89</AltitudeMeters>
            <DistanceMeters>7879.5730882472</DistanceMeters>
          </Trackpoint>
          <Trackpoint>
            <Time>2021-10-09T07:05:26.000Z</Time>
            <Position>
              <LatitudeDegrees>39.47260902263224124908447265625</LatitudeDegrees>
              <LongitudeDegrees>-0.51380203105509281158447265625</LongitudeDegrees>
            </Position>
            <AltitudeMeters>89</AltitudeMeters>
            <DistanceMeters>7886.7247560931</DistanceMeters>
          </Trackpoint>
          <Trackpoint>
            <Time>2021-10-09T07:05:27.000Z</Time>
            <Position>
              <LatitudeDegrees>39.47261488996446132659912109375</LatitudeDegrees>
              <LongitudeDegrees>-0.5138862691819667816162109375</LongitudeDegrees>
            </Position>
            <AltitudeMeters>89</AltitudeMeters>
            <DistanceMeters>7893.9922809208</DistanceMeters>
          </Trackpoint>
          <Trackpoint>
            <Time>2021-10-09T07:05:28.000Z</Time>
            <Position>
              <LatitudeDegrees>39.472620002925395965576171875</LatitudeDegrees>
              <LongitudeDegrees>-0.51397084258496761322021484375</LongitudeDegrees>
            </Position>
            <AltitudeMeters>89</AltitudeMeters>
            <DistanceMeters>7901.2802785637</DistanceMeters>
          </Trackpoint>
          <Trackpoint>
            <Time>2021-10-09T07:05:29.000Z</Time>
            <Position>
              <LatitudeDegrees>39.4726228527724742889404296875</LatitudeDegrees>
              <LongitudeDegrees>-0.514055080711841583251953125</LongitudeDegrees>
            </Position>
            <AltitudeMeters>89</AltitudeMeters>
            <DistanceMeters>7908.524780223</DistanceMeters>
          </Trackpoint>
          <Trackpoint>
            <Time>2021-10-09T07:05:30.000Z</Time>
            <Position>
              <LatitudeDegrees>39.47262637317180633544921875</LatitudeDegrees>
              <LongitudeDegrees>-0.51413797773420810699462890625</LongitudeDegrees>
            </Position>
            <AltitudeMeters>89</AltitudeMeters>
            <DistanceMeters>7915.6574831248</DistanceMeters>
          </Trackpoint>
          <Trackpoint>
            <Time>2021-10-09T07:05:31.000Z</Time>
            <Position>
              <LatitudeDegrees>39.472629725933074951171875</LatitudeDegrees>
              <LongitudeDegrees>-0.51422045566141605377197265625</LongitudeDegrees>
            </Position>
            <AltitudeMeters>89</AltitudeMeters>
            <DistanceMeters>7922.7533767438</DistanceMeters>
          </Trackpoint>
          <Trackpoint>
            <Time>2021-10-09T07:05:32.000Z</Time>
            <Position>
              <LatitudeDegrees>39.472633413970470428466796875</LatitudeDegrees>
              <LongitudeDegrees>-0.5143026821315288543701171875</LongitudeDegrees>
            </Position>
            <AltitudeMeters>89</AltitudeMeters>
            <DistanceMeters>7929.8301559517</DistanceMeters>
          </Trackpoint>
          <Trackpoint>
            <Time>2021-10-09T07:05:33.000Z</Time>
            <Position>
              <LatitudeDegrees>39.4726379401981830596923828125</LatitudeDegrees>
              <LongitudeDegrees>-0.51438624970614910125732421875</LongitudeDegrees>
            </Position>
            <AltitudeMeters>89</AltitudeMeters>
            <DistanceMeters>7937.0271357685</DistanceMeters>
          </Trackpoint>
          <Trackpoint>
            <Time>2021-10-09T07:05:34.000Z</Time>
            <Position>
              <LatitudeDegrees>39.47264171205461025238037109375</LatitudeDegrees>
              <LongitudeDegrees>-0.5144689790904521942138671875</LongitudeDegrees>
            </Position>
            <AltitudeMeters>89</AltitudeMeters>
            <DistanceMeters>7944.1471673103</DistanceMeters>
          </Trackpoint>
          <Trackpoint>
            <Time>2021-10-09T07:05:35.000Z</Time>
            <Position>
              <LatitudeDegrees>39.47264623828232288360595703125</LatitudeDegrees>
              <LongitudeDegrees>-0.51455154083669185638427734375</LongitudeDegrees>
            </Position>
            <AltitudeMeters>89</AltitudeMeters>
            <DistanceMeters>7951.2583154655</DistanceMeters>
          </Trackpoint>
          <Trackpoint>
            <Time>2021-10-09T07:05:36.000Z</Time>
            <Position>
              <LatitudeDegrees>39.47264917194843292236328125</LatitudeDegrees>
              <LongitudeDegrees>-0.5146319232881069183349609375</LongitudeDegrees>
            </Position>
            <AltitudeMeters>89</AltitudeMeters>
            <DistanceMeters>7958.1717946633</DistanceMeters>
          </Trackpoint>
          <Trackpoint>
            <Time>2021-10-09T07:05:37.000Z</Time>
            <Position>
              <LatitudeDegrees>39.4726526923477649688720703125</LatitudeDegrees>
              <LongitudeDegrees>-0.5147117190062999725341796875</LongitudeDegrees>
            </Position>
            <AltitudeMeters>89</AltitudeMeters>
            <DistanceMeters>7965.0387488055</DistanceMeters>
          </Trackpoint>
          <Trackpoint>
            <Time>2021-10-09T07:05:38.000Z</Time>
            <Position>
              <LatitudeDegrees>39.4726573862135410308837890625</LatitudeDegrees>
              <LongitudeDegrees>-0.51479092799127101898193359375</LongitudeDegrees>
            </Position>
            <AltitudeMeters>89</AltitudeMeters>
            <DistanceMeters>7971.864816081</DistanceMeters>
          </Trackpoint>
          <Trackpoint>
            <Time>2021-10-09T07:05:39.000Z</Time>
            <Position>
              <LatitudeDegrees>39.47266216389834880828857421875</LatitudeDegrees>
              <LongitudeDegrees>-0.51487105898559093475341796875</LongitudeDegrees>
            </Position>
            <AltitudeMeters>89</AltitudeMeters>
            <DistanceMeters>7978.7698000509</DistanceMeters>
          </Trackpoint>
          <Trackpoint>
            <Time>2021-10-09T07:05:40.000Z</Time>
            <Position>
              <LatitudeDegrees>39.4726647622883319854736328125</LatitudeDegrees>
              <LongitudeDegrees>-0.5149534530937671661376953125</LongitudeDegrees>
            </Position>
            <AltitudeMeters>89.1999969482421875</AltitudeMeters>
            <DistanceMeters>7985.8542312119</DistanceMeters>
          </Trackpoint>
          <Trackpoint>
            <Time>2021-10-09T07:05:41.000Z</Time>
            <Position>
              <LatitudeDegrees>39.47266836650669574737548828125</LatitudeDegrees>
              <LongitudeDegrees>-0.5150392837822437286376953125</LongitudeDegrees>
            </Position>
            <AltitudeMeters>89.1999969482421875</AltitudeMeters>
            <DistanceMeters>7993.2394638908</DistanceMeters>
          </Trackpoint>
          <Trackpoint>
            <Time>2021-10-09T07:05:42.000Z</Time>
            <Position>
              <LatitudeDegrees>39.47267406620085239410400390625</LatitudeDegrees>
              <LongitudeDegrees>-0.5151261202991008758544921875</LongitudeDegrees>
            </Position>
            <AltitudeMeters>89.1999969482421875</AltitudeMeters>
            <DistanceMeters>8000.7267006685</DistanceMeters>
          </Trackpoint>
          <Trackpoint>
            <Time>2021-10-09T07:05:43.000Z</Time>
            <Position>
              <LatitudeDegrees>39.47267909534275531768798828125</LatitudeDegrees>
              <LongitudeDegrees>-0.51521287299692630767822265625</LongitudeDegrees>
            </Position>
            <AltitudeMeters>89.1999969482421875</AltitudeMeters>
            <DistanceMeters>8008.2012630609</DistanceMeters>
          </Trackpoint>
          <Trackpoint>
            <Time>2021-10-09T07:05:44.000Z</Time>
            <Position>
              <LatitudeDegrees>39.4726818613708019256591796875</LatitudeDegrees>
              <LongitudeDegrees>-0.5152991227805614471435546875</LongitudeDegrees>
            </Position>
            <AltitudeMeters>89.1999969482421875</AltitudeMeters>
            <DistanceMeters>8015.6176095752</DistanceMeters>
          </Trackpoint>
          <Trackpoint>
            <Time>2021-10-09T07:05:45.000Z</Time>
            <Position>
              <LatitudeDegrees>39.472685717046260833740234375</LatitudeDegrees>
              <LongitudeDegrees>-0.51538646221160888671875</LongitudeDegrees>
            </Position>
            <AltitudeMeters>89.1999969482421875</AltitudeMeters>
            <DistanceMeters>8023.1343368092</DistanceMeters>
          </Trackpoint>
          <Trackpoint>
            <Time>2021-10-09T07:05:46.000Z</Time>
            <Position>
              <LatitudeDegrees>39.4726889021694660186767578125</LatitudeDegrees>
              <LongitudeDegrees>-0.51547120325267314910888671875</LongitudeDegrees>
            </Position>
            <AltitudeMeters>89.1999969482421875</AltitudeMeters>
            <DistanceMeters>8030.4235733807</DistanceMeters>
          </Trackpoint>
          <Trackpoint>
            <Time>2021-10-09T07:05:47.000Z</Time>
            <Position>
              <LatitudeDegrees>39.47269367985427379608154296875</LatitudeDegrees>
              <LongitudeDegrees>-0.5155541002750396728515625</LongitudeDegrees>
            </Position>
            <AltitudeMeters>89.1999969482421875</AltitudeMeters>
            <DistanceMeters>8037.5651328572</DistanceMeters>
          </Trackpoint>
          <Trackpoint>
            <Time>2021-10-09T07:05:48.000Z</Time>
            <Position>
              <LatitudeDegrees>39.4726981222629547119140625</LatitudeDegrees>
              <LongitudeDegrees>-0.51563833840191364288330078125</LongitudeDegrees>
            </Position>
            <AltitudeMeters>89.1999969482421875</AltitudeMeters>
            <DistanceMeters>8044.8195994479</DistanceMeters>
          </Trackpoint>
          <Trackpoint>
            <Time>2021-10-09T07:05:49.000Z</Time>
            <Position>
              <LatitudeDegrees>39.47270088829100131988525390625</LatitudeDegrees>
              <LongitudeDegrees>-0.51572182215750217437744140625</LongitudeDegrees>
            </Position>
            <AltitudeMeters>89.1999969482421875</AltitudeMeters>
            <DistanceMeters>8051.9989919251</DistanceMeters>
          </Trackpoint>
          <Trackpoint>
            <Time>2021-10-09T07:05:50.000Z</Time>
            <Position>
              <LatitudeDegrees>39.4727036543190479278564453125</LatitudeDegrees>
              <LongitudeDegrees>-0.515804551541805267333984375</LongitudeDegrees>
            </Position>
            <AltitudeMeters>89.1999969482421875</AltitudeMeters>
            <DistanceMeters>8059.1133139918</DistanceMeters>
          </Trackpoint>
          <Trackpoint>
            <Time>2021-10-09T07:05:51.000Z</Time>
            <Position>
              <LatitudeDegrees>39.47270742617547512054443359375</LatitudeDegrees>
              <LongitudeDegrees>-0.51588744856417179107666015625</LongitudeDegrees>
            </Position>
            <AltitudeMeters>89.1999969482421875</AltitudeMeters>
            <DistanceMeters>8066.2472827917</DistanceMeters>
          </Trackpoint>
          <Trackpoint>
            <Time>2021-10-09T07:05:52.000Z</Time>
            <Position>
              <LatitudeDegrees>39.472711868584156036376953125</LatitudeDegrees>
              <LongitudeDegrees>-0.51597051322460174560546875</LongitudeDegrees>
            </Position>
            <AltitudeMeters>89.1999969482421875</AltitudeMeters>
            <DistanceMeters>8073.4008443667</DistanceMeters>
          </Trackpoint>
          <Trackpoint>
            <Time>2021-10-09T07:05:53.000Z</Time>
            <Position>
              <LatitudeDegrees>39.4727167300879955291748046875</LatitudeDegrees>
              <LongitudeDegrees>-0.5160524882376194000244140625</LongitudeDegrees>
            </Position>
            <AltitudeMeters>89.1999969482421875</AltitudeMeters>
            <DistanceMeters>8080.46421271</DistanceMeters>
          </Trackpoint>
          <Trackpoint>
            <Time>2021-10-09T07:05:54.000Z</Time>
            <Position>
              <LatitudeDegrees>39.4727224297821521759033203125</LatitudeDegrees>
              <LongitudeDegrees>-0.51615156233310699462890625</LongitudeDegrees>
            </Position>
            <AltitudeMeters>89.40000152587890625</AltitudeMeters>
            <DistanceMeters>8088.9997066471</DistanceMeters>
          </Trackpoint>
          <Trackpoint>
            <Time>2021-10-09T07:05:55.000Z</Time>
            <Position>
              <LatitudeDegrees>39.4727249443531036376953125</LatitudeDegrees>
              <LongitudeDegrees>-0.51621870137751102447509765625</LongitudeDegrees>
            </Position>
            <AltitudeMeters>89.59999847412109375</AltitudeMeters>
            <DistanceMeters>8094.7752674323</DistanceMeters>
          </Trackpoint>
          <Trackpoint>
            <Time>2021-10-09T07:05:56.000Z</Time>
            <Position>
              <LatitudeDegrees>39.47272821329534053802490234375</LatitudeDegrees>
              <LongitudeDegrees>-0.51630168221890926361083984375</LongitudeDegrees>
            </Position>
            <AltitudeMeters>89.59999847412109375</AltitudeMeters>
            <DistanceMeters>8101.91429758</DistanceMeters>
          </Trackpoint>
          <Trackpoint>
            <Time>2021-10-09T07:05:57.000Z</Time>
            <Position>
              <LatitudeDegrees>39.47273366153240203857421875</LatitudeDegrees>
              <LongitudeDegrees>-0.516383238136768341064453125</LongitudeDegrees>
            </Position>
            <AltitudeMeters>89.59999847412109375</AltitudeMeters>
            <DistanceMeters>8108.9475584709</DistanceMeters>
          </Trackpoint>
          <Trackpoint>
            <Time>2021-10-09T07:05:58.000Z</Time>
            <Position>
              <LatitudeDegrees>39.47273927740752696990966796875</LatitudeDegrees>
              <LongitudeDegrees>-0.51646613515913486480712890625</LongitudeDegrees>
            </Position>
            <AltitudeMeters>89.59999847412109375</AltitudeMeters>
            <DistanceMeters>8116.0967005644</DistanceMeters>
          </Trackpoint>
          <Trackpoint>
            <Time>2021-10-09T07:05:59.000Z</Time>
            <Position>
              <LatitudeDegrees>39.4727437198162078857421875</LatitudeDegrees>
              <LongitudeDegrees>-0.51655096001923084259033203125</LongitudeDegrees>
            </Position>
            <AltitudeMeters>89.59999847412109375</AltitudeMeters>
            <DistanceMeters>8123.400787888</DistanceMeters>
          </Trackpoint>
          <Trackpoint>
            <Time>2021-10-09T07:06:00.000Z</Time>
            <Position>
              <LatitudeDegrees>39.472746066749095916748046875</LatitudeDegrees>
              <LongitudeDegrees>-0.51663729362189769744873046875</LongitudeDegrees>
            </Position>
            <AltitudeMeters>89.59999847412109375</AltitudeMeters>
            <DistanceMeters>8130.8226115391</DistanceMeters>
          </Trackpoint>
          <Trackpoint>
            <Time>2021-10-09T07:06:01.000Z</Time>
            <Position>
              <LatitudeDegrees>39.472750760614871978759765625</LatitudeDegrees>
              <LongitudeDegrees>-0.5167235434055328369140625</LongitudeDegrees>
            </Position>
            <AltitudeMeters>89.59999847412109375</AltitudeMeters>
            <DistanceMeters>8138.2517317579</DistanceMeters>
          </Trackpoint>
          <Trackpoint>
            <Time>2021-10-09T07:06:02.000Z</Time>
            <Position>
              <LatitudeDegrees>39.4727552868425846099853515625</LatitudeDegrees>
              <LongitudeDegrees>-0.5168085359036922454833984375</LongitudeDegrees>
            </Position>
            <AltitudeMeters>89.59999847412109375</AltitudeMeters>
            <DistanceMeters>8145.5712565746</DistanceMeters>
          </Trackpoint>
          <Trackpoint>
            <Time>2021-10-09T07:06:03.000Z</Time>
            <Position>
              <LatitudeDegrees>39.47275872342288494110107421875</LatitudeDegrees>
              <LongitudeDegrees>-0.5168926902115345001220703125</LongitudeDegrees>
            </Position>
            <AltitudeMeters>89.59999847412109375</AltitudeMeters>
            <DistanceMeters>8152.8120178491</DistanceMeters>
          </Trackpoint>
          <Trackpoint>
            <Time>2021-10-09T07:06:04.000Z</Time>
            <Position>
              <LatitudeDegrees>39.4727626629173755645751953125</LatitudeDegrees>
              <LongitudeDegrees>-0.5169775150716304779052734375</LongitudeDegrees>
            </Position>
            <AltitudeMeters>89.59999847412109375</AltitudeMeters>
            <DistanceMeters>8160.1136321449</DistanceMeters>
          </Trackpoint>
          <Trackpoint>
            <Time>2021-10-09T07:06:05.000Z</Time>
            <Position>
              <LatitudeDegrees>39.47276693768799304962158203125</LatitudeDegrees>
              <LongitudeDegrees>-0.5170613341033458709716796875</LongitudeDegrees>
            </Position>
            <AltitudeMeters>89.59999847412109375</AltitudeMeters>
            <DistanceMeters>8167.330659298</DistanceMeters>
          </Trackpoint>
          <Trackpoint>
            <Time>2021-10-09T07:06:06.000Z</Time>
            <Position>
              <LatitudeDegrees>39.4727713800966739654541015625</LatitudeDegrees>
              <LongitudeDegrees>-0.51714540459215641021728515625</LongitudeDegrees>
            </Position>
            <AltitudeMeters>89.40000152587890625</AltitudeMeters>
            <DistanceMeters>8174.5714205725</DistanceMeters>
          </Trackpoint>
          <Trackpoint>
            <Time>2021-10-09T07:06:07.000Z</Time>
            <Position>
              <LatitudeDegrees>39.47277682833373546600341796875</LatitudeDegrees>
              <LongitudeDegrees>-0.51724632270634174346923828125</LongitudeDegrees>
            </Position>
            <AltitudeMeters>89.40000152587890625</AltitudeMeters>
            <DistanceMeters>8183.2631188835</DistanceMeters>
          </Trackpoint>
          <Trackpoint>
            <Time>2021-10-09T07:06:08.000Z</Time>
            <Position>
              <LatitudeDegrees>39.47278085164725780487060546875</LatitudeDegrees>
              <LongitudeDegrees>-0.5173124559223651885986328125</LongitudeDegrees>
            </Position>
            <AltitudeMeters>89.8000030517578125</AltitudeMeters>
            <DistanceMeters>8188.9631377471</DistanceMeters>
          </Trackpoint>
          <Trackpoint>
            <Time>2021-10-09T07:06:09.000Z</Time>
            <Position>
              <LatitudeDegrees>39.47278487496078014373779296875</LatitudeDegrees>
              <LongitudeDegrees>-0.5173956044018268585205078125</LongitudeDegrees>
            </Position>
            <AltitudeMeters>89.8000030517578125</AltitudeMeters>
            <DistanceMeters>8196.121116075</DistanceMeters>
          </Trackpoint>
          <Trackpoint>
            <Time>2021-10-09T07:06:10.000Z</Time>
            <Position>
              <LatitudeDegrees>39.4727898202836513519287109375</LatitudeDegrees>
              <LongitudeDegrees>-0.5174770765006542205810546875</LongitudeDegrees>
            </Position>
            <AltitudeMeters>89.40000152587890625</AltitudeMeters>
            <DistanceMeters>8203.1421692231</DistanceMeters>
          </Trackpoint>
          <Trackpoint>
            <Time>2021-10-09T07:06:11.000Z</Time>
            <Position>
              <LatitudeDegrees>39.47279342450201511383056640625</LatitudeDegrees>
              <LongitudeDegrees>-0.51755779422819614410400390625</LongitudeDegrees>
            </Position>
            <AltitudeMeters>89.59999847412109375</AltitudeMeters>
            <DistanceMeters>8210.0888755301</DistanceMeters>
          </Trackpoint>
          <Trackpoint>
            <Time>2021-10-09T07:06:12.000Z</Time>
            <Position>
              <LatitudeDegrees>39.4727992080152034759521484375</LatitudeDegrees>
              <LongitudeDegrees>-0.51765250973403453826904296875</LongitudeDegrees>
            </Position>
            <AltitudeMeters>89.8000030517578125</AltitudeMeters>
            <DistanceMeters>8218.2512222517</DistanceMeters>
          </Trackpoint>
          <Trackpoint>
            <Time>2021-10-09T07:06:13.000Z</Time>
            <Position>
              <LatitudeDegrees>39.47280297987163066864013671875</LatitudeDegrees>
              <LongitudeDegrees>-0.517716966569423675537109375</LongitudeDegrees>
            </Position>
            <AltitudeMeters>89.8000030517578125</AltitudeMeters>
            <DistanceMeters>8223.8052065092</DistanceMeters>
          </Trackpoint>
          <Trackpoint>
            <Time>2021-10-09T07:06:14.000Z</Time>
            <Position>
              <LatitudeDegrees>39.47280884720385074615478515625</LatitudeDegrees>
              <LongitudeDegrees>-0.5177952535450458526611328125</LongitudeDegrees>
            </Position>
            <AltitudeMeters>89.8000030517578125</AltitudeMeters>
            <DistanceMeters>8230.5628019822</DistanceMeters>
          </Trackpoint>
          <Trackpoint>
            <Time>2021-10-09T07:06:15.000Z</Time>
            <Position>
              <LatitudeDegrees>39.47281412780284881591796875</LatitudeDegrees>
              <LongitudeDegrees>-0.517889969050884246826171875</LongitudeDegrees>
            </Position>
            <AltitudeMeters>89.8000030517578125</AltitudeMeters>
            <DistanceMeters>8238.721275704</DistanceMeters>
          </Trackpoint>
          <Trackpoint>
            <Time>2021-10-09T07:06:16.000Z</Time>
            <Position>
              <LatitudeDegrees>39.47281773202121257781982421875</LatitudeDegrees>
              <LongitudeDegrees>-0.51796850748360157012939453125</LongitudeDegrees>
            </Position>
            <AltitudeMeters>89.8000030517578125</AltitudeMeters>
            <DistanceMeters>8245.480875308</DistanceMeters>
          </Trackpoint>
          <Trackpoint>
            <Time>2021-10-09T07:06:17.000Z</Time>
            <Position>
              <LatitudeDegrees>39.47281949222087860107421875</LatitudeDegrees>
              <LongitudeDegrees>-0.5180296115577220916748046875</LongitudeDegrees>
            </Position>
            <AltitudeMeters>89.8000030517578125</AltitudeMeters>
            <DistanceMeters>8250.734056593</DistanceMeters>
          </Trackpoint>
          <Trackpoint>
            <Time>2021-10-09T07:06:18.000Z</Time>
            <Position>
              <LatitudeDegrees>39.4728210009634494781494140625</LatitudeDegrees>
              <LongitudeDegrees>-0.5181070603430271148681640625</LongitudeDegrees>
            </Position>
            <AltitudeMeters>89.8000030517578125</AltitudeMeters>
            <DistanceMeters>8257.3899979264</DistanceMeters>
          </Trackpoint>
          <Trackpoint>
            <Time>2021-10-09T07:06:19.000Z</Time>
            <Position>
              <LatitudeDegrees>39.472824521362781524658203125</LatitudeDegrees>
              <LongitudeDegrees>-0.51820085383951663970947265625</LongitudeDegrees>
            </Position>
            <AltitudeMeters>89.59999847412109375</AltitudeMeters>
            <DistanceMeters>8265.45776038</DistanceMeters>
          </Trackpoint>
          <Trackpoint>
            <Time>2021-10-09T07:06:20.000Z</Time>
            <Position>
              <LatitudeDegrees>39.4728263653814792633056640625</LatitudeDegrees>
              <LongitudeDegrees>-0.51826514303684234619140625</LongitudeDegrees>
            </Position>
            <AltitudeMeters>89.59999847412109375</AltitudeMeters>
            <DistanceMeters>8270.9848526182</DistanceMeters>
          </Trackpoint>
          <Trackpoint>
            <Time>2021-10-09T07:06:21.000Z</Time>
            <Position>
              <LatitudeDegrees>39.47282980196177959442138671875</LatitudeDegrees>
              <LongitudeDegrees>-0.5183618701994419097900390625</LongitudeDegrees>
            </Position>
            <AltitudeMeters>89.59999847412109375</AltitudeMeters>
            <DistanceMeters>8279.3038973871</DistanceMeters>
          </Trackpoint>
          <Trackpoint>
            <Time>2021-10-09T07:06:22.000Z</Time>
            <Position>
              <LatitudeDegrees>39.47283198125660419464111328125</LatitudeDegrees>
              <LongitudeDegrees>-0.51842682994902133941650390625</LongitudeDegrees>
            </Position>
            <AltitudeMeters>89.8000030517578125</AltitudeMeters>
            <DistanceMeters>8284.8903044785</DistanceMeters>
          </Trackpoint>
          <Trackpoint>
            <Time>2021-10-09T07:06:23.000Z</Time>
            <Position>
              <LatitudeDegrees>39.47283558547496795654296875</LatitudeDegrees>
              <LongitudeDegrees>-0.5185067094862461090087890625</LongitudeDegrees>
            </Position>
            <AltitudeMeters>89.8000030517578125</AltitudeMeters>
            <DistanceMeters>8291.7651441208</DistanceMeters>
          </Trackpoint>
          <Trackpoint>
            <Time>2021-10-09T07:06:24.000Z</Time>
            <Position>
              <LatitudeDegrees>39.47283918969333171844482421875</LatitudeDegrees>
              <LongitudeDegrees>-0.5185851640999317169189453125</LongitudeDegrees>
            </Position>
            <AltitudeMeters>90</AltitudeMeters>
            <DistanceMeters>8298.5180609751</DistanceMeters>
          </Trackpoint>
          <Trackpoint>
            <Time>2021-10-09T07:06:25.000Z</Time>
            <Position>
              <LatitudeDegrees>39.47284229099750518798828125</LatitudeDegrees>
              <LongitudeDegrees>-0.51866319961845874786376953125</LongitudeDegrees>
            </Position>
            <AltitudeMeters>90</AltitudeMeters>
            <DistanceMeters>8305.232086713</DistanceMeters>
          </Trackpoint>
          <Trackpoint>
            <Time>2021-10-09T07:06:26.000Z</Time>
            <Position>
              <LatitudeDegrees>39.472846649587154388427734375</LatitudeDegrees>
              <LongitudeDegrees>-0.51874115131795406341552734375</LongitudeDegrees>
            </Position>
            <AltitudeMeters>90</AltitudeMeters>
            <DistanceMeters>8311.9474572732</DistanceMeters>
          </Trackpoint>
          <Trackpoint>
            <Time>2021-10-09T07:06:27.000Z</Time>
            <Position>
              <LatitudeDegrees>39.47285042144358158111572265625</LatitudeDegrees>
              <LongitudeDegrees>-0.51881792955100536346435546875</LongitudeDegrees>
            </Position>
            <AltitudeMeters>89.8000030517578125</AltitudeMeters>
            <DistanceMeters>8318.5571100505</DistanceMeters>
          </Trackpoint>
          <Trackpoint>
            <Time>2021-10-09T07:06:28.000Z</Time>
            <Position>
              <LatitudeDegrees>39.47285478003323078155517578125</LatitudeDegrees>
              <LongitudeDegrees>-0.51889403723180294036865234375</LongitudeDegrees>
            </Position>
            <AltitudeMeters>89.8000030517578125</AltitudeMeters>
            <DistanceMeters>8325.1132647064</DistanceMeters>
          </Trackpoint>
          <Trackpoint>
            <Time>2021-10-09T07:06:29.000Z</Time>
            <Position>
              <LatitudeDegrees>39.4728585518896579742431640625</LatitudeDegrees>
              <LongitudeDegrees>-0.51897324621677398681640625</LongitudeDegrees>
            </Position>
            <AltitudeMeters>89.8000030517578125</AltitudeMeters>
            <DistanceMeters>8331.9313900744</DistanceMeters>
          </Trackpoint>
          <Trackpoint>
            <Time>2021-10-09T07:06:30.000Z</Time>
            <Position>
              <LatitudeDegrees>39.47286215610802173614501953125</LatitudeDegrees>
              <LongitudeDegrees>-0.51905312575399875640869140625</LongitudeDegrees>
            </Position>
            <AltitudeMeters>89.8000030517578125</AltitudeMeters>
            <DistanceMeters>8338.8062297167</DistanceMeters>
          </Trackpoint>
          <Trackpoint>
            <Time>2021-10-09T07:06:31.000Z</Time>
            <Position>
              <LatitudeDegrees>39.47286668233573436737060546875</LatitudeDegrees>
              <LongitudeDegrees>-0.5191326700150966644287109375</LongitudeDegrees>
            </Position>
            <AltitudeMeters>90</AltitudeMeters>
            <DistanceMeters>8345.6593624008</DistanceMeters>
          </Trackpoint>
          <Trackpoint>
            <Time>2021-10-09T07:06:32.000Z</Time>
            <Position>
              <LatitudeDegrees>39.472869448363780975341796875</LatitudeDegrees>
              <LongitudeDegrees>-0.5192114599049091339111328125</LongitudeDegrees>
            </Position>
            <AltitudeMeters>90</AltitudeMeters>
            <DistanceMeters>8352.4356400454</DistanceMeters>
          </Trackpoint>
          <Trackpoint>
            <Time>2021-10-09T07:06:33.000Z</Time>
            <Position>
              <LatitudeDegrees>39.4728722982108592987060546875</LatitudeDegrees>
              <LongitudeDegrees>-0.51929033361375331878662109375</LongitudeDegrees>
            </Position>
            <AltitudeMeters>90</AltitudeMeters>
            <DistanceMeters>8359.2205740695</DistanceMeters>
          </Trackpoint>
          <Trackpoint>
            <Time>2021-10-09T07:06:34.000Z</Time>
            <Position>
              <LatitudeDegrees>39.47287422604858875274658203125</LatitudeDegrees>
              <LongitudeDegrees>-0.5193680338561534881591796875</LongitudeDegrees>
            </Position>
            <AltitudeMeters>90</AltitudeMeters>
            <DistanceMeters>8365.8995393811</DistanceMeters>
          </Trackpoint>
          <Trackpoint>
            <Time>2021-10-09T07:06:35.000Z</Time>
            <Position>
              <LatitudeDegrees>39.47287489660084247589111328125</LatitudeDegrees>
              <LongitudeDegrees>-0.51944489590823650360107421875</LongitudeDegrees>
            </Position>
            <AltitudeMeters>90</AltitudeMeters>
            <DistanceMeters>8372.505092301</DistanceMeters>
          </Trackpoint>
          <Trackpoint>
            <Time>2021-10-09T07:06:36.000Z</Time>
            <Position>
              <LatitudeDegrees>39.472874812781810760498046875</LatitudeDegrees>
              <LongitudeDegrees>-0.519522093236446380615234375</LongitudeDegrees>
            </Position>
            <AltitudeMeters>90</AltitudeMeters>
            <DistanceMeters>8379.1386104106</DistanceMeters>
          </Trackpoint>
          <Trackpoint>
            <Time>2021-10-09T07:06:37.000Z</Time>
            <Position>
              <LatitudeDegrees>39.47287657298147678375244140625</LatitudeDegrees>
              <LongitudeDegrees>-0.51959895528852939605712890625</LongitudeDegrees>
            </Position>
            <AltitudeMeters>90</AltitudeMeters>
            <DistanceMeters>8385.7455302323</DistanceMeters>
          </Trackpoint>
          <Trackpoint>
            <Time>2021-10-09T07:06:38.000Z</Time>
            <Position>
              <LatitudeDegrees>39.47287891991436481475830078125</LatitudeDegrees>
              <LongitudeDegrees>-0.5196754820644855499267578125</LongitudeDegrees>
            </Position>
            <AltitudeMeters>90</AltitudeMeters>
            <DistanceMeters>8392.3250580628</DistanceMeters>
          </Trackpoint>
          <Trackpoint>
            <Time>2021-10-09T07:06:39.000Z</Time>
            <Position>
              <LatitudeDegrees>39.472881853580474853515625</LatitudeDegrees>
              <LongitudeDegrees>-0.5197522602975368499755859375</LongitudeDegrees>
            </Position>
            <AltitudeMeters>90</AltitudeMeters>
            <DistanceMeters>8398.9306109827</DistanceMeters>
          </Trackpoint>
          <Trackpoint>
            <Time>2021-10-09T07:06:40.000Z</Time>
            <Position>
              <LatitudeDegrees>39.47288453578948974609375</LatitudeDegrees>
              <LongitudeDegrees>-0.519842617213726043701171875</LongitudeDegrees>
            </Position>
            <AltitudeMeters>90</AltitudeMeters>
            <DistanceMeters>8406.6995897413</DistanceMeters>
          </Trackpoint>
          <Trackpoint>
            <Time>2021-10-09T07:06:41.000Z</Time>
            <Position>
              <LatitudeDegrees>39.47288545779883861541748046875</LatitudeDegrees>
              <LongitudeDegrees>-0.51990455947816371917724609375</LongitudeDegrees>
            </Position>
            <AltitudeMeters>90</AltitudeMeters>
            <DistanceMeters>8412.0227823811</DistanceMeters>
          </Trackpoint>
          <Trackpoint>
            <Time>2021-10-09T07:06:42.000Z</Time>
            <Position>
              <LatitudeDegrees>39.4728858768939971923828125</LatitudeDegrees>
              <LongitudeDegrees>-0.5199824273586273193359375</LongitudeDegrees>
            </Position>
            <AltitudeMeters>90</AltitudeMeters>
            <DistanceMeters>8418.712555087</DistanceMeters>
          </Trackpoint>
          <Trackpoint>
            <Time>2021-10-09T07:06:43.000Z</Time>
            <Position>
              <LatitudeDegrees>39.47288654744625091552734375</LatitudeDegrees>
              <LongitudeDegrees>-0.52006012760102748870849609375</LongitudeDegrees>
            </Position>
            <AltitudeMeters>90</AltitudeMeters>
            <DistanceMeters>8425.3888158165</DistanceMeters>
          </Trackpoint>
          <Trackpoint>
            <Time>2021-10-09T07:06:44.000Z</Time>
            <Position>
              <LatitudeDegrees>39.472888223826885223388671875</LatitudeDegrees>
              <LongitudeDegrees>-0.5201351456344127655029296875</LongitudeDegrees>
            </Position>
            <AltitudeMeters>90</AltitudeMeters>
            <DistanceMeters>8431.8366427332</DistanceMeters>
          </Trackpoint>
          <Trackpoint>
            <Time>2021-10-09T07:06:45.000Z</Time>
            <Position>
              <LatitudeDegrees>39.4728900678455829620361328125</LatitudeDegrees>
              <LongitudeDegrees>-0.52021242678165435791015625</LongitudeDegrees>
            </Position>
            <AltitudeMeters>90</AltitudeMeters>
            <DistanceMeters>8438.4790032703</DistanceMeters>
          </Trackpoint>
          <Trackpoint>
            <Time>2021-10-09T07:06:46.000Z</Time>
            <Position>
              <LatitudeDegrees>39.47289057075977325439453125</LatitudeDegrees>
              <LongitudeDegrees>-0.5202900432050228118896484375</LongitudeDegrees>
            </Position>
            <AltitudeMeters>90</AltitudeMeters>
            <DistanceMeters>8445.1484977461</DistanceMeters>
          </Trackpoint>
          <Trackpoint>
            <Time>2021-10-09T07:06:47.000Z</Time>
            <Position>
              <LatitudeDegrees>39.47289031930267810821533203125</LatitudeDegrees>
              <LongitudeDegrees>-0.52036774344742298126220703125</LongitudeDegrees>
            </Position>
            <AltitudeMeters>90.1999969482421875</AltitudeMeters>
            <DistanceMeters>8451.8240821588</DistanceMeters>
          </Trackpoint>
          <Trackpoint>
            <Time>2021-10-09T07:06:48.000Z</Time>
            <Position>
              <LatitudeDegrees>39.4728904031217098236083984375</LatitudeDegrees>
              <LongitudeDegrees>-0.52044569514691829681396484375</LongitudeDegrees>
            </Position>
            <AltitudeMeters>90.1999969482421875</AltitudeMeters>
            <DistanceMeters>8458.5219489665</DistanceMeters>
          </Trackpoint>
          <Trackpoint>
            <Time>2021-10-09T07:06:49.000Z</Time>
            <Position>
              <LatitudeDegrees>39.47289057075977325439453125</LatitudeDegrees>
              <LongitudeDegrees>-0.52054024301469326019287109375</LongitudeDegrees>
            </Position>
            <AltitudeMeters>90.1999969482421875</AltitudeMeters>
            <DistanceMeters>8466.6454825974</DistanceMeters>
          </Trackpoint>
          <Trackpoint>
            <Time>2021-10-09T07:06:50.000Z</Time>
            <Position>
              <LatitudeDegrees>39.47288922965526580810546875</LatitudeDegrees>
              <LongitudeDegrees>-0.52060411311686038970947265625</LongitudeDegrees>
            </Position>
            <AltitudeMeters>90.1999969482421875</AltitudeMeters>
            <DistanceMeters>8472.1348691837</DistanceMeters>
          </Trackpoint>
          <Trackpoint>
            <Time>2021-10-09T07:06:51.000Z</Time>
            <Position>
              <LatitudeDegrees>39.4728883914649486541748046875</LatitudeDegrees>
              <LongitudeDegrees>-0.52068323828279972076416015625</LongitudeDegrees>
            </Position>
            <AltitudeMeters>90.1999969482421875</AltitudeMeters>
            <DistanceMeters>8478.9337633082</DistanceMeters>
          </Trackpoint>
          <Trackpoint>
            <Time>2021-10-09T07:06:52.000Z</Time>
            <Position>
              <LatitudeDegrees>39.47288881056010723114013671875</LatitudeDegrees>
              <LongitudeDegrees>-0.5207614414393901824951171875</LongitudeDegrees>
            </Position>
            <AltitudeMeters>90.1999969482421875</AltitudeMeters>
            <DistanceMeters>8485.6531667207</DistanceMeters>
          </Trackpoint>
          <Trackpoint>
            <Time>2021-10-09T07:06:53.000Z</Time>
            <Position>
              <LatitudeDegrees>39.47288948111236095428466796875</LatitudeDegrees>
              <LongitudeDegrees>-0.52084065042436122894287109375</LongitudeDegrees>
            </Position>
            <AltitudeMeters>90.1999969482421875</AltitudeMeters>
            <DistanceMeters>8492.4593618514</DistanceMeters>
          </Trackpoint>
          <Trackpoint>
            <Time>2021-10-09T07:06:54.000Z</Time>
            <Position>
              <LatitudeDegrees>39.47288914583623409271240234375</LatitudeDegrees>
              <LongitudeDegrees>-0.520919859409332275390625</LongitudeDegrees>
            </Position>
            <AltitudeMeters>90.1999969482421875</AltitudeMeters>
            <DistanceMeters>8499.2642301091</DistanceMeters>
          </Trackpoint>
          <Trackpoint>
            <Time>2021-10-09T07:06:55.000Z</Time>
            <Position>
              <LatitudeDegrees>39.4728887267410755157470703125</LatitudeDegrees>
              <LongitudeDegrees>-0.52100007422268390655517578125</LongitudeDegrees>
            </Position>
            <AltitudeMeters>90.1999969482421875</AltitudeMeters>
            <DistanceMeters>8506.1561240502</DistanceMeters>
          </Trackpoint>
          <Trackpoint>
            <Time>2021-10-09T07:06:56.000Z</Time>
            <Position>
              <LatitudeDegrees>39.4728870503604412078857421875</LatitudeDegrees>
              <LongitudeDegrees>-0.52109965123236179351806640625</LongitudeDegrees>
            </Position>
            <AltitudeMeters>90.1999969482421875</AltitudeMeters>
            <DistanceMeters>8514.713805977</DistanceMeters>
          </Trackpoint>
          <Trackpoint>
            <Time>2021-10-09T07:06:57.000Z</Time>
            <Position>
              <LatitudeDegrees>39.47288730181753635406494140625</LatitudeDegrees>
              <LongitudeDegrees>-0.521165616810321807861328125</LongitudeDegrees>
            </Position>
            <AltitudeMeters>90</AltitudeMeters>
            <DistanceMeters>8520.3812553073</DistanceMeters>
          </Trackpoint>
          <Trackpoint>
            <Time>2021-10-09T07:06:58.000Z</Time>
            <Position>
              <LatitudeDegrees>39.47288746945559978485107421875</LatitudeDegrees>
              <LongitudeDegrees>-0.52124666981399059295654296875</LongitudeDegrees>
            </Position>
            <AltitudeMeters>90</AltitudeMeters>
            <DistanceMeters>8527.3454882572</DistanceMeters>
          </Trackpoint>
          <Trackpoint>
            <Time>2021-10-09T07:06:59.000Z</Time>
            <Position>
              <LatitudeDegrees>39.4728857092559337615966796875</LatitudeDegrees>
              <LongitudeDegrees>-0.52132797427475452423095703125</LongitudeDegrees>
            </Position>
            <AltitudeMeters>90</AltitudeMeters>
            <DistanceMeters>8534.3343138728</DistanceMeters>
          </Trackpoint>
          <Trackpoint>
            <Time>2021-10-09T07:07:00.000Z</Time>
            <Position>
              <LatitudeDegrees>39.47288311086595058441162109375</LatitudeDegrees>
              <LongitudeDegrees>-0.52141011692583560943603515625</LongitudeDegrees>
            </Position>
            <AltitudeMeters>90</AltitudeMeters>
            <DistanceMeters>8541.3976822161</DistanceMeters>
          </Trackpoint>
          <Trackpoint>
            <Time>2021-10-09T07:07:01.000Z</Time>
            <Position>
              <LatitudeDegrees>39.47288076393306255340576171875</LatitudeDegrees>
              <LongitudeDegrees>-0.5215064249932765960693359375</LongitudeDegrees>
            </Position>
            <AltitudeMeters>90</AltitudeMeters>
            <DistanceMeters>8549.6759217712</DistanceMeters>
          </Trackpoint>
          <Trackpoint>
            <Time>2021-10-09T07:07:02.000Z</Time>
            <Position>
              <LatitudeDegrees>39.47287875227630138397216796875</LatitudeDegrees>
              <LongitudeDegrees>-0.5215865559875965118408203125</LongitudeDegrees>
            </Position>
            <AltitudeMeters>90</AltitudeMeters>
            <DistanceMeters>8556.5638838528</DistanceMeters>
          </Trackpoint>
          <Trackpoint>
            <Time>2021-10-09T07:07:03.000Z</Time>
            <Position>
              <LatitudeDegrees>39.47287690825760364532470703125</LatitudeDegrees>
              <LongitudeDegrees>-0.5216656811535358428955078125</LongitudeDegrees>
            </Position>
            <AltitudeMeters>90</AltitudeMeters>
            <DistanceMeters>8563.3647699381</DistanceMeters>
          </Trackpoint>
          <Trackpoint>
            <Time>2021-10-09T07:07:04.000Z</Time>
            <Position>
              <LatitudeDegrees>39.47287506423890590667724609375</LatitudeDegrees>
              <LongitudeDegrees>-0.5217293836176395416259765625</LongitudeDegrees>
            </Position>
            <AltitudeMeters>90</AltitudeMeters>
            <DistanceMeters>8568.8418050801</DistanceMeters>
          </Trackpoint>
          <Trackpoint>
            <Time>2021-10-09T07:07:05.000Z</Time>
            <Position>
              <LatitudeDegrees>39.47287271730601787567138671875</LatitudeDegrees>
              <LongitudeDegrees>-0.52181060425937175750732421875</LongitudeDegrees>
            </Position>
            <AltitudeMeters>90</AltitudeMeters>
            <DistanceMeters>8575.8261069744</DistanceMeters>
          </Trackpoint>
          <Trackpoint>
            <Time>2021-10-09T07:07:06.000Z</Time>
            <Position>
              <LatitudeDegrees>39.4728702865540981292724609375</LatitudeDegrees>
              <LongitudeDegrees>-0.5218933336436748504638671875</LongitudeDegrees>
            </Position>
            <AltitudeMeters>90</AltitudeMeters>
            <DistanceMeters>8582.9397943721</DistanceMeters>
          </Trackpoint>
          <Trackpoint>
            <Time>2021-10-09T07:07:07.000Z</Time>
            <Position>
              <LatitudeDegrees>39.47286567650735378265380859375</LatitudeDegrees>
              <LongitudeDegrees>-0.5219935812056064605712890625</LongitudeDegrees>
            </Position>
            <AltitudeMeters>90</AltitudeMeters>
            <DistanceMeters>8591.5678851345</DistanceMeters>
          </Trackpoint>
          <Trackpoint>
            <Time>2021-10-09T07:07:08.000Z</Time>
            <Position>
              <LatitudeDegrees>39.47286416776478290557861328125</LatitudeDegrees>
              <LongitudeDegrees>-0.5220613069832324981689453125</LongitudeDegrees>
            </Position>
            <AltitudeMeters>90</AltitudeMeters>
            <DistanceMeters>8597.3886107609</DistanceMeters>
          </Trackpoint>
          <Trackpoint>
            <Time>2021-10-09T07:07:09.000Z</Time>
            <Position>
              <LatitudeDegrees>39.47286450304090976715087890625</LatitudeDegrees>
              <LongitudeDegrees>-0.52214688621461391448974609375</LongitudeDegrees>
            </Position>
            <AltitudeMeters>90</AltitudeMeters>
            <DistanceMeters>8604.7407558624</DistanceMeters>
          </Trackpoint>
          <Trackpoint>
            <Time>2021-10-09T07:07:10.000Z</Time>
            <Position>
              <LatitudeDegrees>39.4728615693747997283935546875</LatitudeDegrees>
              <LongitudeDegrees>-0.52224713377654552459716796875</LongitudeDegrees>
            </Position>
            <AltitudeMeters>90</AltitudeMeters>
            <DistanceMeters>8613.3594221645</DistanceMeters>
          </Trackpoint>
          <Trackpoint>
            <Time>2021-10-09T07:07:11.000Z</Time>
            <Position>
              <LatitudeDegrees>39.4728578813374042510986328125</LatitudeDegrees>
              <LongitudeDegrees>-0.5223312042653560638427734375</LongitudeDegrees>
            </Position>
            <AltitudeMeters>90</AltitudeMeters>
            <DistanceMeters>8620.5939451667</DistanceMeters>
          </Trackpoint>
          <Trackpoint>
            <Time>2021-10-09T07:07:12.000Z</Time>
            <Position>
              <LatitudeDegrees>39.4728551991283893585205078125</LatitudeDegrees>
              <LongitudeDegrees>-0.52239918150007724761962890625</LongitudeDegrees>
            </Position>
            <AltitudeMeters>90</AltitudeMeters>
            <DistanceMeters>8626.4409845386</DistanceMeters>
          </Trackpoint>
          <Trackpoint>
            <Time>2021-10-09T07:07:13.000Z</Time>
            <Position>
              <LatitudeDegrees>39.4728536903858184814453125</LatitudeDegrees>
              <LongitudeDegrees>-0.522482581436634063720703125</LongitudeDegrees>
            </Position>
            <AltitudeMeters>90</AltitudeMeters>
            <DistanceMeters>8633.6077882065</DistanceMeters>
          </Trackpoint>
          <Trackpoint>
            <Time>2021-10-09T07:07:14.000Z</Time>
            <Position>
              <LatitudeDegrees>39.47285025380551815032958984375</LatitudeDegrees>
              <LongitudeDegrees>-0.52258324809372425079345703125</LongitudeDegrees>
            </Position>
            <AltitudeMeters>90</AltitudeMeters>
            <DistanceMeters>8642.2651339016</DistanceMeters>
          </Trackpoint>
          <Trackpoint>
            <Time>2021-10-09T07:07:15.000Z</Time>
            <Position>
              <LatitudeDegrees>39.47284908033907413482666015625</LatitudeDegrees>
              <LongitudeDegrees>-0.52265047095715999603271484375</LongitudeDegrees>
            </Position>
            <AltitudeMeters>90</AltitudeMeters>
            <DistanceMeters>8648.042257973</DistanceMeters>
          </Trackpoint>
          <Trackpoint>
            <Time>2021-10-09T07:07:16.000Z</Time>
            <Position>
              <LatitudeDegrees>39.47284623049199581146240234375</LatitudeDegrees>
              <LongitudeDegrees>-0.52275289781391620635986328125</LongitudeDegrees>
            </Position>
            <AltitudeMeters>90</AltitudeMeters>
            <DistanceMeters>8656.8480098673</DistanceMeters>
          </Trackpoint>
          <Trackpoint>
            <Time>2021-10-09T07:07:17.000Z</Time>
            <Position>
              <LatitudeDegrees>39.47284623049199581146240234375</LatitudeDegrees>
              <LongitudeDegrees>-0.5228213779628276824951171875</LongitudeDegrees>
            </Position>
            <AltitudeMeters>90</AltitudeMeters>
            <DistanceMeters>8662.7304628364</DistanceMeters>
          </Trackpoint>
          <Trackpoint>
            <Time>2021-10-09T07:07:18.000Z</Time>
            <Position>
              <LatitudeDegrees>39.4728448055684566497802734375</LatitudeDegrees>
              <LongitudeDegrees>-0.52290544845163822174072265625</LongitudeDegrees>
            </Position>
            <AltitudeMeters>90</AltitudeMeters>
            <DistanceMeters>8669.9549933987</DistanceMeters>
          </Trackpoint>
          <Trackpoint>
            <Time>2021-10-09T07:07:19.000Z</Time>
            <Position>
              <LatitudeDegrees>39.472842626273632049560546875</LatitudeDegrees>
              <LongitudeDegrees>-0.52300536073744297027587890625</LongitudeDegrees>
            </Position>
            <AltitudeMeters>90</AltitudeMeters>
            <DistanceMeters>8678.5432216441</DistanceMeters>
          </Trackpoint>
          <Trackpoint>
            <Time>2021-10-09T07:07:20.000Z</Time>
            <Position>
              <LatitudeDegrees>39.47284187190234661102294921875</LatitudeDegrees>
              <LongitudeDegrees>-0.52308783866465091705322265625</LongitudeDegrees>
            </Position>
            <AltitudeMeters>90</AltitudeMeters>
            <DistanceMeters>8685.6302016202</DistanceMeters>
          </Trackpoint>
          <Trackpoint>
            <Time>2021-10-09T07:07:21.000Z</Time>
            <Position>
              <LatitudeDegrees>39.47284036315977573394775390625</LatitudeDegrees>
              <LongitudeDegrees>-0.52315372042357921600341796875</LongitudeDegrees>
            </Position>
            <AltitudeMeters>90</AltitudeMeters>
            <DistanceMeters>8691.2928689645</DistanceMeters>
          </Trackpoint>
          <Trackpoint>
            <Time>2021-10-09T07:07:22.000Z</Time>
            <Position>
              <LatitudeDegrees>39.4728370942175388336181640625</LatitudeDegrees>
              <LongitudeDegrees>-0.5232359468936920166015625</LongitudeDegrees>
            </Position>
            <AltitudeMeters>90</AltitudeMeters>
            <DistanceMeters>8698.3664574156</DistanceMeters>
          </Trackpoint>
          <Trackpoint>
            <Time>2021-10-09T07:07:23.000Z</Time>
            <Position>
              <LatitudeDegrees>39.47283432818949222564697265625</LatitudeDegrees>
              <LongitudeDegrees>-0.52333183586597442626953125</LongitudeDegrees>
            </Position>
            <AltitudeMeters>90.1999969482421875</AltitudeMeters>
            <DistanceMeters>8706.6102645044</DistanceMeters>
          </Trackpoint>
          <Trackpoint>
            <Time>2021-10-09T07:07:24.000Z</Time>
            <Position>
              <LatitudeDegrees>39.472833573818206787109375</LatitudeDegrees>
              <LongitudeDegrees>-0.52339729852974414825439453125</LongitudeDegrees>
            </Position>
            <AltitudeMeters>90.40000152587890625</AltitudeMeters>
            <DistanceMeters>8712.2353323137</DistanceMeters>
          </Trackpoint>
          <Trackpoint>
            <Time>2021-10-09T07:07:25.000Z</Time>
            <Position>
              <LatitudeDegrees>39.47283114306628704071044921875</LatitudeDegrees>
              <LongitudeDegrees>-0.5234959535300731658935546875</LongitudeDegrees>
            </Position>
            <AltitudeMeters>90.1999969482421875</AltitudeMeters>
            <DistanceMeters>8720.715634714</DistanceMeters>
          </Trackpoint>
          <Trackpoint>
            <Time>2021-10-09T07:07:26.000Z</Time>
            <Position>
              <LatitudeDegrees>39.47282879613339900970458984375</LatitudeDegrees>
              <LongitudeDegrees>-0.523561500012874603271484375</LongitudeDegrees>
            </Position>
            <AltitudeMeters>90.40000152587890625</AltitudeMeters>
            <DistanceMeters>8726.3535305167</DistanceMeters>
          </Trackpoint>
          <Trackpoint>
            <Time>2021-10-09T07:07:27.000Z</Time>
            <Position>
              <LatitudeDegrees>39.47282510809600353240966796875</LatitudeDegrees>
              <LongitudeDegrees>-0.5236423015594482421875</LongitudeDegrees>
            </Position>
            <AltitudeMeters>90.40000152587890625</AltitudeMeters>
            <DistanceMeters>8733.308031896</DistanceMeters>
          </Trackpoint>
          <Trackpoint>
            <Time>2021-10-09T07:07:28.000Z</Time>
            <Position>
              <LatitudeDegrees>39.47282217442989349365234375</LatitudeDegrees>
              <LongitudeDegrees>-0.52374095655977725982666015625</LongitudeDegrees>
            </Position>
            <AltitudeMeters>90.40000152587890625</AltitudeMeters>
            <DistanceMeters>8741.790463688</DistanceMeters>
          </Trackpoint>
          <Trackpoint>
            <Time>2021-10-09T07:07:29.000Z</Time>
            <Position>
              <LatitudeDegrees>39.47281940840184688568115234375</LatitudeDegrees>
              <LongitudeDegrees>-0.52382410503923892974853515625</LongitudeDegrees>
            </Position>
            <AltitudeMeters>90.40000152587890625</AltitudeMeters>
            <DistanceMeters>8748.9408687692</DistanceMeters>
          </Trackpoint>
          <Trackpoint>
            <Time>2021-10-09T07:07:30.000Z</Time>
            <Position>
              <LatitudeDegrees>39.472817145287990570068359375</LatitudeDegrees>
              <LongitudeDegrees>-0.5238912440836429595947265625</LongitudeDegrees>
            </Position>
            <AltitudeMeters>90.40000152587890625</AltitudeMeters>
            <DistanceMeters>8754.7156477526</DistanceMeters>
          </Trackpoint>
          <Trackpoint>
            <Time>2021-10-09T07:07:31.000Z</Time>
            <Position>
              <LatitudeDegrees>39.47281546890735626220703125</LatitudeDegrees>
              <LongitudeDegrees>-0.52397564984858036041259765625</LongitudeDegrees>
            </Position>
            <AltitudeMeters>90.40000152587890625</AltitudeMeters>
            <DistanceMeters>8761.9701143433</DistanceMeters>
          </Trackpoint>
          <Trackpoint>
            <Time>2021-10-09T07:07:32.000Z</Time>
            <Position>
              <LatitudeDegrees>39.47281287051737308502197265625</LatitudeDegrees>
              <LongitudeDegrees>-0.5240759812295436859130859375</LongitudeDegrees>
            </Position>
            <AltitudeMeters>90.40000152587890625</AltitudeMeters>
            <DistanceMeters>8770.5950647632</DistanceMeters>
          </Trackpoint>
          <Trackpoint>
            <Time>2021-10-09T07:07:33.000Z</Time>
            <Position>
              <LatitudeDegrees>39.47281018830835819244384765625</LatitudeDegrees>
              <LongitudeDegrees>-0.52414295263588428497314453125</LongitudeDegrees>
            </Position>
            <AltitudeMeters>90.40000152587890625</AltitudeMeters>
            <DistanceMeters>8776.3565368848</DistanceMeters>
          </Trackpoint>
          <Trackpoint>
            <Time>2021-10-09T07:07:34.000Z</Time>
            <Position>
              <LatitudeDegrees>39.472809769213199615478515625</LatitudeDegrees>
              <LongitudeDegrees>-0.52424152381718158721923828125</LongitudeDegrees>
            </Position>
            <AltitudeMeters>90.40000152587890625</AltitudeMeters>
            <DistanceMeters>8784.8256511947</DistanceMeters>
          </Trackpoint>
          <Trackpoint>
            <Time>2021-10-09T07:07:35.000Z</Time>
            <Position>
              <LatitudeDegrees>39.47280901484191417694091796875</LatitudeDegrees>
              <LongitudeDegrees>-0.5243066512048244476318359375</LongitudeDegrees>
            </Position>
            <AltitudeMeters>90.40000152587890625</AltitudeMeters>
            <DistanceMeters>8790.4209416278</DistanceMeters>
          </Trackpoint>
          <Trackpoint>
            <Time>2021-10-09T07:07:36.000Z</Time>
            <Position>
              <LatitudeDegrees>39.472806416451930999755859375</LatitudeDegrees>
              <LongitudeDegrees>-0.52438803948462009429931640625</LongitudeDegrees>
            </Position>
            <AltitudeMeters>90.59999847412109375</AltitudeMeters>
            <DistanceMeters>8797.4194510857</DistanceMeters>
          </Trackpoint>
          <Trackpoint>
            <Time>2021-10-09T07:07:37.000Z</Time>
            <Position>
              <LatitudeDegrees>39.47280339896678924560546875</LatitudeDegrees>
              <LongitudeDegrees>-0.5244850181043148040771484375</LongitudeDegrees>
            </Position>
            <AltitudeMeters>90.59999847412109375</AltitudeMeters>
            <DistanceMeters>8805.7580114302</DistanceMeters>
          </Trackpoint>
          <Trackpoint>
            <Time>2021-10-09T07:07:38.000Z</Time>
            <Position>
              <LatitudeDegrees>39.472798369824886322021484375</LatitudeDegrees>
              <LongitudeDegrees>-0.5245661549270153045654296875</LongitudeDegrees>
            </Position>
            <AltitudeMeters>90.59999847412109375</AltitudeMeters>
            <DistanceMeters>8812.7513578409</DistanceMeters>
          </Trackpoint>
          <Trackpoint>
            <Time>2021-10-09T07:07:39.000Z</Time>
            <Position>
              <LatitudeDegrees>39.4727945141494274139404296875</LatitudeDegrees>
              <LongitudeDegrees>-0.52463161759078502655029296875</LongitudeDegrees>
            </Position>
            <AltitudeMeters>90.59999847412109375</AltitudeMeters>
            <DistanceMeters>8818.3916556444</DistanceMeters>
          </Trackpoint>
          <Trackpoint>
            <Time>2021-10-09T07:07:40.000Z</Time>
            <Position>
              <LatitudeDegrees>39.472786299884319305419921875</LatitudeDegrees>
              <LongitudeDegrees>-0.52471426315605640411376953125</LongitudeDegrees>
            </Position>
            <AltitudeMeters>90.59999847412109375</AltitudeMeters>
            <DistanceMeters>8825.5508954012</DistanceMeters>
          </Trackpoint>
          <Trackpoint>
            <Time>2021-10-09T07:07:41.000Z</Time>
            <Position>
              <LatitudeDegrees>39.47277314029633998870849609375</LatitudeDegrees>
              <LongitudeDegrees>-0.52481107413768768310546875</LongitudeDegrees>
            </Position>
            <AltitudeMeters>90.59999847412109375</AltitudeMeters>
            <DistanceMeters>8833.9970545228</DistanceMeters>
          </Trackpoint>
          <Trackpoint>
            <Time>2021-10-09T07:07:42.000Z</Time>
            <Position>
              <LatitudeDegrees>39.47276241146028041839599609375</LatitudeDegrees>
              <LongitudeDegrees>-0.52487410604953765869140625</LongitudeDegrees>
            </Position>
            <AltitudeMeters>90.59999847412109375</AltitudeMeters>
            <DistanceMeters>8839.542089265</DistanceMeters>
          </Trackpoint>
          <Trackpoint>
            <Time>2021-10-09T07:07:43.000Z</Time>
            <Position>
              <LatitudeDegrees>39.47274480946362018585205078125</LatitudeDegrees>
              <LongitudeDegrees>-0.52496974356472492218017578125</LongitudeDegrees>
            </Position>
            <AltitudeMeters>90.59999847412109375</AltitudeMeters>
            <DistanceMeters>8847.989317453</DistanceMeters>
          </Trackpoint>
          <Trackpoint>
            <Time>2021-10-09T07:07:44.000Z</Time>
            <Position>
              <LatitudeDegrees>39.47273139841854572296142578125</LatitudeDegrees>
              <LongitudeDegrees>-0.5250325240194797515869140625</LongitudeDegrees>
            </Position>
            <AltitudeMeters>90.59999847412109375</AltitudeMeters>
            <DistanceMeters>8853.5862215244</DistanceMeters>
          </Trackpoint>
          <Trackpoint>
            <Time>2021-10-09T07:07:45.000Z</Time>
            <Position>
              <LatitudeDegrees>39.47271329350769519805908203125</LatitudeDegrees>
              <LongitudeDegrees>-0.5251109786331653594970703125</LongitudeDegrees>
            </Position>
            <AltitudeMeters>90.8000030517578125</AltitudeMeters>
            <DistanceMeters>8860.6214080172</DistanceMeters>
          </Trackpoint>
          <Trackpoint>
            <Time>2021-10-09T07:07:46.000Z</Time>
            <Position>
              <LatitudeDegrees>39.47268940508365631103515625</LatitudeDegrees>
              <LongitudeDegrees>-0.52520326338708400726318359375</LongitudeDegrees>
            </Position>
            <AltitudeMeters>90.8000030517578125</AltitudeMeters>
            <DistanceMeters>8868.9837588818</DistanceMeters>
          </Trackpoint>
          <Trackpoint>
            <Time>2021-10-09T07:07:47.000Z</Time>
            <Position>
              <LatitudeDegrees>39.47267037816345691680908203125</LatitudeDegrees>
              <LongitudeDegrees>-0.5252631939947605133056640625</LongitudeDegrees>
            </Position>
            <AltitudeMeters>90.8000030517578125</AltitudeMeters>
            <DistanceMeters>8874.5515459136</DistanceMeters>
          </Trackpoint>
          <Trackpoint>
            <Time>2021-10-09T07:07:48.000Z</Time>
            <Position>
              <LatitudeDegrees>39.47264456190168857574462890625</LatitudeDegrees>
              <LongitudeDegrees>-0.52533737383782863616943359375</LongitudeDegrees>
            </Position>
            <AltitudeMeters>90.8000030517578125</AltitudeMeters>
            <DistanceMeters>8881.5423093708</DistanceMeters>
          </Trackpoint>
          <Trackpoint>
            <Time>2021-10-09T07:07:49.000Z</Time>
            <Position>
              <LatitudeDegrees>39.47261723689734935760498046875</LatitudeDegrees>
              <LongitudeDegrees>-0.52540979348123073577880859375</LongitudeDegrees>
            </Position>
            <AltitudeMeters>90.8000030517578125</AltitudeMeters>
            <DistanceMeters>8888.4681859269</DistanceMeters>
          </Trackpoint>
          <Trackpoint>
            <Time>2021-10-09T07:07:50.000Z</Time>
            <Position>
              <LatitudeDegrees>39.4725839607417583465576171875</LatitudeDegrees>
              <LongitudeDegrees>-0.52547986619174480438232421875</LongitudeDegrees>
            </Position>
            <AltitudeMeters>90.8000030517578125</AltitudeMeters>
            <DistanceMeters>8895.5366661713</DistanceMeters>
          </Trackpoint>
          <Trackpoint>
            <Time>2021-10-09T07:07:51.000Z</Time>
            <Position>
              <LatitudeDegrees>39.47254716418683528900146484375</LatitudeDegrees>
              <LongitudeDegrees>-0.52554910071194171905517578125</LongitudeDegrees>
            </Position>
            <AltitudeMeters>91</AltitudeMeters>
            <DistanceMeters>8902.7586964634</DistanceMeters>
          </Trackpoint>
          <Trackpoint>
            <Time>2021-10-09T07:07:52.000Z</Time>
            <Position>
              <LatitudeDegrees>39.47250274010002613067626953125</LatitudeDegrees>
              <LongitudeDegrees>-0.5256323330104351043701171875</LongitudeDegrees>
            </Position>
            <AltitudeMeters>91.1999969482421875</AltitudeMeters>
            <DistanceMeters>8911.4535110093</DistanceMeters>
          </Trackpoint>
          <Trackpoint>
            <Time>2021-10-09T07:07:53.000Z</Time>
            <Position>
              <LatitudeDegrees>39.472471140325069427490234375</LatitudeDegrees>
              <LongitudeDegrees>-0.52568740211427211761474609375</LongitudeDegrees>
            </Position>
            <AltitudeMeters>91.1999969482421875</AltitudeMeters>
            <DistanceMeters>8917.3482318811</DistanceMeters>
          </Trackpoint>
          <Trackpoint>
            <Time>2021-10-09T07:07:54.000Z</Time>
            <Position>
              <LatitudeDegrees>39.472433589398860931396484375</LatitudeDegrees>
              <LongitudeDegrees>-0.52575579844415187835693359375</LongitudeDegrees>
            </Position>
            <AltitudeMeters>91.1999969482421875</AltitudeMeters>
            <DistanceMeters>8924.5590002288</DistanceMeters>
          </Trackpoint>
          <Trackpoint>
            <Time>2021-10-09T07:07:55.000Z</Time>
            <Position>
              <LatitudeDegrees>39.4723869860172271728515625</LatitudeDegrees>
              <LongitudeDegrees>-0.5258376896381378173828125</LongitudeDegrees>
            </Position>
            <AltitudeMeters>91.40000152587890625</AltitudeMeters>
            <DistanceMeters>8933.299908465</DistanceMeters>
          </Trackpoint>
          <Trackpoint>
            <Time>2021-10-09T07:07:56.000Z</Time>
            <Position>
              <LatitudeDegrees>39.47235370986163616180419921875</LatitudeDegrees>
              <LongitudeDegrees>-0.52589007653295993804931640625</LongitudeDegrees>
            </Position>
            <AltitudeMeters>91.40000152587890625</AltitudeMeters>
            <DistanceMeters>8939.1283857603</DistanceMeters>
          </Trackpoint>
          <Trackpoint>
            <Time>2021-10-09T07:07:57.000Z</Time>
            <Position>
              <LatitudeDegrees>39.47231448255479335784912109375</LatitudeDegrees>
              <LongitudeDegrees>-0.52595729939639568328857421875</LongitudeDegrees>
            </Position>
            <AltitudeMeters>91.40000152587890625</AltitudeMeters>
            <DistanceMeters>8946.3691470347</DistanceMeters>
          </Trackpoint>
          <Trackpoint>
            <Time>2021-10-09T07:07:58.000Z</Time>
            <Position>
              <LatitudeDegrees>39.472279362380504608154296875</LatitudeDegrees>
              <LongitudeDegrees>-0.52602753974497318267822265625</LongitudeDegrees>
            </Position>
            <AltitudeMeters>91.40000152587890625</AltitudeMeters>
            <DistanceMeters>8953.5598505969</DistanceMeters>
          </Trackpoint>
          <Trackpoint>
            <Time>2021-10-09T07:07:59.000Z</Time>
            <Position>
              <LatitudeDegrees>39.47223879396915435791015625</LatitudeDegrees>
              <LongitudeDegrees>-0.526110269129276275634765625</LongitudeDegrees>
            </Position>
            <AltitudeMeters>91.40000152587890625</AltitudeMeters>
            <DistanceMeters>8961.980311406</DistanceMeters>
          </Trackpoint>
          <Trackpoint>
            <Time>2021-10-09T07:08:00.000Z</Time>
            <Position>
              <LatitudeDegrees>39.47221306152641773223876953125</LatitudeDegrees>
              <LongitudeDegrees>-0.5261637456715106964111328125</LongitudeDegrees>
            </Position>
            <AltitudeMeters>91.40000152587890625</AltitudeMeters>
            <DistanceMeters>8967.3943328445</DistanceMeters>
          </Trackpoint>
          <Trackpoint>
            <Time>2021-10-09T07:08:01.000Z</Time>
            <Position>
              <LatitudeDegrees>39.47217584587633609771728515625</LatitudeDegrees>
              <LongitudeDegrees>-0.52624379284679889678955078125</LongitudeDegrees>
            </Position>
            <AltitudeMeters>91.40000152587890625</AltitudeMeters>
            <DistanceMeters>8975.4228249605</DistanceMeters>
          </Trackpoint>
          <Trackpoint>
            <Time>2021-10-09T07:08:02.000Z</Time>
            <Position>
              <LatitudeDegrees>39.472151286900043487548828125</LatitudeDegrees>
              <LongitudeDegrees>-0.52629810757935047149658203125</LongitudeDegrees>
            </Position>
            <AltitudeMeters>91.40000152587890625</AltitudeMeters>
            <DistanceMeters>8980.831005579</DistanceMeters>
          </Trackpoint>
          <Trackpoint>
            <Time>2021-10-09T07:08:03.000Z</Time>
            <Position>
              <LatitudeDegrees>39.47212538681924343109130859375</LatitudeDegrees>
              <LongitudeDegrees>-0.5263674259185791015625</LongitudeDegrees>
            </Position>
            <AltitudeMeters>91.40000152587890625</AltitudeMeters>
            <DistanceMeters>8987.448168164</DistanceMeters>
          </Trackpoint>
          <Trackpoint>
            <Time>2021-10-09T07:08:04.000Z</Time>
            <Position>
              <LatitudeDegrees>39.4721066951751708984375</LatitudeDegrees>
              <LongitudeDegrees>-0.5264594592154026031494140625</LongitudeDegrees>
            </Position>
            <AltitudeMeters>91.40000152587890625</AltitudeMeters>
            <DistanceMeters>8995.6248842525</DistanceMeters>
          </Trackpoint>
          <Trackpoint>
            <Time>2021-10-09T07:08:05.000Z</Time>
            <Position>
              <LatitudeDegrees>39.47210778482258319854736328125</LatitudeDegrees>
              <LongitudeDegrees>-0.526538752019405364990234375</LongitudeDegrees>
            </Position>
            <AltitudeMeters>91.40000152587890625</AltitudeMeters>
            <DistanceMeters>9002.437709872</DistanceMeters>
          </Trackpoint>
          <Trackpoint>
            <Time>2021-10-09T07:08:06.000Z</Time>
            <Position>
              <LatitudeDegrees>39.472117088735103607177734375</LatitudeDegrees>
              <LongitudeDegrees>-0.52659935317933559417724609375</LongitudeDegrees>
            </Position>
            <AltitudeMeters>91.40000152587890625</AltitudeMeters>
            <DistanceMeters>9007.7464638295</DistanceMeters>
          </Trackpoint>
          <Trackpoint>
            <Time>2021-10-09T07:08:07.000Z</Time>
            <Position>
              <LatitudeDegrees>39.4721390493214130401611328125</LatitudeDegrees>
              <LongitudeDegrees>-0.526673533022403717041015625</LongitudeDegrees>
            </Position>
            <AltitudeMeters>91.40000152587890625</AltitudeMeters>
            <DistanceMeters>9014.5725311051</DistanceMeters>
          </Trackpoint>
          <Trackpoint>
            <Time>2021-10-09T07:08:08.000Z</Time>
            <Position>
              <LatitudeDegrees>39.4721678830683231353759765625</LatitudeDegrees>
              <LongitudeDegrees>-0.52674452774226665496826171875</LongitudeDegrees>
            </Position>
            <AltitudeMeters>91.40000152587890625</AltitudeMeters>
            <DistanceMeters>9021.4657351677</DistanceMeters>
          </Trackpoint>
          <Trackpoint>
            <Time>2021-10-09T07:08:09.000Z</Time>
            <Position>
              <LatitudeDegrees>39.472196884453296661376953125</LatitudeDegrees>
              <LongitudeDegrees>-0.52681828849017620086669921875</LongitudeDegrees>
            </Position>
            <AltitudeMeters>91.40000152587890625</AltitudeMeters>
            <DistanceMeters>9028.5781530575</DistanceMeters>
          </Trackpoint>
          <Trackpoint>
            <Time>2021-10-09T07:08:10.000Z</Time>
            <Position>
              <LatitudeDegrees>39.47222395800054073333740234375</LatitudeDegrees>
              <LongitudeDegrees>-0.52689305506646633148193359375</LongitudeDegrees>
            </Position>
            <AltitudeMeters>91.40000152587890625</AltitudeMeters>
            <DistanceMeters>9035.6740466764</DistanceMeters>
          </Trackpoint>
          <Trackpoint>
            <Time>2021-10-09T07:08:11.000Z</Time>
            <Position>
              <LatitudeDegrees>39.4722446613013744354248046875</LatitudeDegrees>
              <LongitudeDegrees>-0.526988022029399871826171875</LongitudeDegrees>
            </Position>
            <AltitudeMeters>91.40000152587890625</AltitudeMeters>
            <DistanceMeters>9044.1522191501</DistanceMeters>
          </Trackpoint>
          <Trackpoint>
            <Time>2021-10-09T07:08:12.000Z</Time>
            <Position>
              <LatitudeDegrees>39.47224776260554790496826171875</LatitudeDegrees>
              <LongitudeDegrees>-0.52705516107380390167236328125</LongitudeDegrees>
            </Position>
            <AltitudeMeters>91.59999847412109375</AltitudeMeters>
            <DistanceMeters>9049.9309060849</DistanceMeters>
          </Trackpoint>
          <Trackpoint>
            <Time>2021-10-09T07:08:13.000Z</Time>
            <Position>
              <LatitudeDegrees>39.47223938070237636566162109375</LatitudeDegrees>
              <LongitudeDegrees>-0.52715624682605266571044921875</LongitudeDegrees>
            </Position>
            <AltitudeMeters>91.59999847412109375</AltitudeMeters>
            <DistanceMeters>9058.6661305211</DistanceMeters>
          </Trackpoint>
          <Trackpoint>
            <Time>2021-10-09T07:08:14.000Z</Time>
            <Position>
              <LatitudeDegrees>39.4722188450396060943603515625</LatitudeDegrees>
              <LongitudeDegrees>-0.527235455811023712158203125</LongitudeDegrees>
            </Position>
            <AltitudeMeters>91.59999847412109375</AltitudeMeters>
            <DistanceMeters>9065.8455229983</DistanceMeters>
          </Trackpoint>
          <Trackpoint>
            <Time>2021-10-09T07:08:15.000Z</Time>
            <Position>
              <LatitudeDegrees>39.472194872796535491943359375</LatitudeDegrees>
              <LongitudeDegrees>-0.52729505114257335662841796875</LongitudeDegrees>
            </Position>
            <AltitudeMeters>91.8000030517578125</AltitudeMeters>
            <DistanceMeters>9071.6195200741</DistanceMeters>
          </Trackpoint>
          <Trackpoint>
            <Time>2021-10-09T07:08:16.000Z</Time>
            <Position>
              <LatitudeDegrees>39.47215790860354900360107421875</LatitudeDegrees>
              <LongitudeDegrees>-0.52736227400600910186767578125</LongitudeDegrees>
            </Position>
            <AltitudeMeters>91.8000030517578125</AltitudeMeters>
            <DistanceMeters>9078.7103215549</DistanceMeters>
          </Trackpoint>
          <Trackpoint>
            <Time>2021-10-09T07:08:17.000Z</Time>
            <Position>
              <LatitudeDegrees>39.47211566381156444549560546875</LatitudeDegrees>
              <LongitudeDegrees>-0.52741927094757556915283203125</LongitudeDegrees>
            </Position>
            <AltitudeMeters>91.8000030517578125</AltitudeMeters>
            <DistanceMeters>9085.4992471083</DistanceMeters>
          </Trackpoint>
          <Trackpoint>
            <Time>2021-10-09T07:08:18.000Z</Time>
            <Position>
              <LatitudeDegrees>39.4720676355063915252685546875</LatitudeDegrees>
              <LongitudeDegrees>-0.52747341804206371307373046875</LongitudeDegrees>
            </Position>
            <AltitudeMeters>92</AltitudeMeters>
            <DistanceMeters>9092.5855899666</DistanceMeters>
          </Trackpoint>
          <Trackpoint>
            <Time>2021-10-09T07:08:19.000Z</Time>
            <Position>
              <LatitudeDegrees>39.472012817859649658203125</LatitudeDegrees>
              <LongitudeDegrees>-0.52754583768546581268310546875</LongitudeDegrees>
            </Position>
            <AltitudeMeters>92</AltitudeMeters>
            <DistanceMeters>9101.3001147898</DistanceMeters>
          </Trackpoint>
          <Trackpoint>
            <Time>2021-10-09T07:08:20.000Z</Time>
            <Position>
              <LatitudeDegrees>39.471975602209568023681640625</LatitudeDegrees>
              <LongitudeDegrees>-0.52761725150048732757568359375</LongitudeDegrees>
            </Position>
            <AltitudeMeters>92</AltitudeMeters>
            <DistanceMeters>9108.7030556877</DistanceMeters>
          </Trackpoint>
          <Trackpoint>
            <Time>2021-10-09T07:08:21.000Z</Time>
            <Position>
              <LatitudeDegrees>39.4719553180038928985595703125</LatitudeDegrees>
              <LongitudeDegrees>-0.5276781879365444183349609375</LongitudeDegrees>
            </Position>
            <AltitudeMeters>92</AltitudeMeters>
            <DistanceMeters>9114.4046585499</DistanceMeters>
          </Trackpoint>
          <Trackpoint>
            <Time>2021-10-09T07:08:22.000Z</Time>
            <Position>
              <LatitudeDegrees>39.47193779982626438140869140625</LatitudeDegrees>
              <LongitudeDegrees>-0.52775924094021320343017578125</LongitudeDegrees>
            </Position>
            <AltitudeMeters>92</AltitudeMeters>
            <DistanceMeters>9121.6366847365</DistanceMeters>
          </Trackpoint>
          <Trackpoint>
            <Time>2021-10-09T07:08:23.000Z</Time>
            <Position>
              <LatitudeDegrees>39.471926987171173095703125</LatitudeDegrees>
              <LongitudeDegrees>-0.527858398854732513427734375</LongitudeDegrees>
            </Position>
            <AltitudeMeters>92</AltitudeMeters>
            <DistanceMeters>9130.2411949935</DistanceMeters>
          </Trackpoint>
          <Trackpoint>
            <Time>2021-10-09T07:08:24.000Z</Time>
            <Position>
              <LatitudeDegrees>39.4719248078763484954833984375</LatitudeDegrees>
              <LongitudeDegrees>-0.527926124632358551025390625</LongitudeDegrees>
            </Position>
            <AltitudeMeters>92</AltitudeMeters>
            <DistanceMeters>9136.0650225256</DistanceMeters>
          </Trackpoint>
          <Trackpoint>
            <Time>2021-10-09T07:08:25.000Z</Time>
            <Position>
              <LatitudeDegrees>39.4719256460666656494140625</LatitudeDegrees>
              <LongitudeDegrees>-0.528009943664073944091796875</LongitudeDegrees>
            </Position>
            <AltitudeMeters>92</AltitudeMeters>
            <DistanceMeters>9143.267019408</DistanceMeters>
          </Trackpoint>
          <Trackpoint>
            <Time>2021-10-09T07:08:26.000Z</Time>
            <Position>
              <LatitudeDegrees>39.4719295017421245574951171875</LatitudeDegrees>
              <LongitudeDegrees>-0.528093762695789337158203125</LongitudeDegrees>
            </Position>
            <AltitudeMeters>92</AltitudeMeters>
            <DistanceMeters>9150.4802919296</DistanceMeters>
          </Trackpoint>
          <Trackpoint>
            <Time>2021-10-09T07:08:27.000Z</Time>
            <Position>
              <LatitudeDegrees>39.47193478234112262725830078125</LatitudeDegrees>
              <LongitudeDegrees>-0.52817900665104389190673828125</LongitudeDegrees>
            </Position>
            <AltitudeMeters>92.1999969482421875</AltitudeMeters>
            <DistanceMeters>9157.827522495</DistanceMeters>
          </Trackpoint>
          <Trackpoint>
            <Time>2021-10-09T07:08:28.000Z</Time>
            <Position>
              <LatitudeDegrees>39.47194282896816730499267578125</LatitudeDegrees>
              <LongitudeDegrees>-0.528283528983592987060546875</LongitudeDegrees>
            </Position>
            <AltitudeMeters>92.1999969482421875</AltitudeMeters>
            <DistanceMeters>9166.8525593107</DistanceMeters>
          </Trackpoint>
          <Trackpoint>
            <Time>2021-10-09T07:08:29.000Z</Time>
            <Position>
              <LatitudeDegrees>39.47195121087133884429931640625</LatitudeDegrees>
              <LongitudeDegrees>-0.5283723771572113037109375</LongitudeDegrees>
            </Position>
            <AltitudeMeters>92.1999969482421875</AltitudeMeters>
            <DistanceMeters>9174.5432680367</DistanceMeters>
          </Trackpoint>
          <Trackpoint>
            <Time>2021-10-09T07:08:30.000Z</Time>
            <Position>
              <LatitudeDegrees>39.471958838403224945068359375</LatitudeDegrees>
              <LongitudeDegrees>-0.52844278514385223388671875</LongitudeDegrees>
            </Position>
            <AltitudeMeters>92.1999969482421875</AltitudeMeters>
            <DistanceMeters>9180.6523846621</DistanceMeters>
          </Trackpoint>
          <Trackpoint>
            <Time>2021-10-09T07:08:31.000Z</Time>
            <Position>
              <LatitudeDegrees>39.4719712436199188232421875</LatitudeDegrees>
              <LongitudeDegrees>-0.52853356115520000457763671875</LongitudeDegrees>
            </Position>
            <AltitudeMeters>92.1999969482421875</AltitudeMeters>
            <DistanceMeters>9188.5727344685</DistanceMeters>
          </Trackpoint>
          <Trackpoint>
            <Time>2021-10-09T07:08:32.000Z</Time>
            <Position>
              <LatitudeDegrees>39.47198926471173763275146484375</LatitudeDegrees>
              <LongitudeDegrees>-0.528623498976230621337890625</LongitudeDegrees>
            </Position>
            <AltitudeMeters>92.1999969482421875</AltitudeMeters>
            <DistanceMeters>9196.5561096659</DistanceMeters>
          </Trackpoint>
          <Trackpoint>
            <Time>2021-10-09T07:08:33.000Z</Time>
            <Position>
              <LatitudeDegrees>39.472013823688030242919921875</LatitudeDegrees>
              <LongitudeDegrees>-0.52873070351779460906982421875</LongitudeDegrees>
            </Position>
            <AltitudeMeters>92.1999969482421875</AltitudeMeters>
            <DistanceMeters>9206.163681753</DistanceMeters>
          </Trackpoint>
          <Trackpoint>
            <Time>2021-10-09T07:08:34.000Z</Time>
            <Position>
              <LatitudeDegrees>39.47203251533210277557373046875</LatitudeDegrees>
              <LongitudeDegrees>-0.5288013629615306854248046875</LongitudeDegrees>
            </Position>
            <AltitudeMeters>92.1999969482421875</AltitudeMeters>
            <DistanceMeters>9212.5806240611</DistanceMeters>
          </Trackpoint>
          <Trackpoint>
            <Time>2021-10-09T07:08:35.000Z</Time>
            <Position>
              <LatitudeDegrees>39.47205933742225170135498046875</LatitudeDegrees>
              <LongitudeDegrees>-0.5288878642022609710693359375</LongitudeDegrees>
            </Position>
            <AltitudeMeters>92</AltitudeMeters>
            <DistanceMeters>9220.58997254</DistanceMeters>
          </Trackpoint>
          <Trackpoint>
            <Time>2021-10-09T07:08:36.000Z</Time>
            <Position>
              <LatitudeDegrees>39.47209135629236698150634765625</LatitudeDegrees>
              <LongitudeDegrees>-0.52897159941494464874267578125</LongitudeDegrees>
            </Position>
            <AltitudeMeters>92</AltitudeMeters>
            <DistanceMeters>9228.6184646561</DistanceMeters>
          </Trackpoint>
          <Trackpoint>
            <Time>2021-10-09T07:08:37.000Z</Time>
            <Position>
              <LatitudeDegrees>39.47213728912174701690673828125</LatitudeDegrees>
              <LongitudeDegrees>-0.52906715311110019683837890625</LongitudeDegrees>
            </Position>
            <AltitudeMeters>92</AltitudeMeters>
            <DistanceMeters>9238.2892713303</DistanceMeters>
          </Trackpoint>
          <Trackpoint>
            <Time>2021-10-09T07:08:38.000Z</Time>
            <Position>
              <LatitudeDegrees>39.4721799530088901519775390625</LatitudeDegrees>
              <LongitudeDegrees>-0.52913957275450229644775390625</LongitudeDegrees>
            </Position>
            <AltitudeMeters>91.8000030517578125</AltitudeMeters>
            <DistanceMeters>9246.1161505676</DistanceMeters>
          </Trackpoint>
          <Trackpoint>
            <Time>2021-10-09T07:08:39.000Z</Time>
            <Position>
              <LatitudeDegrees>39.4722158275544643402099609375</LatitudeDegrees>
              <LongitudeDegrees>-0.529196150600910186767578125</LongitudeDegrees>
            </Position>
            <AltitudeMeters>91.8000030517578125</AltitudeMeters>
            <DistanceMeters>9252.4073209717</DistanceMeters>
          </Trackpoint>
          <Trackpoint>
            <Time>2021-10-09T07:08:40.000Z</Time>
            <Position>
              <LatitudeDegrees>39.47226419113576412200927734375</LatitudeDegrees>
              <LongitudeDegrees>-0.5292901955544948577880859375</LongitudeDegrees>
            </Position>
            <AltitudeMeters>91.8000030517578125</AltitudeMeters>
            <DistanceMeters>9262.1163357518</DistanceMeters>
          </Trackpoint>
          <Trackpoint>
            <Time>2021-10-09T07:08:41.000Z</Time>
            <Position>
              <LatitudeDegrees>39.47230056859552860260009765625</LatitudeDegrees>
              <LongitudeDegrees>-0.52937208674848079681396484375</LongitudeDegrees>
            </Position>
            <AltitudeMeters>91.8000030517578125</AltitudeMeters>
            <DistanceMeters>9270.2337533098</DistanceMeters>
          </Trackpoint>
          <Trackpoint>
            <Time>2021-10-09T07:08:42.000Z</Time>
            <Position>
              <LatitudeDegrees>39.47234247811138629913330078125</LatitudeDegrees>
              <LongitudeDegrees>-0.52939924411475658416748046875</LongitudeDegrees>
            </Position>
            <AltitudeMeters>91.59999847412109375</AltitudeMeters>
            <DistanceMeters>9275.4489800785</DistanceMeters>
          </Trackpoint>
          <Trackpoint>
            <Time>2021-10-09T07:08:43.000Z</Time>
            <Position>
              <LatitudeDegrees>39.47240601293742656707763671875</LatitudeDegrees>
              <LongitudeDegrees>-0.52943252027034759521484375</LongitudeDegrees>
            </Position>
            <AltitudeMeters>91.59999847412109375</AltitudeMeters>
            <DistanceMeters>9283.0766129045</DistanceMeters>
          </Trackpoint>
          <Trackpoint>
            <Time>2021-10-09T07:08:44.000Z</Time>
            <Position>
              <LatitudeDegrees>39.472489915788173675537109375</LatitudeDegrees>
              <LongitudeDegrees>-0.52944936789572238922119140625</LongitudeDegrees>
            </Position>
            <AltitudeMeters>91.59999847412109375</AltitudeMeters>
            <DistanceMeters>9292.5268751247</DistanceMeters>
          </Trackpoint>
          <Trackpoint>
            <Time>2021-10-09T07:08:45.000Z</Time>
            <Position>
              <LatitudeDegrees>39.47257339954376220703125</LatitudeDegrees>
              <LongitudeDegrees>-0.5294454284012317657470703125</LongitudeDegrees>
            </Position>
            <AltitudeMeters>91.59999847412109375</AltitudeMeters>
            <DistanceMeters>9301.825422428</DistanceMeters>
          </Trackpoint>
          <Trackpoint>
            <Time>2021-10-09T07:08:46.000Z</Time>
            <Position>
              <LatitudeDegrees>39.47265319526195526123046875</LatitudeDegrees>
              <LongitudeDegrees>-0.529425144195556640625</LongitudeDegrees>
            </Position>
            <AltitudeMeters>91.59999847412109375</AltitudeMeters>
            <DistanceMeters>9310.8759375196</DistanceMeters>
          </Trackpoint>
          <Trackpoint>
            <Time>2021-10-09T07:08:47.000Z</Time>
            <Position>
              <LatitudeDegrees>39.47273240424692630767822265625</LatitudeDegrees>
              <LongitudeDegrees>-0.5293894372880458831787109375</LongitudeDegrees>
            </Position>
            <AltitudeMeters>91.59999847412109375</AltitudeMeters>
            <DistanceMeters>9320.2103473889</DistanceMeters>
          </Trackpoint>
          <Trackpoint>
            <Time>2021-10-09T07:08:48.000Z</Time>
            <Position>
              <LatitudeDegrees>39.4728092662990093231201171875</LatitudeDegrees>
              <LongitudeDegrees>-0.52934727631509304046630859375</LongitudeDegrees>
            </Position>
            <AltitudeMeters>91.59999847412109375</AltitudeMeters>
            <DistanceMeters>9329.4996643981</DistanceMeters>
          </Trackpoint>
          <Trackpoint>
            <Time>2021-10-09T07:08:49.000Z</Time>
            <Position>
              <LatitudeDegrees>39.47287489660084247589111328125</LatitudeDegrees>
              <LongitudeDegrees>-0.52930017001926898956298828125</LongitudeDegrees>
            </Position>
            <AltitudeMeters>91.59999847412109375</AltitudeMeters>
            <DistanceMeters>9337.8506691506</DistanceMeters>
          </Trackpoint>
          <Trackpoint>
            <Time>2021-10-09T07:08:50.000Z</Time>
            <Position>
              <LatitudeDegrees>39.4729380123317241668701171875</LatitudeDegrees>
              <LongitudeDegrees>-0.52924887277185916900634765625</LongitudeDegrees>
            </Position>
            <AltitudeMeters>91.59999847412109375</AltitudeMeters>
            <DistanceMeters>9346.1436217127</DistanceMeters>
          </Trackpoint>
          <Trackpoint>
            <Time>2021-10-09T07:08:51.000Z</Time>
            <Position>
              <LatitudeDegrees>39.472996182739734649658203125</LatitudeDegrees>
              <LongitudeDegrees>-0.5291929654777050018310546875</LongitudeDegrees>
            </Position>
            <AltitudeMeters>91.59999847412109375</AltitudeMeters>
            <DistanceMeters>9354.2057858294</DistanceMeters>
          </Trackpoint>
          <Trackpoint>
            <Time>2021-10-09T07:08:52.000Z</Time>
            <Position>
              <LatitudeDegrees>39.473051838576793670654296875</LatitudeDegrees>
              <LongitudeDegrees>-0.52913705818355083465576171875</LongitudeDegrees>
            </Position>
            <AltitudeMeters>91.59999847412109375</AltitudeMeters>
            <DistanceMeters>9362.0441938389</DistanceMeters>
          </Trackpoint>
          <Trackpoint>
            <Time>2021-10-09T07:08:53.000Z</Time>
            <Position>
              <LatitudeDegrees>39.4731053151190280914306640625</LatitudeDegrees>
              <LongitudeDegrees>-0.5290776304900646209716796875</LongitudeDegrees>
            </Position>
            <AltitudeMeters>92</AltitudeMeters>
            <DistanceMeters>9369.8860571751</DistanceMeters>
          </Trackpoint>
          <Trackpoint>
            <Time>2021-10-09T07:08:54.000Z</Time>
            <Position>
              <LatitudeDegrees>39.473170526325702667236328125</LatitudeDegrees>
              <LongitudeDegrees>-0.52900529466569423675537109375</LongitudeDegrees>
            </Position>
            <AltitudeMeters>92</AltitudeMeters>
            <DistanceMeters>9379.4408503622</DistanceMeters>
          </Trackpoint>
          <Trackpoint>
            <Time>2021-10-09T07:08:55.000Z</Time>
            <Position>
              <LatitudeDegrees>39.473213441669940948486328125</LatitudeDegrees>
              <LongitudeDegrees>-0.52895600907504558563232421875</LongitudeDegrees>
            </Position>
            <AltitudeMeters>92.1999969482421875</AltitudeMeters>
            <DistanceMeters>9385.8239299415</DistanceMeters>
          </Trackpoint>
          <Trackpoint>
            <Time>2021-10-09T07:08:56.000Z</Time>
            <Position>
              <LatitudeDegrees>39.47328158654272556304931640625</LatitudeDegrees>
              <LongitudeDegrees>-0.528879649937152862548828125</LongitudeDegrees>
            </Position>
            <AltitudeMeters>92.1999969482421875</AltitudeMeters>
            <DistanceMeters>9395.8518375637</DistanceMeters>
          </Trackpoint>
          <Trackpoint>
            <Time>2021-10-09T07:08:57.000Z</Time>
            <Position>
              <LatitudeDegrees>39.47332735173404216766357421875</LatitudeDegrees>
              <LongitudeDegrees>-0.5288256704807281494140625</LongitudeDegrees>
            </Position>
            <AltitudeMeters>92.1999969482421875</AltitudeMeters>
            <DistanceMeters>9402.7411105144</DistanceMeters>
          </Trackpoint>
          <Trackpoint>
            <Time>2021-10-09T07:08:58.000Z</Time>
            <Position>
              <LatitudeDegrees>39.47337965480983257293701171875</LatitudeDegrees>
              <LongitudeDegrees>-0.52875668741762638092041015625</LongitudeDegrees>
            </Position>
            <AltitudeMeters>92.40000152587890625</AltitudeMeters>
            <DistanceMeters>9411.0487500264</DistanceMeters>
          </Trackpoint>
          <Trackpoint>
            <Time>2021-10-09T07:08:59.000Z</Time>
            <Position>
              <LatitudeDegrees>39.473436065018177032470703125</LatitudeDegrees>
              <LongitudeDegrees>-0.5286702699959278106689453125</LongitudeDegrees>
            </Position>
            <AltitudeMeters>92.40000152587890625</AltitudeMeters>
            <DistanceMeters>9420.7721702255</DistanceMeters>
          </Trackpoint>
          <Trackpoint>
            <Time>2021-10-09T07:09:00.000Z</Time>
            <Position>
              <LatitudeDegrees>39.4734828360378742218017578125</LatitudeDegrees>
              <LongitudeDegrees>-0.528593324124813079833984375</LongitudeDegrees>
            </Position>
            <AltitudeMeters>92.40000152587890625</AltitudeMeters>
            <DistanceMeters>9429.1867307843</DistanceMeters>
          </Trackpoint>
          <Trackpoint>
            <Time>2021-10-09T07:09:01.000Z</Time>
            <Position>
              <LatitudeDegrees>39.4735210575163364410400390625</LatitudeDegrees>
              <LongitudeDegrees>-0.5285277776420116424560546875</LongitudeDegrees>
            </Position>
            <AltitudeMeters>92.40000152587890625</AltitudeMeters>
            <DistanceMeters>9436.2443438131</DistanceMeters>
          </Trackpoint>
          <Trackpoint>
            <Time>2021-10-09T07:09:02.000Z</Time>
            <Position>
              <LatitudeDegrees>39.47356590069830417633056640625</LatitudeDegrees>
              <LongitudeDegrees>-0.5284489877521991729736328125</LongitudeDegrees>
            </Position>
            <AltitudeMeters>92.40000152587890625</AltitudeMeters>
            <DistanceMeters>9444.6540738153</DistanceMeters>
          </Trackpoint>
          <Trackpoint>
            <Time>2021-10-09T07:09:03.000Z</Time>
            <Position>
              <LatitudeDegrees>39.4736072234809398651123046875</LatitudeDegrees>
              <LongitudeDegrees>-0.52836692892014980316162109375</LongitudeDegrees>
            </Position>
            <AltitudeMeters>92.1999969482421875</AltitudeMeters>
            <DistanceMeters>9453.0723895573</DistanceMeters>
          </Trackpoint>
          <Trackpoint>
            <Time>2021-10-09T07:09:04.000Z</Time>
            <Position>
              <LatitudeDegrees>39.47364418767392635345458984375</LatitudeDegrees>
              <LongitudeDegrees>-0.52828260697424411773681640625</LongitudeDegrees>
            </Position>
            <AltitudeMeters>92.1999969482421875</AltitudeMeters>
            <DistanceMeters>9461.4033659435</DistanceMeters>
          </Trackpoint>
          <Trackpoint>
            <Time>2021-10-09T07:09:05.000Z</Time>
            <Position>
              <LatitudeDegrees>39.473668746650218963623046875</LatitudeDegrees>
              <LongitudeDegrees>-0.52817883901298046112060546875</LongitudeDegrees>
            </Position>
            <AltitudeMeters>92.1999969482421875</AltitudeMeters>
            <DistanceMeters>9470.7285810164</DistanceMeters>
          </Trackpoint>
          <Trackpoint>
            <Time>2021-10-09T07:09:06.000Z</Time>
            <Position>
              <LatitudeDegrees>39.47366572916507720947265625</LatitudeDegrees>
              <LongitudeDegrees>-0.5281053297221660614013671875</LongitudeDegrees>
            </Position>
            <AltitudeMeters>92.1999969482421875</AltitudeMeters>
            <DistanceMeters>9477.0533923691</DistanceMeters>
          </Trackpoint>
          <Trackpoint>
            <Time>2021-10-09T07:09:07.000Z</Time>
            <Position>
              <LatitudeDegrees>39.47365391068160533905029296875</LatitudeDegrees>
              <LongitudeDegrees>-0.528010614216327667236328125</LongitudeDegrees>
            </Position>
            <AltitudeMeters>92</AltitudeMeters>
            <DistanceMeters>9485.2961040081</DistanceMeters>
          </Trackpoint>
          <Trackpoint>
            <Time>2021-10-09T07:09:08.000Z</Time>
            <Position>
              <LatitudeDegrees>39.47362407110631465911865234375</LatitudeDegrees>
              <LongitudeDegrees>-0.527901314198970794677734375</LongitudeDegrees>
            </Position>
            <AltitudeMeters>92</AltitudeMeters>
            <DistanceMeters>9495.256245564</DistanceMeters>
          </Trackpoint>
          <Trackpoint>
            <Time>2021-10-09T07:09:09.000Z</Time>
            <Position>
              <LatitudeDegrees>39.47358702309429645538330078125</LatitudeDegrees>
              <LongitudeDegrees>-0.52781808190047740936279296875</LongitudeDegrees>
            </Position>
            <AltitudeMeters>92</AltitudeMeters>
            <DistanceMeters>9503.5109991549</DistanceMeters>
          </Trackpoint>
          <Trackpoint>
            <Time>2021-10-09T07:09:10.000Z</Time>
            <Position>
              <LatitudeDegrees>39.47355768643319606781005859375</LatitudeDegrees>
              <LongitudeDegrees>-0.5277492664754390716552734375</LongitudeDegrees>
            </Position>
            <AltitudeMeters>92</AltitudeMeters>
            <DistanceMeters>9510.2652530881</DistanceMeters>
          </Trackpoint>
          <Trackpoint>
            <Time>2021-10-09T07:09:11.000Z</Time>
            <Position>
              <LatitudeDegrees>39.47352633811533451080322265625</LatitudeDegrees>
              <LongitudeDegrees>-0.52765932865440845489501953125</LongitudeDegrees>
            </Position>
            <AltitudeMeters>92</AltitudeMeters>
            <DistanceMeters>9518.7434255618</DistanceMeters>
          </Trackpoint>
          <Trackpoint>
            <Time>2021-10-09T07:09:12.000Z</Time>
            <Position>
              <LatitudeDegrees>39.4735052995383739471435546875</LatitudeDegrees>
              <LongitudeDegrees>-0.52756276912987232208251953125</LongitudeDegrees>
            </Position>
            <AltitudeMeters>92</AltitudeMeters>
            <DistanceMeters>9527.3641870789</DistanceMeters>
          </Trackpoint>
          <Trackpoint>
            <Time>2021-10-09T07:09:13.000Z</Time>
            <Position>
              <LatitudeDegrees>39.4734969176352024078369140625</LatitudeDegrees>
              <LongitudeDegrees>-0.52746109664440155029296875</LongitudeDegrees>
            </Position>
            <AltitudeMeters>92</AltitudeMeters>
            <DistanceMeters>9536.1488915867</DistanceMeters>
          </Trackpoint>
          <Trackpoint>
            <Time>2021-10-09T07:09:14.000Z</Time>
            <Position>
              <LatitudeDegrees>39.47350169532001018524169921875</LatitudeDegrees>
              <LongitudeDegrees>-0.5273586697876453399658203125</LongitudeDegrees>
            </Position>
            <AltitudeMeters>92</AltitudeMeters>
            <DistanceMeters>9544.9654043911</DistanceMeters>
          </Trackpoint>
          <Trackpoint>
            <Time>2021-10-09T07:09:15.000Z</Time>
            <Position>
              <LatitudeDegrees>39.47352516464889049530029296875</LatitudeDegrees>
              <LongitudeDegrees>-0.52724023349583148956298828125</LongitudeDegrees>
            </Position>
            <AltitudeMeters>92</AltitudeMeters>
            <DistanceMeters>9555.4709074394</DistanceMeters>
          </Trackpoint>
          <Trackpoint>
            <Time>2021-10-09T07:09:16.000Z</Time>
            <Position>
              <LatitudeDegrees>39.47355450130999088287353515625</LatitudeDegrees>
              <LongitudeDegrees>-0.527166388928890228271484375</LongitudeDegrees>
            </Position>
            <AltitudeMeters>92</AltitudeMeters>
            <DistanceMeters>9562.6074073619</DistanceMeters>
          </Trackpoint>
          <Trackpoint>
            <Time>2021-10-09T07:09:17.000Z</Time>
            <Position>
              <LatitudeDegrees>39.47361208498477935791015625</LatitudeDegrees>
              <LongitudeDegrees>-0.52706622518599033355712890625</LongitudeDegrees>
            </Position>
            <AltitudeMeters>92</AltitudeMeters>
            <DistanceMeters>9573.3374341401</DistanceMeters>
          </Trackpoint>
          <Trackpoint>
            <Time>2021-10-09T07:09:18.000Z</Time>
            <Position>
              <LatitudeDegrees>39.4736746139824390411376953125</LatitudeDegrees>
              <LongitudeDegrees>-0.52699900232255458831787109375</LongitudeDegrees>
            </Position>
            <AltitudeMeters>92</AltitudeMeters>
            <DistanceMeters>9582.3814615852</DistanceMeters>
          </Trackpoint>
          <Trackpoint>
            <Time>2021-10-09T07:09:19.000Z</Time>
            <Position>
              <LatitudeDegrees>39.4737309403717517852783203125</LatitudeDegrees>
              <LongitudeDegrees>-0.5269573442637920379638671875</LongitudeDegrees>
            </Position>
            <AltitudeMeters>92</AltitudeMeters>
            <DistanceMeters>9589.6009907413</DistanceMeters>
          </Trackpoint>
          <Trackpoint>
            <Time>2021-10-09T07:09:20.000Z</Time>
            <Position>
              <LatitudeDegrees>39.473806880414485931396484375</LatitudeDegrees>
              <LongitudeDegrees>-0.52692038007080554962158203125</LongitudeDegrees>
            </Position>
            <AltitudeMeters>92</AltitudeMeters>
            <DistanceMeters>9598.6300289035</DistanceMeters>
          </Trackpoint>
          <Trackpoint>
            <Time>2021-10-09T07:09:21.000Z</Time>
            <Position>
              <LatitudeDegrees>39.47388625703752040863037109375</LatitudeDegrees>
              <LongitudeDegrees>-0.52690193988382816314697265625</LongitudeDegrees>
            </Position>
            <AltitudeMeters>92</AltitudeMeters>
            <DistanceMeters>9607.6054014282</DistanceMeters>
          </Trackpoint>
          <Trackpoint>
            <Time>2021-10-09T07:09:22.000Z</Time>
            <Position>
              <LatitudeDegrees>39.47396571747958660125732421875</LatitudeDegrees>
              <LongitudeDegrees>-0.526902861893177032470703125</LongitudeDegrees>
            </Position>
            <AltitudeMeters>92</AltitudeMeters>
            <DistanceMeters>9616.4495250229</DistanceMeters>
          </Trackpoint>
          <Trackpoint>
            <Time>2021-10-09T07:09:23.000Z</Time>
            <Position>
              <LatitudeDegrees>39.47404316626489162445068359375</LatitudeDegrees>
              <LongitudeDegrees>-0.52691954188048839569091796875</LongitudeDegrees>
            </Position>
            <AltitudeMeters>92</AltitudeMeters>
            <DistanceMeters>9625.1878501719</DistanceMeters>
          </Trackpoint>
          <Trackpoint>
            <Time>2021-10-09T07:09:24.000Z</Time>
            <Position>
              <LatitudeDegrees>39.4741304218769073486328125</LatitudeDegrees>
              <LongitudeDegrees>-0.5269583500921726226806640625</LongitudeDegrees>
            </Position>
            <AltitudeMeters>92</AltitudeMeters>
            <DistanceMeters>9635.4560132286</DistanceMeters>
          </Trackpoint>
          <Trackpoint>
            <Time>2021-10-09T07:09:25.000Z</Time>
            <Position>
              <LatitudeDegrees>39.47418230585753917694091796875</LatitudeDegrees>
              <LongitudeDegrees>-0.52699984051287174224853515625</LongitudeDegrees>
            </Position>
            <AltitudeMeters>91.8000030517578125</AltitudeMeters>
            <DistanceMeters>9642.2422780234</DistanceMeters>
          </Trackpoint>
          <Trackpoint>
            <Time>2021-10-09T07:09:26.000Z</Time>
            <Position>
              <LatitudeDegrees>39.47424131445586681365966796875</LatitudeDegrees>
              <LongitudeDegrees>-0.5270622856914997100830078125</LongitudeDegrees>
            </Position>
            <AltitudeMeters>91.8000030517578125</AltitudeMeters>
            <DistanceMeters>9650.7225804236</DistanceMeters>
          </Trackpoint>
          <Trackpoint>
            <Time>2021-10-09T07:09:27.000Z</Time>
            <Position>
              <LatitudeDegrees>39.47429093532264232635498046875</LatitudeDegrees>
              <LongitudeDegrees>-0.52713613025844097137451171875</LongitudeDegrees>
            </Position>
            <AltitudeMeters>91.59999847412109375</AltitudeMeters>
            <DistanceMeters>9659.1344576823</DistanceMeters>
          </Trackpoint>
          <Trackpoint>
            <Time>2021-10-09T07:09:28.000Z</Time>
            <Position>
              <LatitudeDegrees>39.4743315875530242919921875</LatitudeDegrees>
              <LongitudeDegrees>-0.52722103893756866455078125</LongitudeDegrees>
            </Position>
            <AltitudeMeters>91.59999847412109375</AltitudeMeters>
            <DistanceMeters>9667.717953107</DistanceMeters>
          </Trackpoint>
          <Trackpoint>
            <Time>2021-10-09T07:09:29.000Z</Time>
            <Position>
              <LatitudeDegrees>39.47436050511896610260009765625</LatitudeDegrees>
              <LongitudeDegrees>-0.527312569320201873779296875</LongitudeDegrees>
            </Position>
            <AltitudeMeters>91.59999847412109375</AltitudeMeters>
            <DistanceMeters>9676.2147443348</DistanceMeters>
          </Trackpoint>
          <Trackpoint>
            <Time>2021-10-09T07:09:30.000Z</Time>
            <Position>
              <LatitudeDegrees>39.47437584400177001953125</LatitudeDegrees>
              <LongitudeDegrees>-0.527408123016357421875</LongitudeDegrees>
            </Position>
            <AltitudeMeters>91.59999847412109375</AltitudeMeters>
            <DistanceMeters>9684.6002798138</DistanceMeters>
          </Trackpoint>
          <Trackpoint>
            <Time>2021-10-09T07:09:31.000Z</Time>
            <Position>
              <LatitudeDegrees>39.47437676601111888885498046875</LatitudeDegrees>
              <LongitudeDegrees>-0.52750526927411556243896484375</LongitudeDegrees>
            </Position>
            <AltitudeMeters>91.40000152587890625</AltitudeMeters>
            <DistanceMeters>9692.946958181</DistanceMeters>
          </Trackpoint>
          <Trackpoint>
            <Time>2021-10-09T07:09:32.000Z</Time>
            <Position>
              <LatitudeDegrees>39.47436654008924961090087890625</LatitudeDegrees>
              <LongitudeDegrees>-0.5276010744273662567138671875</LongitudeDegrees>
            </Position>
            <AltitudeMeters>91.40000152587890625</AltitudeMeters>
            <DistanceMeters>9701.2562279738</DistanceMeters>
          </Trackpoint>
          <Trackpoint>
            <Time>2021-10-09T07:09:33.000Z</Time>
            <Position>
              <LatitudeDegrees>39.4743414781987667083740234375</LatitudeDegrees>
              <LongitudeDegrees>-0.52771163173019886016845703125</LongitudeDegrees>
            </Position>
            <AltitudeMeters>91.40000152587890625</AltitudeMeters>
            <DistanceMeters>9711.1554395369</DistanceMeters>
          </Trackpoint>
          <Trackpoint>
            <Time>2021-10-09T07:09:34.000Z</Time>
            <Position>
              <LatitudeDegrees>39.47431557811796665191650390625</LatitudeDegrees>
              <LongitudeDegrees>-0.52777851931750774383544921875</LongitudeDegrees>
            </Position>
            <AltitudeMeters>91.1999969482421875</AltitudeMeters>
            <DistanceMeters>9717.584332123</DistanceMeters>
          </Trackpoint>
          <Trackpoint>
            <Time>2021-10-09T07:09:35.000Z</Time>
            <Position>
              <LatitudeDegrees>39.47427417151629924774169921875</LatitudeDegrees>
              <LongitudeDegrees>-0.5278548784554004669189453125</LongitudeDegrees>
            </Position>
            <AltitudeMeters>91.1999969482421875</AltitudeMeters>
            <DistanceMeters>9725.601568812</DistanceMeters>
          </Trackpoint>
          <Trackpoint>
            <Time>2021-10-09T07:09:36.000Z</Time>
            <Position>
              <LatitudeDegrees>39.47422421537339687347412109375</LatitudeDegrees>
              <LongitudeDegrees>-0.5279217660427093505859375</LongitudeDegrees>
            </Position>
            <AltitudeMeters>91.40000152587890625</AltitudeMeters>
            <DistanceMeters>9733.59737654</DistanceMeters>
          </Trackpoint>
          <Trackpoint>
            <Time>2021-10-09T07:09:37.000Z</Time>
            <Position>
              <LatitudeDegrees>39.474167637526988983154296875</LatitudeDegrees>
              <LongitudeDegrees>-0.5279796011745929718017578125</LongitudeDegrees>
            </Position>
            <AltitudeMeters>91.40000152587890625</AltitudeMeters>
            <DistanceMeters>9741.619117295</DistanceMeters>
          </Trackpoint>
          <Trackpoint>
            <Time>2021-10-09T07:09:38.000Z</Time>
            <Position>
              <LatitudeDegrees>39.474094547331333160400390625</LatitudeDegrees>
              <LongitudeDegrees>-0.52803919650614261627197265625</LongitudeDegrees>
            </Position>
            <AltitudeMeters>91.40000152587890625</AltitudeMeters>
            <DistanceMeters>9751.2313876914</DistanceMeters>
          </Trackpoint>
          <Trackpoint>
            <Time>2021-10-09T07:09:39.000Z</Time>
            <Position>
              <LatitudeDegrees>39.47404257953166961669921875</LatitudeDegrees>
              <LongitudeDegrees>-0.52807020954787731170654296875</LongitudeDegrees>
            </Position>
            <AltitudeMeters>91.40000152587890625</AltitudeMeters>
            <DistanceMeters>9757.6003046627</DistanceMeters>
          </Trackpoint>
          <Trackpoint>
            <Time>2021-10-09T07:09:40.000Z</Time>
            <Position>
              <LatitudeDegrees>39.47397611103951930999755859375</LatitudeDegrees>
              <LongitudeDegrees>-0.52810910157859325408935546875</LongitudeDegrees>
            </Position>
            <AltitudeMeters>91.40000152587890625</AltitudeMeters>
            <DistanceMeters>9765.7182784177</DistanceMeters>
          </Trackpoint>
          <Trackpoint>
            <Time>2021-10-09T07:09:41.000Z</Time>
            <Position>
              <LatitudeDegrees>39.4739131629467010498046875</LatitudeDegrees>
              <LongitudeDegrees>-0.52815117873251438140869140625</LongitudeDegrees>
            </Position>
            <AltitudeMeters>91.40000152587890625</AltitudeMeters>
            <DistanceMeters>9773.6026329405</DistanceMeters>
          </Trackpoint>
          <Trackpoint>
            <Time>2021-10-09T07:09:42.000Z</Time>
            <Position>
              <LatitudeDegrees>39.4738506339490413665771484375</LatitudeDegrees>
              <LongitudeDegrees>-0.5282166413962841033935546875</LongitudeDegrees>
            </Position>
            <AltitudeMeters>91.40000152587890625</AltitudeMeters>
            <DistanceMeters>9782.5507996705</DistanceMeters>
          </Trackpoint>
          <Trackpoint>
            <Time>2021-10-09T07:09:43.000Z</Time>
            <Position>
              <LatitudeDegrees>39.4738177768886089324951171875</LatitudeDegrees>
              <LongitudeDegrees>-0.52827120758593082427978515625</LongitudeDegrees>
            </Position>
            <AltitudeMeters>91.8000030517578125</AltitudeMeters>
            <DistanceMeters>9788.497376783</DistanceMeters>
          </Trackpoint>
          <Trackpoint>
            <Time>2021-10-09T07:09:44.000Z</Time>
            <Position>
              <LatitudeDegrees>39.47378081269562244415283203125</LatitudeDegrees>
              <LongitudeDegrees>-0.52834278903901576995849609375</LongitudeDegrees>
            </Position>
            <AltitudeMeters>91.8000030517578125</AltitudeMeters>
            <DistanceMeters>9795.8966573885</DistanceMeters>
          </Trackpoint>
          <Trackpoint>
            <Time>2021-10-09T07:09:45.000Z</Time>
            <Position>
              <LatitudeDegrees>39.47373990900814533233642578125</LatitudeDegrees>
              <LongitudeDegrees>-0.52843666635453701019287109375</LongitudeDegrees>
            </Position>
            <AltitudeMeters>91.8000030517578125</AltitudeMeters>
            <DistanceMeters>9805.1587158108</DistanceMeters>
          </Trackpoint>
          <Trackpoint>
            <Time>2021-10-09T07:09:46.000Z</Time>
            <Position>
              <LatitudeDegrees>39.47371375747025012969970703125</LatitudeDegrees>
              <LongitudeDegrees>-0.5285011231899261474609375</LongitudeDegrees>
            </Position>
            <AltitudeMeters>91.8000030517578125</AltitudeMeters>
            <DistanceMeters>9811.4146211256</DistanceMeters>
          </Trackpoint>
          <Trackpoint>
            <Time>2021-10-09T07:09:47.000Z</Time>
            <Position>
              <LatitudeDegrees>39.47367855347692966461181640625</LatitudeDegrees>
              <LongitudeDegrees>-0.52857966162264347076416015625</LongitudeDegrees>
            </Position>
            <AltitudeMeters>91.8000030517578125</AltitudeMeters>
            <DistanceMeters>9819.2172344946</DistanceMeters>
          </Trackpoint>
          <Trackpoint>
            <Time>2021-10-09T07:09:48.000Z</Time>
            <Position>
              <LatitudeDegrees>39.4736384041607379913330078125</LatitudeDegrees>
              <LongitudeDegrees>-0.52865342237055301666259765625</LongitudeDegrees>
            </Position>
            <AltitudeMeters>91.8000030517578125</AltitudeMeters>
            <DistanceMeters>9826.9710883082</DistanceMeters>
          </Trackpoint>
          <Trackpoint>
            <Time>2021-10-09T07:09:49.000Z</Time>
            <Position>
              <LatitudeDegrees>39.47358987294137477874755859375</LatitudeDegrees>
              <LongitudeDegrees>-0.52873380482196807861328125</LongitudeDegrees>
            </Position>
            <AltitudeMeters>91.8000030517578125</AltitudeMeters>
            <DistanceMeters>9835.7393304835</DistanceMeters>
          </Trackpoint>
          <Trackpoint>
            <Time>2021-10-09T07:09:50.000Z</Time>
            <Position>
              <LatitudeDegrees>39.4735559262335300445556640625</LatitudeDegrees>
              <LongitudeDegrees>-0.5287856049835681915283203125</LongitudeDegrees>
            </Position>
            <AltitudeMeters>91.8000030517578125</AltitudeMeters>
            <DistanceMeters>9841.5770961947</DistanceMeters>
          </Trackpoint>
          <Trackpoint>
            <Time>2021-10-09T07:09:51.000Z</Time>
            <Position>
              <LatitudeDegrees>39.4735032878816127777099609375</LatitudeDegrees>
              <LongitudeDegrees>-0.52886213175952434539794921875</LongitudeDegrees>
            </Position>
            <AltitudeMeters>91.8000030517578125</AltitudeMeters>
            <DistanceMeters>9850.3838735041</DistanceMeters>
          </Trackpoint>
          <Trackpoint>
            <Time>2021-10-09T07:09:52.000Z</Time>
            <Position>
              <LatitudeDegrees>39.4734674133360385894775390625</LatitudeDegrees>
              <LongitudeDegrees>-0.5289140157401561737060546875</LongitudeDegrees>
            </Position>
            <AltitudeMeters>91.8000030517578125</AltitudeMeters>
            <DistanceMeters>9856.3682935409</DistanceMeters>
          </Trackpoint>
          <Trackpoint>
            <Time>2021-10-09T07:09:53.000Z</Time>
            <Position>
              <LatitudeDegrees>39.47342164814472198486328125</LatitudeDegrees>
              <LongitudeDegrees>-0.52897411398589611053466796875</LongitudeDegrees>
            </Position>
            <AltitudeMeters>91.8000030517578125</AltitudeMeters>
            <DistanceMeters>9863.6215152639</DistanceMeters>
          </Trackpoint>
          <Trackpoint>
            <Time>2021-10-09T07:09:54.000Z</Time>
            <Position>
              <LatitudeDegrees>39.47336439974606037139892578125</LatitudeDegrees>
              <LongitudeDegrees>-0.5290430970489978790283203125</LongitudeDegrees>
            </Position>
            <AltitudeMeters>92</AltitudeMeters>
            <DistanceMeters>9872.323596685</DistanceMeters>
          </Trackpoint>
          <Trackpoint>
            <Time>2021-10-09T07:09:55.000Z</Time>
            <Position>
              <LatitudeDegrees>39.4733168743550777435302734375</LatitudeDegrees>
              <LongitudeDegrees>-0.52909615449607372283935546875</LongitudeDegrees>
            </Position>
            <AltitudeMeters>92.40000152587890625</AltitudeMeters>
            <DistanceMeters>9879.3059589443</DistanceMeters>
          </Trackpoint>
          <Trackpoint>
            <Time>2021-10-09T07:09:56.000Z</Time>
            <Position>
              <LatitudeDegrees>39.47327806614339351654052734375</LatitudeDegrees>
              <LongitudeDegrees>-0.52913554944097995758056640625</LongitudeDegrees>
            </Position>
            <AltitudeMeters>92.40000152587890625</AltitudeMeters>
            <DistanceMeters>9884.7945229657</DistanceMeters>
          </Trackpoint>
          <Trackpoint>
            <Time>2021-10-09T07:09:57.000Z</Time>
            <Position>
              <LatitudeDegrees>39.47322743944823741912841796875</LatitudeDegrees>
              <LongitudeDegrees>-0.52918466739356517791748046875</LongitudeDegrees>
            </Position>
            <AltitudeMeters>92.59999847412109375</AltitudeMeters>
            <DistanceMeters>9891.8342004814</DistanceMeters>
          </Trackpoint>
          <Trackpoint>
            <Time>2021-10-09T07:09:58.000Z</Time>
            <Position>
              <LatitudeDegrees>39.4731675088405609130859375</LatitudeDegrees>
              <LongitudeDegrees>-0.5292439274489879608154296875</LongitudeDegrees>
            </Position>
            <AltitudeMeters>92.59999847412109375</AltitudeMeters>
            <DistanceMeters>9900.225656619</DistanceMeters>
          </Trackpoint>
          <Trackpoint>
            <Time>2021-10-09T07:09:59.000Z</Time>
            <Position>
              <LatitudeDegrees>39.47312928736209869384765625</LatitudeDegrees>
              <LongitudeDegrees>-0.52928424440324306488037109375</LongitudeDegrees>
            </Position>
            <AltitudeMeters>92.8000030517578125</AltitudeMeters>
            <DistanceMeters>9905.7125751408</DistanceMeters>
          </Trackpoint>
          <Trackpoint>
            <Time>2021-10-09T07:10:00.000Z</Time>
            <Position>
              <LatitudeDegrees>39.4730816781520843505859375</LatitudeDegrees>
              <LongitudeDegrees>-0.529336296021938323974609375</LongitudeDegrees>
            </Position>
            <AltitudeMeters>92.8000030517578125</AltitudeMeters>
            <DistanceMeters>9912.6462701865</DistanceMeters>
          </Trackpoint>
          <Trackpoint>
            <Time>2021-10-09T07:10:01.000Z</Time>
            <Position>
              <LatitudeDegrees>39.4730359129607677459716796875</LatitudeDegrees>
              <LongitudeDegrees>-0.52939086221158504486083984375</LongitudeDegrees>
            </Position>
            <AltitudeMeters>92.8000030517578125</AltitudeMeters>
            <DistanceMeters>9919.5688864324</DistanceMeters>
          </Trackpoint>
          <Trackpoint>
            <Time>2021-10-09T07:10:02.000Z</Time>
            <Position>
              <LatitudeDegrees>39.47299509309232234954833984375</LatitudeDegrees>
              <LongitudeDegrees>-0.52945196628570556640625</LongitudeDegrees>
            </Position>
            <AltitudeMeters>92.8000030517578125</AltitudeMeters>
            <DistanceMeters>9926.5116919214</DistanceMeters>
          </Trackpoint>
          <Trackpoint>
            <Time>2021-10-09T07:10:03.000Z</Time>
            <Position>
              <LatitudeDegrees>39.47296072728931903839111328125</LatitudeDegrees>
              <LongitudeDegrees>-0.52952094934880733489990234375</LongitudeDegrees>
            </Position>
            <AltitudeMeters>92.8000030517578125</AltitudeMeters>
            <DistanceMeters>9933.5654654651</DistanceMeters>
          </Trackpoint>
          <Trackpoint>
            <Time>2021-10-09T07:10:04.000Z</Time>
            <Position>
              <LatitudeDegrees>39.47293658740818500518798828125</LatitudeDegrees>
              <LongitudeDegrees>-0.529597140848636627197265625</LongitudeDegrees>
            </Position>
            <AltitudeMeters>92.8000030517578125</AltitudeMeters>
            <DistanceMeters>9940.640968543</DistanceMeters>
          </Trackpoint>
          <Trackpoint>
            <Time>2021-10-09T07:10:05.000Z</Time>
            <Position>
              <LatitudeDegrees>39.4729262776672840118408203125</LatitudeDegrees>
              <LongitudeDegrees>-0.52968020550906658172607421875</LongitudeDegrees>
            </Position>
            <AltitudeMeters>92.8000030517578125</AltitudeMeters>
            <DistanceMeters>9947.8692478891</DistanceMeters>
          </Trackpoint>
          <Trackpoint>
            <Time>2021-10-09T07:10:06.000Z</Time>
            <Position>
              <LatitudeDegrees>39.472925104200839996337890625</LatitudeDegrees>
              <LongitudeDegrees>-0.5297652818262577056884765625</LongitudeDegrees>
            </Position>
            <AltitudeMeters>92.8000030517578125</AltitudeMeters>
            <DistanceMeters>9955.1795141219</DistanceMeters>
          </Trackpoint>
          <Trackpoint>
            <Time>2021-10-09T07:10:07.000Z</Time>
            <Position>
              <LatitudeDegrees>39.47293038479983806610107421875</LatitudeDegrees>
              <LongitudeDegrees>-0.52984918467700481414794921875</LongitudeDegrees>
            </Position>
            <AltitudeMeters>92.8000030517578125</AltitudeMeters>
            <DistanceMeters>9962.4121645932</DistanceMeters>
          </Trackpoint>
          <Trackpoint>
            <Time>2021-10-09T07:10:08.000Z</Time>
            <Position>
              <LatitudeDegrees>39.47294329293072223663330078125</LatitudeDegrees>
              <LongitudeDegrees>-0.52993216551840305328369140625</LongitudeDegrees>
            </Position>
            <AltitudeMeters>92.8000030517578125</AltitudeMeters>
            <DistanceMeters>9969.6852786312</DistanceMeters>
          </Trackpoint>
          <Trackpoint>
            <Time>2021-10-09T07:10:09.000Z</Time>
            <Position>
              <LatitudeDegrees>39.47296525351703166961669921875</LatitudeDegrees>
              <LongitudeDegrees>-0.53002931177616119384765625</LongitudeDegrees>
            </Position>
            <AltitudeMeters>92.8000030517578125</AltitudeMeters>
            <DistanceMeters>9978.3826891867</DistanceMeters>
          </Trackpoint>
          <Trackpoint>
            <Time>2021-10-09T07:10:10.000Z</Time>
            <Position>
              <LatitudeDegrees>39.4729859568178653717041015625</LatitudeDegrees>
              <LongitudeDegrees>-0.53009091876447200775146484375</LongitudeDegrees>
            </Position>
            <AltitudeMeters>92.8000030517578125</AltitudeMeters>
            <DistanceMeters>9984.1559042489</DistanceMeters>
          </Trackpoint>
          <Trackpoint>
            <Time>2021-10-09T07:10:11.000Z</Time>
            <Position>
              <LatitudeDegrees>39.47301571257412433624267578125</LatitudeDegrees>
              <LongitudeDegrees>-0.530167780816555023193359375</LongitudeDegrees>
            </Position>
            <AltitudeMeters>92.8000030517578125</AltitudeMeters>
            <DistanceMeters>9991.544193097</DistanceMeters>
          </Trackpoint>
          <Trackpoint>
            <Time>2021-10-09T07:10:12.000Z</Time>
            <Position>
              <LatitudeDegrees>39.47304907254874706268310546875</LatitudeDegrees>
              <LongitudeDegrees>-0.53024254739284515380859375</LongitudeDegrees>
            </Position>
            <AltitudeMeters>92.8000030517578125</AltitudeMeters>
            <DistanceMeters>9998.9641914851</DistanceMeters>
          </Trackpoint>
          <Trackpoint>
            <Time>2021-10-09T07:10:13.000Z</Time>
            <Position>
              <LatitudeDegrees>39.473086707293987274169921875</LatitudeDegrees>
              <LongitudeDegrees>-0.53031521849334239959716796875</LongitudeDegrees>
            </Position>
            <AltitudeMeters>92.8000030517578125</AltitudeMeters>
            <DistanceMeters>10006.482720499</DistanceMeters>
          </Trackpoint>
          <Trackpoint>
            <Time>2021-10-09T07:10:14.000Z</Time>
            <Position>
              <LatitudeDegrees>39.47312987409532070159912109375</LatitudeDegrees>
              <LongitudeDegrees>-0.53038629703223705291748046875</LongitudeDegrees>
            </Position>
            <AltitudeMeters>92.8000030517578125</AltitudeMeters>
            <DistanceMeters>10014.252861496</DistanceMeters>
          </Trackpoint>
          <Trackpoint>
            <Time>2021-10-09T07:10:15.000Z</Time>
            <Position>
              <LatitudeDegrees>39.47317899204790592193603515625</LatitudeDegrees>
              <LongitudeDegrees>-0.53045301698148250579833984375</LongitudeDegrees>
            </Position>
            <AltitudeMeters>92.8000030517578125</AltitudeMeters>
            <DistanceMeters>10022.174351331</DistanceMeters>
          </Trackpoint>
          <Trackpoint>
            <Time>2021-10-09T07:10:16.000Z</Time>
            <Position>
              <LatitudeDegrees>39.4732303731143474578857421875</LatitudeDegrees>
              <LongitudeDegrees>-0.5305156297981739044189453125</LongitudeDegrees>
            </Position>
            <AltitudeMeters>92.8000030517578125</AltitudeMeters>
            <DistanceMeters>10030.025421437</DistanceMeters>
          </Trackpoint>
          <Trackpoint>
            <Time>2021-10-09T07:10:17.000Z</Time>
            <Position>
              <LatitudeDegrees>39.4732855260372161865234375</LatitudeDegrees>
              <LongitudeDegrees>-0.5305729620158672332763671875</LongitudeDegrees>
            </Position>
            <AltitudeMeters>92.8000030517578125</AltitudeMeters>
            <DistanceMeters>10037.896020169</DistanceMeters>
          </Trackpoint>
          <Trackpoint>
            <Time>2021-10-09T07:10:18.000Z</Time>
            <Position>
              <LatitudeDegrees>39.47334277443587779998779296875</LatitudeDegrees>
              <LongitudeDegrees>-0.5306239239871501922607421875</LongitudeDegrees>
            </Position>
            <AltitudeMeters>92.8000030517578125</AltitudeMeters>
            <DistanceMeters>10045.627131084</DistanceMeters>
          </Trackpoint>
          <Trackpoint>
            <Time>2021-10-09T07:10:19.000Z</Time>
            <Position>
              <LatitudeDegrees>39.473402202129364013671875</LatitudeDegrees>
              <LongitudeDegrees>-0.5306710302829742431640625</LongitudeDegrees>
            </Position>
            <AltitudeMeters>92.8000030517578125</AltitudeMeters>
            <DistanceMeters>10053.380984898</DistanceMeters>
          </Trackpoint>
          <Trackpoint>
            <Time>2021-10-09T07:10:20.000Z</Time>
            <Position>
              <LatitudeDegrees>39.4734654016792774200439453125</LatitudeDegrees>
              <LongitudeDegrees>-0.5307134427130222320556640625</LongitudeDegrees>
            </Position>
            <AltitudeMeters>92.8000030517578125</AltitudeMeters>
            <DistanceMeters>10061.303044686</DistanceMeters>
          </Trackpoint>
          <Trackpoint>
            <Time>2021-10-09T07:10:21.000Z</Time>
            <Position>
              <LatitudeDegrees>39.47353187017142772674560546875</LatitudeDegrees>
              <LongitudeDegrees>-0.53075007162988185882568359375</LongitudeDegrees>
            </Position>
            <AltitudeMeters>92.8000030517578125</AltitudeMeters>
            <DistanceMeters>10069.342776472</DistanceMeters>
          </Trackpoint>
          <Trackpoint>
            <Time>2021-10-09T07:10:22.000Z</Time>
            <Position>
              <LatitudeDegrees>39.4735978357493877410888671875</LatitudeDegrees>
              <LongitudeDegrees>-0.5307828448712825775146484375</LongitudeDegrees>
            </Position>
            <AltitudeMeters>92.8000030517578125</AltitudeMeters>
            <DistanceMeters>10077.206488285</DistanceMeters>
          </Trackpoint>
          <Trackpoint>
            <Time>2021-10-09T07:10:23.000Z</Time>
            <Position>
              <LatitudeDegrees>39.47366237640380859375</LatitudeDegrees>
              <LongitudeDegrees>-0.53081813268363475799560546875</LongitudeDegrees>
            </Position>
            <AltitudeMeters>92.8000030517578125</AltitudeMeters>
            <DistanceMeters>10085.003892001</DistanceMeters>
          </Trackpoint>
          <Trackpoint>
            <Time>2021-10-09T07:10:24.000Z</Time>
            <Position>
              <LatitudeDegrees>39.47372364811599254608154296875</LatitudeDegrees>
              <LongitudeDegrees>-0.5308602936565876007080078125</LongitudeDegrees>
            </Position>
            <AltitudeMeters>92.8000030517578125</AltitudeMeters>
            <DistanceMeters>10092.726237812</DistanceMeters>
          </Trackpoint>
          <Trackpoint>
            <Time>2021-10-09T07:10:25.000Z</Time>
            <Position>
              <LatitudeDegrees>39.47377863340079784393310546875</LatitudeDegrees>
              <LongitudeDegrees>-0.5309109203517436981201171875</LongitudeDegrees>
            </Position>
            <AltitudeMeters>92.8000030517578125</AltitudeMeters>
            <DistanceMeters>10100.233949658</DistanceMeters>
          </Trackpoint>
          <Trackpoint>
            <Time>2021-10-09T07:10:26.000Z</Time>
            <Position>
              <LatitudeDegrees>39.47382540442049503326416015625</LatitudeDegrees>
              <LongitudeDegrees>-0.53097353316843509674072265625</LongitudeDegrees>
            </Position>
            <AltitudeMeters>92.8000030517578125</AltitudeMeters>
            <DistanceMeters>10107.719377123</DistanceMeters>
          </Trackpoint>
          <Trackpoint>
            <Time>2021-10-09T07:10:27.000Z</Time>
            <Position>
              <LatitudeDegrees>39.4738613627851009368896484375</LatitudeDegrees>
              <LongitudeDegrees>-0.53104528225958347320556640625</LongitudeDegrees>
            </Position>
            <AltitudeMeters>92.59999847412109375</AltitudeMeters>
            <DistanceMeters>10115.069065368</DistanceMeters>
          </Trackpoint>
          <Trackpoint>
            <Time>2021-10-09T07:10:28.000Z</Time>
            <Position>
              <LatitudeDegrees>39.47388642467558383941650390625</LatitudeDegrees>
              <LongitudeDegrees>-0.53112541325390338897705078125</LongitudeDegrees>
            </Position>
            <AltitudeMeters>92.59999847412109375</AltitudeMeters>
            <DistanceMeters>10122.498185586</DistanceMeters>
          </Trackpoint>
          <Trackpoint>
            <Time>2021-10-09T07:10:29.000Z</Time>
            <Position>
              <LatitudeDegrees>39.47390184737741947174072265625</LatitudeDegrees>
              <LongitudeDegrees>-0.531208477914333343505859375</LongitudeDegrees>
            </Position>
            <AltitudeMeters>92.59999847412109375</AltitudeMeters>
            <DistanceMeters>10129.838038178</DistanceMeters>
          </Trackpoint>
          <Trackpoint>
            <Time>2021-10-09T07:10:30.000Z</Time>
            <Position>
              <LatitudeDegrees>39.47391425259411334991455078125</LatitudeDegrees>
              <LongitudeDegrees>-0.5312914587557315826416015625</LongitudeDegrees>
            </Position>
            <AltitudeMeters>92.59999847412109375</AltitudeMeters>
            <DistanceMeters>10137.098725906</DistanceMeters>
          </Trackpoint>
          <Trackpoint>
            <Time>2021-10-09T07:10:31.000Z</Time>
            <Position>
              <LatitudeDegrees>39.4739265739917755126953125</LatitudeDegrees>
              <LongitudeDegrees>-0.53137578070163726806640625</LongitudeDegrees>
            </Position>
            <AltitudeMeters>92.59999847412109375</AltitudeMeters>
            <DistanceMeters>10144.47172124</DistanceMeters>
          </Trackpoint>
          <Trackpoint>
            <Time>2021-10-09T07:10:32.000Z</Time>
            <Position>
              <LatitudeDegrees>39.473935626447200775146484375</LatitudeDegrees>
              <LongitudeDegrees>-0.53146018646657466888427734375</LongitudeDegrees>
            </Position>
            <AltitudeMeters>92.40000152587890625</AltitudeMeters>
            <DistanceMeters>10151.793713035</DistanceMeters>
          </Trackpoint>
          <Trackpoint>
            <Time>2021-10-09T07:10:33.000Z</Time>
            <Position>
              <LatitudeDegrees>39.4739441759884357452392578125</LatitudeDegrees>
              <LongitudeDegrees>-0.5315435864031314849853515625</LongitudeDegrees>
            </Position>
            <AltitudeMeters>92.40000152587890625</AltitudeMeters>
            <DistanceMeters>10159.023241543</DistanceMeters>
          </Trackpoint>
          <Trackpoint>
            <Time>2021-10-09T07:10:34.000Z</Time>
            <Position>
              <LatitudeDegrees>39.47395331226289272308349609375</LatitudeDegrees>
              <LongitudeDegrees>-0.5316243879497051239013671875</LongitudeDegrees>
            </Position>
            <AltitudeMeters>92.40000152587890625</AltitudeMeters>
            <DistanceMeters>10166.039791748</DistanceMeters>
          </Trackpoint>
          <Trackpoint>
            <Time>2021-10-09T07:10:35.000Z</Time>
            <Position>
              <LatitudeDegrees>39.4739627838134765625</LatitudeDegrees>
              <LongitudeDegrees>-0.5317082069814205169677734375</LongitudeDegrees>
            </Position>
            <AltitudeMeters>92.59999847412109375</AltitudeMeters>
            <DistanceMeters>10173.318490704</DistanceMeters>
          </Trackpoint>
          <Trackpoint>
            <Time>2021-10-09T07:10:36.000Z</Time>
            <Position>
              <LatitudeDegrees>39.47397124953567981719970703125</LatitudeDegrees>
              <LongitudeDegrees>-0.5317921936511993408203125</LongitudeDegrees>
            </Position>
            <AltitudeMeters>92.59999847412109375</AltitudeMeters>
            <DistanceMeters>10180.595328497</DistanceMeters>
          </Trackpoint>
          <Trackpoint>
            <Time>2021-10-09T07:10:37.000Z</Time>
            <Position>
              <LatitudeDegrees>39.47398231364786624908447265625</LatitudeDegrees>
              <LongitudeDegrees>-0.53189210593700408935546875</LongitudeDegrees>
            </Position>
            <AltitudeMeters>92.59999847412109375</AltitudeMeters>
            <DistanceMeters>10189.267264649</DistanceMeters>
          </Trackpoint>
          <Trackpoint>
            <Time>2021-10-09T07:10:38.000Z</Time>
            <Position>
              <LatitudeDegrees>39.473991282284259796142578125</LatitudeDegrees>
              <LongitudeDegrees>-0.5319573171436786651611328125</LongitudeDegrees>
            </Position>
            <AltitudeMeters>92.59999847412109375</AltitudeMeters>
            <DistanceMeters>10194.95856364</DistanceMeters>
          </Trackpoint>
          <Trackpoint>
            <Time>2021-10-09T07:10:39.000Z</Time>
            <Position>
              <LatitudeDegrees>39.47400125674903392791748046875</LatitudeDegrees>
              <LongitudeDegrees>-0.53203828632831573486328125</LongitudeDegrees>
            </Position>
            <AltitudeMeters>92.8000030517578125</AltitudeMeters>
            <DistanceMeters>10202.003370248</DistanceMeters>
          </Trackpoint>
          <Trackpoint>
            <Time>2021-10-09T07:10:40.000Z</Time>
            <Position>
              <LatitudeDegrees>39.47401332668960094451904296875</LatitudeDegrees>
              <LongitudeDegrees>-0.53211984224617481231689453125</LongitudeDegrees>
            </Position>
            <AltitudeMeters>92.8000030517578125</AltitudeMeters>
            <DistanceMeters>10209.137339048</DistanceMeters>
          </Trackpoint>
          <Trackpoint>
            <Time>2021-10-09T07:10:41.000Z</Time>
            <Position>
              <LatitudeDegrees>39.4740279950201511383056640625</LatitudeDegrees>
              <LongitudeDegrees>-0.53220064379274845123291015625</LongitudeDegrees>
            </Position>
            <AltitudeMeters>92.8000030517578125</AltitudeMeters>
            <DistanceMeters>10216.267509479</DistanceMeters>
          </Trackpoint>
          <Trackpoint>
            <Time>2021-10-09T07:10:42.000Z</Time>
            <Position>
              <LatitudeDegrees>39.47404325008392333984375</LatitudeDegrees>
              <LongitudeDegrees>-0.53227842785418033599853515625</LongitudeDegrees>
            </Position>
            <AltitudeMeters>92.8000030517578125</AltitudeMeters>
            <DistanceMeters>10223.162023414</DistanceMeters>
          </Trackpoint>
          <Trackpoint>
            <Time>2021-10-09T07:10:43.000Z</Time>
            <Position>
              <LatitudeDegrees>39.47406076826155185699462890625</LatitudeDegrees>
              <LongitudeDegrees>-0.53235420025885105133056640625</LongitudeDegrees>
            </Position>
            <AltitudeMeters>92.8000030517578125</AltitudeMeters>
            <DistanceMeters>10229.957596306</DistanceMeters>
          </Trackpoint>
          <Trackpoint>
            <Time>2021-10-09T07:10:44.000Z</Time>
            <Position>
              <LatitudeDegrees>39.4740792922675609588623046875</LatitudeDegrees>
              <LongitudeDegrees>-0.53243231959640979766845703125</LongitudeDegrees>
            </Position>
            <AltitudeMeters>93</AltitudeMeters>
            <DistanceMeters>10236.978006353</DistanceMeters>
          </Trackpoint>
          <Trackpoint>
            <Time>2021-10-09T07:10:45.000Z</Time>
            <Position>
              <LatitudeDegrees>39.4740963913500308990478515625</LatitudeDegrees>
              <LongitudeDegrees>-0.532508678734302520751953125</LongitudeDegrees>
            </Position>
            <AltitudeMeters>93</AltitudeMeters>
            <DistanceMeters>10243.808702144</DistanceMeters>
          </Trackpoint>
          <Trackpoint>
            <Time>2021-10-09T07:10:46.000Z</Time>
            <Position>
              <LatitudeDegrees>39.47411474771797657012939453125</LatitudeDegrees>
              <LongitudeDegrees>-0.5325849540531635284423828125</LongitudeDegrees>
            </Position>
            <AltitudeMeters>93</AltitudeMeters>
            <DistanceMeters>10250.673025773</DistanceMeters>
          </Trackpoint>
          <Trackpoint>
            <Time>2021-10-09T07:10:47.000Z</Time>
            <Position>
              <LatitudeDegrees>39.47413377463817596435546875</LatitudeDegrees>
              <LongitudeDegrees>-0.532661564648151397705078125</LongitudeDegrees>
            </Position>
            <AltitudeMeters>93</AltitudeMeters>
            <DistanceMeters>10257.587158018</DistanceMeters>
          </Trackpoint>
          <Trackpoint>
            <Time>2021-10-09T07:10:48.000Z</Time>
            <Position>
              <LatitudeDegrees>39.47415196336805820465087890625</LatitudeDegrees>
              <LongitudeDegrees>-0.53274027071893215179443359375</LongitudeDegrees>
            </Position>
            <AltitudeMeters>93</AltitudeMeters>
            <DistanceMeters>10264.646050411</DistanceMeters>
          </Trackpoint>
          <Trackpoint>
            <Time>2021-10-09T07:10:49.000Z</Time>
            <Position>
              <LatitudeDegrees>39.47417191229760646820068359375</LatitudeDegrees>
              <LongitudeDegrees>-0.53283297456800937652587890625</LongitudeDegrees>
            </Position>
            <AltitudeMeters>93</AltitudeMeters>
            <DistanceMeters>10272.91446675</DistanceMeters>
          </Trackpoint>
          <Trackpoint>
            <Time>2021-10-09T07:10:50.000Z</Time>
            <Position>
              <LatitudeDegrees>39.4741842336952686309814453125</LatitudeDegrees>
              <LongitudeDegrees>-0.5328960902988910675048828125</LongitudeDegrees>
            </Position>
            <AltitudeMeters>93</AltitudeMeters>
            <DistanceMeters>10278.507335853</DistanceMeters>
          </Trackpoint>
          <Trackpoint>
            <Time>2021-10-09T07:10:51.000Z</Time>
            <Position>
              <LatitudeDegrees>39.47420225478708744049072265625</LatitudeDegrees>
              <LongitudeDegrees>-0.53296976722776889801025390625</LongitudeDegrees>
            </Position>
            <AltitudeMeters>93</AltitudeMeters>
            <DistanceMeters>10285.146976897</DistanceMeters>
          </Trackpoint>
          <Trackpoint>
            <Time>2021-10-09T07:10:52.000Z</Time>
            <Position>
              <LatitudeDegrees>39.4742189347743988037109375</LatitudeDegrees>
              <LongitudeDegrees>-0.53304838947951793670654296875</LongitudeDegrees>
            </Position>
            <AltitudeMeters>93.1999969482421875</AltitudeMeters>
            <DistanceMeters>10292.151934813</DistanceMeters>
          </Trackpoint>
          <Trackpoint>
            <Time>2021-10-09T07:10:53.000Z</Time>
            <Position>
              <LatitudeDegrees>39.47423678822815418243408203125</LatitudeDegrees>
              <LongitudeDegrees>-0.53312583826482295989990234375</LongitudeDegrees>
            </Position>
            <AltitudeMeters>93.1999969482421875</AltitudeMeters>
            <DistanceMeters>10299.096040818</DistanceMeters>
          </Trackpoint>
          <Trackpoint>
            <Time>2021-10-09T07:10:54.000Z</Time>
            <Position>
              <LatitudeDegrees>39.47425472550094127655029296875</LatitudeDegrees>
              <LongitudeDegrees>-0.5332032032310962677001953125</LongitudeDegrees>
            </Position>
            <AltitudeMeters>93.1999969482421875</AltitudeMeters>
            <DistanceMeters>10306.03559395</DistanceMeters>
          </Trackpoint>
          <Trackpoint>
            <Time>2021-10-09T07:10:55.000Z</Time>
            <Position>
              <LatitudeDegrees>39.47427517734467983245849609375</LatitudeDegrees>
              <LongitudeDegrees>-0.53329381160438060760498046875</LongitudeDegrees>
            </Position>
            <AltitudeMeters>93.59999847412109375</AltitudeMeters>
            <DistanceMeters>10314.145777476</DistanceMeters>
          </Trackpoint>
          <Trackpoint>
            <Time>2021-10-09T07:10:56.000Z</Time>
            <Position>
              <LatitudeDegrees>39.47428775019943714141845703125</LatitudeDegrees>
              <LongitudeDegrees>-0.53335432894527912139892578125</LongitudeDegrees>
            </Position>
            <AltitudeMeters>93.59999847412109375</AltitudeMeters>
            <DistanceMeters>10319.529692908</DistanceMeters>
          </Trackpoint>
          <Trackpoint>
            <Time>2021-10-09T07:10:57.000Z</Time>
            <Position>
              <LatitudeDegrees>39.474303089082241058349609375</LatitudeDegrees>
              <LongitudeDegrees>-0.5334295146167278289794921875</LongitudeDegrees>
            </Position>
            <AltitudeMeters>93.59999847412109375</AltitudeMeters>
            <DistanceMeters>10326.210685938</DistanceMeters>
          </Trackpoint>
          <Trackpoint>
            <Time>2021-10-09T07:10:58.000Z</Time>
            <Position>
              <LatitudeDegrees>39.47432463057339191436767578125</LatitudeDegrees>
              <LongitudeDegrees>-0.533517859876155853271484375</LongitudeDegrees>
            </Position>
            <AltitudeMeters>93.8000030517578125</AltitudeMeters>
            <DistanceMeters>10334.170839605</DistanceMeters>
          </Trackpoint>
          <Trackpoint>
            <Time>2021-10-09T07:10:59.000Z</Time>
            <Position>
              <LatitudeDegrees>39.47433887980878353118896484375</LatitudeDegrees>
              <LongitudeDegrees>-0.53357779048383235931396484375</LongitudeDegrees>
            </Position>
            <AltitudeMeters>93.8000030517578125</AltitudeMeters>
            <DistanceMeters>10339.558946487</DistanceMeters>
          </Trackpoint>
          <Trackpoint>
            <Time>2021-10-09T07:11:00.000Z</Time>
            <Position>
              <LatitudeDegrees>39.47435648180544376373291015625</LatitudeDegrees>
              <LongitudeDegrees>-0.5336541496217250823974609375</LongitudeDegrees>
            </Position>
            <AltitudeMeters>93.8000030517578125</AltitudeMeters>
            <DistanceMeters>10346.406147148</DistanceMeters>
          </Trackpoint>
          <Trackpoint>
            <Time>2021-10-09T07:11:01.000Z</Time>
            <Position>
              <LatitudeDegrees>39.47437358088791370391845703125</LatitudeDegrees>
              <LongitudeDegrees>-0.5337312631309032440185546875</LongitudeDegrees>
            </Position>
            <AltitudeMeters>93.8000030517578125</AltitudeMeters>
            <DistanceMeters>10353.299351211</DistanceMeters>
          </Trackpoint>
          <Trackpoint>
            <Time>2021-10-09T07:11:02.000Z</Time>
            <Position>
              <LatitudeDegrees>39.4743894226849079132080078125</LatitudeDegrees>
              <LongitudeDegrees>-0.5338090471923351287841796875</LongitudeDegrees>
            </Position>
            <AltitudeMeters>93.8000030517578125</AltitudeMeters>
            <DistanceMeters>10360.210870898</DistanceMeters>
          </Trackpoint>
          <Trackpoint>
            <Time>2021-10-09T07:11:03.000Z</Time>
            <Position>
              <LatitudeDegrees>39.47440610267221927642822265625</LatitudeDegrees>
              <LongitudeDegrees>-0.533887334167957305908203125</LongitudeDegrees>
            </Position>
            <AltitudeMeters>93.8000030517578125</AltitudeMeters>
            <DistanceMeters>10367.188705246</DistanceMeters>
          </Trackpoint>
          <Trackpoint>
            <Time>2021-10-09T07:11:04.000Z</Time>
            <Position>
              <LatitudeDegrees>39.4744256325066089630126953125</LatitudeDegrees>
              <LongitudeDegrees>-0.533981211483478546142578125</LongitudeDegrees>
            </Position>
            <AltitudeMeters>93.8000030517578125</AltitudeMeters>
            <DistanceMeters>10375.542412852</DistanceMeters>
          </Trackpoint>
          <Trackpoint>
            <Time>2021-10-09T07:11:05.000Z</Time>
            <Position>
              <LatitudeDegrees>39.47443862445652484893798828125</LatitudeDegrees>
              <LongitudeDegrees>-0.53404265083372592926025390625</LongitudeDegrees>
            </Position>
            <AltitudeMeters>93.8000030517578125</AltitudeMeters>
            <DistanceMeters>10381.016149568</DistanceMeters>
          </Trackpoint>
          <Trackpoint>
            <Time>2021-10-09T07:11:06.000Z</Time>
            <Position>
              <LatitudeDegrees>39.4744549691677093505859375</LatitudeDegrees>
              <LongitudeDegrees>-0.53411993198096752166748046875</LongitudeDegrees>
            </Position>
            <AltitudeMeters>93.8000030517578125</AltitudeMeters>
            <DistanceMeters>10387.900177544</DistanceMeters>
          </Trackpoint>
          <Trackpoint>
            <Time>2021-10-09T07:11:07.000Z</Time>
            <Position>
              <LatitudeDegrees>39.47447634302079677581787109375</LatitudeDegrees>
              <LongitudeDegrees>-0.5342117138206958770751953125</LongitudeDegrees>
            </Position>
            <AltitudeMeters>93.8000030517578125</AltitudeMeters>
            <DistanceMeters>10396.136313425</DistanceMeters>
          </Trackpoint>
          <Trackpoint>
            <Time>2021-10-09T07:11:08.000Z</Time>
            <Position>
              <LatitudeDegrees>39.47448958642780780792236328125</LatitudeDegrees>
              <LongitudeDegrees>-0.53426929749548435211181640625</LongitudeDegrees>
            </Position>
            <AltitudeMeters>93.8000030517578125</AltitudeMeters>
            <DistanceMeters>10401.29758512</DistanceMeters>
          </Trackpoint>
          <Trackpoint>
            <Time>2021-10-09T07:11:09.000Z</Time>
            <Position>
              <LatitudeDegrees>39.47450257837772369384765625</LatitudeDegrees>
              <LongitudeDegrees>-0.53434741683304309844970703125</LongitudeDegrees>
            </Position>
            <AltitudeMeters>93.8000030517578125</AltitudeMeters>
            <DistanceMeters>10408.163224132</DistanceMeters>
          </Trackpoint>
          <Trackpoint>
            <Time>2021-10-09T07:11:10.000Z</Time>
            <Position>
              <LatitudeDegrees>39.47451825253665447235107421875</LatitudeDegrees>
              <LongitudeDegrees>-0.53442285396158695220947265625</LongitudeDegrees>
            </Position>
            <AltitudeMeters>93.8000030517578125</AltitudeMeters>
            <DistanceMeters>10414.874559416</DistanceMeters>
          </Trackpoint>
          <Trackpoint>
            <Time>2021-10-09T07:11:11.000Z</Time>
            <Position>
              <LatitudeDegrees>39.47453878819942474365234375</LatitudeDegrees>
              <LongitudeDegrees>-0.5345146358013153076171875</LongitudeDegrees>
            </Position>
            <AltitudeMeters>93.8000030517578125</AltitudeMeters>
            <DistanceMeters>10423.084339595</DistanceMeters>
          </Trackpoint>
          <Trackpoint>
            <Time>2021-10-09T07:11:12.000Z</Time>
            <Position>
              <LatitudeDegrees>39.47455161251127719879150390625</LatitudeDegrees>
              <LongitudeDegrees>-0.53457699716091156005859375</LongitudeDegrees>
            </Position>
            <AltitudeMeters>93.8000030517578125</AltitudeMeters>
            <DistanceMeters>10428.629374337</DistanceMeters>
          </Trackpoint>
          <Trackpoint>
            <Time>2021-10-09T07:11:13.000Z</Time>
            <Position>
              <LatitudeDegrees>39.474572651088237762451171875</LatitudeDegrees>
              <LongitudeDegrees>-0.534668527543544769287109375</LongitudeDegrees>
            </Position>
            <AltitudeMeters>94</AltitudeMeters>
            <DistanceMeters>10436.834753668</DistanceMeters>
          </Trackpoint>
          <Trackpoint>
            <Time>2021-10-09T07:11:14.000Z</Time>
            <Position>
              <LatitudeDegrees>39.47458748705685138702392578125</LatitudeDegrees>
              <LongitudeDegrees>-0.534727536141872406005859375</LongitudeDegrees>
            </Position>
            <AltitudeMeters>94.1999969482421875</AltitudeMeters>
            <DistanceMeters>10442.166421385</DistanceMeters>
          </Trackpoint>
          <Trackpoint>
            <Time>2021-10-09T07:11:15.000Z</Time>
            <Position>
              <LatitudeDegrees>39.4746046699583530426025390625</LatitudeDegrees>
              <LongitudeDegrees>-0.53480406291782855987548828125</LongitudeDegrees>
            </Position>
            <AltitudeMeters>94.1999969482421875</AltitudeMeters>
            <DistanceMeters>10449.014281414</DistanceMeters>
          </Trackpoint>
          <Trackpoint>
            <Time>2021-10-09T07:11:16.000Z</Time>
            <Position>
              <LatitudeDegrees>39.47462302632629871368408203125</LatitudeDegrees>
              <LongitudeDegrees>-0.53487874567508697509765625</LongitudeDegrees>
            </Position>
            <AltitudeMeters>94.1999969482421875</AltitudeMeters>
            <DistanceMeters>10455.747780788</DistanceMeters>
          </Trackpoint>
          <Trackpoint>
            <Time>2021-10-09T07:11:17.000Z</Time>
            <Position>
              <LatitudeDegrees>39.47464113123714923858642578125</LatitudeDegrees>
              <LongitudeDegrees>-0.53495342843234539031982421875</LongitudeDegrees>
            </Position>
            <AltitudeMeters>94.1999969482421875</AltitudeMeters>
            <DistanceMeters>10462.472557575</DistanceMeters>
          </Trackpoint>
          <Trackpoint>
            <Time>2021-10-09T07:11:18.000Z</Time>
            <Position>
              <LatitudeDegrees>39.47465990670025348663330078125</LatitudeDegrees>
              <LongitudeDegrees>-0.53503037430346012115478515625</LongitudeDegrees>
            </Position>
            <AltitudeMeters>94.1999969482421875</AltitudeMeters>
            <DistanceMeters>10469.404950151</DistanceMeters>
          </Trackpoint>
          <Trackpoint>
            <Time>2021-10-09T07:11:19.000Z</Time>
            <Position>
              <LatitudeDegrees>39.47467734105885028839111328125</LatitudeDegrees>
              <LongitudeDegrees>-0.53510614670813083648681640625</LongitudeDegrees>
            </Position>
            <AltitudeMeters>94.1999969482421875</AltitudeMeters>
            <DistanceMeters>10476.197864889</DistanceMeters>
          </Trackpoint>
          <Trackpoint>
            <Time>2021-10-09T07:11:20.000Z</Time>
            <Position>
              <LatitudeDegrees>39.4746945239603519439697265625</LatitudeDegrees>
              <LongitudeDegrees>-0.53518577478826045989990234375</LongitudeDegrees>
            </Position>
            <AltitudeMeters>94.1999969482421875</AltitudeMeters>
            <DistanceMeters>10483.300754237</DistanceMeters>
          </Trackpoint>
          <Trackpoint>
            <Time>2021-10-09T07:11:21.000Z</Time>
            <Position>
              <LatitudeDegrees>39.4747116230428218841552734375</LatitudeDegrees>
              <LongitudeDegrees>-0.5352661572396755218505859375</LongitudeDegrees>
            </Position>
            <AltitudeMeters>94.1999969482421875</AltitudeMeters>
            <DistanceMeters>10490.464407246</DistanceMeters>
          </Trackpoint>
          <Trackpoint>
            <Time>2021-10-09T07:11:22.000Z</Time>
            <Position>
              <LatitudeDegrees>39.47472763247787952423095703125</LatitudeDegrees>
              <LongitudeDegrees>-0.53534670732915401458740234375</LongitudeDegrees>
            </Position>
            <AltitudeMeters>94.1999969482421875</AltitudeMeters>
            <DistanceMeters>10497.610390893</DistanceMeters>
          </Trackpoint>
          <Trackpoint>
            <Time>2021-10-09T07:11:23.000Z</Time>
            <Position>
              <LatitudeDegrees>39.47474406100809574127197265625</LatitudeDegrees>
              <LongitudeDegrees>-0.53542616777122020721435546875</LongitudeDegrees>
            </Position>
            <AltitudeMeters>94.1999969482421875</AltitudeMeters>
            <DistanceMeters>10504.678232352</DistanceMeters>
          </Trackpoint>
          <Trackpoint>
            <Time>2021-10-09T07:11:24.000Z</Time>
            <Position>
              <LatitudeDegrees>39.47476032190024852752685546875</LatitudeDegrees>
              <LongitudeDegrees>-0.53550546057522296905517578125</LongitudeDegrees>
            </Position>
            <AltitudeMeters>94.40000152587890625</AltitudeMeters>
            <DistanceMeters>10511.726883329</DistanceMeters>
          </Trackpoint>
          <Trackpoint>
            <Time>2021-10-09T07:11:25.000Z</Time>
            <Position>
              <LatitudeDegrees>39.47477825917303562164306640625</LatitudeDegrees>
              <LongitudeDegrees>-0.5355839990079402923583984375</LongitudeDegrees>
            </Position>
            <AltitudeMeters>94.1999969482421875</AltitudeMeters>
            <DistanceMeters>10518.763994897</DistanceMeters>
          </Trackpoint>
          <Trackpoint>
            <Time>2021-10-09T07:11:26.000Z</Time>
            <Position>
              <LatitudeDegrees>39.47479619644582271575927734375</LatitudeDegrees>
              <LongitudeDegrees>-0.53566186688840389251708984375</LongitudeDegrees>
            </Position>
            <AltitudeMeters>94.1999969482421875</AltitudeMeters>
            <DistanceMeters>10525.745063767</DistanceMeters>
          </Trackpoint>
          <Trackpoint>
            <Time>2021-10-09T07:11:27.000Z</Time>
            <Position>
              <LatitudeDegrees>39.47481379844248294830322265625</LatitudeDegrees>
              <LongitudeDegrees>-0.5357405729591846466064453125</LongitudeDegrees>
            </Position>
            <AltitudeMeters>94.40000152587890625</AltitudeMeters>
            <DistanceMeters>10532.784741283</DistanceMeters>
          </Trackpoint>
          <Trackpoint>
            <Time>2021-10-09T07:11:28.000Z</Time>
            <Position>
              <LatitudeDegrees>39.47482989169657230377197265625</LatitudeDegrees>
              <LongitudeDegrees>-0.535819195210933685302734375</LongitudeDegrees>
            </Position>
            <AltitudeMeters>94.59999847412109375</AltitudeMeters>
            <DistanceMeters>10539.772920832</DistanceMeters>
          </Trackpoint>
          <Trackpoint>
            <Time>2021-10-09T07:11:29.000Z</Time>
            <Position>
              <LatitudeDegrees>39.47484615258872509002685546875</LatitudeDegrees>
              <LongitudeDegrees>-0.53589790128171443939208984375</LongitudeDegrees>
            </Position>
            <AltitudeMeters>94.59999847412109375</AltitudeMeters>
            <DistanceMeters>10546.77336545</DistanceMeters>
          </Trackpoint>
          <Trackpoint>
            <Time>2021-10-09T07:11:30.000Z</Time>
            <Position>
              <LatitudeDegrees>39.47486325167119503021240234375</LatitudeDegrees>
              <LongitudeDegrees>-0.53597652353346347808837890625</LongitudeDegrees>
            </Position>
            <AltitudeMeters>94.59999847412109375</AltitudeMeters>
            <DistanceMeters>10553.791202505</DistanceMeters>
          </Trackpoint>
          <Trackpoint>
            <Time>2021-10-09T07:11:31.000Z</Time>
            <Position>
              <LatitudeDegrees>39.47488135658204555511474609375</LatitudeDegrees>
              <LongitudeDegrees>-0.53605363704264163970947265625</LongitudeDegrees>
            </Position>
            <AltitudeMeters>94.59999847412109375</AltitudeMeters>
            <DistanceMeters>10560.715775121</DistanceMeters>
          </Trackpoint>
          <Trackpoint>
            <Time>2021-10-09T07:11:32.000Z</Time>
            <Position>
              <LatitudeDegrees>39.474899880588054656982421875</LatitudeDegrees>
              <LongitudeDegrees>-0.53613209165632724761962890625</LongitudeDegrees>
            </Position>
            <AltitudeMeters>94.8000030517578125</AltitudeMeters>
            <DistanceMeters>10567.764426098</DistanceMeters>
          </Trackpoint>
          <Trackpoint>
            <Time>2021-10-09T07:11:33.000Z</Time>
            <Position>
              <LatitudeDegrees>39.47492058388888835906982421875</LatitudeDegrees>
              <LongitudeDegrees>-0.53621171973645687103271484375</LongitudeDegrees>
            </Position>
            <AltitudeMeters>94.8000030517578125</AltitudeMeters>
            <DistanceMeters>10574.982704361</DistanceMeters>
          </Trackpoint>
          <Trackpoint>
            <Time>2021-10-09T07:11:34.000Z</Time>
            <Position>
              <LatitudeDegrees>39.47494053281843662261962890625</LatitudeDegrees>
              <LongitudeDegrees>-0.53629134781658649444580078125</LongitudeDegrees>
            </Position>
            <AltitudeMeters>94.8000030517578125</AltitudeMeters>
            <DistanceMeters>10582.174663612</DistanceMeters>
          </Trackpoint>
          <Trackpoint>
            <Time>2021-10-09T07:11:35.000Z</Time>
            <Position>
              <LatitudeDegrees>39.47495779953896999359130859375</LatitudeDegrees>
              <LongitudeDegrees>-0.5363712273538112640380859375</LongitudeDegrees>
            </Position>
            <AltitudeMeters>94.8000030517578125</AltitudeMeters>
            <DistanceMeters>10589.302300673</DistanceMeters>
          </Trackpoint>
          <Trackpoint>
            <Time>2021-10-09T07:11:36.000Z</Time>
            <Position>
              <LatitudeDegrees>39.47497322224080562591552734375</LatitudeDegrees>
              <LongitudeDegrees>-0.53645211271941661834716796875</LongitudeDegrees>
            </Position>
            <AltitudeMeters>95</AltitudeMeters>
            <DistanceMeters>10596.460909744</DistanceMeters>
          </Trackpoint>
          <Trackpoint>
            <Time>2021-10-09T07:11:37.000Z</Time>
            <Position>
              <LatitudeDegrees>39.4749892316758632659912109375</LatitudeDegrees>
              <LongitudeDegrees>-0.53653257898986339569091796875</LongitudeDegrees>
            </Position>
            <AltitudeMeters>95</AltitudeMeters>
            <DistanceMeters>10603.601204668</DistanceMeters>
          </Trackpoint>
          <Trackpoint>
            <Time>2021-10-09T07:11:38.000Z</Time>
            <Position>
              <LatitudeDegrees>39.475005827844142913818359375</LatitudeDegrees>
              <LongitudeDegrees>-0.5366116203367710113525390625</LongitudeDegrees>
            </Position>
            <AltitudeMeters>95</AltitudeMeters>
            <DistanceMeters>10610.63895781</DistanceMeters>
          </Trackpoint>
          <Trackpoint>
            <Time>2021-10-09T07:11:39.000Z</Time>
            <Position>
              <LatitudeDegrees>39.47502519004046916961669921875</LatitudeDegrees>
              <LongitudeDegrees>-0.53668898530304431915283203125</LongitudeDegrees>
            </Position>
            <AltitudeMeters>95.1999969482421875</AltitudeMeters>
            <DistanceMeters>10617.625845047</DistanceMeters>
          </Trackpoint>
          <Trackpoint>
            <Time>2021-10-09T07:11:40.000Z</Time>
            <Position>
              <LatitudeDegrees>39.4750472344458103179931640625</LatitudeDegrees>
              <LongitudeDegrees>-0.53676442243158817291259765625</LongitudeDegrees>
            </Position>
            <AltitudeMeters>95.40000152587890625</AltitudeMeters>
            <DistanceMeters>10624.55628346</DistanceMeters>
          </Trackpoint>
          <Trackpoint>
            <Time>2021-10-09T07:11:41.000Z</Time>
            <Position>
              <LatitudeDegrees>39.47506777010858058929443359375</LatitudeDegrees>
              <LongitudeDegrees>-0.5368402786552906036376953125</LongitudeDegrees>
            </Position>
            <AltitudeMeters>95</AltitudeMeters>
            <DistanceMeters>10631.462575068</DistanceMeters>
          </Trackpoint>
          <Trackpoint>
            <Time>2021-10-09T07:11:42.000Z</Time>
            <Position>
              <LatitudeDegrees>39.475086294114589691162109375</LatitudeDegrees>
              <LongitudeDegrees>-0.53691697306931018829345703125</LongitudeDegrees>
            </Position>
            <AltitudeMeters>95</AltitudeMeters>
            <DistanceMeters>10638.366905126</DistanceMeters>
          </Trackpoint>
          <Trackpoint>
            <Time>2021-10-09T07:11:43.000Z</Time>
            <Position>
              <LatitudeDegrees>39.475103728473186492919921875</LatitudeDegrees>
              <LongitudeDegrees>-0.53699458949267864227294921875</LongitudeDegrees>
            </Position>
            <AltitudeMeters>95.40000152587890625</AltitudeMeters>
            <DistanceMeters>10645.312311404</DistanceMeters>
          </Trackpoint>
          <Trackpoint>
            <Time>2021-10-09T07:11:44.000Z</Time>
            <Position>
              <LatitudeDegrees>39.4751226715743541717529296875</LatitudeDegrees>
              <LongitudeDegrees>-0.53706876933574676513671875</LongitudeDegrees>
            </Position>
            <AltitudeMeters>95.40000152587890625</AltitudeMeters>
            <DistanceMeters>10652.02499205</DistanceMeters>
          </Trackpoint>
          <Trackpoint>
            <Time>2021-10-09T07:11:45.000Z</Time>
            <Position>
              <LatitudeDegrees>39.47514002211391925811767578125</LatitudeDegrees>
              <LongitudeDegrees>-0.5371467210352420806884765625</LongitudeDegrees>
            </Position>
            <AltitudeMeters>95.40000152587890625</AltitudeMeters>
            <DistanceMeters>10658.995057421</DistanceMeters>
          </Trackpoint>
          <Trackpoint>
            <Time>2021-10-09T07:11:46.000Z</Time>
            <Position>
              <LatitudeDegrees>39.47515578009188175201416015625</LatitudeDegrees>
              <LongitudeDegrees>-0.537227690219879150390625</LongitudeDegrees>
            </Position>
            <AltitudeMeters>95.40000152587890625</AltitudeMeters>
            <DistanceMeters>10666.168787667</DistanceMeters>
          </Trackpoint>
          <Trackpoint>
            <Time>2021-10-09T07:11:47.000Z</Time>
            <Position>
              <LatitudeDegrees>39.47517354972660541534423828125</LatitudeDegrees>
              <LongitudeDegrees>-0.53730488754808902740478515625</LongitudeDegrees>
            </Position>
            <AltitudeMeters>95.40000152587890625</AltitudeMeters>
            <DistanceMeters>10673.090751667</DistanceMeters>
          </Trackpoint>
          <Trackpoint>
            <Time>2021-10-09T07:11:48.000Z</Time>
            <Position>
              <LatitudeDegrees>39.4751914031803607940673828125</LatitudeDegrees>
              <LongitudeDegrees>-0.5373827554285526275634765625</LongitudeDegrees>
            </Position>
            <AltitudeMeters>95.40000152587890625</AltitudeMeters>
            <DistanceMeters>10680.069880004</DistanceMeters>
          </Trackpoint>
          <Trackpoint>
            <Time>2021-10-09T07:11:49.000Z</Time>
            <Position>
              <LatitudeDegrees>39.47520791552960872650146484375</LatitudeDegrees>
              <LongitudeDegrees>-0.53745810873806476593017578125</LongitudeDegrees>
            </Position>
            <AltitudeMeters>95.40000152587890625</AltitudeMeters>
            <DistanceMeters>10686.800696709</DistanceMeters>
          </Trackpoint>
          <Trackpoint>
            <Time>2021-10-09T07:11:50.000Z</Time>
            <Position>
              <LatitudeDegrees>39.47522400878369808197021484375</LatitudeDegrees>
              <LongitudeDegrees>-0.53753371350467205047607421875</LongitudeDegrees>
            </Position>
            <AltitudeMeters>95.40000152587890625</AltitudeMeters>
            <DistanceMeters>10693.538888184</DistanceMeters>
          </Trackpoint>
          <Trackpoint>
            <Time>2021-10-09T07:11:51.000Z</Time>
            <Position>
              <LatitudeDegrees>39.4752403534948825836181640625</LatitudeDegrees>
              <LongitudeDegrees>-0.53761065937578678131103515625</LongitudeDegrees>
            </Position>
            <AltitudeMeters>95.40000152587890625</AltitudeMeters>
            <DistanceMeters>10700.395314219</DistanceMeters>
          </Trackpoint>
          <Trackpoint>
            <Time>2021-10-09T07:11:52.000Z</Time>
            <Position>
              <LatitudeDegrees>39.47525971569120883941650390625</LatitudeDegrees>
              <LongitudeDegrees>-0.5376861803233623504638671875</LongitudeDegrees>
            </Position>
            <AltitudeMeters>95.40000152587890625</AltitudeMeters>
            <DistanceMeters>10707.231295904</DistanceMeters>
          </Trackpoint>
          <Trackpoint>
            <Time>2021-10-09T07:11:53.000Z</Time>
            <Position>
              <LatitudeDegrees>39.47527949698269367218017578125</LatitudeDegrees>
              <LongitudeDegrees>-0.53776170127093791961669921875</LongitudeDegrees>
            </Position>
            <AltitudeMeters>95.59999847412109375</AltitudeMeters>
            <DistanceMeters>10714.082451818</DistanceMeters>
          </Trackpoint>
          <Trackpoint>
            <Time>2021-10-09T07:11:54.000Z</Time>
            <Position>
              <LatitudeDegrees>39.4752953387796878814697265625</LatitudeDegrees>
              <LongitudeDegrees>-0.537839569151401519775390625</LongitudeDegrees>
            </Position>
            <AltitudeMeters>95.59999847412109375</AltitudeMeters>
            <DistanceMeters>10721.000501048</DistanceMeters>
          </Trackpoint>
          <Trackpoint>
            <Time>2021-10-09T07:11:55.000Z</Time>
            <Position>
              <LatitudeDegrees>39.47531151585280895233154296875</LatitudeDegrees>
              <LongitudeDegrees>-0.537916682660579681396484375</LongitudeDegrees>
            </Position>
            <AltitudeMeters>95.8000030517578125</AltitudeMeters>
            <DistanceMeters>10727.86614006</DistanceMeters>
          </Trackpoint>
          <Trackpoint>
            <Time>2021-10-09T07:11:56.000Z</Time>
            <Position>
              <LatitudeDegrees>39.4753248430788516998291015625</LatitudeDegrees>
              <LongitudeDegrees>-0.5379936285316944122314453125</LongitudeDegrees>
            </Position>
            <AltitudeMeters>95.8000030517578125</AltitudeMeters>
            <DistanceMeters>10734.641084972</DistanceMeters>
          </Trackpoint>
          <Trackpoint>
            <Time>2021-10-09T07:11:57.000Z</Time>
            <Position>
              <LatitudeDegrees>39.475339762866497039794921875</LatitudeDegrees>
              <LongitudeDegrees>-0.5380690656602382659912109375</LongitudeDegrees>
            </Position>
            <AltitudeMeters>96</AltitudeMeters>
            <DistanceMeters>10741.33153256</DistanceMeters>
          </Trackpoint>
          <Trackpoint>
            <Time>2021-10-09T07:11:58.000Z</Time>
            <Position>
              <LatitudeDegrees>39.47535577230155467987060546875</LatitudeDegrees>
              <LongitudeDegrees>-0.5381431616842746734619140625</LongitudeDegrees>
            </Position>
            <AltitudeMeters>96</AltitudeMeters>
            <DistanceMeters>10747.9418684</DistanceMeters>
          </Trackpoint>
          <Trackpoint>
            <Time>2021-10-09T07:11:59.000Z</Time>
            <Position>
              <LatitudeDegrees>39.475371949374675750732421875</LatitudeDegrees>
              <LongitudeDegrees>-0.5382165871560573577880859375</LongitudeDegrees>
            </Position>
            <AltitudeMeters>96</AltitudeMeters>
            <DistanceMeters>10754.502153785</DistanceMeters>
          </Trackpoint>
          <Trackpoint>
            <Time>2021-10-09T07:12:00.000Z</Time>
            <Position>
              <LatitudeDegrees>39.47538770735263824462890625</LatitudeDegrees>
              <LongitudeDegrees>-0.5382886715233325958251953125</LongitudeDegrees>
            </Position>
            <AltitudeMeters>96</AltitudeMeters>
            <DistanceMeters>10760.938767081</DistanceMeters>
          </Trackpoint>
          <Trackpoint>
            <Time>2021-10-09T07:12:01.000Z</Time>
            <Position>
              <LatitudeDegrees>39.4754044711589813232421875</LatitudeDegrees>
              <LongitudeDegrees>-0.5383594147861003875732421875</LongitudeDegrees>
            </Position>
            <AltitudeMeters>96</AltitudeMeters>
            <DistanceMeters>10767.297751459</DistanceMeters>
          </Trackpoint>
          <Trackpoint>
            <Time>2021-10-09T07:12:02.000Z</Time>
            <Position>
              <LatitudeDegrees>39.475424252450466156005859375</LatitudeDegrees>
              <LongitudeDegrees>-0.53843108005821704864501953125</LongitudeDegrees>
            </Position>
            <AltitudeMeters>96</AltitudeMeters>
            <DistanceMeters>10773.837357107</DistanceMeters>
          </Trackpoint>
          <Trackpoint>
            <Time>2021-10-09T07:12:03.000Z</Time>
            <Position>
              <LatitudeDegrees>39.4754529185593128204345703125</LatitudeDegrees>
              <LongitudeDegrees>-0.53849427960813045501708984375</LongitudeDegrees>
            </Position>
            <AltitudeMeters>96</AltitudeMeters>
            <DistanceMeters>10780.135700208</DistanceMeters>
          </Trackpoint>
          <Trackpoint>
            <Time>2021-10-09T07:12:04.000Z</Time>
            <Position>
              <LatitudeDegrees>39.475496672093868255615234375</LatitudeDegrees>
              <LongitudeDegrees>-0.5385459959506988525390625</LongitudeDegrees>
            </Position>
            <AltitudeMeters>96</AltitudeMeters>
            <DistanceMeters>10786.727568521</DistanceMeters>
          </Trackpoint>
          <Trackpoint>
            <Time>2021-10-09T07:12:05.000Z</Time>
            <Position>
              <LatitudeDegrees>39.47555241174995899200439453125</LatitudeDegrees>
              <LongitudeDegrees>-0.538571812212467193603515625</LongitudeDegrees>
            </Position>
            <AltitudeMeters>96</AltitudeMeters>
            <DistanceMeters>10793.316696501</DistanceMeters>
          </Trackpoint>
          <Trackpoint>
            <Time>2021-10-09T07:12:06.000Z</Time>
            <Position>
              <LatitudeDegrees>39.47561242617666721343994140625</LatitudeDegrees>
              <LongitudeDegrees>-0.5385726504027843475341796875</LongitudeDegrees>
            </Position>
            <AltitudeMeters>96</AltitudeMeters>
            <DistanceMeters>10799.997013693</DistanceMeters>
          </Trackpoint>
          <Trackpoint>
            <Time>2021-10-09T07:12:07.000Z</Time>
            <Position>
              <LatitudeDegrees>39.475672356784343719482421875</LatitudeDegrees>
              <LongitudeDegrees>-0.53855714388191699981689453125</LongitudeDegrees>
            </Position>
            <AltitudeMeters>96</AltitudeMeters>
            <DistanceMeters>10806.799227428</DistanceMeters>
          </Trackpoint>
          <Trackpoint>
            <Time>2021-10-09T07:12:08.000Z</Time>
            <Position>
              <LatitudeDegrees>39.4757322035729885101318359375</LatitudeDegrees>
              <LongitudeDegrees>-0.538534931838512420654296875</LongitudeDegrees>
            </Position>
            <AltitudeMeters>96</AltitudeMeters>
            <DistanceMeters>10813.728362761</DistanceMeters>
          </Trackpoint>
          <Trackpoint>
            <Time>2021-10-09T07:12:09.000Z</Time>
            <Position>
              <LatitudeDegrees>39.47579406201839447021484375</LatitudeDegrees>
              <LongitudeDegrees>-0.5385138094425201416015625</LongitudeDegrees>
            </Position>
            <AltitudeMeters>96.1999969482421875</AltitudeMeters>
            <DistanceMeters>10820.849028406</DistanceMeters>
          </Trackpoint>
          <Trackpoint>
            <Time>2021-10-09T07:12:10.000Z</Time>
            <Position>
              <LatitudeDegrees>39.4758577644824981689453125</LatitudeDegrees>
              <LongitudeDegrees>-0.5384950339794158935546875</LongitudeDegrees>
            </Position>
            <AltitudeMeters>96.1999969482421875</AltitudeMeters>
            <DistanceMeters>10828.119658881</DistanceMeters>
          </Trackpoint>
          <Trackpoint>
            <Time>2021-10-09T07:12:11.000Z</Time>
            <Position>
              <LatitudeDegrees>39.47592121548950672149658203125</LatitudeDegrees>
              <LongitudeDegrees>-0.5384737439453601837158203125</LongitudeDegrees>
            </Position>
            <AltitudeMeters>96</AltitudeMeters>
            <DistanceMeters>10835.41508694</DistanceMeters>
          </Trackpoint>
          <Trackpoint>
            <Time>2021-10-09T07:12:12.000Z</Time>
            <Position>
              <LatitudeDegrees>39.4759833253920078277587890625</LatitudeDegrees>
              <LongitudeDegrees>-0.53845010697841644287109375</LongitudeDegrees>
            </Position>
            <AltitudeMeters>96</AltitudeMeters>
            <DistanceMeters>10842.619591045</DistanceMeters>
          </Trackpoint>
          <Trackpoint>
            <Time>2021-10-09T07:12:13.000Z</Time>
            <Position>
              <LatitudeDegrees>39.47604627348482608795166015625</LatitudeDegrees>
              <LongitudeDegrees>-0.5384244583547115325927734375</LongitudeDegrees>
            </Position>
            <AltitudeMeters>96</AltitudeMeters>
            <DistanceMeters>10849.96313355</DistanceMeters>
          </Trackpoint>
          <Trackpoint>
            <Time>2021-10-09T07:12:14.000Z</Time>
            <Position>
              <LatitudeDegrees>39.476109556853771209716796875</LatitudeDegrees>
              <LongitudeDegrees>-0.53839906118810176849365234375</LongitudeDegrees>
            </Position>
            <AltitudeMeters>96</AltitudeMeters>
            <DistanceMeters>10857.336128883</DistanceMeters>
          </Trackpoint>
          <Trackpoint>
            <Time>2021-10-09T07:12:15.000Z</Time>
            <Position>
              <LatitudeDegrees>39.47617300786077976226806640625</LatitudeDegrees>
              <LongitudeDegrees>-0.53837391547858715057373046875</LongitudeDegrees>
            </Position>
            <AltitudeMeters>96</AltitudeMeters>
            <DistanceMeters>10864.721361562</DistanceMeters>
          </Trackpoint>
          <Trackpoint>
            <Time>2021-10-09T07:12:16.000Z</Time>
            <Position>
              <LatitudeDegrees>39.47623570449650287628173828125</LatitudeDegrees>
              <LongitudeDegrees>-0.53834952414035797119140625</LongitudeDegrees>
            </Position>
            <AltitudeMeters>96</AltitudeMeters>
            <DistanceMeters>10872.006880716</DistanceMeters>
          </Trackpoint>
          <Trackpoint>
            <Time>2021-10-09T07:12:17.000Z</Time>
            <Position>
              <LatitudeDegrees>39.47630192153155803680419921875</LatitudeDegrees>
              <LongitudeDegrees>-0.53833016194403171539306640625</LongitudeDegrees>
            </Position>
            <AltitudeMeters>96</AltitudeMeters>
            <DistanceMeters>10879.562550328</DistanceMeters>
          </Trackpoint>
          <Trackpoint>
            <Time>2021-10-09T07:12:18.000Z</Time>
            <Position>
              <LatitudeDegrees>39.47636671364307403564453125</LatitudeDegrees>
              <LongitudeDegrees>-0.53831440396606922149658203125</LongitudeDegrees>
            </Position>
            <AltitudeMeters>96</AltitudeMeters>
            <DistanceMeters>10886.899941946</DistanceMeters>
          </Trackpoint>
          <Trackpoint>
            <Time>2021-10-09T07:12:19.000Z</Time>
            <Position>
              <LatitudeDegrees>39.4764317572116851806640625</LatitudeDegrees>
              <LongitudeDegrees>-0.53829495795071125030517578125</LongitudeDegrees>
            </Position>
            <AltitudeMeters>96</AltitudeMeters>
            <DistanceMeters>10894.329669888</DistanceMeters>
          </Trackpoint>
          <Trackpoint>
            <Time>2021-10-09T07:12:20.000Z</Time>
            <Position>
              <LatitudeDegrees>39.47649705223739147186279296875</LatitudeDegrees>
              <LongitudeDegrees>-0.53827132098376750946044921875</LongitudeDegrees>
            </Position>
            <AltitudeMeters>95.8000030517578125</AltitudeMeters>
            <DistanceMeters>10901.87457558</DistanceMeters>
          </Trackpoint>
          <Trackpoint>
            <Time>2021-10-09T07:12:21.000Z</Time>
            <Position>
              <LatitudeDegrees>39.4765631854534149169921875</LatitudeDegrees>
              <LongitudeDegrees>-0.53824491798877716064453125</LongitudeDegrees>
            </Position>
            <AltitudeMeters>95.8000030517578125</AltitudeMeters>
            <DistanceMeters>10909.577016897</DistanceMeters>
          </Trackpoint>
          <Trackpoint>
            <Time>2021-10-09T07:12:22.000Z</Time>
            <Position>
              <LatitudeDegrees>39.47662831284105777740478515625</LatitudeDegrees>
              <LongitudeDegrees>-0.53821901790797710418701171875</LongitudeDegrees>
            </Position>
            <AltitudeMeters>95.8000030517578125</AltitudeMeters>
            <DistanceMeters>10917.159529457</DistanceMeters>
          </Trackpoint>
          <Trackpoint>
            <Time>2021-10-09T07:12:23.000Z</Time>
            <Position>
              <LatitudeDegrees>39.4766914285719394683837890625</LatitudeDegrees>
              <LongitudeDegrees>-0.5381924472749233245849609375</LongitudeDegrees>
            </Position>
            <AltitudeMeters>95.59999847412109375</AltitudeMeters>
            <DistanceMeters>10924.545373471</DistanceMeters>
          </Trackpoint>
          <Trackpoint>
            <Time>2021-10-09T07:12:24.000Z</Time>
            <Position>
              <LatitudeDegrees>39.47675538249313831329345703125</LatitudeDegrees>
              <LongitudeDegrees>-0.53816872648894786834716796875</LongitudeDegrees>
            </Position>
            <AltitudeMeters>95.59999847412109375</AltitudeMeters>
            <DistanceMeters>10931.948924242</DistanceMeters>
          </Trackpoint>
          <Trackpoint>
            <Time>2021-10-09T07:12:25.000Z</Time>
            <Position>
              <LatitudeDegrees>39.47681891731917858123779296875</LatitudeDegrees>
              <LongitudeDegrees>-0.53814710117876529693603515625</LongitudeDegrees>
            </Position>
            <AltitudeMeters>95.59999847412109375</AltitudeMeters>
            <DistanceMeters>10939.261043129</DistanceMeters>
          </Trackpoint>
          <Trackpoint>
            <Time>2021-10-09T07:12:26.000Z</Time>
            <Position>
              <LatitudeDegrees>39.47688169777393341064453125</LatitudeDegrees>
              <LongitudeDegrees>-0.53812145255506038665771484375</LongitudeDegrees>
            </Position>
            <AltitudeMeters>95.59999847412109375</AltitudeMeters>
            <DistanceMeters>10946.587350138</DistanceMeters>
          </Trackpoint>
          <Trackpoint>
            <Time>2021-10-09T07:12:27.000Z</Time>
            <Position>
              <LatitudeDegrees>39.476945064961910247802734375</LatitudeDegrees>
              <LongitudeDegrees>-0.5380989052355289459228515625</LongitudeDegrees>
            </Position>
            <AltitudeMeters>95.40000152587890625</AltitudeMeters>
            <DistanceMeters>10953.90132121</DistanceMeters>
          </Trackpoint>
          <Trackpoint>
            <Time>2021-10-09T07:12:28.000Z</Time>
            <Position>
              <LatitudeDegrees>39.47700784541666507720947265625</LatitudeDegrees>
              <LongitudeDegrees>-0.5380965583026409149169921875</LongitudeDegrees>
            </Position>
            <AltitudeMeters>95.40000152587890625</AltitudeMeters>
            <DistanceMeters>10960.892084668</DistanceMeters>
          </Trackpoint>
          <Trackpoint>
            <Time>2021-10-09T07:12:29.000Z</Time>
            <Position>
              <LatitudeDegrees>39.47706333361566066741943359375</LatitudeDegrees>
              <LongitudeDegrees>-0.53812212310731410980224609375</LongitudeDegrees>
            </Position>
            <AltitudeMeters>95.40000152587890625</AltitudeMeters>
            <DistanceMeters>10967.446861835</DistanceMeters>
          </Trackpoint>
          <Trackpoint>
            <Time>2021-10-09T07:12:30.000Z</Time>
            <Position>
              <LatitudeDegrees>39.47710298001766204833984375</LatitudeDegrees>
              <LongitudeDegrees>-0.53817409090697765350341796875</LongitudeDegrees>
            </Position>
            <AltitudeMeters>95.40000152587890625</AltitudeMeters>
            <DistanceMeters>10973.723662256</DistanceMeters>
          </Trackpoint>
          <Trackpoint>
            <Time>2021-10-09T07:12:31.000Z</Time>
            <Position>
              <LatitudeDegrees>39.47712351568043231964111328125</LatitudeDegrees>
              <LongitudeDegrees>-0.5382420681416988372802734375</LongitudeDegrees>
            </Position>
            <AltitudeMeters>95.40000152587890625</AltitudeMeters>
            <DistanceMeters>10979.995425405</DistanceMeters>
          </Trackpoint>
          <Trackpoint>
            <Time>2021-10-09T07:12:32.000Z</Time>
            <Position>
              <LatitudeDegrees>39.4771269522607326507568359375</LatitudeDegrees>
              <LongitudeDegrees>-0.53831943310797214508056640625</LongitudeDegrees>
            </Position>
            <AltitudeMeters>95.40000152587890625</AltitudeMeters>
            <DistanceMeters>10986.652723294</DistanceMeters>
          </Trackpoint>
          <Trackpoint>
            <Time>2021-10-09T07:12:33.000Z</Time>
            <Position>
              <LatitudeDegrees>39.47712100110948085784912109375</LatitudeDegrees>
              <LongitudeDegrees>-0.53840157575905323028564453125</LongitudeDegrees>
            </Position>
            <AltitudeMeters>95.40000152587890625</AltitudeMeters>
            <DistanceMeters>10993.740977334</DistanceMeters>
          </Trackpoint>
          <Trackpoint>
            <Time>2021-10-09T07:12:34.000Z</Time>
            <Position>
              <LatitudeDegrees>39.47711597196757793426513671875</LatitudeDegrees>
              <LongitudeDegrees>-0.53848455660045146942138671875</LongitudeDegrees>
            </Position>
            <AltitudeMeters>95.40000152587890625</AltitudeMeters>
            <DistanceMeters>11000.891382415</DistanceMeters>
          </Trackpoint>
          <Trackpoint>
            <Time>2021-10-09T07:12:35.000Z</Time>
            <Position>
              <LatitudeDegrees>39.47711077518761157989501953125</LatitudeDegrees>
              <LongitudeDegrees>-0.5385696329176425933837890625</LongitudeDegrees>
            </Position>
            <AltitudeMeters>95.40000152587890625</AltitudeMeters>
            <DistanceMeters>11008.223233823</DistanceMeters>
          </Trackpoint>
          <Trackpoint>
            <Time>2021-10-09T07:12:36.000Z</Time>
            <Position>
              <LatitudeDegrees>39.4771028123795986175537109375</LatitudeDegrees>
              <LongitudeDegrees>-0.53865395486354827880859375</LongitudeDegrees>
            </Position>
            <AltitudeMeters>95.1999969482421875</AltitudeMeters>
            <DistanceMeters>11015.521137006</DistanceMeters>
          </Trackpoint>
          <Trackpoint>
            <Time>2021-10-09T07:12:37.000Z</Time>
            <Position>
              <LatitudeDegrees>39.47709166444838047027587890625</LatitudeDegrees>
              <LongitudeDegrees>-0.53875386714935302734375</LongitudeDegrees>
            </Position>
            <AltitudeMeters>95.1999969482421875</AltitudeMeters>
            <DistanceMeters>11024.193593792</DistanceMeters>
          </Trackpoint>
          <Trackpoint>
            <Time>2021-10-09T07:12:38.000Z</Time>
            <Position>
              <LatitudeDegrees>39.4770837016403675079345703125</LatitudeDegrees>
              <LongitudeDegrees>-0.53882025182247161865234375</LongitudeDegrees>
            </Position>
            <AltitudeMeters>95.1999969482421875</AltitudeMeters>
            <DistanceMeters>11029.965244509</DistanceMeters>
          </Trackpoint>
          <Trackpoint>
            <Time>2021-10-09T07:12:39.000Z</Time>
            <Position>
              <LatitudeDegrees>39.47707347571849822998046875</LatitudeDegrees>
              <LongitudeDegrees>-0.538901388645172119140625</LongitudeDegrees>
            </Position>
            <AltitudeMeters>95.1999969482421875</AltitudeMeters>
            <DistanceMeters>11037.027973605</DistanceMeters>
          </Trackpoint>
          <Trackpoint>
            <Time>2021-10-09T07:12:40.000Z</Time>
            <Position>
              <LatitudeDegrees>39.47706568054854869842529296875</LatitudeDegrees>
              <LongitudeDegrees>-0.5389803461730480194091796875</LongitudeDegrees>
            </Position>
            <AltitudeMeters>95.1999969482421875</AltitudeMeters>
            <DistanceMeters>11043.867256899</DistanceMeters>
          </Trackpoint>
          <Trackpoint>
            <Time>2021-10-09T07:12:41.000Z</Time>
            <Position>
              <LatitudeDegrees>39.47705847211182117462158203125</LatitudeDegrees>
              <LongitudeDegrees>-0.53906257264316082000732421875</LongitudeDegrees>
            </Position>
            <AltitudeMeters>95.1999969482421875</AltitudeMeters>
            <DistanceMeters>11050.977770102</DistanceMeters>
          </Trackpoint>
          <Trackpoint>
            <Time>2021-10-09T07:12:42.000Z</Time>
            <Position>
              <LatitudeDegrees>39.47705201804637908935546875</LatitudeDegrees>
              <LongitudeDegrees>-0.53916080854833126068115234375</LongitudeDegrees>
            </Position>
            <AltitudeMeters>95.1999969482421875</AltitudeMeters>
            <DistanceMeters>11059.448483615</DistanceMeters>
          </Trackpoint>
          <Trackpoint>
            <Time>2021-10-09T07:12:43.000Z</Time>
            <Position>
              <LatitudeDegrees>39.47704556398093700408935546875</LatitudeDegrees>
              <LongitudeDegrees>-0.53922652266919612884521484375</LongitudeDegrees>
            </Position>
            <AltitudeMeters>95.1999969482421875</AltitudeMeters>
            <DistanceMeters>11065.140575874</DistanceMeters>
          </Trackpoint>
          <Trackpoint>
            <Time>2021-10-09T07:12:44.000Z</Time>
            <Position>
              <LatitudeDegrees>39.47703986428678035736083984375</LatitudeDegrees>
              <LongitudeDegrees>-0.5393075756728649139404296875</LongitudeDegrees>
            </Position>
            <AltitudeMeters>95.1999969482421875</AltitudeMeters>
            <DistanceMeters>11072.133276636</DistanceMeters>
          </Trackpoint>
          <Trackpoint>
            <Time>2021-10-09T07:12:45.000Z</Time>
            <Position>
              <LatitudeDegrees>39.477035589516162872314453125</LatitudeDegrees>
              <LongitudeDegrees>-0.5393887124955654144287109375</LongitudeDegrees>
            </Position>
            <AltitudeMeters>95.1999969482421875</AltitudeMeters>
            <DistanceMeters>11079.120163872</DistanceMeters>
          </Trackpoint>
          <Trackpoint>
            <Time>2021-10-09T07:12:46.000Z</Time>
            <Position>
              <LatitudeDegrees>39.47702930308878421783447265625</LatitudeDegrees>
              <LongitudeDegrees>-0.539471693336963653564453125</LongitudeDegrees>
            </Position>
            <AltitudeMeters>95.1999969482421875</AltitudeMeters>
            <DistanceMeters>11086.283186583</DistanceMeters>
          </Trackpoint>
          <Trackpoint>
            <Time>2021-10-09T07:12:47.000Z</Time>
            <Position>
              <LatitudeDegrees>39.4770213402807712554931640625</LatitudeDegrees>
              <LongitudeDegrees>-0.53955442272126674652099609375</LongitudeDegrees>
            </Position>
            <AltitudeMeters>95.1999969482421875</AltitudeMeters>
            <DistanceMeters>11093.44557894</DistanceMeters>
          </Trackpoint>
          <Trackpoint>
            <Time>2021-10-09T07:12:48.000Z</Time>
            <Position>
              <LatitudeDegrees>39.47701304219663143157958984375</LatitudeDegrees>
              <LongitudeDegrees>-0.5396349728107452392578125</LongitudeDegrees>
            </Position>
            <AltitudeMeters>95.1999969482421875</AltitudeMeters>
            <DistanceMeters>11100.427294535</DistanceMeters>
          </Trackpoint>
          <Trackpoint>
            <Time>2021-10-09T07:12:49.000Z</Time>
            <Position>
              <LatitudeDegrees>39.47700248099863529205322265625</LatitudeDegrees>
              <LongitudeDegrees>-0.53972817957401275634765625</LongitudeDegrees>
            </Position>
            <AltitudeMeters>95.1999969482421875</AltitudeMeters>
            <DistanceMeters>11108.520759462</DistanceMeters>
          </Trackpoint>
          <Trackpoint>
            <Time>2021-10-09T07:12:50.000Z</Time>
            <Position>
              <LatitudeDegrees>39.4769972003996372222900390625</LatitudeDegrees>
              <LongitudeDegrees>-0.53979163058102130889892578125</LongitudeDegrees>
            </Position>
            <AltitudeMeters>95.1999969482421875</AltitudeMeters>
            <DistanceMeters>11114.004385503</DistanceMeters>
          </Trackpoint>
          <Trackpoint>
            <Time>2021-10-09T07:12:51.000Z</Time>
            <Position>
              <LatitudeDegrees>39.47699141688644886016845703125</LatitudeDegrees>
              <LongitudeDegrees>-0.53987109102308750152587890625</LongitudeDegrees>
            </Position>
            <AltitudeMeters>95.1999969482421875</AltitudeMeters>
            <DistanceMeters>11120.861470018</DistanceMeters>
          </Trackpoint>
          <Trackpoint>
            <Time>2021-10-09T07:12:52.000Z</Time>
            <Position>
              <LatitudeDegrees>39.47698471136391162872314453125</LatitudeDegrees>
              <LongitudeDegrees>-0.53995071910321712493896484375</LongitudeDegrees>
            </Position>
            <AltitudeMeters>95.1999969482421875</AltitudeMeters>
            <DistanceMeters>11127.742874008</DistanceMeters>
          </Trackpoint>
          <Trackpoint>
            <Time>2021-10-09T07:12:53.000Z</Time>
            <Position>
              <LatitudeDegrees>39.47697733528912067413330078125</LatitudeDegrees>
              <LongitudeDegrees>-0.54002992808818817138671875</LongitudeDegrees>
            </Position>
            <AltitudeMeters>95.1999969482421875</AltitudeMeters>
            <DistanceMeters>11134.596665488</DistanceMeters>
          </Trackpoint>
          <Trackpoint>
            <Time>2021-10-09T07:12:54.000Z</Time>
            <Position>
              <LatitudeDegrees>39.47697247378528118133544921875</LatitudeDegrees>
              <LongitudeDegrees>-0.54010695777833461761474609375</LongitudeDegrees>
            </Position>
            <AltitudeMeters>95.1999969482421875</AltitudeMeters>
            <DistanceMeters>11141.236306533</DistanceMeters>
          </Trackpoint>
          <Trackpoint>
            <Time>2021-10-09T07:12:55.000Z</Time>
            <Position>
              <LatitudeDegrees>39.476966522634029388427734375</LatitudeDegrees>
              <LongitudeDegrees>-0.54018524475395679473876953125</LongitudeDegrees>
            </Position>
            <AltitudeMeters>95.1999969482421875</AltitudeMeters>
            <DistanceMeters>11147.994570116</DistanceMeters>
          </Trackpoint>
          <Trackpoint>
            <Time>2021-10-09T07:12:56.000Z</Time>
            <Position>
              <LatitudeDegrees>39.47696057148277759552001953125</LatitudeDegrees>
              <LongitudeDegrees>-0.54026252590119838714599609375</LongitudeDegrees>
            </Position>
            <AltitudeMeters>95.40000152587890625</AltitudeMeters>
            <DistanceMeters>11154.666771916</DistanceMeters>
          </Trackpoint>
          <Trackpoint>
            <Time>2021-10-09T07:12:57.000Z</Time>
            <Position>
              <LatitudeDegrees>39.47695369832217693328857421875</LatitudeDegrees>
              <LongitudeDegrees>-0.54033896885812282562255859375</LongitudeDegrees>
            </Position>
            <AltitudeMeters>95.59999847412109375</AltitudeMeters>
            <DistanceMeters>11161.27915652</DistanceMeters>
          </Trackpoint>
          <Trackpoint>
            <Time>2021-10-09T07:12:58.000Z</Time>
            <Position>
              <LatitudeDegrees>39.4769432209432125091552734375</LatitudeDegrees>
              <LongitudeDegrees>-0.54043284617364406585693359375</LongitudeDegrees>
            </Position>
            <AltitudeMeters>95.59999847412109375</AltitudeMeters>
            <DistanceMeters>11169.428216721</DistanceMeters>
          </Trackpoint>
          <Trackpoint>
            <Time>2021-10-09T07:12:59.000Z</Time>
            <Position>
              <LatitudeDegrees>39.47693794034421443939208984375</LatitudeDegrees>
              <LongitudeDegrees>-0.54049420170485973358154296875</LongitudeDegrees>
            </Position>
            <AltitudeMeters>95.59999847412109375</AltitudeMeters>
            <DistanceMeters>11174.731865288</DistanceMeters>
          </Trackpoint>
          <Trackpoint>
            <Time>2021-10-09T07:13:00.000Z</Time>
            <Position>
              <LatitudeDegrees>39.47692972607910633087158203125</LatitudeDegrees>
              <LongitudeDegrees>-0.54057181812822818756103515625</LongitudeDegrees>
            </Position>
            <AltitudeMeters>95.8000030517578125</AltitudeMeters>
            <DistanceMeters>11181.462011159</DistanceMeters>
          </Trackpoint>
          <Trackpoint>
            <Time>2021-10-09T07:13:01.000Z</Time>
            <Position>
              <LatitudeDegrees>39.476921595633029937744140625</LatitudeDegrees>
              <LongitudeDegrees>-0.540647841989994049072265625</LongitudeDegrees>
            </Position>
            <AltitudeMeters>95.8000030517578125</AltitudeMeters>
            <DistanceMeters>11188.05524921</DistanceMeters>
          </Trackpoint>
          <Trackpoint>
            <Time>2021-10-09T07:13:02.000Z</Time>
            <Position>
              <LatitudeDegrees>39.4769132137298583984375</LatitudeDegrees>
              <LongitudeDegrees>-0.54072420112788677215576171875</LongitudeDegrees>
            </Position>
            <AltitudeMeters>95.8000030517578125</AltitudeMeters>
            <DistanceMeters>11194.681276049</DistanceMeters>
          </Trackpoint>
          <Trackpoint>
            <Time>2021-10-09T07:13:03.000Z</Time>
            <Position>
              <LatitudeDegrees>39.47690675966441631317138671875</LatitudeDegrees>
              <LongitudeDegrees>-0.54080014117062091827392578125</LongitudeDegrees>
            </Position>
            <AltitudeMeters>95.8000030517578125</AltitudeMeters>
            <DistanceMeters>11201.244313809</DistanceMeters>
          </Trackpoint>
          <Trackpoint>
            <Time>2021-10-09T07:13:04.000Z</Time>
            <Position>
              <LatitudeDegrees>39.47689921595156192779541015625</LatitudeDegrees>
              <LongitudeDegrees>-0.540877170860767364501953125</LongitudeDegrees>
            </Position>
            <AltitudeMeters>95.8000030517578125</AltitudeMeters>
            <DistanceMeters>11207.915162085</DistanceMeters>
          </Trackpoint>
          <Trackpoint>
            <Time>2021-10-09T07:13:05.000Z</Time>
            <Position>
              <LatitudeDegrees>39.476892091333866119384765625</LatitudeDegrees>
              <LongitudeDegrees>-0.54095336236059665679931640625</LongitudeDegrees>
            </Position>
            <AltitudeMeters>95.8000030517578125</AltitudeMeters>
            <DistanceMeters>11214.50976959</DistanceMeters>
          </Trackpoint>
          <Trackpoint>
            <Time>2021-10-09T07:13:06.000Z</Time>
            <Position>
              <LatitudeDegrees>39.47688630782067775726318359375</LatitudeDegrees>
              <LongitudeDegrees>-0.54102913476526737213134765625</LongitudeDegrees>
            </Position>
            <AltitudeMeters>96</AltitudeMeters>
            <DistanceMeters>11221.052136314</DistanceMeters>
          </Trackpoint>
          <Trackpoint>
            <Time>2021-10-09T07:13:07.000Z</Time>
            <Position>
              <LatitudeDegrees>39.47687976993620395660400390625</LatitudeDegrees>
              <LongitudeDegrees>-0.541100800037384033203125</LongitudeDegrees>
            </Position>
            <AltitudeMeters>96.1999969482421875</AltitudeMeters>
            <DistanceMeters>11227.252219815</DistanceMeters>
          </Trackpoint>
          <Trackpoint>
            <Time>2021-10-09T07:13:08.000Z</Time>
            <Position>
              <LatitudeDegrees>39.476873315870761871337890625</LatitudeDegrees>
              <LongitudeDegrees>-0.54117347113788127899169921875</LongitudeDegrees>
            </Position>
            <AltitudeMeters>96.1999969482421875</AltitudeMeters>
            <DistanceMeters>11233.536927793</DistanceMeters>
          </Trackpoint>
          <Trackpoint>
            <Time>2021-10-09T07:13:09.000Z</Time>
            <Position>
              <LatitudeDegrees>39.4768801890313625335693359375</LatitudeDegrees>
              <LongitudeDegrees>-0.54125745780766010284423828125</LongitudeDegrees>
            </Position>
            <AltitudeMeters>96.1999969482421875</AltitudeMeters>
            <DistanceMeters>11240.793883478</DistanceMeters>
          </Trackpoint>
          <Trackpoint>
            <Time>2021-10-09T07:13:10.000Z</Time>
            <Position>
              <LatitudeDegrees>39.47690122760832309722900390625</LatitudeDegrees>
              <LongitudeDegrees>-0.541304647922515869140625</LongitudeDegrees>
            </Position>
            <AltitudeMeters>96.1999969482421875</AltitudeMeters>
            <DistanceMeters>11245.47630012</DistanceMeters>
          </Trackpoint>
          <Trackpoint>
            <Time>2021-10-09T07:13:11.000Z</Time>
            <Position>
              <LatitudeDegrees>39.47694213129580020904541015625</LatitudeDegrees>
              <LongitudeDegrees>-0.54135301150381565093994140625</LongitudeDegrees>
            </Position>
            <AltitudeMeters>96.1999969482421875</AltitudeMeters>
            <DistanceMeters>11251.640597458</DistanceMeters>
          </Trackpoint>
          <Trackpoint>
            <Time>2021-10-09T07:13:12.000Z</Time>
            <Position>
              <LatitudeDegrees>39.47699225507676601409912109375</LatitudeDegrees>
              <LongitudeDegrees>-0.54139114916324615478515625</LongitudeDegrees>
            </Position>
            <AltitudeMeters>96.1999969482421875</AltitudeMeters>
            <DistanceMeters>11258.110793313</DistanceMeters>
          </Trackpoint>
          <Trackpoint>
            <Time>2021-10-09T07:13:13.000Z</Time>
            <Position>
              <LatitudeDegrees>39.47704656980931758880615234375</LatitudeDegrees>
              <LongitudeDegrees>-0.54142559878528118133544921875</LongitudeDegrees>
            </Position>
            <AltitudeMeters>96.1999969482421875</AltitudeMeters>
            <DistanceMeters>11264.841610018</DistanceMeters>
          </Trackpoint>
          <Trackpoint>
            <Time>2021-10-09T07:13:14.000Z</Time>
            <Position>
              <LatitudeDegrees>39.4771038182079792022705078125</LatitudeDegrees>
              <LongitudeDegrees>-0.541457198560237884521484375</LongitudeDegrees>
            </Position>
            <AltitudeMeters>96.1999969482421875</AltitudeMeters>
            <DistanceMeters>11271.767486574</DistanceMeters>
          </Trackpoint>
          <Trackpoint>
            <Time>2021-10-09T07:13:15.000Z</Time>
            <Position>
              <LatitudeDegrees>39.477162323892116546630859375</LatitudeDegrees>
              <LongitudeDegrees>-0.54148460738360881805419921875</LongitudeDegrees>
            </Position>
            <AltitudeMeters>96.1999969482421875</AltitudeMeters>
            <DistanceMeters>11278.69205919</DistanceMeters>
          </Trackpoint>
          <Trackpoint>
            <Time>2021-10-09T07:13:16.000Z</Time>
            <Position>
              <LatitudeDegrees>39.477221667766571044921875</LatitudeDegrees>
              <LongitudeDegrees>-0.54151478223502635955810546875</LongitudeDegrees>
            </Position>
            <AltitudeMeters>96.1999969482421875</AltitudeMeters>
            <DistanceMeters>11285.786680117</DistanceMeters>
          </Trackpoint>
          <Trackpoint>
            <Time>2021-10-09T07:13:17.000Z</Time>
            <Position>
              <LatitudeDegrees>39.477281011641025543212890625</LatitudeDegrees>
              <LongitudeDegrees>-0.5415472202003002166748046875</LongitudeDegrees>
            </Position>
            <AltitudeMeters>96.1999969482421875</AltitudeMeters>
            <DistanceMeters>11292.956003315</DistanceMeters>
          </Trackpoint>
          <Trackpoint>
            <Time>2021-10-09T07:13:18.000Z</Time>
            <Position>
              <LatitudeDegrees>39.47733960114419460296630859375</LatitudeDegrees>
              <LongitudeDegrees>-0.54157915525138378143310546875</LongitudeDegrees>
            </Position>
            <AltitudeMeters>96.1999969482421875</AltitudeMeters>
            <DistanceMeters>11300.030230033</DistanceMeters>
          </Trackpoint>
          <Trackpoint>
            <Time>2021-10-09T07:13:19.000Z</Time>
            <Position>
              <LatitudeDegrees>39.47739928029477596282958984375</LatitudeDegrees>
              <LongitudeDegrees>-0.54161000065505504608154296875</LongitudeDegrees>
            </Position>
            <AltitudeMeters>96</AltitudeMeters>
            <DistanceMeters>11307.181266525</DistanceMeters>
          </Trackpoint>
          <Trackpoint>
            <Time>2021-10-09T07:13:20.000Z</Time>
            <Position>
              <LatitudeDegrees>39.47745879180729389190673828125</LatitudeDegrees>
              <LongitudeDegrees>-0.5416407622396945953369140625</LongitudeDegrees>
            </Position>
            <AltitudeMeters>96</AltitudeMeters>
            <DistanceMeters>11314.312070158</DistanceMeters>
          </Trackpoint>
          <Trackpoint>
            <Time>2021-10-09T07:13:21.000Z</Time>
            <Position>
              <LatitudeDegrees>39.4775153696537017822265625</LatitudeDegrees>
              <LongitudeDegrees>-0.5416726134717464447021484375</LongitudeDegrees>
            </Position>
            <AltitudeMeters>96</AltitudeMeters>
            <DistanceMeters>11321.177709169</DistanceMeters>
          </Trackpoint>
          <Trackpoint>
            <Time>2021-10-09T07:13:22.000Z</Time>
            <Position>
              <LatitudeDegrees>39.47757177986204624176025390625</LatitudeDegrees>
              <LongitudeDegrees>-0.5417054705321788787841796875</LongitudeDegrees>
            </Position>
            <AltitudeMeters>96</AltitudeMeters>
            <DistanceMeters>11328.061737146</DistanceMeters>
          </Trackpoint>
          <Trackpoint>
            <Time>2021-10-09T07:13:23.000Z</Time>
            <Position>
              <LatitudeDegrees>39.477625675499439239501953125</LatitudeDegrees>
              <LongitudeDegrees>-0.54174251854419708251953125</LongitudeDegrees>
            </Position>
            <AltitudeMeters>96</AltitudeMeters>
            <DistanceMeters>11334.853322415</DistanceMeters>
          </Trackpoint>
          <Trackpoint>
            <Time>2021-10-09T07:13:24.000Z</Time>
            <Position>
              <LatitudeDegrees>39.47767890058457851409912109375</LatitudeDegrees>
              <LongitudeDegrees>-0.54177897982299327850341796875</LongitudeDegrees>
            </Position>
            <AltitudeMeters>95.8000030517578125</AltitudeMeters>
            <DistanceMeters>11341.555232608</DistanceMeters>
          </Trackpoint>
          <Trackpoint>
            <Time>2021-10-09T07:13:25.000Z</Time>
            <Position>
              <LatitudeDegrees>39.47773371823132038116455078125</LatitudeDegrees>
              <LongitudeDegrees>-0.541810579597949981689453125</LongitudeDegrees>
            </Position>
            <AltitudeMeters>95.8000030517578125</AltitudeMeters>
            <DistanceMeters>11348.232845766</DistanceMeters>
          </Trackpoint>
          <Trackpoint>
            <Time>2021-10-09T07:13:26.000Z</Time>
            <Position>
              <LatitudeDegrees>39.4777854345738887786865234375</LatitudeDegrees>
              <LongitudeDegrees>-0.54183681495487689971923828125</LongitudeDegrees>
            </Position>
            <AltitudeMeters>95.59999847412109375</AltitudeMeters>
            <DistanceMeters>11354.414696905</DistanceMeters>
          </Trackpoint>
          <Trackpoint>
            <Time>2021-10-09T07:13:27.000Z</Time>
            <Position>
              <LatitudeDegrees>39.4778313674032688140869140625</LatitudeDegrees>
              <LongitudeDegrees>-0.54186397232115268707275390625</LongitudeDegrees>
            </Position>
            <AltitudeMeters>95.59999847412109375</AltitudeMeters>
            <DistanceMeters>11360.034946668</DistanceMeters>
          </Trackpoint>
          <Trackpoint>
            <Time>2021-10-09T07:13:28.000Z</Time>
            <Position>
              <LatitudeDegrees>39.477877132594585418701171875</LatitudeDegrees>
              <LongitudeDegrees>-0.5418912135064601898193359375</LongitudeDegrees>
            </Position>
            <AltitudeMeters>95.59999847412109375</AltitudeMeters>
            <DistanceMeters>11365.640717447</DistanceMeters>
          </Trackpoint>
          <Trackpoint>
            <Time>2021-10-09T07:13:29.000Z</Time>
            <Position>
              <LatitudeDegrees>39.47792105376720428466796875</LatitudeDegrees>
              <LongitudeDegrees>-0.5419200472533702850341796875</LongitudeDegrees>
            </Position>
            <AltitudeMeters>95.40000152587890625</AltitudeMeters>
            <DistanceMeters>11371.12104903</DistanceMeters>
          </Trackpoint>
          <Trackpoint>
            <Time>2021-10-09T07:13:30.000Z</Time>
            <Position>
              <LatitudeDegrees>39.47796539403498172760009765625</LatitudeDegrees>
              <LongitudeDegrees>-0.54195307195186614990234375</LongitudeDegrees>
            </Position>
            <AltitudeMeters>95.40000152587890625</AltitudeMeters>
            <DistanceMeters>11376.813141288</DistanceMeters>
          </Trackpoint>
          <Trackpoint>
            <Time>2021-10-09T07:13:31.000Z</Time>
            <Position>
              <LatitudeDegrees>39.47800931520760059356689453125</LatitudeDegrees>
              <LongitudeDegrees>-0.54198953323066234588623046875</LongitudeDegrees>
            </Position>
            <AltitudeMeters>95.59999847412109375</AltitudeMeters>
            <DistanceMeters>11382.619887833</DistanceMeters>
          </Trackpoint>
          <Trackpoint>
            <Time>2021-10-09T07:13:32.000Z</Time>
            <Position>
              <LatitudeDegrees>39.478050135076045989990234375</LatitudeDegrees>
              <LongitudeDegrees>-0.54203110747039318084716796875</LongitudeDegrees>
            </Position>
            <AltitudeMeters>95.59999847412109375</AltitudeMeters>
            <DistanceMeters>11388.399356041</DistanceMeters>
          </Trackpoint>
          <Trackpoint>
            <Time>2021-10-09T07:13:33.000Z</Time>
            <Position>
              <LatitudeDegrees>39.47809129022061824798583984375</LatitudeDegrees>
              <LongitudeDegrees>-0.5420746095478534698486328125</LongitudeDegrees>
            </Position>
            <AltitudeMeters>95.59999847412109375</AltitudeMeters>
            <DistanceMeters>11394.31090371</DistanceMeters>
          </Trackpoint>
          <Trackpoint>
            <Time>2021-10-09T07:13:34.000Z</Time>
            <Position>
              <LatitudeDegrees>39.4781341217458248138427734375</LatitudeDegrees>
              <LongitudeDegrees>-0.54211559705436229705810546875</LongitudeDegrees>
            </Position>
            <AltitudeMeters>95.59999847412109375</AltitudeMeters>
            <DistanceMeters>11400.236945162</DistanceMeters>
          </Trackpoint>
          <Trackpoint>
            <Time>2021-10-09T07:13:35.000Z</Time>
            <Position>
              <LatitudeDegrees>39.4781793840229511260986328125</LatitudeDegrees>
              <LongitudeDegrees>-0.54215800948441028594970703125</LongitudeDegrees>
            </Position>
            <AltitudeMeters>95.59999847412109375</AltitudeMeters>
            <DistanceMeters>11406.453755211</DistanceMeters>
          </Trackpoint>
          <Trackpoint>
            <Time>2021-10-09T07:13:36.000Z</Time>
            <Position>
              <LatitudeDegrees>39.47822590358555316925048828125</LatitudeDegrees>
              <LongitudeDegrees>-0.54220243357121944427490234375</LongitudeDegrees>
            </Position>
            <AltitudeMeters>95.8000030517578125</AltitudeMeters>
            <DistanceMeters>11412.886158359</DistanceMeters>
          </Trackpoint>
          <Trackpoint>
            <Time>2021-10-09T07:13:37.000Z</Time>
            <Position>
              <LatitudeDegrees>39.4782712496817111968994140625</LatitudeDegrees>
              <LongitudeDegrees>-0.54224945604801177978515625</LongitudeDegrees>
            </Position>
            <AltitudeMeters>95.8000030517578125</AltitudeMeters>
            <DistanceMeters>11419.350769235</DistanceMeters>
          </Trackpoint>
          <Trackpoint>
            <Time>2021-10-09T07:13:38.000Z</Time>
            <Position>
              <LatitudeDegrees>39.47831626050174236297607421875</LatitudeDegrees>
              <LongitudeDegrees>-0.5422955565154552459716796875</LongitudeDegrees>
            </Position>
            <AltitudeMeters>95.8000030517578125</AltitudeMeters>
            <DistanceMeters>11425.736677567</DistanceMeters>
          </Trackpoint>
          <Trackpoint>
            <Time>2021-10-09T07:13:39.000Z</Time>
            <Position>
              <LatitudeDegrees>39.4783629477024078369140625</LatitudeDegrees>
              <LongitudeDegrees>-0.542344339191913604736328125</LongitudeDegrees>
            </Position>
            <AltitudeMeters>95.8000030517578125</AltitudeMeters>
            <DistanceMeters>11432.41226198</DistanceMeters>
          </Trackpoint>
          <Trackpoint>
            <Time>2021-10-09T07:13:40.000Z</Time>
            <Position>
              <LatitudeDegrees>39.4784085452556610107421875</LatitudeDegrees>
              <LongitudeDegrees>-0.542391277849674224853515625</LongitudeDegrees>
            </Position>
            <AltitudeMeters>95.8000030517578125</AltitudeMeters>
            <DistanceMeters>11438.895006443</DistanceMeters>
          </Trackpoint>
          <Trackpoint>
            <Time>2021-10-09T07:13:41.000Z</Time>
            <Position>
              <LatitudeDegrees>39.47845439426600933074951171875</LatitudeDegrees>
              <LongitudeDegrees>-0.54243721067905426025390625</LongitudeDegrees>
            </Position>
            <AltitudeMeters>95.8000030517578125</AltitudeMeters>
            <DistanceMeters>11445.345633719</DistanceMeters>
          </Trackpoint>
          <Trackpoint>
            <Time>2021-10-09T07:13:42.000Z</Time>
            <Position>
              <LatitudeDegrees>39.47850175201892852783203125</LatitudeDegrees>
              <LongitudeDegrees>-0.54248255677521228790283203125</LongitudeDegrees>
            </Position>
            <AltitudeMeters>95.8000030517578125</AltitudeMeters>
            <DistanceMeters>11451.899722034</DistanceMeters>
          </Trackpoint>
          <Trackpoint>
            <Time>2021-10-09T07:13:43.000Z</Time>
            <Position>
              <LatitudeDegrees>39.47854927740991115570068359375</LatitudeDegrees>
              <LongitudeDegrees>-0.5425292439758777618408203125</LongitudeDegrees>
            </Position>
            <AltitudeMeters>95.8000030517578125</AltitudeMeters>
            <DistanceMeters>11458.538002914</DistanceMeters>
          </Trackpoint>
          <Trackpoint>
            <Time>2021-10-09T07:13:44.000Z</Time>
            <Position>
              <LatitudeDegrees>39.47859621606767177581787109375</LatitudeDegrees>
              <LongitudeDegrees>-0.54257358424365520477294921875</LongitudeDegrees>
            </Position>
            <AltitudeMeters>95.8000030517578125</AltitudeMeters>
            <DistanceMeters>11465.004010487</DistanceMeters>
          </Trackpoint>
          <Trackpoint>
            <Time>2021-10-09T07:13:45.000Z</Time>
            <Position>
              <LatitudeDegrees>39.478643238544464111328125</LatitudeDegrees>
              <LongitudeDegrees>-0.54261834360659122467041015625</LongitudeDegrees>
            </Position>
            <AltitudeMeters>95.8000030517578125</AltitudeMeters>
            <DistanceMeters>11471.497888912</DistanceMeters>
          </Trackpoint>
          <Trackpoint>
            <Time>2021-10-09T07:13:46.000Z</Time>
            <Position>
              <LatitudeDegrees>39.47868883609771728515625</LatitudeDegrees>
              <LongitudeDegrees>-0.5426626838743686676025390625</LongitudeDegrees>
            </Position>
            <AltitudeMeters>95.8000030517578125</AltitudeMeters>
            <DistanceMeters>11477.842656897</DistanceMeters>
          </Trackpoint>
          <Trackpoint>
            <Time>2021-10-09T07:13:47.000Z</Time>
            <Position>
              <LatitudeDegrees>39.478736780583858489990234375</LatitudeDegrees>
              <LongitudeDegrees>-0.54270501248538494110107421875</LongitudeDegrees>
            </Position>
            <AltitudeMeters>95.8000030517578125</AltitudeMeters>
            <DistanceMeters>11484.300279759</DistanceMeters>
          </Trackpoint>
          <Trackpoint>
            <Time>2021-10-09T07:13:48.000Z</Time>
            <Position>
              <LatitudeDegrees>39.47878397069871425628662109375</LatitudeDegrees>
              <LongitudeDegrees>-0.5427468381822109222412109375</LongitudeDegrees>
            </Position>
            <AltitudeMeters>95.8000030517578125</AltitudeMeters>
            <DistanceMeters>11490.664941802</DistanceMeters>
          </Trackpoint>
          <Trackpoint>
            <Time>2021-10-09T07:13:49.000Z</Time>
            <Position>
              <LatitudeDegrees>39.47883208282291889190673828125</LatitudeDegrees>
              <LongitudeDegrees>-0.5427892506122589111328125</LongitudeDegrees>
            </Position>
            <AltitudeMeters>95.8000030517578125</AltitudeMeters>
            <DistanceMeters>11497.142112107</DistanceMeters>
          </Trackpoint>
          <Trackpoint>
            <Time>2021-10-09T07:13:50.000Z</Time>
            <Position>
              <LatitudeDegrees>39.47888254188001155853271484375</LatitudeDegrees>
              <LongitudeDegrees>-0.54282822646200656890869140625</LongitudeDegrees>
            </Position>
            <AltitudeMeters>95.8000030517578125</AltitudeMeters>
            <DistanceMeters>11503.681027305</DistanceMeters>
          </Trackpoint>
          <Trackpoint>
            <Time>2021-10-09T07:13:51.000Z</Time>
            <Position>
              <LatitudeDegrees>39.47893467731773853302001953125</LatitudeDegrees>
              <LongitudeDegrees>-0.54286661557853221893310546875</LongitudeDegrees>
            </Position>
            <AltitudeMeters>95.8000030517578125</AltitudeMeters>
            <DistanceMeters>11510.355935332</DistanceMeters>
          </Trackpoint>
          <Trackpoint>
            <Time>2021-10-09T07:13:52.000Z</Time>
            <Position>
              <LatitudeDegrees>39.47898781858384609222412109375</LatitudeDegrees>
              <LongitudeDegrees>-0.542906261980533599853515625</LongitudeDegrees>
            </Position>
            <AltitudeMeters>95.8000030517578125</AltitudeMeters>
            <DistanceMeters>11517.180679598</DistanceMeters>
          </Trackpoint>
          <Trackpoint>
            <Time>2021-10-09T07:13:53.000Z</Time>
            <Position>
              <LatitudeDegrees>39.479041211307048797607421875</LatitudeDegrees>
              <LongitudeDegrees>-0.54294456727802753448486328125</LongitudeDegrees>
            </Position>
            <AltitudeMeters>96</AltitudeMeters>
            <DistanceMeters>11523.972929634</DistanceMeters>
          </Trackpoint>
          <Trackpoint>
            <Time>2021-10-09T07:13:54.000Z</Time>
            <Position>
              <LatitudeDegrees>39.479096867144107818603515625</LatitudeDegrees>
              <LongitudeDegrees>-0.54297977127134799957275390625</LongitudeDegrees>
            </Position>
            <AltitudeMeters>96</AltitudeMeters>
            <DistanceMeters>11530.865478667</DistanceMeters>
          </Trackpoint>
          <Trackpoint>
            <Time>2021-10-09T07:13:55.000Z</Time>
            <Position>
              <LatitudeDegrees>39.47915478609502315521240234375</LatitudeDegrees>
              <LongitudeDegrees>-0.54301463998854160308837890625</LongitudeDegrees>
            </Position>
            <AltitudeMeters>96</AltitudeMeters>
            <DistanceMeters>11537.973451494</DistanceMeters>
          </Trackpoint>
          <Trackpoint>
            <Time>2021-10-09T07:13:56.000Z</Time>
            <Position>
              <LatitudeDegrees>39.47921228595077991485595703125</LatitudeDegrees>
              <LongitudeDegrees>-0.54304934106767177581787109375</LongitudeDegrees>
            </Position>
            <AltitudeMeters>96</AltitudeMeters>
            <DistanceMeters>11545.033623019</DistanceMeters>
          </Trackpoint>
          <Trackpoint>
            <Time>2021-10-09T07:13:57.000Z</Time>
            <Position>
              <LatitudeDegrees>39.47926928289234638214111328125</LatitudeDegrees>
              <LongitudeDegrees>-0.54308387450873851776123046875</LongitudeDegrees>
            </Position>
            <AltitudeMeters>96.1999969482421875</AltitudeMeters>
            <DistanceMeters>11552.037291718</DistanceMeters>
          </Trackpoint>
          <Trackpoint>
            <Time>2021-10-09T07:13:58.000Z</Time>
            <Position>
              <LatitudeDegrees>39.47932720184326171875</LatitudeDegrees>
              <LongitudeDegrees>-0.54311522282660007476806640625</LongitudeDegrees>
            </Position>
            <AltitudeMeters>96</AltitudeMeters>
            <DistanceMeters>11559.023532709</DistanceMeters>
          </Trackpoint>
          <Trackpoint>
            <Time>2021-10-09T07:13:59.000Z</Time>
            <Position>
              <LatitudeDegrees>39.47938730008900165557861328125</LatitudeDegrees>
              <LongitudeDegrees>-0.54314455948770046234130859375</LongitudeDegrees>
            </Position>
            <AltitudeMeters>96.1999969482421875</AltitudeMeters>
            <DistanceMeters>11566.171411591</DistanceMeters>
          </Trackpoint>
          <Trackpoint>
            <Time>2021-10-09T07:14:00.000Z</Time>
            <Position>
              <LatitudeDegrees>39.4794470630586147308349609375</LatitudeDegrees>
              <LongitudeDegrees>-0.54317574016749858856201171875</LongitudeDegrees>
            </Position>
            <AltitudeMeters>96.40000152587890625</AltitudeMeters>
            <DistanceMeters>11573.342623856</DistanceMeters>
          </Trackpoint>
          <Trackpoint>
            <Time>2021-10-09T07:14:01.000Z</Time>
            <Position>
              <LatitudeDegrees>39.47950531728565692901611328125</LatitudeDegrees>
              <LongitudeDegrees>-0.54320692084729671478271484375</LongitudeDegrees>
            </Position>
            <AltitudeMeters>96.40000152587890625</AltitudeMeters>
            <DistanceMeters>11580.359174061</DistanceMeters>
          </Trackpoint>
          <Trackpoint>
            <Time>2021-10-09T07:14:02.000Z</Time>
            <Position>
              <LatitudeDegrees>39.47956332005560398101806640625</LatitudeDegrees>
              <LongitudeDegrees>-0.5432406999170780181884765625</LongitudeDegrees>
            </Position>
            <AltitudeMeters>96.40000152587890625</AltitudeMeters>
            <DistanceMeters>11587.437229169</DistanceMeters>
          </Trackpoint>
          <Trackpoint>
            <Time>2021-10-09T07:14:03.000Z</Time>
            <Position>
              <LatitudeDegrees>39.479621909558773040771484375</LatitudeDegrees>
              <LongitudeDegrees>-0.5432728864252567291259765625</LongitudeDegrees>
            </Position>
            <AltitudeMeters>96.40000152587890625</AltitudeMeters>
            <DistanceMeters>11594.520385578</DistanceMeters>
          </Trackpoint>
          <Trackpoint>
            <Time>2021-10-09T07:14:04.000Z</Time>
            <Position>
              <LatitudeDegrees>39.47968192398548126220703125</LatitudeDegrees>
              <LongitudeDegrees>-0.5433042347431182861328125</LongitudeDegrees>
            </Position>
            <AltitudeMeters>96.40000152587890625</AltitudeMeters>
            <DistanceMeters>11601.722382461</DistanceMeters>
          </Trackpoint>
          <Trackpoint>
            <Time>2021-10-09T07:14:05.000Z</Time>
            <Position>
              <LatitudeDegrees>39.479742608964443206787109375</LatitudeDegrees>
              <LongitudeDegrees>-0.54333440959453582763671875</LongitudeDegrees>
            </Position>
            <AltitudeMeters>96.40000152587890625</AltitudeMeters>
            <DistanceMeters>11608.956905463</DistanceMeters>
          </Trackpoint>
          <Trackpoint>
            <Time>2021-10-09T07:14:06.000Z</Time>
            <Position>
              <LatitudeDegrees>39.47980455122888088226318359375</LatitudeDegrees>
              <LongitudeDegrees>-0.54336500354111194610595703125</LongitudeDegrees>
            </Position>
            <AltitudeMeters>96.40000152587890625</AltitudeMeters>
            <DistanceMeters>11616.335410114</DistanceMeters>
          </Trackpoint>
          <Trackpoint>
            <Time>2021-10-09T07:14:07.000Z</Time>
            <Position>
              <LatitudeDegrees>39.47986456565558910369873046875</LatitudeDegrees>
              <LongitudeDegrees>-0.543396435678005218505859375</LongitudeDegrees>
            </Position>
            <AltitudeMeters>96.40000152587890625</AltitudeMeters>
            <DistanceMeters>11623.539914219</DistanceMeters>
          </Trackpoint>
          <Trackpoint>
            <Time>2021-10-09T07:14:08.000Z</Time>
            <Position>
              <LatitudeDegrees>39.479924999177455902099609375</LatitudeDegrees>
              <LongitudeDegrees>-0.54342560470104217529296875</LongitudeDegrees>
            </Position>
            <AltitudeMeters>96.40000152587890625</AltitudeMeters>
            <DistanceMeters>11630.718048808</DistanceMeters>
          </Trackpoint>
          <Trackpoint>
            <Time>2021-10-09T07:14:09.000Z</Time>
            <Position>
              <LatitudeDegrees>39.47998643852770328521728515625</LatitudeDegrees>
              <LongitudeDegrees>-0.54345309734344482421875</LongitudeDegrees>
            </Position>
            <AltitudeMeters>96.40000152587890625</AltitudeMeters>
            <DistanceMeters>11637.952571811</DistanceMeters>
          </Trackpoint>
          <Trackpoint>
            <Time>2021-10-09T07:14:10.000Z</Time>
            <Position>
              <LatitudeDegrees>39.48004695586860179901123046875</LatitudeDegrees>
              <LongitudeDegrees>-0.54348184727132320404052734375</LongitudeDegrees>
            </Position>
            <AltitudeMeters>96.40000152587890625</AltitudeMeters>
            <DistanceMeters>11645.126931415</DistanceMeters>
          </Trackpoint>
          <Trackpoint>
            <Time>2021-10-09T07:14:11.000Z</Time>
            <Position>
              <LatitudeDegrees>39.48010629974305629730224609375</LatitudeDegrees>
              <LongitudeDegrees>-0.5435122735798358917236328125</LongitudeDegrees>
            </Position>
            <AltitudeMeters>96.40000152587890625</AltitudeMeters>
            <DistanceMeters>11652.230456397</DistanceMeters>
          </Trackpoint>
          <Trackpoint>
            <Time>2021-10-09T07:14:12.000Z</Time>
            <Position>
              <LatitudeDegrees>39.48016564361751079559326171875</LatitudeDegrees>
              <LongitudeDegrees>-0.543541945517063140869140625</LongitudeDegrees>
            </Position>
            <AltitudeMeters>96.40000152587890625</AltitudeMeters>
            <DistanceMeters>11659.310424924</DistanceMeters>
          </Trackpoint>
          <Trackpoint>
            <Time>2021-10-09T07:14:13.000Z</Time>
            <Position>
              <LatitudeDegrees>39.4802265800535678863525390625</LatitudeDegrees>
              <LongitudeDegrees>-0.54357312619686126708984375</LongitudeDegrees>
            </Position>
            <AltitudeMeters>96.40000152587890625</AltitudeMeters>
            <DistanceMeters>11666.603377018</DistanceMeters>
          </Trackpoint>
          <Trackpoint>
            <Time>2021-10-09T07:14:14.000Z</Time>
            <Position>
              <LatitudeDegrees>39.48028734885156154632568359375</LatitudeDegrees>
              <LongitudeDegrees>-0.54360221140086650848388671875</LongitudeDegrees>
            </Position>
            <AltitudeMeters>96.40000152587890625</AltitudeMeters>
            <DistanceMeters>11673.814145366</DistanceMeters>
          </Trackpoint>
          <Trackpoint>
            <Time>2021-10-09T07:14:15.000Z</Time>
            <Position>
              <LatitudeDegrees>39.48034803383052349090576171875</LatitudeDegrees>
              <LongitudeDegrees>-0.543631128966808319091796875</LongitudeDegrees>
            </Position>
            <AltitudeMeters>96.40000152587890625</AltitudeMeters>
            <DistanceMeters>11681.011125183</DistanceMeters>
          </Trackpoint>
          <Trackpoint>
            <Time>2021-10-09T07:14:16.000Z</Time>
            <Position>
              <LatitudeDegrees>39.48040804825723171234130859375</LatitudeDegrees>
              <LongitudeDegrees>-0.54365971125662326812744140625</LongitudeDegrees>
            </Position>
            <AltitudeMeters>96.40000152587890625</AltitudeMeters>
            <DistanceMeters>11688.128619745</DistanceMeters>
          </Trackpoint>
          <Trackpoint>
            <Time>2021-10-09T07:14:17.000Z</Time>
            <Position>
              <LatitudeDegrees>39.48046739213168621063232421875</LatitudeDegrees>
              <LongitudeDegrees>-0.543690137565135955810546875</LongitudeDegrees>
            </Position>
            <AltitudeMeters>96.40000152587890625</AltitudeMeters>
            <DistanceMeters>11695.232780304</DistanceMeters>
          </Trackpoint>
          <Trackpoint>
            <Time>2021-10-09T07:14:18.000Z</Time>
            <Position>
              <LatitudeDegrees>39.4805274903774261474609375</LatitudeDegrees>
              <LongitudeDegrees>-0.5437198095023632049560546875</LongitudeDegrees>
            </Position>
            <AltitudeMeters>96.40000152587890625</AltitudeMeters>
            <DistanceMeters>11702.392020061</DistanceMeters>
          </Trackpoint>
          <Trackpoint>
            <Time>2021-10-09T07:14:19.000Z</Time>
            <Position>
              <LatitudeDegrees>39.480585157871246337890625</LatitudeDegrees>
              <LongitudeDegrees>-0.54374906234443187713623046875</LongitudeDegrees>
            </Position>
            <AltitudeMeters>96.40000152587890625</AltitudeMeters>
            <DistanceMeters>11709.285224124</DistanceMeters>
          </Trackpoint>
          <Trackpoint>
            <Time>2021-10-09T07:14:20.000Z</Time>
            <Position>
              <LatitudeDegrees>39.4806429930031299591064453125</LatitudeDegrees>
              <LongitudeDegrees>-0.54378024302423000335693359375</LongitudeDegrees>
            </Position>
            <AltitudeMeters>96.40000152587890625</AltitudeMeters>
            <DistanceMeters>11716.257880115</DistanceMeters>
          </Trackpoint>
          <Trackpoint>
            <Time>2021-10-09T07:14:21.000Z</Time>
            <Position>
              <LatitudeDegrees>39.480698816478252410888671875</LatitudeDegrees>
              <LongitudeDegrees>-0.5438136868178844451904296875</LongitudeDegrees>
            </Position>
            <AltitudeMeters>96.40000152587890625</AltitudeMeters>
            <DistanceMeters>11723.103761851</DistanceMeters>
          </Trackpoint>
          <Trackpoint>
            <Time>2021-10-09T07:14:22.000Z</Time>
            <Position>
              <LatitudeDegrees>39.4807556457817554473876953125</LatitudeDegrees>
              <LongitudeDegrees>-0.5438452027738094329833984375</LongitudeDegrees>
            </Position>
            <AltitudeMeters>96.59999847412109375</AltitudeMeters>
            <DistanceMeters>11729.984509688</DistanceMeters>
          </Trackpoint>
          <Trackpoint>
            <Time>2021-10-09T07:14:23.000Z</Time>
            <Position>
              <LatitudeDegrees>39.480814151465892791748046875</LatitudeDegrees>
              <LongitudeDegrees>-0.54387579672038555145263671875</LongitudeDegrees>
            </Position>
            <AltitudeMeters>96.59999847412109375</AltitudeMeters>
            <DistanceMeters>11737.006205878</DistanceMeters>
          </Trackpoint>
          <Trackpoint>
            <Time>2021-10-09T07:14:24.000Z</Time>
            <Position>
              <LatitudeDegrees>39.48087274096906185150146484375</LatitudeDegrees>
              <LongitudeDegrees>-0.54390530101954936981201171875</LongitudeDegrees>
            </Position>
            <AltitudeMeters>96.59999847412109375</AltitudeMeters>
            <DistanceMeters>11744.002134289</DistanceMeters>
          </Trackpoint>
          <Trackpoint>
            <Time>2021-10-09T07:14:25.000Z</Time>
            <Position>
              <LatitudeDegrees>39.48092973791062831878662109375</LatitudeDegrees>
              <LongitudeDegrees>-0.54393790662288665771484375</LongitudeDegrees>
            </Position>
            <AltitudeMeters>96.59999847412109375</AltitudeMeters>
            <DistanceMeters>11750.937131559</DistanceMeters>
          </Trackpoint>
          <Trackpoint>
            <Time>2021-10-09T07:14:26.000Z</Time>
            <Position>
              <LatitudeDegrees>39.48098338209092617034912109375</LatitudeDegrees>
              <LongitudeDegrees>-0.543969087302684783935546875</LongitudeDegrees>
            </Position>
            <AltitudeMeters>96.8000030517578125</AltitudeMeters>
            <DistanceMeters>11757.481568324</DistanceMeters>
          </Trackpoint>
          <Trackpoint>
            <Time>2021-10-09T07:14:27.000Z</Time>
            <Position>
              <LatitudeDegrees>39.48103568516671657562255859375</LatitudeDegrees>
              <LongitudeDegrees>-0.543998591601848602294921875</LongitudeDegrees>
            </Position>
            <AltitudeMeters>96.8000030517578125</AltitudeMeters>
            <DistanceMeters>11763.83060457</DistanceMeters>
          </Trackpoint>
          <Trackpoint>
            <Time>2021-10-09T07:14:28.000Z</Time>
            <Position>
              <LatitudeDegrees>39.48108740150928497314453125</LatitudeDegrees>
              <LongitudeDegrees>-0.5440269224345684051513671875</LongitudeDegrees>
            </Position>
            <AltitudeMeters>96.8000030517578125</AltitudeMeters>
            <DistanceMeters>11770.080733424</DistanceMeters>
          </Trackpoint>
          <Trackpoint>
            <Time>2021-10-09T07:14:29.000Z</Time>
            <Position>
              <LatitudeDegrees>39.48113811202347278594970703125</LatitudeDegrees>
              <LongitudeDegrees>-0.54405718110501766204833984375</LongitudeDegrees>
            </Position>
            <AltitudeMeters>97</AltitudeMeters>
            <DistanceMeters>11776.294637742</DistanceMeters>
          </Trackpoint>
          <Trackpoint>
            <Time>2021-10-09T07:14:30.000Z</Time>
            <Position>
              <LatitudeDegrees>39.48118672706186771392822265625</LatitudeDegrees>
              <LongitudeDegrees>-0.54409079253673553466796875</LongitudeDegrees>
            </Position>
            <AltitudeMeters>97.1999969482421875</AltitudeMeters>
            <DistanceMeters>11782.428095043</DistanceMeters>
          </Trackpoint>
          <Trackpoint>
            <Time>2021-10-09T07:14:31.000Z</Time>
            <Position>
              <LatitudeDegrees>39.4812307320535182952880859375</LatitudeDegrees>
              <LongitudeDegrees>-0.5441238172352313995361328125</LongitudeDegrees>
            </Position>
            <AltitudeMeters>97.1999969482421875</AltitudeMeters>
            <DistanceMeters>11788.08836988</DistanceMeters>
          </Trackpoint>
          <Trackpoint>
            <Time>2021-10-09T07:14:32.000Z</Time>
            <Position>
              <LatitudeDegrees>39.48127289302647113800048828125</LatitudeDegrees>
              <LongitudeDegrees>-0.54415457881987094879150390625</LongitudeDegrees>
            </Position>
            <AltitudeMeters>97.40000152587890625</AltitudeMeters>
            <DistanceMeters>11793.473962283</DistanceMeters>
          </Trackpoint>
          <Trackpoint>
            <Time>2021-10-09T07:14:33.000Z</Time>
            <Position>
              <LatitudeDegrees>39.48131899349391460418701171875</LatitudeDegrees>
              <LongitudeDegrees>-0.54418575949966907501220703125</LongitudeDegrees>
            </Position>
            <AltitudeMeters>97.59999847412109375</AltitudeMeters>
            <DistanceMeters>11799.262797545</DistanceMeters>
          </Trackpoint>
          <Trackpoint>
            <Time>2021-10-09T07:14:34.000Z</Time>
            <Position>
              <LatitudeDegrees>39.4813621602952480316162109375</LatitudeDegrees>
              <LongitudeDegrees>-0.5442183651030063629150390625</LongitudeDegrees>
            </Position>
            <AltitudeMeters>97.8000030517578125</AltitudeMeters>
            <DistanceMeters>11804.824905229</DistanceMeters>
          </Trackpoint>
          <Trackpoint>
            <Time>2021-10-09T07:14:35.000Z</Time>
            <Position>
              <LatitudeDegrees>39.481400884687900543212890625</LatitudeDegrees>
              <LongitudeDegrees>-0.5442510545253753662109375</LongitudeDegrees>
            </Position>
            <AltitudeMeters>98</AltitudeMeters>
            <DistanceMeters>11809.969529031</DistanceMeters>
          </Trackpoint>
          <Trackpoint>
            <Time>2021-10-09T07:14:36.000Z</Time>
            <Position>
              <LatitudeDegrees>39.48143935762345790863037109375</LatitudeDegrees>
              <LongitudeDegrees>-0.54428416304290294647216796875</LongitudeDegrees>
            </Position>
            <AltitudeMeters>98.1999969482421875</AltitudeMeters>
            <DistanceMeters>11815.109762846</DistanceMeters>
          </Trackpoint>
          <Trackpoint>
            <Time>2021-10-09T07:14:37.000Z</Time>
            <Position>
              <LatitudeDegrees>39.48147992603480815887451171875</LatitudeDegrees>
              <LongitudeDegrees>-0.5443139187991619110107421875</LongitudeDegrees>
            </Position>
            <AltitudeMeters>98.40000152587890625</AltitudeMeters>
            <DistanceMeters>11820.298952374</DistanceMeters>
          </Trackpoint>
          <Trackpoint>
            <Time>2021-10-09T07:14:38.000Z</Time>
            <Position>
              <LatitudeDegrees>39.48152150027453899383544921875</LatitudeDegrees>
              <LongitudeDegrees>-0.5443407408893108367919921875</LongitudeDegrees>
            </Position>
            <AltitudeMeters>98.59999847412109375</AltitudeMeters>
            <DistanceMeters>11825.468091199</DistanceMeters>
          </Trackpoint>
          <Trackpoint>
            <Time>2021-10-09T07:14:39.000Z</Time>
            <Position>
              <LatitudeDegrees>39.4815606437623500823974609375</LatitudeDegrees>
              <LongitudeDegrees>-0.5443618632853031158447265625</LongitudeDegrees>
            </Position>
            <AltitudeMeters>99</AltitudeMeters>
            <DistanceMeters>11830.187963929</DistanceMeters>
          </Trackpoint>
          <Trackpoint>
            <Time>2021-10-09T07:14:40.000Z</Time>
            <Position>
              <LatitudeDegrees>39.481599032878875732421875</LatitudeDegrees>
              <LongitudeDegrees>-0.54438323713839054107666015625</LongitudeDegrees>
            </Position>
            <AltitudeMeters>99</AltitudeMeters>
            <DistanceMeters>11834.839422105</DistanceMeters>
          </Trackpoint>
          <Trackpoint>
            <Time>2021-10-09T07:14:41.000Z</Time>
            <Position>
              <LatitudeDegrees>39.481636919081211090087890625</LatitudeDegrees>
              <LongitudeDegrees>-0.54441307671368122100830078125</LongitudeDegrees>
            </Position>
            <AltitudeMeters>99.1999969482421875</AltitudeMeters>
            <DistanceMeters>11839.774411079</DistanceMeters>
          </Trackpoint>
          <Trackpoint>
            <Time>2021-10-09T07:14:42.000Z</Time>
            <Position>
              <LatitudeDegrees>39.48167656548321247100830078125</LatitudeDegrees>
              <LongitudeDegrees>-0.544443838298320770263671875</LongitudeDegrees>
            </Position>
            <AltitudeMeters>99.8000030517578125</AltitudeMeters>
            <DistanceMeters>11844.918157182</DistanceMeters>
          </Trackpoint>
          <Trackpoint>
            <Time>2021-10-09T07:14:43.000Z</Time>
            <Position>
              <LatitudeDegrees>39.4817130267620086669921875</LatitudeDegrees>
              <LongitudeDegrees>-0.54447527043521404266357421875</LongitudeDegrees>
            </Position>
            <AltitudeMeters>100.1999969482421875</AltitudeMeters>
            <DistanceMeters>11849.792388519</DistanceMeters>
          </Trackpoint>
          <Trackpoint>
            <Time>2021-10-09T07:14:44.000Z</Time>
            <Position>
              <LatitudeDegrees>39.481745548546314239501953125</LatitudeDegrees>
              <LongitudeDegrees>-0.54450787603855133056640625</LongitudeDegrees>
            </Position>
            <AltitudeMeters>100.59999847412109375</AltitudeMeters>
            <DistanceMeters>11854.369481194</DistanceMeters>
          </Trackpoint>
          <Trackpoint>
            <Time>2021-10-09T07:14:45.000Z</Time>
            <Position>
              <LatitudeDegrees>39.48177941143512725830078125</LatitudeDegrees>
              <LongitudeDegrees>-0.544541738927364349365234375</LongitudeDegrees>
            </Position>
            <AltitudeMeters>100.8000030517578125</AltitudeMeters>
            <DistanceMeters>11859.131258378</DistanceMeters>
          </Trackpoint>
          <Trackpoint>
            <Time>2021-10-09T07:14:46.000Z</Time>
            <Position>
              <LatitudeDegrees>39.48181805200874805450439453125</LatitudeDegrees>
              <LongitudeDegrees>-0.54457317106425762176513671875</LongitudeDegrees>
            </Position>
            <AltitudeMeters>101.1999969482421875</AltitudeMeters>
            <DistanceMeters>11864.209633937</DistanceMeters>
          </Trackpoint>
          <Trackpoint>
            <Time>2021-10-09T07:14:47.000Z</Time>
            <Position>
              <LatitudeDegrees>39.48185895569622516632080078125</LatitudeDegrees>
              <LongitudeDegrees>-0.5446005798876285552978515625</LongitudeDegrees>
            </Position>
            <AltitudeMeters>101.40000152587890625</AltitudeMeters>
            <DistanceMeters>11869.335794533</DistanceMeters>
          </Trackpoint>
          <Trackpoint>
            <Time>2021-10-09T07:14:48.000Z</Time>
            <Position>
              <LatitudeDegrees>39.48189885355532169342041015625</LatitudeDegrees>
              <LongitudeDegrees>-0.5446250550448894500732421875</LongitudeDegrees>
            </Position>
            <AltitudeMeters>101.8000030517578125</AltitudeMeters>
            <DistanceMeters>11874.249695672</DistanceMeters>
          </Trackpoint>
          <Trackpoint>
            <Time>2021-10-09T07:14:49.000Z</Time>
            <Position>
              <LatitudeDegrees>39.48194009251892566680908203125</LatitudeDegrees>
              <LongitudeDegrees>-0.5446538887917995452880859375</LongitudeDegrees>
            </Position>
            <AltitudeMeters>102.40000152587890625</AltitudeMeters>
            <DistanceMeters>11879.466653637</DistanceMeters>
          </Trackpoint>
          <Trackpoint>
            <Time>2021-10-09T07:14:50.000Z</Time>
            <Position>
              <LatitudeDegrees>39.48198216967284679412841796875</LatitudeDegrees>
              <LongitudeDegrees>-0.54468867368996143341064453125</LongitudeDegrees>
            </Position>
            <AltitudeMeters>102.59999847412109375</AltitudeMeters>
            <DistanceMeters>11885.02226353</DistanceMeters>
          </Trackpoint>
          <Trackpoint>
            <Time>2021-10-09T07:14:51.000Z</Time>
            <Position>
              <LatitudeDegrees>39.4820241630077362060546875</LatitudeDegrees>
              <LongitudeDegrees>-0.544716417789459228515625</LongitudeDegrees>
            </Position>
            <AltitudeMeters>103.1999969482421875</AltitudeMeters>
            <DistanceMeters>11890.268564417</DistanceMeters>
          </Trackpoint>
          <Trackpoint>
            <Time>2021-10-09T07:14:52.000Z</Time>
            <Position>
              <LatitudeDegrees>39.4820682518184185028076171875</LatitudeDegrees>
              <LongitudeDegrees>-0.54473946802318096160888671875</LongitudeDegrees>
            </Position>
            <AltitudeMeters>103.1999969482421875</AltitudeMeters>
            <DistanceMeters>11895.560281252</DistanceMeters>
          </Trackpoint>
          <Trackpoint>
            <Time>2021-10-09T07:14:53.000Z</Time>
            <Position>
              <LatitudeDegrees>39.4821115024387836456298828125</LatitudeDegrees>
              <LongitudeDegrees>-0.5447675473988056182861328125</LongitudeDegrees>
            </Position>
            <AltitudeMeters>103.8000030517578125</AltitudeMeters>
            <DistanceMeters>11900.945873655</DistanceMeters>
          </Trackpoint>
          <Trackpoint>
            <Time>2021-10-09T07:14:54.000Z</Time>
            <Position>
              <LatitudeDegrees>39.48215165175497531890869140625</LatitudeDegrees>
              <LongitudeDegrees>-0.544797219336032867431640625</LongitudeDegrees>
            </Position>
            <AltitudeMeters>104</AltitudeMeters>
            <DistanceMeters>11906.091375004</DistanceMeters>
          </Trackpoint>
          <Trackpoint>
            <Time>2021-10-09T07:14:55.000Z</Time>
            <Position>
              <LatitudeDegrees>39.4821923039853572845458984375</LatitudeDegrees>
              <LongitudeDegrees>-0.54482680745422840118408203125</LongitudeDegrees>
            </Position>
            <AltitudeMeters>104.1999969482421875</AltitudeMeters>
            <DistanceMeters>11911.281434545</DistanceMeters>
          </Trackpoint>
          <Trackpoint>
            <Time>2021-10-09T07:14:56.000Z</Time>
            <Position>
              <LatitudeDegrees>39.4822332076728343963623046875</LatitudeDegrees>
              <LongitudeDegrees>-0.54485564120113849639892578125</LongitudeDegrees>
            </Position>
            <AltitudeMeters>104.8000030517578125</AltitudeMeters>
            <DistanceMeters>11916.464529896</DistanceMeters>
          </Trackpoint>
          <Trackpoint>
            <Time>2021-10-09T07:14:57.000Z</Time>
            <Position>
              <LatitudeDegrees>39.4822741113603115081787109375</LatitudeDegrees>
              <LongitudeDegrees>-0.5448892526328563690185546875</LongitudeDegrees>
            </Position>
            <AltitudeMeters>105.1999969482421875</AltitudeMeters>
            <DistanceMeters>11921.855150083</DistanceMeters>
          </Trackpoint>
          <Trackpoint>
            <Time>2021-10-09T07:14:58.000Z</Time>
            <Position>
              <LatitudeDegrees>39.4823170267045497894287109375</LatitudeDegrees>
              <LongitudeDegrees>-0.5449190922081470489501953125</LongitudeDegrees>
            </Position>
            <AltitudeMeters>105.8000030517578125</AltitudeMeters>
            <DistanceMeters>11927.276671901</DistanceMeters>
          </Trackpoint>
          <Trackpoint>
            <Time>2021-10-09T07:14:59.000Z</Time>
            <Position>
              <LatitudeDegrees>39.48236254043877124786376953125</LatitudeDegrees>
              <LongitudeDegrees>-0.5449511110782623291015625</LongitudeDegrees>
            </Position>
            <AltitudeMeters>105.8000030517578125</AltitudeMeters>
            <DistanceMeters>11933.041277812</DistanceMeters>
          </Trackpoint>
          <Trackpoint>
            <Time>2021-10-09T07:15:00.000Z</Time>
            <Position>
              <LatitudeDegrees>39.4824095629155635833740234375</LatitudeDegrees>
              <LongitudeDegrees>-0.54498472250998020172119140625</LongitudeDegrees>
            </Position>
            <AltitudeMeters>106</AltitudeMeters>
            <DistanceMeters>11939.018148433</DistanceMeters>
          </Trackpoint>
          <Trackpoint>
            <Time>2021-10-09T07:15:01.000Z</Time>
            <Position>
              <LatitudeDegrees>39.48245759122073650360107421875</LatitudeDegrees>
              <LongitudeDegrees>-0.54501992650330066680908203125</LongitudeDegrees>
            </Position>
            <AltitudeMeters>106.1999969482421875</AltitudeMeters>
            <DistanceMeters>11945.159697855</DistanceMeters>
          </Trackpoint>
          <Trackpoint>
            <Time>2021-10-09T07:15:02.000Z</Time>
            <Position>
              <LatitudeDegrees>39.48250503279268741607666015625</LatitudeDegrees>
              <LongitudeDegrees>-0.54505529813468456268310546875</LongitudeDegrees>
            </Position>
            <AltitudeMeters>106.40000152587890625</AltitudeMeters>
            <DistanceMeters>11951.251792255</DistanceMeters>
          </Trackpoint>
          <Trackpoint>
            <Time>2021-10-09T07:15:03.000Z</Time>
            <Position>
              <LatitudeDegrees>39.482553564012050628662109375</LatitudeDegrees>
              <LongitudeDegrees>-0.545092932879924774169921875</LongitudeDegrees>
            </Position>
            <AltitudeMeters>106.40000152587890625</AltitudeMeters>
            <DistanceMeters>11957.54655003</DistanceMeters>
          </Trackpoint>
          <Trackpoint>
            <Time>2021-10-09T07:15:04.000Z</Time>
            <Position>
              <LatitudeDegrees>39.48260310105979442596435546875</LatitudeDegrees>
              <LongitudeDegrees>-0.54512905888259410858154296875</LongitudeDegrees>
            </Position>
            <AltitudeMeters>106.40000152587890625</AltitudeMeters>
            <DistanceMeters>11963.872788944</DistanceMeters>
          </Trackpoint>
          <Trackpoint>
            <Time>2021-10-09T07:15:05.000Z</Time>
            <Position>
              <LatitudeDegrees>39.4826526381075382232666015625</LatitudeDegrees>
              <LongitudeDegrees>-0.5451645143330097198486328125</LongitudeDegrees>
            </Position>
            <AltitudeMeters>106.59999847412109375</AltitudeMeters>
            <DistanceMeters>11970.171848865</DistanceMeters>
          </Trackpoint>
          <Trackpoint>
            <Time>2021-10-09T07:15:06.000Z</Time>
            <Position>
              <LatitudeDegrees>39.48270318098366260528564453125</LatitudeDegrees>
              <LongitudeDegrees>-0.54520466364920139312744140625</LongitudeDegrees>
            </Position>
            <AltitudeMeters>106.59999847412109375</AltitudeMeters>
            <DistanceMeters>11976.770563029</DistanceMeters>
          </Trackpoint>
          <Trackpoint>
            <Time>2021-10-09T07:15:07.000Z</Time>
            <Position>
              <LatitudeDegrees>39.4827564060688018798828125</LatitudeDegrees>
              <LongitudeDegrees>-0.54524707607924938201904296875</LongitudeDegrees>
            </Position>
            <AltitudeMeters>106.59999847412109375</AltitudeMeters>
            <DistanceMeters>11983.725064408</DistanceMeters>
          </Trackpoint>
          <Trackpoint>
            <Time>2021-10-09T07:15:08.000Z</Time>
            <Position>
              <LatitudeDegrees>39.48280996643006801605224609375</LatitudeDegrees>
              <LongitudeDegrees>-0.54529082961380481719970703125</LongitudeDegrees>
            </Position>
            <AltitudeMeters>106.40000152587890625</AltitudeMeters>
            <DistanceMeters>11990.772434162</DistanceMeters>
          </Trackpoint>
          <Trackpoint>
            <Time>2021-10-09T07:15:09.000Z</Time>
            <Position>
              <LatitudeDegrees>39.4828645326197147369384765625</LatitudeDegrees>
              <LongitudeDegrees>-0.54533994756639003753662109375</LongitudeDegrees>
            </Position>
            <AltitudeMeters>106.40000152587890625</AltitudeMeters>
            <DistanceMeters>11998.167442136</DistanceMeters>
          </Trackpoint>
          <Trackpoint>
            <Time>2021-10-09T07:15:10.000Z</Time>
            <Position>
              <LatitudeDegrees>39.48292211629450321197509765625</LatitudeDegrees>
              <LongitudeDegrees>-0.54539409466087818145751953125</LongitudeDegrees>
            </Position>
            <AltitudeMeters>106.40000152587890625</AltitudeMeters>
            <DistanceMeters>12006.087221867</DistanceMeters>
          </Trackpoint>
          <Trackpoint>
            <Time>2021-10-09T07:15:11.000Z</Time>
            <Position>
              <LatitudeDegrees>39.48298280127346515655517578125</LatitudeDegrees>
              <LongitudeDegrees>-0.5454535223543643951416015625</LongitudeDegrees>
            </Position>
            <AltitudeMeters>106.40000152587890625</AltitudeMeters>
            <DistanceMeters>12014.553670166</DistanceMeters>
          </Trackpoint>
          <Trackpoint>
            <Time>2021-10-09T07:15:12.000Z</Time>
            <Position>
              <LatitudeDegrees>39.4830583222210407257080078125</LatitudeDegrees>
              <LongitudeDegrees>-0.5455299653112888336181640625</LongitudeDegrees>
            </Position>
            <AltitudeMeters>106.40000152587890625</AltitudeMeters>
            <DistanceMeters>12025.220392399</DistanceMeters>
          </Trackpoint>
          <Trackpoint>
            <Time>2021-10-09T07:15:13.000Z</Time>
            <Position>
              <LatitudeDegrees>39.483112134039402008056640625</LatitudeDegrees>
              <LongitudeDegrees>-0.545585118234157562255859375</LongitudeDegrees>
            </Position>
            <AltitudeMeters>106.1999969482421875</AltitudeMeters>
            <DistanceMeters>12032.85689904</DistanceMeters>
          </Trackpoint>
          <Trackpoint>
            <Time>2021-10-09T07:15:14.000Z</Time>
            <Position>
              <LatitudeDegrees>39.48317776434123516082763671875</LatitudeDegrees>
              <LongitudeDegrees>-0.54565829224884510040283203125</LongitudeDegrees>
            </Position>
            <AltitudeMeters>105.8000030517578125</AltitudeMeters>
            <DistanceMeters>12042.494500728</DistanceMeters>
          </Trackpoint>
          <Trackpoint>
            <Time>2021-10-09T07:15:15.000Z</Time>
            <Position>
              <LatitudeDegrees>39.48324582539498805999755859375</LatitudeDegrees>
              <LongitudeDegrees>-0.54573540575802326202392578125</LongitudeDegrees>
            </Position>
            <AltitudeMeters>105.59999847412109375</AltitudeMeters>
            <DistanceMeters>12052.557915026</DistanceMeters>
          </Trackpoint>
          <Trackpoint>
            <Time>2021-10-09T07:15:16.000Z</Time>
            <Position>
              <LatitudeDegrees>39.4833154790103435516357421875</LatitudeDegrees>
              <LongitudeDegrees>-0.54581419564783573150634765625</LongitudeDegrees>
            </Position>
            <AltitudeMeters>105.40000152587890625</AltitudeMeters>
            <DistanceMeters>12062.849795159</DistanceMeters>
          </Trackpoint>
          <Trackpoint>
            <Time>2021-10-09T07:15:17.000Z</Time>
            <Position>
              <LatitudeDegrees>39.48338798247277736663818359375</LatitudeDegrees>
              <LongitudeDegrees>-0.54589365608990192413330078125</LongitudeDegrees>
            </Position>
            <AltitudeMeters>104.8000030517578125</AltitudeMeters>
            <DistanceMeters>12073.419568372</DistanceMeters>
          </Trackpoint>
          <Trackpoint>
            <Time>2021-10-09T07:15:18.000Z</Time>
            <Position>
              <LatitudeDegrees>39.48346115648746490478515625</LatitudeDegrees>
              <LongitudeDegrees>-0.54597462527453899383544921875</LongitudeDegrees>
            </Position>
            <AltitudeMeters>104.1999969482421875</AltitudeMeters>
            <DistanceMeters>12084.129799979</DistanceMeters>
          </Trackpoint>
          <Trackpoint>
            <Time>2021-10-09T07:15:19.000Z</Time>
            <Position>
              <LatitudeDegrees>39.48355101048946380615234375</LatitudeDegrees>
              <LongitudeDegrees>-0.54607235826551914215087890625</LongitudeDegrees>
            </Position>
            <AltitudeMeters>103.40000152587890625</AltitudeMeters>
            <DistanceMeters>12097.187590887</DistanceMeters>
          </Trackpoint>
          <Trackpoint>
            <Time>2021-10-09T07:15:20.000Z</Time>
            <Position>
              <LatitudeDegrees>39.4836132042109966278076171875</LatitudeDegrees>
              <LongitudeDegrees>-0.54613907821476459503173828125</LongitudeDegrees>
            </Position>
            <AltitudeMeters>103</AltitudeMeters>
            <DistanceMeters>12106.174526055</DistanceMeters>
          </Trackpoint>
          <Trackpoint>
            <Time>2021-10-09T07:15:21.000Z</Time>
            <Position>
              <LatitudeDegrees>39.483708925545215606689453125</LatitudeDegrees>
              <LongitudeDegrees>-0.5462367273867130279541015625</LongitudeDegrees>
            </Position>
            <AltitudeMeters>102.40000152587890625</AltitudeMeters>
            <DistanceMeters>12119.734408671</DistanceMeters>
          </Trackpoint>
          <Trackpoint>
            <Time>2021-10-09T07:15:22.000Z</Time>
            <Position>
              <LatitudeDegrees>39.48377304710447788238525390625</LatitudeDegrees>
              <LongitudeDegrees>-0.54629866965115070343017578125</LongitudeDegrees>
            </Position>
            <AltitudeMeters>101.40000152587890625</AltitudeMeters>
            <DistanceMeters>12128.636540487</DistanceMeters>
          </Trackpoint>
          <Trackpoint>
            <Time>2021-10-09T07:15:23.000Z</Time>
            <Position>
              <LatitudeDegrees>39.48385267518460750579833984375</LatitudeDegrees>
              <LongitudeDegrees>-0.54636874236166477203369140625</LongitudeDegrees>
            </Position>
            <AltitudeMeters>100.8000030517578125</AltitudeMeters>
            <DistanceMeters>12139.35056549</DistanceMeters>
          </Trackpoint>
          <Trackpoint>
            <Time>2021-10-09T07:15:24.000Z</Time>
            <Position>
              <LatitudeDegrees>39.48393448255956172943115234375</LatitudeDegrees>
              <LongitudeDegrees>-0.546433366835117340087890625</LongitudeDegrees>
            </Position>
            <AltitudeMeters>100</AltitudeMeters>
            <DistanceMeters>12150.014747725</DistanceMeters>
          </Trackpoint>
          <Trackpoint>
            <Time>2021-10-09T07:15:25.000Z</Time>
            <Position>
              <LatitudeDegrees>39.48403120972216129302978515625</LatitudeDegrees>
              <LongitudeDegrees>-0.5465042777359485626220703125</LongitudeDegrees>
            </Position>
            <AltitudeMeters>99.40000152587890625</AltitudeMeters>
            <DistanceMeters>12162.384291583</DistanceMeters>
          </Trackpoint>
          <Trackpoint>
            <Time>2021-10-09T07:15:26.000Z</Time>
            <Position>
              <LatitudeDegrees>39.4840949960052967071533203125</LatitudeDegrees>
              <LongitudeDegrees>-0.54654895327985286712646484375</LongitudeDegrees>
            </Position>
            <AltitudeMeters>99</AltitudeMeters>
            <DistanceMeters>12170.455411175</DistanceMeters>
          </Trackpoint>
          <Trackpoint>
            <Time>2021-10-09T07:15:27.000Z</Time>
            <Position>
              <LatitudeDegrees>39.48417638428509235382080078125</LatitudeDegrees>
              <LongitudeDegrees>-0.54660737514495849609375</LongitudeDegrees>
            </Position>
            <AltitudeMeters>98.8000030517578125</AltitudeMeters>
            <DistanceMeters>12180.811579285</DistanceMeters>
          </Trackpoint>
          <Trackpoint>
            <Time>2021-10-09T07:15:28.000Z</Time>
            <Position>
              <LatitudeDegrees>39.4842747040092945098876953125</LatitudeDegrees>
              <LongitudeDegrees>-0.54667904041707515716552734375</LongitudeDegrees>
            </Position>
            <AltitudeMeters>98.40000152587890625</AltitudeMeters>
            <DistanceMeters>12193.3676975</DistanceMeters>
          </Trackpoint>
          <Trackpoint>
            <Time>2021-10-09T07:15:29.000Z</Time>
            <Position>
              <LatitudeDegrees>39.4843387417495250701904296875</LatitudeDegrees>
              <LongitudeDegrees>-0.54672514088451862335205078125</LongitudeDegrees>
            </Position>
            <AltitudeMeters>98.40000152587890625</AltitudeMeters>
            <DistanceMeters>12201.521188947</DistanceMeters>
          </Trackpoint>
          <Trackpoint>
            <Time>2021-10-09T07:15:30.000Z</Time>
            <Position>
              <LatitudeDegrees>39.48441761545836925506591796875</LatitudeDegrees>
              <LongitudeDegrees>-0.54678096435964107513427734375</LongitudeDegrees>
            </Position>
            <AltitudeMeters>98.1999969482421875</AltitudeMeters>
            <DistanceMeters>12211.523850943</DistanceMeters>
          </Trackpoint>
          <Trackpoint>
            <Time>2021-10-09T07:15:31.000Z</Time>
            <Position>
              <LatitudeDegrees>39.484496153891086578369140625</LatitudeDegrees>
              <LongitudeDegrees>-0.546837709844112396240234375</LongitudeDegrees>
            </Position>
            <AltitudeMeters>98</AltitudeMeters>
            <DistanceMeters>12221.532830315</DistanceMeters>
          </Trackpoint>
          <Trackpoint>
            <Time>2021-10-09T07:15:32.000Z</Time>
            <Position>
              <LatitudeDegrees>39.48457653634250164031982421875</LatitudeDegrees>
              <LongitudeDegrees>-0.546894371509552001953125</LongitudeDegrees>
            </Position>
            <AltitudeMeters>97.8000030517578125</AltitudeMeters>
            <DistanceMeters>12231.717105352</DistanceMeters>
          </Trackpoint>
          <Trackpoint>
            <Time>2021-10-09T07:15:33.000Z</Time>
            <Position>
              <LatitudeDegrees>39.48465733788907527923583984375</LatitudeDegrees>
              <LongitudeDegrees>-0.5469451658427715301513671875</LongitudeDegrees>
            </Position>
            <AltitudeMeters>97.8000030517578125</AltitudeMeters>
            <DistanceMeters>12241.7129943</DistanceMeters>
          </Trackpoint>
          <Trackpoint>
            <Time>2021-10-09T07:15:34.000Z</Time>
            <Position>
              <LatitudeDegrees>39.4847383908927440643310546875</LatitudeDegrees>
              <LongitudeDegrees>-0.54699135012924671173095703125</LongitudeDegrees>
            </Position>
            <AltitudeMeters>97.59999847412109375</AltitudeMeters>
            <DistanceMeters>12251.568322921</DistanceMeters>
          </Trackpoint>
          <Trackpoint>
            <Time>2021-10-09T07:15:35.000Z</Time>
            <Position>
              <LatitudeDegrees>39.48481793515384197235107421875</LatitudeDegrees>
              <LongitudeDegrees>-0.54703644476830959320068359375</LongitudeDegrees>
            </Position>
            <AltitudeMeters>97.40000152587890625</AltitudeMeters>
            <DistanceMeters>12261.232591164</DistanceMeters>
          </Trackpoint>
          <Trackpoint>
            <Time>2021-10-09T07:15:36.000Z</Time>
            <Position>
              <LatitudeDegrees>39.4848959706723690032958984375</LatitudeDegrees>
              <LongitudeDegrees>-0.547083131968975067138671875</LongitudeDegrees>
            </Position>
            <AltitudeMeters>97.59999847412109375</AltitudeMeters>
            <DistanceMeters>12270.799662546</DistanceMeters>
          </Trackpoint>
          <Trackpoint>
            <Time>2021-10-09T07:15:37.000Z</Time>
            <Position>
              <LatitudeDegrees>39.48497450910508632659912109375</LatitudeDegrees>
              <LongitudeDegrees>-0.5471262149512767791748046875</LongitudeDegrees>
            </Position>
            <AltitudeMeters>97.40000152587890625</AltitudeMeters>
            <DistanceMeters>12280.292350934</DistanceMeters>
          </Trackpoint>
          <Trackpoint>
            <Time>2021-10-09T07:15:38.000Z</Time>
            <Position>
              <LatitudeDegrees>39.48505229316651821136474609375</LatitudeDegrees>
              <LongitudeDegrees>-0.54716653190553188323974609375</LongitudeDegrees>
            </Position>
            <AltitudeMeters>97.40000152587890625</AltitudeMeters>
            <DistanceMeters>12289.616597606</DistanceMeters>
          </Trackpoint>
          <Trackpoint>
            <Time>2021-10-09T07:15:39.000Z</Time>
            <Position>
              <LatitudeDegrees>39.4851286523044109344482421875</LatitudeDegrees>
              <LongitudeDegrees>-0.5472056753933429718017578125</LongitudeDegrees>
            </Position>
            <AltitudeMeters>97.40000152587890625</AltitudeMeters>
            <DistanceMeters>12298.756962329</DistanceMeters>
          </Trackpoint>
          <Trackpoint>
            <Time>2021-10-09T07:15:40.000Z</Time>
            <Position>
              <LatitudeDegrees>39.4852037541568279266357421875</LatitudeDegrees>
              <LongitudeDegrees>-0.54724163375794887542724609375</LongitudeDegrees>
            </Position>
            <AltitudeMeters>97.40000152587890625</AltitudeMeters>
            <DistanceMeters>12307.669232096</DistanceMeters>
          </Trackpoint>
          <Trackpoint>
            <Time>2021-10-09T07:15:41.000Z</Time>
            <Position>
              <LatitudeDegrees>39.48527793399989604949951171875</LatitudeDegrees>
              <LongitudeDegrees>-0.547276251018047332763671875</LongitudeDegrees>
            </Position>
            <AltitudeMeters>97.40000152587890625</AltitudeMeters>
            <DistanceMeters>12316.444680341</DistanceMeters>
          </Trackpoint>
          <Trackpoint>
            <Time>2021-10-09T07:15:42.000Z</Time>
            <Position>
              <LatitudeDegrees>39.48535035364329814910888671875</LatitudeDegrees>
              <LongitudeDegrees>-0.54731003008782863616943359375</LongitudeDegrees>
            </Position>
            <AltitudeMeters>97.40000152587890625</AltitudeMeters>
            <DistanceMeters>12325.010799719</DistanceMeters>
          </Trackpoint>
          <Trackpoint>
            <Time>2021-10-09T07:15:43.000Z</Time>
            <Position>
              <LatitudeDegrees>39.48542109690606594085693359375</LatitudeDegrees>
              <LongitudeDegrees>-0.5473423004150390625</LongitudeDegrees>
            </Position>
            <AltitudeMeters>97.40000152587890625</AltitudeMeters>
            <DistanceMeters>12333.358019007</DistanceMeters>
          </Trackpoint>
          <Trackpoint>
            <Time>2021-10-09T07:15:44.000Z</Time>
            <Position>
              <LatitudeDegrees>39.485493600368499755859375</LatitudeDegrees>
              <LongitudeDegrees>-0.54737322963774204254150390625</LongitudeDegrees>
            </Position>
            <AltitudeMeters>97.40000152587890625</AltitudeMeters>
            <DistanceMeters>12341.85321594</DistanceMeters>
          </Trackpoint>
          <Trackpoint>
            <Time>2021-10-09T07:15:45.000Z</Time>
            <Position>
              <LatitudeDegrees>39.4855648465454578399658203125</LatitudeDegrees>
              <LongitudeDegrees>-0.5474004708230495452880859375</LongitudeDegrees>
            </Position>
            <AltitudeMeters>97.40000152587890625</AltitudeMeters>
            <DistanceMeters>12350.121086203</DistanceMeters>
          </Trackpoint>
          <Trackpoint>
            <Time>2021-10-09T07:15:46.000Z</Time>
            <Position>
              <LatitudeDegrees>39.48565059341490268707275390625</LatitudeDegrees>
              <LongitudeDegrees>-0.5474323220551013946533203125</LongitudeDegrees>
            </Position>
            <AltitudeMeters>97.40000152587890625</AltitudeMeters>
            <DistanceMeters>12360.049445305</DistanceMeters>
          </Trackpoint>
          <Trackpoint>
            <Time>2021-10-09T07:15:47.000Z</Time>
            <Position>
              <LatitudeDegrees>39.48570658452808856964111328125</LatitudeDegrees>
              <LongitudeDegrees>-0.5474517680704593658447265625</LongitudeDegrees>
            </Position>
            <AltitudeMeters>97.40000152587890625</AltitudeMeters>
            <DistanceMeters>12366.500772481</DistanceMeters>
          </Trackpoint>
          <Trackpoint>
            <Time>2021-10-09T07:15:48.000Z</Time>
            <Position>
              <LatitudeDegrees>39.485776238143444061279296875</LatitudeDegrees>
              <LongitudeDegrees>-0.54747615940868854522705078125</LongitudeDegrees>
            </Position>
            <AltitudeMeters>97.59999847412109375</AltitudeMeters>
            <DistanceMeters>12374.53095155</DistanceMeters>
          </Trackpoint>
          <Trackpoint>
            <Time>2021-10-09T07:15:49.000Z</Time>
            <Position>
              <LatitudeDegrees>39.48584203608334064483642578125</LatitudeDegrees>
              <LongitudeDegrees>-0.54750398732721805572509765625</LongitudeDegrees>
            </Position>
            <AltitudeMeters>97.59999847412109375</AltitudeMeters>
            <DistanceMeters>12382.234565143</DistanceMeters>
          </Trackpoint>
          <Trackpoint>
            <Time>2021-10-09T07:15:50.000Z</Time>
            <Position>
              <LatitudeDegrees>39.4859080016613006591796875</LatitudeDegrees>
              <LongitudeDegrees>-0.54753533564507961273193359375</LongitudeDegrees>
            </Position>
            <AltitudeMeters>97.8000030517578125</AltitudeMeters>
            <DistanceMeters>12390.055096312</DistanceMeters>
          </Trackpoint>
          <Trackpoint>
            <Time>2021-10-09T07:15:51.000Z</Time>
            <Position>
              <LatitudeDegrees>39.48597430251538753509521484375</LatitudeDegrees>
              <LongitudeDegrees>-0.54756618104875087738037109375</LongitudeDegrees>
            </Position>
            <AltitudeMeters>98</AltitudeMeters>
            <DistanceMeters>12397.894656266</DistanceMeters>
          </Trackpoint>
          <Trackpoint>
            <Time>2021-10-09T07:15:52.000Z</Time>
            <Position>
              <LatitudeDegrees>39.48603800497949123382568359375</LatitudeDegrees>
              <LongitudeDegrees>-0.5475989542901515960693359375</LongitudeDegrees>
            </Position>
            <AltitudeMeters>98.1999969482421875</AltitudeMeters>
            <DistanceMeters>12405.522881001</DistanceMeters>
          </Trackpoint>
          <Trackpoint>
            <Time>2021-10-09T07:15:53.000Z</Time>
            <Position>
              <LatitudeDegrees>39.4861011207103729248046875</LatitudeDegrees>
              <LongitudeDegrees>-0.547632984817028045654296875</LongitudeDegrees>
            </Position>
            <AltitudeMeters>98.1999969482421875</AltitudeMeters>
            <DistanceMeters>12413.131548432</DistanceMeters>
          </Trackpoint>
          <Trackpoint>
            <Time>2021-10-09T07:15:54.000Z</Time>
            <Position>
              <LatitudeDegrees>39.48616482317447662353515625</LatitudeDegrees>
              <LongitudeDegrees>-0.54767078720033168792724609375</LongitudeDegrees>
            </Position>
            <AltitudeMeters>98.1999969482421875</AltitudeMeters>
            <DistanceMeters>12420.92953117</DistanceMeters>
          </Trackpoint>
          <Trackpoint>
            <Time>2021-10-09T07:15:55.000Z</Time>
            <Position>
              <LatitudeDegrees>39.4862394221127033233642578125</LatitudeDegrees>
              <LongitudeDegrees>-0.54771219380199909210205078125</LongitudeDegrees>
            </Position>
            <AltitudeMeters>98.1999969482421875</AltitudeMeters>
            <DistanceMeters>12429.962568906</DistanceMeters>
          </Trackpoint>
          <Trackpoint>
            <Time>2021-10-09T07:15:56.000Z</Time>
            <Position>
              <LatitudeDegrees>39.48628778569400310516357421875</LatitudeDegrees>
              <LongitudeDegrees>-0.54773633368313312530517578125</LongitudeDegrees>
            </Position>
            <AltitudeMeters>98.40000152587890625</AltitudeMeters>
            <DistanceMeters>12435.73187231</DistanceMeters>
          </Trackpoint>
          <Trackpoint>
            <Time>2021-10-09T07:15:57.000Z</Time>
            <Position>
              <LatitudeDegrees>39.48634855449199676513671875</LatitudeDegrees>
              <LongitudeDegrees>-0.54776541888713836669921875</LongitudeDegrees>
            </Position>
            <AltitudeMeters>98.59999847412109375</AltitudeMeters>
            <DistanceMeters>12442.942640658</DistanceMeters>
          </Trackpoint>
          <Trackpoint>
            <Time>2021-10-09T07:15:58.000Z</Time>
            <Position>
              <LatitudeDegrees>39.48641016148030757904052734375</LatitudeDegrees>
              <LongitudeDegrees>-0.54779358208179473876953125</LongitudeDegrees>
            </Position>
            <AltitudeMeters>98.59999847412109375</AltitudeMeters>
            <DistanceMeters>12450.213271133</DistanceMeters>
          </Trackpoint>
          <Trackpoint>
            <Time>2021-10-09T07:15:59.000Z</Time>
            <Position>
              <LatitudeDegrees>39.48647252283990383148193359375</LatitudeDegrees>
              <LongitudeDegrees>-0.5478202365338802337646484375</LongitudeDegrees>
            </Position>
            <AltitudeMeters>98.8000030517578125</AltitudeMeters>
            <DistanceMeters>12457.52291971</DistanceMeters>
          </Trackpoint>
          <Trackpoint>
            <Time>2021-10-09T07:16:00.000Z</Time>
            <Position>
              <LatitudeDegrees>39.48654913343489170074462890625</LatitudeDegrees>
              <LongitudeDegrees>-0.54784856736660003662109375</LongitudeDegrees>
            </Position>
            <AltitudeMeters>99</AltitudeMeters>
            <DistanceMeters>12466.390495798</DistanceMeters>
          </Trackpoint>
          <Trackpoint>
            <Time>2021-10-09T07:16:01.000Z</Time>
            <Position>
              <LatitudeDegrees>39.48661417700350284576416015625</LatitudeDegrees>
              <LongitudeDegrees>-0.5478720366954803466796875</LongitudeDegrees>
            </Position>
            <AltitudeMeters>99.1999969482421875</AltitudeMeters>
            <DistanceMeters>12473.90542082</DistanceMeters>
          </Trackpoint>
          <Trackpoint>
            <Time>2021-10-09T07:16:02.000Z</Time>
            <Position>
              <LatitudeDegrees>39.48666396550834178924560546875</LatitudeDegrees>
              <LongitudeDegrees>-0.54789089597761631011962890625</LongitudeDegrees>
            </Position>
            <AltitudeMeters>99.1999969482421875</AltitudeMeters>
            <DistanceMeters>12479.679417895</DistanceMeters>
          </Trackpoint>
          <Trackpoint>
            <Time>2021-10-09T07:16:03.000Z</Time>
            <Position>
              <LatitudeDegrees>39.486727751791477203369140625</LatitudeDegrees>
              <LongitudeDegrees>-0.54791436530649662017822265625</LongitudeDegrees>
            </Position>
            <AltitudeMeters>99.40000152587890625</AltitudeMeters>
            <DistanceMeters>12487.059758071</DistanceMeters>
          </Trackpoint>
          <Trackpoint>
            <Time>2021-10-09T07:16:04.000Z</Time>
            <Position>
              <LatitudeDegrees>39.48679271154105663299560546875</LatitudeDegrees>
              <LongitudeDegrees>-0.54793582297861576080322265625</LongitudeDegrees>
            </Position>
            <AltitudeMeters>99.40000152587890625</AltitudeMeters>
            <DistanceMeters>12494.520414289</DistanceMeters>
          </Trackpoint>
          <Trackpoint>
            <Time>2021-10-09T07:16:05.000Z</Time>
            <Position>
              <LatitudeDegrees>39.486856497824192047119140625</LatitudeDegrees>
              <LongitudeDegrees>-0.54795292206108570098876953125</LongitudeDegrees>
            </Position>
            <AltitudeMeters>99.40000152587890625</AltitudeMeters>
            <DistanceMeters>12501.769900126</DistanceMeters>
          </Trackpoint>
          <Trackpoint>
            <Time>2021-10-09T07:16:06.000Z</Time>
            <Position>
              <LatitudeDegrees>39.4869321025907993316650390625</LatitudeDegrees>
              <LongitudeDegrees>-0.547970272600650787353515625</LongitudeDegrees>
            </Position>
            <AltitudeMeters>99.59999847412109375</AltitudeMeters>
            <DistanceMeters>12510.315966957</DistanceMeters>
          </Trackpoint>
          <Trackpoint>
            <Time>2021-10-09T07:16:07.000Z</Time>
            <Position>
              <LatitudeDegrees>39.4869808852672576904296875</LatitudeDegrees>
              <LongitudeDegrees>-0.54798007942736148834228515625</LongitudeDegrees>
            </Position>
            <AltitudeMeters>99.59999847412109375</AltitudeMeters>
            <DistanceMeters>12515.81110805</DistanceMeters>
          </Trackpoint>
          <Trackpoint>
            <Time>2021-10-09T07:16:08.000Z</Time>
            <Position>
              <LatitudeDegrees>39.48704232461750507354736328125</LatitudeDegrees>
              <LongitudeDegrees>-0.5479962565004825592041015625</LongitudeDegrees>
            </Position>
            <AltitudeMeters>99.8000030517578125</AltitudeMeters>
            <DistanceMeters>12522.788942398</DistanceMeters>
          </Trackpoint>
          <Trackpoint>
            <Time>2021-10-09T07:16:09.000Z</Time>
            <Position>
              <LatitudeDegrees>39.48711373843252658843994140625</LatitudeDegrees>
              <LongitudeDegrees>-0.54802031256258487701416015625</LongitudeDegrees>
            </Position>
            <AltitudeMeters>99.8000030517578125</AltitudeMeters>
            <DistanceMeters>12531.002021664</DistanceMeters>
          </Trackpoint>
          <Trackpoint>
            <Time>2021-10-09T07:16:10.000Z</Time>
            <Position>
              <LatitudeDegrees>39.487160928547382354736328125</LatitudeDegrees>
              <LongitudeDegrees>-0.54803942330181598663330078125</LongitudeDegrees>
            </Position>
            <AltitudeMeters>99.8000030517578125</AltitudeMeters>
            <DistanceMeters>12536.505373042</DistanceMeters>
          </Trackpoint>
          <Trackpoint>
            <Time>2021-10-09T07:16:11.000Z</Time>
            <Position>
              <LatitudeDegrees>39.48721817694604396820068359375</LatitudeDegrees>
              <LongitudeDegrees>-0.548062138259410858154296875</LongitudeDegrees>
            </Position>
            <AltitudeMeters>100</AltitudeMeters>
            <DistanceMeters>12543.169449569</DistanceMeters>
          </Trackpoint>
          <Trackpoint>
            <Time>2021-10-09T07:16:12.000Z</Time>
            <Position>
              <LatitudeDegrees>39.487276263535022735595703125</LatitudeDegrees>
              <LongitudeDegrees>-0.54808803834021091461181640625</LongitudeDegrees>
            </Position>
            <AltitudeMeters>100</AltitudeMeters>
            <DistanceMeters>12550.006091703</DistanceMeters>
          </Trackpoint>
          <Trackpoint>
            <Time>2021-10-09T07:16:13.000Z</Time>
            <Position>
              <LatitudeDegrees>39.48734189383685588836669921875</LatitudeDegrees>
              <LongitudeDegrees>-0.54811955429613590240478515625</LongitudeDegrees>
            </Position>
            <AltitudeMeters>100</AltitudeMeters>
            <DistanceMeters>12557.795964212</DistanceMeters>
          </Trackpoint>
          <Trackpoint>
            <Time>2021-10-09T07:16:14.000Z</Time>
            <Position>
              <LatitudeDegrees>39.487385563552379608154296875</LatitudeDegrees>
              <LongitudeDegrees>-0.5481370724737644195556640625</LongitudeDegrees>
            </Position>
            <AltitudeMeters>100.1999969482421875</AltitudeMeters>
            <DistanceMeters>12562.884110158</DistanceMeters>
          </Trackpoint>
          <Trackpoint>
            <Time>2021-10-09T07:16:15.000Z</Time>
            <Position>
              <LatitudeDegrees>39.48745186440646648406982421875</LatitudeDegrees>
              <LongitudeDegrees>-0.54816632531583309173583984375</LongitudeDegrees>
            </Position>
            <AltitudeMeters>100.1999969482421875</AltitudeMeters>
            <DistanceMeters>12570.679776548</DistanceMeters>
          </Trackpoint>
          <Trackpoint>
            <Time>2021-10-09T07:16:16.000Z</Time>
            <Position>
              <LatitudeDegrees>39.48749444447457790374755859375</LatitudeDegrees>
              <LongitudeDegrees>-0.54818929173052310943603515625</LongitudeDegrees>
            </Position>
            <AltitudeMeters>100.40000152587890625</AltitudeMeters>
            <DistanceMeters>12575.812978576</DistanceMeters>
          </Trackpoint>
          <Trackpoint>
            <Time>2021-10-09T07:16:17.000Z</Time>
            <Position>
              <LatitudeDegrees>39.48754959739744663238525390625</LatitudeDegrees>
              <LongitudeDegrees>-0.5482168681919574737548828125</LongitudeDegrees>
            </Position>
            <AltitudeMeters>100.40000152587890625</AltitudeMeters>
            <DistanceMeters>12582.391820146</DistanceMeters>
          </Trackpoint>
          <Trackpoint>
            <Time>2021-10-09T07:16:18.000Z</Time>
            <Position>
              <LatitudeDegrees>39.4876053370535373687744140625</LatitudeDegrees>
              <LongitudeDegrees>-0.548243187367916107177734375</LongitudeDegrees>
            </Position>
            <AltitudeMeters>100.8000030517578125</AltitudeMeters>
            <DistanceMeters>12588.994638413</DistanceMeters>
          </Trackpoint>
          <Trackpoint>
            <Time>2021-10-09T07:16:19.000Z</Time>
            <Position>
              <LatitudeDegrees>39.48765990324318408966064453125</LatitudeDegrees>
              <LongitudeDegrees>-0.5482701770961284637451171875</LongitudeDegrees>
            </Position>
            <AltitudeMeters>100.59999847412109375</AltitudeMeters>
            <DistanceMeters>12595.49546588</DistanceMeters>
          </Trackpoint>
          <Trackpoint>
            <Time>2021-10-09T07:16:20.000Z</Time>
            <Position>
              <LatitudeDegrees>39.48771589435636997222900390625</LatitudeDegrees>
              <LongitudeDegrees>-0.54829624481499195098876953125</LongitudeDegrees>
            </Position>
            <AltitudeMeters>101</AltitudeMeters>
            <DistanceMeters>12602.117402999</DistanceMeters>
          </Trackpoint>
          <Trackpoint>
            <Time>2021-10-09T07:16:21.000Z</Time>
            <Position>
              <LatitudeDegrees>39.4877723045647144317626953125</LatitudeDegrees>
              <LongitudeDegrees>-0.54832197725772857666015625</LongitudeDegrees>
            </Position>
            <AltitudeMeters>101</AltitudeMeters>
            <DistanceMeters>12608.773344333</DistanceMeters>
          </Trackpoint>
          <Trackpoint>
            <Time>2021-10-09T07:16:22.000Z</Time>
            <Position>
              <LatitudeDegrees>39.48782687075436115264892578125</LatitudeDegrees>
              <LongitudeDegrees>-0.5483446083962917327880859375</LongitudeDegrees>
            </Position>
            <AltitudeMeters>101</AltitudeMeters>
            <DistanceMeters>12615.150762643</DistanceMeters>
          </Trackpoint>
          <Trackpoint>
            <Time>2021-10-09T07:16:23.000Z</Time>
            <Position>
              <LatitudeDegrees>39.48788135312497615814208984375</LatitudeDegrees>
              <LongitudeDegrees>-0.5483677424490451812744140625</LongitudeDegrees>
            </Position>
            <AltitudeMeters>101.1999969482421875</AltitudeMeters>
            <DistanceMeters>12621.531012216</DistanceMeters>
          </Trackpoint>
          <Trackpoint>
            <Time>2021-10-09T07:16:24.000Z</Time>
            <Position>
              <LatitudeDegrees>39.48794723488390445709228515625</LatitudeDegrees>
              <LongitudeDegrees>-0.5483985878527164459228515625</LongitudeDegrees>
            </Position>
            <AltitudeMeters>101.1999969482421875</AltitudeMeters>
            <DistanceMeters>12629.327836866</DistanceMeters>
          </Trackpoint>
          <Trackpoint>
            <Time>2021-10-09T07:16:25.000Z</Time>
            <Position>
              <LatitudeDegrees>39.4879909045994281768798828125</LatitudeDegrees>
              <LongitudeDegrees>-0.548418201506137847900390625</LongitudeDegrees>
            </Position>
            <AltitudeMeters>101.40000152587890625</AltitudeMeters>
            <DistanceMeters>12634.47158297</DistanceMeters>
          </Trackpoint>
          <Trackpoint>
            <Time>2021-10-09T07:16:26.000Z</Time>
            <Position>
              <LatitudeDegrees>39.4880484044551849365234375</LatitudeDegrees>
              <LongitudeDegrees>-0.5484433472156524658203125</LongitudeDegrees>
            </Position>
            <AltitudeMeters>101.40000152587890625</AltitudeMeters>
            <DistanceMeters>12641.225836903</DistanceMeters>
          </Trackpoint>
          <Trackpoint>
            <Time>2021-10-09T07:16:27.000Z</Time>
            <Position>
              <LatitudeDegrees>39.48810481466352939605712890625</LatitudeDegrees>
              <LongitudeDegrees>-0.54846723563969135284423828125</LongitudeDegrees>
            </Position>
            <AltitudeMeters>101.40000152587890625</AltitudeMeters>
            <DistanceMeters>12647.831389823</DistanceMeters>
          </Trackpoint>
          <Trackpoint>
            <Time>2021-10-09T07:16:28.000Z</Time>
            <Position>
              <LatitudeDegrees>39.488159716129302978515625</LatitudeDegrees>
              <LongitudeDegrees>-0.54849070496857166290283203125</LongitudeDegrees>
            </Position>
            <AltitudeMeters>101.40000152587890625</AltitudeMeters>
            <DistanceMeters>12654.265898389</DistanceMeters>
          </Trackpoint>
          <Trackpoint>
            <Time>2021-10-09T07:16:29.000Z</Time>
            <Position>
              <LatitudeDegrees>39.4882147014141082763671875</LatitudeDegrees>
              <LongitudeDegrees>-0.54851635359227657318115234375</LongitudeDegrees>
            </Position>
            <AltitudeMeters>101.59999847412109375</AltitudeMeters>
            <DistanceMeters>12660.769503395</DistanceMeters>
          </Trackpoint>
          <Trackpoint>
            <Time>2021-10-09T07:16:30.000Z</Time>
            <Position>
              <LatitudeDegrees>39.488268010318279266357421875</LatitudeDegrees>
              <LongitudeDegrees>-0.54854518733918666839599609375</LongitudeDegrees>
            </Position>
            <AltitudeMeters>101.59999847412109375</AltitudeMeters>
            <DistanceMeters>12667.199800436</DistanceMeters>
          </Trackpoint>
          <Trackpoint>
            <Time>2021-10-09T07:16:31.000Z</Time>
            <Position>
              <LatitudeDegrees>39.48832224123179912567138671875</LatitudeDegrees>
              <LongitudeDegrees>-0.5485732667148113250732421875</LongitudeDegrees>
            </Position>
            <AltitudeMeters>101.8000030517578125</AltitudeMeters>
            <DistanceMeters>12673.699933333</DistanceMeters>
          </Trackpoint>
          <Trackpoint>
            <Time>2021-10-09T07:16:32.000Z</Time>
            <Position>
              <LatitudeDegrees>39.4883774779736995697021484375</LatitudeDegrees>
              <LongitudeDegrees>-0.5485997535288333892822265625</LongitudeDegrees>
            </Position>
            <AltitudeMeters>101.8000030517578125</AltitudeMeters>
            <DistanceMeters>12680.254710501</DistanceMeters>
          </Trackpoint>
          <Trackpoint>
            <Time>2021-10-09T07:16:33.000Z</Time>
            <Position>
              <LatitudeDegrees>39.4884448684751987457275390625</LatitudeDegrees>
              <LongitudeDegrees>-0.548630766570568084716796875</LongitudeDegrees>
            </Position>
            <AltitudeMeters>101.8000030517578125</AltitudeMeters>
            <DistanceMeters>12688.214296943</DistanceMeters>
          </Trackpoint>
          <Trackpoint>
            <Time>2021-10-09T07:16:34.000Z</Time>
            <Position>
              <LatitudeDegrees>39.48849163949489593505859375</LatitudeDegrees>
              <LongitudeDegrees>-0.54864996112883090972900390625</LongitudeDegrees>
            </Position>
            <AltitudeMeters>102</AltitudeMeters>
            <DistanceMeters>12693.674820033</DistanceMeters>
          </Trackpoint>
          <Trackpoint>
            <Time>2021-10-09T07:16:35.000Z</Time>
            <Position>
              <LatitudeDegrees>39.48854930698871612548828125</LatitudeDegrees>
              <LongitudeDegrees>-0.5486711673438549041748046875</LongitudeDegrees>
            </Position>
            <AltitudeMeters>102</AltitudeMeters>
            <DistanceMeters>12700.345668309</DistanceMeters>
          </Trackpoint>
          <Trackpoint>
            <Time>2021-10-09T07:16:36.000Z</Time>
            <Position>
              <LatitudeDegrees>39.48860588483512401580810546875</LatitudeDegrees>
              <LongitudeDegrees>-0.5486949719488620758056640625</LongitudeDegrees>
            </Position>
            <AltitudeMeters>102</AltitudeMeters>
            <DistanceMeters>12706.966241627</DistanceMeters>
          </Trackpoint>
          <Trackpoint>
            <Time>2021-10-09T07:16:37.000Z</Time>
            <Position>
              <LatitudeDegrees>39.4886638037860393524169921875</LatitudeDegrees>
              <LongitudeDegrees>-0.54871986620128154754638671875</LongitudeDegrees>
            </Position>
            <AltitudeMeters>102.1999969482421875</AltitudeMeters>
            <DistanceMeters>12713.758491663</DistanceMeters>
          </Trackpoint>
          <Trackpoint>
            <Time>2021-10-09T07:16:38.000Z</Time>
            <Position>
              <LatitudeDegrees>39.4887194596230983734130859375</LatitudeDegrees>
              <LongitudeDegrees>-0.54874467663466930389404296875</LongitudeDegrees>
            </Position>
            <AltitudeMeters>102.1999969482421875</AltitudeMeters>
            <DistanceMeters>12720.309823843</DistanceMeters>
          </Trackpoint>
          <Trackpoint>
            <Time>2021-10-09T07:16:39.000Z</Time>
            <Position>
              <LatitudeDegrees>39.4887761212885379791259765625</LatitudeDegrees>
              <LongitudeDegrees>-0.5487694032490253448486328125</LongitudeDegrees>
            </Position>
            <AltitudeMeters>102.1999969482421875</AltitudeMeters>
            <DistanceMeters>12726.964408344</DistanceMeters>
          </Trackpoint>
          <Trackpoint>
            <Time>2021-10-09T07:16:40.000Z</Time>
            <Position>
              <LatitudeDegrees>39.488833956420421600341796875</LatitudeDegrees>
              <LongitudeDegrees>-0.54879513569176197052001953125</LongitudeDegrees>
            </Position>
            <AltitudeMeters>102.40000152587890625</AltitudeMeters>
            <DistanceMeters>12733.770603475</DistanceMeters>
          </Trackpoint>
          <Trackpoint>
            <Time>2021-10-09T07:16:41.000Z</Time>
            <Position>
              <LatitudeDegrees>39.488892294466495513916015625</LatitudeDegrees>
              <LongitudeDegrees>-0.548820197582244873046875</LongitudeDegrees>
            </Position>
            <AltitudeMeters>102.40000152587890625</AltitudeMeters>
            <DistanceMeters>12740.611206967</DistanceMeters>
          </Trackpoint>
          <Trackpoint>
            <Time>2021-10-09T07:16:42.000Z</Time>
            <Position>
              <LatitudeDegrees>39.4889487884938716888427734375</LatitudeDegrees>
              <LongitudeDegrees>-0.548846013844013214111328125</LongitudeDegrees>
            </Position>
            <AltitudeMeters>102.40000152587890625</AltitudeMeters>
            <DistanceMeters>12747.277993018</DistanceMeters>
          </Trackpoint>
          <Trackpoint>
            <Time>2021-10-09T07:16:43.000Z</Time>
            <Position>
              <LatitudeDegrees>39.48900385759770870208740234375</LatitudeDegrees>
              <LongitudeDegrees>-0.548872835934162139892578125</LongitudeDegrees>
            </Position>
            <AltitudeMeters>102.59999847412109375</AltitudeMeters>
            <DistanceMeters>12753.825188821</DistanceMeters>
          </Trackpoint>
          <Trackpoint>
            <Time>2021-10-09T07:16:44.000Z</Time>
            <Position>
              <LatitudeDegrees>39.489061944186687469482421875</LatitudeDegrees>
              <LongitudeDegrees>-0.54889923892915248870849609375</LongitudeDegrees>
            </Position>
            <AltitudeMeters>102.59999847412109375</AltitudeMeters>
            <DistanceMeters>12760.675685685</DistanceMeters>
          </Trackpoint>
          <Trackpoint>
            <Time>2021-10-09T07:16:45.000Z</Time>
            <Position>
              <LatitudeDegrees>39.48911986313760280609130859375</LatitudeDegrees>
              <LongitudeDegrees>-0.54892321117222309112548828125</LongitudeDegrees>
            </Position>
            <AltitudeMeters>102.59999847412109375</AltitudeMeters>
            <DistanceMeters>12767.443295878</DistanceMeters>
          </Trackpoint>
          <Trackpoint>
            <Time>2021-10-09T07:16:46.000Z</Time>
            <Position>
              <LatitudeDegrees>39.4891761057078838348388671875</LatitudeDegrees>
              <LongitudeDegrees>-0.54894701577723026275634765625</LongitudeDegrees>
            </Position>
            <AltitudeMeters>102.8000030517578125</AltitudeMeters>
            <DistanceMeters>12774.028311222</DistanceMeters>
          </Trackpoint>
          <Trackpoint>
            <Time>2021-10-09T07:16:47.000Z</Time>
            <Position>
              <LatitudeDegrees>39.4892310909926891326904296875</LatitudeDegrees>
              <LongitudeDegrees>-0.5489732511341571807861328125</LongitudeDegrees>
            </Position>
            <AltitudeMeters>102.8000030517578125</AltitudeMeters>
            <DistanceMeters>12780.54994139</DistanceMeters>
          </Trackpoint>
          <Trackpoint>
            <Time>2021-10-09T07:16:48.000Z</Time>
            <Position>
              <LatitudeDegrees>39.489287249743938446044921875</LatitudeDegrees>
              <LongitudeDegrees>-0.5490014143288135528564453125</LongitudeDegrees>
            </Position>
            <AltitudeMeters>102.8000030517578125</AltitudeMeters>
            <DistanceMeters>12787.252525243</DistanceMeters>
          </Trackpoint>
          <Trackpoint>
            <Time>2021-10-09T07:16:49.000Z</Time>
            <Position>
              <LatitudeDegrees>39.48934416286647319793701171875</LatitudeDegrees>
              <LongitudeDegrees>-0.5490267276763916015625</LongitudeDegrees>
            </Position>
            <AltitudeMeters>102.8000030517578125</AltitudeMeters>
            <DistanceMeters>12793.950392051</DistanceMeters>
          </Trackpoint>
          <Trackpoint>
            <Time>2021-10-09T07:16:50.000Z</Time>
            <Position>
              <LatitudeDegrees>39.48940090835094451904296875</LatitudeDegrees>
              <LongitudeDegrees>-0.549050867557525634765625</LongitudeDegrees>
            </Position>
            <AltitudeMeters>102.8000030517578125</AltitudeMeters>
            <DistanceMeters>12800.598188236</DistanceMeters>
          </Trackpoint>
          <Trackpoint>
            <Time>2021-10-09T07:16:51.000Z</Time>
            <Position>
              <LatitudeDegrees>39.4894560612738132476806640625</LatitudeDegrees>
              <LongitudeDegrees>-0.54907525889575481414794921875</LongitudeDegrees>
            </Position>
            <AltitudeMeters>102.8000030517578125</AltitudeMeters>
            <DistanceMeters>12807.084414115</DistanceMeters>
          </Trackpoint>
          <Trackpoint>
            <Time>2021-10-09T07:16:52.000Z</Time>
            <Position>
              <LatitudeDegrees>39.489510543644428253173828125</LatitudeDegrees>
              <LongitudeDegrees>-0.5490966327488422393798828125</LongitudeDegrees>
            </Position>
            <AltitudeMeters>102.8000030517578125</AltitudeMeters>
            <DistanceMeters>12813.420636954</DistanceMeters>
          </Trackpoint>
          <Trackpoint>
            <Time>2021-10-09T07:16:53.000Z</Time>
            <Position>
              <LatitudeDegrees>39.489564858376979827880859375</LatitudeDegrees>
              <LongitudeDegrees>-0.54911767132580280303955078125</LongitudeDegrees>
            </Position>
            <AltitudeMeters>102.8000030517578125</AltitudeMeters>
            <DistanceMeters>12819.73115493</DistanceMeters>
          </Trackpoint>
          <Trackpoint>
            <Time>2021-10-09T07:16:54.000Z</Time>
            <Position>
              <LatitudeDegrees>39.48962043039500713348388671875</LatitudeDegrees>
              <LongitudeDegrees>-0.54913963191211223602294921875</LongitudeDegrees>
            </Position>
            <AltitudeMeters>102.8000030517578125</AltitudeMeters>
            <DistanceMeters>12826.197162503</DistanceMeters>
          </Trackpoint>
          <Trackpoint>
            <Time>2021-10-09T07:16:55.000Z</Time>
            <Position>
              <LatitudeDegrees>39.48967717587947845458984375</LatitudeDegrees>
              <LongitudeDegrees>-0.54916444234549999237060546875</LongitudeDegrees>
            </Position>
            <AltitudeMeters>102.8000030517578125</AltitudeMeters>
            <DistanceMeters>12832.862593929</DistanceMeters>
          </Trackpoint>
          <Trackpoint>
            <Time>2021-10-09T07:16:56.000Z</Time>
            <Position>
              <LatitudeDegrees>39.4897326640784740447998046875</LatitudeDegrees>
              <LongitudeDegrees>-0.5491895042359828948974609375</LongitudeDegrees>
            </Position>
            <AltitudeMeters>103</AltitudeMeters>
            <DistanceMeters>12839.402199578</DistanceMeters>
          </Trackpoint>
          <Trackpoint>
            <Time>2021-10-09T07:16:57.000Z</Time>
            <Position>
              <LatitudeDegrees>39.48978773318231105804443359375</LatitudeDegrees>
              <LongitudeDegrees>-0.54921448230743408203125</LongitudeDegrees>
            </Position>
            <AltitudeMeters>103.1999969482421875</AltitudeMeters>
            <DistanceMeters>12845.896078002</DistanceMeters>
          </Trackpoint>
          <Trackpoint>
            <Time>2021-10-09T07:16:58.000Z</Time>
            <Position>
              <LatitudeDegrees>39.48984087444841861724853515625</LatitudeDegrees>
              <LongitudeDegrees>-0.54923518560826778411865234375</LongitudeDegrees>
            </Position>
            <AltitudeMeters>103.40000152587890625</AltitudeMeters>
            <DistanceMeters>12852.072083419</DistanceMeters>
          </Trackpoint>
          <Trackpoint>
            <Time>2021-10-09T07:16:59.000Z</Time>
            <Position>
              <LatitudeDegrees>39.4898929260671138763427734375</LatitudeDegrees>
              <LongitudeDegrees>-0.54925664328038692474365234375</LongitudeDegrees>
            </Position>
            <AltitudeMeters>103.40000152587890625</AltitudeMeters>
            <DistanceMeters>12858.152308165</DistanceMeters>
          </Trackpoint>
          <Trackpoint>
            <Time>2021-10-09T07:17:00.000Z</Time>
            <Position>
              <LatitudeDegrees>39.4899447262287139892578125</LatitudeDegrees>
              <LongitudeDegrees>-0.5492830462753772735595703125</LongitudeDegrees>
            </Position>
            <AltitudeMeters>103.59999847412109375</AltitudeMeters>
            <DistanceMeters>12864.347292013</DistanceMeters>
          </Trackpoint>
          <Trackpoint>
            <Time>2021-10-09T07:17:01.000Z</Time>
            <Position>
              <LatitudeDegrees>39.489994011819362640380859375</LatitudeDegrees>
              <LongitudeDegrees>-0.54930659942328929901123046875</LongitudeDegrees>
            </Position>
            <AltitudeMeters>103.59999847412109375</AltitudeMeters>
            <DistanceMeters>12870.192786797</DistanceMeters>
          </Trackpoint>
          <Trackpoint>
            <Time>2021-10-09T07:17:02.000Z</Time>
            <Position>
              <LatitudeDegrees>39.49004488997161388397216796875</LatitudeDegrees>
              <LongitudeDegrees>-0.5493257939815521240234375</LongitudeDegrees>
            </Position>
            <AltitudeMeters>103.8000030517578125</AltitudeMeters>
            <DistanceMeters>12876.090570657</DistanceMeters>
          </Trackpoint>
          <Trackpoint>
            <Time>2021-10-09T07:17:03.000Z</Time>
            <Position>
              <LatitudeDegrees>39.49009417556226253509521484375</LatitudeDegrees>
              <LongitudeDegrees>-0.54934532381594181060791015625</LongitudeDegrees>
            </Position>
            <AltitudeMeters>104</AltitudeMeters>
            <DistanceMeters>12881.826910828</DistanceMeters>
          </Trackpoint>
          <Trackpoint>
            <Time>2021-10-09T07:17:04.000Z</Time>
            <Position>
              <LatitudeDegrees>39.4901423715054988861083984375</LatitudeDegrees>
              <LongitudeDegrees>-0.549367032945156097412109375</LongitudeDegrees>
            </Position>
            <AltitudeMeters>104</AltitudeMeters>
            <DistanceMeters>12887.505502466</DistanceMeters>
          </Trackpoint>
          <Trackpoint>
            <Time>2021-10-09T07:17:05.000Z</Time>
            <Position>
              <LatitudeDegrees>39.49019006453454494476318359375</LatitudeDegrees>
              <LongitudeDegrees>-0.54939075373113155364990234375</LongitudeDegrees>
            </Position>
            <AltitudeMeters>104.1999969482421875</AltitudeMeters>
            <DistanceMeters>12893.191245484</DistanceMeters>
          </Trackpoint>
          <Trackpoint>
            <Time>2021-10-09T07:17:06.000Z</Time>
            <Position>
              <LatitudeDegrees>39.490234069526195526123046875</LatitudeDegrees>
              <LongitudeDegrees>-0.54941640235483646392822265625</LongitudeDegrees>
            </Position>
            <AltitudeMeters>104.1999969482421875</AltitudeMeters>
            <DistanceMeters>12898.561726297</DistanceMeters>
          </Trackpoint>
          <Trackpoint>
            <Time>2021-10-09T07:17:07.000Z</Time>
            <Position>
              <LatitudeDegrees>39.49026835151016712188720703125</LatitudeDegrees>
              <LongitudeDegrees>-0.54945127107203006744384765625</LongitudeDegrees>
            </Position>
            <AltitudeMeters>104.40000152587890625</AltitudeMeters>
            <DistanceMeters>12903.411813836</DistanceMeters>
          </Trackpoint>
          <Trackpoint>
            <Time>2021-10-09T07:17:08.000Z</Time>
            <Position>
              <LatitudeDegrees>39.49028813280165195465087890625</LatitudeDegrees>
              <LongitudeDegrees>-0.54950340650975704193115234375</LongitudeDegrees>
            </Position>
            <AltitudeMeters>104.40000152587890625</AltitudeMeters>
            <DistanceMeters>12908.402299867</DistanceMeters>
          </Trackpoint>
          <Trackpoint>
            <Time>2021-10-09T07:17:09.000Z</Time>
            <Position>
              <LatitudeDegrees>39.49029198847711086273193359375</LatitudeDegrees>
              <LongitudeDegrees>-0.54956384003162384033203125</LongitudeDegrees>
            </Position>
            <AltitudeMeters>104.40000152587890625</AltitudeMeters>
            <DistanceMeters>12913.611462921</DistanceMeters>
          </Trackpoint>
          <Trackpoint>
            <Time>2021-10-09T07:17:10.000Z</Time>
            <Position>
              <LatitudeDegrees>39.49028561823070049285888671875</LatitudeDegrees>
              <LongitudeDegrees>-0.5496293865144252777099609375</LongitudeDegrees>
            </Position>
            <AltitudeMeters>104.59999847412109375</AltitudeMeters>
            <DistanceMeters>12919.286077674</DistanceMeters>
          </Trackpoint>
          <Trackpoint>
            <Time>2021-10-09T07:17:11.000Z</Time>
            <Position>
              <LatitudeDegrees>39.49027857743203639984130859375</LatitudeDegrees>
              <LongitudeDegrees>-0.549700297415256500244140625</LongitudeDegrees>
            </Position>
            <AltitudeMeters>104.8000030517578125</AltitudeMeters>
            <DistanceMeters>12925.42689189</DistanceMeters>
          </Trackpoint>
          <Trackpoint>
            <Time>2021-10-09T07:17:12.000Z</Time>
            <Position>
              <LatitudeDegrees>39.49027128517627716064453125</LatitudeDegrees>
              <LongitudeDegrees>-0.54977347142994403839111328125</LongitudeDegrees>
            </Position>
            <AltitudeMeters>104.8000030517578125</AltitudeMeters>
            <DistanceMeters>12931.76453972</DistanceMeters>
          </Trackpoint>
          <Trackpoint>
            <Time>2021-10-09T07:17:13.000Z</Time>
            <Position>
              <LatitudeDegrees>39.4902634061872959136962890625</LatitudeDegrees>
              <LongitudeDegrees>-0.54984874092042446136474609375</LongitudeDegrees>
            </Position>
            <AltitudeMeters>105</AltitudeMeters>
            <DistanceMeters>12938.28893857</DistanceMeters>
          </Trackpoint>
          <Trackpoint>
            <Time>2021-10-09T07:17:14.000Z</Time>
            <Position>
              <LatitudeDegrees>39.49025779031217098236083984375</LatitudeDegrees>
              <LongitudeDegrees>-0.54992484860122203826904296875</LongitudeDegrees>
            </Position>
            <AltitudeMeters>105</AltitudeMeters>
            <DistanceMeters>12944.85610273</DistanceMeters>
          </Trackpoint>
          <Trackpoint>
            <Time>2021-10-09T07:17:15.000Z</Time>
            <Position>
              <LatitudeDegrees>39.49025074951350688934326171875</LatitudeDegrees>
              <LongitudeDegrees>-0.54999978281557559967041015625</LongitudeDegrees>
            </Position>
            <AltitudeMeters>105</AltitudeMeters>
            <DistanceMeters>12951.340239983</DistanceMeters>
          </Trackpoint>
          <Trackpoint>
            <Time>2021-10-09T07:17:16.000Z</Time>
            <Position>
              <LatitudeDegrees>39.49024454690515995025634765625</LatitudeDegrees>
              <LongitudeDegrees>-0.55007756687700748443603515625</LongitudeDegrees>
            </Position>
            <AltitudeMeters>105</AltitudeMeters>
            <DistanceMeters>12958.056955097</DistanceMeters>
          </Trackpoint>
          <Trackpoint>
            <Time>2021-10-09T07:17:17.000Z</Time>
            <Position>
              <LatitudeDegrees>39.49023717083036899566650390625</LatitudeDegrees>
              <LongitudeDegrees>-0.5501572787761688232421875</LongitudeDegrees>
            </Position>
            <AltitudeMeters>105</AltitudeMeters>
            <DistanceMeters>12964.95408803</DistanceMeters>
          </Trackpoint>
          <Trackpoint>
            <Time>2021-10-09T07:17:18.000Z</Time>
            <Position>
              <LatitudeDegrees>39.4902282021939754486083984375</LatitudeDegrees>
              <LongitudeDegrees>-0.5502365715801715850830078125</LongitudeDegrees>
            </Position>
            <AltitudeMeters>105</AltitudeMeters>
            <DistanceMeters>12971.838116007</DistanceMeters>
          </Trackpoint>
          <Trackpoint>
            <Time>2021-10-09T07:17:19.000Z</Time>
            <Position>
              <LatitudeDegrees>39.49022208340466022491455078125</LatitudeDegrees>
              <LongitudeDegrees>-0.55031443946063518524169921875</LongitudeDegrees>
            </Position>
            <AltitudeMeters>105</AltitudeMeters>
            <DistanceMeters>12978.561549852</DistanceMeters>
          </Trackpoint>
          <Trackpoint>
            <Time>2021-10-09T07:17:20.000Z</Time>
            <Position>
              <LatitudeDegrees>39.490215964615345001220703125</LatitudeDegrees>
              <LongitudeDegrees>-0.55039289407432079315185546875</LongitudeDegrees>
            </Position>
            <AltitudeMeters>105</AltitudeMeters>
            <DistanceMeters>12985.334495174</DistanceMeters>
          </Trackpoint>
          <Trackpoint>
            <Time>2021-10-09T07:17:21.000Z</Time>
            <Position>
              <LatitudeDegrees>39.4902097620069980621337890625</LatitudeDegrees>
              <LongitudeDegrees>-0.55047386325895786285400390625</LongitudeDegrees>
            </Position>
            <AltitudeMeters>105</AltitudeMeters>
            <DistanceMeters>12992.323966797</DistanceMeters>
          </Trackpoint>
          <Trackpoint>
            <Time>2021-10-09T07:17:22.000Z</Time>
            <Position>
              <LatitudeDegrees>39.49020246975123882293701171875</LatitudeDegrees>
              <LongitudeDegrees>-0.550557263195514678955078125</LongitudeDegrees>
            </Position>
            <AltitudeMeters>105</AltitudeMeters>
            <DistanceMeters>12999.533482731</DistanceMeters>
          </Trackpoint>
          <Trackpoint>
            <Time>2021-10-09T07:17:23.000Z</Time>
            <Position>
              <LatitudeDegrees>39.49019727297127246856689453125</LatitudeDegrees>
              <LongitudeDegrees>-0.55064116604626178741455078125</LongitudeDegrees>
            </Position>
            <AltitudeMeters>105</AltitudeMeters>
            <DistanceMeters>13006.764260187</DistanceMeters>
          </Trackpoint>
          <Trackpoint>
            <Time>2021-10-09T07:17:24.000Z</Time>
            <Position>
              <LatitudeDegrees>39.4901906512677669525146484375</LatitudeDegrees>
              <LongitudeDegrees>-0.55072280578315258026123046875</LongitudeDegrees>
            </Position>
            <AltitudeMeters>105</AltitudeMeters>
            <DistanceMeters>13013.815472912</DistanceMeters>
          </Trackpoint>
          <Trackpoint>
            <Time>2021-10-09T07:17:25.000Z</Time>
            <Position>
              <LatitudeDegrees>39.4901822693645954132080078125</LatitudeDegrees>
              <LongitudeDegrees>-0.55080461315810680389404296875</LongitudeDegrees>
            </Position>
            <AltitudeMeters>105</AltitudeMeters>
            <DistanceMeters>13020.904363898</DistanceMeters>
          </Trackpoint>
          <Trackpoint>
            <Time>2021-10-09T07:17:26.000Z</Time>
            <Position>
              <LatitudeDegrees>39.490173719823360443115234375</LatitudeDegrees>
              <LongitudeDegrees>-0.55088474415242671966552734375</LongitudeDegrees>
            </Position>
            <AltitudeMeters>105</AltitudeMeters>
            <DistanceMeters>13027.852369991</DistanceMeters>
          </Trackpoint>
          <Trackpoint>
            <Time>2021-10-09T07:17:27.000Z</Time>
            <Position>
              <LatitudeDegrees>39.49016827158629894256591796875</LatitudeDegrees>
              <LongitudeDegrees>-0.55096420459449291229248046875</LongitudeDegrees>
            </Position>
            <AltitudeMeters>105</AltitudeMeters>
            <DistanceMeters>13034.703525905</DistanceMeters>
          </Trackpoint>
          <Trackpoint>
            <Time>2021-10-09T07:17:28.000Z</Time>
            <Position>
              <LatitudeDegrees>39.49016072787344455718994140625</LatitudeDegrees>
              <LongitudeDegrees>-0.551059506833553314208984375</LongitudeDegrees>
            </Position>
            <AltitudeMeters>105</AltitudeMeters>
            <DistanceMeters>13042.932532118</DistanceMeters>
          </Trackpoint>
          <Trackpoint>
            <Time>2021-10-09T07:17:29.000Z</Time>
            <Position>
              <LatitudeDegrees>39.4901539385318756103515625</LatitudeDegrees>
              <LongitudeDegrees>-0.55112564004957675933837890625</LongitudeDegrees>
            </Position>
            <AltitudeMeters>105</AltitudeMeters>
            <DistanceMeters>13048.663359984</DistanceMeters>
          </Trackpoint>
          <Trackpoint>
            <Time>2021-10-09T07:17:30.000Z</Time>
            <Position>
              <LatitudeDegrees>39.490147568285465240478515625</LatitudeDegrees>
              <LongitudeDegrees>-0.55120761506259441375732421875</LongitudeDegrees>
            </Position>
            <AltitudeMeters>105</AltitudeMeters>
            <DistanceMeters>13055.740777171</DistanceMeters>
          </Trackpoint>
          <Trackpoint>
            <Time>2021-10-09T07:17:31.000Z</Time>
            <Position>
              <LatitudeDegrees>39.490140192210674285888671875</LatitudeDegrees>
              <LongitudeDegrees>-0.5512890033423900604248046875</LongitudeDegrees>
            </Position>
            <AltitudeMeters>105.1999969482421875</AltitudeMeters>
            <DistanceMeters>13062.779813287</DistanceMeters>
          </Trackpoint>
          <Trackpoint>
            <Time>2021-10-09T07:17:32.000Z</Time>
            <Position>
              <LatitudeDegrees>39.49013088829815387725830078125</LatitudeDegrees>
              <LongitudeDegrees>-0.551371313631534576416015625</LongitudeDegrees>
            </Position>
            <AltitudeMeters>105.1999969482421875</AltitudeMeters>
            <DistanceMeters>13069.925165078</DistanceMeters>
          </Trackpoint>
          <Trackpoint>
            <Time>2021-10-09T07:17:33.000Z</Time>
            <Position>
              <LatitudeDegrees>39.49012376368045806884765625</LatitudeDegrees>
              <LongitudeDegrees>-0.5514529533684253692626953125</LongitudeDegrees>
            </Position>
            <AltitudeMeters>105.1999969482421875</AltitudeMeters>
            <DistanceMeters>13076.982138338</DistanceMeters>
          </Trackpoint>
          <Trackpoint>
            <Time>2021-10-09T07:17:34.000Z</Time>
            <Position>
              <LatitudeDegrees>39.490116722881793975830078125</LatitudeDegrees>
              <LongitudeDegrees>-0.55153450928628444671630859375</LongitudeDegrees>
            </Position>
            <AltitudeMeters>105.1999969482421875</AltitudeMeters>
            <DistanceMeters>13084.030789315</DistanceMeters>
          </Trackpoint>
          <Trackpoint>
            <Time>2021-10-09T07:17:35.000Z</Time>
            <Position>
              <LatitudeDegrees>39.49010775424540042877197265625</LatitudeDegrees>
              <LongitudeDegrees>-0.551615059375762939453125</LongitudeDegrees>
            </Position>
            <AltitudeMeters>105.40000152587890625</AltitudeMeters>
            <DistanceMeters>13091.020906884</DistanceMeters>
          </Trackpoint>
          <Trackpoint>
            <Time>2021-10-09T07:17:36.000Z</Time>
            <Position>
              <LatitudeDegrees>39.49009970761835575103759765625</LatitudeDegrees>
              <LongitudeDegrees>-0.5516966991126537322998046875</LongitudeDegrees>
            </Position>
            <AltitudeMeters>105.40000152587890625</AltitudeMeters>
            <DistanceMeters>13098.090025856</DistanceMeters>
          </Trackpoint>
          <Trackpoint>
            <Time>2021-10-09T07:17:37.000Z</Time>
            <Position>
              <LatitudeDegrees>39.49009082280099391937255859375</LatitudeDegrees>
              <LongitudeDegrees>-0.55179501883685588836669921875</LongitudeDegrees>
            </Position>
            <AltitudeMeters>105.40000152587890625</AltitudeMeters>
            <DistanceMeters>13106.593191272</DistanceMeters>
          </Trackpoint>
          <Trackpoint>
            <Time>2021-10-09T07:17:38.000Z</Time>
            <Position>
              <LatitudeDegrees>39.49008713476359844207763671875</LatitudeDegrees>
              <LongitudeDegrees>-0.55186249315738677978515625</LongitudeDegrees>
            </Position>
            <AltitudeMeters>105.59999847412109375</AltitudeMeters>
            <DistanceMeters>13112.403047187</DistanceMeters>
          </Trackpoint>
          <Trackpoint>
            <Time>2021-10-09T07:17:39.000Z</Time>
            <Position>
              <LatitudeDegrees>39.49008126743137836456298828125</LatitudeDegrees>
              <LongitudeDegrees>-0.55194555781781673431396484375</LongitudeDegrees>
            </Position>
            <AltitudeMeters>105.59999847412109375</AltitudeMeters>
            <DistanceMeters>13119.567960625</DistanceMeters>
          </Trackpoint>
          <Trackpoint>
            <Time>2021-10-09T07:17:40.000Z</Time>
            <Position>
              <LatitudeDegrees>39.49007389135658740997314453125</LatitudeDegrees>
              <LongitudeDegrees>-0.5520267784595489501953125</LongitudeDegrees>
            </Position>
            <AltitudeMeters>105.59999847412109375</AltitudeMeters>
            <DistanceMeters>13126.592228394</DistanceMeters>
          </Trackpoint>
          <Trackpoint>
            <Time>2021-10-09T07:17:41.000Z</Time>
            <Position>
              <LatitudeDegrees>39.49006768874824047088623046875</LatitudeDegrees>
              <LongitudeDegrees>-0.55210833437740802764892578125</LongitudeDegrees>
            </Position>
            <AltitudeMeters>105.59999847412109375</AltitudeMeters>
            <DistanceMeters>13133.63190591</DistanceMeters>
          </Trackpoint>
          <Trackpoint>
            <Time>2021-10-09T07:17:42.000Z</Time>
            <Position>
              <LatitudeDegrees>39.49006207287311553955078125</LatitudeDegrees>
              <LongitudeDegrees>-0.55219030939042568206787109375</LongitudeDegrees>
            </Position>
            <AltitudeMeters>105.8000030517578125</AltitudeMeters>
            <DistanceMeters>13140.701024882</DistanceMeters>
          </Trackpoint>
          <Trackpoint>
            <Time>2021-10-09T07:17:43.000Z</Time>
            <Position>
              <LatitudeDegrees>39.49005612172186374664306640625</LatitudeDegrees>
              <LongitudeDegrees>-0.5522703565657138824462890625</LongitudeDegrees>
            </Position>
            <AltitudeMeters>105.8000030517578125</AltitudeMeters>
            <DistanceMeters>13147.608623881</DistanceMeters>
          </Trackpoint>
          <Trackpoint>
            <Time>2021-10-09T07:17:44.000Z</Time>
            <Position>
              <LatitudeDegrees>39.49004857800900936126708984375</LatitudeDegrees>
              <LongitudeDegrees>-0.55234990082681179046630859375</LongitudeDegrees>
            </Position>
            <AltitudeMeters>105.8000030517578125</AltitudeMeters>
            <DistanceMeters>13154.493307697</DistanceMeters>
          </Trackpoint>
          <Trackpoint>
            <Time>2021-10-09T07:17:45.000Z</Time>
            <Position>
              <LatitudeDegrees>39.49004120193421840667724609375</LatitudeDegrees>
              <LongitudeDegrees>-0.55242785252630710601806640625</LongitudeDegrees>
            </Position>
            <AltitudeMeters>105.8000030517578125</AltitudeMeters>
            <DistanceMeters>13161.239535182</DistanceMeters>
          </Trackpoint>
          <Trackpoint>
            <Time>2021-10-09T07:17:46.000Z</Time>
            <Position>
              <LatitudeDegrees>39.49003231711685657501220703125</LatitudeDegrees>
              <LongitudeDegrees>-0.55250949226319789886474609375</LongitudeDegrees>
            </Position>
            <AltitudeMeters>105.8000030517578125</AltitudeMeters>
            <DistanceMeters>13168.321416611</DistanceMeters>
          </Trackpoint>
          <Trackpoint>
            <Time>2021-10-09T07:17:47.000Z</Time>
            <Position>
              <LatitudeDegrees>39.49002561159431934356689453125</LatitudeDegrees>
              <LongitudeDegrees>-0.55259180255234241485595703125</LongitudeDegrees>
            </Position>
            <AltitudeMeters>105.8000030517578125</AltitudeMeters>
            <DistanceMeters>13175.430024617</DistanceMeters>
          </Trackpoint>
          <Trackpoint>
            <Time>2021-10-09T07:17:48.000Z</Time>
            <Position>
              <LatitudeDegrees>39.490018151700496673583984375</LatitudeDegrees>
              <LongitudeDegrees>-0.5526746995747089385986328125</LongitudeDegrees>
            </Position>
            <AltitudeMeters>105.8000030517578125</AltitudeMeters>
            <DistanceMeters>13182.59808816</DistanceMeters>
          </Trackpoint>
          <Trackpoint>
            <Time>2021-10-09T07:17:49.000Z</Time>
            <Position>
              <LatitudeDegrees>39.49001111090183258056640625</LatitudeDegrees>
              <LongitudeDegrees>-0.55275692604482173919677734375</LongitudeDegrees>
            </Position>
            <AltitudeMeters>105.8000030517578125</AltitudeMeters>
            <DistanceMeters>13189.704790458</DistanceMeters>
          </Trackpoint>
          <Trackpoint>
            <Time>2021-10-09T07:17:50.000Z</Time>
            <Position>
              <LatitudeDegrees>39.49000348336994647979736328125</LatitudeDegrees>
              <LongitudeDegrees>-0.55283856578171253204345703125</LongitudeDegrees>
            </Position>
            <AltitudeMeters>105.8000030517578125</AltitudeMeters>
            <DistanceMeters>13196.768797992</DistanceMeters>
          </Trackpoint>
          <Trackpoint>
            <Time>2021-10-09T07:17:51.000Z</Time>
            <Position>
              <LatitudeDegrees>39.48999702930450439453125</LatitudeDegrees>
              <LongitudeDegrees>-0.552933029830455780029296875</LongitudeDegrees>
            </Position>
            <AltitudeMeters>105.8000030517578125</AltitudeMeters>
            <DistanceMeters>13204.914533177</DistanceMeters>
          </Trackpoint>
          <Trackpoint>
            <Time>2021-10-09T07:17:52.000Z</Time>
            <Position>
              <LatitudeDegrees>39.48999174870550632476806640625</LatitudeDegrees>
              <LongitudeDegrees>-0.55299664847552776336669921875</LongitudeDegrees>
            </Position>
            <AltitudeMeters>105.8000030517578125</AltitudeMeters>
            <DistanceMeters>13210.41049585</DistanceMeters>
          </Trackpoint>
          <Trackpoint>
            <Time>2021-10-09T07:17:53.000Z</Time>
            <Position>
              <LatitudeDegrees>39.4899854622781276702880859375</LatitudeDegrees>
              <LongitudeDegrees>-0.5530766956508159637451171875</LongitudeDegrees>
            </Position>
            <AltitudeMeters>105.8000030517578125</AltitudeMeters>
            <DistanceMeters>13217.321362244</DistanceMeters>
          </Trackpoint>
          <Trackpoint>
            <Time>2021-10-09T07:17:54.000Z</Time>
            <Position>
              <LatitudeDegrees>39.48998026549816131591796875</LatitudeDegrees>
              <LongitudeDegrees>-0.55315640754997730255126953125</LongitudeDegrees>
            </Position>
            <AltitudeMeters>105.8000030517578125</AltitudeMeters>
            <DistanceMeters>13224.192260267</DistanceMeters>
          </Trackpoint>
          <Trackpoint>
            <Time>2021-10-09T07:17:55.000Z</Time>
            <Position>
              <LatitudeDegrees>39.48997355997562408447265625</LatitudeDegrees>
              <LongitudeDegrees>-0.55323670618236064910888671875</LongitudeDegrees>
            </Position>
            <AltitudeMeters>105.8000030517578125</AltitudeMeters>
            <DistanceMeters>13231.129210416</DistanceMeters>
          </Trackpoint>
          <Trackpoint>
            <Time>2021-10-09T07:17:56.000Z</Time>
            <Position>
              <LatitudeDegrees>39.48996777646243572235107421875</LatitudeDegrees>
              <LongitudeDegrees>-0.55331759154796600341796875</LongitudeDegrees>
            </Position>
            <AltitudeMeters>105.8000030517578125</AltitudeMeters>
            <DistanceMeters>13238.107044764</DistanceMeters>
          </Trackpoint>
          <Trackpoint>
            <Time>2021-10-09T07:17:57.000Z</Time>
            <Position>
              <LatitudeDegrees>39.48996090330183506011962890625</LatitudeDegrees>
              <LongitudeDegrees>-0.5533972196280956268310546875</LongitudeDegrees>
            </Position>
            <AltitudeMeters>105.8000030517578125</AltitudeMeters>
            <DistanceMeters>13244.989760872</DistanceMeters>
          </Trackpoint>
          <Trackpoint>
            <Time>2021-10-09T07:17:58.000Z</Time>
            <Position>
              <LatitudeDegrees>39.48995604179799556732177734375</LatitudeDegrees>
              <LongitudeDegrees>-0.5534760095179080963134765625</LongitudeDegrees>
            </Position>
            <AltitudeMeters>106</AltitudeMeters>
            <DistanceMeters>13251.780016414</DistanceMeters>
          </Trackpoint>
          <Trackpoint>
            <Time>2021-10-09T07:17:59.000Z</Time>
            <Position>
              <LatitudeDegrees>39.489949755370616912841796875</LatitudeDegrees>
              <LongitudeDegrees>-0.55355488322675228118896484375</LongitudeDegrees>
            </Position>
            <AltitudeMeters>106.1999969482421875</AltitudeMeters>
            <DistanceMeters>13258.590853565</DistanceMeters>
          </Trackpoint>
          <Trackpoint>
            <Time>2021-10-09T07:18:00.000Z</Time>
            <Position>
              <LatitudeDegrees>39.48994095437228679656982421875</LatitudeDegrees>
              <LongitudeDegrees>-0.55363602004945278167724609375</LongitudeDegrees>
            </Position>
            <AltitudeMeters>106.1999969482421875</AltitudeMeters>
            <DistanceMeters>13265.629248223</DistanceMeters>
          </Trackpoint>
          <Trackpoint>
            <Time>2021-10-09T07:18:01.000Z</Time>
            <Position>
              <LatitudeDegrees>39.48993223719298839569091796875</LatitudeDegrees>
              <LongitudeDegrees>-0.55371967144310474395751953125</LongitudeDegrees>
            </Position>
            <AltitudeMeters>106.1999969482421875</AltitudeMeters>
            <DistanceMeters>13272.87997957</DistanceMeters>
          </Trackpoint>
          <Trackpoint>
            <Time>2021-10-09T07:18:02.000Z</Time>
            <Position>
              <LatitudeDegrees>39.48992402292788028717041015625</LatitudeDegrees>
              <LongitudeDegrees>-0.5537997186183929443359375</LongitudeDegrees>
            </Position>
            <AltitudeMeters>106.1999969482421875</AltitudeMeters>
            <DistanceMeters>13279.81627882</DistanceMeters>
          </Trackpoint>
          <Trackpoint>
            <Time>2021-10-09T07:18:03.000Z</Time>
            <Position>
              <LatitudeDegrees>39.48991698212921619415283203125</LatitudeDegrees>
              <LongitudeDegrees>-0.55387641303241252899169921875</LongitudeDegrees>
            </Position>
            <AltitudeMeters>106.1999969482421875</AltitudeMeters>
            <DistanceMeters>13286.450477535</DistanceMeters>
          </Trackpoint>
          <Trackpoint>
            <Time>2021-10-09T07:18:04.000Z</Time>
            <Position>
              <LatitudeDegrees>39.48990994133055210113525390625</LatitudeDegrees>
              <LongitudeDegrees>-0.55395302362740039825439453125</LongitudeDegrees>
            </Position>
            <AltitudeMeters>106.1999969482421875</AltitudeMeters>
            <DistanceMeters>13293.077867053</DistanceMeters>
          </Trackpoint>
          <Trackpoint>
            <Time>2021-10-09T07:18:05.000Z</Time>
            <Position>
              <LatitudeDegrees>39.48990189470350742340087890625</LatitudeDegrees>
              <LongitudeDegrees>-0.55402996949851512908935546875</LongitudeDegrees>
            </Position>
            <AltitudeMeters>106.1999969482421875</AltitudeMeters>
            <DistanceMeters>13299.747361529</DistanceMeters>
          </Trackpoint>
          <Trackpoint>
            <Time>2021-10-09T07:18:06.000Z</Time>
            <Position>
              <LatitudeDegrees>39.48989217169582843780517578125</LatitudeDegrees>
              <LongitudeDegrees>-0.5541026405990123748779296875</LongitudeDegrees>
            </Position>
            <AltitudeMeters>106.1999969482421875</AltitudeMeters>
            <DistanceMeters>13306.082871753</DistanceMeters>
          </Trackpoint>
          <Trackpoint>
            <Time>2021-10-09T07:18:07.000Z</Time>
            <Position>
              <LatitudeDegrees>39.4898832030594348907470703125</LatitudeDegrees>
              <LongitudeDegrees>-0.5541790835559368133544921875</LongitudeDegrees>
            </Position>
            <AltitudeMeters>106.1999969482421875</AltitudeMeters>
            <DistanceMeters>13312.72523229</DistanceMeters>
          </Trackpoint>
          <Trackpoint>
            <Time>2021-10-09T07:18:08.000Z</Time>
            <Position>
              <LatitudeDegrees>39.48987574316561222076416015625</LatitudeDegrees>
              <LongitudeDegrees>-0.5542548559606075286865234375</LongitudeDegrees>
            </Position>
            <AltitudeMeters>106.1999969482421875</AltitudeMeters>
            <DistanceMeters>13319.286894006</DistanceMeters>
          </Trackpoint>
          <Trackpoint>
            <Time>2021-10-09T07:18:09.000Z</Time>
            <Position>
              <LatitudeDegrees>39.48987088166177272796630859375</LatitudeDegrees>
              <LongitudeDegrees>-0.55433004163205623626708984375</LongitudeDegrees>
            </Position>
            <AltitudeMeters>106.1999969482421875</AltitudeMeters>
            <DistanceMeters>13325.768245379</DistanceMeters>
          </Trackpoint>
          <Trackpoint>
            <Time>2021-10-09T07:18:10.000Z</Time>
            <Position>
              <LatitudeDegrees>39.489865601062774658203125</LatitudeDegrees>
              <LongitudeDegrees>-0.55440522730350494384765625</LongitudeDegrees>
            </Position>
            <AltitudeMeters>106.1999969482421875</AltitudeMeters>
            <DistanceMeters>13332.253078916</DistanceMeters>
          </Trackpoint>
          <Trackpoint>
            <Time>2021-10-09T07:18:11.000Z</Time>
            <Position>
              <LatitudeDegrees>39.4898624159395694732666015625</LatitudeDegrees>
              <LongitudeDegrees>-0.554479658603668212890625</LongitudeDegrees>
            </Position>
            <AltitudeMeters>106.1999969482421875</AltitudeMeters>
            <DistanceMeters>13338.655933518</DistanceMeters>
          </Trackpoint>
          <Trackpoint>
            <Time>2021-10-09T07:18:12.000Z</Time>
            <Position>
              <LatitudeDegrees>39.48985747061669826507568359375</LatitudeDegrees>
              <LongitudeDegrees>-0.55455517955124378204345703125</LongitudeDegrees>
            </Position>
            <AltitudeMeters>106.1999969482421875</AltitudeMeters>
            <DistanceMeters>13345.165783651</DistanceMeters>
          </Trackpoint>
          <Trackpoint>
            <Time>2021-10-09T07:18:13.000Z</Time>
            <Position>
              <LatitudeDegrees>39.4898533634841442108154296875</LatitudeDegrees>
              <LongitudeDegrees>-0.55462709628045558929443359375</LongitudeDegrees>
            </Position>
            <AltitudeMeters>106.1999969482421875</AltitudeMeters>
            <DistanceMeters>13351.360038635</DistanceMeters>
          </Trackpoint>
          <Trackpoint>
            <Time>2021-10-09T07:18:14.000Z</Time>
            <Position>
              <LatitudeDegrees>39.48984690941870212554931640625</LatitudeDegrees>
              <LongitudeDegrees>-0.55470161139965057373046875</LongitudeDegrees>
            </Position>
            <AltitudeMeters>106.8000030517578125</AltitudeMeters>
            <DistanceMeters>13357.801560292</DistanceMeters>
          </Trackpoint>
          <Trackpoint>
            <Time>2021-10-09T07:18:15.000Z</Time>
            <Position>
              <LatitudeDegrees>39.48983903042972087860107421875</LatitudeDegrees>
              <LongitudeDegrees>-0.55477713234722614288330078125</LongitudeDegrees>
            </Position>
            <AltitudeMeters>107.40000152587890625</AltitudeMeters>
            <DistanceMeters>13364.348066445</DistanceMeters>
          </Trackpoint>
          <Trackpoint>
            <Time>2021-10-09T07:18:16.000Z</Time>
            <Position>
              <LatitudeDegrees>39.4898320734500885009765625</LatitudeDegrees>
              <LongitudeDegrees>-0.55485256947576999664306640625</LongitudeDegrees>
            </Position>
            <AltitudeMeters>107.59999847412109375</AltitudeMeters>
            <DistanceMeters>13370.873157282</DistanceMeters>
          </Trackpoint>
          <Trackpoint>
            <Time>2021-10-09T07:18:17.000Z</Time>
            <Position>
              <LatitudeDegrees>39.4898272119462490081787109375</LatitudeDegrees>
              <LongitudeDegrees>-0.55492834188044071197509765625</LongitudeDegrees>
            </Position>
            <AltitudeMeters>108</AltitudeMeters>
            <DistanceMeters>13377.403089974</DistanceMeters>
          </Trackpoint>
          <Trackpoint>
            <Time>2021-10-09T07:18:18.000Z</Time>
            <Position>
              <LatitudeDegrees>39.48982276953756809234619140625</LatitudeDegrees>
              <LongitudeDegrees>-0.5550031922757625579833984375</LongitudeDegrees>
            </Position>
            <AltitudeMeters>108.1999969482421875</AltitudeMeters>
            <DistanceMeters>13383.851617095</DistanceMeters>
          </Trackpoint>
          <Trackpoint>
            <Time>2021-10-09T07:18:19.000Z</Time>
            <Position>
              <LatitudeDegrees>39.489818327128887176513671875</LatitudeDegrees>
              <LongitudeDegrees>-0.55507871322333812713623046875</LongitudeDegrees>
            </Position>
            <AltitudeMeters>108.1999969482421875</AltitudeMeters>
            <DistanceMeters>13390.357304475</DistanceMeters>
          </Trackpoint>
          <Trackpoint>
            <Time>2021-10-09T07:18:20.000Z</Time>
            <Position>
              <LatitudeDegrees>39.48981405235826969146728515625</LatitudeDegrees>
              <LongitudeDegrees>-0.55515280924737453460693359375</LongitudeDegrees>
            </Position>
            <AltitudeMeters>108.1999969482421875</AltitudeMeters>
            <DistanceMeters>13396.739676671</DistanceMeters>
          </Trackpoint>
          <Trackpoint>
            <Time>2021-10-09T07:18:21.000Z</Time>
            <Position>
              <LatitudeDegrees>39.4898091070353984832763671875</LatitudeDegrees>
              <LongitudeDegrees>-0.555226318538188934326171875</LongitudeDegrees>
            </Position>
            <AltitudeMeters>108.1999969482421875</AltitudeMeters>
            <DistanceMeters>13403.078036876</DistanceMeters>
          </Trackpoint>
          <Trackpoint>
            <Time>2021-10-09T07:18:22.000Z</Time>
            <Position>
              <LatitudeDegrees>39.48980567045509815216064453125</LatitudeDegrees>
              <LongitudeDegrees>-0.55530066601932048797607421875</LongitudeDegrees>
            </Position>
            <AltitudeMeters>108</AltitudeMeters>
            <DistanceMeters>13409.475953453</DistanceMeters>
          </Trackpoint>
          <Trackpoint>
            <Time>2021-10-09T07:18:23.000Z</Time>
            <Position>
              <LatitudeDegrees>39.4898027367889881134033203125</LatitudeDegrees>
              <LongitudeDegrees>-0.55537342093884944915771484375</LongitudeDegrees>
            </Position>
            <AltitudeMeters>108</AltitudeMeters>
            <DistanceMeters>13415.734023566</DistanceMeters>
          </Trackpoint>
          <Trackpoint>
            <Time>2021-10-09T07:18:24.000Z</Time>
            <Position>
              <LatitudeDegrees>39.48979787528514862060546875</LatitudeDegrees>
              <LongitudeDegrees>-0.555442236363887786865234375</LongitudeDegrees>
            </Position>
            <AltitudeMeters>108</AltitudeMeters>
            <DistanceMeters>13421.669961426</DistanceMeters>
          </Trackpoint>
          <Trackpoint>
            <Time>2021-10-09T07:18:25.000Z</Time>
            <Position>
              <LatitudeDegrees>39.48978706263005733489990234375</LatitudeDegrees>
              <LongitudeDegrees>-0.55550954304635524749755859375</LongitudeDegrees>
            </Position>
            <AltitudeMeters>107.8000030517578125</AltitudeMeters>
            <DistanceMeters>13427.575395807</DistanceMeters>
          </Trackpoint>
          <Trackpoint>
            <Time>2021-10-09T07:18:26.000Z</Time>
            <Position>
              <LatitudeDegrees>39.48977868072688579559326171875</LatitudeDegrees>
              <LongitudeDegrees>-0.55558078922331333160400390625</LongitudeDegrees>
            </Position>
            <AltitudeMeters>107.40000152587890625</AltitudeMeters>
            <DistanceMeters>13433.766005182</DistanceMeters>
          </Trackpoint>
          <Trackpoint>
            <Time>2021-10-09T07:18:27.000Z</Time>
            <Position>
              <LatitudeDegrees>39.4897708855569362640380859375</LatitudeDegrees>
              <LongitudeDegrees>-0.55564935319125652313232421875</LongitudeDegrees>
            </Position>
            <AltitudeMeters>107.1999969482421875</AltitudeMeters>
            <DistanceMeters>13439.718653329</DistanceMeters>
          </Trackpoint>
          <Trackpoint>
            <Time>2021-10-09T07:18:28.000Z</Time>
            <Position>
              <LatitudeDegrees>39.48976325802505016326904296875</LatitudeDegrees>
              <LongitudeDegrees>-0.5557183362543582916259765625</LongitudeDegrees>
            </Position>
            <AltitudeMeters>107</AltitudeMeters>
            <DistanceMeters>13445.704582107</DistanceMeters>
          </Trackpoint>
          <Trackpoint>
            <Time>2021-10-09T07:18:29.000Z</Time>
            <Position>
              <LatitudeDegrees>39.4897568039596080780029296875</LatitudeDegrees>
              <LongitudeDegrees>-0.55578899569809436798095703125</LongitudeDegrees>
            </Position>
            <AltitudeMeters>106.59999847412109375</AltitudeMeters>
            <DistanceMeters>13451.815915527</DistanceMeters>
          </Trackpoint>
          <Trackpoint>
            <Time>2021-10-09T07:18:30.000Z</Time>
            <Position>
              <LatitudeDegrees>39.4897524453699588775634765625</LatitudeDegrees>
              <LongitudeDegrees>-0.5558614991605281829833984375</LongitudeDegrees>
            </Position>
            <AltitudeMeters>106.40000152587890625</AltitudeMeters>
            <DistanceMeters>13458.063154148</DistanceMeters>
          </Trackpoint>
          <Trackpoint>
            <Time>2021-10-09T07:18:31.000Z</Time>
            <Position>
              <LatitudeDegrees>39.48974825441837310791015625</LatitudeDegrees>
              <LongitudeDegrees>-0.5559332482516765594482421875</LongitudeDegrees>
            </Position>
            <AltitudeMeters>106.40000152587890625</AltitudeMeters>
            <DistanceMeters>13464.243544375</DistanceMeters>
          </Trackpoint>
          <Trackpoint>
            <Time>2021-10-09T07:18:32.000Z</Time>
            <Position>
              <LatitudeDegrees>39.48974423110485076904296875</LatitudeDegrees>
              <LongitudeDegrees>-0.5560039915144443511962890625</LongitudeDegrees>
            </Position>
            <AltitudeMeters>106.59999847412109375</AltitudeMeters>
            <DistanceMeters>13470.337120857</DistanceMeters>
          </Trackpoint>
          <Trackpoint>
            <Time>2021-10-09T07:18:33.000Z</Time>
            <Position>
              <LatitudeDegrees>39.48973995633423328399658203125</LatitudeDegrees>
              <LongitudeDegrees>-0.5560757406055927276611328125</LongitudeDegrees>
            </Position>
            <AltitudeMeters>106.59999847412109375</AltitudeMeters>
            <DistanceMeters>13476.518241583</DistanceMeters>
          </Trackpoint>
          <Trackpoint>
            <Time>2021-10-09T07:18:34.000Z</Time>
            <Position>
              <LatitudeDegrees>39.4897353462874889373779296875</LatitudeDegrees>
              <LongitudeDegrees>-0.55614774115383625030517578125</LongitudeDegrees>
            </Position>
            <AltitudeMeters>106.59999847412109375</AltitudeMeters>
            <DistanceMeters>13482.724148127</DistanceMeters>
          </Trackpoint>
          <Trackpoint>
            <Time>2021-10-09T07:18:35.000Z</Time>
            <Position>
              <LatitudeDegrees>39.48973140679299831390380859375</LatitudeDegrees>
              <LongitudeDegrees>-0.556219406425952911376953125</LongitudeDegrees>
            </Position>
            <AltitudeMeters>106.59999847412109375</AltitudeMeters>
            <DistanceMeters>13488.895765617</DistanceMeters>
          </Trackpoint>
          <Trackpoint>
            <Time>2021-10-09T07:18:36.000Z</Time>
            <Position>
              <LatitudeDegrees>39.48972621001303195953369140625</LatitudeDegrees>
              <LongitudeDegrees>-0.55629157461225986480712890625</LongitudeDegrees>
            </Position>
            <AltitudeMeters>106.8000030517578125</AltitudeMeters>
            <DistanceMeters>13495.12128472</DistanceMeters>
          </Trackpoint>
          <Trackpoint>
            <Time>2021-10-09T07:18:37.000Z</Time>
            <Position>
              <LatitudeDegrees>39.48971950449049472808837890625</LatitudeDegrees>
              <LongitudeDegrees>-0.556364916265010833740234375</LongitudeDegrees>
            </Position>
            <AltitudeMeters>106.59999847412109375</AltitudeMeters>
            <DistanceMeters>13501.465341049</DistanceMeters>
          </Trackpoint>
          <Trackpoint>
            <Time>2021-10-09T07:18:38.000Z</Time>
            <Position>
              <LatitudeDegrees>39.4897112064063549041748046875</LatitudeDegrees>
              <LongitudeDegrees>-0.55643641389906406402587890625</LongitudeDegrees>
            </Position>
            <AltitudeMeters>106.59999847412109375</AltitudeMeters>
            <DistanceMeters>13507.675611292</DistanceMeters>
          </Trackpoint>
          <Trackpoint>
            <Time>2021-10-09T07:18:39.000Z</Time>
            <Position>
              <LatitudeDegrees>39.48970424942672252655029296875</LatitudeDegrees>
              <LongitudeDegrees>-0.55650883354246616363525390625</LongitudeDegrees>
            </Position>
            <AltitudeMeters>106.8000030517578125</AltitudeMeters>
            <DistanceMeters>13513.943053556</DistanceMeters>
          </Trackpoint>
          <Trackpoint>
            <Time>2021-10-09T07:18:40.000Z</Time>
            <Position>
              <LatitudeDegrees>39.48969871737062931060791015625</LatitudeDegrees>
              <LongitudeDegrees>-0.55657907389104366302490234375</LongitudeDegrees>
            </Position>
            <AltitudeMeters>106.8000030517578125</AltitudeMeters>
            <DistanceMeters>13520.007664125</DistanceMeters>
          </Trackpoint>
          <Trackpoint>
            <Time>2021-10-09T07:18:41.000Z</Time>
            <Position>
              <LatitudeDegrees>39.48969318531453609466552734375</LatitudeDegrees>
              <LongitudeDegrees>-0.5566514097154140472412109375</LongitudeDegrees>
            </Position>
            <AltitudeMeters>106.8000030517578125</AltitudeMeters>
            <DistanceMeters>13526.252011176</DistanceMeters>
          </Trackpoint>
          <Trackpoint>
            <Time>2021-10-09T07:18:42.000Z</Time>
            <Position>
              <LatitudeDegrees>39.48968664743006229400634765625</LatitudeDegrees>
              <LongitudeDegrees>-0.556738078594207763671875</LongitudeDegrees>
            </Position>
            <AltitudeMeters>107</AltitudeMeters>
            <DistanceMeters>13533.731404438</DistanceMeters>
          </Trackpoint>
          <Trackpoint>
            <Time>2021-10-09T07:18:43.000Z</Time>
            <Position>
              <LatitudeDegrees>39.48968279175460338592529296875</LatitudeDegrees>
              <LongitudeDegrees>-0.5567957460880279541015625</LongitudeDegrees>
            </Position>
            <AltitudeMeters>107.1999969482421875</AltitudeMeters>
            <DistanceMeters>13538.702854853</DistanceMeters>
          </Trackpoint>
          <Trackpoint>
            <Time>2021-10-09T07:18:44.000Z</Time>
            <Position>
              <LatitudeDegrees>39.48967575095593929290771484375</LatitudeDegrees>
              <LongitudeDegrees>-0.55686749517917633056640625</LongitudeDegrees>
            </Position>
            <AltitudeMeters>107.59999847412109375</AltitudeMeters>
            <DistanceMeters>13544.915305796</DistanceMeters>
          </Trackpoint>
          <Trackpoint>
            <Time>2021-10-09T07:18:45.000Z</Time>
            <Position>
              <LatitudeDegrees>39.48966854251921176910400390625</LatitudeDegrees>
              <LongitudeDegrees>-0.556937567889690399169921875</LongitudeDegrees>
            </Position>
            <AltitudeMeters>108</AltitudeMeters>
            <DistanceMeters>13550.987356695</DistanceMeters>
          </Trackpoint>
          <Trackpoint>
            <Time>2021-10-09T07:18:46.000Z</Time>
            <Position>
              <LatitudeDegrees>39.4896615855395793914794921875</LatitudeDegrees>
              <LongitudeDegrees>-0.55700822733342647552490234375</LongitudeDegrees>
            </Position>
            <AltitudeMeters>108.1999969482421875</AltitudeMeters>
            <DistanceMeters>13557.10607363</DistanceMeters>
          </Trackpoint>
          <Trackpoint>
            <Time>2021-10-09T07:18:47.000Z</Time>
            <Position>
              <LatitudeDegrees>39.4896545447409152984619140625</LatitudeDegrees>
              <LongitudeDegrees>-0.55707746185362339019775390625</LongitudeDegrees>
            </Position>
            <AltitudeMeters>108.1999969482421875</AltitudeMeters>
            <DistanceMeters>13563.105564001</DistanceMeters>
          </Trackpoint>
          <Trackpoint>
            <Time>2021-10-09T07:18:48.000Z</Time>
            <Position>
              <LatitudeDegrees>39.48964792303740978240966796875</LatitudeDegrees>
              <LongitudeDegrees>-0.5571469478309154510498046875</LongitudeDegrees>
            </Position>
            <AltitudeMeters>108.40000152587890625</AltitudeMeters>
            <DistanceMeters>13569.120086944</DistanceMeters>
          </Trackpoint>
          <Trackpoint>
            <Time>2021-10-09T07:18:49.000Z</Time>
            <Position>
              <LatitudeDegrees>39.48964172042906284332275390625</LatitudeDegrees>
              <LongitudeDegrees>-0.55721660144627094268798828125</LongitudeDegrees>
            </Position>
            <AltitudeMeters>108.40000152587890625</AltitudeMeters>
            <DistanceMeters>13575.142861809</DistanceMeters>
          </Trackpoint>
          <Trackpoint>
            <Time>2021-10-09T07:18:50.000Z</Time>
            <Position>
              <LatitudeDegrees>39.48963694274425506591796875</LatitudeDegrees>
              <LongitudeDegrees>-0.5572837404906749725341796875</LongitudeDegrees>
            </Position>
            <AltitudeMeters>108.40000152587890625</AltitudeMeters>
            <DistanceMeters>13580.934036466</DistanceMeters>
          </Trackpoint>
          <Trackpoint>
            <Time>2021-10-09T07:18:51.000Z</Time>
            <Position>
              <LatitudeDegrees>39.48963216505944728851318359375</LatitudeDegrees>
              <LongitudeDegrees>-0.5573487840592861175537109375</LongitudeDegrees>
            </Position>
            <AltitudeMeters>108.40000152587890625</AltitudeMeters>
            <DistanceMeters>13586.547051406</DistanceMeters>
          </Trackpoint>
          <Trackpoint>
            <Time>2021-10-09T07:18:52.000Z</Time>
            <Position>
              <LatitudeDegrees>39.48962646536529064178466796875</LatitudeDegrees>
              <LongitudeDegrees>-0.55741508491337299346923828125</LongitudeDegrees>
            </Position>
            <AltitudeMeters>108.40000152587890625</AltitudeMeters>
            <DistanceMeters>13592.277091367</DistanceMeters>
          </Trackpoint>
          <Trackpoint>
            <Time>2021-10-09T07:18:53.000Z</Time>
            <Position>
              <LatitudeDegrees>39.4896200112998485565185546875</LatitudeDegrees>
              <LongitudeDegrees>-0.55748180486261844635009765625</LongitudeDegrees>
            </Position>
            <AltitudeMeters>108.40000152587890625</AltitudeMeters>
            <DistanceMeters>13598.052652152</DistanceMeters>
          </Trackpoint>
          <Trackpoint>
            <Time>2021-10-09T07:18:54.000Z</Time>
            <Position>
              <LatitudeDegrees>39.48961280286312103271484375</LatitudeDegrees>
              <LongitudeDegrees>-0.557548105716705322265625</LongitudeDegrees>
            </Position>
            <AltitudeMeters>108.40000152587890625</AltitudeMeters>
            <DistanceMeters>13603.80314256</DistanceMeters>
          </Trackpoint>
          <Trackpoint>
            <Time>2021-10-09T07:18:55.000Z</Time>
            <Position>
              <LatitudeDegrees>39.48960785754024982452392578125</LatitudeDegrees>
              <LongitudeDegrees>-0.55761490948498249053955078125</LongitudeDegrees>
            </Position>
            <AltitudeMeters>108.40000152587890625</AltitudeMeters>
            <DistanceMeters>13609.566965184</DistanceMeters>
          </Trackpoint>
          <Trackpoint>
            <Time>2021-10-09T07:18:56.000Z</Time>
            <Position>
              <LatitudeDegrees>39.48960282839834690093994140625</LatitudeDegrees>
              <LongitudeDegrees>-0.557681210339069366455078125</LongitudeDegrees>
            </Position>
            <AltitudeMeters>108.40000152587890625</AltitudeMeters>
            <DistanceMeters>13615.289120127</DistanceMeters>
          </Trackpoint>
          <Trackpoint>
            <Time>2021-10-09T07:18:57.000Z</Time>
            <Position>
              <LatitudeDegrees>39.48959863744676113128662109375</LatitudeDegrees>
              <LongitudeDegrees>-0.55774667300283908843994140625</LongitudeDegrees>
            </Position>
            <AltitudeMeters>108.40000152587890625</AltitudeMeters>
            <DistanceMeters>13620.931818908</DistanceMeters>
          </Trackpoint>
          <Trackpoint>
            <Time>2021-10-09T07:18:58.000Z</Time>
            <Position>
              <LatitudeDegrees>39.4895958714187145233154296875</LatitudeDegrees>
              <LongitudeDegrees>-0.5578144825994968414306640625</LongitudeDegrees>
            </Position>
            <AltitudeMeters>108.59999847412109375</AltitudeMeters>
            <DistanceMeters>13626.76494226</DistanceMeters>
          </Trackpoint>
          <Trackpoint>
            <Time>2021-10-09T07:18:59.000Z</Time>
            <Position>
              <LatitudeDegrees>39.48959427885711193084716796875</LatitudeDegrees>
              <LongitudeDegrees>-0.5578818731009960174560546875</LongitudeDegrees>
            </Position>
            <AltitudeMeters>108.59999847412109375</AltitudeMeters>
            <DistanceMeters>13632.556116918</DistanceMeters>
          </Trackpoint>
          <Trackpoint>
            <Time>2021-10-09T07:19:00.000Z</Time>
            <Position>
              <LatitudeDegrees>39.48959209956228733062744140625</LatitudeDegrees>
              <LongitudeDegrees>-0.55794666521251201629638671875</LongitudeDegrees>
            </Position>
            <AltitudeMeters>108.59999847412109375</AltitudeMeters>
            <DistanceMeters>13638.127146691</DistanceMeters>
          </Trackpoint>
          <Trackpoint>
            <Time>2021-10-09T07:19:01.000Z</Time>
            <Position>
              <LatitudeDegrees>39.489588327705860137939453125</LatitudeDegrees>
              <LongitudeDegrees>-0.55801254697144031524658203125</LongitudeDegrees>
            </Position>
            <AltitudeMeters>108.59999847412109375</AltitudeMeters>
            <DistanceMeters>13643.801761445</DistanceMeters>
          </Trackpoint>
          <Trackpoint>
            <Time>2021-10-09T07:19:02.000Z</Time>
            <Position>
              <LatitudeDegrees>39.48958120308816432952880859375</LatitudeDegrees>
              <LongitudeDegrees>-0.55807893164455890655517578125</LongitudeDegrees>
            </Position>
            <AltitudeMeters>108.40000152587890625</AltitudeMeters>
            <DistanceMeters>13649.560098071</DistanceMeters>
          </Trackpoint>
          <Trackpoint>
            <Time>2021-10-09T07:19:03.000Z</Time>
            <Position>
              <LatitudeDegrees>39.48957399465143680572509765625</LatitudeDegrees>
              <LongitudeDegrees>-0.55814481340348720550537109375</LongitudeDegrees>
            </Position>
            <AltitudeMeters>108.40000152587890625</AltitudeMeters>
            <DistanceMeters>13655.275937167</DistanceMeters>
          </Trackpoint>
          <Trackpoint>
            <Time>2021-10-09T07:19:04.000Z</Time>
            <Position>
              <LatitudeDegrees>39.48956997133791446685791015625</LatitudeDegrees>
              <LongitudeDegrees>-0.558209605515003204345703125</LongitudeDegrees>
            </Position>
            <AltitudeMeters>108.59999847412109375</AltitudeMeters>
            <DistanceMeters>13660.859110448</DistanceMeters>
          </Trackpoint>
          <Trackpoint>
            <Time>2021-10-09T07:19:05.000Z</Time>
            <Position>
              <LatitudeDegrees>39.4895677082240581512451171875</LatitudeDegrees>
              <LongitudeDegrees>-0.5582748167216777801513671875</LongitudeDegrees>
            </Position>
            <AltitudeMeters>108.59999847412109375</AltitudeMeters>
            <DistanceMeters>13666.466491849</DistanceMeters>
          </Trackpoint>
          <Trackpoint>
            <Time>2021-10-09T07:19:06.000Z</Time>
            <Position>
              <LatitudeDegrees>39.4895636849105358123779296875</LatitudeDegrees>
              <LongitudeDegrees>-0.55833642370998859405517578125</LongitudeDegrees>
            </Position>
            <AltitudeMeters>108.59999847412109375</AltitudeMeters>
            <DistanceMeters>13671.777796662</DistanceMeters>
          </Trackpoint>
          <Trackpoint>
            <Time>2021-10-09T07:19:07.000Z</Time>
            <Position>
              <LatitudeDegrees>39.48955739848315715789794921875</LatitudeDegrees>
              <LongitudeDegrees>-0.55839576758444309234619140625</LongitudeDegrees>
            </Position>
            <AltitudeMeters>108.59999847412109375</AltitudeMeters>
            <DistanceMeters>13676.923298011</DistanceMeters>
          </Trackpoint>
          <Trackpoint>
            <Time>2021-10-09T07:19:08.000Z</Time>
            <Position>
              <LatitudeDegrees>39.4895519502460956573486328125</LatitudeDegrees>
              <LongitudeDegrees>-0.55845737457275390625</LongitudeDegrees>
            </Position>
            <AltitudeMeters>108.59999847412109375</AltitudeMeters>
            <DistanceMeters>13682.2498823</DistanceMeters>
          </Trackpoint>
          <Trackpoint>
            <Time>2021-10-09T07:19:09.000Z</Time>
            <Position>
              <LatitudeDegrees>39.4895455799996852874755859375</LatitudeDegrees>
              <LongitudeDegrees>-0.55852149613201618194580078125</LongitudeDegrees>
            </Position>
            <AltitudeMeters>108.40000152587890625</AltitudeMeters>
            <DistanceMeters>13687.803866557</DistanceMeters>
          </Trackpoint>
          <Trackpoint>
            <Time>2021-10-09T07:19:10.000Z</Time>
            <Position>
              <LatitudeDegrees>39.4895405508577823638916015625</LatitudeDegrees>
              <LongitudeDegrees>-0.55858545005321502685546875</LongitudeDegrees>
            </Position>
            <AltitudeMeters>108.40000152587890625</AltitudeMeters>
            <DistanceMeters>13693.326872825</DistanceMeters>
          </Trackpoint>
          <Trackpoint>
            <Time>2021-10-09T07:19:11.000Z</Time>
            <Position>
              <LatitudeDegrees>39.48953644372522830963134765625</LatitudeDegrees>
              <LongitudeDegrees>-0.55865074507892131805419921875</LongitudeDegrees>
            </Position>
            <AltitudeMeters>108.40000152587890625</AltitudeMeters>
            <DistanceMeters>13698.953545733</DistanceMeters>
          </Trackpoint>
          <Trackpoint>
            <Time>2021-10-09T07:19:12.000Z</Time>
            <Position>
              <LatitudeDegrees>39.48953292332589626312255859375</LatitudeDegrees>
              <LongitudeDegrees>-0.5587163753807544708251953125</LongitudeDegrees>
            </Position>
            <AltitudeMeters>108.59999847412109375</AltitudeMeters>
            <DistanceMeters>13704.604240407</DistanceMeters>
          </Trackpoint>
          <Trackpoint>
            <Time>2021-10-09T07:19:13.000Z</Time>
            <Position>
              <LatitudeDegrees>39.4895274750888347625732421875</LatitudeDegrees>
              <LongitudeDegrees>-0.5587944947183132171630859375</LongitudeDegrees>
            </Position>
            <AltitudeMeters>108.59999847412109375</AltitudeMeters>
            <DistanceMeters>13711.341091616</DistanceMeters>
          </Trackpoint>
          <Trackpoint>
            <Time>2021-10-09T07:19:14.000Z</Time>
            <Position>
              <LatitudeDegrees>39.48951951228082180023193359375</LatitudeDegrees>
              <LongitudeDegrees>-0.55885828100144863128662109375</LongitudeDegrees>
            </Position>
            <AltitudeMeters>108.8000030517578125</AltitudeMeters>
            <DistanceMeters>13716.891823174</DistanceMeters>
          </Trackpoint>
          <Trackpoint>
            <Time>2021-10-09T07:19:15.000Z</Time>
            <Position>
              <LatitudeDegrees>39.48951481841504573822021484375</LatitudeDegrees>
              <LongitudeDegrees>-0.5589108355343341827392578125</LongitudeDegrees>
            </Position>
            <AltitudeMeters>108.8000030517578125</AltitudeMeters>
            <DistanceMeters>13721.43624666</DistanceMeters>
          </Trackpoint>
          <Trackpoint>
            <Time>2021-10-09T07:19:16.000Z</Time>
            <Position>
              <LatitudeDegrees>39.4895088672637939453125</LatitudeDegrees>
              <LongitudeDegrees>-0.55897613056004047393798828125</LongitudeDegrees>
            </Position>
            <AltitudeMeters>108.8000030517578125</AltitudeMeters>
            <DistanceMeters>13727.083744336</DistanceMeters>
          </Trackpoint>
          <Trackpoint>
            <Time>2021-10-09T07:19:17.000Z</Time>
            <Position>
              <LatitudeDegrees>39.48950408957898616790771484375</LatitudeDegrees>
              <LongitudeDegrees>-0.55905542336404323577880859375</LongitudeDegrees>
            </Position>
            <AltitudeMeters>109</AltitudeMeters>
            <DistanceMeters>13733.915101088</DistanceMeters>
          </Trackpoint>
          <Trackpoint>
            <Time>2021-10-09T07:19:18.000Z</Time>
            <Position>
              <LatitudeDegrees>39.48950241319835186004638671875</LatitudeDegrees>
              <LongitudeDegrees>-0.55912365205585956573486328125</LongitudeDegrees>
            </Position>
            <AltitudeMeters>109.1999969482421875</AltitudeMeters>
            <DistanceMeters>13739.77910408</DistanceMeters>
          </Trackpoint>
          <Trackpoint>
            <Time>2021-10-09T07:19:19.000Z</Time>
            <Position>
              <LatitudeDegrees>39.48949805460870265960693359375</LatitudeDegrees>
              <LongitudeDegrees>-0.55919188074767589569091796875</LongitudeDegrees>
            </Position>
            <AltitudeMeters>109.1999969482421875</AltitudeMeters>
            <DistanceMeters>13745.660021762</DistanceMeters>
          </Trackpoint>
          <Trackpoint>
            <Time>2021-10-09T07:19:20.000Z</Time>
            <Position>
              <LatitudeDegrees>39.4894941151142120361328125</LatitudeDegrees>
              <LongitudeDegrees>-0.55924787186086177825927734375</LongitudeDegrees>
            </Position>
            <AltitudeMeters>109.1999969482421875</AltitudeMeters>
            <DistanceMeters>13750.490520446</DistanceMeters>
          </Trackpoint>
          <Trackpoint>
            <Time>2021-10-09T07:19:21.000Z</Time>
            <Position>
              <LatitudeDegrees>39.4894885830581188201904296875</LatitudeDegrees>
              <LongitudeDegrees>-0.5593170225620269775390625</LongitudeDegrees>
            </Position>
            <AltitudeMeters>109.40000152587890625</AltitudeMeters>
            <DistanceMeters>13756.46134466</DistanceMeters>
          </Trackpoint>
          <Trackpoint>
            <Time>2021-10-09T07:19:22.000Z</Time>
            <Position>
              <LatitudeDegrees>39.48948162607848644256591796875</LatitudeDegrees>
              <LongitudeDegrees>-0.55940008722245693206787109375</LongitudeDegrees>
            </Position>
            <AltitudeMeters>109.40000152587890625</AltitudeMeters>
            <DistanceMeters>13763.638221142</DistanceMeters>
          </Trackpoint>
          <Trackpoint>
            <Time>2021-10-09T07:19:23.000Z</Time>
            <Position>
              <LatitudeDegrees>39.48947425000369548797607421875</LatitudeDegrees>
              <LongitudeDegrees>-0.5594707466661930084228515625</LongitudeDegrees>
            </Position>
            <AltitudeMeters>109.40000152587890625</AltitudeMeters>
            <DistanceMeters>13769.762101241</DistanceMeters>
          </Trackpoint>
          <Trackpoint>
            <Time>2021-10-09T07:19:24.000Z</Time>
            <Position>
              <LatitudeDegrees>39.48946804739534854888916015625</LatitudeDegrees>
              <LongitudeDegrees>-0.55953905917704105377197265625</LongitudeDegrees>
            </Position>
            <AltitudeMeters>109.40000152587890625</AltitudeMeters>
            <DistanceMeters>13775.670593057</DistanceMeters>
          </Trackpoint>
          <Trackpoint>
            <Time>2021-10-09T07:19:25.000Z</Time>
            <Position>
              <LatitudeDegrees>39.48946167714893817901611328125</LatitudeDegrees>
              <LongitudeDegrees>-0.55959387682378292083740234375</LongitudeDegrees>
            </Position>
            <AltitudeMeters>109.59999847412109375</AltitudeMeters>
            <DistanceMeters>13780.431421963</DistanceMeters>
          </Trackpoint>
          <Trackpoint>
            <Time>2021-10-09T07:19:26.000Z</Time>
            <Position>
              <LatitudeDegrees>39.489452876150608062744140625</LatitudeDegrees>
              <LongitudeDegrees>-0.55967417545616626739501953125</LongitudeDegrees>
            </Position>
            <AltitudeMeters>109.8000030517578125</AltitudeMeters>
            <DistanceMeters>13787.397599596</DistanceMeters>
          </Trackpoint>
          <Trackpoint>
            <Time>2021-10-09T07:19:27.000Z</Time>
            <Position>
              <LatitudeDegrees>39.4894486851990222930908203125</LatitudeDegrees>
              <LongitudeDegrees>-0.55972698144614696502685546875</LongitudeDegrees>
            </Position>
            <AltitudeMeters>109.8000030517578125</AltitudeMeters>
            <DistanceMeters>13791.956901732</DistanceMeters>
          </Trackpoint>
          <Trackpoint>
            <Time>2021-10-09T07:19:28.000Z</Time>
            <Position>
              <LatitudeDegrees>39.489442817866802215576171875</LatitudeDegrees>
              <LongitudeDegrees>-0.55980862118303775787353515625</LongitudeDegrees>
            </Position>
            <AltitudeMeters>110</AltitudeMeters>
            <DistanceMeters>13799.000426417</DistanceMeters>
          </Trackpoint>
          <Trackpoint>
            <Time>2021-10-09T07:19:29.000Z</Time>
            <Position>
              <LatitudeDegrees>39.4894372858107089996337890625</LatitudeDegrees>
              <LongitudeDegrees>-0.55986444465816020965576171875</LongitudeDegrees>
            </Position>
            <AltitudeMeters>110.1999969482421875</AltitudeMeters>
            <DistanceMeters>13803.834662431</DistanceMeters>
          </Trackpoint>
          <Trackpoint>
            <Time>2021-10-09T07:19:30.000Z</Time>
            <Position>
              <LatitudeDegrees>39.48943250812590122222900390625</LatitudeDegrees>
              <LongitudeDegrees>-0.55993183515965938568115234375</LongitudeDegrees>
            </Position>
            <AltitudeMeters>110.40000152587890625</AltitudeMeters>
            <DistanceMeters>13809.646849281</DistanceMeters>
          </Trackpoint>
          <Trackpoint>
            <Time>2021-10-09T07:19:31.000Z</Time>
            <Position>
              <LatitudeDegrees>39.48943083174526691436767578125</LatitudeDegrees>
              <LongitudeDegrees>-0.56000232696533203125</LongitudeDegrees>
            </Position>
            <AltitudeMeters>110.59999847412109375</AltitudeMeters>
            <DistanceMeters>13815.70475574</DistanceMeters>
          </Trackpoint>
          <Trackpoint>
            <Time>2021-10-09T07:19:32.000Z</Time>
            <Position>
              <LatitudeDegrees>39.489426054060459136962890625</LatitudeDegrees>
              <LongitudeDegrees>-0.56006896309554576873779296875</LongitudeDegrees>
            </Position>
            <AltitudeMeters>110.59999847412109375</AltitudeMeters>
            <DistanceMeters>13821.45367562</DistanceMeters>
          </Trackpoint>
          <Trackpoint>
            <Time>2021-10-09T07:19:33.000Z</Time>
            <Position>
              <LatitudeDegrees>39.4894215278327465057373046875</LatitudeDegrees>
              <LongitudeDegrees>-0.56013400666415691375732421875</LongitudeDegrees>
            </Position>
            <AltitudeMeters>110.8000030517578125</AltitudeMeters>
            <DistanceMeters>13827.064276878</DistanceMeters>
          </Trackpoint>
          <Trackpoint>
            <Time>2021-10-09T07:19:34.000Z</Time>
            <Position>
              <LatitudeDegrees>39.4894171692430973052978515625</LatitudeDegrees>
              <LongitudeDegrees>-0.56020081043243408203125</LongitudeDegrees>
            </Position>
            <AltitudeMeters>110.8000030517578125</AltitudeMeters>
            <DistanceMeters>13832.822613505</DistanceMeters>
          </Trackpoint>
          <Trackpoint>
            <Time>2021-10-09T07:19:35.000Z</Time>
            <Position>
              <LatitudeDegrees>39.4894148223102092742919921875</LatitudeDegrees>
              <LongitudeDegrees>-0.56026585400104522705078125</LongitudeDegrees>
            </Position>
            <AltitudeMeters>111</AltitudeMeters>
            <DistanceMeters>13838.415482607</DistanceMeters>
          </Trackpoint>
          <Trackpoint>
            <Time>2021-10-09T07:19:36.000Z</Time>
            <Position>
              <LatitudeDegrees>39.48941054753959178924560546875</LatitudeDegrees>
              <LongitudeDegrees>-0.560351349413394927978515625</LongitudeDegrees>
            </Position>
            <AltitudeMeters>111</AltitudeMeters>
            <DistanceMeters>13845.77499336</DistanceMeters>
          </Trackpoint>
          <Trackpoint>
            <Time>2021-10-09T07:19:37.000Z</Time>
            <Position>
              <LatitudeDegrees>39.48940551839768886566162109375</LatitudeDegrees>
              <LongitudeDegrees>-0.560410022735595703125</LongitudeDegrees>
            </Position>
            <AltitudeMeters>111</AltitudeMeters>
            <DistanceMeters>13850.846251361</DistanceMeters>
          </Trackpoint>
          <Trackpoint>
            <Time>2021-10-09T07:19:38.000Z</Time>
            <Position>
              <LatitudeDegrees>39.48939931578934192657470703125</LatitudeDegrees>
              <LongitudeDegrees>-0.56049476377665996551513671875</LongitudeDegrees>
            </Position>
            <AltitudeMeters>111.1999969482421875</AltitudeMeters>
            <DistanceMeters>13858.157752749</DistanceMeters>
          </Trackpoint>
          <Trackpoint>
            <Time>2021-10-09T07:19:39.000Z</Time>
            <Position>
              <LatitudeDegrees>39.4893923588097095489501953125</LatitudeDegrees>
              <LongitudeDegrees>-0.5605540238320827484130859375</LongitudeDegrees>
            </Position>
            <AltitudeMeters>111.1999969482421875</AltitudeMeters>
            <DistanceMeters>13863.306762793</DistanceMeters>
          </Trackpoint>
          <Trackpoint>
            <Time>2021-10-09T07:19:40.000Z</Time>
            <Position>
              <LatitudeDegrees>39.48938691057264804840087890625</LatitudeDegrees>
              <LongitudeDegrees>-0.56062568910419940948486328125</LongitudeDegrees>
            </Position>
            <AltitudeMeters>111</AltitudeMeters>
            <DistanceMeters>13869.4929946</DistanceMeters>
          </Trackpoint>
          <Trackpoint>
            <Time>2021-10-09T07:19:41.000Z</Time>
            <Position>
              <LatitudeDegrees>39.48938054032623767852783203125</LatitudeDegrees>
              <LongitudeDegrees>-0.560713447630405426025390625</LongitudeDegrees>
            </Position>
            <AltitudeMeters>111</AltitudeMeters>
            <DistanceMeters>13877.064185079</DistanceMeters>
          </Trackpoint>
          <Trackpoint>
            <Time>2021-10-09T07:19:42.000Z</Time>
            <Position>
              <LatitudeDegrees>39.48937618173658847808837890625</LatitudeDegrees>
              <LongitudeDegrees>-0.56078486144542694091796875</LongitudeDegrees>
            </Position>
            <AltitudeMeters>111</AltitudeMeters>
            <DistanceMeters>13883.217485862</DistanceMeters>
          </Trackpoint>
          <Trackpoint>
            <Time>2021-10-09T07:19:43.000Z</Time>
            <Position>
              <LatitudeDegrees>39.48937140405178070068359375</LatitudeDegrees>
              <LongitudeDegrees>-0.560840852558612823486328125</LongitudeDegrees>
            </Position>
            <AltitudeMeters>111</AltitudeMeters>
            <DistanceMeters>13888.055456319</DistanceMeters>
          </Trackpoint>
          <Trackpoint>
            <Time>2021-10-09T07:19:44.000Z</Time>
            <Position>
              <LatitudeDegrees>39.4893653690814971923828125</LatitudeDegrees>
              <LongitudeDegrees>-0.56091201491653919219970703125</LongitudeDegrees>
            </Position>
            <AltitudeMeters>111</AltitudeMeters>
            <DistanceMeters>13894.205087215</DistanceMeters>
          </Trackpoint>
          <Trackpoint>
            <Time>2021-10-09T07:19:45.000Z</Time>
            <Position>
              <LatitudeDegrees>39.48935958556830883026123046875</LatitudeDegrees>
              <LongitudeDegrees>-0.56099767796695232391357421875</LongitudeDegrees>
            </Position>
            <AltitudeMeters>110.8000030517578125</AltitudeMeters>
            <DistanceMeters>13901.591542513</DistanceMeters>
          </Trackpoint>
          <Trackpoint>
            <Time>2021-10-09T07:19:46.000Z</Time>
            <Position>
              <LatitudeDegrees>39.4893558137118816375732421875</LatitudeDegrees>
              <LongitudeDegrees>-0.5610726960003376007080078125</LongitudeDegrees>
            </Position>
            <AltitudeMeters>110.8000030517578125</AltitudeMeters>
            <DistanceMeters>13908.050563582</DistanceMeters>
          </Trackpoint>
          <Trackpoint>
            <Time>2021-10-09T07:19:47.000Z</Time>
            <Position>
              <LatitudeDegrees>39.48934952728450298309326171875</LatitudeDegrees>
              <LongitudeDegrees>-0.5611481331288814544677734375</LongitudeDegrees>
            </Position>
            <AltitudeMeters>110.8000030517578125</AltitudeMeters>
            <DistanceMeters>13914.568038522</DistanceMeters>
          </Trackpoint>
          <Trackpoint>
            <Time>2021-10-09T07:19:48.000Z</Time>
            <Position>
              <LatitudeDegrees>39.48934349231421947479248046875</LatitudeDegrees>
              <LongitudeDegrees>-0.5612081475555896759033203125</LongitudeDegrees>
            </Position>
            <AltitudeMeters>110.8000030517578125</AltitudeMeters>
            <DistanceMeters>13919.766790179</DistanceMeters>
          </Trackpoint>
          <Trackpoint>
            <Time>2021-10-09T07:19:49.000Z</Time>
            <Position>
              <LatitudeDegrees>39.48933527804911136627197265625</LatitudeDegrees>
              <LongitudeDegrees>-0.5612959899008274078369140625</LongitudeDegrees>
            </Position>
            <AltitudeMeters>110.8000030517578125</AltitudeMeters>
            <DistanceMeters>13927.367145369</DistanceMeters>
          </Trackpoint>
          <Trackpoint>
            <Time>2021-10-09T07:19:50.000Z</Time>
            <Position>
              <LatitudeDegrees>39.48932890780270099639892578125</LatitudeDegrees>
              <LongitudeDegrees>-0.561367571353912353515625</LongitudeDegrees>
            </Position>
            <AltitudeMeters>110.59999847412109375</AltitudeMeters>
            <DistanceMeters>13933.556295899</DistanceMeters>
          </Trackpoint>
          <Trackpoint>
            <Time>2021-10-09T07:19:51.000Z</Time>
            <Position>
              <LatitudeDegrees>39.4893219508230686187744140625</LatitudeDegrees>
              <LongitudeDegrees>-0.56143906898796558380126953125</LongitudeDegrees>
            </Position>
            <AltitudeMeters>110.59999847412109375</AltitudeMeters>
            <DistanceMeters>13939.746905273</DistanceMeters>
          </Trackpoint>
          <Trackpoint>
            <Time>2021-10-09T07:19:52.000Z</Time>
            <Position>
              <LatitudeDegrees>39.48931465856730937957763671875</LatitudeDegrees>
              <LongitudeDegrees>-0.5615135841071605682373046875</LongitudeDegrees>
            </Position>
            <AltitudeMeters>110.8000030517578125</AltitudeMeters>
            <DistanceMeters>13946.198932273</DistanceMeters>
          </Trackpoint>
          <Trackpoint>
            <Time>2021-10-09T07:19:53.000Z</Time>
            <Position>
              <LatitudeDegrees>39.48930971324443817138671875</LatitudeDegrees>
              <LongitudeDegrees>-0.56157116778194904327392578125</LongitudeDegrees>
            </Position>
            <AltitudeMeters>110.8000030517578125</AltitudeMeters>
            <DistanceMeters>13951.174921583</DistanceMeters>
          </Trackpoint>
          <Trackpoint>
            <Time>2021-10-09T07:19:54.000Z</Time>
            <Position>
              <LatitudeDegrees>39.48929973877966403961181640625</LatitudeDegrees>
              <LongitudeDegrees>-0.561658926308155059814453125</LongitudeDegrees>
            </Position>
            <AltitudeMeters>111</AltitudeMeters>
            <DistanceMeters>13958.79485541</DistanceMeters>
          </Trackpoint>
          <Trackpoint>
            <Time>2021-10-09T07:19:55.000Z</Time>
            <Position>
              <LatitudeDegrees>39.48929185979068279266357421875</LatitudeDegrees>
              <LongitudeDegrees>-0.5617321841418743133544921875</LongitudeDegrees>
            </Position>
            <AltitudeMeters>111</AltitudeMeters>
            <DistanceMeters>13965.148157048</DistanceMeters>
          </Trackpoint>
          <Trackpoint>
            <Time>2021-10-09T07:19:56.000Z</Time>
            <Position>
              <LatitudeDegrees>39.48928331024944782257080078125</LatitudeDegrees>
              <LongitudeDegrees>-0.5618076212704181671142578125</LongitudeDegrees>
            </Position>
            <AltitudeMeters>111.1999969482421875</AltitudeMeters>
            <DistanceMeters>13971.697421366</DistanceMeters>
          </Trackpoint>
          <Trackpoint>
            <Time>2021-10-09T07:19:57.000Z</Time>
            <Position>
              <LatitudeDegrees>39.48927811346948146820068359375</LatitudeDegrees>
              <LongitudeDegrees>-0.56186755187809467315673828125</LongitudeDegrees>
            </Position>
            <AltitudeMeters>111.1999969482421875</AltitudeMeters>
            <DistanceMeters>13976.877031112</DistanceMeters>
          </Trackpoint>
          <Trackpoint>
            <Time>2021-10-09T07:19:58.000Z</Time>
            <Position>
              <LatitudeDegrees>39.489272497594356536865234375</LatitudeDegrees>
              <LongitudeDegrees>-0.56194181554019451141357421875</LongitudeDegrees>
            </Position>
            <AltitudeMeters>111.40000152587890625</AltitudeMeters>
            <DistanceMeters>13983.286229013</DistanceMeters>
          </Trackpoint>
          <Trackpoint>
            <Time>2021-10-09T07:19:59.000Z</Time>
            <Position>
              <LatitudeDegrees>39.4892659597098827362060546875</LatitudeDegrees>
              <LongitudeDegrees>-0.56203099898993968963623046875</LongitudeDegrees>
            </Position>
            <AltitudeMeters>111.40000152587890625</AltitudeMeters>
            <DistanceMeters>13990.981046181</DistanceMeters>
          </Trackpoint>
          <Trackpoint>
            <Time>2021-10-09T07:20:00.000Z</Time>
            <Position>
              <LatitudeDegrees>39.48926009237766265869140625</LatitudeDegrees>
              <LongitudeDegrees>-0.56210509501397609710693359375</LongitudeDegrees>
            </Position>
            <AltitudeMeters>111.59999847412109375</AltitudeMeters>
            <DistanceMeters>13997.379668423</DistanceMeters>
          </Trackpoint>
          <Trackpoint>
            <Time>2021-10-09T07:20:01.000Z</Time>
            <Position>
              <LatitudeDegrees>39.48925380595028400421142578125</LatitudeDegrees>
              <LongitudeDegrees>-0.56217667646706104278564453125</LongitudeDegrees>
            </Position>
            <AltitudeMeters>111.59999847412109375</AltitudeMeters>
            <DistanceMeters>14003.567359763</DistanceMeters>
          </Trackpoint>
          <Trackpoint>
            <Time>2021-10-09T07:20:02.000Z</Time>
            <Position>
              <LatitudeDegrees>39.48924743570387363433837890625</LatitudeDegrees>
              <LongitudeDegrees>-0.56223300285637378692626953125</LongitudeDegrees>
            </Position>
            <AltitudeMeters>111.59999847412109375</AltitudeMeters>
            <DistanceMeters>14008.457312976</DistanceMeters>
          </Trackpoint>
          <Trackpoint>
            <Time>2021-10-09T07:20:03.000Z</Time>
            <Position>
              <LatitudeDegrees>39.48924123309552669525146484375</LatitudeDegrees>
              <LongitudeDegrees>-0.562317073345184326171875</LongitudeDegrees>
            </Position>
            <AltitudeMeters>111.59999847412109375</AltitudeMeters>
            <DistanceMeters>14015.711779567</DistanceMeters>
          </Trackpoint>
          <Trackpoint>
            <Time>2021-10-09T07:20:04.000Z</Time>
            <Position>
              <LatitudeDegrees>39.489238299429416656494140625</LatitudeDegrees>
              <LongitudeDegrees>-0.56237298063933849334716796875</LongitudeDegrees>
            </Position>
            <AltitudeMeters>111.59999847412109375</AltitudeMeters>
            <DistanceMeters>14020.525424356</DistanceMeters>
          </Trackpoint>
          <Trackpoint>
            <Time>2021-10-09T07:20:05.000Z</Time>
            <Position>
              <LatitudeDegrees>39.489236958324909210205078125</LatitudeDegrees>
              <LongitudeDegrees>-0.56245646439492702484130859375</LongitudeDegrees>
            </Position>
            <AltitudeMeters>111.59999847412109375</AltitudeMeters>
            <DistanceMeters>14027.697895722</DistanceMeters>
          </Trackpoint>
          <Trackpoint>
            <Time>2021-10-09T07:20:06.000Z</Time>
            <Position>
              <LatitudeDegrees>39.48923754505813121795654296875</LatitudeDegrees>
              <LongitudeDegrees>-0.5625120364129543304443359375</LongitudeDegrees>
            </Position>
            <AltitudeMeters>111.59999847412109375</AltitudeMeters>
            <DistanceMeters>14032.472929023</DistanceMeters>
          </Trackpoint>
          <Trackpoint>
            <Time>2021-10-09T07:20:07.000Z</Time>
            <Position>
              <LatitudeDegrees>39.48923327028751373291015625</LatitudeDegrees>
              <LongitudeDegrees>-0.56258001364767551422119140625</LongitudeDegrees>
            </Position>
            <AltitudeMeters>111.59999847412109375</AltitudeMeters>
            <DistanceMeters>14038.33076911</DistanceMeters>
          </Trackpoint>
          <Trackpoint>
            <Time>2021-10-09T07:20:08.000Z</Time>
            <Position>
              <LatitudeDegrees>39.4892247207462787628173828125</LatitudeDegrees>
              <LongitudeDegrees>-0.56266249157488346099853515625</LongitudeDegrees>
            </Position>
            <AltitudeMeters>111.8000030517578125</AltitudeMeters>
            <DistanceMeters>14045.478647993</DistanceMeters>
          </Trackpoint>
          <Trackpoint>
            <Time>2021-10-09T07:20:09.000Z</Time>
            <Position>
              <LatitudeDegrees>39.489216506481170654296875</LatitudeDegrees>
              <LongitudeDegrees>-0.5627306364476680755615234375</LongitudeDegrees>
            </Position>
            <AltitudeMeters>112</AltitudeMeters>
            <DistanceMeters>14051.40240331</DistanceMeters>
          </Trackpoint>
          <Trackpoint>
            <Time>2021-10-09T07:20:10.000Z</Time>
            <Position>
              <LatitudeDegrees>39.48921047151088714599609375</LatitudeDegrees>
              <LongitudeDegrees>-0.5627852864563465118408203125</LongitudeDegrees>
            </Position>
            <AltitudeMeters>112.1999969482421875</AltitudeMeters>
            <DistanceMeters>14056.143274566</DistanceMeters>
          </Trackpoint>
          <Trackpoint>
            <Time>2021-10-09T07:20:11.000Z</Time>
            <Position>
              <LatitudeDegrees>39.489203430712223052978515625</LatitudeDegrees>
              <LongitudeDegrees>-0.5628540180623531341552734375</LongitudeDegrees>
            </Position>
            <AltitudeMeters>112.40000152587890625</AltitudeMeters>
            <DistanceMeters>14062.09895591</DistanceMeters>
          </Trackpoint>
          <Trackpoint>
            <Time>2021-10-09T07:20:12.000Z</Time>
            <Position>
              <LatitudeDegrees>39.489198066294193267822265625</LatitudeDegrees>
              <LongitudeDegrees>-0.56292216293513774871826171875</LongitudeDegrees>
            </Position>
            <AltitudeMeters>112.59999847412109375</AltitudeMeters>
            <DistanceMeters>14067.982943766</DistanceMeters>
          </Trackpoint>
          <Trackpoint>
            <Time>2021-10-09T07:20:13.000Z</Time>
            <Position>
              <LatitudeDegrees>39.48919236660003662109375</LatitudeDegrees>
              <LongitudeDegrees>-0.56299072690308094024658203125</LongitudeDegrees>
            </Position>
            <AltitudeMeters>112.59999847412109375</AltitudeMeters>
            <DistanceMeters>14073.906699084</DistanceMeters>
          </Trackpoint>
          <Trackpoint>
            <Time>2021-10-09T07:20:14.000Z</Time>
            <Position>
              <LatitudeDegrees>39.48918658308684825897216796875</LatitudeDegrees>
              <LongitudeDegrees>-0.563073121011257171630859375</LongitudeDegrees>
            </Position>
            <AltitudeMeters>112.59999847412109375</AltitudeMeters>
            <DistanceMeters>14081.014036674</DistanceMeters>
          </Trackpoint>
          <Trackpoint>
            <Time>2021-10-09T07:20:15.000Z</Time>
            <Position>
              <LatitudeDegrees>39.4891834817826747894287109375</LatitudeDegrees>
              <LongitudeDegrees>-0.563128776848316192626953125</LongitudeDegrees>
            </Position>
            <AltitudeMeters>113</AltitudeMeters>
            <DistanceMeters>14085.807943698</DistanceMeters>
          </Trackpoint>
          <Trackpoint>
            <Time>2021-10-09T07:20:16.000Z</Time>
            <Position>
              <LatitudeDegrees>39.4891777820885181427001953125</LatitudeDegrees>
              <LongitudeDegrees>-0.5631986819207668304443359375</LongitudeDegrees>
            </Position>
            <AltitudeMeters>113.1999969482421875</AltitudeMeters>
            <DistanceMeters>14091.846440918</DistanceMeters>
          </Trackpoint>
          <Trackpoint>
            <Time>2021-10-09T07:20:17.000Z</Time>
            <Position>
              <LatitudeDegrees>39.4891717471182346343994140625</LatitudeDegrees>
              <LongitudeDegrees>-0.56328023783862590789794921875</LongitudeDegrees>
            </Position>
            <AltitudeMeters>113.1999969482421875</AltitudeMeters>
            <DistanceMeters>14098.884835577</DistanceMeters>
          </Trackpoint>
          <Trackpoint>
            <Time>2021-10-09T07:20:18.000Z</Time>
            <Position>
              <LatitudeDegrees>39.4891670532524585723876953125</LatitudeDegrees>
              <LongitudeDegrees>-0.563349388539791107177734375</LongitudeDegrees>
            </Position>
            <AltitudeMeters>113.40000152587890625</AltitudeMeters>
            <DistanceMeters>14104.847335972</DistanceMeters>
          </Trackpoint>
          <Trackpoint>
            <Time>2021-10-09T07:20:19.000Z</Time>
            <Position>
              <LatitudeDegrees>39.489161856472492218017578125</LatitudeDegrees>
              <LongitudeDegrees>-0.5634018592536449432373046875</LongitudeDegrees>
            </Position>
            <AltitudeMeters>113.59999847412109375</AltitudeMeters>
            <DistanceMeters>14109.392752884</DistanceMeters>
          </Trackpoint>
          <Trackpoint>
            <Time>2021-10-09T07:20:20.000Z</Time>
            <Position>
              <LatitudeDegrees>39.4891543127596378326416015625</LatitudeDegrees>
              <LongitudeDegrees>-0.56346916593611240386962890625</LongitudeDegrees>
            </Position>
            <AltitudeMeters>113.8000030517578125</AltitudeMeters>
            <DistanceMeters>14115.235157265</DistanceMeters>
          </Trackpoint>
          <Trackpoint>
            <Time>2021-10-09T07:20:21.000Z</Time>
            <Position>
              <LatitudeDegrees>39.48914785869419574737548828125</LatitudeDegrees>
              <LongitudeDegrees>-0.5635544098913669586181640625</LongitudeDegrees>
            </Position>
            <AltitudeMeters>113.8000030517578125</AltitudeMeters>
            <DistanceMeters>14122.59221362</DistanceMeters>
          </Trackpoint>
          <Trackpoint>
            <Time>2021-10-09T07:20:22.000Z</Time>
            <Position>
              <LatitudeDegrees>39.489143081009387969970703125</LatitudeDegrees>
              <LongitudeDegrees>-0.56361056864261627197265625</LongitudeDegrees>
            </Position>
            <AltitudeMeters>113.8000030517578125</AltitudeMeters>
            <DistanceMeters>14127.446023406</DistanceMeters>
          </Trackpoint>
          <Trackpoint>
            <Time>2021-10-09T07:20:23.000Z</Time>
            <Position>
              <LatitudeDegrees>39.4891345314681529998779296875</LatitudeDegrees>
              <LongitudeDegrees>-0.5636935494840145111083984375</LongitudeDegrees>
            </Position>
            <AltitudeMeters>114</AltitudeMeters>
            <DistanceMeters>14134.63735484</DistanceMeters>
          </Trackpoint>
          <Trackpoint>
            <Time>2021-10-09T07:20:24.000Z</Time>
            <Position>
              <LatitudeDegrees>39.48912975378334522247314453125</LatitudeDegrees>
              <LongitudeDegrees>-0.5637495405972003936767578125</LongitudeDegrees>
            </Position>
            <AltitudeMeters>114.40000152587890625</AltitudeMeters>
            <DistanceMeters>14139.477191438</DistanceMeters>
          </Trackpoint>
          <Trackpoint>
            <Time>2021-10-09T07:20:25.000Z</Time>
            <Position>
              <LatitudeDegrees>39.48912455700337886810302734375</LatitudeDegrees>
              <LongitudeDegrees>-0.56381902657449245452880859375</LongitudeDegrees>
            </Position>
            <AltitudeMeters>114.59999847412109375</AltitudeMeters>
            <DistanceMeters>14145.473670772</DistanceMeters>
          </Trackpoint>
          <Trackpoint>
            <Time>2021-10-09T07:20:26.000Z</Time>
            <Position>
              <LatitudeDegrees>39.48911952786147594451904296875</LatitudeDegrees>
              <LongitudeDegrees>-0.56390100158751010894775390625</LongitudeDegrees>
            </Position>
            <AltitudeMeters>114.59999847412109375</AltitudeMeters>
            <DistanceMeters>14152.537039115</DistanceMeters>
          </Trackpoint>
          <Trackpoint>
            <Time>2021-10-09T07:20:27.000Z</Time>
            <Position>
              <LatitudeDegrees>39.489115588366985321044921875</LatitudeDegrees>
              <LongitudeDegrees>-0.563969649374485015869140625</LongitudeDegrees>
            </Position>
            <AltitudeMeters>114.8000030517578125</AltitudeMeters>
            <DistanceMeters>14158.450114118</DistanceMeters>
          </Trackpoint>
          <Trackpoint>
            <Time>2021-10-09T07:20:28.000Z</Time>
            <Position>
              <LatitudeDegrees>39.48911181651055812835693359375</LatitudeDegrees>
              <LongitudeDegrees>-0.56403997354209423065185546875</LongitudeDegrees>
            </Position>
            <AltitudeMeters>114.8000030517578125</AltitudeMeters>
            <DistanceMeters>14164.505784225</DistanceMeters>
          </Trackpoint>
          <Trackpoint>
            <Time>2021-10-09T07:20:29.000Z</Time>
            <Position>
              <LatitudeDegrees>39.4891067035496234893798828125</LatitudeDegrees>
              <LongitudeDegrees>-0.56409780867397785186767578125</LongitudeDegrees>
            </Position>
            <AltitudeMeters>114.8000030517578125</AltitudeMeters>
            <DistanceMeters>14169.505309362</DistanceMeters>
          </Trackpoint>
          <Trackpoint>
            <Time>2021-10-09T07:20:30.000Z</Time>
            <Position>
              <LatitudeDegrees>39.4890986569225788116455078125</LatitudeDegrees>
              <LongitudeDegrees>-0.56418648920953273773193359375</LongitudeDegrees>
            </Position>
            <AltitudeMeters>114.8000030517578125</AltitudeMeters>
            <DistanceMeters>14177.174854196</DistanceMeters>
          </Trackpoint>
          <Trackpoint>
            <Time>2021-10-09T07:20:31.000Z</Time>
            <Position>
              <LatitudeDegrees>39.48909471742808818817138671875</LatitudeDegrees>
              <LongitudeDegrees>-0.56424625217914581298828125</LongitudeDegrees>
            </Position>
            <AltitudeMeters>114.8000030517578125</AltitudeMeters>
            <DistanceMeters>14182.326494194</DistanceMeters>
          </Trackpoint>
          <Trackpoint>
            <Time>2021-10-09T07:20:32.000Z</Time>
            <Position>
              <LatitudeDegrees>39.48908851481974124908447265625</LatitudeDegrees>
              <LongitudeDegrees>-0.5643352679908275604248046875</LongitudeDegrees>
            </Position>
            <AltitudeMeters>114.59999847412109375</AltitudeMeters>
            <DistanceMeters>14190.003100141</DistanceMeters>
          </Trackpoint>
          <Trackpoint>
            <Time>2021-10-09T07:20:33.000Z</Time>
            <Position>
              <LatitudeDegrees>39.489083401858806610107421875</LatitudeDegrees>
              <LongitudeDegrees>-0.564396120607852935791015625</LongitudeDegrees>
            </Position>
            <AltitudeMeters>114.59999847412109375</AltitudeMeters>
            <DistanceMeters>14195.261435816</DistanceMeters>
          </Trackpoint>
          <Trackpoint>
            <Time>2021-10-09T07:20:34.000Z</Time>
            <Position>
              <LatitudeDegrees>39.4890768639743328094482421875</LatitudeDegrees>
              <LongitudeDegrees>-0.56447315029799938201904296875</LongitudeDegrees>
            </Position>
            <AltitudeMeters>114.59999847412109375</AltitudeMeters>
            <DistanceMeters>14201.91737715</DistanceMeters>
          </Trackpoint>
          <Trackpoint>
            <Time>2021-10-09T07:20:35.000Z</Time>
            <Position>
              <LatitudeDegrees>39.48906906880438327789306640625</LatitudeDegrees>
              <LongitudeDegrees>-0.564548671245574951171875</LongitudeDegrees>
            </Position>
            <AltitudeMeters>114.59999847412109375</AltitudeMeters>
            <DistanceMeters>14208.462503783</DistanceMeters>
          </Trackpoint>
          <Trackpoint>
            <Time>2021-10-09T07:20:36.000Z</Time>
            <Position>
              <LatitudeDegrees>39.4890604354441165924072265625</LatitudeDegrees>
              <LongitudeDegrees>-0.564640872180461883544921875</LongitudeDegrees>
            </Position>
            <AltitudeMeters>114.40000152587890625</AltitudeMeters>
            <DistanceMeters>14216.440787362</DistanceMeters>
          </Trackpoint>
          <Trackpoint>
            <Time>2021-10-09T07:20:37.000Z</Time>
            <Position>
              <LatitudeDegrees>39.48905247263610363006591796875</LatitudeDegrees>
              <LongitudeDegrees>-0.564716644585132598876953125</LongitudeDegrees>
            </Position>
            <AltitudeMeters>114.40000152587890625</AltitudeMeters>
            <DistanceMeters>14223.009326411</DistanceMeters>
          </Trackpoint>
          <Trackpoint>
            <Time>2021-10-09T07:20:38.000Z</Time>
            <Position>
              <LatitudeDegrees>39.48904861696064472198486328125</LatitudeDegrees>
              <LongitudeDegrees>-0.56477573700249195098876953125</LongitudeDegrees>
            </Position>
            <AltitudeMeters>114.40000152587890625</AltitudeMeters>
            <DistanceMeters>14228.103680119</DistanceMeters>
          </Trackpoint>
          <Trackpoint>
            <Time>2021-10-09T07:20:39.000Z</Time>
            <Position>
              <LatitudeDegrees>39.48904241435229778289794921875</LatitudeDegrees>
              <LongitudeDegrees>-0.56486718356609344482421875</LongitudeDegrees>
            </Position>
            <AltitudeMeters>114.40000152587890625</AltitudeMeters>
            <DistanceMeters>14235.989179875</DistanceMeters>
          </Trackpoint>
          <Trackpoint>
            <Time>2021-10-09T07:20:40.000Z</Time>
            <Position>
              <LatitudeDegrees>39.48903906159102916717529296875</LatitudeDegrees>
              <LongitudeDegrees>-0.5649287067353725433349609375</LongitudeDegrees>
            </Position>
            <AltitudeMeters>114.59999847412109375</AltitudeMeters>
            <DistanceMeters>14241.286865934</DistanceMeters>
          </Trackpoint>
          <Trackpoint>
            <Time>2021-10-09T07:20:41.000Z</Time>
            <Position>
              <LatitudeDegrees>39.48903210461139678955078125</LatitudeDegrees>
              <LongitudeDegrees>-0.5650219134986400604248046875</LongitudeDegrees>
            </Position>
            <AltitudeMeters>114.59999847412109375</AltitudeMeters>
            <DistanceMeters>14249.329966558</DistanceMeters>
          </Trackpoint>
          <Trackpoint>
            <Time>2021-10-09T07:20:42.000Z</Time>
            <Position>
              <LatitudeDegrees>39.48902665637433528900146484375</LatitudeDegrees>
              <LongitudeDegrees>-0.56508435867726802825927734375</LongitudeDegrees>
            </Position>
            <AltitudeMeters>114.59999847412109375</AltitudeMeters>
            <DistanceMeters>14254.728119639</DistanceMeters>
          </Trackpoint>
          <Trackpoint>
            <Time>2021-10-09T07:20:43.000Z</Time>
            <Position>
              <LatitudeDegrees>39.48902003467082977294921875</LatitudeDegrees>
              <LongitudeDegrees>-0.56516063399612903594970703125</LongitudeDegrees>
            </Position>
            <AltitudeMeters>114.59999847412109375</AltitudeMeters>
            <DistanceMeters>14261.320672856</DistanceMeters>
          </Trackpoint>
          <Trackpoint>
            <Time>2021-10-09T07:20:44.000Z</Time>
            <Position>
              <LatitudeDegrees>39.489011652767658233642578125</LatitudeDegrees>
              <LongitudeDegrees>-0.56525082327425479888916015625</LongitudeDegrees>
            </Position>
            <AltitudeMeters>114.59999847412109375</AltitudeMeters>
            <DistanceMeters>14269.123286225</DistanceMeters>
          </Trackpoint>
          <Trackpoint>
            <Time>2021-10-09T07:20:45.000Z</Time>
            <Position>
              <LatitudeDegrees>39.4890057854354381561279296875</LatitudeDegrees>
              <LongitudeDegrees>-0.5653243325650691986083984375</LongitudeDegrees>
            </Position>
            <AltitudeMeters>114.8000030517578125</AltitudeMeters>
            <DistanceMeters>14275.471611293</DistanceMeters>
          </Trackpoint>
          <Trackpoint>
            <Time>2021-10-09T07:20:46.000Z</Time>
            <Position>
              <LatitudeDegrees>39.4890000857412815093994140625</LatitudeDegrees>
              <LongitudeDegrees>-0.56540002115070819854736328125</LongitudeDegrees>
            </Position>
            <AltitudeMeters>114.8000030517578125</AltitudeMeters>
            <DistanceMeters>14282.004309149</DistanceMeters>
          </Trackpoint>
          <Trackpoint>
            <Time>2021-10-09T07:20:47.000Z</Time>
            <Position>
              <LatitudeDegrees>39.48899480514228343963623046875</LatitudeDegrees>
              <LongitudeDegrees>-0.56546171195805072784423828125</LongitudeDegrees>
            </Position>
            <AltitudeMeters>114.8000030517578125</AltitudeMeters>
            <DistanceMeters>14287.335976866</DistanceMeters>
          </Trackpoint>
          <Trackpoint>
            <Time>2021-10-09T07:20:48.000Z</Time>
            <Position>
              <LatitudeDegrees>39.488988853991031646728515625</LatitudeDegrees>
              <LongitudeDegrees>-0.56555173359811305999755859375</LongitudeDegrees>
            </Position>
            <AltitudeMeters>114.8000030517578125</AltitudeMeters>
            <DistanceMeters>14295.096815087</DistanceMeters>
          </Trackpoint>
          <Trackpoint>
            <Time>2021-10-09T07:20:49.000Z</Time>
            <Position>
              <LatitudeDegrees>39.48898524977266788482666015625</LatitudeDegrees>
              <LongitudeDegrees>-0.56561342440545558929443359375</LongitudeDegrees>
            </Position>
            <AltitudeMeters>115</AltitudeMeters>
            <DistanceMeters>14300.410669529</DistanceMeters>
          </Trackpoint>
          <Trackpoint>
            <Time>2021-10-09T07:20:50.000Z</Time>
            <Position>
              <LatitudeDegrees>39.488978125154972076416015625</LatitudeDegrees>
              <LongitudeDegrees>-0.56570537388324737548828125</LongitudeDegrees>
            </Position>
            <AltitudeMeters>115.1999969482421875</AltitudeMeters>
            <DistanceMeters>14308.348671383</DistanceMeters>
          </Trackpoint>
          <Trackpoint>
            <Time>2021-10-09T07:20:51.000Z</Time>
            <Position>
              <LatitudeDegrees>39.4889722578227519989013671875</LatitudeDegrees>
              <LongitudeDegrees>-0.56576572358608245849609375</LongitudeDegrees>
            </Position>
            <AltitudeMeters>115.1999969482421875</AltitudeMeters>
            <DistanceMeters>14313.573412629</DistanceMeters>
          </Trackpoint>
          <Trackpoint>
            <Time>2021-10-09T07:20:52.000Z</Time>
            <Position>
              <LatitudeDegrees>39.48896630667150020599365234375</LatitudeDegrees>
              <LongitudeDegrees>-0.5658389814198017120361328125</LongitudeDegrees>
            </Position>
            <AltitudeMeters>115.40000152587890625</AltitudeMeters>
            <DistanceMeters>14319.899651543</DistanceMeters>
          </Trackpoint>
          <Trackpoint>
            <Time>2021-10-09T07:20:53.000Z</Time>
            <Position>
              <LatitudeDegrees>39.4889591820538043975830078125</LatitudeDegrees>
              <LongitudeDegrees>-0.565928332507610321044921875</LongitudeDegrees>
            </Position>
            <AltitudeMeters>115.40000152587890625</AltitudeMeters>
            <DistanceMeters>14327.616148422</DistanceMeters>
          </Trackpoint>
          <Trackpoint>
            <Time>2021-10-09T07:20:54.000Z</Time>
            <Position>
              <LatitudeDegrees>39.48895256035029888153076171875</LatitudeDegrees>
              <LongitudeDegrees>-0.5660056136548519134521484375</LongitudeDegrees>
            </Position>
            <AltitudeMeters>115.59999847412109375</AltitudeMeters>
            <DistanceMeters>14334.295113733</DistanceMeters>
          </Trackpoint>
          <Trackpoint>
            <Time>2021-10-09T07:20:55.000Z</Time>
            <Position>
              <LatitudeDegrees>39.48894769884645938873291015625</LatitudeDegrees>
              <LongitudeDegrees>-0.5660662986338138580322265625</LongitudeDegrees>
            </Position>
            <AltitudeMeters>115.59999847412109375</AltitudeMeters>
            <DistanceMeters>14339.536248395</DistanceMeters>
          </Trackpoint>
          <Trackpoint>
            <Time>2021-10-09T07:20:56.000Z</Time>
            <Position>
              <LatitudeDegrees>39.4889407418668270111083984375</LatitudeDegrees>
              <LongitudeDegrees>-0.5661437474191188812255859375</LongitudeDegrees>
            </Position>
            <AltitudeMeters>115.59999847412109375</AltitudeMeters>
            <DistanceMeters>14346.234115203</DistanceMeters>
          </Trackpoint>
          <Trackpoint>
            <Time>2021-10-09T07:20:57.000Z</Time>
            <Position>
              <LatitudeDegrees>39.4889316894114017486572265625</LatitudeDegrees>
              <LongitudeDegrees>-0.56623804382979869842529296875</LongitudeDegrees>
            </Position>
            <AltitudeMeters>115.59999847412109375</AltitudeMeters>
            <DistanceMeters>14354.396461924</DistanceMeters>
          </Trackpoint>
          <Trackpoint>
            <Time>2021-10-09T07:20:58.000Z</Time>
            <Position>
              <LatitudeDegrees>39.48892322368919849395751953125</LatitudeDegrees>
              <LongitudeDegrees>-0.56631683371961116790771484375</LongitudeDegrees>
            </Position>
            <AltitudeMeters>115.59999847412109375</AltitudeMeters>
            <DistanceMeters>14361.229140404</DistanceMeters>
          </Trackpoint>
          <Trackpoint>
            <Time>2021-10-09T07:20:59.000Z</Time>
            <Position>
              <LatitudeDegrees>39.48891433887183666229248046875</LatitudeDegrees>
              <LongitudeDegrees>-0.566395707428455352783203125</LongitudeDegrees>
            </Position>
            <AltitudeMeters>115.59999847412109375</AltitudeMeters>
            <DistanceMeters>14368.075681635</DistanceMeters>
          </Trackpoint>
          <Trackpoint>
            <Time>2021-10-09T07:21:00.000Z</Time>
            <Position>
              <LatitudeDegrees>39.4889072142541408538818359375</LatitudeDegrees>
              <LongitudeDegrees>-0.56645781733095645904541015625</LongitudeDegrees>
            </Position>
            <AltitudeMeters>115.59999847412109375</AltitudeMeters>
            <DistanceMeters>14373.468813955</DistanceMeters>
          </Trackpoint>
          <Trackpoint>
            <Time>2021-10-09T07:21:01.000Z</Time>
            <Position>
              <LatitudeDegrees>39.48889975436031818389892578125</LatitudeDegrees>
              <LongitudeDegrees>-0.56653476320207118988037109375</LongitudeDegrees>
            </Position>
            <AltitudeMeters>115.59999847412109375</AltitudeMeters>
            <DistanceMeters>14380.128824128</DistanceMeters>
          </Trackpoint>
          <Trackpoint>
            <Time>2021-10-09T07:21:02.000Z</Time>
            <Position>
              <LatitudeDegrees>39.4888881035149097442626953125</LatitudeDegrees>
              <LongitudeDegrees>-0.56662612594664096832275390625</LongitudeDegrees>
            </Position>
            <AltitudeMeters>116</AltitudeMeters>
            <DistanceMeters>14388.082736094</DistanceMeters>
          </Trackpoint>
          <Trackpoint>
            <Time>2021-10-09T07:21:03.000Z</Time>
            <Position>
              <LatitudeDegrees>39.48887896724045276641845703125</LatitudeDegrees>
              <LongitudeDegrees>-0.5667023174464702606201171875</LongitudeDegrees>
            </Position>
            <AltitudeMeters>116</AltitudeMeters>
            <DistanceMeters>14394.706036733</DistanceMeters>
          </Trackpoint>
          <Trackpoint>
            <Time>2021-10-09T07:21:04.000Z</Time>
            <Position>
              <LatitudeDegrees>39.48887159116566181182861328125</LatitudeDegrees>
              <LongitudeDegrees>-0.56677783839404582977294921875</LongitudeDegrees>
            </Position>
            <AltitudeMeters>116.1999969482421875</AltitudeMeters>
            <DistanceMeters>14401.244261407</DistanceMeters>
          </Trackpoint>
          <Trackpoint>
            <Time>2021-10-09T07:21:05.000Z</Time>
            <Position>
              <LatitudeDegrees>39.48886622674763202667236328125</LatitudeDegrees>
              <LongitudeDegrees>-0.56683751754462718963623046875</LongitudeDegrees>
            </Position>
            <AltitudeMeters>116.1999969482421875</AltitudeMeters>
            <DistanceMeters>14406.405533102</DistanceMeters>
          </Trackpoint>
          <Trackpoint>
            <Time>2021-10-09T07:21:06.000Z</Time>
            <Position>
              <LatitudeDegrees>39.48886387981474399566650390625</LatitudeDegrees>
              <LongitudeDegrees>-0.56692670099437236785888671875</LongitudeDegrees>
            </Position>
            <AltitudeMeters>116.40000152587890625</AltitudeMeters>
            <DistanceMeters>14414.070366913</DistanceMeters>
          </Trackpoint>
          <Trackpoint>
            <Time>2021-10-09T07:21:07.000Z</Time>
            <Position>
              <LatitudeDegrees>39.48886848986148834228515625</LatitudeDegrees>
              <LongitudeDegrees>-0.566984452307224273681640625</LongitudeDegrees>
            </Position>
            <AltitudeMeters>116.40000152587890625</AltitudeMeters>
            <DistanceMeters>14419.057232715</DistanceMeters>
          </Trackpoint>
          <Trackpoint>
            <Time>2021-10-09T07:21:08.000Z</Time>
            <Position>
              <LatitudeDegrees>39.48888902552425861358642578125</LatitudeDegrees>
              <LongitudeDegrees>-0.56706986390054225921630859375</LongitudeDegrees>
            </Position>
            <AltitudeMeters>116.40000152587890625</AltitudeMeters>
            <DistanceMeters>14426.74148088</DistanceMeters>
          </Trackpoint>
          <Trackpoint>
            <Time>2021-10-09T07:21:09.000Z</Time>
            <Position>
              <LatitudeDegrees>39.4889152608811855316162109375</LatitudeDegrees>
              <LongitudeDegrees>-0.56712023913860321044921875</LongitudeDegrees>
            </Position>
            <AltitudeMeters>116.59999847412109375</AltitudeMeters>
            <DistanceMeters>14431.960169466</DistanceMeters>
          </Trackpoint>
          <Trackpoint>
            <Time>2021-10-09T07:21:10.000Z</Time>
            <Position>
              <LatitudeDegrees>39.48895390145480632781982421875</LatitudeDegrees>
              <LongitudeDegrees>-0.5671774037182331085205078125</LongitudeDegrees>
            </Position>
            <AltitudeMeters>116.59999847412109375</AltitudeMeters>
            <DistanceMeters>14438.486644057</DistanceMeters>
          </Trackpoint>
          <Trackpoint>
            <Time>2021-10-09T07:21:11.000Z</Time>
            <Position>
              <LatitudeDegrees>39.489001929759979248046875</LatitudeDegrees>
              <LongitudeDegrees>-0.5672458000481128692626953125</LongitudeDegrees>
            </Position>
            <AltitudeMeters>116.59999847412109375</AltitudeMeters>
            <DistanceMeters>14446.430331752</DistanceMeters>
          </Trackpoint>
          <Trackpoint>
            <Time>2021-10-09T07:21:12.000Z</Time>
            <Position>
              <LatitudeDegrees>39.48903881013393402099609375</LatitudeDegrees>
              <LongitudeDegrees>-0.56730455718934535980224609375</LongitudeDegrees>
            </Position>
            <AltitudeMeters>116.59999847412109375</AltitudeMeters>
            <DistanceMeters>14452.936019132</DistanceMeters>
          </Trackpoint>
          <Trackpoint>
            <Time>2021-10-09T07:21:13.000Z</Time>
            <Position>
              <LatitudeDegrees>39.48907862417399883270263671875</LatitudeDegrees>
              <LongitudeDegrees>-0.56735971011221408843994140625</LongitudeDegrees>
            </Position>
            <AltitudeMeters>116.8000030517578125</AltitudeMeters>
            <DistanceMeters>14459.42294107</DistanceMeters>
          </Trackpoint>
          <Trackpoint>
            <Time>2021-10-09T07:21:14.000Z</Time>
            <Position>
              <LatitudeDegrees>39.48911617510020732879638671875</LatitudeDegrees>
              <LongitudeDegrees>-0.5673958361148834228515625</LongitudeDegrees>
            </Position>
            <AltitudeMeters>116.8000030517578125</AltitudeMeters>
            <DistanceMeters>14464.627768573</DistanceMeters>
          </Trackpoint>
          <Trackpoint>
            <Time>2021-10-09T07:21:15.000Z</Time>
            <Position>
              <LatitudeDegrees>39.48917887173593044281005859375</LatitudeDegrees>
              <LongitudeDegrees>-0.56743682362139225006103515625</LongitudeDegrees>
            </Position>
            <AltitudeMeters>116.8000030517578125</AltitudeMeters>
            <DistanceMeters>14472.443679725</DistanceMeters>
          </Trackpoint>
          <Trackpoint>
            <Time>2021-10-09T07:21:16.000Z</Time>
            <Position>
              <LatitudeDegrees>39.48922254145145416259765625</LatitudeDegrees>
              <LongitudeDegrees>-0.5674533359706401824951171875</LongitudeDegrees>
            </Position>
            <AltitudeMeters>116.8000030517578125</AltitudeMeters>
            <DistanceMeters>14477.506918513</DistanceMeters>
          </Trackpoint>
          <Trackpoint>
            <Time>2021-10-09T07:21:17.000Z</Time>
            <Position>
              <LatitudeDegrees>39.48927744291722774505615234375</LatitudeDegrees>
              <LongitudeDegrees>-0.56746984831988811492919921875</LongitudeDegrees>
            </Position>
            <AltitudeMeters>116.8000030517578125</AltitudeMeters>
            <DistanceMeters>14483.780121295</DistanceMeters>
          </Trackpoint>
          <Trackpoint>
            <Time>2021-10-09T07:21:18.000Z</Time>
            <Position>
              <LatitudeDegrees>39.4893330149352550506591796875</LatitudeDegrees>
              <LongitudeDegrees>-0.5674855224788188934326171875</LongitudeDegrees>
            </Position>
            <AltitudeMeters>117</AltitudeMeters>
            <DistanceMeters>14490.109927705</DistanceMeters>
          </Trackpoint>
          <Trackpoint>
            <Time>2021-10-09T07:21:19.000Z</Time>
            <Position>
              <LatitudeDegrees>39.4893893413245677947998046875</LatitudeDegrees>
              <LongitudeDegrees>-0.56749851442873477935791015625</LongitudeDegrees>
            </Position>
            <AltitudeMeters>117</AltitudeMeters>
            <DistanceMeters>14496.477426682</DistanceMeters>
          </Trackpoint>
          <Trackpoint>
            <Time>2021-10-09T07:21:20.000Z</Time>
            <Position>
              <LatitudeDegrees>39.48945731855928897857666015625</LatitudeDegrees>
              <LongitudeDegrees>-0.56751242838799953460693359375</LongitudeDegrees>
            </Position>
            <AltitudeMeters>117.40000152587890625</AltitudeMeters>
            <DistanceMeters>14504.136957129</DistanceMeters>
          </Trackpoint>
          <Trackpoint>
            <Time>2021-10-09T07:21:21.000Z</Time>
            <Position>
              <LatitudeDegrees>39.48950325138866901397705078125</LatitudeDegrees>
              <LongitudeDegrees>-0.56751913391053676605224609375</LongitudeDegrees>
            </Position>
            <AltitudeMeters>117.40000152587890625</AltitudeMeters>
            <DistanceMeters>14509.28158093</DistanceMeters>
          </Trackpoint>
          <Trackpoint>
            <Time>2021-10-09T07:21:22.000Z</Time>
            <Position>
              <LatitudeDegrees>39.48955915868282318115234375</LatitudeDegrees>
              <LongitudeDegrees>-0.56752659380435943603515625</LongitudeDegrees>
            </Position>
            <AltitudeMeters>117.59999847412109375</AltitudeMeters>
            <DistanceMeters>14515.53604263</DistanceMeters>
          </Trackpoint>
          <Trackpoint>
            <Time>2021-10-09T07:21:23.000Z</Time>
            <Position>
              <LatitudeDegrees>39.489614479243755340576171875</LatitudeDegrees>
              <LongitudeDegrees>-0.56753405369818210601806640625</LongitudeDegrees>
            </Position>
            <AltitudeMeters>117.8000030517578125</AltitudeMeters>
            <DistanceMeters>14521.725922625</DistanceMeters>
          </Trackpoint>
          <Trackpoint>
            <Time>2021-10-09T07:21:24.000Z</Time>
            <Position>
              <LatitudeDegrees>39.4896689616143703460693359375</LatitudeDegrees>
              <LongitudeDegrees>-0.56754193268716335296630859375</LongitudeDegrees>
            </Position>
            <AltitudeMeters>117.8000030517578125</AltitudeMeters>
            <DistanceMeters>14527.827644118</DistanceMeters>
          </Trackpoint>
          <Trackpoint>
            <Time>2021-10-09T07:21:25.000Z</Time>
            <Position>
              <LatitudeDegrees>39.4897234439849853515625</LatitudeDegrees>
              <LongitudeDegrees>-0.5675478838384151458740234375</LongitudeDegrees>
            </Position>
            <AltitudeMeters>118</AltitudeMeters>
            <DistanceMeters>14533.913806585</DistanceMeters>
          </Trackpoint>
          <Trackpoint>
            <Time>2021-10-09T07:21:26.000Z</Time>
            <Position>
              <LatitudeDegrees>39.4897796027362346649169921875</LatitudeDegrees>
              <LongitudeDegrees>-0.567555092275142669677734375</LongitudeDegrees>
            </Position>
            <AltitudeMeters>118</AltitudeMeters>
            <DistanceMeters>14540.194921453</DistanceMeters>
          </Trackpoint>
          <Trackpoint>
            <Time>2021-10-09T07:21:27.000Z</Time>
            <Position>
              <LatitudeDegrees>39.48983634822070598602294921875</LatitudeDegrees>
              <LongitudeDegrees>-0.56756204925477504730224609375</LongitudeDegrees>
            </Position>
            <AltitudeMeters>118</AltitudeMeters>
            <DistanceMeters>14546.538266046</DistanceMeters>
          </Trackpoint>
          <Trackpoint>
            <Time>2021-10-09T07:21:28.000Z</Time>
            <Position>
              <LatitudeDegrees>39.48989250697195529937744140625</LatitudeDegrees>
              <LongitudeDegrees>-0.56756992824375629425048828125</LongitudeDegrees>
            </Position>
            <AltitudeMeters>118.1999969482421875</AltitudeMeters>
            <DistanceMeters>14552.825847034</DistanceMeters>
          </Trackpoint>
          <Trackpoint>
            <Time>2021-10-09T07:21:29.000Z</Time>
            <Position>
              <LatitudeDegrees>39.48994883336126804351806640625</LatitudeDegrees>
              <LongitudeDegrees>-0.567576885223388671875</LongitudeDegrees>
            </Position>
            <AltitudeMeters>118.1999969482421875</AltitudeMeters>
            <DistanceMeters>14559.123473232</DistanceMeters>
          </Trackpoint>
          <Trackpoint>
            <Time>2021-10-09T07:21:30.000Z</Time>
            <Position>
              <LatitudeDegrees>39.49000432156026363372802734375</LatitudeDegrees>
              <LongitudeDegrees>-0.5675847642123699188232421875</LongitudeDegrees>
            </Position>
            <AltitudeMeters>118.40000152587890625</AltitudeMeters>
            <DistanceMeters>14565.336650906</DistanceMeters>
          </Trackpoint>
          <Trackpoint>
            <Time>2021-10-09T07:21:31.000Z</Time>
            <Position>
              <LatitudeDegrees>39.4900602288544178009033203125</LatitudeDegrees>
              <LongitudeDegrees>-0.567593313753604888916015625</LongitudeDegrees>
            </Position>
            <AltitudeMeters>118.59999847412109375</AltitudeMeters>
            <DistanceMeters>14571.602652213</DistanceMeters>
          </Trackpoint>
          <Trackpoint>
            <Time>2021-10-09T07:21:32.000Z</Time>
            <Position>
              <LatitudeDegrees>39.49011714197695255279541015625</LatitudeDegrees>
              <LongitudeDegrees>-0.56760043837130069732666015625</LongitudeDegrees>
            </Position>
            <AltitudeMeters>118.8000030517578125</AltitudeMeters>
            <DistanceMeters>14577.967314256</DistanceMeters>
          </Trackpoint>
          <Trackpoint>
            <Time>2021-10-09T07:21:33.000Z</Time>
            <Position>
              <LatitudeDegrees>39.490171372890472412109375</LatitudeDegrees>
              <LongitudeDegrees>-0.56760747916996479034423828125</LongitudeDegrees>
            </Position>
            <AltitudeMeters>118.8000030517578125</AltitudeMeters>
            <DistanceMeters>14584.033413621</DistanceMeters>
          </Trackpoint>
          <Trackpoint>
            <Time>2021-10-09T07:21:34.000Z</Time>
            <Position>
              <LatitudeDegrees>39.4902245141565799713134765625</LatitudeDegrees>
              <LongitudeDegrees>-0.56761510670185089111328125</LongitudeDegrees>
            </Position>
            <AltitudeMeters>118.8000030517578125</AltitudeMeters>
            <DistanceMeters>14589.984544591</DistanceMeters>
          </Trackpoint>
          <Trackpoint>
            <Time>2021-10-09T07:21:35.000Z</Time>
            <Position>
              <LatitudeDegrees>39.490278661251068115234375</LatitudeDegrees>
              <LongitudeDegrees>-0.5676249973475933074951171875</LongitudeDegrees>
            </Position>
            <AltitudeMeters>119</AltitudeMeters>
            <DistanceMeters>14596.070707057</DistanceMeters>
          </Trackpoint>
          <Trackpoint>
            <Time>2021-10-09T07:21:36.000Z</Time>
            <Position>
              <LatitudeDegrees>39.4903338141739368438720703125</LatitudeDegrees>
              <LongitudeDegrees>-0.56763254106044769287109375</LongitudeDegrees>
            </Position>
            <AltitudeMeters>119</AltitudeMeters>
            <DistanceMeters>14602.243056085</DistanceMeters>
          </Trackpoint>
          <Trackpoint>
            <Time>2021-10-09T07:21:37.000Z</Time>
            <Position>
              <LatitudeDegrees>39.490388967096805572509765625</LatitudeDegrees>
              <LongitudeDegrees>-0.56763782165944576263427734375</LongitudeDegrees>
            </Position>
            <AltitudeMeters>119.1999969482421875</AltitudeMeters>
            <DistanceMeters>14608.398557751</DistanceMeters>
          </Trackpoint>
          <Trackpoint>
            <Time>2021-10-09T07:21:38.000Z</Time>
            <Position>
              <LatitudeDegrees>39.4904424436390399932861328125</LatitudeDegrees>
              <LongitudeDegrees>-0.56764251552522182464599609375</LongitudeDegrees>
            </Position>
            <AltitudeMeters>119.40000152587890625</AltitudeMeters>
            <DistanceMeters>14614.36484314</DistanceMeters>
          </Trackpoint>
          <Trackpoint>
            <Time>2021-10-09T07:21:39.000Z</Time>
            <Position>
              <LatitudeDegrees>39.4904972612857818603515625</LatitudeDegrees>
              <LongitudeDegrees>-0.56764938868582248687744140625</LongitudeDegrees>
            </Position>
            <AltitudeMeters>119.40000152587890625</AltitudeMeters>
            <DistanceMeters>14620.495355203</DistanceMeters>
          </Trackpoint>
          <Trackpoint>
            <Time>2021-10-09T07:21:40.000Z</Time>
            <Position>
              <LatitudeDegrees>39.49056272394955158233642578125</LatitudeDegrees>
              <LongitudeDegrees>-0.567659027874469757080078125</LongitudeDegrees>
            </Position>
            <AltitudeMeters>119.59999847412109375</AltitudeMeters>
            <DistanceMeters>14627.829053813</DistanceMeters>
          </Trackpoint>
          <Trackpoint>
            <Time>2021-10-09T07:21:41.000Z</Time>
            <Position>
              <LatitudeDegrees>39.49061603285372257232666015625</LatitudeDegrees>
              <LongitudeDegrees>-0.56766732595860958099365234375</LongitudeDegrees>
            </Position>
            <AltitudeMeters>119.59999847412109375</AltitudeMeters>
            <DistanceMeters>14633.804413405</DistanceMeters>
          </Trackpoint>
          <Trackpoint>
            <Time>2021-10-09T07:21:42.000Z</Time>
            <Position>
              <LatitudeDegrees>39.490657187998294830322265625</LatitudeDegrees>
              <LongitudeDegrees>-0.56767369620501995086669921875</LongitudeDegrees>
            </Position>
            <AltitudeMeters>119.8000030517578125</AltitudeMeters>
            <DistanceMeters>14638.416881303</DistanceMeters>
          </Trackpoint>
          <Trackpoint>
            <Time>2021-10-09T07:21:43.000Z</Time>
            <Position>
              <LatitudeDegrees>39.49070907197892665863037109375</LatitudeDegrees>
              <LongitudeDegrees>-0.5676801502704620361328125</LongitudeDegrees>
            </Position>
            <AltitudeMeters>119.8000030517578125</AltitudeMeters>
            <DistanceMeters>14644.217404109</DistanceMeters>
          </Trackpoint>
          <Trackpoint>
            <Time>2021-10-09T07:21:44.000Z</Time>
            <Position>
              <LatitudeDegrees>39.4907609559595584869384765625</LatitudeDegrees>
              <LongitudeDegrees>-0.5676876939833164215087890625</LongitudeDegrees>
            </Position>
            <AltitudeMeters>120</AltitudeMeters>
            <DistanceMeters>14650.027260024</DistanceMeters>
          </Trackpoint>
          <Trackpoint>
            <Time>2021-10-09T07:21:45.000Z</Time>
            <Position>
              <LatitudeDegrees>39.49081267230212688446044921875</LatitudeDegrees>
              <LongitudeDegrees>-0.56769465096294879913330078125</LongitudeDegrees>
            </Position>
            <AltitudeMeters>120.1999969482421875</AltitudeMeters>
            <DistanceMeters>14655.813754943</DistanceMeters>
          </Trackpoint>
          <Trackpoint>
            <Time>2021-10-09T07:21:46.000Z</Time>
            <Position>
              <LatitudeDegrees>39.4908632151782512664794921875</LatitudeDegrees>
              <LongitudeDegrees>-0.56770286522805690765380859375</LongitudeDegrees>
            </Position>
            <AltitudeMeters>120.40000152587890625</AltitudeMeters>
            <DistanceMeters>14661.483593754</DistanceMeters>
          </Trackpoint>
          <Trackpoint>
            <Time>2021-10-09T07:21:47.000Z</Time>
            <Position>
              <LatitudeDegrees>39.490914009511470794677734375</LatitudeDegrees>
              <LongitudeDegrees>-0.56771175004541873931884765625</LongitudeDegrees>
            </Position>
            <AltitudeMeters>120.59999847412109375</AltitudeMeters>
            <DistanceMeters>14667.188363294</DistanceMeters>
          </Trackpoint>
          <Trackpoint>
            <Time>2021-10-09T07:21:48.000Z</Time>
            <Position>
              <LatitudeDegrees>39.49096472002565860748291015625</LatitudeDegrees>
              <LongitudeDegrees>-0.567720718681812286376953125</LongitudeDegrees>
            </Position>
            <AltitudeMeters>120.8000030517578125</AltitudeMeters>
            <DistanceMeters>14672.885212839</DistanceMeters>
          </Trackpoint>
          <Trackpoint>
            <Time>2021-10-09T07:21:49.000Z</Time>
            <Position>
              <LatitudeDegrees>39.4910167716443538665771484375</LatitudeDegrees>
              <LongitudeDegrees>-0.5677269212901592254638671875</LongitudeDegrees>
            </Position>
            <AltitudeMeters>121</AltitudeMeters>
            <DistanceMeters>14678.703610951</DistanceMeters>
          </Trackpoint>
          <Trackpoint>
            <Time>2021-10-09T07:21:50.000Z</Time>
            <Position>
              <LatitudeDegrees>39.4910680688917636871337890625</LatitudeDegrees>
              <LongitudeDegrees>-0.56773169897496700286865234375</LongitudeDegrees>
            </Position>
            <AltitudeMeters>121</AltitudeMeters>
            <DistanceMeters>14684.427343766</DistanceMeters>
          </Trackpoint>
          <Trackpoint>
            <Time>2021-10-09T07:21:51.000Z</Time>
            <Position>
              <LatitudeDegrees>39.49111944995820522308349609375</LatitudeDegrees>
              <LongitudeDegrees>-0.5677386559545993804931640625</LongitudeDegrees>
            </Position>
            <AltitudeMeters>121</AltitudeMeters>
            <DistanceMeters>14690.177048964</DistanceMeters>
          </Trackpoint>
          <Trackpoint>
            <Time>2021-10-09T07:21:52.000Z</Time>
            <Position>
              <LatitudeDegrees>39.4911709986627101898193359375</LatitudeDegrees>
              <LongitudeDegrees>-0.567744188010692596435546875</LongitudeDegrees>
            </Position>
            <AltitudeMeters>121</AltitudeMeters>
            <DistanceMeters>14695.933817202</DistanceMeters>
          </Trackpoint>
          <Trackpoint>
            <Time>2021-10-09T07:21:53.000Z</Time>
            <Position>
              <LatitudeDegrees>39.49122372083365917205810546875</LatitudeDegrees>
              <LongitudeDegrees>-0.5677500553429126739501953125</LongitudeDegrees>
            </Position>
            <AltitudeMeters>121.1999969482421875</AltitudeMeters>
            <DistanceMeters>14701.823174011</DistanceMeters>
          </Trackpoint>
          <Trackpoint>
            <Time>2021-10-09T07:21:54.000Z</Time>
            <Position>
              <LatitudeDegrees>39.49127552099525928497314453125</LatitudeDegrees>
              <LongitudeDegrees>-0.56775734759867191314697265625</LongitudeDegrees>
            </Position>
            <AltitudeMeters>121.59999847412109375</AltitudeMeters>
            <DistanceMeters>14707.622918381</DistanceMeters>
          </Trackpoint>
          <Trackpoint>
            <Time>2021-10-09T07:21:55.000Z</Time>
            <Position>
              <LatitudeDegrees>39.4913260638713836669921875</LatitudeDegrees>
              <LongitudeDegrees>-0.56776589713990688323974609375</LongitudeDegrees>
            </Position>
            <AltitudeMeters>121.59999847412109375</AltitudeMeters>
            <DistanceMeters>14713.296737423</DistanceMeters>
          </Trackpoint>
          <Trackpoint>
            <Time>2021-10-09T07:21:56.000Z</Time>
            <Position>
              <LatitudeDegrees>39.491376690566539764404296875</LatitudeDegrees>
              <LongitudeDegrees>-0.56777478195726871490478515625</LongitudeDegrees>
            </Position>
            <AltitudeMeters>121.8000030517578125</AltitudeMeters>
            <DistanceMeters>14718.982480441</DistanceMeters>
          </Trackpoint>
          <Trackpoint>
            <Time>2021-10-09T07:21:57.000Z</Time>
            <Position>
              <LatitudeDegrees>39.49142823927104473114013671875</LatitudeDegrees>
              <LongitudeDegrees>-0.5677812360227108001708984375</LongitudeDegrees>
            </Position>
            <AltitudeMeters>121.8000030517578125</AltitudeMeters>
            <DistanceMeters>14724.747086352</DistanceMeters>
          </Trackpoint>
          <Trackpoint>
            <Time>2021-10-09T07:21:58.000Z</Time>
            <Position>
              <LatitudeDegrees>39.491479285061359405517578125</LatitudeDegrees>
              <LongitudeDegrees>-0.56778676807880401611328125</LongitudeDegrees>
            </Position>
            <AltitudeMeters>121.8000030517578125</AltitudeMeters>
            <DistanceMeters>14730.448689215</DistanceMeters>
          </Trackpoint>
          <Trackpoint>
            <Time>2021-10-09T07:21:59.000Z</Time>
            <Position>
              <LatitudeDegrees>39.49153058230876922607421875</LatitudeDegrees>
              <LongitudeDegrees>-0.56779255159199237823486328125</LongitudeDegrees>
            </Position>
            <AltitudeMeters>121.8000030517578125</AltitudeMeters>
            <DistanceMeters>14736.178729175</DistanceMeters>
          </Trackpoint>
          <Trackpoint>
            <Time>2021-10-09T07:22:00.000Z</Time>
            <Position>
              <LatitudeDegrees>39.49158246628940105438232421875</LatitudeDegrees>
              <LongitudeDegrees>-0.567797832190990447998046875</LongitudeDegrees>
            </Position>
            <AltitudeMeters>121.8000030517578125</AltitudeMeters>
            <DistanceMeters>14741.971462905</DistanceMeters>
          </Trackpoint>
          <Trackpoint>
            <Time>2021-10-09T07:22:01.000Z</Time>
            <Position>
              <LatitudeDegrees>39.49163443408906459808349609375</LatitudeDegrees>
              <LongitudeDegrees>-0.5678040347993373870849609375</LongitudeDegrees>
            </Position>
            <AltitudeMeters>122</AltitudeMeters>
            <DistanceMeters>14747.779764343</DistanceMeters>
          </Trackpoint>
          <Trackpoint>
            <Time>2021-10-09T07:22:02.000Z</Time>
            <Position>
              <LatitudeDegrees>39.49168589897453784942626953125</LatitudeDegrees>
              <LongitudeDegrees>-0.56781115941703319549560546875</LongitudeDegrees>
            </Position>
            <AltitudeMeters>122</AltitudeMeters>
            <DistanceMeters>14753.540452751</DistanceMeters>
          </Trackpoint>
          <Trackpoint>
            <Time>2021-10-09T07:22:03.000Z</Time>
            <Position>
              <LatitudeDegrees>39.4917372800409793853759765625</LatitudeDegrees>
              <LongitudeDegrees>-0.567819960415363311767578125</LongitudeDegrees>
            </Position>
            <AltitudeMeters>122.1999969482421875</AltitudeMeters>
            <DistanceMeters>14759.308973505</DistanceMeters>
          </Trackpoint>
          <Trackpoint>
            <Time>2021-10-09T07:22:04.000Z</Time>
            <Position>
              <LatitudeDegrees>39.4917892478406429290771484375</LatitudeDegrees>
              <LongitudeDegrees>-0.56782859377562999725341796875</LongitudeDegrees>
            </Position>
            <AltitudeMeters>122.1999969482421875</AltitudeMeters>
            <DistanceMeters>14765.140548583</DistanceMeters>
          </Trackpoint>
          <Trackpoint>
            <Time>2021-10-09T07:22:05.000Z</Time>
            <Position>
              <LatitudeDegrees>39.49184096418321132659912109375</LatitudeDegrees>
              <LongitudeDegrees>-0.56783462874591350555419921875</LongitudeDegrees>
            </Position>
            <AltitudeMeters>122.1999969482421875</AltitudeMeters>
            <DistanceMeters>14770.920797959</DistanceMeters>
          </Trackpoint>
          <Trackpoint>
            <Time>2021-10-09T07:22:06.000Z</Time>
            <Position>
              <LatitudeDegrees>39.49189360253512859344482421875</LatitudeDegrees>
              <LongitudeDegrees>-0.56784041225910186767578125</LongitudeDegrees>
            </Position>
            <AltitudeMeters>122.1999969482421875</AltitudeMeters>
            <DistanceMeters>14776.800947847</DistanceMeters>
          </Trackpoint>
          <Trackpoint>
            <Time>2021-10-09T07:22:07.000Z</Time>
            <Position>
              <LatitudeDegrees>39.4919451512396335601806640625</LatitudeDegrees>
              <LongitudeDegrees>-0.567846111953258514404296875</LongitudeDegrees>
            </Position>
            <AltitudeMeters>122.40000152587890625</AltitudeMeters>
            <DistanceMeters>14782.559284473</DistanceMeters>
          </Trackpoint>
          <Trackpoint>
            <Time>2021-10-09T07:22:08.000Z</Time>
            <Position>
              <LatitudeDegrees>39.49199552647769451141357421875</LatitudeDegrees>
              <LongitudeDegrees>-0.567854158580303192138671875</LongitudeDegrees>
            </Position>
            <AltitudeMeters>122.59999847412109375</AltitudeMeters>
            <DistanceMeters>14788.208380874</DistanceMeters>
          </Trackpoint>
          <Trackpoint>
            <Time>2021-10-09T07:22:09.000Z</Time>
            <Position>
              <LatitudeDegrees>39.4920453988015651702880859375</LatitudeDegrees>
              <LongitudeDegrees>-0.567861534655094146728515625</LongitudeDegrees>
            </Position>
            <AltitudeMeters>122.8000030517578125</AltitudeMeters>
            <DistanceMeters>14793.796404169</DistanceMeters>
          </Trackpoint>
          <Trackpoint>
            <Time>2021-10-09T07:22:10.000Z</Time>
            <Position>
              <LatitudeDegrees>39.49209594167768955230712890625</LatitudeDegrees>
              <LongitudeDegrees>-0.56787100620567798614501953125</LongitudeDegrees>
            </Position>
            <AltitudeMeters>123</AltitudeMeters>
            <DistanceMeters>14799.480558769</DistanceMeters>
          </Trackpoint>
          <Trackpoint>
            <Time>2021-10-09T07:22:11.000Z</Time>
            <Position>
              <LatitudeDegrees>39.49214723892509937286376953125</LatitudeDegrees>
              <LongitudeDegrees>-0.56787854991853237152099609375</LongitudeDegrees>
            </Position>
            <AltitudeMeters>123</AltitudeMeters>
            <DistanceMeters>14805.226336304</DistanceMeters>
          </Trackpoint>
          <Trackpoint>
            <Time>2021-10-09T07:22:12.000Z</Time>
            <Position>
              <LatitudeDegrees>39.4921982847154140472412109375</LatitudeDegrees>
              <LongitudeDegrees>-0.56788525544106960296630859375</LongitudeDegrees>
            </Position>
            <AltitudeMeters>123.1999969482421875</AltitudeMeters>
            <DistanceMeters>14810.937433932</DistanceMeters>
          </Trackpoint>
          <Trackpoint>
            <Time>2021-10-09T07:22:13.000Z</Time>
            <Position>
              <LatitudeDegrees>39.4922492466866970062255859375</LatitudeDegrees>
              <LongitudeDegrees>-0.56789330206811428070068359375</LongitudeDegrees>
            </Position>
            <AltitudeMeters>123.1999969482421875</AltitudeMeters>
            <DistanceMeters>14816.651692976</DistanceMeters>
          </Trackpoint>
          <Trackpoint>
            <Time>2021-10-09T07:22:14.000Z</Time>
            <Position>
              <LatitudeDegrees>39.4923005439341068267822265625</LatitudeDegrees>
              <LongitudeDegrees>-0.56789983995258808135986328125</LongitudeDegrees>
            </Position>
            <AltitudeMeters>123.1999969482421875</AltitudeMeters>
            <DistanceMeters>14822.389607119</DistanceMeters>
          </Trackpoint>
          <Trackpoint>
            <Time>2021-10-09T07:22:15.000Z</Time>
            <Position>
              <LatitudeDegrees>39.49235133826732635498046875</LatitudeDegrees>
              <LongitudeDegrees>-0.56790738366544246673583984375</LongitudeDegrees>
            </Position>
            <AltitudeMeters>123.1999969482421875</AltitudeMeters>
            <DistanceMeters>14828.080112732</DistanceMeters>
          </Trackpoint>
          <Trackpoint>
            <Time>2021-10-09T07:22:16.000Z</Time>
            <Position>
              <LatitudeDegrees>39.4924014620482921600341796875</LatitudeDegrees>
              <LongitudeDegrees>-0.567912496626377105712890625</LongitudeDegrees>
            </Position>
            <AltitudeMeters>123.40000152587890625</AltitudeMeters>
            <DistanceMeters>14833.676210042</DistanceMeters>
          </Trackpoint>
          <Trackpoint>
            <Time>2021-10-09T07:22:17.000Z</Time>
            <Position>
              <LatitudeDegrees>39.4924534298479557037353515625</LatitudeDegrees>
              <LongitudeDegrees>-0.567920543253421783447265625</LongitudeDegrees>
            </Position>
            <AltitudeMeters>123.40000152587890625</AltitudeMeters>
            <DistanceMeters>14839.501587908</DistanceMeters>
          </Trackpoint>
          <Trackpoint>
            <Time>2021-10-09T07:22:18.000Z</Time>
            <Position>
              <LatitudeDegrees>39.49250665493309497833251953125</LatitudeDegrees>
              <LongitudeDegrees>-0.56792850606143474578857421875</LongitudeDegrees>
            </Position>
            <AltitudeMeters>123.40000152587890625</AltitudeMeters>
            <DistanceMeters>14845.464845494</DistanceMeters>
          </Trackpoint>
          <Trackpoint>
            <Time>2021-10-09T07:22:19.000Z</Time>
            <Position>
              <LatitudeDegrees>39.492558874189853668212890625</LatitudeDegrees>
              <LongitudeDegrees>-0.567935965955257415771484375</LongitudeDegrees>
            </Position>
            <AltitudeMeters>123.40000152587890625</AltitudeMeters>
            <DistanceMeters>14851.311884866</DistanceMeters>
          </Trackpoint>
          <Trackpoint>
            <Time>2021-10-09T07:22:20.000Z</Time>
            <Position>
              <LatitudeDegrees>39.49261109344661235809326171875</LatitudeDegrees>
              <LongitudeDegrees>-0.56794493459165096282958984375</LongitudeDegrees>
            </Position>
            <AltitudeMeters>123.59999847412109375</AltitudeMeters>
            <DistanceMeters>14857.175887858</DistanceMeters>
          </Trackpoint>
          <Trackpoint>
            <Time>2021-10-09T07:22:21.000Z</Time>
            <Position>
              <LatitudeDegrees>39.492660798132419586181640625</LatitudeDegrees>
              <LongitudeDegrees>-0.56795440614223480224609375</LongitudeDegrees>
            </Position>
            <AltitudeMeters>123.8000030517578125</AltitudeMeters>
            <DistanceMeters>14862.766334582</DistanceMeters>
          </Trackpoint>
          <Trackpoint>
            <Time>2021-10-09T07:22:22.000Z</Time>
            <Position>
              <LatitudeDegrees>39.4927112571895122528076171875</LatitudeDegrees>
              <LongitudeDegrees>-0.56796203367412090301513671875</LongitudeDegrees>
            </Position>
            <AltitudeMeters>124</AltitudeMeters>
            <DistanceMeters>14868.421022963</DistanceMeters>
          </Trackpoint>
          <Trackpoint>
            <Time>2021-10-09T07:22:23.000Z</Time>
            <Position>
              <LatitudeDegrees>39.49276297353208065032958984375</LatitudeDegrees>
              <LongitudeDegrees>-0.56796823628246784210205078125</LongitudeDegrees>
            </Position>
            <AltitudeMeters>124</AltitudeMeters>
            <DistanceMeters>14874.202834357</DistanceMeters>
          </Trackpoint>
          <Trackpoint>
            <Time>2021-10-09T07:22:24.000Z</Time>
            <Position>
              <LatitudeDegrees>39.49281192384660243988037109375</LatitudeDegrees>
              <LongitudeDegrees>-0.56797443889081478118896484375</LongitudeDegrees>
            </Position>
            <AltitudeMeters>124</AltitudeMeters>
            <DistanceMeters>14879.676571074</DistanceMeters>
          </Trackpoint>
          <Trackpoint>
            <Time>2021-10-09T07:22:25.000Z</Time>
            <Position>
              <LatitudeDegrees>39.4928601197898387908935546875</LatitudeDegrees>
              <LongitudeDegrees>-0.56798181496560573577880859375</LongitudeDegrees>
            </Position>
            <AltitudeMeters>124.1999969482421875</AltitudeMeters>
            <DistanceMeters>14885.078904557</DistanceMeters>
          </Trackpoint>
          <Trackpoint>
            <Time>2021-10-09T07:22:26.000Z</Time>
            <Position>
              <LatitudeDegrees>39.4929094053804874420166015625</LatitudeDegrees>
              <LongitudeDegrees>-0.5679881013929843902587890625</LongitudeDegrees>
            </Position>
            <AltitudeMeters>124.1999969482421875</AltitudeMeters>
            <DistanceMeters>14890.591273126</DistanceMeters>
          </Trackpoint>
          <Trackpoint>
            <Time>2021-10-09T07:22:27.000Z</Time>
            <Position>
              <LatitudeDegrees>39.49295885860919952392578125</LatitudeDegrees>
              <LongitudeDegrees>-0.56799589656293392181396484375</LongitudeDegrees>
            </Position>
            <AltitudeMeters>124.40000152587890625</AltitudeMeters>
            <DistanceMeters>14896.135493559</DistanceMeters>
          </Trackpoint>
          <Trackpoint>
            <Time>2021-10-09T07:22:28.000Z</Time>
            <Position>
              <LatitudeDegrees>39.4930064678192138671875</LatitudeDegrees>
              <LongitudeDegrees>-0.56800444610416889190673828125</LongitudeDegrees>
            </Position>
            <AltitudeMeters>124.40000152587890625</AltitudeMeters>
            <DistanceMeters>14901.485759191</DistanceMeters>
          </Trackpoint>
          <Trackpoint>
            <Time>2021-10-09T07:22:29.000Z</Time>
            <Position>
              <LatitudeDegrees>39.49305583722889423370361328125</LatitudeDegrees>
              <LongitudeDegrees>-0.56801207363605499267578125</LongitudeDegrees>
            </Position>
            <AltitudeMeters>125</AltitudeMeters>
            <DistanceMeters>14907.020198575</DistanceMeters>
          </Trackpoint>
          <Trackpoint>
            <Time>2021-10-09T07:22:30.000Z</Time>
            <Position>
              <LatitudeDegrees>39.49310512281954288482666015625</LatitudeDegrees>
              <LongitudeDegrees>-0.5680182762444019317626953125</LongitudeDegrees>
            </Position>
            <AltitudeMeters>125.1999969482421875</AltitudeMeters>
            <DistanceMeters>14912.532567143</DistanceMeters>
          </Trackpoint>
          <Trackpoint>
            <Time>2021-10-09T07:22:31.000Z</Time>
            <Position>
              <LatitudeDegrees>39.49315289966762065887451171875</LatitudeDegrees>
              <LongitudeDegrees>-0.5680249817669391632080078125</LongitudeDegrees>
            </Position>
            <AltitudeMeters>125.40000152587890625</AltitudeMeters>
            <DistanceMeters>14917.881144727</DistanceMeters>
          </Trackpoint>
          <Trackpoint>
            <Time>2021-10-09T07:22:32.000Z</Time>
            <Position>
              <LatitudeDegrees>39.49320159852504730224609375</LatitudeDegrees>
              <LongitudeDegrees>-0.568031184375286102294921875</LongitudeDegrees>
            </Position>
            <AltitudeMeters>125.59999847412109375</AltitudeMeters>
            <DistanceMeters>14923.328422139</DistanceMeters>
          </Trackpoint>
          <Trackpoint>
            <Time>2021-10-09T07:22:33.000Z</Time>
            <Position>
              <LatitudeDegrees>39.49325029738247394561767578125</LatitudeDegrees>
              <LongitudeDegrees>-0.568037219345569610595703125</LongitudeDegrees>
            </Position>
            <AltitudeMeters>125.8000030517578125</AltitudeMeters>
            <DistanceMeters>14928.773212398</DistanceMeters>
          </Trackpoint>
          <Trackpoint>
            <Time>2021-10-09T07:22:34.000Z</Time>
            <Position>
              <LatitudeDegrees>39.49329908005893230438232421875</LatitudeDegrees>
              <LongitudeDegrees>-0.56804132647812366485595703125</LongitudeDegrees>
            </Position>
            <AltitudeMeters>125.8000030517578125</AltitudeMeters>
            <DistanceMeters>14934.215514368</DistanceMeters>
          </Trackpoint>
          <Trackpoint>
            <Time>2021-10-09T07:22:35.000Z</Time>
            <Position>
              <LatitudeDegrees>39.4933486171066761016845703125</LatitudeDegrees>
              <LongitudeDegrees>-0.56804685853421688079833984375</LongitudeDegrees>
            </Position>
            <AltitudeMeters>126</AltitudeMeters>
            <DistanceMeters>14939.749953752</DistanceMeters>
          </Trackpoint>
          <Trackpoint>
            <Time>2021-10-09T07:22:36.000Z</Time>
            <Position>
              <LatitudeDegrees>39.493397735059261322021484375</LatitudeDegrees>
              <LongitudeDegrees>-0.56805507279932498931884765625</LongitudeDegrees>
            </Position>
            <AltitudeMeters>126</AltitudeMeters>
            <DistanceMeters>14945.263141334</DistanceMeters>
          </Trackpoint>
          <Trackpoint>
            <Time>2021-10-09T07:22:37.000Z</Time>
            <Position>
              <LatitudeDegrees>39.4934485293924808502197265625</LatitudeDegrees>
              <LongitudeDegrees>-0.5680625326931476593017578125</LongitudeDegrees>
            </Position>
            <AltitudeMeters>126</AltitudeMeters>
            <DistanceMeters>14950.952059858</DistanceMeters>
          </Trackpoint>
          <Trackpoint>
            <Time>2021-10-09T07:22:38.000Z</Time>
            <Position>
              <LatitudeDegrees>39.49349789880216121673583984375</LatitudeDegrees>
              <LongitudeDegrees>-0.568069405853748321533203125</LongitudeDegrees>
            </Position>
            <AltitudeMeters>126.40000152587890625</AltitudeMeters>
            <DistanceMeters>14956.478335144</DistanceMeters>
          </Trackpoint>
          <Trackpoint>
            <Time>2021-10-09T07:22:39.000Z</Time>
            <Position>
              <LatitudeDegrees>39.49354651384055614471435546875</LatitudeDegrees>
              <LongitudeDegrees>-0.56807736866176128387451171875</LongitudeDegrees>
            </Position>
            <AltitudeMeters>126.40000152587890625</AltitudeMeters>
            <DistanceMeters>14961.933067207</DistanceMeters>
          </Trackpoint>
          <Trackpoint>
            <Time>2021-10-09T07:22:40.000Z</Time>
            <Position>
              <LatitudeDegrees>39.49359512887895107269287109375</LatitudeDegrees>
              <LongitudeDegrees>-0.568083487451076507568359375</LongitudeDegrees>
            </Position>
            <AltitudeMeters>126.59999847412109375</AltitudeMeters>
            <DistanceMeters>14967.368728172</DistanceMeters>
          </Trackpoint>
          <Trackpoint>
            <Time>2021-10-09T07:22:41.000Z</Time>
            <Position>
              <LatitudeDegrees>39.4936434924602508544921875</LatitudeDegrees>
              <LongitudeDegrees>-0.56809044443070888519287109375</LongitudeDegrees>
            </Position>
            <AltitudeMeters>126.59999847412109375</AltitudeMeters>
            <DistanceMeters>14972.784417259</DistanceMeters>
          </Trackpoint>
          <Trackpoint>
            <Time>2021-10-09T07:22:42.000Z</Time>
            <Position>
              <LatitudeDegrees>39.49369168840348720550537109375</LatitudeDegrees>
              <LongitudeDegrees>-0.5680974014103412628173828125</LongitudeDegrees>
            </Position>
            <AltitudeMeters>126.8000030517578125</AltitudeMeters>
            <DistanceMeters>14978.180897272</DistanceMeters>
          </Trackpoint>
          <Trackpoint>
            <Time>2021-10-09T07:22:43.000Z</Time>
            <Position>
              <LatitudeDegrees>39.493740387260913848876953125</LatitudeDegrees>
              <LongitudeDegrees>-0.5681039392948150634765625</LongitudeDegrees>
            </Position>
            <AltitudeMeters>127.1999969482421875</AltitudeMeters>
            <DistanceMeters>14983.629832154</DistanceMeters>
          </Trackpoint>
          <Trackpoint>
            <Time>2021-10-09T07:22:44.000Z</Time>
            <Position>
              <LatitudeDegrees>39.49378841556608676910400390625</LatitudeDegrees>
              <LongitudeDegrees>-0.5681104771792888641357421875</LongitudeDegrees>
            </Position>
            <AltitudeMeters>127.40000152587890625</AltitudeMeters>
            <DistanceMeters>14989.005354884</DistanceMeters>
          </Trackpoint>
          <Trackpoint>
            <Time>2021-10-09T07:22:45.000Z</Time>
            <Position>
              <LatitudeDegrees>39.49383602477610111236572265625</LatitudeDegrees>
              <LongitudeDegrees>-0.568117685616016387939453125</LongitudeDegrees>
            </Position>
            <AltitudeMeters>127.59999847412109375</AltitudeMeters>
            <DistanceMeters>14994.340408863</DistanceMeters>
          </Trackpoint>
          <Trackpoint>
            <Time>2021-10-09T07:22:46.000Z</Time>
            <Position>
              <LatitudeDegrees>39.4938848912715911865234375</LatitudeDegrees>
              <LongitudeDegrees>-0.5681258998811244964599609375</LongitudeDegrees>
            </Position>
            <AltitudeMeters>127.8000030517578125</AltitudeMeters>
            <DistanceMeters>14999.824858209</DistanceMeters>
          </Trackpoint>
          <Trackpoint>
            <Time>2021-10-09T07:22:47.000Z</Time>
            <Position>
              <LatitudeDegrees>39.49393426068127155303955078125</LatitudeDegrees>
              <LongitudeDegrees>-0.56813151575624942779541015625</LongitudeDegrees>
            </Position>
            <AltitudeMeters>128</AltitudeMeters>
            <DistanceMeters>15005.340502101</DistanceMeters>
          </Trackpoint>
          <Trackpoint>
            <Time>2021-10-09T07:22:48.000Z</Time>
            <Position>
              <LatitudeDegrees>39.49398480355739593505859375</LatitudeDegrees>
              <LongitudeDegrees>-0.56813822127878665924072265625</LongitudeDegrees>
            </Position>
            <AltitudeMeters>128</AltitudeMeters>
            <DistanceMeters>15010.995988885</DistanceMeters>
          </Trackpoint>
          <Trackpoint>
            <Time>2021-10-09T07:22:49.000Z</Time>
            <Position>
              <LatitudeDegrees>39.49403576552867889404296875</LatitudeDegrees>
              <LongitudeDegrees>-0.56814526207745075225830078125</LongitudeDegrees>
            </Position>
            <AltitudeMeters>128.1999969482421875</AltitudeMeters>
            <DistanceMeters>15016.69996692</DistanceMeters>
          </Trackpoint>
          <Trackpoint>
            <Time>2021-10-09T07:22:50.000Z</Time>
            <Position>
              <LatitudeDegrees>39.49408731423318386077880859375</LatitudeDegrees>
              <LongitudeDegrees>-0.56815062649548053741455078125</LongitudeDegrees>
            </Position>
            <AltitudeMeters>128.399993896484375</AltitudeMeters>
            <DistanceMeters>15022.455166343</DistanceMeters>
          </Trackpoint>
          <Trackpoint>
            <Time>2021-10-09T07:22:51.000Z</Time>
            <Position>
              <LatitudeDegrees>39.494136683642864227294921875</LatitudeDegrees>
              <LongitudeDegrees>-0.56815833784639835357666015625</LongitudeDegrees>
            </Position>
            <AltitudeMeters>128.399993896484375</AltitudeMeters>
            <DistanceMeters>15027.989605727</DistanceMeters>
          </Trackpoint>
          <Trackpoint>
            <Time>2021-10-09T07:22:52.000Z</Time>
            <Position>
              <LatitudeDegrees>39.49418756179511547088623046875</LatitudeDegrees>
              <LongitudeDegrees>-0.56816554628312587738037109375</LongitudeDegrees>
            </Position>
            <AltitudeMeters>128.600006103515625</AltitudeMeters>
            <DistanceMeters>15033.685662667</DistanceMeters>
          </Trackpoint>
          <Trackpoint>
            <Time>2021-10-09T07:22:53.000Z</Time>
            <Position>
              <LatitudeDegrees>39.49423802085220813751220703125</LatitudeDegrees>
              <LongitudeDegrees>-0.56817074306309223175048828125</LongitudeDegrees>
            </Position>
            <AltitudeMeters>128.8000030517578125</AltitudeMeters>
            <DistanceMeters>15039.31955286</DistanceMeters>
          </Trackpoint>
          <Trackpoint>
            <Time>2021-10-09T07:22:54.000Z</Time>
            <Position>
              <LatitudeDegrees>39.4942872226238250732421875</LatitudeDegrees>
              <LongitudeDegrees>-0.568176694214344024658203125</LongitudeDegrees>
            </Position>
            <AltitudeMeters>129</AltitudeMeters>
            <DistanceMeters>15044.820442439</DistanceMeters>
          </Trackpoint>
          <Trackpoint>
            <Time>2021-10-09T07:22:55.000Z</Time>
            <Position>
              <LatitudeDegrees>39.49433751404285430908203125</LatitudeDegrees>
              <LongitudeDegrees>-0.56818415410816669464111328125</LongitudeDegrees>
            </Position>
            <AltitudeMeters>129</AltitudeMeters>
            <DistanceMeters>15050.454332631</DistanceMeters>
          </Trackpoint>
          <Trackpoint>
            <Time>2021-10-09T07:22:56.000Z</Time>
            <Position>
              <LatitudeDegrees>39.49438788928091526031494140625</LatitudeDegrees>
              <LongitudeDegrees>-0.5681906081736087799072265625</LongitudeDegrees>
            </Position>
            <AltitudeMeters>129.399993896484375</AltitudeMeters>
            <DistanceMeters>15056.089024174</DistanceMeters>
          </Trackpoint>
          <Trackpoint>
            <Time>2021-10-09T07:22:57.000Z</Time>
            <Position>
              <LatitudeDegrees>39.49443876743316650390625</LatitudeDegrees>
              <LongitudeDegrees>-0.5681959725916385650634765625</LongitudeDegrees>
            </Position>
            <AltitudeMeters>129.600006103515625</AltitudeMeters>
            <DistanceMeters>15061.770000605</DistanceMeters>
          </Trackpoint>
          <Trackpoint>
            <Time>2021-10-09T07:22:58.000Z</Time>
            <Position>
              <LatitudeDegrees>39.494488723576068878173828125</LatitudeDegrees>
              <LongitudeDegrees>-0.568200163543224334716796875</LongitudeDegrees>
            </Position>
            <AltitudeMeters>129.8000030517578125</AltitudeMeters>
            <DistanceMeters>15067.341030378</DistanceMeters>
          </Trackpoint>
          <Trackpoint>
            <Time>2021-10-09T07:22:59.000Z</Time>
            <Position>
              <LatitudeDegrees>39.494539014995098114013671875</LatitudeDegrees>
              <LongitudeDegrees>-0.568206198513507843017578125</LongitudeDegrees>
            </Position>
            <AltitudeMeters>129.8000030517578125</AltitudeMeters>
            <DistanceMeters>15072.962886616</DistanceMeters>
          </Trackpoint>
          <Trackpoint>
            <Time>2021-10-09T07:23:00.000Z</Time>
            <Position>
              <LatitudeDegrees>39.49458922259509563446044921875</LatitudeDegrees>
              <LongitudeDegrees>-0.5682087130844593048095703125</LongitudeDegrees>
            </Position>
            <AltitudeMeters>129.8000030517578125</AltitudeMeters>
            <DistanceMeters>15078.554948376</DistanceMeters>
          </Trackpoint>
          <Trackpoint>
            <Time>2021-10-09T07:23:01.000Z</Time>
            <Position>
              <LatitudeDegrees>39.49464135803282260894775390625</LatitudeDegrees>
              <LongitudeDegrees>-0.568208210170269012451171875</LongitudeDegrees>
            </Position>
            <AltitudeMeters>130</AltitudeMeters>
            <DistanceMeters>15084.357027743</DistanceMeters>
          </Trackpoint>
          <Trackpoint>
            <Time>2021-10-09T07:23:02.000Z</Time>
            <Position>
              <LatitudeDegrees>39.49469416402280330657958984375</LatitudeDegrees>
              <LongitudeDegrees>-0.56820812635123729705810546875</LongitudeDegrees>
            </Position>
            <AltitudeMeters>130</AltitudeMeters>
            <DistanceMeters>15090.234105452</DistanceMeters>
          </Trackpoint>
          <Trackpoint>
            <Time>2021-10-09T07:23:03.000Z</Time>
            <Position>
              <LatitudeDegrees>39.49474529363214969635009765625</LatitudeDegrees>
              <LongitudeDegrees>-0.56820946745574474334716796875</LongitudeDegrees>
            </Position>
            <AltitudeMeters>130</AltitudeMeters>
            <DistanceMeters>15095.92619771</DistanceMeters>
          </Trackpoint>
          <Trackpoint>
            <Time>2021-10-09T07:23:04.000Z</Time>
            <Position>
              <LatitudeDegrees>39.4947956688702106475830078125</LatitudeDegrees>
              <LongitudeDegrees>-0.56820913217961788177490234375</LongitudeDegrees>
            </Position>
            <AltitudeMeters>130</AltitudeMeters>
            <DistanceMeters>15101.533579112</DistanceMeters>
          </Trackpoint>
          <Trackpoint>
            <Time>2021-10-09T07:23:05.000Z</Time>
            <Position>
              <LatitudeDegrees>39.49484579265117645263671875</LatitudeDegrees>
              <LongitudeDegrees>-0.5682085454463958740234375</LongitudeDegrees>
            </Position>
            <AltitudeMeters>130</AltitudeMeters>
            <DistanceMeters>15107.113516708</DistanceMeters>
          </Trackpoint>
          <Trackpoint>
            <Time>2021-10-09T07:23:06.000Z</Time>
            <Position>
              <LatitudeDegrees>39.4948959164321422576904296875</LatitudeDegrees>
              <LongitudeDegrees>-0.56820594705641269683837890625</LongitudeDegrees>
            </Position>
            <AltitudeMeters>130</AltitudeMeters>
            <DistanceMeters>15112.696689989</DistanceMeters>
          </Trackpoint>
          <Trackpoint>
            <Time>2021-10-09T07:23:07.000Z</Time>
            <Position>
              <LatitudeDegrees>39.494946040213108062744140625</LatitudeDegrees>
              <LongitudeDegrees>-0.56820326484739780426025390625</LongitudeDegrees>
            </Position>
            <AltitudeMeters>130</AltitudeMeters>
            <DistanceMeters>15118.27986327</DistanceMeters>
          </Trackpoint>
          <Trackpoint>
            <Time>2021-10-09T07:23:08.000Z</Time>
            <Position>
              <LatitudeDegrees>39.49499507434666156768798828125</LatitudeDegrees>
              <LongitudeDegrees>-0.5681983195245265960693359375</LongitudeDegrees>
            </Position>
            <AltitudeMeters>130.1999969482421875</AltitudeMeters>
            <DistanceMeters>15123.753599986</DistanceMeters>
          </Trackpoint>
          <Trackpoint>
            <Time>2021-10-09T07:23:09.000Z</Time>
            <Position>
              <LatitudeDegrees>39.4950437732040882110595703125</LatitudeDegrees>
              <LongitudeDegrees>-0.568184070289134979248046875</LongitudeDegrees>
            </Position>
            <AltitudeMeters>130.1999969482421875</AltitudeMeters>
            <DistanceMeters>15129.310022519</DistanceMeters>
          </Trackpoint>
          <Trackpoint>
            <Time>2021-10-09T07:23:10.000Z</Time>
            <Position>
              <LatitudeDegrees>39.495088197290897369384765625</LatitudeDegrees>
              <LongitudeDegrees>-0.5681587569415569305419921875</LongitudeDegrees>
            </Position>
            <AltitudeMeters>130.1999969482421875</AltitudeMeters>
            <DistanceMeters>15134.71068423</DistanceMeters>
          </Trackpoint>
          <Trackpoint>
            <Time>2021-10-09T07:23:11.000Z</Time>
            <Position>
              <LatitudeDegrees>39.49513337574899196624755859375</LatitudeDegrees>
              <LongitudeDegrees>-0.56813201867043972015380859375</LongitudeDegrees>
            </Position>
            <AltitudeMeters>130.399993896484375</AltitudeMeters>
            <DistanceMeters>15140.2385933</DistanceMeters>
          </Trackpoint>
          <Trackpoint>
            <Time>2021-10-09T07:23:12.000Z</Time>
            <Position>
              <LatitudeDegrees>39.49518165551126003265380859375</LatitudeDegrees>
              <LongitudeDegrees>-0.5681128241121768951416015625</LongitudeDegrees>
            </Position>
            <AltitudeMeters>130.600006103515625</AltitudeMeters>
            <DistanceMeters>15145.858843063</DistanceMeters>
          </Trackpoint>
          <Trackpoint>
            <Time>2021-10-09T07:23:13.000Z</Time>
            <Position>
              <LatitudeDegrees>39.49523228220641613006591796875</LatitudeDegrees>
              <LongitudeDegrees>-0.568103604018688201904296875</LongitudeDegrees>
            </Position>
            <AltitudeMeters>130.600006103515625</AltitudeMeters>
            <DistanceMeters>15151.549348676</DistanceMeters>
          </Trackpoint>
          <Trackpoint>
            <Time>2021-10-09T07:23:14.000Z</Time>
            <Position>
              <LatitudeDegrees>39.49528408236801624298095703125</LatitudeDegrees>
              <LongitudeDegrees>-0.56810704059898853302001953125</LongitudeDegrees>
            </Position>
            <AltitudeMeters>130.8000030517578125</AltitudeMeters>
            <DistanceMeters>15157.323345751</DistanceMeters>
          </Trackpoint>
          <Trackpoint>
            <Time>2021-10-09T07:23:15.000Z</Time>
            <Position>
              <LatitudeDegrees>39.49533403851091861724853515625</LatitudeDegrees>
              <LongitudeDegrees>-0.5681262351572513580322265625</LongitudeDegrees>
            </Position>
            <AltitudeMeters>130.8000030517578125</AltitudeMeters>
            <DistanceMeters>15163.12231158</DistanceMeters>
          </Trackpoint>
          <Trackpoint>
            <Time>2021-10-09T07:23:16.000Z</Time>
            <Position>
              <LatitudeDegrees>39.49538030661642551422119140625</LatitudeDegrees>
              <LongitudeDegrees>-0.5681543983519077301025390625</LongitudeDegrees>
            </Position>
            <AltitudeMeters>130.8000030517578125</AltitudeMeters>
            <DistanceMeters>15168.811230104</DistanceMeters>
          </Trackpoint>
          <Trackpoint>
            <Time>2021-10-09T07:23:17.000Z</Time>
            <Position>
              <LatitudeDegrees>39.49542774818837642669677734375</LatitudeDegrees>
              <LongitudeDegrees>-0.5681785382330417633056640625</LongitudeDegrees>
            </Position>
            <AltitudeMeters>131</AltitudeMeters>
            <DistanceMeters>15174.484253323</DistanceMeters>
          </Trackpoint>
          <Trackpoint>
            <Time>2021-10-09T07:23:18.000Z</Time>
            <Position>
              <LatitudeDegrees>39.49547921307384967803955078125</LatitudeDegrees>
              <LongitudeDegrees>-0.56819186545908451080322265625</LongitudeDegrees>
            </Position>
            <AltitudeMeters>131</AltitudeMeters>
            <DistanceMeters>15180.325884849</DistanceMeters>
          </Trackpoint>
          <Trackpoint>
            <Time>2021-10-09T07:23:19.000Z</Time>
            <Position>
              <LatitudeDegrees>39.4955319352447986602783203125</LatitudeDegrees>
              <LongitudeDegrees>-0.56819287128746509552001953125</LongitudeDegrees>
            </Position>
            <AltitudeMeters>131</AltitudeMeters>
            <DistanceMeters>15186.194505773</DistanceMeters>
          </Trackpoint>
          <Trackpoint>
            <Time>2021-10-09T07:23:20.000Z</Time>
            <Position>
              <LatitudeDegrees>39.4955849088728427886962890625</LatitudeDegrees>
              <LongitudeDegrees>-0.568180046975612640380859375</LongitudeDegrees>
            </Position>
            <AltitudeMeters>131</AltitudeMeters>
            <DistanceMeters>15192.192490814</DistanceMeters>
          </Trackpoint>
          <Trackpoint>
            <Time>2021-10-09T07:23:21.000Z</Time>
            <Position>
              <LatitudeDegrees>39.495637379586696624755859375</LatitudeDegrees>
              <LongitudeDegrees>-0.568158589303493499755859375</LongitudeDegrees>
            </Position>
            <AltitudeMeters>131.1999969482421875</AltitudeMeters>
            <DistanceMeters>15198.316370914</DistanceMeters>
          </Trackpoint>
          <Trackpoint>
            <Time>2021-10-09T07:23:22.000Z</Time>
            <Position>
              <LatitudeDegrees>39.49569043703377246856689453125</LatitudeDegrees>
              <LongitudeDegrees>-0.5681361258029937744140625</LongitudeDegrees>
            </Position>
            <AltitudeMeters>131.1999969482421875</AltitudeMeters>
            <DistanceMeters>15204.528821857</DistanceMeters>
          </Trackpoint>
          <Trackpoint>
            <Time>2021-10-09T07:23:23.000Z</Time>
            <Position>
              <LatitudeDegrees>39.495742321014404296875</LatitudeDegrees>
              <LongitudeDegrees>-0.56811676360666751861572265625</LongitudeDegrees>
            </Position>
            <AltitudeMeters>131.1999969482421875</AltitudeMeters>
            <DistanceMeters>15210.537336284</DistanceMeters>
          </Trackpoint>
          <Trackpoint>
            <Time>2021-10-09T07:23:24.000Z</Time>
            <Position>
              <LatitudeDegrees>39.495793618261814117431640625</LatitudeDegrees>
              <LongitudeDegrees>-0.56809723377227783203125</LongitudeDegrees>
            </Position>
            <AltitudeMeters>131.399993896484375</AltitudeMeters>
            <DistanceMeters>15216.487708519</DistanceMeters>
          </Trackpoint>
          <Trackpoint>
            <Time>2021-10-09T07:23:25.000Z</Time>
            <Position>
              <LatitudeDegrees>39.4958444125950336456298828125</LatitudeDegrees>
              <LongitudeDegrees>-0.5680739320814609527587890625</LongitudeDegrees>
            </Position>
            <AltitudeMeters>131.600006103515625</AltitudeMeters>
            <DistanceMeters>15222.484940754</DistanceMeters>
          </Trackpoint>
          <Trackpoint>
            <Time>2021-10-09T07:23:26.000Z</Time>
            <Position>
              <LatitudeDegrees>39.4958940334618091583251953125</LatitudeDegrees>
              <LongitudeDegrees>-0.568049289286136627197265625</LongitudeDegrees>
            </Position>
            <AltitudeMeters>131.600006103515625</AltitudeMeters>
            <DistanceMeters>15228.398779276</DistanceMeters>
          </Trackpoint>
          <Trackpoint>
            <Time>2021-10-09T07:23:27.000Z</Time>
            <Position>
              <LatitudeDegrees>39.49594415724277496337890625</LatitudeDegrees>
              <LongitudeDegrees>-0.56802540086209774017333984375</LongitudeDegrees>
            </Position>
            <AltitudeMeters>131.8000030517578125</AltitudeMeters>
            <DistanceMeters>15234.343078152</DistanceMeters>
          </Trackpoint>
          <Trackpoint>
            <Time>2021-10-09T07:23:28.000Z</Time>
            <Position>
              <LatitudeDegrees>39.49599319137632846832275390625</LatitudeDegrees>
              <LongitudeDegrees>-0.56800268590450286865234375</LongitudeDegrees>
            </Position>
            <AltitudeMeters>132</AltitudeMeters>
            <DistanceMeters>15240.140486584</DistanceMeters>
          </Trackpoint>
          <Trackpoint>
            <Time>2021-10-09T07:23:29.000Z</Time>
            <Position>
              <LatitudeDegrees>39.49604214169085025787353515625</LatitudeDegrees>
              <LongitudeDegrees>-0.56797846220433712005615234375</LongitudeDegrees>
            </Position>
            <AltitudeMeters>132</AltitudeMeters>
            <DistanceMeters>15245.972061662</DistanceMeters>
          </Trackpoint>
          <Trackpoint>
            <Time>2021-10-09T07:23:30.000Z</Time>
            <Position>
              <LatitudeDegrees>39.49609209783375263214111328125</LatitudeDegrees>
              <LongitudeDegrees>-0.5679508857429027557373046875</LongitudeDegrees>
            </Position>
            <AltitudeMeters>132</AltitudeMeters>
            <DistanceMeters>15252.01504347</DistanceMeters>
          </Trackpoint>
          <Trackpoint>
            <Time>2021-10-09T07:23:31.000Z</Time>
            <Position>
              <LatitudeDegrees>39.49614373035728931427001953125</LatitudeDegrees>
              <LongitudeDegrees>-0.56792381219565868377685546875</LongitudeDegrees>
            </Position>
            <AltitudeMeters>132.1999969482421875</AltitudeMeters>
            <DistanceMeters>15258.214398707</DistanceMeters>
          </Trackpoint>
          <Trackpoint>
            <Time>2021-10-09T07:23:32.000Z</Time>
            <Position>
              <LatitudeDegrees>39.4961961172521114349365234375</LatitudeDegrees>
              <LongitudeDegrees>-0.5678972415626049041748046875</LongitudeDegrees>
            </Position>
            <AltitudeMeters>132.399993896484375</AltitudeMeters>
            <DistanceMeters>15264.476075153</DistanceMeters>
          </Trackpoint>
          <Trackpoint>
            <Time>2021-10-09T07:23:33.000Z</Time>
            <Position>
              <LatitudeDegrees>39.4962484203279018402099609375</LatitudeDegrees>
              <LongitudeDegrees>-0.56787285022437572479248046875</LongitudeDegrees>
            </Position>
            <AltitudeMeters>132.399993896484375</AltitudeMeters>
            <DistanceMeters>15270.66230696</DistanceMeters>
          </Trackpoint>
          <Trackpoint>
            <Time>2021-10-09T07:23:34.000Z</Time>
            <Position>
              <LatitudeDegrees>39.4962988793849945068359375</LatitudeDegrees>
              <LongitudeDegrees>-0.56785047054290771484375</LongitudeDegrees>
            </Position>
            <AltitudeMeters>132.600006103515625</AltitudeMeters>
            <DistanceMeters>15276.598244821</DistanceMeters>
          </Trackpoint>
          <Trackpoint>
            <Time>2021-10-09T07:23:35.000Z</Time>
            <Position>
              <LatitudeDegrees>39.49634841643273830413818359375</LatitudeDegrees>
              <LongitudeDegrees>-0.5678248219192028045654296875</LongitudeDegrees>
            </Position>
            <AltitudeMeters>132.8000030517578125</AltitudeMeters>
            <DistanceMeters>15282.535703741</DistanceMeters>
          </Trackpoint>
          <Trackpoint>
            <Time>2021-10-09T07:23:36.000Z</Time>
            <Position>
              <LatitudeDegrees>39.49639971368014812469482421875</LatitudeDegrees>
              <LongitudeDegrees>-0.56780009530484676361083984375</LongitudeDegrees>
            </Position>
            <AltitudeMeters>133.1999969482421875</AltitudeMeters>
            <DistanceMeters>15288.627798142</DistanceMeters>
          </Trackpoint>
          <Trackpoint>
            <Time>2021-10-09T07:23:37.000Z</Time>
            <Position>
              <LatitudeDegrees>39.49644966982305049896240234375</LatitudeDegrees>
              <LongitudeDegrees>-0.56777662597596645355224609375</LongitudeDegrees>
            </Position>
            <AltitudeMeters>133.1999969482421875</AltitudeMeters>
            <DistanceMeters>15294.542400085</DistanceMeters>
          </Trackpoint>
          <Trackpoint>
            <Time>2021-10-09T07:23:38.000Z</Time>
            <Position>
              <LatitudeDegrees>39.49649862013757228851318359375</LatitudeDegrees>
              <LongitudeDegrees>-0.56775248609483242034912109375</LongitudeDegrees>
            </Position>
            <AltitudeMeters>133.399993896484375</AltitudeMeters>
            <DistanceMeters>15300.372426477</DistanceMeters>
          </Trackpoint>
          <Trackpoint>
            <Time>2021-10-09T07:23:39.000Z</Time>
            <Position>
              <LatitudeDegrees>39.49654899537563323974609375</LatitudeDegrees>
              <LongitudeDegrees>-0.5677302740514278411865234375</LongitudeDegrees>
            </Position>
            <AltitudeMeters>133.600006103515625</AltitudeMeters>
            <DistanceMeters>15306.295419554</DistanceMeters>
          </Trackpoint>
          <Trackpoint>
            <Time>2021-10-09T07:23:40.000Z</Time>
            <Position>
              <LatitudeDegrees>39.4965997897088527679443359375</LatitudeDegrees>
              <LongitudeDegrees>-0.56770672090351581573486328125</LongitudeDegrees>
            </Position>
            <AltitudeMeters>133.8000030517578125</AltitudeMeters>
            <DistanceMeters>15312.300175605</DistanceMeters>
          </Trackpoint>
          <Trackpoint>
            <Time>2021-10-09T07:23:41.000Z</Time>
            <Position>
              <LatitudeDegrees>39.49664848856627941131591796875</LatitudeDegrees>
              <LongitudeDegrees>-0.56768123991787433624267578125</LongitudeDegrees>
            </Position>
            <AltitudeMeters>134</AltitudeMeters>
            <DistanceMeters>15318.146442734</DistanceMeters>
          </Trackpoint>
          <Trackpoint>
            <Time>2021-10-09T07:23:42.000Z</Time>
            <Position>
              <LatitudeDegrees>39.496698193252086639404296875</LatitudeDegrees>
              <LongitudeDegrees>-0.5676555074751377105712890625</LongitudeDegrees>
            </Position>
            <AltitudeMeters>134.1999969482421875</AltitudeMeters>
            <DistanceMeters>15324.103640097</DistanceMeters>
          </Trackpoint>
          <Trackpoint>
            <Time>2021-10-09T07:23:43.000Z</Time>
            <Position>
              <LatitudeDegrees>39.496748484671115875244140625</LatitudeDegrees>
              <LongitudeDegrees>-0.5676303617656230926513671875</LongitudeDegrees>
            </Position>
            <AltitudeMeters>134.399993896484375</AltitudeMeters>
            <DistanceMeters>15330.103130468</DistanceMeters>
          </Trackpoint>
          <Trackpoint>
            <Time>2021-10-09T07:23:44.000Z</Time>
            <Position>
              <LatitudeDegrees>39.49679751880466938018798828125</LatitudeDegrees>
              <LongitudeDegrees>-0.56760546751320362091064453125</LongitudeDegrees>
            </Position>
            <AltitudeMeters>134.399993896484375</AltitudeMeters>
            <DistanceMeters>15335.96482313</DistanceMeters>
          </Trackpoint>
          <Trackpoint>
            <Time>2021-10-09T07:23:45.000Z</Time>
            <Position>
              <LatitudeDegrees>39.49684747494757175445556640625</LatitudeDegrees>
              <LongitudeDegrees>-0.56758157908916473388671875</LongitudeDegrees>
            </Position>
            <AltitudeMeters>134.600006103515625</AltitudeMeters>
            <DistanceMeters>15341.891626431</DistanceMeters>
          </Trackpoint>
          <Trackpoint>
            <Time>2021-10-09T07:23:46.000Z</Time>
            <Position>
              <LatitudeDegrees>39.4968971796333789825439453125</LatitudeDegrees>
              <LongitudeDegrees>-0.56755718775093555450439453125</LongitudeDegrees>
            </Position>
            <AltitudeMeters>134.600006103515625</AltitudeMeters>
            <DistanceMeters>15347.806228374</DistanceMeters>
          </Trackpoint>
          <Trackpoint>
            <Time>2021-10-09T07:23:47.000Z</Time>
            <Position>
              <LatitudeDegrees>39.4969464652240276336669921875</LatitudeDegrees>
              <LongitudeDegrees>-0.567531622946262359619140625</LongitudeDegrees>
            </Position>
            <AltitudeMeters>134.600006103515625</AltitudeMeters>
            <DistanceMeters>15353.71472019</DistanceMeters>
          </Trackpoint>
          <Trackpoint>
            <Time>2021-10-09T07:23:48.000Z</Time>
            <Position>
              <LatitudeDegrees>39.4969947449862957000732421875</LatitudeDegrees>
              <LongitudeDegrees>-0.5675079859793186187744140625</LongitudeDegrees>
            </Position>
            <AltitudeMeters>134.8000030517578125</AltitudeMeters>
            <DistanceMeters>15359.458139837</DistanceMeters>
          </Trackpoint>
          <Trackpoint>
            <Time>2021-10-09T07:23:49.000Z</Time>
            <Position>
              <LatitudeDegrees>39.49704227037727832794189453125</LatitudeDegrees>
              <LongitudeDegrees>-0.5674838460981845855712890625</LongitudeDegrees>
            </Position>
            <AltitudeMeters>135</AltitudeMeters>
            <DistanceMeters>15365.139910977</DistanceMeters>
          </Trackpoint>
          <Trackpoint>
            <Time>2021-10-09T07:23:50.000Z</Time>
            <Position>
              <LatitudeDegrees>39.49708878993988037109375</LatitudeDegrees>
              <LongitudeDegrees>-0.5674607120454311370849609375</LongitudeDegrees>
            </Position>
            <AltitudeMeters>135.1999969482421875</AltitudeMeters>
            <DistanceMeters>15370.685759909</DistanceMeters>
          </Trackpoint>
          <Trackpoint>
            <Time>2021-10-09T07:23:51.000Z</Time>
            <Position>
              <LatitudeDegrees>39.49713547714054584503173828125</LatitudeDegrees>
              <LongitudeDegrees>-0.56743883527815341949462890625</LongitudeDegrees>
            </Position>
            <AltitudeMeters>135.1999969482421875</AltitudeMeters>
            <DistanceMeters>15376.211218121</DistanceMeters>
          </Trackpoint>
          <Trackpoint>
            <Time>2021-10-09T07:23:52.000Z</Time>
            <Position>
              <LatitudeDegrees>39.49718241579830646514892578125</LatitudeDegrees>
              <LongitudeDegrees>-0.56741528213024139404296875</LongitudeDegrees>
            </Position>
            <AltitudeMeters>135.399993896484375</AltitudeMeters>
            <DistanceMeters>15381.813766266</DistanceMeters>
          </Trackpoint>
          <Trackpoint>
            <Time>2021-10-09T07:23:53.000Z</Time>
            <Position>
              <LatitudeDegrees>39.49722952209413051605224609375</LatitudeDegrees>
              <LongitudeDegrees>-0.567390136420726776123046875</LongitudeDegrees>
            </Position>
            <AltitudeMeters>135.600006103515625</AltitudeMeters>
            <DistanceMeters>15387.483605077</DistanceMeters>
          </Trackpoint>
          <Trackpoint>
            <Time>2021-10-09T07:23:54.000Z</Time>
            <Position>
              <LatitudeDegrees>39.4972770474851131439208984375</LatitudeDegrees>
              <LongitudeDegrees>-0.567365996539592742919921875</LongitudeDegrees>
            </Position>
            <AltitudeMeters>135.8000030517578125</AltitudeMeters>
            <DistanceMeters>15393.165376217</DistanceMeters>
          </Trackpoint>
          <Trackpoint>
            <Time>2021-10-09T07:23:55.000Z</Time>
            <Position>
              <LatitudeDegrees>39.497325830161571502685546875</LatitudeDegrees>
              <LongitudeDegrees>-0.56734210811555385589599609375</LongitudeDegrees>
            </Position>
            <AltitudeMeters>135.8000030517578125</AltitudeMeters>
            <DistanceMeters>15398.969011727</DistanceMeters>
          </Trackpoint>
          <Trackpoint>
            <Time>2021-10-09T07:23:56.000Z</Time>
            <Position>
              <LatitudeDegrees>39.497374780476093292236328125</LatitudeDegrees>
              <LongitudeDegrees>-0.567317716777324676513671875</LongitudeDegrees>
            </Position>
            <AltitudeMeters>136</AltitudeMeters>
            <DistanceMeters>15404.805230396</DistanceMeters>
          </Trackpoint>
          <Trackpoint>
            <Time>2021-10-09T07:23:57.000Z</Time>
            <Position>
              <LatitudeDegrees>39.49742482043802738189697265625</LatitudeDegrees>
              <LongitudeDegrees>-0.5672930739820003509521484375</LongitudeDegrees>
            </Position>
            <AltitudeMeters>136.1999969482421875</AltitudeMeters>
            <DistanceMeters>15410.762427759</DistanceMeters>
          </Trackpoint>
          <Trackpoint>
            <Time>2021-10-09T07:23:58.000Z</Time>
            <Position>
              <LatitudeDegrees>39.49747242964804172515869140625</LatitudeDegrees>
              <LongitudeDegrees>-0.56727044284343719482421875</LongitudeDegrees>
            </Position>
            <AltitudeMeters>136.399993896484375</AltitudeMeters>
            <DistanceMeters>15416.406726625</DistanceMeters>
          </Trackpoint>
          <Trackpoint>
            <Time>2021-10-09T07:23:59.000Z</Time>
            <Position>
              <LatitudeDegrees>39.497521631419658660888671875</LatitudeDegrees>
              <LongitudeDegrees>-0.56724605150520801544189453125</LongitudeDegrees>
            </Position>
            <AltitudeMeters>136.600006103515625</AltitudeMeters>
            <DistanceMeters>15422.269189499</DistanceMeters>
          </Trackpoint>
          <Trackpoint>
            <Time>2021-10-09T07:24:00.000Z</Time>
            <Position>
              <LatitudeDegrees>39.49757318012416362762451171875</LatitudeDegrees>
              <LongitudeDegrees>-0.56721973232924938201904296875</LongitudeDegrees>
            </Position>
            <AltitudeMeters>137</AltitudeMeters>
            <DistanceMeters>15428.436415941</DistanceMeters>
          </Trackpoint>
          <Trackpoint>
            <Time>2021-10-09T07:24:01.000Z</Time>
            <Position>
              <LatitudeDegrees>39.4976220466196537017822265625</LatitudeDegrees>
              <LongitudeDegrees>-0.56719391606748104095458984375</LongitudeDegrees>
            </Position>
            <AltitudeMeters>137</AltitudeMeters>
            <DistanceMeters>15434.309651166</DistanceMeters>
          </Trackpoint>
          <Trackpoint>
            <Time>2021-10-09T07:24:02.000Z</Time>
            <Position>
              <LatitudeDegrees>39.4976706616580486297607421875</LatitudeDegrees>
              <LongitudeDegrees>-0.567167513072490692138671875</LongitudeDegrees>
            </Position>
            <AltitudeMeters>137.1999969482421875</AltitudeMeters>
            <DistanceMeters>15440.17596358</DistanceMeters>
          </Trackpoint>
          <Trackpoint>
            <Time>2021-10-09T07:24:03.000Z</Time>
            <Position>
              <LatitudeDegrees>39.49772137217223644256591796875</LatitudeDegrees>
              <LongitudeDegrees>-0.5671445466578006744384765625</LongitudeDegrees>
            </Position>
            <AltitudeMeters>137.399993896484375</AltitudeMeters>
            <DistanceMeters>15446.154344846</DistanceMeters>
          </Trackpoint>
          <Trackpoint>
            <Time>2021-10-09T07:24:04.000Z</Time>
            <Position>
              <LatitudeDegrees>39.49777250178158283233642578125</LatitudeDegrees>
              <LongitudeDegrees>-0.56712334044277667999267578125</LongitudeDegrees>
            </Position>
            <AltitudeMeters>137.600006103515625</AltitudeMeters>
            <DistanceMeters>15452.128193028</DistanceMeters>
          </Trackpoint>
          <Trackpoint>
            <Time>2021-10-09T07:24:05.000Z</Time>
            <Position>
              <LatitudeDegrees>39.49782312847673892974853515625</LatitudeDegrees>
              <LongitudeDegrees>-0.56709903292357921600341796875</LongitudeDegrees>
            </Position>
            <AltitudeMeters>137.8000030517578125</AltitudeMeters>
            <DistanceMeters>15458.137458849</DistanceMeters>
          </Trackpoint>
          <Trackpoint>
            <Time>2021-10-09T07:24:06.000Z</Time>
            <Position>
              <LatitudeDegrees>39.4978745095431804656982421875</LatitudeDegrees>
              <LongitudeDegrees>-0.567072965204715728759765625</LongitudeDegrees>
            </Position>
            <AltitudeMeters>137.8000030517578125</AltitudeMeters>
            <DistanceMeters>15464.279008271</DistanceMeters>
          </Trackpoint>
          <Trackpoint>
            <Time>2021-10-09T07:24:07.000Z</Time>
            <Position>
              <LatitudeDegrees>39.497925303876399993896484375</LatitudeDegrees>
              <LongitudeDegrees>-0.56704907678067684173583984375</LongitudeDegrees>
            </Position>
            <AltitudeMeters>138</AltitudeMeters>
            <DistanceMeters>15470.293531214</DistanceMeters>
          </Trackpoint>
          <Trackpoint>
            <Time>2021-10-09T07:24:08.000Z</Time>
            <Position>
              <LatitudeDegrees>39.49797567911446094512939453125</LatitudeDegrees>
              <LongitudeDegrees>-0.56702435016632080078125</LongitudeDegrees>
            </Position>
            <AltitudeMeters>138</AltitudeMeters>
            <DistanceMeters>15476.288504462</DistanceMeters>
          </Trackpoint>
          <Trackpoint>
            <Time>2021-10-09T07:24:09.000Z</Time>
            <Position>
              <LatitudeDegrees>39.49802630580961704254150390625</LatitudeDegrees>
              <LongitudeDegrees>-0.56700088083744049072265625</LongitudeDegrees>
            </Position>
            <AltitudeMeters>138</AltitudeMeters>
            <DistanceMeters>15482.272924499</DistanceMeters>
          </Trackpoint>
          <Trackpoint>
            <Time>2021-10-09T07:24:10.000Z</Time>
            <Position>
              <LatitudeDegrees>39.4980790279805660247802734375</LatitudeDegrees>
              <LongitudeDegrees>-0.566976405680179595947265625</LongitudeDegrees>
            </Position>
            <AltitudeMeters>138</AltitudeMeters>
            <DistanceMeters>15488.506416212</DistanceMeters>
          </Trackpoint>
          <Trackpoint>
            <Time>2021-10-09T07:24:11.000Z</Time>
            <Position>
              <LatitudeDegrees>39.49813258834183216094970703125</LatitudeDegrees>
              <LongitudeDegrees>-0.56694983504712581634521484375</LongitudeDegrees>
            </Position>
            <AltitudeMeters>138</AltitudeMeters>
            <DistanceMeters>15494.889495792</DistanceMeters>
          </Trackpoint>
          <Trackpoint>
            <Time>2021-10-09T07:24:12.000Z</Time>
            <Position>
              <LatitudeDegrees>39.49818690307438373565673828125</LatitudeDegrees>
              <LongitudeDegrees>-0.56692401878535747528076171875</LongitudeDegrees>
            </Position>
            <AltitudeMeters>138</AltitudeMeters>
            <DistanceMeters>15501.328213129</DistanceMeters>
          </Trackpoint>
          <Trackpoint>
            <Time>2021-10-09T07:24:13.000Z</Time>
            <Position>
              <LatitudeDegrees>39.4982421398162841796875</LatitudeDegrees>
              <LongitudeDegrees>-0.56689753197133541107177734375</LongitudeDegrees>
            </Position>
            <AltitudeMeters>138</AltitudeMeters>
            <DistanceMeters>15507.882990297</DistanceMeters>
          </Trackpoint>
          <Trackpoint>
            <Time>2021-10-09T07:24:14.000Z</Time>
            <Position>
              <LatitudeDegrees>39.49829771183431148529052734375</LatitudeDegrees>
              <LongitudeDegrees>-0.56686953641474246978759765625</LongitudeDegrees>
            </Position>
            <AltitudeMeters>138</AltitudeMeters>
            <DistanceMeters>15514.518550013</DistanceMeters>
          </Trackpoint>
          <Trackpoint>
            <Time>2021-10-09T07:24:15.000Z</Time>
            <Position>
              <LatitudeDegrees>39.4983549602329730987548828125</LatitudeDegrees>
              <LongitudeDegrees>-0.56684103794395923614501953125</LongitudeDegrees>
            </Position>
            <AltitudeMeters>138</AltitudeMeters>
            <DistanceMeters>15521.344617288</DistanceMeters>
          </Trackpoint>
          <Trackpoint>
            <Time>2021-10-09T07:24:16.000Z</Time>
            <Position>
              <LatitudeDegrees>39.498413465917110443115234375</LatitudeDegrees>
              <LongitudeDegrees>-0.5668126232922077178955078125</LongitudeDegrees>
            </Position>
            <AltitudeMeters>138</AltitudeMeters>
            <DistanceMeters>15528.299118668</DistanceMeters>
          </Trackpoint>
          <Trackpoint>
            <Time>2021-10-09T07:24:17.000Z</Time>
            <Position>
              <LatitudeDegrees>39.49847138486802577972412109375</LatitudeDegrees>
              <LongitudeDegrees>-0.56678236462175846099853515625</LongitudeDegrees>
            </Position>
            <AltitudeMeters>138</AltitudeMeters>
            <DistanceMeters>15535.249723603</DistanceMeters>
          </Trackpoint>
          <Trackpoint>
            <Time>2021-10-09T07:24:18.000Z</Time>
            <Position>
              <LatitudeDegrees>39.4985306449234485626220703125</LatitudeDegrees>
              <LongitudeDegrees>-0.5667521059513092041015625</LongitudeDegrees>
            </Position>
            <AltitudeMeters>138</AltitudeMeters>
            <DistanceMeters>15542.339251478</DistanceMeters>
          </Trackpoint>
          <Trackpoint>
            <Time>2021-10-09T07:24:19.000Z</Time>
            <Position>
              <LatitudeDegrees>39.49859057553112506866455078125</LatitudeDegrees>
              <LongitudeDegrees>-0.5667217634618282318115234375</LongitudeDegrees>
            </Position>
            <AltitudeMeters>137.8000030517578125</AltitudeMeters>
            <DistanceMeters>15549.501013426</DistanceMeters>
          </Trackpoint>
          <Trackpoint>
            <Time>2021-10-09T07:24:20.000Z</Time>
            <Position>
              <LatitudeDegrees>39.498652182519435882568359375</LatitudeDegrees>
              <LongitudeDegrees>-0.566691420972347259521484375</LongitudeDegrees>
            </Position>
            <AltitudeMeters>137.8000030517578125</AltitudeMeters>
            <DistanceMeters>15556.835943246</DistanceMeters>
          </Trackpoint>
          <Trackpoint>
            <Time>2021-10-09T07:24:21.000Z</Time>
            <Position>
              <LatitudeDegrees>39.4987150467932224273681640625</LatitudeDegrees>
              <LongitudeDegrees>-0.56666049174964427947998046875</LongitudeDegrees>
            </Position>
            <AltitudeMeters>137.8000030517578125</AltitudeMeters>
            <DistanceMeters>15564.319560961</DistanceMeters>
          </Trackpoint>
          <Trackpoint>
            <Time>2021-10-09T07:24:22.000Z</Time>
            <Position>
              <LatitudeDegrees>39.49877791106700897216796875</LatitudeDegrees>
              <LongitudeDegrees>-0.56662864051759243011474609375</LongitudeDegrees>
            </Position>
            <AltitudeMeters>137.8000030517578125</AltitudeMeters>
            <DistanceMeters>15571.832683338</DistanceMeters>
          </Trackpoint>
          <Trackpoint>
            <Time>2021-10-09T07:24:23.000Z</Time>
            <Position>
              <LatitudeDegrees>39.4988401047885417938232421875</LatitudeDegrees>
              <LongitudeDegrees>-0.56659762747585773468017578125</LongitudeDegrees>
            </Position>
            <AltitudeMeters>137.8000030517578125</AltitudeMeters>
            <DistanceMeters>15579.249638622</DistanceMeters>
          </Trackpoint>
          <Trackpoint>
            <Time>2021-10-09T07:24:24.000Z</Time>
            <Position>
              <LatitudeDegrees>39.49890271760523319244384765625</LatitudeDegrees>
              <LongitudeDegrees>-0.56656661443412303924560546875</LongitudeDegrees>
            </Position>
            <AltitudeMeters>137.600006103515625</AltitudeMeters>
            <DistanceMeters>15586.709689636</DistanceMeters>
          </Trackpoint>
          <Trackpoint>
            <Time>2021-10-09T07:24:25.000Z</Time>
            <Position>
              <LatitudeDegrees>39.49896373786032199859619140625</LatitudeDegrees>
              <LongitudeDegrees>-0.566535852849483489990234375</LongitudeDegrees>
            </Position>
            <AltitudeMeters>137.600006103515625</AltitudeMeters>
            <DistanceMeters>15593.997687279</DistanceMeters>
          </Trackpoint>
          <Trackpoint>
            <Time>2021-10-09T07:24:26.000Z</Time>
            <Position>
              <LatitudeDegrees>39.4990253448486328125</LatitudeDegrees>
              <LongitudeDegrees>-0.56650324724614620208740234375</LongitudeDegrees>
            </Position>
            <AltitudeMeters>137.600006103515625</AltitudeMeters>
            <DistanceMeters>15601.40428666</DistanceMeters>
          </Trackpoint>
          <Trackpoint>
            <Time>2021-10-09T07:24:27.000Z</Time>
            <Position>
              <LatitudeDegrees>39.49908770620822906494140625</LatitudeDegrees>
              <LongitudeDegrees>-0.56647022254765033721923828125</LongitudeDegrees>
            </Position>
            <AltitudeMeters>137.600006103515625</AltitudeMeters>
            <DistanceMeters>15608.902370145</DistanceMeters>
          </Trackpoint>
          <Trackpoint>
            <Time>2021-10-09T07:24:28.000Z</Time>
            <Position>
              <LatitudeDegrees>39.49914981611073017120361328125</LatitudeDegrees>
              <LongitudeDegrees>-0.56644122116267681121826171875</LongitudeDegrees>
            </Position>
            <AltitudeMeters>137.600006103515625</AltitudeMeters>
            <DistanceMeters>15616.250215207</DistanceMeters>
          </Trackpoint>
          <Trackpoint>
            <Time>2021-10-09T07:24:29.000Z</Time>
            <Position>
              <LatitudeDegrees>39.499210417270660400390625</LatitudeDegrees>
              <LongitudeDegrees>-0.56641238741576671600341796875</LongitudeDegrees>
            </Position>
            <AltitudeMeters>137.600006103515625</AltitudeMeters>
            <DistanceMeters>15623.435265452</DistanceMeters>
          </Trackpoint>
          <Trackpoint>
            <Time>2021-10-09T07:24:30.000Z</Time>
            <Position>
              <LatitudeDegrees>39.499269425868988037109375</LatitudeDegrees>
              <LongitudeDegrees>-0.566381625831127166748046875</LongitudeDegrees>
            </Position>
            <AltitudeMeters>137.600006103515625</AltitudeMeters>
            <DistanceMeters>15630.51459623</DistanceMeters>
          </Trackpoint>
          <Trackpoint>
            <Time>2021-10-09T07:24:31.000Z</Time>
            <Position>
              <LatitudeDegrees>39.4993262551724910736083984375</LatitudeDegrees>
              <LongitudeDegrees>-0.56635312736034393310546875</LongitudeDegrees>
            </Position>
            <AltitudeMeters>137.8000030517578125</AltitudeMeters>
            <DistanceMeters>15637.296202185</DistanceMeters>
          </Trackpoint>
          <Trackpoint>
            <Time>2021-10-09T07:24:32.000Z</Time>
            <Position>
              <LatitudeDegrees>39.49938409030437469482421875</LatitudeDegrees>
              <LongitudeDegrees>-0.56632722727954387664794921875</LongitudeDegrees>
            </Position>
            <AltitudeMeters>137.8000030517578125</AltitudeMeters>
            <DistanceMeters>15644.107039336</DistanceMeters>
          </Trackpoint>
          <Trackpoint>
            <Time>2021-10-09T07:24:33.000Z</Time>
            <Position>
              <LatitudeDegrees>39.4994419254362583160400390625</LatitudeDegrees>
              <LongitudeDegrees>-0.56629990227520465850830078125</LongitudeDegrees>
            </Position>
            <AltitudeMeters>137.8000030517578125</AltitudeMeters>
            <DistanceMeters>15650.95819525</DistanceMeters>
          </Trackpoint>
          <Trackpoint>
            <Time>2021-10-09T07:24:34.000Z</Time>
            <Position>
              <LatitudeDegrees>39.49949850328266620635986328125</LatitudeDegrees>
              <LongitudeDegrees>-0.56627475656569004058837890625</LongitudeDegrees>
            </Position>
            <AltitudeMeters>138</AltitudeMeters>
            <DistanceMeters>15657.614814896</DistanceMeters>
          </Trackpoint>
          <Trackpoint>
            <Time>2021-10-09T07:24:35.000Z</Time>
            <Position>
              <LatitudeDegrees>39.4995552487671375274658203125</LatitudeDegrees>
              <LongitudeDegrees>-0.56624994613230228424072265625</LongitudeDegrees>
            </Position>
            <AltitudeMeters>138</AltitudeMeters>
            <DistanceMeters>15664.280923669</DistanceMeters>
          </Trackpoint>
          <Trackpoint>
            <Time>2021-10-09T07:24:36.000Z</Time>
            <Position>
              <LatitudeDegrees>39.49961199425160884857177734375</LatitudeDegrees>
              <LongitudeDegrees>-0.566224046051502227783203125</LongitudeDegrees>
            </Position>
            <AltitudeMeters>138</AltitudeMeters>
            <DistanceMeters>15670.97744214</DistanceMeters>
          </Trackpoint>
          <Trackpoint>
            <Time>2021-10-09T07:24:37.000Z</Time>
            <Position>
              <LatitudeDegrees>39.49966832064092159271240234375</LatitudeDegrees>
              <LongitudeDegrees>-0.56619864888489246368408203125</LongitudeDegrees>
            </Position>
            <AltitudeMeters>138.1999969482421875</AltitudeMeters>
            <DistanceMeters>15677.61572302</DistanceMeters>
          </Trackpoint>
          <Trackpoint>
            <Time>2021-10-09T07:24:38.000Z</Time>
            <Position>
              <LatitudeDegrees>39.49972347356379032135009765625</LatitudeDegrees>
              <LongitudeDegrees>-0.56617434136569499969482421875</LongitudeDegrees>
            </Position>
            <AltitudeMeters>138.1999969482421875</AltitudeMeters>
            <DistanceMeters>15684.099860273</DistanceMeters>
          </Trackpoint>
          <Trackpoint>
            <Time>2021-10-09T07:24:39.000Z</Time>
            <Position>
              <LatitudeDegrees>39.49977845884859561920166015625</LatitudeDegrees>
              <LongitudeDegrees>-0.56615020148456096649169921875</LongitudeDegrees>
            </Position>
            <AltitudeMeters>138.1999969482421875</AltitudeMeters>
            <DistanceMeters>15690.561676851</DistanceMeters>
          </Trackpoint>
          <Trackpoint>
            <Time>2021-10-09T07:24:40.000Z</Time>
            <Position>
              <LatitudeDegrees>39.4998331926763057708740234375</LatitudeDegrees>
              <LongitudeDegrees>-0.566125474870204925537109375</LongitudeDegrees>
            </Position>
            <AltitudeMeters>138.1999969482421875</AltitudeMeters>
            <DistanceMeters>15697.01370385</DistanceMeters>
          </Trackpoint>
          <Trackpoint>
            <Time>2021-10-09T07:24:41.000Z</Time>
            <Position>
              <LatitudeDegrees>39.49988608248531818389892578125</LatitudeDegrees>
              <LongitudeDegrees>-0.56610326282680034637451171875</LongitudeDegrees>
            </Position>
            <AltitudeMeters>138.399993896484375</AltitudeMeters>
            <DistanceMeters>15703.201395191</DistanceMeters>
          </Trackpoint>
          <Trackpoint>
            <Time>2021-10-09T07:24:42.000Z</Time>
            <Position>
              <LatitudeDegrees>39.49993687681853771209716796875</LatitudeDegrees>
              <LongitudeDegrees>-0.56608046405017375946044921875</LongitudeDegrees>
            </Position>
            <AltitudeMeters>138.399993896484375</AltitudeMeters>
            <DistanceMeters>15709.184306106</DistanceMeters>
          </Trackpoint>
          <Trackpoint>
            <Time>2021-10-09T07:24:43.000Z</Time>
            <Position>
              <LatitudeDegrees>39.49999001808464527130126953125</LatitudeDegrees>
              <LongitudeDegrees>-0.566057078540325164794921875</LongitudeDegrees>
            </Position>
            <AltitudeMeters>138.399993896484375</AltitudeMeters>
            <DistanceMeters>15715.431544728</DistanceMeters>
          </Trackpoint>
          <Trackpoint>
            <Time>2021-10-09T07:24:44.000Z</Time>
            <Position>
              <LatitudeDegrees>39.50004232116043567657470703125</LatitudeDegrees>
              <LongitudeDegrees>-0.5660337768495082855224609375</LongitudeDegrees>
            </Position>
            <AltitudeMeters>139</AltitudeMeters>
            <DistanceMeters>15721.588513211</DistanceMeters>
          </Trackpoint>
          <Trackpoint>
            <Time>2021-10-09T07:24:45.000Z</Time>
            <Position>
              <LatitudeDegrees>39.50009345076978206634521484375</LatitudeDegrees>
              <LongitudeDegrees>-0.566010139882564544677734375</LongitudeDegrees>
            </Position>
            <AltitudeMeters>139.399993896484375</AltitudeMeters>
            <DistanceMeters>15727.630000527</DistanceMeters>
          </Trackpoint>
          <Trackpoint>
            <Time>2021-10-09T07:24:46.000Z</Time>
            <Position>
              <LatitudeDegrees>39.50014592148363590240478515625</LatitudeDegrees>
              <LongitudeDegrees>-0.5659865029156208038330078125</LongitudeDegrees>
            </Position>
            <AltitudeMeters>139.8000030517578125</AltitudeMeters>
            <DistanceMeters>15733.811851667</DistanceMeters>
          </Trackpoint>
          <Trackpoint>
            <Time>2021-10-09T07:24:47.000Z</Time>
            <Position>
              <LatitudeDegrees>39.50019721873104572296142578125</LatitudeDegrees>
              <LongitudeDegrees>-0.56596429087221622467041015625</LongitudeDegrees>
            </Position>
            <AltitudeMeters>140.399993896484375</AltitudeMeters>
            <DistanceMeters>15739.830877061</DistanceMeters>
          </Trackpoint>
          <Trackpoint>
            <Time>2021-10-09T07:24:48.000Z</Time>
            <Position>
              <LatitudeDegrees>39.50024784542620182037353515625</LatitudeDegrees>
              <LongitudeDegrees>-0.56594065390527248382568359375</LongitudeDegrees>
            </Position>
            <AltitudeMeters>140.600006103515625</AltitudeMeters>
            <DistanceMeters>15745.820576027</DistanceMeters>
          </Trackpoint>
          <Trackpoint>
            <Time>2021-10-09T07:24:49.000Z</Time>
            <Position>
              <LatitudeDegrees>39.5002975501120090484619140625</LatitudeDegrees>
              <LongitudeDegrees>-0.5659164302051067352294921875</LongitudeDegrees>
            </Position>
            <AltitudeMeters>140.8000030517578125</AltitudeMeters>
            <DistanceMeters>15751.730595967</DistanceMeters>
          </Trackpoint>
          <Trackpoint>
            <Time>2021-10-09T07:24:50.000Z</Time>
            <Position>
              <LatitudeDegrees>39.50034658424556255340576171875</LatitudeDegrees>
              <LongitudeDegrees>-0.56589312851428985595703125</LongitudeDegrees>
            </Position>
            <AltitudeMeters>140.600006103515625</AltitudeMeters>
            <DistanceMeters>15757.544336254</DistanceMeters>
          </Trackpoint>
          <Trackpoint>
            <Time>2021-10-09T07:24:51.000Z</Time>
            <Position>
              <LatitudeDegrees>39.5003964565694332122802734375</LatitudeDegrees>
              <LongitudeDegrees>-0.5658710002899169921875</LongitudeDegrees>
            </Position>
            <AltitudeMeters>140.399993896484375</AltitudeMeters>
            <DistanceMeters>15763.411418272</DistanceMeters>
          </Trackpoint>
          <Trackpoint>
            <Time>2021-10-09T07:24:52.000Z</Time>
            <Position>
              <LatitudeDegrees>39.50044549070298671722412109375</LatitudeDegrees>
              <LongitudeDegrees>-0.5658483691513538360595703125</LongitudeDegrees>
            </Position>
            <AltitudeMeters>140.600006103515625</AltitudeMeters>
            <DistanceMeters>15769.204931381</DistanceMeters>
          </Trackpoint>
          <Trackpoint>
            <Time>2021-10-09T07:24:53.000Z</Time>
            <Position>
              <LatitudeDegrees>39.50049209408462047576904296875</LatitudeDegrees>
              <LongitudeDegrees>-0.565825402736663818359375</LongitudeDegrees>
            </Position>
            <AltitudeMeters>140.600006103515625</AltitudeMeters>
            <DistanceMeters>15774.754035874</DistanceMeters>
          </Trackpoint>
          <Trackpoint>
            <Time>2021-10-09T07:24:54.000Z</Time>
            <Position>
              <LatitudeDegrees>39.50053987093269824981689453125</LatitudeDegrees>
              <LongitudeDegrees>-0.56580184958875179290771484375</LongitudeDegrees>
            </Position>
            <AltitudeMeters>140.600006103515625</AltitudeMeters>
            <DistanceMeters>15780.442954398</DistanceMeters>
          </Trackpoint>
          <Trackpoint>
            <Time>2021-10-09T07:24:55.000Z</Time>
            <Position>
              <LatitudeDegrees>39.500588737428188323974609375</LatitudeDegrees>
              <LongitudeDegrees>-0.56577787734568119049072265625</LongitudeDegrees>
            </Position>
            <AltitudeMeters>140.600006103515625</AltitudeMeters>
            <DistanceMeters>15786.258247708</DistanceMeters>
          </Trackpoint>
          <Trackpoint>
            <Time>2021-10-09T07:24:56.000Z</Time>
            <Position>
              <LatitudeDegrees>39.5006371848285198211669921875</LatitudeDegrees>
              <LongitudeDegrees>-0.56575507856905460357666015625</LongitudeDegrees>
            </Position>
            <AltitudeMeters>140.600006103515625</AltitudeMeters>
            <DistanceMeters>15791.99537492</DistanceMeters>
          </Trackpoint>
          <Trackpoint>
            <Time>2021-10-09T07:24:57.000Z</Time>
            <Position>
              <LatitudeDegrees>39.50068387202918529510498046875</LatitudeDegrees>
              <LongitudeDegrees>-0.5657306872308254241943359375</LongitudeDegrees>
            </Position>
            <AltitudeMeters>140.600006103515625</AltitudeMeters>
            <DistanceMeters>15797.597117117</DistanceMeters>
          </Trackpoint>
          <Trackpoint>
            <Time>2021-10-09T07:24:58.000Z</Time>
            <Position>
              <LatitudeDegrees>39.5007307268679141998291015625</LatitudeDegrees>
              <LongitudeDegrees>-0.5657085590064525604248046875</LongitudeDegrees>
            </Position>
            <AltitudeMeters>140.600006103515625</AltitudeMeters>
            <DistanceMeters>15803.147848674</DistanceMeters>
          </Trackpoint>
          <Trackpoint>
            <Time>2021-10-09T07:24:59.000Z</Time>
            <Position>
              <LatitudeDegrees>39.500778503715991973876953125</LatitudeDegrees>
              <LongitudeDegrees>-0.56568467058241367340087890625</LongitudeDegrees>
            </Position>
            <AltitudeMeters>140.600006103515625</AltitudeMeters>
            <DistanceMeters>15808.847867538</DistanceMeters>
          </Trackpoint>
          <Trackpoint>
            <Time>2021-10-09T07:25:00.000Z</Time>
            <Position>
              <LatitudeDegrees>39.5008237659931182861328125</LatitudeDegrees>
              <LongitudeDegrees>-0.565662123262882232666015625</LongitudeDegrees>
            </Position>
            <AltitudeMeters>140.600006103515625</AltitudeMeters>
            <DistanceMeters>15814.24518415</DistanceMeters>
          </Trackpoint>
          <Trackpoint>
            <Time>2021-10-09T07:25:01.000Z</Time>
            <Position>
              <LatitudeDegrees>39.50086760334670543670654296875</LatitudeDegrees>
              <LongitudeDegrees>-0.56563940830528736114501953125</LongitudeDegrees>
            </Position>
            <AltitudeMeters>140.600006103515625</AltitudeMeters>
            <DistanceMeters>15819.500084127</DistanceMeters>
          </Trackpoint>
          <Trackpoint>
            <Time>2021-10-09T07:25:02.000Z</Time>
            <Position>
              <LatitudeDegrees>39.50091085396707057952880859375</LatitudeDegrees>
              <LongitudeDegrees>-0.565617196261882781982421875</LongitudeDegrees>
            </Position>
            <AltitudeMeters>140.8000030517578125</AltitudeMeters>
            <DistanceMeters>15824.677950189</DistanceMeters>
          </Trackpoint>
          <Trackpoint>
            <Time>2021-10-09T07:25:03.000Z</Time>
            <Position>
              <LatitudeDegrees>39.50095494277775287628173828125</LatitudeDegrees>
              <LongitudeDegrees>-0.565598420798778533935546875</LongitudeDegrees>
            </Position>
            <AltitudeMeters>141</AltitudeMeters>
            <DistanceMeters>15829.843593991</DistanceMeters>
          </Trackpoint>
          <Trackpoint>
            <Time>2021-10-09T07:25:04.000Z</Time>
            <Position>
              <LatitudeDegrees>39.500999115407466888427734375</LatitudeDegrees>
              <LongitudeDegrees>-0.5655747838318347930908203125</LongitudeDegrees>
            </Position>
            <AltitudeMeters>140.8000030517578125</AltitudeMeters>
            <DistanceMeters>15835.161695102</DistanceMeters>
          </Trackpoint>
          <Trackpoint>
            <Time>2021-10-09T07:25:05.000Z</Time>
            <Position>
              <LatitudeDegrees>39.50104278512299060821533203125</LatitudeDegrees>
              <LongitudeDegrees>-0.5655519850552082061767578125</LongitudeDegrees>
            </Position>
            <AltitudeMeters>141</AltitudeMeters>
            <DistanceMeters>15840.402829764</DistanceMeters>
          </Trackpoint>
          <Trackpoint>
            <Time>2021-10-09T07:25:06.000Z</Time>
            <Position>
              <LatitudeDegrees>39.50108519755303859710693359375</LatitudeDegrees>
              <LongitudeDegrees>-0.56553329341113567352294921875</LongitudeDegrees>
            </Position>
            <AltitudeMeters>141.600006103515625</AltitudeMeters>
            <DistanceMeters>15845.387884465</DistanceMeters>
          </Trackpoint>
          <Trackpoint>
            <Time>2021-10-09T07:25:07.000Z</Time>
            <Position>
              <LatitudeDegrees>39.50112727470695972442626953125</LatitudeDegrees>
              <LongitudeDegrees>-0.565514601767063140869140625</LongitudeDegrees>
            </Position>
            <AltitudeMeters>142.399993896484375</AltitudeMeters>
            <DistanceMeters>15850.338402364</DistanceMeters>
          </Trackpoint>
          <Trackpoint>
            <Time>2021-10-09T07:25:08.000Z</Time>
            <Position>
              <LatitudeDegrees>39.5011689327657222747802734375</LatitudeDegrees>
              <LongitudeDegrees>-0.56549440138041973114013671875</LongitudeDegrees>
            </Position>
            <AltitudeMeters>142.8000030517578125</AltitudeMeters>
            <DistanceMeters>15855.288920263</DistanceMeters>
          </Trackpoint>
          <Trackpoint>
            <Time>2021-10-09T07:25:09.000Z</Time>
            <Position>
              <LatitudeDegrees>39.50121092610061168670654296875</LatitudeDegrees>
              <LongitudeDegrees>-0.56547411717474460601806640625</LongitudeDegrees>
            </Position>
            <AltitudeMeters>142.8000030517578125</AltitudeMeters>
            <DistanceMeters>15860.277596508</DistanceMeters>
          </Trackpoint>
          <Trackpoint>
            <Time>2021-10-09T07:25:10.000Z</Time>
            <Position>
              <LatitudeDegrees>39.5012554340064525604248046875</LatitudeDegrees>
              <LongitudeDegrees>-0.56545165367424488067626953125</LongitudeDegrees>
            </Position>
            <AltitudeMeters>143</AltitudeMeters>
            <DistanceMeters>15865.593999359</DistanceMeters>
          </Trackpoint>
          <Trackpoint>
            <Time>2021-10-09T07:25:11.000Z</Time>
            <Position>
              <LatitudeDegrees>39.5013011991977691650390625</LatitudeDegrees>
              <LongitudeDegrees>-0.56542851962149143218994140625</LongitudeDegrees>
            </Position>
            <AltitudeMeters>143</AltitudeMeters>
            <DistanceMeters>15871.061959043</DistanceMeters>
          </Trackpoint>
          <Trackpoint>
            <Time>2021-10-09T07:25:12.000Z</Time>
            <Position>
              <LatitudeDegrees>39.50134671293199062347412109375</LatitudeDegrees>
              <LongitudeDegrees>-0.56540253572165966033935546875</LongitudeDegrees>
            </Position>
            <AltitudeMeters>143</AltitudeMeters>
            <DistanceMeters>15876.598029802</DistanceMeters>
          </Trackpoint>
          <Trackpoint>
            <Time>2021-10-09T07:25:13.000Z</Time>
            <Position>
              <LatitudeDegrees>39.501391388475894927978515625</LatitudeDegrees>
              <LongitudeDegrees>-0.5653776414692401885986328125</LongitudeDegrees>
            </Position>
            <AltitudeMeters>143</AltitudeMeters>
            <DistanceMeters>15882.011217224</DistanceMeters>
          </Trackpoint>
          <Trackpoint>
            <Time>2021-10-09T07:25:14.000Z</Time>
            <Position>
              <LatitudeDegrees>39.50143790803849697113037109375</LatitudeDegrees>
              <LongitudeDegrees>-0.56535475887358188629150390625</LongitudeDegrees>
            </Position>
            <AltitudeMeters>143.1999969482421875</AltitudeMeters>
            <DistanceMeters>15887.548918877</DistanceMeters>
          </Trackpoint>
          <Trackpoint>
            <Time>2021-10-09T07:25:15.000Z</Time>
            <Position>
              <LatitudeDegrees>39.50148216448724269866943359375</LatitudeDegrees>
              <LongitudeDegrees>-0.56533179245889186859130859375</LongitudeDegrees>
            </Position>
            <AltitudeMeters>143.1999969482421875</AltitudeMeters>
            <DistanceMeters>15892.855120753</DistanceMeters>
          </Trackpoint>
          <Trackpoint>
            <Time>2021-10-09T07:25:16.000Z</Time>
            <Position>
              <LatitudeDegrees>39.50152524746954441070556640625</LatitudeDegrees>
              <LongitudeDegrees>-0.56530765257775783538818359375</LongitudeDegrees>
            </Position>
            <AltitudeMeters>143.399993896484375</AltitudeMeters>
            <DistanceMeters>15898.078997763</DistanceMeters>
          </Trackpoint>
          <Trackpoint>
            <Time>2021-10-09T07:25:17.000Z</Time>
            <Position>
              <LatitudeDegrees>39.5015695877373218536376953125</LatitudeDegrees>
              <LongitudeDegrees>-0.5652849376201629638671875</LongitudeDegrees>
            </Position>
            <AltitudeMeters>143.600006103515625</AltitudeMeters>
            <DistanceMeters>15903.38519964</DistanceMeters>
          </Trackpoint>
          <Trackpoint>
            <Time>2021-10-09T07:25:18.000Z</Time>
            <Position>
              <LatitudeDegrees>39.50161476619541645050048828125</LatitudeDegrees>
              <LongitudeDegrees>-0.565264485776424407958984375</LongitudeDegrees>
            </Position>
            <AltitudeMeters>143.600006103515625</AltitudeMeters>
            <DistanceMeters>15908.711783928</DistanceMeters>
          </Trackpoint>
          <Trackpoint>
            <Time>2021-10-09T07:25:19.000Z</Time>
            <Position>
              <LatitudeDegrees>39.50165969319641590118408203125</LatitudeDegrees>
              <LongitudeDegrees>-0.56524512358009815216064453125</LongitudeDegrees>
            </Position>
            <AltitudeMeters>143.8000030517578125</AltitudeMeters>
            <DistanceMeters>15913.981270153</DistanceMeters>
          </Trackpoint>
          <Trackpoint>
            <Time>2021-10-09T07:25:20.000Z</Time>
            <Position>
              <LatitudeDegrees>39.50170285999774932861328125</LatitudeDegrees>
              <LongitudeDegrees>-0.565225593745708465576171875</LongitudeDegrees>
            </Position>
            <AltitudeMeters>144</AltitudeMeters>
            <DistanceMeters>15919.070303385</DistanceMeters>
          </Trackpoint>
          <Trackpoint>
            <Time>2021-10-09T07:25:21.000Z</Time>
            <Position>
              <LatitudeDegrees>39.5017462782561779022216796875</LatitudeDegrees>
              <LongitudeDegrees>-0.56520556099712848663330078125</LongitudeDegrees>
            </Position>
            <AltitudeMeters>144.399993896484375</AltitudeMeters>
            <DistanceMeters>15924.199985905</DistanceMeters>
          </Trackpoint>
          <Trackpoint>
            <Time>2021-10-09T07:25:22.000Z</Time>
            <Position>
              <LatitudeDegrees>39.50179162435233592987060546875</LatitudeDegrees>
              <LongitudeDegrees>-0.5651865340769290924072265625</LongitudeDegrees>
            </Position>
            <AltitudeMeters>144.8000030517578125</AltitudeMeters>
            <DistanceMeters>15929.506187781</DistanceMeters>
          </Trackpoint>
          <Trackpoint>
            <Time>2021-10-09T07:25:23.000Z</Time>
            <Position>
              <LatitudeDegrees>39.50183537788689136505126953125</LatitudeDegrees>
              <LongitudeDegrees>-0.56516968645155429840087890625</LongitudeDegrees>
            </Position>
            <AltitudeMeters>145</AltitudeMeters>
            <DistanceMeters>15934.586341173</DistanceMeters>
          </Trackpoint>
          <Trackpoint>
            <Time>2021-10-09T07:25:24.000Z</Time>
            <Position>
              <LatitudeDegrees>39.50187988579273223876953125</LatitudeDegrees>
              <LongitudeDegrees>-0.5651530064642429351806640625</LongitudeDegrees>
            </Position>
            <AltitudeMeters>145.399993896484375</AltitudeMeters>
            <DistanceMeters>15939.742361445</DistanceMeters>
          </Trackpoint>
          <Trackpoint>
            <Time>2021-10-09T07:25:25.000Z</Time>
            <Position>
              <LatitudeDegrees>39.50192539952695369720458984375</LatitudeDegrees>
              <LongitudeDegrees>-0.5651365779340267181396484375</LongitudeDegrees>
            </Position>
            <AltitudeMeters>145.600006103515625</AltitudeMeters>
            <DistanceMeters>15945.00069712</DistanceMeters>
          </Trackpoint>
          <Trackpoint>
            <Time>2021-10-09T07:25:26.000Z</Time>
            <Position>
              <LatitudeDegrees>39.501973427832126617431640625</LatitudeDegrees>
              <LongitudeDegrees>-0.565120987594127655029296875</LongitudeDegrees>
            </Position>
            <AltitudeMeters>146.1999969482421875</AltitudeMeters>
            <DistanceMeters>15950.510607918</DistanceMeters>
          </Trackpoint>
          <Trackpoint>
            <Time>2021-10-09T07:25:27.000Z</Time>
            <Position>
              <LatitudeDegrees>39.502022378146648406982421875</LatitudeDegrees>
              <LongitudeDegrees>-0.56510749273002147674560546875</LongitudeDegrees>
            </Position>
            <AltitudeMeters>146.399993896484375</AltitudeMeters>
            <DistanceMeters>15956.080827183</DistanceMeters>
          </Trackpoint>
          <Trackpoint>
            <Time>2021-10-09T07:25:28.000Z</Time>
            <Position>
              <LatitudeDegrees>39.5020709931850433349609375</LatitudeDegrees>
              <LongitudeDegrees>-0.56509475223720073699951171875</LongitudeDegrees>
            </Position>
            <AltitudeMeters>146.600006103515625</AltitudeMeters>
            <DistanceMeters>15961.602198216</DistanceMeters>
          </Trackpoint>
          <Trackpoint>
            <Time>2021-10-09T07:25:29.000Z</Time>
            <Position>
              <LatitudeDegrees>39.50211818329989910125732421875</LatitudeDegrees>
              <LongitudeDegrees>-0.56508435867726802825927734375</LongitudeDegrees>
            </Position>
            <AltitudeMeters>146.8000030517578125</AltitudeMeters>
            <DistanceMeters>15966.929630079</DistanceMeters>
          </Trackpoint>
          <Trackpoint>
            <Time>2021-10-09T07:25:30.000Z</Time>
            <Position>
              <LatitudeDegrees>39.50216545723378658294677734375</LatitudeDegrees>
              <LongitudeDegrees>-0.5650745518505573272705078125</LongitudeDegrees>
            </Position>
            <AltitudeMeters>146.8000030517578125</AltitudeMeters>
            <DistanceMeters>15972.258756689</DistanceMeters>
          </Trackpoint>
          <Trackpoint>
            <Time>2021-10-09T07:25:31.000Z</Time>
            <Position>
              <LatitudeDegrees>39.502214156091213226318359375</LatitudeDegrees>
              <LongitudeDegrees>-0.5650644935667514801025390625</LongitudeDegrees>
            </Position>
            <AltitudeMeters>147</AltitudeMeters>
            <DistanceMeters>15977.74732071</DistanceMeters>
          </Trackpoint>
          <Trackpoint>
            <Time>2021-10-09T07:25:32.000Z</Time>
            <Position>
              <LatitudeDegrees>39.5022642798721790313720703125</LatitudeDegrees>
              <LongitudeDegrees>-0.565056614577770233154296875</LongitudeDegrees>
            </Position>
            <AltitudeMeters>147.1999969482421875</AltitudeMeters>
            <DistanceMeters>15983.367570473</DistanceMeters>
          </Trackpoint>
          <Trackpoint>
            <Time>2021-10-09T07:25:33.000Z</Time>
            <Position>
              <LatitudeDegrees>39.5023169182240962982177734375</LatitudeDegrees>
              <LongitudeDegrees>-0.56504898704588413238525390625</LongitudeDegrees>
            </Position>
            <AltitudeMeters>147.399993896484375</AltitudeMeters>
            <DistanceMeters>15989.263823038</DistanceMeters>
          </Trackpoint>
          <Trackpoint>
            <Time>2021-10-09T07:25:34.000Z</Time>
            <Position>
              <LatitudeDegrees>39.502369053661823272705078125</LatitudeDegrees>
              <LongitudeDegrees>-0.5650443769991397857666015625</LongitudeDegrees>
            </Position>
            <AltitudeMeters>147.399993896484375</AltitudeMeters>
            <DistanceMeters>15995.079892704</DistanceMeters>
          </Trackpoint>
          <Trackpoint>
            <Time>2021-10-09T07:25:35.000Z</Time>
            <Position>
              <LatitudeDegrees>39.50241993181407451629638671875</LatitudeDegrees>
              <LongitudeDegrees>-0.56504177860915660858154296875</LongitudeDegrees>
            </Position>
            <AltitudeMeters>147.600006103515625</AltitudeMeters>
            <DistanceMeters>16000.746545317</DistanceMeters>
          </Trackpoint>
          <Trackpoint>
            <Time>2021-10-09T07:25:36.000Z</Time>
            <Position>
              <LatitudeDegrees>39.502468295395374298095703125</LatitudeDegrees>
              <LongitudeDegrees>-0.5650408565998077392578125</LongitudeDegrees>
            </Position>
            <AltitudeMeters>147.8000030517578125</AltitudeMeters>
            <DistanceMeters>16006.130460749</DistanceMeters>
          </Trackpoint>
          <Trackpoint>
            <Time>2021-10-09T07:25:37.000Z</Time>
            <Position>
              <LatitudeDegrees>39.50251825153827667236328125</LatitudeDegrees>
              <LongitudeDegrees>-0.56503959931433200836181640625</LongitudeDegrees>
            </Position>
            <AltitudeMeters>148</AltitudeMeters>
            <DistanceMeters>16011.692568434</DistanceMeters>
          </Trackpoint>
          <Trackpoint>
            <Time>2021-10-09T07:25:38.000Z</Time>
            <Position>
              <LatitudeDegrees>39.50256921350955963134765625</LatitudeDegrees>
              <LongitudeDegrees>-0.56503691710531711578369140625</LongitudeDegrees>
            </Position>
            <AltitudeMeters>148.1999969482421875</AltitudeMeters>
            <DistanceMeters>16017.370364917</DistanceMeters>
          </Trackpoint>
          <Trackpoint>
            <Time>2021-10-09T07:25:39.000Z</Time>
            <Position>
              <LatitudeDegrees>39.5026216842234134674072265625</LatitudeDegrees>
              <LongitudeDegrees>-0.56503725238144397735595703125</LongitudeDegrees>
            </Position>
            <AltitudeMeters>148.1999969482421875</AltitudeMeters>
            <DistanceMeters>16023.210450424</DistanceMeters>
          </Trackpoint>
          <Trackpoint>
            <Time>2021-10-09T07:25:40.000Z</Time>
            <Position>
              <LatitudeDegrees>39.50267474167048931121826171875</LatitudeDegrees>
              <LongitudeDegrees>-0.56503750383853912353515625</LongitudeDegrees>
            </Position>
            <AltitudeMeters>148.399993896484375</AltitudeMeters>
            <DistanceMeters>16029.115884805</DistanceMeters>
          </Trackpoint>
          <Trackpoint>
            <Time>2021-10-09T07:25:41.000Z</Time>
            <Position>
              <LatitudeDegrees>39.50272838585078716278076171875</LatitudeDegrees>
              <LongitudeDegrees>-0.56503909640014171600341796875</LongitudeDegrees>
            </Position>
            <AltitudeMeters>148.399993896484375</AltitudeMeters>
            <DistanceMeters>16035.088221195</DistanceMeters>
          </Trackpoint>
          <Trackpoint>
            <Time>2021-10-09T07:25:42.000Z</Time>
            <Position>
              <LatitudeDegrees>39.5027826167643070220947265625</LatitudeDegrees>
              <LongitudeDegrees>-0.5650408565998077392578125</LongitudeDegrees>
            </Position>
            <AltitudeMeters>148.600006103515625</AltitudeMeters>
            <DistanceMeters>16041.125222813</DistanceMeters>
          </Trackpoint>
          <Trackpoint>
            <Time>2021-10-09T07:25:43.000Z</Time>
            <Position>
              <LatitudeDegrees>39.50283609330654144287109375</LatitudeDegrees>
              <LongitudeDegrees>-0.56504278443753719329833984375</LongitudeDegrees>
            </Position>
            <AltitudeMeters>148.600006103515625</AltitudeMeters>
            <DistanceMeters>16047.079387751</DistanceMeters>
          </Trackpoint>
          <Trackpoint>
            <Time>2021-10-09T07:25:44.000Z</Time>
            <Position>
              <LatitudeDegrees>39.50289065949618816375732421875</LatitudeDegrees>
              <LongitudeDegrees>-0.56504412554204463958740234375</LongitudeDegrees>
            </Position>
            <AltitudeMeters>148.8000030517578125</AltitudeMeters>
            <DistanceMeters>16053.153668972</DistanceMeters>
          </Trackpoint>
          <Trackpoint>
            <Time>2021-10-09T07:25:45.000Z</Time>
            <Position>
              <LatitudeDegrees>39.502948410809040069580078125</LatitudeDegrees>
              <LongitudeDegrees>-0.56504546664655208587646484375</LongitudeDegrees>
            </Position>
            <AltitudeMeters>148.8000030517578125</AltitudeMeters>
            <DistanceMeters>16059.581859216</DistanceMeters>
          </Trackpoint>
          <Trackpoint>
            <Time>2021-10-09T07:25:46.000Z</Time>
            <Position>
              <LatitudeDegrees>39.50300632975995540618896484375</LatitudeDegrees>
              <LongitudeDegrees>-0.56504747830331325531005859375</LongitudeDegrees>
            </Position>
            <AltitudeMeters>148.8000030517578125</AltitudeMeters>
            <DistanceMeters>16066.031086464</DistanceMeters>
          </Trackpoint>
          <Trackpoint>
            <Time>2021-10-09T07:25:47.000Z</Time>
            <Position>
              <LatitudeDegrees>39.50306332670152187347412109375</LatitudeDegrees>
              <LongitudeDegrees>-0.565049909055233001708984375</LongitudeDegrees>
            </Position>
            <AltitudeMeters>149</AltitudeMeters>
            <DistanceMeters>16072.378700275</DistanceMeters>
          </Trackpoint>
          <Trackpoint>
            <Time>2021-10-09T07:25:48.000Z</Time>
            <Position>
              <LatitudeDegrees>39.50311915017664432525634765625</LatitudeDegrees>
              <LongitudeDegrees>-0.565052591264247894287109375</LongitudeDegrees>
            </Position>
            <AltitudeMeters>149</AltitudeMeters>
            <DistanceMeters>16078.59696268</DistanceMeters>
          </Trackpoint>
          <Trackpoint>
            <Time>2021-10-09T07:25:49.000Z</Time>
            <Position>
              <LatitudeDegrees>39.503173716366291046142578125</LatitudeDegrees>
              <LongitudeDegrees>-0.565053261816501617431640625</LongitudeDegrees>
            </Position>
            <AltitudeMeters>149</AltitudeMeters>
            <DistanceMeters>16084.671243901</DistanceMeters>
          </Trackpoint>
          <Trackpoint>
            <Time>2021-10-09T07:25:50.000Z</Time>
            <Position>
              <LatitudeDegrees>39.5032295398414134979248046875</LatitudeDegrees>
              <LongitudeDegrees>-0.56505418382585048675537109375</LongitudeDegrees>
            </Position>
            <AltitudeMeters>149.1999969482421875</AltitudeMeters>
            <DistanceMeters>16090.885148219</DistanceMeters>
          </Trackpoint>
          <Trackpoint>
            <Time>2021-10-09T07:25:51.000Z</Time>
            <Position>
              <LatitudeDegrees>39.503285028040409088134765625</LatitudeDegrees>
              <LongitudeDegrees>-0.56505418382585048675537109375</LongitudeDegrees>
            </Position>
            <AltitudeMeters>149.1999969482421875</AltitudeMeters>
            <DistanceMeters>16097.059691339</DistanceMeters>
          </Trackpoint>
          <Trackpoint>
            <Time>2021-10-09T07:25:52.000Z</Time>
            <Position>
              <LatitudeDegrees>39.5033405162394046783447265625</LatitudeDegrees>
              <LongitudeDegrees>-0.565053261816501617431640625</LongitudeDegrees>
            </Position>
            <AltitudeMeters>149.1999969482421875</AltitudeMeters>
            <DistanceMeters>16103.235696755</DistanceMeters>
          </Trackpoint>
          <Trackpoint>
            <Time>2021-10-09T07:25:53.000Z</Time>
            <Position>
              <LatitudeDegrees>39.50339692644774913787841796875</LatitudeDegrees>
              <LongitudeDegrees>-0.56505418382585048675537109375</LongitudeDegrees>
            </Position>
            <AltitudeMeters>149.399993896484375</AltitudeMeters>
            <DistanceMeters>16109.51465477</DistanceMeters>
          </Trackpoint>
          <Trackpoint>
            <Time>2021-10-09T07:25:54.000Z</Time>
            <Position>
              <LatitudeDegrees>39.50345258228480815887451171875</LatitudeDegrees>
              <LongitudeDegrees>-0.56505301035940647125244140625</LongitudeDegrees>
            </Position>
            <AltitudeMeters>149.399993896484375</AltitudeMeters>
            <DistanceMeters>16115.709638619</DistanceMeters>
          </Trackpoint>
          <Trackpoint>
            <Time>2021-10-09T07:25:55.000Z</Time>
            <Position>
              <LatitudeDegrees>39.50350773520767688751220703125</LatitudeDegrees>
              <LongitudeDegrees>-0.5650534294545650482177734375</LongitudeDegrees>
            </Position>
            <AltitudeMeters>149.399993896484375</AltitudeMeters>
            <DistanceMeters>16121.848982157</DistanceMeters>
          </Trackpoint>
          <Trackpoint>
            <Time>2021-10-09T07:25:56.000Z</Time>
            <Position>
              <LatitudeDegrees>39.50356355868279933929443359375</LatitudeDegrees>
              <LongitudeDegrees>-0.5650530941784381866455078125</LongitudeDegrees>
            </Position>
            <AltitudeMeters>149.600006103515625</AltitudeMeters>
            <DistanceMeters>16128.062886475</DistanceMeters>
          </Trackpoint>
          <Trackpoint>
            <Time>2021-10-09T07:25:57.000Z</Time>
            <Position>
              <LatitudeDegrees>39.5036194659769535064697265625</LatitudeDegrees>
              <LongitudeDegrees>-0.56505250744521617889404296875</LongitudeDegrees>
            </Position>
            <AltitudeMeters>149.600006103515625</AltitudeMeters>
            <DistanceMeters>16134.285503914</DistanceMeters>
          </Trackpoint>
          <Trackpoint>
            <Time>2021-10-09T07:25:58.000Z</Time>
            <Position>
              <LatitudeDegrees>39.50367562472820281982421875</LatitudeDegrees>
              <LongitudeDegrees>-0.56505368091166019439697265625</LongitudeDegrees>
            </Position>
            <AltitudeMeters>149.600006103515625</AltitudeMeters>
            <DistanceMeters>16140.537077384</DistanceMeters>
          </Trackpoint>
          <Trackpoint>
            <Time>2021-10-09T07:25:59.000Z</Time>
            <Position>
              <LatitudeDegrees>39.50373287312686443328857421875</LatitudeDegrees>
              <LongitudeDegrees>-0.56505384854972362518310546875</LongitudeDegrees>
            </Position>
            <AltitudeMeters>149.8000030517578125</AltitudeMeters>
            <DistanceMeters>16146.908829395</DistanceMeters>
          </Trackpoint>
          <Trackpoint>
            <Time>2021-10-09T07:26:00.000Z</Time>
            <Position>
              <LatitudeDegrees>39.50379154644906520843505859375</LatitudeDegrees>
              <LongitudeDegrees>-0.56505468674004077911376953125</LongitudeDegrees>
            </Position>
            <AltitudeMeters>149.8000030517578125</AltitudeMeters>
            <DistanceMeters>16153.440144815</DistanceMeters>
          </Trackpoint>
          <Trackpoint>
            <Time>2021-10-09T07:26:01.000Z</Time>
            <Position>
              <LatitudeDegrees>39.5038504712283611297607421875</LatitudeDegrees>
              <LongitudeDegrees>-0.5650556087493896484375</LongitudeDegrees>
            </Position>
            <AltitudeMeters>150</AltitudeMeters>
            <DistanceMeters>16159.99905358</DistanceMeters>
          </Trackpoint>
          <Trackpoint>
            <Time>2021-10-09T07:26:02.000Z</Time>
            <Position>
              <LatitudeDegrees>39.50390973128378391265869140625</LatitudeDegrees>
              <LongitudeDegrees>-0.56505586020648479461669921875</LongitudeDegrees>
            </Position>
            <AltitudeMeters>150</AltitudeMeters>
            <DistanceMeters>16166.595030256</DistanceMeters>
          </Trackpoint>
          <Trackpoint>
            <Time>2021-10-09T07:26:03.000Z</Time>
            <Position>
              <LatitudeDegrees>39.50396857224404811859130859375</LatitudeDegrees>
              <LongitudeDegrees>-0.56505502201616764068603515625</LongitudeDegrees>
            </Position>
            <AltitudeMeters>150.1999969482421875</AltitudeMeters>
            <DistanceMeters>16173.144294574</DistanceMeters>
          </Trackpoint>
          <Trackpoint>
            <Time>2021-10-09T07:26:04.000Z</Time>
            <Position>
              <LatitudeDegrees>39.50402925722301006317138671875</LatitudeDegrees>
              <LongitudeDegrees>-0.56505535729229450225830078125</LongitudeDegrees>
            </Position>
            <AltitudeMeters>150.1999969482421875</AltitudeMeters>
            <DistanceMeters>16179.898548507</DistanceMeters>
          </Trackpoint>
          <Trackpoint>
            <Time>2021-10-09T07:26:05.000Z</Time>
            <Position>
              <LatitudeDegrees>39.50408927164971828460693359375</LatitudeDegrees>
              <LongitudeDegrees>-0.56505569256842136383056640625</LongitudeDegrees>
            </Position>
            <AltitudeMeters>150.1999969482421875</AltitudeMeters>
            <DistanceMeters>16186.578865699</DistanceMeters>
          </Trackpoint>
          <Trackpoint>
            <Time>2021-10-09T07:26:06.000Z</Time>
            <Position>
              <LatitudeDegrees>39.5041512139141559600830078125</LatitudeDegrees>
              <LongitudeDegrees>-0.5650561116635799407958984375</LongitudeDegrees>
            </Position>
            <AltitudeMeters>150.1999969482421875</AltitudeMeters>
            <DistanceMeters>16193.472724729</DistanceMeters>
          </Trackpoint>
          <Trackpoint>
            <Time>2021-10-09T07:26:07.000Z</Time>
            <Position>
              <LatitudeDegrees>39.50421332381665706634521484375</LatitudeDegrees>
              <LongitudeDegrees>-0.5650547705590724945068359375</LongitudeDegrees>
            </Position>
            <AltitudeMeters>150.1999969482421875</AltitudeMeters>
            <DistanceMeters>16200.386203927</DistanceMeters>
          </Trackpoint>
          <Trackpoint>
            <Time>2021-10-09T07:26:08.000Z</Time>
            <Position>
              <LatitudeDegrees>39.50427635572850704193115234375</LatitudeDegrees>
              <LongitudeDegrees>-0.56505359709262847900390625</LongitudeDegrees>
            </Position>
            <AltitudeMeters>150.1999969482421875</AltitudeMeters>
            <DistanceMeters>16207.402754131</DistanceMeters>
          </Trackpoint>
          <Trackpoint>
            <Time>2021-10-09T07:26:09.000Z</Time>
            <Position>
              <LatitudeDegrees>39.5043401420116424560546875</LatitudeDegrees>
              <LongitudeDegrees>-0.5650534294545650482177734375</LongitudeDegrees>
            </Position>
            <AltitudeMeters>150.1999969482421875</AltitudeMeters>
            <DistanceMeters>16214.502464457</DistanceMeters>
          </Trackpoint>
          <Trackpoint>
            <Time>2021-10-09T07:26:10.000Z</Time>
            <Position>
              <LatitudeDegrees>39.50440493412315845489501953125</LatitudeDegrees>
              <LongitudeDegrees>-0.56505435146391391754150390625</LongitudeDegrees>
            </Position>
            <AltitudeMeters>150.1999969482421875</AltitudeMeters>
            <DistanceMeters>16221.715111017</DistanceMeters>
          </Trackpoint>
          <Trackpoint>
            <Time>2021-10-09T07:26:11.000Z</Time>
            <Position>
              <LatitudeDegrees>39.5044703967869281768798828125</LatitudeDegrees>
              <LongitudeDegrees>-0.56505686603486537933349609375</LongitudeDegrees>
            </Position>
            <AltitudeMeters>150</AltitudeMeters>
            <DistanceMeters>16229.004347588</DistanceMeters>
          </Trackpoint>
          <Trackpoint>
            <Time>2021-10-09T07:26:12.000Z</Time>
            <Position>
              <LatitudeDegrees>39.5045374520123004913330078125</LatitudeDegrees>
              <LongitudeDegrees>-0.5650601349771022796630859375</LongitudeDegrees>
            </Position>
            <AltitudeMeters>150</AltitudeMeters>
            <DistanceMeters>16236.473471517</DistanceMeters>
          </Trackpoint>
          <Trackpoint>
            <Time>2021-10-09T07:26:13.000Z</Time>
            <Position>
              <LatitudeDegrees>39.50460425578057765960693359375</LatitudeDegrees>
              <LongitudeDegrees>-0.56506155990064144134521484375</LongitudeDegrees>
            </Position>
            <AltitudeMeters>150</AltitudeMeters>
            <DistanceMeters>16243.909881145</DistanceMeters>
          </Trackpoint>
          <Trackpoint>
            <Time>2021-10-09T07:26:14.000Z</Time>
            <Position>
              <LatitudeDegrees>39.50467164628207683563232421875</LatitudeDegrees>
              <LongitudeDegrees>-0.56506357155740261077880859375</LongitudeDegrees>
            </Position>
            <AltitudeMeters>150</AltitudeMeters>
            <DistanceMeters>16251.412780354</DistanceMeters>
          </Trackpoint>
          <Trackpoint>
            <Time>2021-10-09T07:26:15.000Z</Time>
            <Position>
              <LatitudeDegrees>39.50473937205970287322998046875</LatitudeDegrees>
              <LongitudeDegrees>-0.56506591849029064178466796875</LongitudeDegrees>
            </Position>
            <AltitudeMeters>150</AltitudeMeters>
            <DistanceMeters>16258.953495928</DistanceMeters>
          </Trackpoint>
          <Trackpoint>
            <Time>2021-10-09T07:26:16.000Z</Time>
            <Position>
              <LatitudeDegrees>39.5048068463802337646484375</LatitudeDegrees>
              <LongitudeDegrees>-0.56506759487092494964599609375</LongitudeDegrees>
            </Position>
            <AltitudeMeters>149.8000030517578125</AltitudeMeters>
            <DistanceMeters>16266.464815228</DistanceMeters>
          </Trackpoint>
          <Trackpoint>
            <Time>2021-10-09T07:26:17.000Z</Time>
            <Position>
              <LatitudeDegrees>39.50487633235752582550048828125</LatitudeDegrees>
              <LongitudeDegrees>-0.5650676786899566650390625</LongitudeDegrees>
            </Position>
            <AltitudeMeters>149.8000030517578125</AltitudeMeters>
            <DistanceMeters>16274.198845637</DistanceMeters>
          </Trackpoint>
          <Trackpoint>
            <Time>2021-10-09T07:26:18.000Z</Time>
            <Position>
              <LatitudeDegrees>39.5049461536109447479248046875</LatitudeDegrees>
              <LongitudeDegrees>-0.5650688521564006805419921875</LongitudeDegrees>
            </Position>
            <AltitudeMeters>149.600006103515625</AltitudeMeters>
            <DistanceMeters>16281.971310588</DistanceMeters>
          </Trackpoint>
          <Trackpoint>
            <Time>2021-10-09T07:26:19.000Z</Time>
            <Position>
              <LatitudeDegrees>39.505014382302761077880859375</LatitudeDegrees>
              <LongitudeDegrees>-0.56507010944187641143798828125</LongitudeDegrees>
            </Position>
            <AltitudeMeters>149.600006103515625</AltitudeMeters>
            <DistanceMeters>16289.565722892</DistanceMeters>
          </Trackpoint>
          <Trackpoint>
            <Time>2021-10-09T07:26:20.000Z</Time>
            <Position>
              <LatitudeDegrees>39.50508177280426025390625</LatitudeDegrees>
              <LongitudeDegrees>-0.5650725401937961578369140625</LongitudeDegrees>
            </Position>
            <AltitudeMeters>149.399993896484375</AltitudeMeters>
            <DistanceMeters>16297.06922385</DistanceMeters>
          </Trackpoint>
          <Trackpoint>
            <Time>2021-10-09T07:26:21.000Z</Time>
            <Position>
              <LatitudeDegrees>39.505148828029632568359375</LatitudeDegrees>
              <LongitudeDegrees>-0.56507597677409648895263671875</LongitudeDegrees>
            </Position>
            <AltitudeMeters>149.399993896484375</AltitudeMeters>
            <DistanceMeters>16304.538347779</DistanceMeters>
          </Trackpoint>
          <Trackpoint>
            <Time>2021-10-09T07:26:22.000Z</Time>
            <Position>
              <LatitudeDegrees>39.50521563179790973663330078125</LatitudeDegrees>
              <LongitudeDegrees>-0.5650784075260162353515625</LongitudeDegrees>
            </Position>
            <AltitudeMeters>149.1999969482421875</AltitudeMeters>
            <DistanceMeters>16311.976578642</DistanceMeters>
          </Trackpoint>
          <Trackpoint>
            <Time>2021-10-09T07:26:23.000Z</Time>
            <Position>
              <LatitudeDegrees>39.50528419576585292816162109375</LatitudeDegrees>
              <LongitudeDegrees>-0.5650802515447139739990234375</LongitudeDegrees>
            </Position>
            <AltitudeMeters>149.1999969482421875</AltitudeMeters>
            <DistanceMeters>16319.609536995</DistanceMeters>
          </Trackpoint>
          <Trackpoint>
            <Time>2021-10-09T07:26:24.000Z</Time>
            <Position>
              <LatitudeDegrees>39.50535426847636699676513671875</LatitudeDegrees>
              <LongitudeDegrees>-0.56508318521082401275634765625</LongitudeDegrees>
            </Position>
            <AltitudeMeters>149</AltitudeMeters>
            <DistanceMeters>16327.412729</DistanceMeters>
          </Trackpoint>
          <Trackpoint>
            <Time>2021-10-09T07:26:25.000Z</Time>
            <Position>
              <LatitudeDegrees>39.505424760282039642333984375</LatitudeDegrees>
              <LongitudeDegrees>-0.56508704088628292083740234375</LongitudeDegrees>
            </Position>
            <AltitudeMeters>149</AltitudeMeters>
            <DistanceMeters>16335.264949193</DistanceMeters>
          </Trackpoint>
          <Trackpoint>
            <Time>2021-10-09T07:26:26.000Z</Time>
            <Position>
              <LatitudeDegrees>39.5054939948022365570068359375</LatitudeDegrees>
              <LongitudeDegrees>-0.5650886334478855133056640625</LongitudeDegrees>
            </Position>
            <AltitudeMeters>149</AltitudeMeters>
            <DistanceMeters>16342.972078545</DistanceMeters>
          </Trackpoint>
          <Trackpoint>
            <Time>2021-10-09T07:26:27.000Z</Time>
            <Position>
              <LatitudeDegrees>39.505561888217926025390625</LatitudeDegrees>
              <LongitudeDegrees>-0.5650893040001392364501953125</LongitudeDegrees>
            </Position>
            <AltitudeMeters>148.8000030517578125</AltitudeMeters>
            <DistanceMeters>16350.528943201</DistanceMeters>
          </Trackpoint>
          <Trackpoint>
            <Time>2021-10-09T07:26:28.000Z</Time>
            <Position>
              <LatitudeDegrees>39.50562852434813976287841796875</LatitudeDegrees>
              <LongitudeDegrees>-0.5650899745523929595947265625</LongitudeDegrees>
            </Position>
            <AltitudeMeters>148.8000030517578125</AltitudeMeters>
            <DistanceMeters>16357.946507206</DistanceMeters>
          </Trackpoint>
          <Trackpoint>
            <Time>2021-10-09T07:26:29.000Z</Time>
            <Position>
              <LatitudeDegrees>39.50569390319287776947021484375</LatitudeDegrees>
              <LongitudeDegrees>-0.5650913156569004058837890625</LongitudeDegrees>
            </Position>
            <AltitudeMeters>148.8000030517578125</AltitudeMeters>
            <DistanceMeters>16365.22396544</DistanceMeters>
          </Trackpoint>
          <Trackpoint>
            <Time>2021-10-09T07:26:30.000Z</Time>
            <Position>
              <LatitudeDegrees>39.5057565160095691680908203125</LatitudeDegrees>
              <LongitudeDegrees>-0.56509156711399555206298828125</LongitudeDegrees>
            </Position>
            <AltitudeMeters>148.8000030517578125</AltitudeMeters>
            <DistanceMeters>16372.193383005</DistanceMeters>
          </Trackpoint>
          <Trackpoint>
            <Time>2021-10-09T07:26:31.000Z</Time>
            <Position>
              <LatitudeDegrees>39.50581879355013370513916015625</LatitudeDegrees>
              <LongitudeDegrees>-0.56509207002818584442138671875</LongitudeDegrees>
            </Position>
            <AltitudeMeters>148.8000030517578125</AltitudeMeters>
            <DistanceMeters>16379.124472867</DistanceMeters>
          </Trackpoint>
          <Trackpoint>
            <Time>2021-10-09T07:26:32.000Z</Time>
            <Position>
              <LatitudeDegrees>39.505880735814571380615234375</LatitudeDegrees>
              <LongitudeDegrees>-0.5650929920375347137451171875</LongitudeDegrees>
            </Position>
            <AltitudeMeters>148.8000030517578125</AltitudeMeters>
            <DistanceMeters>16386.018986802</DistanceMeters>
          </Trackpoint>
          <Trackpoint>
            <Time>2021-10-09T07:26:33.000Z</Time>
            <Position>
              <LatitudeDegrees>39.50594083406031131744384765625</LatitudeDegrees>
              <LongitudeDegrees>-0.5650923214852809906005859375</LongitudeDegrees>
            </Position>
            <AltitudeMeters>148.8000030517578125</AltitudeMeters>
            <DistanceMeters>16392.708759508</DistanceMeters>
          </Trackpoint>
          <Trackpoint>
            <Time>2021-10-09T07:26:34.000Z</Time>
            <Position>
              <LatitudeDegrees>39.50599917210638523101806640625</LatitudeDegrees>
              <LongitudeDegrees>-0.5650929920375347137451171875</LongitudeDegrees>
            </Position>
            <AltitudeMeters>148.8000030517578125</AltitudeMeters>
            <DistanceMeters>16399.202637933</DistanceMeters>
          </Trackpoint>
          <Trackpoint>
            <Time>2021-10-09T07:26:35.000Z</Time>
            <Position>
              <LatitudeDegrees>39.506055079400539398193359375</LatitudeDegrees>
              <LongitudeDegrees>-0.565093494951725006103515625</LongitudeDegrees>
            </Position>
            <AltitudeMeters>148.8000030517578125</AltitudeMeters>
            <DistanceMeters>16405.425255372</DistanceMeters>
          </Trackpoint>
          <Trackpoint>
            <Time>2021-10-09T07:26:36.000Z</Time>
            <Position>
              <LatitudeDegrees>39.50611107051372528076171875</LatitudeDegrees>
              <LongitudeDegrees>-0.56509290821850299835205078125</LongitudeDegrees>
            </Position>
            <AltitudeMeters>149</AltitudeMeters>
            <DistanceMeters>16411.656573748</DistanceMeters>
          </Trackpoint>
          <Trackpoint>
            <Time>2021-10-09T07:26:37.000Z</Time>
            <Position>
              <LatitudeDegrees>39.50616538524627685546875</LatitudeDegrees>
              <LongitudeDegrees>-0.5650918185710906982421875</LongitudeDegrees>
            </Position>
            <AltitudeMeters>149</AltitudeMeters>
            <DistanceMeters>16417.702543434</DistanceMeters>
          </Trackpoint>
          <Trackpoint>
            <Time>2021-10-09T07:26:38.000Z</Time>
            <Position>
              <LatitudeDegrees>39.50621961615979671478271484375</LatitudeDegrees>
              <LongitudeDegrees>-0.56508704088628292083740234375</LongitudeDegrees>
            </Position>
            <AltitudeMeters>149.399993896484375</AltitudeMeters>
            <DistanceMeters>16423.752245892</DistanceMeters>
          </Trackpoint>
          <Trackpoint>
            <Time>2021-10-09T07:26:39.000Z</Time>
            <Position>
              <LatitudeDegrees>39.50627208687365055084228515625</LatitudeDegrees>
              <LongitudeDegrees>-0.56508000008761882781982421875</LongitudeDegrees>
            </Position>
            <AltitudeMeters>149.8000030517578125</AltitudeMeters>
            <DistanceMeters>16429.62240532</DistanceMeters>
          </Trackpoint>
          <Trackpoint>
            <Time>2021-10-09T07:26:40.000Z</Time>
            <Position>
              <LatitudeDegrees>39.5063238032162189483642578125</LatitudeDegrees>
              <LongitudeDegrees>-0.5650742165744304656982421875</LongitudeDegrees>
            </Position>
            <AltitudeMeters>150</AltitudeMeters>
            <DistanceMeters>16435.399529391</DistanceMeters>
          </Trackpoint>
          <Trackpoint>
            <Time>2021-10-09T07:26:41.000Z</Time>
            <Position>
              <LatitudeDegrees>39.50637686066329479217529296875</LatitudeDegrees>
              <LongitudeDegrees>-0.5650745518505573272705078125</LongitudeDegrees>
            </Position>
            <AltitudeMeters>150.399993896484375</AltitudeMeters>
            <DistanceMeters>16441.304963772</DistanceMeters>
          </Trackpoint>
          <Trackpoint>
            <Time>2021-10-09T07:26:42.000Z</Time>
            <Position>
              <LatitudeDegrees>39.5064317621290683746337890625</LatitudeDegrees>
              <LongitudeDegrees>-0.56508117355406284332275390625</LongitudeDegrees>
            </Position>
            <AltitudeMeters>150.600006103515625</AltitudeMeters>
            <DistanceMeters>16447.441364898</DistanceMeters>
          </Trackpoint>
          <Trackpoint>
            <Time>2021-10-09T07:26:43.000Z</Time>
            <Position>
              <LatitudeDegrees>39.5064867474138736724853515625</LatitudeDegrees>
              <LongitudeDegrees>-0.56508402340114116668701171875</LongitudeDegrees>
            </Position>
            <AltitudeMeters>150.8000030517578125</AltitudeMeters>
            <DistanceMeters>16453.565982237</DistanceMeters>
          </Trackpoint>
          <Trackpoint>
            <Time>2021-10-09T07:26:44.000Z</Time>
            <Position>
              <LatitudeDegrees>39.5065538026392459869384765625</LatitudeDegrees>
              <LongitudeDegrees>-0.56508435867726802825927734375</LongitudeDegrees>
            </Position>
            <AltitudeMeters>151</AltitudeMeters>
            <DistanceMeters>16461.02966374</DistanceMeters>
          </Trackpoint>
          <Trackpoint>
            <Time>2021-10-09T07:26:45.000Z</Time>
            <Position>
              <LatitudeDegrees>39.506598226726055145263671875</LatitudeDegrees>
              <LongitudeDegrees>-0.56508251465857028961181640625</LongitudeDegrees>
            </Position>
            <AltitudeMeters>151.399993896484375</AltitudeMeters>
            <DistanceMeters>16465.97653216</DistanceMeters>
          </Trackpoint>
          <Trackpoint>
            <Time>2021-10-09T07:26:46.000Z</Time>
            <Position>
              <LatitudeDegrees>39.50665597803890705108642578125</LatitudeDegrees>
              <LongitudeDegrees>-0.5650784075260162353515625</LongitudeDegrees>
            </Position>
            <AltitudeMeters>151.600006103515625</AltitudeMeters>
            <DistanceMeters>16472.413145456</DistanceMeters>
          </Trackpoint>
          <Trackpoint>
            <Time>2021-10-09T07:26:47.000Z</Time>
            <Position>
              <LatitudeDegrees>39.5067133940756320953369140625</LatitudeDegrees>
              <LongitudeDegrees>-0.5650752224028110504150390625</LongitudeDegrees>
            </Position>
            <AltitudeMeters>151.8000030517578125</AltitudeMeters>
            <DistanceMeters>16478.809650468</DistanceMeters>
          </Trackpoint>
          <Trackpoint>
            <Time>2021-10-09T07:26:48.000Z</Time>
            <Position>
              <LatitudeDegrees>39.50676955282688140869140625</LatitudeDegrees>
              <LongitudeDegrees>-0.56507505476474761962890625</LongitudeDegrees>
            </Position>
            <AltitudeMeters>152</AltitudeMeters>
            <DistanceMeters>16485.060501672</DistanceMeters>
          </Trackpoint>
          <Trackpoint>
            <Time>2021-10-09T07:26:49.000Z</Time>
            <Position>
              <LatitudeDegrees>39.5068247057497501373291015625</LatitudeDegrees>
              <LongitudeDegrees>-0.5650755576789379119873046875</LongitudeDegrees>
            </Position>
            <AltitudeMeters>152.399993896484375</AltitudeMeters>
            <DistanceMeters>16491.19837418</DistanceMeters>
          </Trackpoint>
          <Trackpoint>
            <Time>2021-10-09T07:26:50.000Z</Time>
            <Position>
              <LatitudeDegrees>39.50688078068196773529052734375</LatitudeDegrees>
              <LongitudeDegrees>-0.5650755576789379119873046875</LongitudeDegrees>
            </Position>
            <AltitudeMeters>152.8000030517578125</AltitudeMeters>
            <DistanceMeters>16497.439828319</DistanceMeters>
          </Trackpoint>
          <Trackpoint>
            <Time>2021-10-09T07:26:51.000Z</Time>
            <Position>
              <LatitudeDegrees>39.5069356821477413177490234375</LatitudeDegrees>
              <LongitudeDegrees>-0.56507916189730167388916015625</LongitudeDegrees>
            </Position>
            <AltitudeMeters>153.1999969482421875</AltitudeMeters>
            <DistanceMeters>16503.558545255</DistanceMeters>
          </Trackpoint>
          <Trackpoint>
            <Time>2021-10-09T07:26:52.000Z</Time>
            <Position>
              <LatitudeDegrees>39.5069896616041660308837890625</LatitudeDegrees>
              <LongitudeDegrees>-0.56508620269596576690673828125</LongitudeDegrees>
            </Position>
            <AltitudeMeters>153.399993896484375</AltitudeMeters>
            <DistanceMeters>16509.597042475</DistanceMeters>
          </Trackpoint>
          <Trackpoint>
            <Time>2021-10-09T07:26:53.000Z</Time>
            <Position>
              <LatitudeDegrees>39.5070438086986541748046875</LatitudeDegrees>
              <LongitudeDegrees>-0.56508888490498065948486328125</LongitudeDegrees>
            </Position>
            <AltitudeMeters>154</AltitudeMeters>
            <DistanceMeters>16515.628057972</DistanceMeters>
          </Trackpoint>
          <Trackpoint>
            <Time>2021-10-09T07:26:54.000Z</Time>
            <Position>
              <LatitudeDegrees>39.50709770433604717254638671875</LatitudeDegrees>
              <LongitudeDegrees>-0.56508787907660007476806640625</LongitudeDegrees>
            </Position>
            <AltitudeMeters>154.1999969482421875</AltitudeMeters>
            <DistanceMeters>16521.627548342</DistanceMeters>
          </Trackpoint>
          <Trackpoint>
            <Time>2021-10-09T07:26:55.000Z</Time>
            <Position>
              <LatitudeDegrees>39.5071512646973133087158203125</LatitudeDegrees>
              <LongitudeDegrees>-0.56508754380047321319580078125</LongitudeDegrees>
            </Position>
            <AltitudeMeters>154.399993896484375</AltitudeMeters>
            <DistanceMeters>16527.58929145</DistanceMeters>
          </Trackpoint>
          <Trackpoint>
            <Time>2021-10-09T07:26:56.000Z</Time>
            <Position>
              <LatitudeDegrees>39.5072047412395477294921875</LatitudeDegrees>
              <LongitudeDegrees>-0.5650893040001392364501953125</LongitudeDegrees>
            </Position>
            <AltitudeMeters>154.600006103515625</AltitudeMeters>
            <DistanceMeters>16533.543456389</DistanceMeters>
          </Trackpoint>
          <Trackpoint>
            <Time>2021-10-09T07:26:57.000Z</Time>
            <Position>
              <LatitudeDegrees>39.5072578825056552886962890625</LatitudeDegrees>
              <LongitudeDegrees>-0.56509190239012241363525390625</LongitudeDegrees>
            </Position>
            <AltitudeMeters>154.8000030517578125</AltitudeMeters>
            <DistanceMeters>16539.461873958</DistanceMeters>
          </Trackpoint>
          <Trackpoint>
            <Time>2021-10-09T07:26:58.000Z</Time>
            <Position>
              <LatitudeDegrees>39.50730943121016025543212890625</LatitudeDegrees>
              <LongitudeDegrees>-0.56509341113269329071044921875</LongitudeDegrees>
            </Position>
            <AltitudeMeters>155.1999969482421875</AltitudeMeters>
            <DistanceMeters>16545.201361642</DistanceMeters>
          </Trackpoint>
          <Trackpoint>
            <Time>2021-10-09T07:26:59.000Z</Time>
            <Position>
              <LatitudeDegrees>39.50736240483820438385009765625</LatitudeDegrees>
              <LongitudeDegrees>-0.565096177160739898681640625</LongitudeDegrees>
            </Position>
            <AltitudeMeters>155.1999969482421875</AltitudeMeters>
            <DistanceMeters>16551.1022069</DistanceMeters>
          </Trackpoint>
          <Trackpoint>
            <Time>2021-10-09T07:27:00.000Z</Time>
            <Position>
              <LatitudeDegrees>39.5074154622852802276611328125</LatitudeDegrees>
              <LongitudeDegrees>-0.56509911082684993743896484375</LongitudeDegrees>
            </Position>
            <AltitudeMeters>155.399993896484375</AltitudeMeters>
            <DistanceMeters>16557.01222684</DistanceMeters>
          </Trackpoint>
          <Trackpoint>
            <Time>2021-10-09T07:27:01.000Z</Time>
            <Position>
              <LatitudeDegrees>39.50746935792267322540283203125</LatitudeDegrees>
              <LongitudeDegrees>-0.56509927846491336822509765625</LongitudeDegrees>
            </Position>
            <AltitudeMeters>155.399993896484375</AltitudeMeters>
            <DistanceMeters>16563.01171721</DistanceMeters>
          </Trackpoint>
          <Trackpoint>
            <Time>2021-10-09T07:27:02.000Z</Time>
            <Position>
              <LatitudeDegrees>39.50752316974103450775146484375</LatitudeDegrees>
              <LongitudeDegrees>-0.56510430760681629180908203125</LongitudeDegrees>
            </Position>
            <AltitudeMeters>155.600006103515625</AltitudeMeters>
            <DistanceMeters>16569.017225125</DistanceMeters>
          </Trackpoint>
          <Trackpoint>
            <Time>2021-10-09T07:27:03.000Z</Time>
            <Position>
              <LatitudeDegrees>39.5075800828635692596435546875</LatitudeDegrees>
              <LongitudeDegrees>-0.5651092529296875</LongitudeDegrees>
            </Position>
            <AltitudeMeters>155.600006103515625</AltitudeMeters>
            <DistanceMeters>16575.366261371</DistanceMeters>
          </Trackpoint>
          <Trackpoint>
            <Time>2021-10-09T07:27:04.000Z</Time>
            <Position>
              <LatitudeDegrees>39.5076387561857700347900390625</LatitudeDegrees>
              <LongitudeDegrees>-0.56511453352868556976318359375</LongitudeDegrees>
            </Position>
            <AltitudeMeters>155.8000030517578125</AltitudeMeters>
            <DistanceMeters>16581.912767523</DistanceMeters>
          </Trackpoint>
          <Trackpoint>
            <Time>2021-10-09T07:27:05.000Z</Time>
            <Position>
              <LatitudeDegrees>39.5077004469931125640869140625</LatitudeDegrees>
              <LongitudeDegrees>-0.5651204846799373626708984375</LongitudeDegrees>
            </Position>
            <AltitudeMeters>155.8000030517578125</AltitudeMeters>
            <DistanceMeters>16588.798107118</DistanceMeters>
          </Trackpoint>
          <Trackpoint>
            <Time>2021-10-09T07:27:06.000Z</Time>
            <Position>
              <LatitudeDegrees>39.50776305980980396270751953125</LatitudeDegrees>
              <LongitudeDegrees>-0.56512601673603057861328125</LongitudeDegrees>
            </Position>
            <AltitudeMeters>155.8000030517578125</AltitudeMeters>
            <DistanceMeters>16595.783055437</DistanceMeters>
          </Trackpoint>
          <Trackpoint>
            <Time>2021-10-09T07:27:07.000Z</Time>
            <Position>
              <LatitudeDegrees>39.5078301988542079925537109375</LatitudeDegrees>
              <LongitudeDegrees>-0.5651305429637432098388671875</LongitudeDegrees>
            </Position>
            <AltitudeMeters>155.8000030517578125</AltitudeMeters>
            <DistanceMeters>16603.266069805</DistanceMeters>
          </Trackpoint>
          <Trackpoint>
            <Time>2021-10-09T07:27:08.000Z</Time>
            <Position>
              <LatitudeDegrees>39.5078996010124683380126953125</LatitudeDegrees>
              <LongitudeDegrees>-0.565137751400470733642578125</LongitudeDegrees>
            </Position>
            <AltitudeMeters>155.8000030517578125</AltitudeMeters>
            <DistanceMeters>16611.01526385</DistanceMeters>
          </Trackpoint>
          <Trackpoint>
            <Time>2021-10-09T07:27:09.000Z</Time>
            <Position>
              <LatitudeDegrees>39.5079700089991092681884765625</LatitudeDegrees>
              <LongitudeDegrees>-0.56514370255172252655029296875</LongitudeDegrees>
            </Position>
            <AltitudeMeters>155.8000030517578125</AltitudeMeters>
            <DistanceMeters>16618.868633962</DistanceMeters>
          </Trackpoint>
          <Trackpoint>
            <Time>2021-10-09T07:27:10.000Z</Time>
            <Position>
              <LatitudeDegrees>39.508040249347686767578125</LatitudeDegrees>
              <LongitudeDegrees>-0.5651508271694183349609375</LongitudeDegrees>
            </Position>
            <AltitudeMeters>155.8000030517578125</AltitudeMeters>
            <DistanceMeters>16626.710497298</DistanceMeters>
          </Trackpoint>
          <Trackpoint>
            <Time>2021-10-09T07:27:11.000Z</Time>
            <Position>
              <LatitudeDegrees>39.50811308808624744415283203125</LatitudeDegrees>
              <LongitudeDegrees>-0.56515828706324100494384765625</LongitudeDegrees>
            </Position>
            <AltitudeMeters>155.8000030517578125</AltitudeMeters>
            <DistanceMeters>16634.842918824</DistanceMeters>
          </Trackpoint>
          <Trackpoint>
            <Time>2021-10-09T07:27:12.000Z</Time>
            <Position>
              <LatitudeDegrees>39.50818584300577640533447265625</LatitudeDegrees>
              <LongitudeDegrees>-0.56516465730965137481689453125</LongitudeDegrees>
            </Position>
            <AltitudeMeters>155.399993896484375</AltitudeMeters>
            <DistanceMeters>16642.959780147</DistanceMeters>
          </Trackpoint>
          <Trackpoint>
            <Time>2021-10-09T07:27:13.000Z</Time>
            <Position>
              <LatitudeDegrees>39.50825876556336879730224609375</LatitudeDegrees>
              <LongitudeDegrees>-0.56517153047025203704833984375</LongitudeDegrees>
            </Position>
            <AltitudeMeters>155.399993896484375</AltitudeMeters>
            <DistanceMeters>16651.097751678</DistanceMeters>
          </Trackpoint>
          <Trackpoint>
            <Time>2021-10-09T07:27:14.000Z</Time>
            <Position>
              <LatitudeDegrees>39.5083311013877391815185546875</LatitudeDegrees>
              <LongitudeDegrees>-0.5651794932782649993896484375</LongitudeDegrees>
            </Position>
            <AltitudeMeters>155</AltitudeMeters>
            <DistanceMeters>16659.17781682</DistanceMeters>
          </Trackpoint>
          <Trackpoint>
            <Time>2021-10-09T07:27:15.000Z</Time>
            <Position>
              <LatitudeDegrees>39.5084036886692047119140625</LatitudeDegrees>
              <LongitudeDegrees>-0.565187372267246246337890625</LongitudeDegrees>
            </Position>
            <AltitudeMeters>155</AltitudeMeters>
            <DistanceMeters>16667.28577319</DistanceMeters>
          </Trackpoint>
          <Trackpoint>
            <Time>2021-10-09T07:27:16.000Z</Time>
            <Position>
              <LatitudeDegrees>39.5084761083126068115234375</LatitudeDegrees>
              <LongitudeDegrees>-0.56519499979913234710693359375</LongitudeDegrees>
            </Position>
            <AltitudeMeters>154.399993896484375</AltitudeMeters>
            <DistanceMeters>16675.373099305</DistanceMeters>
          </Trackpoint>
          <Trackpoint>
            <Time>2021-10-09T07:27:17.000Z</Time>
            <Position>
              <LatitudeDegrees>39.5085470192134380340576171875</LatitudeDegrees>
              <LongitudeDegrees>-0.5652006156742572784423828125</LongitudeDegrees>
            </Position>
            <AltitudeMeters>154.399993896484375</AltitudeMeters>
            <DistanceMeters>16683.280326967</DistanceMeters>
          </Trackpoint>
          <Trackpoint>
            <Time>2021-10-09T07:27:18.000Z</Time>
            <Position>
              <LatitudeDegrees>39.5086170919239521026611328125</LatitudeDegrees>
              <LongitudeDegrees>-0.56520706973969936370849609375</LongitudeDegrees>
            </Position>
            <AltitudeMeters>154</AltitudeMeters>
            <DistanceMeters>16691.099125949</DistanceMeters>
          </Trackpoint>
          <Trackpoint>
            <Time>2021-10-09T07:27:19.000Z</Time>
            <Position>
              <LatitudeDegrees>39.5086844824254512786865234375</LatitudeDegrees>
              <LongitudeDegrees>-0.56521318852901458740234375</LongitudeDegrees>
            </Position>
            <AltitudeMeters>153.8000030517578125</AltitudeMeters>
            <DistanceMeters>16698.617654964</DistanceMeters>
          </Trackpoint>
          <Trackpoint>
            <Time>2021-10-09T07:27:20.000Z</Time>
            <Position>
              <LatitudeDegrees>39.508750028908252716064453125</LatitudeDegrees>
              <LongitudeDegrees>-0.56521855294704437255859375</LongitudeDegrees>
            </Position>
            <AltitudeMeters>153.8000030517578125</AltitudeMeters>
            <DistanceMeters>16705.926685832</DistanceMeters>
          </Trackpoint>
          <Trackpoint>
            <Time>2021-10-09T07:27:21.000Z</Time>
            <Position>
              <LatitudeDegrees>39.50881515629589557647705078125</LatitudeDegrees>
              <LongitudeDegrees>-0.565224587917327880859375</LongitudeDegrees>
            </Position>
            <AltitudeMeters>153.600006103515625</AltitudeMeters>
            <DistanceMeters>16713.193589371</DistanceMeters>
          </Trackpoint>
          <Trackpoint>
            <Time>2021-10-09T07:27:22.000Z</Time>
            <Position>
              <LatitudeDegrees>39.5088784396648406982421875</LatitudeDegrees>
              <LongitudeDegrees>-0.565230958163738250732421875</LongitudeDegrees>
            </Position>
            <AltitudeMeters>153.600006103515625</AltitudeMeters>
            <DistanceMeters>16720.257596905</DistanceMeters>
          </Trackpoint>
          <Trackpoint>
            <Time>2021-10-09T07:27:23.000Z</Time>
            <Position>
              <LatitudeDegrees>39.50894071720540523529052734375</LatitudeDegrees>
              <LongitudeDegrees>-0.565238334238529205322265625</LongitudeDegrees>
            </Position>
            <AltitudeMeters>153.600006103515625</AltitudeMeters>
            <DistanceMeters>16727.218587509</DistanceMeters>
          </Trackpoint>
          <Trackpoint>
            <Time>2021-10-09T07:27:24.000Z</Time>
            <Position>
              <LatitudeDegrees>39.50899980962276458740234375</LatitudeDegrees>
              <LongitudeDegrees>-0.56524403393268585205078125</LongitudeDegrees>
            </Position>
            <AltitudeMeters>153.600006103515625</AltitudeMeters>
            <DistanceMeters>16733.814564185</DistanceMeters>
          </Trackpoint>
          <Trackpoint>
            <Time>2021-10-09T07:27:25.000Z</Time>
            <Position>
              <LatitudeDegrees>39.509059153497219085693359375</LatitudeDegrees>
              <LongitudeDegrees>-0.56524847634136676788330078125</LongitudeDegrees>
            </Position>
            <AltitudeMeters>153.600006103515625</AltitudeMeters>
            <DistanceMeters>16740.431044412</DistanceMeters>
          </Trackpoint>
          <Trackpoint>
            <Time>2021-10-09T07:27:26.000Z</Time>
            <Position>
              <LatitudeDegrees>39.50911623425781726837158203125</LatitudeDegrees>
              <LongitudeDegrees>-0.56525350548326969146728515625</LongitudeDegrees>
            </Position>
            <AltitudeMeters>153.600006103515625</AltitudeMeters>
            <DistanceMeters>16746.799252426</DistanceMeters>
          </Trackpoint>
          <Trackpoint>
            <Time>2021-10-09T07:27:27.000Z</Time>
            <Position>
              <LatitudeDegrees>39.509169794619083404541015625</LatitudeDegrees>
              <LongitudeDegrees>-0.5652589537203311920166015625</LongitudeDegrees>
            </Position>
            <AltitudeMeters>153.600006103515625</AltitudeMeters>
            <DistanceMeters>16752.779143957</DistanceMeters>
          </Trackpoint>
          <Trackpoint>
            <Time>2021-10-09T07:27:28.000Z</Time>
            <Position>
              <LatitudeDegrees>39.50922109186649322509765625</LatitudeDegrees>
              <LongitudeDegrees>-0.5652653239667415618896484375</LongitudeDegrees>
            </Position>
            <AltitudeMeters>153.8000030517578125</AltitudeMeters>
            <DistanceMeters>16758.514696981</DistanceMeters>
          </Trackpoint>
          <Trackpoint>
            <Time>2021-10-09T07:27:29.000Z</Time>
            <Position>
              <LatitudeDegrees>39.50927096419036388397216796875</LatitudeDegrees>
              <LongitudeDegrees>-0.56527161039412021636962890625</LongitudeDegrees>
            </Position>
            <AltitudeMeters>153.8000030517578125</AltitudeMeters>
            <DistanceMeters>16764.091397015</DistanceMeters>
          </Trackpoint>
          <Trackpoint>
            <Time>2021-10-09T07:27:30.000Z</Time>
            <Position>
              <LatitudeDegrees>39.50932092033326625823974609375</LatitudeDegrees>
              <LongitudeDegrees>-0.56527630425989627838134765625</LongitudeDegrees>
            </Position>
            <AltitudeMeters>154</AltitudeMeters>
            <DistanceMeters>16769.665667644</DistanceMeters>
          </Trackpoint>
          <Trackpoint>
            <Time>2021-10-09T07:27:31.000Z</Time>
            <Position>
              <LatitudeDegrees>39.5093692839145660400390625</LatitudeDegrees>
              <LongitudeDegrees>-0.56528049521148204803466796875</LongitudeDegrees>
            </Position>
            <AltitudeMeters>154</AltitudeMeters>
            <DistanceMeters>16775.06047407</DistanceMeters>
          </Trackpoint>
          <Trackpoint>
            <Time>2021-10-09T07:27:32.000Z</Time>
            <Position>
              <LatitudeDegrees>39.509417898952960968017578125</LatitudeDegrees>
              <LongitudeDegrees>-0.5652849376201629638671875</LongitudeDegrees>
            </Position>
            <AltitudeMeters>154.399993896484375</AltitudeMeters>
            <DistanceMeters>16780.48449371</DistanceMeters>
          </Trackpoint>
          <Trackpoint>
            <Time>2021-10-09T07:27:33.000Z</Time>
            <Position>
              <LatitudeDegrees>39.50946592725813388824462890625</LatitudeDegrees>
              <LongitudeDegrees>-0.5652884580194950103759765625</LongitudeDegrees>
            </Position>
            <AltitudeMeters>154.8000030517578125</AltitudeMeters>
            <DistanceMeters>16785.838133839</DistanceMeters>
          </Trackpoint>
          <Trackpoint>
            <Time>2021-10-09T07:27:34.000Z</Time>
            <Position>
              <LatitudeDegrees>39.5095114409923553466796875</LatitudeDegrees>
              <LongitudeDegrees>-0.565294660627841949462890625</LongitudeDegrees>
            </Position>
            <AltitudeMeters>155</AltitudeMeters>
            <DistanceMeters>16790.932487547</DistanceMeters>
          </Trackpoint>
          <Trackpoint>
            <Time>2021-10-09T07:27:35.000Z</Time>
            <Position>
              <LatitudeDegrees>39.50955678708851337432861328125</LatitudeDegrees>
              <LongitudeDegrees>-0.56529792957007884979248046875</LongitudeDegrees>
            </Position>
            <AltitudeMeters>155.399993896484375</AltitudeMeters>
            <DistanceMeters>16795.987694401</DistanceMeters>
          </Trackpoint>
          <Trackpoint>
            <Time>2021-10-09T07:27:36.000Z</Time>
            <Position>
              <LatitudeDegrees>39.509601630270481109619140625</LatitudeDegrees>
              <LongitudeDegrees>-0.5653010308742523193359375</LongitudeDegrees>
            </Position>
            <AltitudeMeters>155.600006103515625</AltitudeMeters>
            <DistanceMeters>16800.986316363</DistanceMeters>
          </Trackpoint>
          <Trackpoint>
            <Time>2021-10-09T07:27:37.000Z</Time>
            <Position>
              <LatitudeDegrees>39.50964882038533687591552734375</LatitudeDegrees>
              <LongitudeDegrees>-0.56530304253101348876953125</LongitudeDegrees>
            </Position>
            <AltitudeMeters>156.1999969482421875</AltitudeMeters>
            <DistanceMeters>16806.24293447</DistanceMeters>
          </Trackpoint>
          <Trackpoint>
            <Time>2021-10-09T07:27:38.000Z</Time>
            <Position>
              <LatitudeDegrees>39.50969508849084377288818359375</LatitudeDegrees>
              <LongitudeDegrees>-0.56530497036874294281005859375</LongitudeDegrees>
            </Position>
            <AltitudeMeters>156.399993896484375</AltitudeMeters>
            <DistanceMeters>16811.395450821</DistanceMeters>
          </Trackpoint>
          <Trackpoint>
            <Time>2021-10-09T07:27:39.000Z</Time>
            <Position>
              <LatitudeDegrees>39.5097406022250652313232421875</LatitudeDegrees>
              <LongitudeDegrees>-0.565306730568408966064453125</LongitudeDegrees>
            </Position>
            <AltitudeMeters>156.8000030517578125</AltitudeMeters>
            <DistanceMeters>16816.463146294</DistanceMeters>
          </Trackpoint>
          <Trackpoint>
            <Time>2021-10-09T07:27:40.000Z</Time>
            <Position>
              <LatitudeDegrees>39.50978393666446208953857421875</LatitudeDegrees>
              <LongitudeDegrees>-0.565308071672916412353515625</LongitudeDegrees>
            </Position>
            <AltitudeMeters>157</AltitudeMeters>
            <DistanceMeters>16821.288033554</DistanceMeters>
          </Trackpoint>
          <Trackpoint>
            <Time>2021-10-09T07:27:41.000Z</Time>
            <Position>
              <LatitudeDegrees>39.50982919894158840179443359375</LatitudeDegrees>
              <LongitudeDegrees>-0.56530882604420185089111328125</LongitudeDegrees>
            </Position>
            <AltitudeMeters>157</AltitudeMeters>
            <DistanceMeters>16826.327138133</DistanceMeters>
          </Trackpoint>
          <Trackpoint>
            <Time>2021-10-09T07:27:42.000Z</Time>
            <Position>
              <LatitudeDegrees>39.5098737068474292755126953125</LatitudeDegrees>
              <LongitudeDegrees>-0.565311424434185028076171875</LongitudeDegrees>
            </Position>
            <AltitudeMeters>157.399993896484375</AltitudeMeters>
            <DistanceMeters>16831.28585754</DistanceMeters>
          </Trackpoint>
          <Trackpoint>
            <Time>2021-10-09T07:27:43.000Z</Time>
            <Position>
              <LatitudeDegrees>39.5099186338484287261962890625</LatitudeDegrees>
              <LongitudeDegrees>-0.5653149448335170745849609375</LongitudeDegrees>
            </Position>
            <AltitudeMeters>157.8000030517578125</AltitudeMeters>
            <DistanceMeters>16836.294405469</DistanceMeters>
          </Trackpoint>
          <Trackpoint>
            <Time>2021-10-09T07:27:44.000Z</Time>
            <Position>
              <LatitudeDegrees>39.50996196828782558441162109375</LatitudeDegrees>
              <LongitudeDegrees>-0.56531720794737339019775390625</LongitudeDegrees>
            </Position>
            <AltitudeMeters>158</AltitudeMeters>
            <DistanceMeters>16841.12022842</DistanceMeters>
          </Trackpoint>
          <Trackpoint>
            <Time>2021-10-09T07:27:45.000Z</Time>
            <Position>
              <LatitudeDegrees>39.51000622473657131195068359375</LatitudeDegrees>
              <LongitudeDegrees>-0.56531754322350025177001953125</LongitudeDegrees>
            </Position>
            <AltitudeMeters>158.399993896484375</AltitudeMeters>
            <DistanceMeters>16846.045143173</DistanceMeters>
          </Trackpoint>
          <Trackpoint>
            <Time>2021-10-09T07:27:46.000Z</Time>
            <Position>
              <LatitudeDegrees>39.51005014590919017791748046875</LatitudeDegrees>
              <LongitudeDegrees>-0.5653179623186588287353515625</LongitudeDegrees>
            </Position>
            <AltitudeMeters>158.600006103515625</AltitudeMeters>
            <DistanceMeters>16850.933249378</DistanceMeters>
          </Trackpoint>
          <Trackpoint>
            <Time>2021-10-09T07:27:47.000Z</Time>
            <Position>
              <LatitudeDegrees>39.5100926421582698822021484375</LatitudeDegrees>
              <LongitudeDegrees>-0.565321147441864013671875</LongitudeDegrees>
            </Position>
            <AltitudeMeters>158.8000030517578125</AltitudeMeters>
            <DistanceMeters>16855.671262679</DistanceMeters>
          </Trackpoint>
          <Trackpoint>
            <Time>2021-10-09T07:27:48.000Z</Time>
            <Position>
              <LatitudeDegrees>39.5101345516741275787353515625</LatitudeDegrees>
              <LongitudeDegrees>-0.5653219856321811676025390625</LongitudeDegrees>
            </Position>
            <AltitudeMeters>159</AltitudeMeters>
            <DistanceMeters>16860.336290463</DistanceMeters>
          </Trackpoint>
          <Trackpoint>
            <Time>2021-10-09T07:27:49.000Z</Time>
            <Position>
              <LatitudeDegrees>39.5101771317422389984130859375</LatitudeDegrees>
              <LongitudeDegrees>-0.56532047688961029052734375</LongitudeDegrees>
            </Position>
            <AltitudeMeters>159.399993896484375</AltitudeMeters>
            <DistanceMeters>16865.07716172</DistanceMeters>
          </Trackpoint>
          <Trackpoint>
            <Time>2021-10-09T07:27:50.000Z</Time>
            <Position>
              <LatitudeDegrees>39.510220550000667572021484375</LatitudeDegrees>
              <LongitudeDegrees>-0.565317459404468536376953125</LongitudeDegrees>
            </Position>
            <AltitudeMeters>159.600006103515625</AltitudeMeters>
            <DistanceMeters>16869.916998318</DistanceMeters>
          </Trackpoint>
          <Trackpoint>
            <Time>2021-10-09T07:27:51.000Z</Time>
            <Position>
              <LatitudeDegrees>39.51026388444006443023681640625</LatitudeDegrees>
              <LongitudeDegrees>-0.5653179623186588287353515625</LongitudeDegrees>
            </Position>
            <AltitudeMeters>160</AltitudeMeters>
            <DistanceMeters>16874.740013653</DistanceMeters>
          </Trackpoint>
          <Trackpoint>
            <Time>2021-10-09T07:27:52.000Z</Time>
            <Position>
              <LatitudeDegrees>39.510305710136890411376953125</LatitudeDegrees>
              <LongitudeDegrees>-0.56531854905188083648681640625</LongitudeDegrees>
            </Position>
            <AltitudeMeters>160.1999969482421875</AltitudeMeters>
            <DistanceMeters>16879.395352895</DistanceMeters>
          </Trackpoint>
          <Trackpoint>
            <Time>2021-10-09T07:27:53.000Z</Time>
            <Position>
              <LatitudeDegrees>39.5103484578430652618408203125</LatitudeDegrees>
              <LongitudeDegrees>-0.5653176270425319671630859375</LongitudeDegrees>
            </Position>
            <AltitudeMeters>160.600006103515625</AltitudeMeters>
            <DistanceMeters>16884.154284679</DistanceMeters>
          </Trackpoint>
          <Trackpoint>
            <Time>2021-10-09T07:27:54.000Z</Time>
            <Position>
              <LatitudeDegrees>39.51039112173020839691162109375</LatitudeDegrees>
              <LongitudeDegrees>-0.56531653739511966705322265625</LongitudeDegrees>
            </Position>
            <AltitudeMeters>161</AltitudeMeters>
            <DistanceMeters>16888.903719483</DistanceMeters>
          </Trackpoint>
          <Trackpoint>
            <Time>2021-10-09T07:27:55.000Z</Time>
            <Position>
              <LatitudeDegrees>39.51043169014155864715576171875</LatitudeDegrees>
              <LongitudeDegrees>-0.56531670503318309783935546875</LongitudeDegrees>
            </Position>
            <AltitudeMeters>161</AltitudeMeters>
            <DistanceMeters>16893.418238564</DistanceMeters>
          </Trackpoint>
          <Trackpoint>
            <Time>2021-10-09T07:27:56.000Z</Time>
            <Position>
              <LatitudeDegrees>39.51047225855290889739990234375</LatitudeDegrees>
              <LongitudeDegrees>-0.565316118299961090087890625</LongitudeDegrees>
            </Position>
            <AltitudeMeters>161.1999969482421875</AltitudeMeters>
            <DistanceMeters>16897.93375765</DistanceMeters>
          </Trackpoint>
          <Trackpoint>
            <Time>2021-10-09T07:27:57.000Z</Time>
            <Position>
              <LatitudeDegrees>39.51051232405006885528564453125</LatitudeDegrees>
              <LongitudeDegrees>-0.56531435810029506683349609375</LongitudeDegrees>
            </Position>
            <AltitudeMeters>161.1999969482421875</AltitudeMeters>
            <DistanceMeters>16902.394955749</DistanceMeters>
          </Trackpoint>
          <Trackpoint>
            <Time>2021-10-09T07:27:58.000Z</Time>
            <Position>
              <LatitudeDegrees>39.510550796985626220703125</LatitudeDegrees>
              <LongitudeDegrees>-0.56531108915805816650390625</LongitudeDegrees>
            </Position>
            <AltitudeMeters>161.600006103515625</AltitudeMeters>
            <DistanceMeters>16906.68696646</DistanceMeters>
          </Trackpoint>
          <Trackpoint>
            <Time>2021-10-09T07:27:59.000Z</Time>
            <Position>
              <LatitudeDegrees>39.51059077866375446319580078125</LatitudeDegrees>
              <LongitudeDegrees>-0.5653072334825992584228515625</LongitudeDegrees>
            </Position>
            <AltitudeMeters>161.8000030517578125</AltitudeMeters>
            <DistanceMeters>16911.149176513</DistanceMeters>
          </Trackpoint>
          <Trackpoint>
            <Time>2021-10-09T07:28:00.000Z</Time>
            <Position>
              <LatitudeDegrees>39.51063319109380245208740234375</LatitudeDegrees>
              <LongitudeDegrees>-0.565304048359394073486328125</LongitudeDegrees>
            </Position>
            <AltitudeMeters>162</AltitudeMeters>
            <DistanceMeters>16915.877650821</DistanceMeters>
          </Trackpoint>
          <Trackpoint>
            <Time>2021-10-09T07:28:01.000Z</Time>
            <Position>
              <LatitudeDegrees>39.51067560352385044097900390625</LatitudeDegrees>
              <LongitudeDegrees>-0.565300695598125457763671875</LongitudeDegrees>
            </Position>
            <AltitudeMeters>162.1999969482421875</AltitudeMeters>
            <DistanceMeters>16920.606125128</DistanceMeters>
          </Trackpoint>
          <Trackpoint>
            <Time>2021-10-09T07:28:02.000Z</Time>
            <Position>
              <LatitudeDegrees>39.5107155852019786834716796875</LatitudeDegrees>
              <LongitudeDegrees>-0.56529457680881023406982421875</LongitudeDegrees>
            </Position>
            <AltitudeMeters>162.600006103515625</AltitudeMeters>
            <DistanceMeters>16925.086511265</DistanceMeters>
          </Trackpoint>
          <Trackpoint>
            <Time>2021-10-09T07:28:03.000Z</Time>
            <Position>
              <LatitudeDegrees>39.5107585005462169647216796875</LatitudeDegrees>
              <LongitudeDegrees>-0.56528963148593902587890625</LongitudeDegrees>
            </Position>
            <AltitudeMeters>163</AltitudeMeters>
            <DistanceMeters>16929.881360024</DistanceMeters>
          </Trackpoint>
          <Trackpoint>
            <Time>2021-10-09T07:28:04.000Z</Time>
            <Position>
              <LatitudeDegrees>39.51080082915723323822021484375</LatitudeDegrees>
              <LongitudeDegrees>-0.56528384797275066375732421875</LongitudeDegrees>
            </Position>
            <AltitudeMeters>163.1999969482421875</AltitudeMeters>
            <DistanceMeters>16934.617467064</DistanceMeters>
          </Trackpoint>
          <Trackpoint>
            <Time>2021-10-09T07:28:05.000Z</Time>
            <Position>
              <LatitudeDegrees>39.510842151939868927001953125</LatitudeDegrees>
              <LongitudeDegrees>-0.56527781300246715545654296875</LongitudeDegrees>
            </Position>
            <AltitudeMeters>163.399993896484375</AltitudeMeters>
            <DistanceMeters>16939.24557049</DistanceMeters>
          </Trackpoint>
          <Trackpoint>
            <Time>2021-10-09T07:28:06.000Z</Time>
            <Position>
              <LatitudeDegrees>39.5108848996460437774658203125</LatitudeDegrees>
              <LongitudeDegrees>-0.56527060456573963165283203125</LongitudeDegrees>
            </Position>
            <AltitudeMeters>163.600006103515625</AltitudeMeters>
            <DistanceMeters>16944.044184345</DistanceMeters>
          </Trackpoint>
          <Trackpoint>
            <Time>2021-10-09T07:28:07.000Z</Time>
            <Position>
              <LatitudeDegrees>39.51092840172350406646728515625</LatitudeDegrees>
              <LongitudeDegrees>-0.56526549160480499267578125</LongitudeDegrees>
            </Position>
            <AltitudeMeters>163.8000030517578125</AltitudeMeters>
            <DistanceMeters>16948.906358769</DistanceMeters>
          </Trackpoint>
          <Trackpoint>
            <Time>2021-10-09T07:28:08.000Z</Time>
            <Position>
              <LatitudeDegrees>39.51097181998193264007568359375</LatitudeDegrees>
              <LongitudeDegrees>-0.56526121683418750762939453125</LongitudeDegrees>
            </Position>
            <AltitudeMeters>164.1999969482421875</AltitudeMeters>
            <DistanceMeters>16953.753652747</DistanceMeters>
          </Trackpoint>
          <Trackpoint>
            <Time>2021-10-09T07:28:09.000Z</Time>
            <Position>
              <LatitudeDegrees>39.5110149867832660675048828125</LatitudeDegrees>
              <LongitudeDegrees>-0.5652556009590625762939453125</LongitudeDegrees>
            </Position>
            <AltitudeMeters>164.399993896484375</AltitudeMeters>
            <DistanceMeters>16958.582281681</DistanceMeters>
          </Trackpoint>
          <Trackpoint>
            <Time>2021-10-09T07:28:10.000Z</Time>
            <Position>
              <LatitudeDegrees>39.5110599137842655181884765625</LatitudeDegrees>
              <LongitudeDegrees>-0.56524830870330333709716796875</LongitudeDegrees>
            </Position>
            <AltitudeMeters>164.600006103515625</AltitudeMeters>
            <DistanceMeters>16963.62138626</DistanceMeters>
          </Trackpoint>
          <Trackpoint>
            <Time>2021-10-09T07:28:11.000Z</Time>
            <Position>
              <LatitudeDegrees>39.5111046731472015380859375</LatitudeDegrees>
              <LongitudeDegrees>-0.565241686999797821044921875</LongitudeDegrees>
            </Position>
            <AltitudeMeters>164.600006103515625</AltitudeMeters>
            <DistanceMeters>16968.635340071</DistanceMeters>
          </Trackpoint>
          <Trackpoint>
            <Time>2021-10-09T07:28:12.000Z</Time>
            <Position>
              <LatitudeDegrees>39.5111487619578838348388671875</LatitudeDegrees>
              <LongitudeDegrees>-0.56523439474403858184814453125</LongitudeDegrees>
            </Position>
            <AltitudeMeters>164.8000030517578125</AltitudeMeters>
            <DistanceMeters>16973.5812957</DistanceMeters>
          </Trackpoint>
          <Trackpoint>
            <Time>2021-10-09T07:28:13.000Z</Time>
            <Position>
              <LatitudeDegrees>39.5111930184066295623779296875</LatitudeDegrees>
              <LongitudeDegrees>-0.565226934850215911865234375</LongitudeDegrees>
            </Position>
            <AltitudeMeters>165.399993896484375</AltitudeMeters>
            <DistanceMeters>16978.548203073</DistanceMeters>
          </Trackpoint>
          <Trackpoint>
            <Time>2021-10-09T07:28:14.000Z</Time>
            <Position>
              <LatitudeDegrees>39.51123769395053386688232421875</LatitudeDegrees>
              <LongitudeDegrees>-0.5652203969657421112060546875</LongitudeDegrees>
            </Position>
            <AltitudeMeters>165.399993896484375</AltitudeMeters>
            <DistanceMeters>16983.55224164</DistanceMeters>
          </Trackpoint>
          <Trackpoint>
            <Time>2021-10-09T07:28:15.000Z</Time>
            <Position>
              <LatitudeDegrees>39.511280693113803863525390625</LatitudeDegrees>
              <LongitudeDegrees>-0.565214194357395172119140625</LongitudeDegrees>
            </Position>
            <AltitudeMeters>165.600006103515625</AltitudeMeters>
            <DistanceMeters>16988.367761996</DistanceMeters>
          </Trackpoint>
          <Trackpoint>
            <Time>2021-10-09T07:28:16.000Z</Time>
            <Position>
              <LatitudeDegrees>39.51132402755320072174072265625</LatitudeDegrees>
              <LongitudeDegrees>-0.5652066506445407867431640625</LongitudeDegrees>
            </Position>
            <AltitudeMeters>165.8000030517578125</AltitudeMeters>
            <DistanceMeters>16993.233649422</DistanceMeters>
          </Trackpoint>
          <Trackpoint>
            <Time>2021-10-09T07:28:17.000Z</Time>
            <Position>
              <LatitudeDegrees>39.5113683678209781646728515625</LatitudeDegrees>
              <LongitudeDegrees>-0.5651972629129886627197265625</LongitudeDegrees>
            </Position>
            <AltitudeMeters>166.1999969482421875</AltitudeMeters>
            <DistanceMeters>16998.234077571</DistanceMeters>
          </Trackpoint>
          <Trackpoint>
            <Time>2021-10-09T07:28:18.000Z</Time>
            <Position>
              <LatitudeDegrees>39.5114116184413433074951171875</LatitudeDegrees>
              <LongitudeDegrees>-0.5651872046291828155517578125</LongitudeDegrees>
            </Position>
            <AltitudeMeters>166.399993896484375</AltitudeMeters>
            <DistanceMeters>17003.124954026</DistanceMeters>
          </Trackpoint>
          <Trackpoint>
            <Time>2021-10-09T07:28:19.000Z</Time>
            <Position>
              <LatitudeDegrees>39.51145763508975505828857421875</LatitudeDegrees>
              <LongitudeDegrees>-0.56517831981182098388671875</LongitudeDegrees>
            </Position>
            <AltitudeMeters>167</AltitudeMeters>
            <DistanceMeters>17008.303692003</DistanceMeters>
          </Trackpoint>
          <Trackpoint>
            <Time>2021-10-09T07:28:20.000Z</Time>
            <Position>
              <LatitudeDegrees>39.5115018077194690704345703125</LatitudeDegrees>
              <LongitudeDegrees>-0.56516767479479312896728515625</LongitudeDegrees>
            </Position>
            <AltitudeMeters>167</AltitudeMeters>
            <DistanceMeters>17013.303217141</DistanceMeters>
          </Trackpoint>
          <Trackpoint>
            <Time>2021-10-09T07:28:21.000Z</Time>
            <Position>
              <LatitudeDegrees>39.5115467347204685211181640625</LatitudeDegrees>
              <LongitudeDegrees>-0.565159879624843597412109375</LongitudeDegrees>
            </Position>
            <AltitudeMeters>167</AltitudeMeters>
            <DistanceMeters>17018.347694856</DistanceMeters>
          </Trackpoint>
          <Trackpoint>
            <Time>2021-10-09T07:28:22.000Z</Time>
            <Position>
              <LatitudeDegrees>39.51159040443599224090576171875</LatitudeDegrees>
              <LongitudeDegrees>-0.5651533417403697967529296875</LongitudeDegrees>
            </Position>
            <AltitudeMeters>167.1999969482421875</AltitudeMeters>
            <DistanceMeters>17023.240417273</DistanceMeters>
          </Trackpoint>
          <Trackpoint>
            <Time>2021-10-09T07:28:23.000Z</Time>
            <Position>
              <LatitudeDegrees>39.511634074151515960693359375</LatitudeDegrees>
              <LongitudeDegrees>-0.5651466362178325653076171875</LongitudeDegrees>
            </Position>
            <AltitudeMeters>167.600006103515625</AltitudeMeters>
            <DistanceMeters>17028.135907328</DistanceMeters>
          </Trackpoint>
          <Trackpoint>
            <Time>2021-10-09T07:28:24.000Z</Time>
            <Position>
              <LatitudeDegrees>39.51167799532413482666015625</LatitudeDegrees>
              <LongitudeDegrees>-0.565137751400470733642578125</LongitudeDegrees>
            </Position>
            <AltitudeMeters>167.8000030517578125</AltitudeMeters>
            <DistanceMeters>17033.082775748</DistanceMeters>
          </Trackpoint>
          <Trackpoint>
            <Time>2021-10-09T07:28:25.000Z</Time>
            <Position>
              <LatitudeDegrees>39.511722587049007415771484375</LatitudeDegrees>
              <LongitudeDegrees>-0.56512978859245777130126953125</LongitudeDegrees>
            </Position>
            <AltitudeMeters>167.8000030517578125</AltitudeMeters>
            <DistanceMeters>17038.092225063</DistanceMeters>
          </Trackpoint>
          <Trackpoint>
            <Time>2021-10-09T07:28:26.000Z</Time>
            <Position>
              <LatitudeDegrees>39.5117663405835628509521484375</LatitudeDegrees>
              <LongitudeDegrees>-0.56512140668928623199462890625</LongitudeDegrees>
            </Position>
            <AltitudeMeters>167.8000030517578125</AltitudeMeters>
            <DistanceMeters>17043.015305925</DistanceMeters>
          </Trackpoint>
          <Trackpoint>
            <Time>2021-10-09T07:28:27.000Z</Time>
            <Position>
              <LatitudeDegrees>39.511810429394245147705078125</LatitudeDegrees>
              <LongitudeDegrees>-0.565113611519336700439453125</LongitudeDegrees>
            </Position>
            <AltitudeMeters>168.1999969482421875</AltitudeMeters>
            <DistanceMeters>17047.967647555</DistanceMeters>
          </Trackpoint>
          <Trackpoint>
            <Time>2021-10-09T07:28:28.000Z</Time>
            <Position>
              <LatitudeDegrees>39.51185460202395915985107421875</LatitudeDegrees>
              <LongitudeDegrees>-0.56510648690164089202880859375</LongitudeDegrees>
            </Position>
            <AltitudeMeters>168.1999969482421875</AltitudeMeters>
            <DistanceMeters>17052.923634634</DistanceMeters>
          </Trackpoint>
          <Trackpoint>
            <Time>2021-10-09T07:28:29.000Z</Time>
            <Position>
              <LatitudeDegrees>39.51189902611076831817626953125</LatitudeDegrees>
              <LongitudeDegrees>-0.5650970153510570526123046875</LongitudeDegrees>
            </Position>
            <AltitudeMeters>168.399993896484375</AltitudeMeters>
            <DistanceMeters>17057.933985173</DistanceMeters>
          </Trackpoint>
          <Trackpoint>
            <Time>2021-10-09T07:28:30.000Z</Time>
            <Position>
              <LatitudeDegrees>39.5119443722069263458251953125</LatitudeDegrees>
              <LongitudeDegrees>-0.5650864541530609130859375</LongitudeDegrees>
            </Position>
            <AltitudeMeters>168.399993896484375</AltitudeMeters>
            <DistanceMeters>17063.061907033</DistanceMeters>
          </Trackpoint>
          <Trackpoint>
            <Time>2021-10-09T07:28:31.000Z</Time>
            <Position>
              <LatitudeDegrees>39.5119909755885601043701171875</LatitudeDegrees>
              <LongitudeDegrees>-0.565075390040874481201171875</LongitudeDegrees>
            </Position>
            <AltitudeMeters>168.8000030517578125</AltitudeMeters>
            <DistanceMeters>17068.335675652</DistanceMeters>
          </Trackpoint>
          <Trackpoint>
            <Time>2021-10-09T07:28:32.000Z</Time>
            <Position>
              <LatitudeDegrees>39.51203799806535243988037109375</LatitudeDegrees>
              <LongitudeDegrees>-0.56506575085222721099853515625</LongitudeDegrees>
            </Position>
            <AltitudeMeters>168.8000030517578125</AltitudeMeters>
            <DistanceMeters>17073.633361712</DistanceMeters>
          </Trackpoint>
          <Trackpoint>
            <Time>2021-10-09T07:28:33.000Z</Time>
            <Position>
              <LatitudeDegrees>39.512085355818271636962890625</LatitudeDegrees>
              <LongitudeDegrees>-0.56505904532968997955322265625</LongitudeDegrees>
            </Position>
            <AltitudeMeters>169</AltitudeMeters>
            <DistanceMeters>17078.936158902</DistanceMeters>
          </Trackpoint>
          <Trackpoint>
            <Time>2021-10-09T07:28:34.000Z</Time>
            <Position>
              <LatitudeDegrees>39.51213355176150798797607421875</LatitudeDegrees>
              <LongitudeDegrees>-0.565052591264247894287109375</LongitudeDegrees>
            </Position>
            <AltitudeMeters>169.600006103515625</AltitudeMeters>
            <DistanceMeters>17084.328453975</DistanceMeters>
          </Trackpoint>
          <Trackpoint>
            <Time>2021-10-09T07:28:35.000Z</Time>
            <Position>
              <LatitudeDegrees>39.5121830888092517852783203125</LatitudeDegrees>
              <LongitudeDegrees>-0.56504596956074237823486328125</LongitudeDegrees>
            </Position>
            <AltitudeMeters>169.8000030517578125</AltitudeMeters>
            <DistanceMeters>17089.871045432</DistanceMeters>
          </Trackpoint>
          <Trackpoint>
            <Time>2021-10-09T07:28:36.000Z</Time>
            <Position>
              <LatitudeDegrees>39.51223363168537616729736328125</LatitudeDegrees>
              <LongitudeDegrees>-0.56503725238144397735595703125</LongitudeDegrees>
            </Position>
            <AltitudeMeters>170.399993896484375</AltitudeMeters>
            <DistanceMeters>17095.546455785</DistanceMeters>
          </Trackpoint>
          <Trackpoint>
            <Time>2021-10-09T07:28:37.000Z</Time>
            <Position>
              <LatitudeDegrees>39.51228325255215167999267578125</LatitudeDegrees>
              <LongitudeDegrees>-0.56502736173570156097412109375</LongitudeDegrees>
            </Position>
            <AltitudeMeters>170.399993896484375</AltitudeMeters>
            <DistanceMeters>17101.13447908</DistanceMeters>
          </Trackpoint>
          <Trackpoint>
            <Time>2021-10-09T07:28:38.000Z</Time>
            <Position>
              <LatitudeDegrees>39.51233421452343463897705078125</LatitudeDegrees>
              <LongitudeDegrees>-0.56501763872802257537841796875</LongitudeDegrees>
            </Position>
            <AltitudeMeters>170.399993896484375</AltitudeMeters>
            <DistanceMeters>17106.866882431</DistanceMeters>
          </Trackpoint>
          <Trackpoint>
            <Time>2021-10-09T07:28:39.000Z</Time>
            <Position>
              <LatitudeDegrees>39.5123879425227642059326171875</LatitudeDegrees>
              <LongitudeDegrees>-0.5650095082819461822509765625</LongitudeDegrees>
            </Position>
            <AltitudeMeters>170.399993896484375</AltitudeMeters>
            <DistanceMeters>17112.887407894</DistanceMeters>
          </Trackpoint>
          <Trackpoint>
            <Time>2021-10-09T07:28:40.000Z</Time>
            <Position>
              <LatitudeDegrees>39.51244133524596691131591796875</LatitudeDegrees>
              <LongitudeDegrees>-0.56500154547393321990966796875</LongitudeDegrees>
            </Position>
            <AltitudeMeters>170.399993896484375</AltitudeMeters>
            <DistanceMeters>17118.868809307</DistanceMeters>
          </Trackpoint>
          <Trackpoint>
            <Time>2021-10-09T07:28:41.000Z</Time>
            <Position>
              <LatitudeDegrees>39.5124962367117404937744140625</LatitudeDegrees>
              <LongitudeDegrees>-0.56499215774238109588623046875</LongitudeDegrees>
            </Position>
            <AltitudeMeters>170.399993896484375</AltitudeMeters>
            <DistanceMeters>17125.031641572</DistanceMeters>
          </Trackpoint>
          <Trackpoint>
            <Time>2021-10-09T07:28:42.000Z</Time>
            <Position>
              <LatitudeDegrees>39.5125518925487995147705078125</LatitudeDegrees>
              <LongitudeDegrees>-0.5649810098111629486083984375</LongitudeDegrees>
            </Position>
            <AltitudeMeters>170.399993896484375</AltitudeMeters>
            <DistanceMeters>17131.299083836</DistanceMeters>
          </Trackpoint>
          <Trackpoint>
            <Time>2021-10-09T07:28:43.000Z</Time>
            <Position>
              <LatitudeDegrees>39.51260746456682682037353515625</LatitudeDegrees>
              <LongitudeDegrees>-0.5649689398705959320068359375</LongitudeDegrees>
            </Position>
            <AltitudeMeters>170.399993896484375</AltitudeMeters>
            <DistanceMeters>17137.570846984</DistanceMeters>
          </Trackpoint>
          <Trackpoint>
            <Time>2021-10-09T07:28:44.000Z</Time>
            <Position>
              <LatitudeDegrees>39.5126635394990444183349609375</LatitudeDegrees>
              <LongitudeDegrees>-0.56495779193937778472900390625</LongitudeDegrees>
            </Position>
            <AltitudeMeters>170.399993896484375</AltitudeMeters>
            <DistanceMeters>17143.884941338</DistanceMeters>
          </Trackpoint>
          <Trackpoint>
            <Time>2021-10-09T07:28:45.000Z</Time>
            <Position>
              <LatitudeDegrees>39.5127220451831817626953125</LatitudeDegrees>
              <LongitudeDegrees>-0.5649494938552379608154296875</LongitudeDegrees>
            </Position>
            <AltitudeMeters>170.399993896484375</AltitudeMeters>
            <DistanceMeters>17150.435584303</DistanceMeters>
          </Trackpoint>
          <Trackpoint>
            <Time>2021-10-09T07:28:46.000Z</Time>
            <Position>
              <LatitudeDegrees>39.51277962885797023773193359375</LatitudeDegrees>
              <LongitudeDegrees>-0.5649407766759395599365234375</LongitudeDegrees>
            </Position>
            <AltitudeMeters>170.399993896484375</AltitudeMeters>
            <DistanceMeters>17156.887611303</DistanceMeters>
          </Trackpoint>
          <Trackpoint>
            <Time>2021-10-09T07:28:47.000Z</Time>
            <Position>
              <LatitudeDegrees>39.51283939182758331298828125</LatitudeDegrees>
              <LongitudeDegrees>-0.564929880201816558837890625</LongitudeDegrees>
            </Position>
            <AltitudeMeters>170.399993896484375</AltitudeMeters>
            <DistanceMeters>17163.604326416</DistanceMeters>
          </Trackpoint>
          <Trackpoint>
            <Time>2021-10-09T07:28:48.000Z</Time>
            <Position>
              <LatitudeDegrees>39.5129017531871795654296875</LatitudeDegrees>
              <LongitudeDegrees>-0.56491789408028125762939453125</LongitudeDegrees>
            </Position>
            <AltitudeMeters>170.1999969482421875</AltitudeMeters>
            <DistanceMeters>17170.620876621</DistanceMeters>
          </Trackpoint>
          <Trackpoint>
            <Time>2021-10-09T07:28:49.000Z</Time>
            <Position>
              <LatitudeDegrees>39.512966461479663848876953125</LatitudeDegrees>
              <LongitudeDegrees>-0.5649069137871265411376953125</LongitudeDegrees>
            </Position>
            <AltitudeMeters>170.1999969482421875</AltitudeMeters>
            <DistanceMeters>17177.884051311</DistanceMeters>
          </Trackpoint>
          <Trackpoint>
            <Time>2021-10-09T07:28:50.000Z</Time>
            <Position>
              <LatitudeDegrees>39.51303209178149700164794921875</LatitudeDegrees>
              <LongitudeDegrees>-0.564895682036876678466796875</LongitudeDegrees>
            </Position>
            <AltitudeMeters>170.1999969482421875</AltitudeMeters>
            <DistanceMeters>17185.252146016</DistanceMeters>
          </Trackpoint>
          <Trackpoint>
            <Time>2021-10-09T07:28:51.000Z</Time>
            <Position>
              <LatitudeDegrees>39.51309763826429843902587890625</LatitudeDegrees>
              <LongitudeDegrees>-0.56488369591534137725830078125</LongitudeDegrees>
            </Position>
            <AltitudeMeters>169.8000030517578125</AltitudeMeters>
            <DistanceMeters>17192.619627913</DistanceMeters>
          </Trackpoint>
          <Trackpoint>
            <Time>2021-10-09T07:28:52.000Z</Time>
            <Position>
              <LatitudeDegrees>39.513179361820220947265625</LatitudeDegrees>
              <LongitudeDegrees>-0.56486944667994976043701171875</LongitudeDegrees>
            </Position>
            <AltitudeMeters>169.600006103515625</AltitudeMeters>
            <DistanceMeters>17201.797949282</DistanceMeters>
          </Trackpoint>
          <Trackpoint>
            <Time>2021-10-09T07:28:53.000Z</Time>
            <Position>
              <LatitudeDegrees>39.5132341794669628143310546875</LatitudeDegrees>
              <LongitudeDegrees>-0.56486005894839763641357421875</LongitudeDegrees>
            </Position>
            <AltitudeMeters>169.600006103515625</AltitudeMeters>
            <DistanceMeters>17207.95198378</DistanceMeters>
          </Trackpoint>
          <Trackpoint>
            <Time>2021-10-09T07:28:54.000Z</Time>
            <Position>
              <LatitudeDegrees>39.513303749263286590576171875</LatitudeDegrees>
              <LongitudeDegrees>-0.5648475699126720428466796875</LongitudeDegrees>
            </Position>
            <AltitudeMeters>169.600006103515625</AltitudeMeters>
            <DistanceMeters>17215.769050193</DistanceMeters>
          </Trackpoint>
          <Trackpoint>
            <Time>2021-10-09T07:28:55.000Z</Time>
            <Position>
              <LatitudeDegrees>39.51337323524057865142822265625</LatitudeDegrees>
              <LongitudeDegrees>-0.5648348294198513031005859375</LongitudeDegrees>
            </Position>
            <AltitudeMeters>169.600006103515625</AltitudeMeters>
            <DistanceMeters>17223.58091659</DistanceMeters>
          </Trackpoint>
          <Trackpoint>
            <Time>2021-10-09T07:28:56.000Z</Time>
            <Position>
              <LatitudeDegrees>39.5134435594081878662109375</LatitudeDegrees>
              <LongitudeDegrees>-0.56482032872736454010009765625</LongitudeDegrees>
            </Position>
            <AltitudeMeters>169.600006103515625</AltitudeMeters>
            <DistanceMeters>17231.506395234</DistanceMeters>
          </Trackpoint>
          <Trackpoint>
            <Time>2021-10-09T07:28:57.000Z</Time>
            <Position>
              <LatitudeDegrees>39.5135161466896533966064453125</LatitudeDegrees>
              <LongitudeDegrees>-0.56480557657778263092041015625</LongitudeDegrees>
            </Position>
            <AltitudeMeters>169.1999969482421875</AltitudeMeters>
            <DistanceMeters>17239.684215613</DistanceMeters>
          </Trackpoint>
          <Trackpoint>
            <Time>2021-10-09T07:28:58.000Z</Time>
            <Position>
              <LatitudeDegrees>39.51359200291335582733154296875</LatitudeDegrees>
              <LongitudeDegrees>-0.56479266844689846038818359375</LongitudeDegrees>
            </Position>
            <AltitudeMeters>169.1999969482421875</AltitudeMeters>
            <DistanceMeters>17248.199584885</DistanceMeters>
          </Trackpoint>
          <Trackpoint>
            <Time>2021-10-09T07:28:59.000Z</Time>
            <Position>
              <LatitudeDegrees>39.51367062516510486602783203125</LatitudeDegrees>
              <LongitudeDegrees>-0.56478001177310943603515625</LongitudeDegrees>
            </Position>
            <AltitudeMeters>169</AltitudeMeters>
            <DistanceMeters>17257.018145898</DistanceMeters>
          </Trackpoint>
          <Trackpoint>
            <Time>2021-10-09T07:29:00.000Z</Time>
            <Position>
              <LatitudeDegrees>39.51375125907361507415771484375</LatitudeDegrees>
              <LongitudeDegrees>-0.56476551108062267303466796875</LongitudeDegrees>
            </Position>
            <AltitudeMeters>169</AltitudeMeters>
            <DistanceMeters>17266.078632913</DistanceMeters>
          </Trackpoint>
          <Trackpoint>
            <Time>2021-10-09T07:29:01.000Z</Time>
            <Position>
              <LatitudeDegrees>39.51383491046726703643798828125</LatitudeDegrees>
              <LongitudeDegrees>-0.564750842750072479248046875</LongitudeDegrees>
            </Position>
            <AltitudeMeters>168.8000030517578125</AltitudeMeters>
            <DistanceMeters>17275.474271652</DistanceMeters>
          </Trackpoint>
          <Trackpoint>
            <Time>2021-10-09T07:29:02.000Z</Time>
            <Position>
              <LatitudeDegrees>39.5139211602509021759033203125</LatitudeDegrees>
              <LongitudeDegrees>-0.564736090600490570068359375</LongitudeDegrees>
            </Position>
            <AltitudeMeters>168.399993896484375</AltitudeMeters>
            <DistanceMeters>17285.157209415</DistanceMeters>
          </Trackpoint>
          <Trackpoint>
            <Time>2021-10-09T07:29:03.000Z</Time>
            <Position>
              <LatitudeDegrees>39.51401017606258392333984375</LatitudeDegrees>
              <LongitudeDegrees>-0.56472142226994037628173828125</LongitudeDegrees>
            </Position>
            <AltitudeMeters>168.399993896484375</AltitudeMeters>
            <DistanceMeters>17295.144512575</DistanceMeters>
          </Trackpoint>
          <Trackpoint>
            <Time>2021-10-09T07:29:04.000Z</Time>
            <Position>
              <LatitudeDegrees>39.5140988565981388092041015625</LatitudeDegrees>
              <LongitudeDegrees>-0.5647104419767856597900390625</LongitudeDegrees>
            </Position>
            <AltitudeMeters>167.8000030517578125</AltitudeMeters>
            <DistanceMeters>17305.059674815</DistanceMeters>
          </Trackpoint>
          <Trackpoint>
            <Time>2021-10-09T07:29:05.000Z</Time>
            <Position>
              <LatitudeDegrees>39.51418929733335971832275390625</LatitudeDegrees>
              <LongitudeDegrees>-0.56469962932169437408447265625</LongitudeDegrees>
            </Position>
            <AltitudeMeters>167.600006103515625</AltitudeMeters>
            <DistanceMeters>17315.168748715</DistanceMeters>
          </Trackpoint>
          <Trackpoint>
            <Time>2021-10-09T07:29:06.000Z</Time>
            <Position>
              <LatitudeDegrees>39.51428133063018321990966796875</LatitudeDegrees>
              <LongitudeDegrees>-0.5646920017898082733154296875</LongitudeDegrees>
            </Position>
            <AltitudeMeters>167.1999969482421875</AltitudeMeters>
            <DistanceMeters>17325.43339347</DistanceMeters>
          </Trackpoint>
          <Trackpoint>
            <Time>2021-10-09T07:29:07.000Z</Time>
            <Position>
              <LatitudeDegrees>39.514374621212482452392578125</LatitudeDegrees>
              <LongitudeDegrees>-0.564689151942729949951171875</LongitudeDegrees>
            </Position>
            <AltitudeMeters>167</AltitudeMeters>
            <DistanceMeters>17335.820035048</DistanceMeters>
          </Trackpoint>
          <Trackpoint>
            <Time>2021-10-09T07:29:08.000Z</Time>
            <Position>
              <LatitudeDegrees>39.51446791179478168487548828125</LatitudeDegrees>
              <LongitudeDegrees>-0.5646896548569202423095703125</LongitudeDegrees>
            </Position>
            <AltitudeMeters>166.600006103515625</AltitudeMeters>
            <DistanceMeters>17346.203633304</DistanceMeters>
          </Trackpoint>
          <Trackpoint>
            <Time>2021-10-09T07:29:09.000Z</Time>
            <Position>
              <LatitudeDegrees>39.51456262730062007904052734375</LatitudeDegrees>
              <LongitudeDegrees>-0.56469610892236232757568359375</LongitudeDegrees>
            </Position>
            <AltitudeMeters>166.1999969482421875</AltitudeMeters>
            <DistanceMeters>17356.760156093</DistanceMeters>
          </Trackpoint>
          <Trackpoint>
            <Time>2021-10-09T07:29:10.000Z</Time>
            <Position>
              <LatitudeDegrees>39.51465717516839504241943359375</LatitudeDegrees>
              <LongitudeDegrees>-0.56470759212970733642578125</LongitudeDegrees>
            </Position>
            <AltitudeMeters>165.600006103515625</AltitudeMeters>
            <DistanceMeters>17367.329929306</DistanceMeters>
          </Trackpoint>
          <Trackpoint>
            <Time>2021-10-09T07:29:11.000Z</Time>
            <Position>
              <LatitudeDegrees>39.5147513039410114288330078125</LatitudeDegrees>
              <LongitudeDegrees>-0.564723350107669830322265625</LongitudeDegrees>
            </Position>
            <AltitudeMeters>165.1999969482421875</AltitudeMeters>
            <DistanceMeters>17377.894147912</DistanceMeters>
          </Trackpoint>
          <Trackpoint>
            <Time>2021-10-09T07:29:12.000Z</Time>
            <Position>
              <LatitudeDegrees>39.51484425924718379974365234375</LatitudeDegrees>
              <LongitudeDegrees>-0.564742125570774078369140625</LongitudeDegrees>
            </Position>
            <AltitudeMeters>164.8000030517578125</AltitudeMeters>
            <DistanceMeters>17388.365212241</DistanceMeters>
          </Trackpoint>
          <Trackpoint>
            <Time>2021-10-09T07:29:13.000Z</Time>
            <Position>
              <LatitudeDegrees>39.51493713073432445526123046875</LatitudeDegrees>
              <LongitudeDegrees>-0.5647645890712738037109375</LongitudeDegrees>
            </Position>
            <AltitudeMeters>164.600006103515625</AltitudeMeters>
            <DistanceMeters>17398.880166163</DistanceMeters>
          </Trackpoint>
          <Trackpoint>
            <Time>2021-10-09T07:29:14.000Z</Time>
            <Position>
              <LatitudeDegrees>39.5150302536785602569580078125</LatitudeDegrees>
              <LongitudeDegrees>-0.56479384191334247589111328125</LongitudeDegrees>
            </Position>
            <AltitudeMeters>164.399993896484375</AltitudeMeters>
            <DistanceMeters>17409.545195131</DistanceMeters>
          </Trackpoint>
          <Trackpoint>
            <Time>2021-10-09T07:29:15.000Z</Time>
            <Position>
              <LatitudeDegrees>39.5151237957179546356201171875</LatitudeDegrees>
              <LongitudeDegrees>-0.56482552550733089447021484375</LongitudeDegrees>
            </Position>
            <AltitudeMeters>163.600006103515625</AltitudeMeters>
            <DistanceMeters>17420.306314976</DistanceMeters>
          </Trackpoint>
          <Trackpoint>
            <Time>2021-10-09T07:29:16.000Z</Time>
            <Position>
              <LatitudeDegrees>39.5152146555483341217041015625</LatitudeDegrees>
              <LongitudeDegrees>-0.56485838256776332855224609375</LongitudeDegrees>
            </Position>
            <AltitudeMeters>163.1999969482421875</AltitudeMeters>
            <DistanceMeters>17430.804939318</DistanceMeters>
          </Trackpoint>
          <Trackpoint>
            <Time>2021-10-09T07:29:17.000Z</Time>
            <Position>
              <LatitudeDegrees>39.5153058506548404693603515625</LatitudeDegrees>
              <LongitudeDegrees>-0.56489400565624237060546875</LongitudeDegrees>
            </Position>
            <AltitudeMeters>162.8000030517578125</AltitudeMeters>
            <DistanceMeters>17441.405423801</DistanceMeters>
          </Trackpoint>
          <Trackpoint>
            <Time>2021-10-09T07:29:18.000Z</Time>
            <Position>
              <LatitudeDegrees>39.51539645902812480926513671875</LatitudeDegrees>
              <LongitudeDegrees>-0.5649330653250217437744140625</LongitudeDegrees>
            </Position>
            <AltitudeMeters>162.1999969482421875</AltitudeMeters>
            <DistanceMeters>17452.033132687</DistanceMeters>
          </Trackpoint>
          <Trackpoint>
            <Time>2021-10-09T07:29:19.000Z</Time>
            <Position>
              <LatitudeDegrees>39.5154874026775360107421875</LatitudeDegrees>
              <LongitudeDegrees>-0.56497044861316680908203125</LongitudeDegrees>
            </Position>
            <AltitudeMeters>161.8000030517578125</AltitudeMeters>
            <DistanceMeters>17462.651916259</DistanceMeters>
          </Trackpoint>
          <Trackpoint>
            <Time>2021-10-09T07:29:20.000Z</Time>
            <Position>
              <LatitudeDegrees>39.51557834632694721221923828125</LatitudeDegrees>
              <LongitudeDegrees>-0.56500959210097789764404296875</LongitudeDegrees>
            </Position>
            <AltitudeMeters>161.399993896484375</AltitudeMeters>
            <DistanceMeters>17473.317791893</DistanceMeters>
          </Trackpoint>
          <Trackpoint>
            <Time>2021-10-09T07:29:21.000Z</Time>
            <Position>
              <LatitudeDegrees>39.51566954143345355987548828125</LatitudeDegrees>
              <LongitudeDegrees>-0.5650487355887889862060546875</LongitudeDegrees>
            </Position>
            <AltitudeMeters>161.1999969482421875</AltitudeMeters>
            <DistanceMeters>17484.009880921</DistanceMeters>
          </Trackpoint>
          <Trackpoint>
            <Time>2021-10-09T07:29:22.000Z</Time>
            <Position>
              <LatitudeDegrees>39.5157621614634990692138671875</LatitudeDegrees>
              <LongitudeDegrees>-0.56508687324821949005126953125</LongitudeDegrees>
            </Position>
            <AltitudeMeters>160.600006103515625</AltitudeMeters>
            <DistanceMeters>17494.826242158</DistanceMeters>
          </Trackpoint>
          <Trackpoint>
            <Time>2021-10-09T07:29:23.000Z</Time>
            <Position>
              <LatitudeDegrees>39.5158533565700054168701171875</LatitudeDegrees>
              <LongitudeDegrees>-0.56512375362217426300048828125</LongitudeDegrees>
            </Position>
            <AltitudeMeters>160.1999969482421875</AltitudeMeters>
            <DistanceMeters>17505.459047859</DistanceMeters>
          </Trackpoint>
          <Trackpoint>
            <Time>2021-10-09T07:29:24.000Z</Time>
            <Position>
              <LatitudeDegrees>39.51594530604779720306396484375</LatitudeDegrees>
              <LongitudeDegrees>-0.56516214273869991302490234375</LongitudeDegrees>
            </Position>
            <AltitudeMeters>160</AltitudeMeters>
            <DistanceMeters>17516.210933212</DistanceMeters>
          </Trackpoint>
          <Trackpoint>
            <Time>2021-10-09T07:29:25.000Z</Time>
            <Position>
              <LatitudeDegrees>39.5160390995442867279052734375</LatitudeDegrees>
              <LongitudeDegrees>-0.56520187295973300933837890625</LongitudeDegrees>
            </Position>
            <AltitudeMeters>159.600006103515625</AltitudeMeters>
            <DistanceMeters>17527.19381813</DistanceMeters>
          </Trackpoint>
          <Trackpoint>
            <Time>2021-10-09T07:29:26.000Z</Time>
            <Position>
              <LatitudeDegrees>39.51613339595496654510498046875</LatitudeDegrees>
              <LongitudeDegrees>-0.5652445368468761444091796875</LongitudeDegrees>
            </Position>
            <AltitudeMeters>159.399993896484375</AltitudeMeters>
            <DistanceMeters>17538.310319205</DistanceMeters>
          </Trackpoint>
          <Trackpoint>
            <Time>2021-10-09T07:29:27.000Z</Time>
            <Position>
              <LatitudeDegrees>39.51622744090855121612548828125</LatitudeDegrees>
              <LongitudeDegrees>-0.56528602726757526397705078125</LongitudeDegrees>
            </Position>
            <AltitudeMeters>159</AltitudeMeters>
            <DistanceMeters>17549.367362434</DistanceMeters>
          </Trackpoint>
          <Trackpoint>
            <Time>2021-10-09T07:29:28.000Z</Time>
            <Position>
              <LatitudeDegrees>39.516321904957294464111328125</LatitudeDegrees>
              <LongitudeDegrees>-0.5653273500502109527587890625</LongitudeDegrees>
            </Position>
            <AltitudeMeters>158.8000030517578125</AltitudeMeters>
            <DistanceMeters>17560.463537104</DistanceMeters>
          </Trackpoint>
          <Trackpoint>
            <Time>2021-10-09T07:29:29.000Z</Time>
            <Position>
              <LatitudeDegrees>39.51641284860670566558837890625</LatitudeDegrees>
              <LongitudeDegrees>-0.5653695948421955108642578125</LongitudeDegrees>
            </Position>
            <AltitudeMeters>158.1999969482421875</AltitudeMeters>
            <DistanceMeters>17571.216262284</DistanceMeters>
          </Trackpoint>
          <Trackpoint>
            <Time>2021-10-09T07:29:30.000Z</Time>
            <Position>
              <LatitudeDegrees>39.51650404371321201324462890625</LatitudeDegrees>
              <LongitudeDegrees>-0.565411336719989776611328125</LongitudeDegrees>
            </Position>
            <AltitudeMeters>157.600006103515625</AltitudeMeters>
            <DistanceMeters>17581.980738162</DistanceMeters>
          </Trackpoint>
          <Trackpoint>
            <Time>2021-10-09T07:29:31.000Z</Time>
            <Position>
              <LatitudeDegrees>39.51659507118165493011474609375</LatitudeDegrees>
              <LongitudeDegrees>-0.56545182131230831146240234375</LongitudeDegrees>
            </Position>
            <AltitudeMeters>157.600006103515625</AltitudeMeters>
            <DistanceMeters>17592.691391323</DistanceMeters>
          </Trackpoint>
          <Trackpoint>
            <Time>2021-10-09T07:29:32.000Z</Time>
            <Position>
              <LatitudeDegrees>39.51668626628816127777099609375</LatitudeDegrees>
              <LongitudeDegrees>-0.56549322791397571563720703125</LongitudeDegrees>
            </Position>
            <AltitudeMeters>157.1999969482421875</AltitudeMeters>
            <DistanceMeters>17603.446215784</DistanceMeters>
          </Trackpoint>
          <Trackpoint>
            <Time>2021-10-09T07:29:33.000Z</Time>
            <Position>
              <LatitudeDegrees>39.51677846722304821014404296875</LatitudeDegrees>
              <LongitudeDegrees>-0.56553429923951625823974609375</LongitudeDegrees>
            </Position>
            <AltitudeMeters>157.1999969482421875</AltitudeMeters>
            <DistanceMeters>17614.297584215</DistanceMeters>
          </Trackpoint>
          <Trackpoint>
            <Time>2021-10-09T07:29:34.000Z</Time>
            <Position>
              <LatitudeDegrees>39.5168695785105228424072265625</LatitudeDegrees>
              <LongitudeDegrees>-0.56557268835604190826416015625</LongitudeDegrees>
            </Position>
            <AltitudeMeters>156.8000030517578125</AltitudeMeters>
            <DistanceMeters>17624.960919649</DistanceMeters>
          </Trackpoint>
          <Trackpoint>
            <Time>2021-10-09T07:29:35.000Z</Time>
            <Position>
              <LatitudeDegrees>39.51695834286510944366455078125</LatitudeDegrees>
              <LongitudeDegrees>-0.56561124511063098907470703125</LongitudeDegrees>
            </Position>
            <AltitudeMeters>156.399993896484375</AltitudeMeters>
            <DistanceMeters>17635.380112468</DistanceMeters>
          </Trackpoint>
          <Trackpoint>
            <Time>2021-10-09T07:29:36.000Z</Time>
            <Position>
              <LatitudeDegrees>39.517048783600330352783203125</LatitudeDegrees>
              <LongitudeDegrees>-0.56564896367490291595458984375</LongitudeDegrees>
            </Position>
            <AltitudeMeters>156</AltitudeMeters>
            <DistanceMeters>17645.95501042</DistanceMeters>
          </Trackpoint>
          <Trackpoint>
            <Time>2021-10-09T07:29:37.000Z</Time>
            <Position>
              <LatitudeDegrees>39.51713972724974155426025390625</LatitudeDegrees>
              <LongitudeDegrees>-0.565687604248523712158203125</LongitudeDegrees>
            </Position>
            <AltitudeMeters>155.8000030517578125</AltitudeMeters>
            <DistanceMeters>17656.607331322</DistanceMeters>
          </Trackpoint>
          <Trackpoint>
            <Time>2021-10-09T07:29:38.000Z</Time>
            <Position>
              <LatitudeDegrees>39.517229497432708740234375</LatitudeDegrees>
              <LongitudeDegrees>-0.56572406552731990814208984375</LongitudeDegrees>
            </Position>
            <AltitudeMeters>155.600006103515625</AltitudeMeters>
            <DistanceMeters>17667.07796445</DistanceMeters>
          </Trackpoint>
          <Trackpoint>
            <Time>2021-10-09T07:29:39.000Z</Time>
            <Position>
              <LatitudeDegrees>39.51731809414923191070556640625</LatitudeDegrees>
              <LongitudeDegrees>-0.56576128117740154266357421875</LongitudeDegrees>
            </Position>
            <AltitudeMeters>155.399993896484375</AltitudeMeters>
            <DistanceMeters>17677.443719589</DistanceMeters>
          </Trackpoint>
          <Trackpoint>
            <Time>2021-10-09T07:29:40.000Z</Time>
            <Position>
              <LatitudeDegrees>39.51740719377994537353515625</LatitudeDegrees>
              <LongitudeDegrees>-0.56579983793199062347412109375</LongitudeDegrees>
            </Position>
            <AltitudeMeters>155.1999969482421875</AltitudeMeters>
            <DistanceMeters>17687.898385785</DistanceMeters>
          </Trackpoint>
          <Trackpoint>
            <Time>2021-10-09T07:29:41.000Z</Time>
            <Position>
              <LatitudeDegrees>39.5174962095916271209716796875</LatitudeDegrees>
              <LongitudeDegrees>-0.5658366344869136810302734375</LongitudeDegrees>
            </Position>
            <AltitudeMeters>154.8000030517578125</AltitudeMeters>
            <DistanceMeters>17698.297625926</DistanceMeters>
          </Trackpoint>
          <Trackpoint>
            <Time>2021-10-09T07:29:42.000Z</Time>
            <Position>
              <LatitudeDegrees>39.5175853930413722991943359375</LatitudeDegrees>
              <LongitudeDegrees>-0.56587007828056812286376953125</LongitudeDegrees>
            </Position>
            <AltitudeMeters>154.600006103515625</AltitudeMeters>
            <DistanceMeters>17708.630661485</DistanceMeters>
          </Trackpoint>
          <Trackpoint>
            <Time>2021-10-09T07:29:43.000Z</Time>
            <Position>
              <LatitudeDegrees>39.51767398975789546966552734375</LatitudeDegrees>
              <LongitudeDegrees>-0.5659046955406665802001953125</LongitudeDegrees>
            </Position>
            <AltitudeMeters>154.1999969482421875</AltitudeMeters>
            <DistanceMeters>17718.929558412</DistanceMeters>
          </Trackpoint>
          <Trackpoint>
            <Time>2021-10-09T07:29:44.000Z</Time>
            <Position>
              <LatitudeDegrees>39.5177610777318477630615234375</LatitudeDegrees>
              <LongitudeDegrees>-0.56594149209558963775634765625</LongitudeDegrees>
            </Position>
            <AltitudeMeters>154</AltitudeMeters>
            <DistanceMeters>17729.124025038</DistanceMeters>
          </Trackpoint>
          <Trackpoint>
            <Time>2021-10-09T07:29:45.000Z</Time>
            <Position>
              <LatitudeDegrees>39.517849422991275787353515625</LatitudeDegrees>
              <LongitudeDegrees>-0.56597854010760784149169921875</LongitudeDegrees>
            </Position>
            <AltitudeMeters>153.8000030517578125</AltitudeMeters>
            <DistanceMeters>17739.458808257</DistanceMeters>
          </Trackpoint>
          <Trackpoint>
            <Time>2021-10-09T07:29:46.000Z</Time>
            <Position>
              <LatitudeDegrees>39.51793961226940155029296875</LatitudeDegrees>
              <LongitudeDegrees>-0.56601642630994319915771484375</LongitudeDegrees>
            </Position>
            <AltitudeMeters>153.399993896484375</AltitudeMeters>
            <DistanceMeters>17750.011481033</DistanceMeters>
          </Trackpoint>
          <Trackpoint>
            <Time>2021-10-09T07:29:47.000Z</Time>
            <Position>
              <LatitudeDegrees>39.518029801547527313232421875</LatitudeDegrees>
              <LongitudeDegrees>-0.56605615653097629547119140625</LongitudeDegrees>
            </Position>
            <AltitudeMeters>153.1999969482421875</AltitudeMeters>
            <DistanceMeters>17760.613669089</DistanceMeters>
          </Trackpoint>
          <Trackpoint>
            <Time>2021-10-09T07:29:48.000Z</Time>
            <Position>
              <LatitudeDegrees>39.518119655549526214599609375</LatitudeDegrees>
              <LongitudeDegrees>-0.5660961382091045379638671875</LongitudeDegrees>
            </Position>
            <AltitudeMeters>152.600006103515625</AltitudeMeters>
            <DistanceMeters>17771.187286088</DistanceMeters>
          </Trackpoint>
          <Trackpoint>
            <Time>2021-10-09T07:29:49.000Z</Time>
            <Position>
              <LatitudeDegrees>39.5182116888463497161865234375</LatitudeDegrees>
              <LongitudeDegrees>-0.5661363713443279266357421875</LongitudeDegrees>
            </Position>
            <AltitudeMeters>152.399993896484375</AltitudeMeters>
            <DistanceMeters>17781.997801771</DistanceMeters>
          </Trackpoint>
          <Trackpoint>
            <Time>2021-10-09T07:29:50.000Z</Time>
            <Position>
              <LatitudeDegrees>39.51830397360026836395263671875</LatitudeDegrees>
              <LongitudeDegrees>-0.56617719121277332305908203125</LongitudeDegrees>
            </Position>
            <AltitudeMeters>152</AltitudeMeters>
            <DistanceMeters>17792.850834395</DistanceMeters>
          </Trackpoint>
          <Trackpoint>
            <Time>2021-10-09T07:29:51.000Z</Time>
            <Position>
              <LatitudeDegrees>39.51839399524033069610595703125</LatitudeDegrees>
              <LongitudeDegrees>-0.56622035801410675048828125</LongitudeDegrees>
            </Position>
            <AltitudeMeters>151.600006103515625</AltitudeMeters>
            <DistanceMeters>17803.533629259</DistanceMeters>
          </Trackpoint>
          <Trackpoint>
            <Time>2021-10-09T07:29:52.000Z</Time>
            <Position>
              <LatitudeDegrees>39.51848351396620273590087890625</LatitudeDegrees>
              <LongitudeDegrees>-0.56626251898705959320068359375</LongitudeDegrees>
            </Position>
            <AltitudeMeters>151.1999969482421875</AltitudeMeters>
            <DistanceMeters>17814.134113742</DistanceMeters>
          </Trackpoint>
          <Trackpoint>
            <Time>2021-10-09T07:29:53.000Z</Time>
            <Position>
              <LatitudeDegrees>39.51857269741594791412353515625</LatitudeDegrees>
              <LongitudeDegrees>-0.56630216538906097412109375</LongitudeDegrees>
            </Position>
            <AltitudeMeters>150.600006103515625</AltitudeMeters>
            <DistanceMeters>17824.627576095</DistanceMeters>
          </Trackpoint>
          <Trackpoint>
            <Time>2021-10-09T07:29:54.000Z</Time>
            <Position>
              <LatitudeDegrees>39.518661461770534515380859375</LatitudeDegrees>
              <LongitudeDegrees>-0.5663402192294597625732421875</LongitudeDegrees>
            </Position>
            <AltitudeMeters>150.399993896484375</AltitudeMeters>
            <DistanceMeters>17835.033326747</DistanceMeters>
          </Trackpoint>
          <Trackpoint>
            <Time>2021-10-09T07:29:55.000Z</Time>
            <Position>
              <LatitudeDegrees>39.51875022612512111663818359375</LatitudeDegrees>
              <LongitudeDegrees>-0.566378273069858551025390625</LongitudeDegrees>
            </Position>
            <AltitudeMeters>150.1999969482421875</AltitudeMeters>
            <DistanceMeters>17845.439511289</DistanceMeters>
          </Trackpoint>
          <Trackpoint>
            <Time>2021-10-09T07:29:56.000Z</Time>
            <Position>
              <LatitudeDegrees>39.518836475908756256103515625</LatitudeDegrees>
              <LongitudeDegrees>-0.56641389615833759307861328125</LongitudeDegrees>
            </Position>
            <AltitudeMeters>149.8000030517578125</AltitudeMeters>
            <DistanceMeters>17855.515032088</DistanceMeters>
          </Trackpoint>
          <Trackpoint>
            <Time>2021-10-09T07:29:57.000Z</Time>
            <Position>
              <LatitudeDegrees>39.5189211331307888031005859375</LatitudeDegrees>
              <LongitudeDegrees>-0.5664485134184360504150390625</LongitudeDegrees>
            </Position>
            <AltitudeMeters>149.600006103515625</AltitudeMeters>
            <DistanceMeters>17865.395068847</DistanceMeters>
          </Trackpoint>
          <Trackpoint>
            <Time>2021-10-09T07:29:58.000Z</Time>
            <Position>
              <LatitudeDegrees>39.519006125628948211669921875</LatitudeDegrees>
              <LongitudeDegrees>-0.56648044846951961517333984375</LongitudeDegrees>
            </Position>
            <AltitudeMeters>149.399993896484375</AltitudeMeters>
            <DistanceMeters>17875.244898354</DistanceMeters>
          </Trackpoint>
          <Trackpoint>
            <Time>2021-10-09T07:29:59.000Z</Time>
            <Position>
              <LatitudeDegrees>39.5190887711942195892333984375</LatitudeDegrees>
              <LongitudeDegrees>-0.56651464663445949554443359375</LongitudeDegrees>
            </Position>
            <AltitudeMeters>149.1999969482421875</AltitudeMeters>
            <DistanceMeters>17884.901688682</DistanceMeters>
          </Trackpoint>
          <Trackpoint>
            <Time>2021-10-09T07:30:00.000Z</Time>
            <Position>
              <LatitudeDegrees>39.519173093140125274658203125</LatitudeDegrees>
              <LongitudeDegrees>-0.56655186228454113006591796875</LongitudeDegrees>
            </Position>
            <AltitudeMeters>149.1999969482421875</AltitudeMeters>
            <DistanceMeters>17894.816395545</DistanceMeters>
          </Trackpoint>
          <Trackpoint>
            <Time>2021-10-09T07:30:01.000Z</Time>
            <Position>
              <LatitudeDegrees>39.51925800181925296783447265625</LatitudeDegrees>
              <LongitudeDegrees>-0.56658740155398845672607421875</LongitudeDegrees>
            </Position>
            <AltitudeMeters>149</AltitudeMeters>
            <DistanceMeters>17904.747028195</DistanceMeters>
          </Trackpoint>
          <Trackpoint>
            <Time>2021-10-09T07:30:02.000Z</Time>
            <Position>
              <LatitudeDegrees>39.5193244703114032745361328125</LatitudeDegrees>
              <LongitudeDegrees>-0.56661774404346942901611328125</LongitudeDegrees>
            </Position>
            <AltitudeMeters>148.8000030517578125</AltitudeMeters>
            <DistanceMeters>17912.590042969</DistanceMeters>
          </Trackpoint>
          <Trackpoint>
            <Time>2021-10-09T07:30:03.000Z</Time>
            <Position>
              <LatitudeDegrees>39.51942429877817630767822265625</LatitudeDegrees>
              <LongitudeDegrees>-0.56666350923478603363037109375</LongitudeDegrees>
            </Position>
            <AltitudeMeters>148.8000030517578125</AltitudeMeters>
            <DistanceMeters>17924.37488814</DistanceMeters>
          </Trackpoint>
          <Trackpoint>
            <Time>2021-10-09T07:30:04.000Z</Time>
            <Position>
              <LatitudeDegrees>39.5195095427334308624267578125</LatitudeDegrees>
              <LongitudeDegrees>-0.56670290417969226837158203125</LongitudeDegrees>
            </Position>
            <AltitudeMeters>148.600006103515625</AltitudeMeters>
            <DistanceMeters>17934.446823345</DistanceMeters>
          </Trackpoint>
          <Trackpoint>
            <Time>2021-10-09T07:30:05.000Z</Time>
            <Position>
              <LatitudeDegrees>39.51959453523159027099609375</LatitudeDegrees>
              <LongitudeDegrees>-0.56674070656299591064453125</LongitudeDegrees>
            </Position>
            <AltitudeMeters>148.399993896484375</AltitudeMeters>
            <DistanceMeters>17944.447679643</DistanceMeters>
          </Trackpoint>
          <Trackpoint>
            <Time>2021-10-09T07:30:06.000Z</Time>
            <Position>
              <LatitudeDegrees>39.5196627639234066009521484375</LatitudeDegrees>
              <LongitudeDegrees>-0.56677130050957202911376953125</LongitudeDegrees>
            </Position>
            <AltitudeMeters>148.1999969482421875</AltitudeMeters>
            <DistanceMeters>17952.483479332</DistanceMeters>
          </Trackpoint>
          <Trackpoint>
            <Time>2021-10-09T07:30:07.000Z</Time>
            <Position>
              <LatitudeDegrees>39.51976460404694080352783203125</LatitudeDegrees>
              <LongitudeDegrees>-0.56681639514863491058349609375</LongitudeDegrees>
            </Position>
            <AltitudeMeters>148</AltitudeMeters>
            <DistanceMeters>17964.461746512</DistanceMeters>
          </Trackpoint>
          <Trackpoint>
            <Time>2021-10-09T07:30:08.000Z</Time>
            <Position>
              <LatitudeDegrees>39.51984800398349761962890625</LatitudeDegrees>
              <LongitudeDegrees>-0.56685344316065311431884765625</LongitudeDegrees>
            </Position>
            <AltitudeMeters>147.8000030517578125</AltitudeMeters>
            <DistanceMeters>17974.274836504</DistanceMeters>
          </Trackpoint>
          <Trackpoint>
            <Time>2021-10-09T07:30:09.000Z</Time>
            <Position>
              <LatitudeDegrees>39.519932158291339874267578125</LatitudeDegrees>
              <LongitudeDegrees>-0.56689434684813022613525390625</LongitudeDegrees>
            </Position>
            <AltitudeMeters>147.600006103515625</AltitudeMeters>
            <DistanceMeters>17984.278401226</DistanceMeters>
          </Trackpoint>
          <Trackpoint>
            <Time>2021-10-09T07:30:10.000Z</Time>
            <Position>
              <LatitudeDegrees>39.52001631259918212890625</LatitudeDegrees>
              <LongitudeDegrees>-0.56693960912525653839111328125</LongitudeDegrees>
            </Position>
            <AltitudeMeters>147.399993896484375</AltitudeMeters>
            <DistanceMeters>17994.419136434</DistanceMeters>
          </Trackpoint>
          <Trackpoint>
            <Time>2021-10-09T07:30:11.000Z</Time>
            <Position>
              <LatitudeDegrees>39.52008244581520557403564453125</LatitudeDegrees>
              <LongitudeDegrees>-0.56697950698435306549072265625</LongitudeDegrees>
            </Position>
            <AltitudeMeters>147.1999969482421875</AltitudeMeters>
            <DistanceMeters>18002.538222468</DistanceMeters>
          </Trackpoint>
          <Trackpoint>
            <Time>2021-10-09T07:30:12.000Z</Time>
            <Position>
              <LatitudeDegrees>39.52016240917146205902099609375</LatitudeDegrees>
              <LongitudeDegrees>-0.5670308880507946014404296875</LongitudeDegrees>
            </Position>
            <AltitudeMeters>147</AltitudeMeters>
            <DistanceMeters>18012.47158269</DistanceMeters>
          </Trackpoint>
          <Trackpoint>
            <Time>2021-10-09T07:30:13.000Z</Time>
            <Position>
              <LatitudeDegrees>39.5202572084963321685791015625</LatitudeDegrees>
              <LongitudeDegrees>-0.5670969374477863311767578125</LongitudeDegrees>
            </Position>
            <AltitudeMeters>147</AltitudeMeters>
            <DistanceMeters>18024.4502268</DistanceMeters>
          </Trackpoint>
          <Trackpoint>
            <Time>2021-10-09T07:30:14.000Z</Time>
            <Position>
              <LatitudeDegrees>39.520337842404842376708984375</LatitudeDegrees>
              <LongitudeDegrees>-0.56715619750320911407470703125</LongitudeDegrees>
            </Position>
            <AltitudeMeters>146.8000030517578125</AltitudeMeters>
            <DistanceMeters>18034.76664483</DistanceMeters>
          </Trackpoint>
          <Trackpoint>
            <Time>2021-10-09T07:30:15.000Z</Time>
            <Position>
              <LatitudeDegrees>39.520414955914020538330078125</LatitudeDegrees>
              <LongitudeDegrees>-0.5672206543385982513427734375</LongitudeDegrees>
            </Position>
            <AltitudeMeters>146.8000030517578125</AltitudeMeters>
            <DistanceMeters>18044.978811732</DistanceMeters>
          </Trackpoint>
          <Trackpoint>
            <Time>2021-10-09T07:30:16.000Z</Time>
            <Position>
              <LatitudeDegrees>39.5204897224903106689453125</LatitudeDegrees>
              <LongitudeDegrees>-0.56728779338300228118896484375</LongitudeDegrees>
            </Position>
            <AltitudeMeters>146.600006103515625</AltitudeMeters>
            <DistanceMeters>18055.101721763</DistanceMeters>
          </Trackpoint>
          <Trackpoint>
            <Time>2021-10-09T07:30:17.000Z</Time>
            <Position>
              <LatitudeDegrees>39.5205636508762836456298828125</LatitudeDegrees>
              <LongitudeDegrees>-0.5673574469983577728271484375</LongitudeDegrees>
            </Position>
            <AltitudeMeters>146.399993896484375</AltitudeMeters>
            <DistanceMeters>18065.273575866</DistanceMeters>
          </Trackpoint>
          <Trackpoint>
            <Time>2021-10-09T07:30:18.000Z</Time>
            <Position>
              <LatitudeDegrees>39.520634226500988006591796875</LatitudeDegrees>
              <LongitudeDegrees>-0.5674308724701404571533203125</LongitudeDegrees>
            </Position>
            <AltitudeMeters>146.1999969482421875</AltitudeMeters>
            <DistanceMeters>18075.345511071</DistanceMeters>
          </Trackpoint>
          <Trackpoint>
            <Time>2021-10-09T07:30:19.000Z</Time>
            <Position>
              <LatitudeDegrees>39.52070455066859722137451171875</LatitudeDegrees>
              <LongitudeDegrees>-0.56750237010419368743896484375</LongitudeDegrees>
            </Position>
            <AltitudeMeters>145.8000030517578125</AltitudeMeters>
            <DistanceMeters>18085.292951831</DistanceMeters>
          </Trackpoint>
          <Trackpoint>
            <Time>2021-10-09T07:30:20.000Z</Time>
            <Position>
              <LatitudeDegrees>39.52077378518879413604736328125</LatitudeDegrees>
              <LongitudeDegrees>-0.56757328100502490997314453125</LongitudeDegrees>
            </Position>
            <AltitudeMeters>145.8000030517578125</AltitudeMeters>
            <DistanceMeters>18095.114320197</DistanceMeters>
          </Trackpoint>
          <Trackpoint>
            <Time>2021-10-09T07:30:21.000Z</Time>
            <Position>
              <LatitudeDegrees>39.520840756595134735107421875</LatitudeDegrees>
              <LongitudeDegrees>-0.5676461197435855865478515625</LongitudeDegrees>
            </Position>
            <AltitudeMeters>145.399993896484375</AltitudeMeters>
            <DistanceMeters>18104.845167107</DistanceMeters>
          </Trackpoint>
          <Trackpoint>
            <Time>2021-10-09T07:30:22.000Z</Time>
            <Position>
              <LatitudeDegrees>39.52090588398277759552001953125</LatitudeDegrees>
              <LongitudeDegrees>-0.56771828792989253997802734375</LongitudeDegrees>
            </Position>
            <AltitudeMeters>145.399993896484375</AltitudeMeters>
            <DistanceMeters>18114.38151336</DistanceMeters>
          </Trackpoint>
          <Trackpoint>
            <Time>2021-10-09T07:30:23.000Z</Time>
            <Position>
              <LatitudeDegrees>39.52096858061850070953369140625</LatitudeDegrees>
              <LongitudeDegrees>-0.56778903119266033172607421875</LongitudeDegrees>
            </Position>
            <AltitudeMeters>145</AltitudeMeters>
            <DistanceMeters>18123.632841078</DistanceMeters>
          </Trackpoint>
          <Trackpoint>
            <Time>2021-10-09T07:30:24.000Z</Time>
            <Position>
              <LatitudeDegrees>39.5210303552448749542236328125</LatitudeDegrees>
              <LongitudeDegrees>-0.56786052882671356201171875</LongitudeDegrees>
            </Position>
            <AltitudeMeters>145</AltitudeMeters>
            <DistanceMeters>18132.84994253</DistanceMeters>
          </Trackpoint>
          <Trackpoint>
            <Time>2021-10-09T07:30:25.000Z</Time>
            <Position>
              <LatitudeDegrees>39.52109120786190032958984375</LatitudeDegrees>
              <LongitudeDegrees>-0.567929930984973907470703125</LongitudeDegrees>
            </Position>
            <AltitudeMeters>144.8000030517578125</AltitudeMeters>
            <DistanceMeters>18141.870475709</DistanceMeters>
          </Trackpoint>
          <Trackpoint>
            <Time>2021-10-09T07:30:26.000Z</Time>
            <Position>
              <LatitudeDegrees>39.5211500488221645355224609375</LatitudeDegrees>
              <LongitudeDegrees>-0.56799774058163166046142578125</LongitudeDegrees>
            </Position>
            <AltitudeMeters>144.8000030517578125</AltitudeMeters>
            <DistanceMeters>18150.633567064</DistanceMeters>
          </Trackpoint>
          <Trackpoint>
            <Time>2021-10-09T07:30:27.000Z</Time>
            <Position>
              <LatitudeDegrees>39.5212087221443653106689453125</LatitudeDegrees>
              <LongitudeDegrees>-0.56806437671184539794921875</LongitudeDegrees>
            </Position>
            <AltitudeMeters>144.600006103515625</AltitudeMeters>
            <DistanceMeters>18159.315909959</DistanceMeters>
          </Trackpoint>
          <Trackpoint>
            <Time>2021-10-09T07:30:28.000Z</Time>
            <Position>
              <LatitudeDegrees>39.52126697637140750885009765625</LatitudeDegrees>
              <LongitudeDegrees>-0.56813067756593227386474609375</LongitudeDegrees>
            </Position>
            <AltitudeMeters>144.600006103515625</AltitudeMeters>
            <DistanceMeters>18167.944000721</DistanceMeters>
          </Trackpoint>
          <Trackpoint>
            <Time>2021-10-09T07:30:29.000Z</Time>
            <Position>
              <LatitudeDegrees>39.52132497914135456085205078125</LatitudeDegrees>
              <LongitudeDegrees>-0.56819421239197254180908203125</LongitudeDegrees>
            </Position>
            <AltitudeMeters>144.600006103515625</AltitudeMeters>
            <DistanceMeters>18176.396038035</DistanceMeters>
          </Trackpoint>
          <Trackpoint>
            <Time>2021-10-09T07:30:30.000Z</Time>
            <Position>
              <LatitudeDegrees>39.52138222754001617431640625</LatitudeDegrees>
              <LongitudeDegrees>-0.56825707666575908660888671875</LongitudeDegrees>
            </Position>
            <AltitudeMeters>144.600006103515625</AltitudeMeters>
            <DistanceMeters>18184.746502112</DistanceMeters>
          </Trackpoint>
          <Trackpoint>
            <Time>2021-10-09T07:30:31.000Z</Time>
            <Position>
              <LatitudeDegrees>39.5214392244815826416015625</LatitudeDegrees>
              <LongitudeDegrees>-0.5683190189301967620849609375</LongitudeDegrees>
            </Position>
            <AltitudeMeters>144.600006103515625</AltitudeMeters>
            <DistanceMeters>18193.024196239</DistanceMeters>
          </Trackpoint>
          <Trackpoint>
            <Time>2021-10-09T07:30:32.000Z</Time>
            <Position>
              <LatitudeDegrees>39.5214963890612125396728515625</LatitudeDegrees>
              <LongitudeDegrees>-0.56838196702301502227783203125</LongitudeDegrees>
            </Position>
            <AltitudeMeters>144.600006103515625</AltitudeMeters>
            <DistanceMeters>18201.372497263</DistanceMeters>
          </Trackpoint>
          <Trackpoint>
            <Time>2021-10-09T07:30:33.000Z</Time>
            <Position>
              <LatitudeDegrees>39.5215527154505252838134765625</LatitudeDegrees>
              <LongitudeDegrees>-0.56844416074454784393310546875</LongitudeDegrees>
            </Position>
            <AltitudeMeters>144.8000030517578125</AltitudeMeters>
            <DistanceMeters>18209.607536674</DistanceMeters>
          </Trackpoint>
          <Trackpoint>
            <Time>2021-10-09T07:30:34.000Z</Time>
            <Position>
              <LatitudeDegrees>39.521607197821140289306640625</LatitudeDegrees>
              <LongitudeDegrees>-0.56850585155189037322998046875</LongitudeDegrees>
            </Position>
            <AltitudeMeters>144.8000030517578125</AltitudeMeters>
            <DistanceMeters>18217.659613975</DistanceMeters>
          </Trackpoint>
          <Trackpoint>
            <Time>2021-10-09T07:30:35.000Z</Time>
            <Position>
              <LatitudeDegrees>39.5216618478298187255859375</LatitudeDegrees>
              <LongitudeDegrees>-0.56856603361666202545166015625</LongitudeDegrees>
            </Position>
            <AltitudeMeters>145</AltitudeMeters>
            <DistanceMeters>18225.641292327</DistanceMeters>
          </Trackpoint>
          <Trackpoint>
            <Time>2021-10-09T07:30:36.000Z</Time>
            <Position>
              <LatitudeDegrees>39.52171758748590946197509765625</LatitudeDegrees>
              <LongitudeDegrees>-0.568627305328845977783203125</LongitudeDegrees>
            </Position>
            <AltitudeMeters>145</AltitudeMeters>
            <DistanceMeters>18233.774824157</DistanceMeters>
          </Trackpoint>
          <Trackpoint>
            <Time>2021-10-09T07:30:37.000Z</Time>
            <Position>
              <LatitudeDegrees>39.52177274040877819061279296875</LatitudeDegrees>
              <LongitudeDegrees>-0.56868706829845905303955078125</LongitudeDegrees>
            </Position>
            <AltitudeMeters>145.1999969482421875</AltitudeMeters>
            <DistanceMeters>18241.775148015</DistanceMeters>
          </Trackpoint>
          <Trackpoint>
            <Time>2021-10-09T07:30:38.000Z</Time>
            <Position>
              <LatitudeDegrees>39.52182755805552005767822265625</LatitudeDegrees>
              <LongitudeDegrees>-0.56874423287808895111083984375</LongitudeDegrees>
            </Position>
            <AltitudeMeters>145.1999969482421875</AltitudeMeters>
            <DistanceMeters>18249.605487666</DistanceMeters>
          </Trackpoint>
          <Trackpoint>
            <Time>2021-10-09T07:30:39.000Z</Time>
            <Position>
              <LatitudeDegrees>39.52188036404550075531005859375</LatitudeDegrees>
              <LongitudeDegrees>-0.568798966705799102783203125</LongitudeDegrees>
            </Position>
            <AltitudeMeters>145.1999969482421875</AltitudeMeters>
            <DistanceMeters>18257.130619517</DistanceMeters>
          </Trackpoint>
          <Trackpoint>
            <Time>2021-10-09T07:30:40.000Z</Time>
            <Position>
              <LatitudeDegrees>39.5219335891306400299072265625</LatitudeDegrees>
              <LongitudeDegrees>-0.568853281438350677490234375</LongitudeDegrees>
            </Position>
            <AltitudeMeters>145.399993896484375</AltitudeMeters>
            <DistanceMeters>18264.669538614</DistanceMeters>
          </Trackpoint>
          <Trackpoint>
            <Time>2021-10-09T07:30:41.000Z</Time>
            <Position>
              <LatitudeDegrees>39.521984048187732696533203125</LatitudeDegrees>
              <LongitudeDegrees>-0.56890868581831455230712890625</LongitudeDegrees>
            </Position>
            <AltitudeMeters>145.399993896484375</AltitudeMeters>
            <DistanceMeters>18272.029662837</DistanceMeters>
          </Trackpoint>
          <Trackpoint>
            <Time>2021-10-09T07:30:42.000Z</Time>
            <Position>
              <LatitudeDegrees>39.52203174121677875518798828125</LatitudeDegrees>
              <LongitudeDegrees>-0.56896417401731014251708984375</LongitudeDegrees>
            </Position>
            <AltitudeMeters>145.600006103515625</AltitudeMeters>
            <DistanceMeters>18279.162365739</DistanceMeters>
          </Trackpoint>
          <Trackpoint>
            <Time>2021-10-09T07:30:43.000Z</Time>
            <Position>
              <LatitudeDegrees>39.5220802724361419677734375</LatitudeDegrees>
              <LongitudeDegrees>-0.5690170638263225555419921875</LongitudeDegrees>
            </Position>
            <AltitudeMeters>145.600006103515625</AltitudeMeters>
            <DistanceMeters>18286.219978768</DistanceMeters>
          </Trackpoint>
          <Trackpoint>
            <Time>2021-10-09T07:30:44.000Z</Time>
            <Position>
              <LatitudeDegrees>39.52212779782712459564208984375</LatitudeDegrees>
              <LongitudeDegrees>-0.56906911544501781463623046875</LongitudeDegrees>
            </Position>
            <AltitudeMeters>145.600006103515625</AltitudeMeters>
            <DistanceMeters>18293.144551384</DistanceMeters>
          </Trackpoint>
          <Trackpoint>
            <Time>2021-10-09T07:30:45.000Z</Time>
            <Position>
              <LatitudeDegrees>39.5221749879419803619384765625</LatitudeDegrees>
              <LongitudeDegrees>-0.5691204965114593505859375</LongitudeDegrees>
            </Position>
            <AltitudeMeters>146</AltitudeMeters>
            <DistanceMeters>18300.003610961</DistanceMeters>
          </Trackpoint>
          <Trackpoint>
            <Time>2021-10-09T07:30:46.000Z</Time>
            <Position>
              <LatitudeDegrees>39.5222212560474872589111328125</LatitudeDegrees>
              <LongitudeDegrees>-0.56917053647339344024658203125</LongitudeDegrees>
            </Position>
            <AltitudeMeters>146.1999969482421875</AltitudeMeters>
            <DistanceMeters>18306.7095621</DistanceMeters>
          </Trackpoint>
          <Trackpoint>
            <Time>2021-10-09T07:30:47.000Z</Time>
            <Position>
              <LatitudeDegrees>39.5222661830484867095947265625</LatitudeDegrees>
              <LongitudeDegrees>-0.56922040879726409912109375</LongitudeDegrees>
            </Position>
            <AltitudeMeters>146.399993896484375</AltitudeMeters>
            <DistanceMeters>18313.293205995</DistanceMeters>
          </Trackpoint>
          <Trackpoint>
            <Time>2021-10-09T07:30:48.000Z</Time>
            <Position>
              <LatitudeDegrees>39.52231052331626415252685546875</LatitudeDegrees>
              <LongitudeDegrees>-0.56927061639726161956787109375</LongitudeDegrees>
            </Position>
            <AltitudeMeters>146.600006103515625</AltitudeMeters>
            <DistanceMeters>18319.845916388</DistanceMeters>
          </Trackpoint>
          <Trackpoint>
            <Time>2021-10-09T07:30:49.000Z</Time>
            <Position>
              <LatitudeDegrees>39.522355534136295318603515625</LatitudeDegrees>
              <LongitudeDegrees>-0.56931856088340282440185546875</LongitudeDegrees>
            </Position>
            <AltitudeMeters>147</AltitudeMeters>
            <DistanceMeters>18326.329357283</DistanceMeters>
          </Trackpoint>
          <Trackpoint>
            <Time>2021-10-09T07:30:50.000Z</Time>
            <Position>
              <LatitudeDegrees>39.52240012586116790771484375</LatitudeDegrees>
              <LongitudeDegrees>-0.5693650804460048675537109375</LongitudeDegrees>
            </Position>
            <AltitudeMeters>147.1999969482421875</AltitudeMeters>
            <DistanceMeters>18332.699691932</DistanceMeters>
          </Trackpoint>
          <Trackpoint>
            <Time>2021-10-09T07:30:51.000Z</Time>
            <Position>
              <LatitudeDegrees>39.5224445499479770660400390625</LatitudeDegrees>
              <LongitudeDegrees>-0.5694113485515117645263671875</LongitudeDegrees>
            </Position>
            <AltitudeMeters>147.399993896484375</AltitudeMeters>
            <DistanceMeters>18339.041612815</DistanceMeters>
          </Trackpoint>
          <Trackpoint>
            <Time>2021-10-09T07:30:52.000Z</Time>
            <Position>
              <LatitudeDegrees>39.522486962378025054931640625</LatitudeDegrees>
              <LongitudeDegrees>-0.56945686228573322296142578125</LongitudeDegrees>
            </Position>
            <AltitudeMeters>147.399993896484375</AltitudeMeters>
            <DistanceMeters>18345.169178225</DistanceMeters>
          </Trackpoint>
          <Trackpoint>
            <Time>2021-10-09T07:30:53.000Z</Time>
            <Position>
              <LatitudeDegrees>39.52252996154129505157470703125</LatitudeDegrees>
              <LongitudeDegrees>-0.56949877180159091949462890625</LongitudeDegrees>
            </Position>
            <AltitudeMeters>147.600006103515625</AltitudeMeters>
            <DistanceMeters>18351.156615363</DistanceMeters>
          </Trackpoint>
          <Trackpoint>
            <Time>2021-10-09T07:30:54.000Z</Time>
            <Position>
              <LatitudeDegrees>39.5225726254284381866455078125</LatitudeDegrees>
              <LongitudeDegrees>-0.569539256393909454345703125</LongitudeDegrees>
            </Position>
            <AltitudeMeters>147.8000030517578125</AltitudeMeters>
            <DistanceMeters>18357.042137705</DistanceMeters>
          </Trackpoint>
          <Trackpoint>
            <Time>2021-10-09T07:30:55.000Z</Time>
            <Position>
              <LatitudeDegrees>39.52261545695364475250244140625</LatitudeDegrees>
              <LongitudeDegrees>-0.56957940571010112762451171875</LongitudeDegrees>
            </Position>
            <AltitudeMeters>148</AltitudeMeters>
            <DistanceMeters>18362.926125561</DistanceMeters>
          </Trackpoint>
          <Trackpoint>
            <Time>2021-10-09T07:30:56.000Z</Time>
            <Position>
              <LatitudeDegrees>39.52265770174562931060791015625</LatitudeDegrees>
              <LongitudeDegrees>-0.56961762718856334686279296875</LongitudeDegrees>
            </Position>
            <AltitudeMeters>148</AltitudeMeters>
            <DistanceMeters>18368.659316492</DistanceMeters>
          </Trackpoint>
          <Trackpoint>
            <Time>2021-10-09T07:30:57.000Z</Time>
            <Position>
              <LatitudeDegrees>39.5227003656327724456787109375</LatitudeDegrees>
              <LongitudeDegrees>-0.56965366937220096588134765625</LongitudeDegrees>
            </Position>
            <AltitudeMeters>148.1999969482421875</AltitudeMeters>
            <DistanceMeters>18374.327562428</DistanceMeters>
          </Trackpoint>
          <Trackpoint>
            <Time>2021-10-09T07:30:58.000Z</Time>
            <Position>
              <LatitudeDegrees>39.52274210751056671142578125</LatitudeDegrees>
              <LongitudeDegrees>-0.5696896277368068695068359375</LongitudeDegrees>
            </Position>
            <AltitudeMeters>148.600006103515625</AltitudeMeters>
            <DistanceMeters>18379.907500024</DistanceMeters>
          </Trackpoint>
          <Trackpoint>
            <Time>2021-10-09T07:30:59.000Z</Time>
            <Position>
              <LatitudeDegrees>39.52278275974094867706298828125</LatitudeDegrees>
              <LongitudeDegrees>-0.56972441263496875762939453125</LongitudeDegrees>
            </Position>
            <AltitudeMeters>149</AltitudeMeters>
            <DistanceMeters>18385.329854577</DistanceMeters>
          </Trackpoint>
          <Trackpoint>
            <Time>2021-10-09T07:31:00.000Z</Time>
            <Position>
              <LatitudeDegrees>39.5228244177997112274169921875</LatitudeDegrees>
              <LongitudeDegrees>-0.5697548389434814453125</LongitudeDegrees>
            </Position>
            <AltitudeMeters>149.1999969482421875</AltitudeMeters>
            <DistanceMeters>18390.652198967</DistanceMeters>
          </Trackpoint>
          <Trackpoint>
            <Time>2021-10-09T07:31:01.000Z</Time>
            <Position>
              <LatitudeDegrees>39.522867836058139801025390625</LatitudeDegrees>
              <LongitudeDegrees>-0.56978744454681873321533203125</LongitudeDegrees>
            </Position>
            <AltitudeMeters>149.399993896484375</AltitudeMeters>
            <DistanceMeters>18396.237797782</DistanceMeters>
          </Trackpoint>
          <Trackpoint>
            <Time>2021-10-09T07:31:02.000Z</Time>
            <Position>
              <LatitudeDegrees>39.52291117049753665924072265625</LatitudeDegrees>
              <LongitudeDegrees>-0.56981795467436313629150390625</LongitudeDegrees>
            </Position>
            <AltitudeMeters>149.8000030517578125</AltitudeMeters>
            <DistanceMeters>18401.727184368</DistanceMeters>
          </Trackpoint>
          <Trackpoint>
            <Time>2021-10-09T07:31:03.000Z</Time>
            <Position>
              <LatitudeDegrees>39.52295442111790180206298828125</LatitudeDegrees>
              <LongitudeDegrees>-0.5698431842029094696044921875</LongitudeDegrees>
            </Position>
            <AltitudeMeters>150.1999969482421875</AltitudeMeters>
            <DistanceMeters>18407.006087275</DistanceMeters>
          </Trackpoint>
          <Trackpoint>
            <Time>2021-10-09T07:31:04.000Z</Time>
            <Position>
              <LatitudeDegrees>39.52299834229052066802978515625</LatitudeDegrees>
              <LongitudeDegrees>-0.569870509207248687744140625</LongitudeDegrees>
            </Position>
            <AltitudeMeters>150.399993896484375</AltitudeMeters>
            <DistanceMeters>18412.428441829</DistanceMeters>
          </Trackpoint>
          <Trackpoint>
            <Time>2021-10-09T07:31:05.000Z</Time>
            <Position>
              <LatitudeDegrees>39.52304326929152011871337890625</LatitudeDegrees>
              <LongitudeDegrees>-0.569897331297397613525390625</LongitudeDegrees>
            </Position>
            <AltitudeMeters>150.8000030517578125</AltitudeMeters>
            <DistanceMeters>18417.933433795</DistanceMeters>
          </Trackpoint>
          <Trackpoint>
            <Time>2021-10-09T07:31:06.000Z</Time>
            <Position>
              <LatitudeDegrees>39.52308836393058300018310546875</LatitudeDegrees>
              <LongitudeDegrees>-0.569923482835292816162109375</LongitudeDegrees>
            </Position>
            <AltitudeMeters>150.8000030517578125</AltitudeMeters>
            <DistanceMeters>18423.431860473</DistanceMeters>
          </Trackpoint>
          <Trackpoint>
            <Time>2021-10-09T07:31:07.000Z</Time>
            <Position>
              <LatitudeDegrees>39.5231325365602970123291015625</LatitudeDegrees>
              <LongitudeDegrees>-0.569948963820934295654296875</LongitudeDegrees>
            </Position>
            <AltitudeMeters>151</AltitudeMeters>
            <DistanceMeters>18428.812420395</DistanceMeters>
          </Trackpoint>
          <Trackpoint>
            <Time>2021-10-09T07:31:08.000Z</Time>
            <Position>
              <LatitudeDegrees>39.5231761224567890167236328125</LatitudeDegrees>
              <LongitudeDegrees>-0.56997276842594146728515625</LongitudeDegrees>
            </Position>
            <AltitudeMeters>151.399993896484375</AltitudeMeters>
            <DistanceMeters>18434.075905413</DistanceMeters>
          </Trackpoint>
          <Trackpoint>
            <Time>2021-10-09T07:31:09.000Z</Time>
            <Position>
              <LatitudeDegrees>39.5232220552861690521240234375</LatitudeDegrees>
              <LongitudeDegrees>-0.56999556720256805419921875</LongitudeDegrees>
            </Position>
            <AltitudeMeters>151.399993896484375</AltitudeMeters>
            <DistanceMeters>18439.549642129</DistanceMeters>
          </Trackpoint>
          <Trackpoint>
            <Time>2021-10-09T07:31:10.000Z</Time>
            <Position>
              <LatitudeDegrees>39.52326673083007335662841796875</LatitudeDegrees>
              <LongitudeDegrees>-0.57001702487468719482421875</LongitudeDegrees>
            </Position>
            <AltitudeMeters>151.8000030517578125</AltitudeMeters>
            <DistanceMeters>18444.85243932</DistanceMeters>
          </Trackpoint>
          <Trackpoint>
            <Time>2021-10-09T07:31:11.000Z</Time>
            <Position>
              <LatitudeDegrees>39.52331283129751682281494140625</LatitudeDegrees>
              <LongitudeDegrees>-0.5700356326997280120849609375</LongitudeDegrees>
            </Position>
            <AltitudeMeters>152</AltitudeMeters>
            <DistanceMeters>18450.226281937</DistanceMeters>
          </Trackpoint>
          <Trackpoint>
            <Time>2021-10-09T07:31:12.000Z</Time>
            <Position>
              <LatitudeDegrees>39.52335960231721401214599609375</LatitudeDegrees>
              <LongitudeDegrees>-0.570052564144134521484375</LongitudeDegrees>
            </Position>
            <AltitudeMeters>152.399993896484375</AltitudeMeters>
            <DistanceMeters>18455.63112211</DistanceMeters>
          </Trackpoint>
          <Trackpoint>
            <Time>2021-10-09T07:31:13.000Z</Time>
            <Position>
              <LatitudeDegrees>39.5234061218798160552978515625</LatitudeDegrees>
              <LongitudeDegrees>-0.57006790302693843841552734375</LongitudeDegrees>
            </Position>
            <AltitudeMeters>152.600006103515625</AltitudeMeters>
            <DistanceMeters>18460.97294217</DistanceMeters>
          </Trackpoint>
          <Trackpoint>
            <Time>2021-10-09T07:31:14.000Z</Time>
            <Position>
              <LatitudeDegrees>39.5234523899853229522705078125</LatitudeDegrees>
              <LongitudeDegrees>-0.57007879950106143951416015625</LongitudeDegrees>
            </Position>
            <AltitudeMeters>152.8000030517578125</AltitudeMeters>
            <DistanceMeters>18466.206317931</DistanceMeters>
          </Trackpoint>
          <Trackpoint>
            <Time>2021-10-09T07:31:15.000Z</Time>
            <Position>
              <LatitudeDegrees>39.523498155176639556884765625</LatitudeDegrees>
              <LongitudeDegrees>-0.570092462003231048583984375</LongitudeDegrees>
            </Position>
            <AltitudeMeters>153</AltitudeMeters>
            <DistanceMeters>18471.43365103</DistanceMeters>
          </Trackpoint>
          <Trackpoint>
            <Time>2021-10-09T07:31:16.000Z</Time>
            <Position>
              <LatitudeDegrees>39.52354299835860729217529296875</LatitudeDegrees>
              <LongitudeDegrees>-0.5701080523431301116943359375</LongitudeDegrees>
            </Position>
            <AltitudeMeters>153.1999969482421875</AltitudeMeters>
            <DistanceMeters>18476.600168809</DistanceMeters>
          </Trackpoint>
          <Trackpoint>
            <Time>2021-10-09T07:31:17.000Z</Time>
            <Position>
              <LatitudeDegrees>39.5235868357121944427490234375</LatitudeDegrees>
              <LongitudeDegrees>-0.57012037374079227447509765625</LongitudeDegrees>
            </Position>
            <AltitudeMeters>153.600006103515625</AltitudeMeters>
            <DistanceMeters>18481.592463971</DistanceMeters>
          </Trackpoint>
          <Trackpoint>
            <Time>2021-10-09T07:31:18.000Z</Time>
            <Position>
              <LatitudeDegrees>39.52363050542771816253662109375</LatitudeDegrees>
              <LongitudeDegrees>-0.57013194076716899871826171875</LongitudeDegrees>
            </Position>
            <AltitudeMeters>153.8000030517578125</AltitudeMeters>
            <DistanceMeters>18486.553914202</DistanceMeters>
          </Trackpoint>
          <Trackpoint>
            <Time>2021-10-09T07:31:19.000Z</Time>
            <Position>
              <LatitudeDegrees>39.523673169314861297607421875</LatitudeDegrees>
              <LongitudeDegrees>-0.57014132849872112274169921875</LongitudeDegrees>
            </Position>
            <AltitudeMeters>154.1999969482421875</AltitudeMeters>
            <DistanceMeters>18491.370372069</DistanceMeters>
          </Trackpoint>
          <Trackpoint>
            <Time>2021-10-09T07:31:20.000Z</Time>
            <Position>
              <LatitudeDegrees>39.52371700666844844818115234375</LatitudeDegrees>
              <LongitudeDegrees>-0.5701506324112415313720703125</LongitudeDegrees>
            </Position>
            <AltitudeMeters>154.399993896484375</AltitudeMeters>
            <DistanceMeters>18496.313588315</DistanceMeters>
          </Trackpoint>
          <Trackpoint>
            <Time>2021-10-09T07:31:21.000Z</Time>
            <Position>
              <LatitudeDegrees>39.5237605087459087371826171875</LatitudeDegrees>
              <LongitudeDegrees>-0.57015557773411273956298828125</LongitudeDegrees>
            </Position>
            <AltitudeMeters>154.600006103515625</AltitudeMeters>
            <DistanceMeters>18501.172976126</DistanceMeters>
          </Trackpoint>
          <Trackpoint>
            <Time>2021-10-09T07:31:22.000Z</Time>
            <Position>
              <LatitudeDegrees>39.52380551956593990325927734375</LatitudeDegrees>
              <LongitudeDegrees>-0.57015993632376194000244140625</LongitudeDegrees>
            </Position>
            <AltitudeMeters>155</AltitudeMeters>
            <DistanceMeters>18506.195926811</DistanceMeters>
          </Trackpoint>
          <Trackpoint>
            <Time>2021-10-09T07:31:23.000Z</Time>
            <Position>
              <LatitudeDegrees>39.52384944073855876922607421875</LatitudeDegrees>
              <LongitudeDegrees>-0.5701627023518085479736328125</LongitudeDegrees>
            </Position>
            <AltitudeMeters>155</AltitudeMeters>
            <DistanceMeters>18511.089571948</DistanceMeters>
          </Trackpoint>
          <Trackpoint>
            <Time>2021-10-09T07:31:24.000Z</Time>
            <Position>
              <LatitudeDegrees>39.52389285899698734283447265625</LatitudeDegrees>
              <LongitudeDegrees>-0.57016731239855289459228515625</LongitudeDegrees>
            </Position>
            <AltitudeMeters>155.600006103515625</AltitudeMeters>
            <DistanceMeters>18515.937797292</DistanceMeters>
          </Trackpoint>
          <Trackpoint>
            <Time>2021-10-09T07:31:25.000Z</Time>
            <Position>
              <LatitudeDegrees>39.52393627725541591644287109375</LatitudeDegrees>
              <LongitudeDegrees>-0.57017368264496326446533203125</LongitudeDegrees>
            </Position>
            <AltitudeMeters>155.8000030517578125</AltitudeMeters>
            <DistanceMeters>18520.801828571</DistanceMeters>
          </Trackpoint>
          <Trackpoint>
            <Time>2021-10-09T07:31:26.000Z</Time>
            <Position>
              <LatitudeDegrees>39.5239797793328762054443359375</LatitudeDegrees>
              <LongitudeDegrees>-0.570178963243961334228515625</LongitudeDegrees>
            </Position>
            <AltitudeMeters>156.1999969482421875</AltitudeMeters>
            <DistanceMeters>18525.66585985</DistanceMeters>
          </Trackpoint>
          <Trackpoint>
            <Time>2021-10-09T07:31:27.000Z</Time>
            <Position>
              <LatitudeDegrees>39.5240237005054950714111328125</LatitudeDegrees>
              <LongitudeDegrees>-0.57018625549972057342529296875</LongitudeDegrees>
            </Position>
            <AltitudeMeters>156.399993896484375</AltitudeMeters>
            <DistanceMeters>18530.594440339</DistanceMeters>
          </Trackpoint>
          <Trackpoint>
            <Time>2021-10-09T07:31:28.000Z</Time>
            <Position>
              <LatitudeDegrees>39.5240672864019870758056640625</LatitudeDegrees>
              <LongitudeDegrees>-0.5701912008225917816162109375</LongitudeDegrees>
            </Position>
            <AltitudeMeters>156.399993896484375</AltitudeMeters>
            <DistanceMeters>18535.464037934</DistanceMeters>
          </Trackpoint>
          <Trackpoint>
            <Time>2021-10-09T07:31:29.000Z</Time>
            <Position>
              <LatitudeDegrees>39.52411196194589138031005859375</LatitudeDegrees>
              <LongitudeDegrees>-0.570195727050304412841796875</LongitudeDegrees>
            </Position>
            <AltitudeMeters>156.8000030517578125</AltitudeMeters>
            <DistanceMeters>18540.45271418</DistanceMeters>
          </Trackpoint>
          <Trackpoint>
            <Time>2021-10-09T07:31:30.000Z</Time>
            <Position>
              <LatitudeDegrees>39.52415437437593936920166015625</LatitudeDegrees>
              <LongitudeDegrees>-0.57020201347768306732177734375</LongitudeDegrees>
            </Position>
            <AltitudeMeters>157</AltitudeMeters>
            <DistanceMeters>18545.204049898</DistanceMeters>
          </Trackpoint>
          <Trackpoint>
            <Time>2021-10-09T07:31:31.000Z</Time>
            <Position>
              <LatitudeDegrees>39.5241990499198436737060546875</LatitudeDegrees>
              <LongitudeDegrees>-0.5702096410095691680908203125</LongitudeDegrees>
            </Position>
            <AltitudeMeters>157.1999969482421875</AltitudeMeters>
            <DistanceMeters>18550.219804375</DistanceMeters>
          </Trackpoint>
          <Trackpoint>
            <Time>2021-10-09T07:31:32.000Z</Time>
            <Position>
              <LatitudeDegrees>39.52424322254955768585205078125</LatitudeDegrees>
              <LongitudeDegrees>-0.57021441869437694549560546875</LongitudeDegrees>
            </Position>
            <AltitudeMeters>157.600006103515625</AltitudeMeters>
            <DistanceMeters>18555.152047875</DistanceMeters>
          </Trackpoint>
          <Trackpoint>
            <Time>2021-10-09T07:31:33.000Z</Time>
            <Position>
              <LatitudeDegrees>39.52428898774087429046630859375</LatitudeDegrees>
              <LongitudeDegrees>-0.5702173523604869842529296875</LongitudeDegrees>
            </Position>
            <AltitudeMeters>157.8000030517578125</AltitudeMeters>
            <DistanceMeters>18560.251716507</DistanceMeters>
          </Trackpoint>
          <Trackpoint>
            <Time>2021-10-09T07:31:34.000Z</Time>
            <Position>
              <LatitudeDegrees>39.52433374710381031036376953125</LatitudeDegrees>
              <LongitudeDegrees>-0.57022196240723133087158203125</LongitudeDegrees>
            </Position>
            <AltitudeMeters>158</AltitudeMeters>
            <DistanceMeters>18565.249435131</DistanceMeters>
          </Trackpoint>
          <Trackpoint>
            <Time>2021-10-09T07:31:35.000Z</Time>
            <Position>
              <LatitudeDegrees>39.5243777520954608917236328125</LatitudeDegrees>
              <LongitudeDegrees>-0.57022833265364170074462890625</LongitudeDegrees>
            </Position>
            <AltitudeMeters>158.1999969482421875</AltitudeMeters>
            <DistanceMeters>18570.17801562</DistanceMeters>
          </Trackpoint>
          <Trackpoint>
            <Time>2021-10-09T07:31:36.000Z</Time>
            <Position>
              <LatitudeDegrees>39.5244220085442066192626953125</LatitudeDegrees>
              <LongitudeDegrees>-0.5702337808907032012939453125</LongitudeDegrees>
            </Position>
            <AltitudeMeters>158.1999969482421875</AltitudeMeters>
            <DistanceMeters>18575.124884039</DistanceMeters>
          </Trackpoint>
          <Trackpoint>
            <Time>2021-10-09T07:31:37.000Z</Time>
            <Position>
              <LatitudeDegrees>39.524466432631015777587890625</LatitudeDegrees>
              <LongitudeDegrees>-0.570237971842288970947265625</LongitudeDegrees>
            </Position>
            <AltitudeMeters>158.1999969482421875</AltitudeMeters>
            <DistanceMeters>18580.080871118</DistanceMeters>
          </Trackpoint>
          <Trackpoint>
            <Time>2021-10-09T07:31:38.000Z</Time>
            <Position>
              <LatitudeDegrees>39.524511359632015228271484375</LatitudeDegrees>
              <LongitudeDegrees>-0.57024425826966762542724609375</LongitudeDegrees>
            </Position>
            <AltitudeMeters>158.600006103515625</AltitudeMeters>
            <DistanceMeters>18585.109212201</DistanceMeters>
          </Trackpoint>
          <Trackpoint>
            <Time>2021-10-09T07:31:39.000Z</Time>
            <Position>
              <LatitudeDegrees>39.524556957185268402099609375</LatitudeDegrees>
              <LongitudeDegrees>-0.5702515505254268646240234375</LongitudeDegrees>
            </Position>
            <AltitudeMeters>159</AltitudeMeters>
            <DistanceMeters>18590.223026959</DistanceMeters>
          </Trackpoint>
          <Trackpoint>
            <Time>2021-10-09T07:31:40.000Z</Time>
            <Position>
              <LatitudeDegrees>39.52460515312850475311279296875</LatitudeDegrees>
              <LongitudeDegrees>-0.57025800459086894989013671875</LongitudeDegrees>
            </Position>
            <AltitudeMeters>159</AltitudeMeters>
            <DistanceMeters>18595.615322032</DistanceMeters>
          </Trackpoint>
          <Trackpoint>
            <Time>2021-10-09T07:31:41.000Z</Time>
            <Position>
              <LatitudeDegrees>39.52465309761464595794677734375</LatitudeDegrees>
              <LongitudeDegrees>-0.57026538066565990447998046875</LongitudeDegrees>
            </Position>
            <AltitudeMeters>159.1999969482421875</AltitudeMeters>
            <DistanceMeters>18600.989164648</DistanceMeters>
          </Trackpoint>
          <Trackpoint>
            <Time>2021-10-09T07:31:42.000Z</Time>
            <Position>
              <LatitudeDegrees>39.5247002877295017242431640625</LatitudeDegrees>
              <LongitudeDegrees>-0.5702706612646579742431640625</LongitudeDegrees>
            </Position>
            <AltitudeMeters>159.399993896484375</AltitudeMeters>
            <DistanceMeters>18606.261220727</DistanceMeters>
          </Trackpoint>
          <Trackpoint>
            <Time>2021-10-09T07:31:43.000Z</Time>
            <Position>
              <LatitudeDegrees>39.52474772930145263671875</LatitudeDegrees>
              <LongitudeDegrees>-0.57027694769203662872314453125</LongitudeDegrees>
            </Position>
            <AltitudeMeters>159.600006103515625</AltitudeMeters>
            <DistanceMeters>18611.569124127</DistanceMeters>
          </Trackpoint>
          <Trackpoint>
            <Time>2021-10-09T07:31:44.000Z</Time>
            <Position>
              <LatitudeDegrees>39.52479475177824497222900390625</LatitudeDegrees>
              <LongitudeDegrees>-0.5702834017574787139892578125</LongitudeDegrees>
            </Position>
            <AltitudeMeters>159.8000030517578125</AltitudeMeters>
            <DistanceMeters>18616.832609145</DistanceMeters>
          </Trackpoint>
          <Trackpoint>
            <Time>2021-10-09T07:31:45.000Z</Time>
            <Position>
              <LatitudeDegrees>39.5248429477214813232421875</LatitudeDegrees>
              <LongitudeDegrees>-0.5702897720038890838623046875</LongitudeDegrees>
            </Position>
            <AltitudeMeters>160</AltitudeMeters>
            <DistanceMeters>18622.224904217</DistanceMeters>
          </Trackpoint>
          <Trackpoint>
            <Time>2021-10-09T07:31:46.000Z</Time>
            <Position>
              <LatitudeDegrees>39.52489248476922512054443359375</LatitudeDegrees>
              <LongitudeDegrees>-0.57029907591640949249267578125</LongitudeDegrees>
            </Position>
            <AltitudeMeters>160.1999969482421875</AltitudeMeters>
            <DistanceMeters>18627.796744381</DistanceMeters>
          </Trackpoint>
          <Trackpoint>
            <Time>2021-10-09T07:31:47.000Z</Time>
            <Position>
              <LatitudeDegrees>39.52494378201663494110107421875</LatitudeDegrees>
              <LongitudeDegrees>-0.57030879892408847808837890625</LongitudeDegrees>
            </Position>
            <AltitudeMeters>160.399993896484375</AltitudeMeters>
            <DistanceMeters>18633.566047786</DistanceMeters>
          </Trackpoint>
          <Trackpoint>
            <Time>2021-10-09T07:31:48.000Z</Time>
            <Position>
              <LatitudeDegrees>39.5249960012733936309814453125</LatitudeDegrees>
              <LongitudeDegrees>-0.570317767560482025146484375</LongitudeDegrees>
            </Position>
            <AltitudeMeters>160.600006103515625</AltitudeMeters>
            <DistanceMeters>18639.428510659</DistanceMeters>
          </Trackpoint>
          <Trackpoint>
            <Time>2021-10-09T07:31:49.000Z</Time>
            <Position>
              <LatitudeDegrees>39.52504905872046947479248046875</LatitudeDegrees>
              <LongitudeDegrees>-0.5703239701688289642333984375</LongitudeDegrees>
            </Position>
            <AltitudeMeters>160.600006103515625</AltitudeMeters>
            <DistanceMeters>18645.358360377</DistanceMeters>
          </Trackpoint>
          <Trackpoint>
            <Time>2021-10-09T07:31:50.000Z</Time>
            <Position>
              <LatitudeDegrees>39.5251046307384967803955078125</LatitudeDegrees>
              <LongitudeDegrees>-0.57032883167266845703125</LongitudeDegrees>
            </Position>
            <AltitudeMeters>160.8000030517578125</AltitudeMeters>
            <DistanceMeters>18651.557715613</DistanceMeters>
          </Trackpoint>
          <Trackpoint>
            <Time>2021-10-09T07:31:51.000Z</Time>
            <Position>
              <LatitudeDegrees>39.52515919692814350128173828125</LatitudeDegrees>
              <LongitudeDegrees>-0.57033679448068141937255859375</LongitudeDegrees>
            </Position>
            <AltitudeMeters>160.8000030517578125</AltitudeMeters>
            <DistanceMeters>18657.669049033</DistanceMeters>
          </Trackpoint>
          <Trackpoint>
            <Time>2021-10-09T07:31:52.000Z</Time>
            <Position>
              <LatitudeDegrees>39.525214098393917083740234375</LatitudeDegrees>
              <LongitudeDegrees>-0.57034249417483806610107421875</LongitudeDegrees>
            </Position>
            <AltitudeMeters>160.8000030517578125</AltitudeMeters>
            <DistanceMeters>18663.799561097</DistanceMeters>
          </Trackpoint>
          <Trackpoint>
            <Time>2021-10-09T07:31:53.000Z</Time>
            <Position>
              <LatitudeDegrees>39.525271095335483551025390625</LatitudeDegrees>
              <LongitudeDegrees>-0.57035054080188274383544921875</LongitudeDegrees>
            </Position>
            <AltitudeMeters>160.8000030517578125</AltitudeMeters>
            <DistanceMeters>18670.18122583</DistanceMeters>
          </Trackpoint>
          <Trackpoint>
            <Time>2021-10-09T07:31:54.000Z</Time>
            <Position>
              <LatitudeDegrees>39.52532951720058917999267578125</LatitudeDegrees>
              <LongitudeDegrees>-0.57036009617149829864501953125</LongitudeDegrees>
            </Position>
            <AltitudeMeters>161</AltitudeMeters>
            <DistanceMeters>18676.73462522</DistanceMeters>
          </Trackpoint>
          <Trackpoint>
            <Time>2021-10-09T07:31:55.000Z</Time>
            <Position>
              <LatitudeDegrees>39.52538852579891681671142578125</LatitudeDegrees>
              <LongitudeDegrees>-0.57036839425563812255859375</LongitudeDegrees>
            </Position>
            <AltitudeMeters>161</AltitudeMeters>
            <DistanceMeters>18683.34017814</DistanceMeters>
          </Trackpoint>
          <Trackpoint>
            <Time>2021-10-09T07:31:56.000Z</Time>
            <Position>
              <LatitudeDegrees>39.5254496298730373382568359375</LatitudeDegrees>
              <LongitudeDegrees>-0.5703784525394439697265625</LongitudeDegrees>
            </Position>
            <AltitudeMeters>161</AltitudeMeters>
            <DistanceMeters>18690.195287024</DistanceMeters>
          </Trackpoint>
          <Trackpoint>
            <Time>2021-10-09T07:31:57.000Z</Time>
            <Position>
              <LatitudeDegrees>39.52551241032779216766357421875</LatitudeDegrees>
              <LongitudeDegrees>-0.57038691826164722442626953125</LongitudeDegrees>
            </Position>
            <AltitudeMeters>161</AltitudeMeters>
            <DistanceMeters>18697.220197541</DistanceMeters>
          </Trackpoint>
          <Trackpoint>
            <Time>2021-10-09T07:31:58.000Z</Time>
            <Position>
              <LatitudeDegrees>39.5255773700773715972900390625</LatitudeDegrees>
              <LongitudeDegrees>-0.5703967250883579254150390625</LongitudeDegrees>
            </Position>
            <AltitudeMeters>161</AltitudeMeters>
            <DistanceMeters>18704.499516779</DistanceMeters>
          </Trackpoint>
          <Trackpoint>
            <Time>2021-10-09T07:31:59.000Z</Time>
            <Position>
              <LatitudeDegrees>39.5256427489221096038818359375</LatitudeDegrees>
              <LongitudeDegrees>-0.57040938176214694976806640625</LongitudeDegrees>
            </Position>
            <AltitudeMeters>160.8000030517578125</AltitudeMeters>
            <DistanceMeters>18711.85718681</DistanceMeters>
          </Trackpoint>
          <Trackpoint>
            <Time>2021-10-09T07:32:00.000Z</Time>
            <Position>
              <LatitudeDegrees>39.5257093012332916259765625</LatitudeDegrees>
              <LongitudeDegrees>-0.5704248882830142974853515625</LongitudeDegrees>
            </Position>
            <AltitudeMeters>160.8000030517578125</AltitudeMeters>
            <DistanceMeters>18719.382918632</DistanceMeters>
          </Trackpoint>
          <Trackpoint>
            <Time>2021-10-09T07:32:01.000Z</Time>
            <Position>
              <LatitudeDegrees>39.52577769756317138671875</LatitudeDegrees>
              <LongitudeDegrees>-0.570441819727420806884765625</LongitudeDegrees>
            </Position>
            <AltitudeMeters>160.8000030517578125</AltitudeMeters>
            <DistanceMeters>18727.132695301</DistanceMeters>
          </Trackpoint>
          <Trackpoint>
            <Time>2021-10-09T07:32:02.000Z</Time>
            <Position>
              <LatitudeDegrees>39.52584634535014629364013671875</LatitudeDegrees>
              <LongitudeDegrees>-0.5704587511718273162841796875</LongitudeDegrees>
            </Position>
            <AltitudeMeters>160.600006103515625</AltitudeMeters>
            <DistanceMeters>18734.91038661</DistanceMeters>
          </Trackpoint>
          <Trackpoint>
            <Time>2021-10-09T07:32:03.000Z</Time>
            <Position>
              <LatitudeDegrees>39.52591390348970890045166015625</LatitudeDegrees>
              <LongitudeDegrees>-0.57047844864428043365478515625</LongitudeDegrees>
            </Position>
            <AltitudeMeters>160.600006103515625</AltitudeMeters>
            <DistanceMeters>18742.617515962</DistanceMeters>
          </Trackpoint>
          <Trackpoint>
            <Time>2021-10-09T07:32:04.000Z</Time>
            <Position>
              <LatitudeDegrees>39.525983221828937530517578125</LatitudeDegrees>
              <LongitudeDegrees>-0.57050208561122417449951171875</LongitudeDegrees>
            </Position>
            <AltitudeMeters>160.1999969482421875</AltitudeMeters>
            <DistanceMeters>18750.595233604</DistanceMeters>
          </Trackpoint>
          <Trackpoint>
            <Time>2021-10-09T07:32:05.000Z</Time>
            <Position>
              <LatitudeDegrees>39.5260521210730075836181640625</LatitudeDegrees>
              <LongitudeDegrees>-0.57052773423492908477783203125</LongitudeDegrees>
            </Position>
            <AltitudeMeters>160.1999969482421875</AltitudeMeters>
            <DistanceMeters>18758.574083078</DistanceMeters>
          </Trackpoint>
          <Trackpoint>
            <Time>2021-10-09T07:32:06.000Z</Time>
            <Position>
              <LatitudeDegrees>39.526122026145458221435546875</LatitudeDegrees>
              <LongitudeDegrees>-0.5705546401441097259521484375</LongitudeDegrees>
            </Position>
            <AltitudeMeters>159.8000030517578125</AltitudeMeters>
            <DistanceMeters>18766.689831817</DistanceMeters>
          </Trackpoint>
          <Trackpoint>
            <Time>2021-10-09T07:32:07.000Z</Time>
            <Position>
              <LatitudeDegrees>39.526191763579845428466796875</LatitudeDegrees>
              <LongitudeDegrees>-0.57058271951973438262939453125</LongitudeDegrees>
            </Position>
            <AltitudeMeters>159.399993896484375</AltitudeMeters>
            <DistanceMeters>18774.81781061</DistanceMeters>
          </Trackpoint>
          <Trackpoint>
            <Time>2021-10-09T07:32:08.000Z</Time>
            <Position>
              <LatitudeDegrees>39.52626108191907405853271484375</LatitudeDegrees>
              <LongitudeDegrees>-0.57061205618083477020263671875</LongitudeDegrees>
            </Position>
            <AltitudeMeters>159.1999969482421875</AltitudeMeters>
            <DistanceMeters>18782.93411566</DistanceMeters>
          </Trackpoint>
          <Trackpoint>
            <Time>2021-10-09T07:32:09.000Z</Time>
            <Position>
              <LatitudeDegrees>39.52632998116314411163330078125</LatitudeDegrees>
              <LongitudeDegrees>-0.570642985403537750244140625</LongitudeDegrees>
            </Position>
            <AltitudeMeters>159</AltitudeMeters>
            <DistanceMeters>18791.049308048</DistanceMeters>
          </Trackpoint>
          <Trackpoint>
            <Time>2021-10-09T07:32:10.000Z</Time>
            <Position>
              <LatitudeDegrees>39.5263986289501190185546875</LatitudeDegrees>
              <LongitudeDegrees>-0.5706706456840038299560546875</LongitudeDegrees>
            </Position>
            <AltitudeMeters>159</AltitudeMeters>
            <DistanceMeters>18799.050760541</DistanceMeters>
          </Trackpoint>
          <Trackpoint>
            <Time>2021-10-09T07:32:11.000Z</Time>
            <Position>
              <LatitudeDegrees>39.52646635472774505615234375</LatitudeDegrees>
              <LongitudeDegrees>-0.57069755159318447113037109375</LongitudeDegrees>
            </Position>
            <AltitudeMeters>158.8000030517578125</AltitudeMeters>
            <DistanceMeters>18806.935115063</DistanceMeters>
          </Trackpoint>
          <Trackpoint>
            <Time>2021-10-09T07:32:12.000Z</Time>
            <Position>
              <LatitudeDegrees>39.52653600834310054779052734375</LatitudeDegrees>
              <LongitudeDegrees>-0.57072822935879230499267578125</LongitudeDegrees>
            </Position>
            <AltitudeMeters>158.600006103515625</AltitudeMeters>
            <DistanceMeters>18815.122867351</DistanceMeters>
          </Trackpoint>
          <Trackpoint>
            <Time>2021-10-09T07:32:13.000Z</Time>
            <Position>
              <LatitudeDegrees>39.5266076736152172088623046875</LatitudeDegrees>
              <LongitudeDegrees>-0.57076108641922473907470703125</LongitudeDegrees>
            </Position>
            <AltitudeMeters>158.399993896484375</AltitudeMeters>
            <DistanceMeters>18823.582913798</DistanceMeters>
          </Trackpoint>
          <Trackpoint>
            <Time>2021-10-09T07:32:14.000Z</Time>
            <Position>
              <LatitudeDegrees>39.52668017707765102386474609375</LatitudeDegrees>
              <LongitudeDegrees>-0.5707946978509426116943359375</LongitudeDegrees>
            </Position>
            <AltitudeMeters>158.1999969482421875</AltitudeMeters>
            <DistanceMeters>18832.152721948</DistanceMeters>
          </Trackpoint>
          <Trackpoint>
            <Time>2021-10-09T07:32:15.000Z</Time>
            <Position>
              <LatitudeDegrees>39.526753015816211700439453125</LatitudeDegrees>
              <LongitudeDegrees>-0.57082931511104106903076171875</LongitudeDegrees>
            </Position>
            <AltitudeMeters>158</AltitudeMeters>
            <DistanceMeters>18840.787089969</DistanceMeters>
          </Trackpoint>
          <Trackpoint>
            <Time>2021-10-09T07:32:16.000Z</Time>
            <Position>
              <LatitudeDegrees>39.52682501636445522308349609375</LatitudeDegrees>
              <LongitudeDegrees>-0.5708604119718074798583984375</LongitudeDegrees>
            </Position>
            <AltitudeMeters>158</AltitudeMeters>
            <DistanceMeters>18849.23324909</DistanceMeters>
          </Trackpoint>
          <Trackpoint>
            <Time>2021-10-09T07:32:17.000Z</Time>
            <Position>
              <LatitudeDegrees>39.52689542435109615325927734375</LatitudeDegrees>
              <LongitudeDegrees>-0.570891760289669036865234375</LongitudeDegrees>
            </Position>
            <AltitudeMeters>158</AltitudeMeters>
            <DistanceMeters>18857.518575947</DistanceMeters>
          </Trackpoint>
          <Trackpoint>
            <Time>2021-10-09T07:32:18.000Z</Time>
            <Position>
              <LatitudeDegrees>39.52696616761386394500732421875</LatitudeDegrees>
              <LongitudeDegrees>-0.570923276245594024658203125</LongitudeDegrees>
            </Position>
            <AltitudeMeters>157.8000030517578125</AltitudeMeters>
            <DistanceMeters>18865.844673284</DistanceMeters>
          </Trackpoint>
          <Trackpoint>
            <Time>2021-10-09T07:32:19.000Z</Time>
            <Position>
              <LatitudeDegrees>39.52703498303890228271484375</LatitudeDegrees>
              <LongitudeDegrees>-0.570953786373138427734375</LongitudeDegrees>
            </Position>
            <AltitudeMeters>157.8000030517578125</AltitudeMeters>
            <DistanceMeters>18873.939253858</DistanceMeters>
          </Trackpoint>
          <Trackpoint>
            <Time>2021-10-09T07:32:20.000Z</Time>
            <Position>
              <LatitudeDegrees>39.5271035470068454742431640625</LatitudeDegrees>
              <LongitudeDegrees>-0.570982955396175384521484375</LongitudeDegrees>
            </Position>
            <AltitudeMeters>157.8000030517578125</AltitudeMeters>
            <DistanceMeters>18881.971119527</DistanceMeters>
          </Trackpoint>
          <Trackpoint>
            <Time>2021-10-09T07:32:21.000Z</Time>
            <Position>
              <LatitudeDegrees>39.52717018313705921173095703125</LatitudeDegrees>
              <LongitudeDegrees>-0.571012794971466064453125</LongitudeDegrees>
            </Position>
            <AltitudeMeters>157.8000030517578125</AltitudeMeters>
            <DistanceMeters>18889.818163</DistanceMeters>
          </Trackpoint>
          <Trackpoint>
            <Time>2021-10-09T07:32:22.000Z</Time>
            <Position>
              <LatitudeDegrees>39.52723640017211437225341796875</LatitudeDegrees>
              <LongitudeDegrees>-0.5710444785654544830322265625</LongitudeDegrees>
            </Position>
            <AltitudeMeters>157.8000030517578125</AltitudeMeters>
            <DistanceMeters>18897.673832444</DistanceMeters>
          </Trackpoint>
          <Trackpoint>
            <Time>2021-10-09T07:32:23.000Z</Time>
            <Position>
              <LatitudeDegrees>39.5273010246455669403076171875</LatitudeDegrees>
              <LongitudeDegrees>-0.5710766650736331939697265625</LongitudeDegrees>
            </Position>
            <AltitudeMeters>157.8000030517578125</AltitudeMeters>
            <DistanceMeters>18905.378618135</DistanceMeters>
          </Trackpoint>
          <Trackpoint>
            <Time>2021-10-09T07:32:24.000Z</Time>
            <Position>
              <LatitudeDegrees>39.5273630507290363311767578125</LatitudeDegrees>
              <LongitudeDegrees>-0.5711066722869873046875</LongitudeDegrees>
            </Position>
            <AltitudeMeters>158</AltitudeMeters>
            <DistanceMeters>18912.747325597</DistanceMeters>
          </Trackpoint>
          <Trackpoint>
            <Time>2021-10-09T07:32:25.000Z</Time>
            <Position>
              <LatitudeDegrees>39.52742398716509342193603515625</LatitudeDegrees>
              <LongitudeDegrees>-0.571133829653263092041015625</LongitudeDegrees>
            </Position>
            <AltitudeMeters>158</AltitudeMeters>
            <DistanceMeters>18919.91916744</DistanceMeters>
          </Trackpoint>
          <Trackpoint>
            <Time>2021-10-09T07:32:26.000Z</Time>
            <Position>
              <LatitudeDegrees>39.52748400159180164337158203125</LatitudeDegrees>
              <LongitudeDegrees>-0.5711598135530948638916015625</LongitudeDegrees>
            </Position>
            <AltitudeMeters>158</AltitudeMeters>
            <DistanceMeters>18926.962051076</DistanceMeters>
          </Trackpoint>
          <Trackpoint>
            <Time>2021-10-09T07:32:27.000Z</Time>
            <Position>
              <LatitudeDegrees>39.52754192054271697998046875</LatitudeDegrees>
              <LongitudeDegrees>-0.571184121072292327880859375</LongitudeDegrees>
            </Position>
            <AltitudeMeters>158.1999969482421875</AltitudeMeters>
            <DistanceMeters>18933.737662387</DistanceMeters>
          </Trackpoint>
          <Trackpoint>
            <Time>2021-10-09T07:32:28.000Z</Time>
            <Position>
              <LatitudeDegrees>39.52758626081049442291259765625</LatitudeDegrees>
              <LongitudeDegrees>-0.5712030641734600067138671875</LongitudeDegrees>
            </Position>
            <AltitudeMeters>158.1999969482421875</AltitudeMeters>
            <DistanceMeters>18938.933807937</DistanceMeters>
          </Trackpoint>
          <Trackpoint>
            <Time>2021-10-09T07:32:29.000Z</Time>
            <Position>
              <LatitudeDegrees>39.5276510529220104217529296875</LatitudeDegrees>
              <LongitudeDegrees>-0.57123248465359210968017578125</LongitudeDegrees>
            </Position>
            <AltitudeMeters>158.399993896484375</AltitudeMeters>
            <DistanceMeters>18946.574452164</DistanceMeters>
          </Trackpoint>
          <Trackpoint>
            <Time>2021-10-09T07:32:30.000Z</Time>
            <Position>
              <LatitudeDegrees>39.52770411036908626556396484375</LatitudeDegrees>
              <LongitudeDegrees>-0.57125746272504329681396484375</LongitudeDegrees>
            </Position>
            <AltitudeMeters>158.399993896484375</AltitudeMeters>
            <DistanceMeters>18952.857723144</DistanceMeters>
          </Trackpoint>
          <Trackpoint>
            <Time>2021-10-09T07:32:31.000Z</Time>
            <Position>
              <LatitudeDegrees>39.52775758691132068634033203125</LatitudeDegrees>
              <LongitudeDegrees>-0.57128143496811389923095703125</LongitudeDegrees>
            </Position>
            <AltitudeMeters>158.600006103515625</AltitudeMeters>
            <DistanceMeters>18959.155349343</DistanceMeters>
          </Trackpoint>
          <Trackpoint>
            <Time>2021-10-09T07:32:32.000Z</Time>
            <Position>
              <LatitudeDegrees>39.52779983170330524444580078125</LatitudeDegrees>
              <LongitudeDegrees>-0.5713016353547573089599609375</LongitudeDegrees>
            </Position>
            <AltitudeMeters>158.8000030517578125</AltitudeMeters>
            <DistanceMeters>18964.167501842</DistanceMeters>
          </Trackpoint>
          <Trackpoint>
            <Time>2021-10-09T07:32:33.000Z</Time>
            <Position>
              <LatitudeDegrees>39.52786571346223354339599609375</LatitudeDegrees>
              <LongitudeDegrees>-0.5713287927210330963134765625</LongitudeDegrees>
            </Position>
            <AltitudeMeters>158.8000030517578125</AltitudeMeters>
            <DistanceMeters>18971.861732223</DistanceMeters>
          </Trackpoint>
          <Trackpoint>
            <Time>2021-10-09T07:32:34.000Z</Time>
            <Position>
              <LatitudeDegrees>39.52791868709027767181396484375</LatitudeDegrees>
              <LongitudeDegrees>-0.57135351933538913726806640625</LongitudeDegrees>
            </Position>
            <AltitudeMeters>159</AltitudeMeters>
            <DistanceMeters>18978.129174487</DistanceMeters>
          </Trackpoint>
          <Trackpoint>
            <Time>2021-10-09T07:32:35.000Z</Time>
            <Position>
              <LatitudeDegrees>39.52797149308025836944580078125</LatitudeDegrees>
              <LongitudeDegrees>-0.57137933559715747833251953125</LongitudeDegrees>
            </Position>
            <AltitudeMeters>159.1999969482421875</AltitudeMeters>
            <DistanceMeters>18984.409570486</DistanceMeters>
          </Trackpoint>
          <Trackpoint>
            <Time>2021-10-09T07:32:36.000Z</Time>
            <Position>
              <LatitudeDegrees>39.5280121453106403350830078125</LatitudeDegrees>
              <LongitudeDegrees>-0.57139878161251544952392578125</LongitudeDegrees>
            </Position>
            <AltitudeMeters>159.1999969482421875</AltitudeMeters>
            <DistanceMeters>18989.231649586</DistanceMeters>
          </Trackpoint>
          <Trackpoint>
            <Time>2021-10-09T07:32:37.000Z</Time>
            <Position>
              <LatitudeDegrees>39.52807274647057056427001953125</LatitudeDegrees>
              <LongitudeDegrees>-0.5714273639023303985595703125</LongitudeDegrees>
            </Position>
            <AltitudeMeters>159.399993896484375</AltitudeMeters>
            <DistanceMeters>18996.408526068</DistanceMeters>
          </Trackpoint>
          <Trackpoint>
            <Time>2021-10-09T07:32:38.000Z</Time>
            <Position>
              <LatitudeDegrees>39.52812287025153636932373046875</LatitudeDegrees>
              <LongitudeDegrees>-0.57145058177411556243896484375</LongitudeDegrees>
            </Position>
            <AltitudeMeters>159.600006103515625</AltitudeMeters>
            <DistanceMeters>19002.333043528</DistanceMeters>
          </Trackpoint>
          <Trackpoint>
            <Time>2021-10-09T07:32:39.000Z</Time>
            <Position>
              <LatitudeDegrees>39.52817383222281932830810546875</LatitudeDegrees>
              <LongitudeDegrees>-0.5714722909033298492431640625</LongitudeDegrees>
            </Position>
            <AltitudeMeters>159.8000030517578125</AltitudeMeters>
            <DistanceMeters>19008.303867743</DistanceMeters>
          </Trackpoint>
          <Trackpoint>
            <Time>2021-10-09T07:32:40.000Z</Time>
            <Position>
              <LatitudeDegrees>39.5282240398228168487548828125</LatitudeDegrees>
              <LongitudeDegrees>-0.5714942514896392822265625</LongitudeDegrees>
            </Position>
            <AltitudeMeters>160</AltitudeMeters>
            <DistanceMeters>19014.202417102</DistanceMeters>
          </Trackpoint>
          <Trackpoint>
            <Time>2021-10-09T07:32:41.000Z</Time>
            <Position>
              <LatitudeDegrees>39.52827324159443378448486328125</LatitudeDegrees>
              <LongitudeDegrees>-0.57151637971401214599609375</LongitudeDegrees>
            </Position>
            <AltitudeMeters>160.399993896484375</AltitudeMeters>
            <DistanceMeters>19019.999825533</DistanceMeters>
          </Trackpoint>
          <Trackpoint>
            <Time>2021-10-09T07:32:42.000Z</Time>
            <Position>
              <LatitudeDegrees>39.52832219190895557403564453125</LatitudeDegrees>
              <LongitudeDegrees>-0.57153808884322643280029296875</LongitudeDegrees>
            </Position>
            <AltitudeMeters>160.600006103515625</AltitudeMeters>
            <DistanceMeters>19025.75816216</DistanceMeters>
          </Trackpoint>
          <Trackpoint>
            <Time>2021-10-09T07:32:43.000Z</Time>
            <Position>
              <LatitudeDegrees>39.52836996875703334808349609375</LatitudeDegrees>
              <LongitudeDegrees>-0.571559630334377288818359375</LongitudeDegrees>
            </Position>
            <AltitudeMeters>160.8000030517578125</AltitudeMeters>
            <DistanceMeters>19031.388043892</DistanceMeters>
          </Trackpoint>
          <Trackpoint>
            <Time>2021-10-09T07:32:44.000Z</Time>
            <Position>
              <LatitudeDegrees>39.52841774560511112213134765625</LatitudeDegrees>
              <LongitudeDegrees>-0.57158083654940128326416015625</LongitudeDegrees>
            </Position>
            <AltitudeMeters>161</AltitudeMeters>
            <DistanceMeters>19037.008293655</DistanceMeters>
          </Trackpoint>
          <Trackpoint>
            <Time>2021-10-09T07:32:45.000Z</Time>
            <Position>
              <LatitudeDegrees>39.52846535481512546539306640625</LatitudeDegrees>
              <LongitudeDegrees>-0.57160296477377414703369140625</LongitudeDegrees>
            </Position>
            <AltitudeMeters>161.1999969482421875</AltitudeMeters>
            <DistanceMeters>19042.638175387</DistanceMeters>
          </Trackpoint>
          <Trackpoint>
            <Time>2021-10-09T07:32:46.000Z</Time>
            <Position>
              <LatitudeDegrees>39.52851430512964725494384765625</LatitudeDegrees>
              <LongitudeDegrees>-0.57162492536008358001708984375</LongitudeDegrees>
            </Position>
            <AltitudeMeters>161.399993896484375</AltitudeMeters>
            <DistanceMeters>19048.404347555</DistanceMeters>
          </Trackpoint>
          <Trackpoint>
            <Time>2021-10-09T07:32:47.000Z</Time>
            <Position>
              <LatitudeDegrees>39.5285633392632007598876953125</LatitudeDegrees>
              <LongitudeDegrees>-0.57164705358445644378662109375</LongitudeDegrees>
            </Position>
            <AltitudeMeters>161.8000030517578125</AltitudeMeters>
            <DistanceMeters>19054.18459693</DistanceMeters>
          </Trackpoint>
          <Trackpoint>
            <Time>2021-10-09T07:32:48.000Z</Time>
            <Position>
              <LatitudeDegrees>39.52861170284450054168701171875</LatitudeDegrees>
              <LongitudeDegrees>-0.57167152874171733856201171875</LongitudeDegrees>
            </Position>
            <AltitudeMeters>162</AltitudeMeters>
            <DistanceMeters>19059.963283865</DistanceMeters>
          </Trackpoint>
          <Trackpoint>
            <Time>2021-10-09T07:32:49.000Z</Time>
            <Position>
              <LatitudeDegrees>39.5286602340638637542724609375</LatitudeDegrees>
              <LongitudeDegrees>-0.571693740785121917724609375</LongitudeDegrees>
            </Position>
            <AltitudeMeters>162.1999969482421875</AltitudeMeters>
            <DistanceMeters>19065.69174769</DistanceMeters>
          </Trackpoint>
          <Trackpoint>
            <Time>2021-10-09T07:32:50.000Z</Time>
            <Position>
              <LatitudeDegrees>39.52870792709290981292724609375</LatitudeDegrees>
              <LongitudeDegrees>-0.5717140249907970428466796875</LongitudeDegrees>
            </Position>
            <AltitudeMeters>162.1999969482421875</AltitudeMeters>
            <DistanceMeters>19071.278962942</DistanceMeters>
          </Trackpoint>
          <Trackpoint>
            <Time>2021-10-09T07:32:51.000Z</Time>
            <Position>
              <LatitudeDegrees>39.528756625950336456298828125</LatitudeDegrees>
              <LongitudeDegrees>-0.57173355482518672943115234375</LongitudeDegrees>
            </Position>
            <AltitudeMeters>162.399993896484375</AltitudeMeters>
            <DistanceMeters>19076.951986161</DistanceMeters>
          </Trackpoint>
          <Trackpoint>
            <Time>2021-10-09T07:32:52.000Z</Time>
            <Position>
              <LatitudeDegrees>39.52880322933197021484375</LatitudeDegrees>
              <LongitudeDegrees>-0.5717549286782741546630859375</LongitudeDegrees>
            </Position>
            <AltitudeMeters>162.600006103515625</AltitudeMeters>
            <DistanceMeters>19082.454517062</DistanceMeters>
          </Trackpoint>
          <Trackpoint>
            <Time>2021-10-09T07:32:53.000Z</Time>
            <Position>
              <LatitudeDegrees>39.5288501679897308349609375</LatitudeDegrees>
              <LongitudeDegrees>-0.57177655398845672607421875</LongitudeDegrees>
            </Position>
            <AltitudeMeters>162.8000030517578125</AltitudeMeters>
            <DistanceMeters>19088.000365993</DistanceMeters>
          </Trackpoint>
          <Trackpoint>
            <Time>2021-10-09T07:32:54.000Z</Time>
            <Position>
              <LatitudeDegrees>39.52889819629490375518798828125</LatitudeDegrees>
              <LongitudeDegrees>-0.57179558090865612030029296875</LongitudeDegrees>
            </Position>
            <AltitudeMeters>162.8000030517578125</AltitudeMeters>
            <DistanceMeters>19093.591620294</DistanceMeters>
          </Trackpoint>
          <Trackpoint>
            <Time>2021-10-09T07:32:55.000Z</Time>
            <Position>
              <LatitudeDegrees>39.5289472304284572601318359375</LatitudeDegrees>
              <LongitudeDegrees>-0.57181318290531635284423828125</LongitudeDegrees>
            </Position>
            <AltitudeMeters>163</AltitudeMeters>
            <DistanceMeters>19099.255084916</DistanceMeters>
          </Trackpoint>
          <Trackpoint>
            <Time>2021-10-09T07:32:56.000Z</Time>
            <Position>
              <LatitudeDegrees>39.52899592928588390350341796875</LatitudeDegrees>
              <LongitudeDegrees>-0.57183195836842060089111328125</LongitudeDegrees>
            </Position>
            <AltitudeMeters>163.1999969482421875</AltitudeMeters>
            <DistanceMeters>19104.909773297</DistanceMeters>
          </Trackpoint>
          <Trackpoint>
            <Time>2021-10-09T07:32:57.000Z</Time>
            <Position>
              <LatitudeDegrees>39.529044963419437408447265625</LatitudeDegrees>
              <LongitudeDegrees>-0.57185358367860317230224609375</LongitudeDegrees>
            </Position>
            <AltitudeMeters>163.399993896484375</AltitudeMeters>
            <DistanceMeters>19110.674379209</DistanceMeters>
          </Trackpoint>
          <Trackpoint>
            <Time>2021-10-09T07:32:58.000Z</Time>
            <Position>
              <LatitudeDegrees>39.52909357845783233642578125</LatitudeDegrees>
              <LongitudeDegrees>-0.57187336497008800506591796875</LongitudeDegrees>
            </Position>
            <AltitudeMeters>163.600006103515625</AltitudeMeters>
            <DistanceMeters>19116.345810447</DistanceMeters>
          </Trackpoint>
          <Trackpoint>
            <Time>2021-10-09T07:32:59.000Z</Time>
            <Position>
              <LatitudeDegrees>39.529142193496227264404296875</LatitudeDegrees>
              <LongitudeDegrees>-0.571893565356731414794921875</LongitudeDegrees>
            </Position>
            <AltitudeMeters>163.600006103515625</AltitudeMeters>
            <DistanceMeters>19122.028376185</DistanceMeters>
          </Trackpoint>
          <Trackpoint>
            <Time>2021-10-09T07:33:00.000Z</Time>
            <Position>
              <LatitudeDegrees>39.52919072471559047698974609375</LatitudeDegrees>
              <LongitudeDegrees>-0.57191560976207256317138671875</LongitudeDegrees>
            </Position>
            <AltitudeMeters>163.8000030517578125</AltitudeMeters>
            <DistanceMeters>19127.752109</DistanceMeters>
          </Trackpoint>
          <Trackpoint>
            <Time>2021-10-09T07:33:01.000Z</Time>
            <Position>
              <LatitudeDegrees>39.529239423573017120361328125</LatitudeDegrees>
              <LongitudeDegrees>-0.57193790562450885772705078125</LongitudeDegrees>
            </Position>
            <AltitudeMeters>163.8000030517578125</AltitudeMeters>
            <DistanceMeters>19133.50102888</DistanceMeters>
          </Trackpoint>
          <Trackpoint>
            <Time>2021-10-09T07:33:02.000Z</Time>
            <Position>
              <LatitudeDegrees>39.52928812243044376373291015625</LatitudeDegrees>
              <LongitudeDegrees>-0.57195961475372314453125</LongitudeDegrees>
            </Position>
            <AltitudeMeters>163.8000030517578125</AltitudeMeters>
            <DistanceMeters>19139.233432231</DistanceMeters>
          </Trackpoint>
          <Trackpoint>
            <Time>2021-10-09T07:33:03.000Z</Time>
            <Position>
              <LatitudeDegrees>39.529336653649806976318359375</LatitudeDegrees>
              <LongitudeDegrees>-0.57198232971131801605224609375</LongitudeDegrees>
            </Position>
            <AltitudeMeters>164.1999969482421875</AltitudeMeters>
            <DistanceMeters>19144.976065701</DistanceMeters>
          </Trackpoint>
          <Trackpoint>
            <Time>2021-10-09T07:33:04.000Z</Time>
            <Position>
              <LatitudeDegrees>39.52938434667885303497314453125</LatitudeDegrees>
              <LongitudeDegrees>-0.572006218135356903076171875</LongitudeDegrees>
            </Position>
            <AltitudeMeters>164.600006103515625</AltitudeMeters>
            <DistanceMeters>19150.666571314</DistanceMeters>
          </Trackpoint>
          <Trackpoint>
            <Time>2021-10-09T07:33:05.000Z</Time>
            <Position>
              <LatitudeDegrees>39.5294340513646602630615234375</LatitudeDegrees>
              <LongitudeDegrees>-0.57202876545488834381103515625</LongitudeDegrees>
            </Position>
            <AltitudeMeters>165</AltitudeMeters>
            <DistanceMeters>19156.527493664</DistanceMeters>
          </Trackpoint>
          <Trackpoint>
            <Time>2021-10-09T07:33:06.000Z</Time>
            <Position>
              <LatitudeDegrees>39.5294850133359432220458984375</LatitudeDegrees>
              <LongitudeDegrees>-0.5720496363937854766845703125</LongitudeDegrees>
            </Position>
            <AltitudeMeters>165.1999969482421875</AltitudeMeters>
            <DistanceMeters>19162.477107068</DistanceMeters>
          </Trackpoint>
          <Trackpoint>
            <Time>2021-10-09T07:33:07.000Z</Time>
            <Position>
              <LatitudeDegrees>39.52953522093594074249267578125</LatitudeDegrees>
              <LongitudeDegrees>-0.572070591151714324951171875</LongitudeDegrees>
            </Position>
            <AltitudeMeters>165.399993896484375</AltitudeMeters>
            <DistanceMeters>19168.347266496</DistanceMeters>
          </Trackpoint>
          <Trackpoint>
            <Time>2021-10-09T07:33:08.000Z</Time>
            <Position>
              <LatitudeDegrees>39.529586099088191986083984375</LatitudeDegrees>
              <LongitudeDegrees>-0.5720932222902774810791015625</LongitudeDegrees>
            </Position>
            <AltitudeMeters>165.399993896484375</AltitudeMeters>
            <DistanceMeters>19174.333195274</DistanceMeters>
          </Trackpoint>
          <Trackpoint>
            <Time>2021-10-09T07:33:09.000Z</Time>
            <Position>
              <LatitudeDegrees>39.5296375639736652374267578125</LatitudeDegrees>
              <LongitudeDegrees>-0.5721156857907772064208984375</LongitudeDegrees>
            </Position>
            <AltitudeMeters>165.600006103515625</AltitudeMeters>
            <DistanceMeters>19180.37692419</DistanceMeters>
          </Trackpoint>
          <Trackpoint>
            <Time>2021-10-09T07:33:10.000Z</Time>
            <Position>
              <LatitudeDegrees>39.52969045378267765045166015625</LatitudeDegrees>
              <LongitudeDegrees>-0.5721404962241649627685546875</LongitudeDegrees>
            </Position>
            <AltitudeMeters>165.600006103515625</AltitudeMeters>
            <DistanceMeters>19186.636437086</DistanceMeters>
          </Trackpoint>
          <Trackpoint>
            <Time>2021-10-09T07:33:11.000Z</Time>
            <Position>
              <LatitudeDegrees>39.529745019972324371337890625</LatitudeDegrees>
              <LongitudeDegrees>-0.5721646361052989959716796875</LongitudeDegrees>
            </Position>
            <AltitudeMeters>165.8000030517578125</AltitudeMeters>
            <DistanceMeters>19193.053379394</DistanceMeters>
          </Trackpoint>
          <Trackpoint>
            <Time>2021-10-09T07:33:12.000Z</Time>
            <Position>
              <LatitudeDegrees>39.52979941852390766143798828125</LatitudeDegrees>
              <LongitudeDegrees>-0.57218953035771846771240234375</LongitudeDegrees>
            </Position>
            <AltitudeMeters>165.8000030517578125</AltitudeMeters>
            <DistanceMeters>19199.474541986</DistanceMeters>
          </Trackpoint>
          <Trackpoint>
            <Time>2021-10-09T07:33:13.000Z</Time>
            <Position>
              <LatitudeDegrees>39.529853649437427520751953125</LatitudeDegrees>
              <LongitudeDegrees>-0.5722155980765819549560546875</LongitudeDegrees>
            </Position>
            <AltitudeMeters>165.8000030517578125</AltitudeMeters>
            <DistanceMeters>19205.911155283</DistanceMeters>
          </Trackpoint>
          <Trackpoint>
            <Time>2021-10-09T07:33:14.000Z</Time>
            <Position>
              <LatitudeDegrees>39.5299091376364231109619140625</LatitudeDegrees>
              <LongitudeDegrees>-0.57223965413868427276611328125</LongitudeDegrees>
            </Position>
            <AltitudeMeters>165.8000030517578125</AltitudeMeters>
            <DistanceMeters>19212.423085794</DistanceMeters>
          </Trackpoint>
          <Trackpoint>
            <Time>2021-10-09T07:33:15.000Z</Time>
            <Position>
              <LatitudeDegrees>39.52996588312089443206787109375</LatitudeDegrees>
              <LongitudeDegrees>-0.57226446457207202911376953125</LongitudeDegrees>
            </Position>
            <AltitudeMeters>166</AltitudeMeters>
            <DistanceMeters>19219.08851722</DistanceMeters>
          </Trackpoint>
          <Trackpoint>
            <Time>2021-10-09T07:33:16.000Z</Time>
            <Position>
              <LatitudeDegrees>39.53002455644309520721435546875</LatitudeDegrees>
              <LongitudeDegrees>-0.57229078374803066253662109375</LongitudeDegrees>
            </Position>
            <AltitudeMeters>166</AltitudeMeters>
            <DistanceMeters>19225.998730259</DistanceMeters>
          </Trackpoint>
          <Trackpoint>
            <Time>2021-10-09T07:33:17.000Z</Time>
            <Position>
              <LatitudeDegrees>39.530084319412708282470703125</LatitudeDegrees>
              <LongitudeDegrees>-0.5723165161907672882080078125</LongitudeDegrees>
            </Position>
            <AltitudeMeters>165.8000030517578125</AltitudeMeters>
            <DistanceMeters>19233.007554401</DistanceMeters>
          </Trackpoint>
          <Trackpoint>
            <Time>2021-10-09T07:33:18.000Z</Time>
            <Position>
              <LatitudeDegrees>39.53014760278165340423583984375</LatitudeDegrees>
              <LongitudeDegrees>-0.572342164814472198486328125</LongitudeDegrees>
            </Position>
            <AltitudeMeters>165.8000030517578125</AltitudeMeters>
            <DistanceMeters>19240.386670944</DistanceMeters>
          </Trackpoint>
          <Trackpoint>
            <Time>2021-10-09T07:33:19.000Z</Time>
            <Position>
              <LatitudeDegrees>39.53021365217864513397216796875</LatitudeDegrees>
              <LongitudeDegrees>-0.57237275876104831695556640625</LongitudeDegrees>
            </Position>
            <AltitudeMeters>165.8000030517578125</AltitudeMeters>
            <DistanceMeters>19248.193333862</DistanceMeters>
          </Trackpoint>
          <Trackpoint>
            <Time>2021-10-09T07:33:20.000Z</Time>
            <Position>
              <LatitudeDegrees>39.53028179705142974853515625</LatitudeDegrees>
              <LongitudeDegrees>-0.57240393944084644317626953125</LongitudeDegrees>
            </Position>
            <AltitudeMeters>165.8000030517578125</AltitudeMeters>
            <DistanceMeters>19256.237557119</DistanceMeters>
          </Trackpoint>
          <Trackpoint>
            <Time>2021-10-09T07:33:21.000Z</Time>
            <Position>
              <LatitudeDegrees>39.53035446815192699432373046875</LatitudeDegrees>
              <LongitudeDegrees>-0.57243227027356624603271484375</LongitudeDegrees>
            </Position>
            <AltitudeMeters>165.1999969482421875</AltitudeMeters>
            <DistanceMeters>19264.68371624</DistanceMeters>
          </Trackpoint>
          <Trackpoint>
            <Time>2021-10-09T07:33:22.000Z</Time>
            <Position>
              <LatitudeDegrees>39.53043065965175628662109375</LatitudeDegrees>
              <LongitudeDegrees>-0.5724590085446834564208984375</LongitudeDegrees>
            </Position>
            <AltitudeMeters>164.8000030517578125</AltitudeMeters>
            <DistanceMeters>19273.468934699</DistanceMeters>
          </Trackpoint>
          <Trackpoint>
            <Time>2021-10-09T07:33:23.000Z</Time>
            <Position>
              <LatitudeDegrees>39.5305109582841396331787109375</LatitudeDegrees>
              <LongitudeDegrees>-0.5724834837019443511962890625</LongitudeDegrees>
            </Position>
            <AltitudeMeters>164.600006103515625</AltitudeMeters>
            <DistanceMeters>19282.649715359</DistanceMeters>
          </Trackpoint>
          <Trackpoint>
            <Time>2021-10-09T07:33:24.000Z</Time>
            <Position>
              <LatitudeDegrees>39.53059695661067962646484375</LatitudeDegrees>
              <LongitudeDegrees>-0.57250611484050750732421875</LongitudeDegrees>
            </Position>
            <AltitudeMeters>164.399993896484375</AltitudeMeters>
            <DistanceMeters>19292.416686617</DistanceMeters>
          </Trackpoint>
          <Trackpoint>
            <Time>2021-10-09T07:33:25.000Z</Time>
            <Position>
              <LatitudeDegrees>39.5306861400604248046875</LatitudeDegrees>
              <LongitudeDegrees>-0.57252530939877033233642578125</LongitudeDegrees>
            </Position>
            <AltitudeMeters>164</AltitudeMeters>
            <DistanceMeters>19302.478754848</DistanceMeters>
          </Trackpoint>
          <Trackpoint>
            <Time>2021-10-09T07:33:26.000Z</Time>
            <Position>
              <LatitudeDegrees>39.53077741898596286773681640625</LatitudeDegrees>
              <LongitudeDegrees>-0.57253788225352764129638671875</LongitudeDegrees>
            </Position>
            <AltitudeMeters>163.600006103515625</AltitudeMeters>
            <DistanceMeters>19312.695783951</DistanceMeters>
          </Trackpoint>
          <Trackpoint>
            <Time>2021-10-09T07:33:27.000Z</Time>
            <Position>
              <LatitudeDegrees>39.530872218310832977294921875</LatitudeDegrees>
              <LongitudeDegrees>-0.5725429952144622802734375</LongitudeDegrees>
            </Position>
            <AltitudeMeters>163.399993896484375</AltitudeMeters>
            <DistanceMeters>19323.25615535</DistanceMeters>
          </Trackpoint>
          <Trackpoint>
            <Time>2021-10-09T07:33:28.000Z</Time>
            <Position>
              <LatitudeDegrees>39.53096819110214710235595703125</LatitudeDegrees>
              <LongitudeDegrees>-0.57254291139543056488037109375</LongitudeDegrees>
            </Position>
            <AltitudeMeters>162.8000030517578125</AltitudeMeters>
            <DistanceMeters>19333.938104889</DistanceMeters>
          </Trackpoint>
          <Trackpoint>
            <Time>2021-10-09T07:33:29.000Z</Time>
            <Position>
              <LatitudeDegrees>39.53106500208377838134765625</LatitudeDegrees>
              <LongitudeDegrees>-0.5725394748151302337646484375</LongitudeDegrees>
            </Position>
            <AltitudeMeters>162</AltitudeMeters>
            <DistanceMeters>19344.717669986</DistanceMeters>
          </Trackpoint>
          <Trackpoint>
            <Time>2021-10-09T07:33:30.000Z</Time>
            <Position>
              <LatitudeDegrees>39.53116298653185367584228515625</LatitudeDegrees>
              <LongitudeDegrees>-0.5725349485874176025390625</LongitudeDegrees>
            </Position>
            <AltitudeMeters>161.600006103515625</AltitudeMeters>
            <DistanceMeters>19355.630444525</DistanceMeters>
          </Trackpoint>
          <Trackpoint>
            <Time>2021-10-09T07:33:31.000Z</Time>
            <Position>
              <LatitudeDegrees>39.5312613062560558319091796875</LatitudeDegrees>
              <LongitudeDegrees>-0.57253000326454639434814453125</LongitudeDegrees>
            </Position>
            <AltitudeMeters>161</AltitudeMeters>
            <DistanceMeters>19366.582041455</DistanceMeters>
          </Trackpoint>
          <Trackpoint>
            <Time>2021-10-09T07:33:32.000Z</Time>
            <Position>
              <LatitudeDegrees>39.531361721456050872802734375</LatitudeDegrees>
              <LongitudeDegrees>-0.57251960970461368560791015625</LongitudeDegrees>
            </Position>
            <AltitudeMeters>160.600006103515625</AltitudeMeters>
            <DistanceMeters>19377.794388411</DistanceMeters>
          </Trackpoint>
          <Trackpoint>
            <Time>2021-10-09T07:33:33.000Z</Time>
            <Position>
              <LatitudeDegrees>39.53144277445971965789794921875</LatitudeDegrees>
              <LongitudeDegrees>-0.57250435464084148406982421875</LongitudeDegrees>
            </Position>
            <AltitudeMeters>159.8000030517578125</AltitudeMeters>
            <DistanceMeters>19386.911011886</DistanceMeters>
          </Trackpoint>
          <Trackpoint>
            <Time>2021-10-09T07:33:34.000Z</Time>
            <Position>
              <LatitudeDegrees>39.53156112693250179290771484375</LatitudeDegrees>
              <LongitudeDegrees>-0.57247526943683624267578125</LongitudeDegrees>
            </Position>
            <AltitudeMeters>159.600006103515625</AltitudeMeters>
            <DistanceMeters>19400.318873828</DistanceMeters>
          </Trackpoint>
          <Trackpoint>
            <Time>2021-10-09T07:33:35.000Z</Time>
            <Position>
              <LatitudeDegrees>39.531652741134166717529296875</LatitudeDegrees>
              <LongitudeDegrees>-0.57244601659476757049560546875</LongitudeDegrees>
            </Position>
            <AltitudeMeters>159</AltitudeMeters>
            <DistanceMeters>19410.820508158</DistanceMeters>
          </Trackpoint>
          <Trackpoint>
            <Time>2021-10-09T07:33:36.000Z</Time>
            <Position>
              <LatitudeDegrees>39.53171988017857074737548828125</LatitudeDegrees>
              <LongitudeDegrees>-0.57241349481046199798583984375</LongitudeDegrees>
            </Position>
            <AltitudeMeters>158.1999969482421875</AltitudeMeters>
            <DistanceMeters>19418.797093808</DistanceMeters>
          </Trackpoint>
          <Trackpoint>
            <Time>2021-10-09T07:33:37.000Z</Time>
            <Position>
              <LatitudeDegrees>39.5318118296563625335693359375</LatitudeDegrees>
              <LongitudeDegrees>-0.572344176471233367919921875</LongitudeDegrees>
            </Position>
            <AltitudeMeters>157.8000030517578125</AltitudeMeters>
            <DistanceMeters>19430.634691801</DistanceMeters>
          </Trackpoint>
          <Trackpoint>
            <Time>2021-10-09T07:33:38.000Z</Time>
            <Position>
              <LatitudeDegrees>39.53187293373048305511474609375</LatitudeDegrees>
              <LongitudeDegrees>-0.5722640454769134521484375</LongitudeDegrees>
            </Position>
            <AltitudeMeters>157</AltitudeMeters>
            <DistanceMeters>19440.307832559</DistanceMeters>
          </Trackpoint>
          <Trackpoint>
            <Time>2021-10-09T07:33:39.000Z</Time>
            <Position>
              <LatitudeDegrees>39.5319264940917491912841796875</LatitudeDegrees>
              <LongitudeDegrees>-0.572179220616817474365234375</LongitudeDegrees>
            </Position>
            <AltitudeMeters>156.600006103515625</AltitudeMeters>
            <DistanceMeters>19449.718836212</DistanceMeters>
          </Trackpoint>
          <Trackpoint>
            <Time>2021-10-09T07:33:40.000Z</Time>
            <Position>
              <LatitudeDegrees>39.53198843635618686676025390625</LatitudeDegrees>
              <LongitudeDegrees>-0.57210914790630340576171875</LongitudeDegrees>
            </Position>
            <AltitudeMeters>156.399993896484375</AltitudeMeters>
            <DistanceMeters>19458.868581493</DistanceMeters>
          </Trackpoint>
          <Trackpoint>
            <Time>2021-10-09T07:33:41.000Z</Time>
            <Position>
              <LatitudeDegrees>39.53204476274549961090087890625</LatitudeDegrees>
              <LongitudeDegrees>-0.5720804817974567413330078125</LongitudeDegrees>
            </Position>
            <AltitudeMeters>156.1999969482421875</AltitudeMeters>
            <DistanceMeters>19465.602751368</DistanceMeters>
          </Trackpoint>
          <Trackpoint>
            <Time>2021-10-09T07:33:42.000Z</Time>
            <Position>
              <LatitudeDegrees>39.53211843967437744140625</LatitudeDegrees>
              <LongitudeDegrees>-0.57207905687391757965087890625</LongitudeDegrees>
            </Position>
            <AltitudeMeters>155.8000030517578125</AltitudeMeters>
            <DistanceMeters>19473.80372749</DistanceMeters>
          </Trackpoint>
          <Trackpoint>
            <Time>2021-10-09T07:33:43.000Z</Time>
            <Position>
              <LatitudeDegrees>39.53219932503998279571533203125</LatitudeDegrees>
              <LongitudeDegrees>-0.57211845181882381439208984375</LongitudeDegrees>
            </Position>
            <AltitudeMeters>155.399993896484375</AltitudeMeters>
            <DistanceMeters>19483.420693901</DistanceMeters>
          </Trackpoint>
          <Trackpoint>
            <Time>2021-10-09T07:33:44.000Z</Time>
            <Position>
              <LatitudeDegrees>39.5322584174573421478271484375</LatitudeDegrees>
              <LongitudeDegrees>-0.57217863388359546661376953125</LongitudeDegrees>
            </Position>
            <AltitudeMeters>155.399993896484375</AltitudeMeters>
            <DistanceMeters>19491.784664382</DistanceMeters>
          </Trackpoint>
          <Trackpoint>
            <Time>2021-10-09T07:33:45.000Z</Time>
            <Position>
              <LatitudeDegrees>39.5323184318840503692626953125</LatitudeDegrees>
              <LongitudeDegrees>-0.57224459946155548095703125</LongitudeDegrees>
            </Position>
            <AltitudeMeters>155.1999969482421875</AltitudeMeters>
            <DistanceMeters>19500.542086333</DistanceMeters>
          </Trackpoint>
          <Trackpoint>
            <Time>2021-10-09T07:33:46.000Z</Time>
            <Position>
              <LatitudeDegrees>39.53238842077553272247314453125</LatitudeDegrees>
              <LongitudeDegrees>-0.5723007582128047943115234375</LongitudeDegrees>
            </Position>
            <AltitudeMeters>155</AltitudeMeters>
            <DistanceMeters>19509.703667013</DistanceMeters>
          </Trackpoint>
          <Trackpoint>
            <Time>2021-10-09T07:33:47.000Z</Time>
            <Position>
              <LatitudeDegrees>39.53246570192277431488037109375</LatitudeDegrees>
              <LongitudeDegrees>-0.57233604602515697479248046875</LongitudeDegrees>
            </Position>
            <AltitudeMeters>154.8000030517578125</AltitudeMeters>
            <DistanceMeters>19518.822766419</DistanceMeters>
          </Trackpoint>
          <Trackpoint>
            <Time>2021-10-09T07:33:48.000Z</Time>
            <Position>
              <LatitudeDegrees>39.5325484313070774078369140625</LatitudeDegrees>
              <LongitudeDegrees>-0.57235381565988063812255859375</LongitudeDegrees>
            </Position>
            <AltitudeMeters>154.600006103515625</AltitudeMeters>
            <DistanceMeters>19528.156208841</DistanceMeters>
          </Trackpoint>
          <Trackpoint>
            <Time>2021-10-09T07:33:49.000Z</Time>
            <Position>
              <LatitudeDegrees>39.532634429633617401123046875</LatitudeDegrees>
              <LongitudeDegrees>-0.57236731052398681640625</LongitudeDegrees>
            </Position>
            <AltitudeMeters>154.399993896484375</AltitudeMeters>
            <DistanceMeters>19537.797557653</DistanceMeters>
          </Trackpoint>
          <Trackpoint>
            <Time>2021-10-09T07:33:50.000Z</Time>
            <Position>
              <LatitudeDegrees>39.532721601426601409912109375</LatitudeDegrees>
              <LongitudeDegrees>-0.57238147594034671783447265625</LongitudeDegrees>
            </Position>
            <AltitudeMeters>154</AltitudeMeters>
            <DistanceMeters>19547.576078986</DistanceMeters>
          </Trackpoint>
          <Trackpoint>
            <Time>2021-10-09T07:33:51.000Z</Time>
            <Position>
              <LatitudeDegrees>39.53280902467668056488037109375</LatitudeDegrees>
              <LongitudeDegrees>-0.57239471934735774993896484375</LongitudeDegrees>
            </Position>
            <AltitudeMeters>153.8000030517578125</AltitudeMeters>
            <DistanceMeters>19557.372591246</DistanceMeters>
          </Trackpoint>
          <Trackpoint>
            <Time>2021-10-09T07:33:52.000Z</Time>
            <Position>
              <LatitudeDegrees>39.53289552591741085052490234375</LatitudeDegrees>
              <LongitudeDegrees>-0.572404526174068450927734375</LongitudeDegrees>
            </Position>
            <AltitudeMeters>153.600006103515625</AltitudeMeters>
            <DistanceMeters>19567.037326666</DistanceMeters>
          </Trackpoint>
          <Trackpoint>
            <Time>2021-10-09T07:33:53.000Z</Time>
            <Position>
              <LatitudeDegrees>39.53298387117683887481689453125</LatitudeDegrees>
              <LongitudeDegrees>-0.57240963913500308990478515625</LongitudeDegrees>
            </Position>
            <AltitudeMeters>153.399993896484375</AltitudeMeters>
            <DistanceMeters>19576.879819241</DistanceMeters>
          </Trackpoint>
          <Trackpoint>
            <Time>2021-10-09T07:33:54.000Z</Time>
            <Position>
              <LatitudeDegrees>39.53307322226464748382568359375</LatitudeDegrees>
              <LongitudeDegrees>-0.57241089642047882080078125</LongitudeDegrees>
            </Position>
            <AltitudeMeters>153</AltitudeMeters>
            <DistanceMeters>19586.825444277</DistanceMeters>
          </Trackpoint>
          <Trackpoint>
            <Time>2021-10-09T07:33:55.000Z</Time>
            <Position>
              <LatitudeDegrees>39.5331633277237415313720703125</LatitudeDegrees>
              <LongitudeDegrees>-0.5724073760211467742919921875</LongitudeDegrees>
            </Position>
            <AltitudeMeters>152.8000030517578125</AltitudeMeters>
            <DistanceMeters>19596.858753412</DistanceMeters>
          </Trackpoint>
          <Trackpoint>
            <Time>2021-10-09T07:33:56.000Z</Time>
            <Position>
              <LatitudeDegrees>39.53325234353542327880859375</LatitudeDegrees>
              <LongitudeDegrees>-0.57240125723183155059814453125</LongitudeDegrees>
            </Position>
            <AltitudeMeters>152.600006103515625</AltitudeMeters>
            <DistanceMeters>19606.779833658</DistanceMeters>
          </Trackpoint>
          <Trackpoint>
            <Time>2021-10-09T07:33:57.000Z</Time>
            <Position>
              <LatitudeDegrees>39.533341191709041595458984375</LatitudeDegrees>
              <LongitudeDegrees>-0.57239354588091373443603515625</LongitudeDegrees>
            </Position>
            <AltitudeMeters>152.399993896484375</AltitudeMeters>
            <DistanceMeters>19616.690896747</DistanceMeters>
          </Trackpoint>
          <Trackpoint>
            <Time>2021-10-09T07:33:58.000Z</Time>
            <Position>
              <LatitudeDegrees>39.53343071043491363525390625</LatitudeDegrees>
              <LongitudeDegrees>-0.57238734327256679534912109375</LongitudeDegrees>
            </Position>
            <AltitudeMeters>152.1999969482421875</AltitudeMeters>
            <DistanceMeters>19626.669154254</DistanceMeters>
          </Trackpoint>
          <Trackpoint>
            <Time>2021-10-09T07:33:59.000Z</Time>
            <Position>
              <LatitudeDegrees>39.53352131880819797515869140625</LatitudeDegrees>
              <LongitudeDegrees>-0.57238382287323474884033203125</LongitudeDegrees>
            </Position>
            <AltitudeMeters>152</AltitudeMeters>
            <DistanceMeters>19636.75900469</DistanceMeters>
          </Trackpoint>
          <Trackpoint>
            <Time>2021-10-09T07:34:00.000Z</Time>
            <Position>
              <LatitudeDegrees>39.5336132682859897613525390625</LatitudeDegrees>
              <LongitudeDegrees>-0.57237829081714153289794921875</LongitudeDegrees>
            </Position>
            <AltitudeMeters>151.8000030517578125</AltitudeMeters>
            <DistanceMeters>19647.004277189</DistanceMeters>
          </Trackpoint>
          <Trackpoint>
            <Time>2021-10-09T07:34:01.000Z</Time>
            <Position>
              <LatitudeDegrees>39.53370538540184497833251953125</LatitudeDegrees>
              <LongitudeDegrees>-0.572371669113636016845703125</LongitudeDegrees>
            </Position>
            <AltitudeMeters>151.600006103515625</AltitudeMeters>
            <DistanceMeters>19657.273319633</DistanceMeters>
          </Trackpoint>
          <Trackpoint>
            <Time>2021-10-09T07:34:02.000Z</Time>
            <Position>
              <LatitudeDegrees>39.5337983407080173492431640625</LatitudeDegrees>
              <LongitudeDegrees>-0.57236395776271820068359375</LongitudeDegrees>
            </Position>
            <AltitudeMeters>151.399993896484375</AltitudeMeters>
            <DistanceMeters>19667.640816916</DistanceMeters>
          </Trackpoint>
          <Trackpoint>
            <Time>2021-10-09T07:34:03.000Z</Time>
            <Position>
              <LatitudeDegrees>39.53389230184257030487060546875</LatitudeDegrees>
              <LongitudeDegrees>-0.57235658168792724609375</LongitudeDegrees>
            </Position>
            <AltitudeMeters>151</AltitudeMeters>
            <DistanceMeters>19678.117916193</DistanceMeters>
          </Trackpoint>
          <Trackpoint>
            <Time>2021-10-09T07:34:04.000Z</Time>
            <Position>
              <LatitudeDegrees>39.53398752026259899139404296875</LatitudeDegrees>
              <LongitudeDegrees>-0.572349540889263153076171875</LongitudeDegrees>
            </Position>
            <AltitudeMeters>150.600006103515625</AltitudeMeters>
            <DistanceMeters>19688.732872333</DistanceMeters>
          </Trackpoint>
          <Trackpoint>
            <Time>2021-10-09T07:34:05.000Z</Time>
            <Position>
              <LatitudeDegrees>39.5340839959681034088134765625</LatitudeDegrees>
              <LongitudeDegrees>-0.572343505918979644775390625</LongitudeDegrees>
            </Position>
            <AltitudeMeters>150.399993896484375</AltitudeMeters>
            <DistanceMeters>19699.483497823</DistanceMeters>
          </Trackpoint>
          <Trackpoint>
            <Time>2021-10-09T07:34:06.000Z</Time>
            <Position>
              <LatitudeDegrees>39.5341805554926395416259765625</LatitudeDegrees>
              <LongitudeDegrees>-0.57233822531998157501220703125</LongitudeDegrees>
            </Position>
            <AltitudeMeters>150.1999969482421875</AltitudeMeters>
            <DistanceMeters>19710.240421154</DistanceMeters>
          </Trackpoint>
          <Trackpoint>
            <Time>2021-10-09T07:34:07.000Z</Time>
            <Position>
              <LatitudeDegrees>39.53427703119814395904541015625</LatitudeDegrees>
              <LongitudeDegrees>-0.572331435978412628173828125</LongitudeDegrees>
            </Position>
            <AltitudeMeters>150</AltitudeMeters>
            <DistanceMeters>19720.993986095</DistanceMeters>
          </Trackpoint>
          <Trackpoint>
            <Time>2021-10-09T07:34:08.000Z</Time>
            <Position>
              <LatitudeDegrees>39.534374177455902099609375</LatitudeDegrees>
              <LongitudeDegrees>-0.57232263498008251190185546875</LongitudeDegrees>
            </Position>
            <AltitudeMeters>149.8000030517578125</AltitudeMeters>
            <DistanceMeters>19731.832864936</DistanceMeters>
          </Trackpoint>
          <Trackpoint>
            <Time>2021-10-09T07:34:09.000Z</Time>
            <Position>
              <LatitudeDegrees>39.53447149135172367095947265625</LatitudeDegrees>
              <LongitudeDegrees>-0.57231609709560871124267578125</LongitudeDegrees>
            </Position>
            <AltitudeMeters>149.600006103515625</AltitudeMeters>
            <DistanceMeters>19742.678406682</DistanceMeters>
          </Trackpoint>
          <Trackpoint>
            <Time>2021-10-09T07:34:10.000Z</Time>
            <Position>
              <LatitudeDegrees>39.53456888906657695770263671875</LatitudeDegrees>
              <LongitudeDegrees>-0.57230922393500804901123046875</LongitudeDegrees>
            </Position>
            <AltitudeMeters>149</AltitudeMeters>
            <DistanceMeters>19753.535598671</DistanceMeters>
          </Trackpoint>
          <Trackpoint>
            <Time>2021-10-09T07:34:11.000Z</Time>
            <Position>
              <LatitudeDegrees>39.53466628678143024444580078125</LatitudeDegrees>
              <LongitudeDegrees>-0.5723017640411853790283203125</LongitudeDegrees>
            </Position>
            <AltitudeMeters>148.600006103515625</AltitudeMeters>
            <DistanceMeters>19764.395285516</DistanceMeters>
          </Trackpoint>
          <Trackpoint>
            <Time>2021-10-09T07:34:12.000Z</Time>
            <Position>
              <LatitudeDegrees>39.53476351685822010040283203125</LatitudeDegrees>
              <LongitudeDegrees>-0.57229413650929927825927734375</LongitudeDegrees>
            </Position>
            <AltitudeMeters>148</AltitudeMeters>
            <DistanceMeters>19775.237079882</DistanceMeters>
          </Trackpoint>
          <Trackpoint>
            <Time>2021-10-09T07:34:13.000Z</Time>
            <Position>
              <LatitudeDegrees>39.53486108221113681793212890625</LatitudeDegrees>
              <LongitudeDegrees>-0.57228776626288890838623046875</LongitudeDegrees>
            </Position>
            <AltitudeMeters>147.600006103515625</AltitudeMeters>
            <DistanceMeters>19786.11006295</DistanceMeters>
          </Trackpoint>
          <Trackpoint>
            <Time>2021-10-09T07:34:14.000Z</Time>
            <Position>
              <LatitudeDegrees>39.5349590666592121124267578125</LatitudeDegrees>
              <LongitudeDegrees>-0.57228022255003452301025390625</LongitudeDegrees>
            </Position>
            <AltitudeMeters>147.399993896484375</AltitudeMeters>
            <DistanceMeters>19797.035242602</DistanceMeters>
          </Trackpoint>
          <Trackpoint>
            <Time>2021-10-09T07:34:15.000Z</Time>
            <Position>
              <LatitudeDegrees>39.5350567996501922607421875</LatitudeDegrees>
              <LongitudeDegrees>-0.572273433208465576171875</LongitudeDegrees>
            </Position>
            <AltitudeMeters>146.8000030517578125</AltitudeMeters>
            <DistanceMeters>19807.928554062</DistanceMeters>
          </Trackpoint>
          <Trackpoint>
            <Time>2021-10-09T07:34:16.000Z</Time>
            <Position>
              <LatitudeDegrees>39.5351565442979335784912109375</LatitudeDegrees>
              <LongitudeDegrees>-0.5722655542194843292236328125</LongitudeDegrees>
            </Position>
            <AltitudeMeters>146.600006103515625</AltitudeMeters>
            <DistanceMeters>19819.051145814</DistanceMeters>
          </Trackpoint>
          <Trackpoint>
            <Time>2021-10-09T07:34:17.000Z</Time>
            <Position>
              <LatitudeDegrees>39.53525620512664318084716796875</LatitudeDegrees>
              <LongitudeDegrees>-0.572255663573741912841796875</LongitudeDegrees>
            </Position>
            <AltitudeMeters>146</AltitudeMeters>
            <DistanceMeters>19830.176172903</DistanceMeters>
          </Trackpoint>
          <Trackpoint>
            <Time>2021-10-09T07:34:18.000Z</Time>
            <Position>
              <LatitudeDegrees>39.5353536866605281829833984375</LatitudeDegrees>
              <LongitudeDegrees>-0.5722457729279994964599609375</LongitudeDegrees>
            </Position>
            <AltitudeMeters>145.399993896484375</AltitudeMeters>
            <DistanceMeters>19841.059117479</DistanceMeters>
          </Trackpoint>
          <Trackpoint>
            <Time>2021-10-09T07:34:19.000Z</Time>
            <Position>
              <LatitudeDegrees>39.53545309603214263916015625</LatitudeDegrees>
              <LongitudeDegrees>-0.57223278097808361053466796875</LongitudeDegrees>
            </Position>
            <AltitudeMeters>145.1999969482421875</AltitudeMeters>
            <DistanceMeters>19852.180085376</DistanceMeters>
          </Trackpoint>
          <Trackpoint>
            <Time>2021-10-09T07:34:20.000Z</Time>
            <Position>
              <LatitudeDegrees>39.5355528406798839569091796875</LatitudeDegrees>
              <LongitudeDegrees>-0.5722182802855968475341796875</LongitudeDegrees>
            </Position>
            <AltitudeMeters>144.600006103515625</AltitudeMeters>
            <DistanceMeters>19863.351283005</DistanceMeters>
          </Trackpoint>
          <Trackpoint>
            <Time>2021-10-09T07:34:21.000Z</Time>
            <Position>
              <LatitudeDegrees>39.53565484844148159027099609375</LatitudeDegrees>
              <LongitudeDegrees>-0.57220512069761753082275390625</LongitudeDegrees>
            </Position>
            <AltitudeMeters>144.399993896484375</AltitudeMeters>
            <DistanceMeters>19874.760822085</DistanceMeters>
          </Trackpoint>
          <Trackpoint>
            <Time>2021-10-09T07:34:22.000Z</Time>
            <Position>
              <LatitudeDegrees>39.5357595384120941162109375</LatitudeDegrees>
              <LongitudeDegrees>-0.57219338603317737579345703125</LongitudeDegrees>
            </Position>
            <AltitudeMeters>143.8000030517578125</AltitudeMeters>
            <DistanceMeters>19886.456445111</DistanceMeters>
          </Trackpoint>
          <Trackpoint>
            <Time>2021-10-09T07:34:23.000Z</Time>
            <Position>
              <LatitudeDegrees>39.5358636416494846343994140625</LatitudeDegrees>
              <LongitudeDegrees>-0.5721790529787540435791015625</LongitudeDegrees>
            </Position>
            <AltitudeMeters>143.600006103515625</AltitudeMeters>
            <DistanceMeters>19898.108750866</DistanceMeters>
          </Trackpoint>
          <Trackpoint>
            <Time>2021-10-09T07:34:24.000Z</Time>
            <Position>
              <LatitudeDegrees>39.535969085991382598876953125</LatitudeDegrees>
              <LongitudeDegrees>-0.57216622866690158843994140625</LongitudeDegrees>
            </Position>
            <AltitudeMeters>143.399993896484375</AltitudeMeters>
            <DistanceMeters>19909.896277589</DistanceMeters>
          </Trackpoint>
          <Trackpoint>
            <Time>2021-10-09T07:34:25.000Z</Time>
            <Position>
              <LatitudeDegrees>39.53607478179037570953369140625</LatitudeDegrees>
              <LongitudeDegrees>-0.57215340435504913330078125</LongitudeDegrees>
            </Position>
            <AltitudeMeters>142.8000030517578125</AltitudeMeters>
            <DistanceMeters>19921.711732799</DistanceMeters>
          </Trackpoint>
          <Trackpoint>
            <Time>2021-10-09T07:34:26.000Z</Time>
            <Position>
              <LatitudeDegrees>39.53618240542709827423095703125</LatitudeDegrees>
              <LongitudeDegrees>-0.57213974185287952423095703125</LongitudeDegrees>
            </Position>
            <AltitudeMeters>142.399993896484375</AltitudeMeters>
            <DistanceMeters>19933.747532993</DistanceMeters>
          </Trackpoint>
          <Trackpoint>
            <Time>2021-10-09T07:34:27.000Z</Time>
            <Position>
              <LatitudeDegrees>39.53628919087350368499755859375</LatitudeDegrees>
              <LongitudeDegrees>-0.57212658226490020751953125</LongitudeDegrees>
            </Position>
            <AltitudeMeters>141.399993896484375</AltitudeMeters>
            <DistanceMeters>19945.686912657</DistanceMeters>
          </Trackpoint>
          <Trackpoint>
            <Time>2021-10-09T07:34:28.000Z</Time>
            <Position>
              <LatitudeDegrees>39.53639899380505084991455078125</LatitudeDegrees>
              <LongitudeDegrees>-0.5721133388578891754150390625</LongitudeDegrees>
            </Position>
            <AltitudeMeters>141</AltitudeMeters>
            <DistanceMeters>19957.960818527</DistanceMeters>
          </Trackpoint>
          <Trackpoint>
            <Time>2021-10-09T07:34:29.000Z</Time>
            <Position>
              <LatitudeDegrees>39.53651164658367633819580078125</LatitudeDegrees>
              <LongitudeDegrees>-0.57210269384086132049560546875</LongitudeDegrees>
            </Position>
            <AltitudeMeters>140.1999969482421875</AltitudeMeters>
            <DistanceMeters>19970.532389548</DistanceMeters>
          </Trackpoint>
          <Trackpoint>
            <Time>2021-10-09T07:34:30.000Z</Time>
            <Position>
              <LatitudeDegrees>39.53662463463842868804931640625</LatitudeDegrees>
              <LongitudeDegrees>-0.572092048823833465576171875</LongitudeDegrees>
            </Position>
            <AltitudeMeters>139.8000030517578125</AltitudeMeters>
            <DistanceMeters>19983.141256502</DistanceMeters>
          </Trackpoint>
          <Trackpoint>
            <Time>2021-10-09T07:34:31.000Z</Time>
            <Position>
              <LatitudeDegrees>39.5367400534451007843017578125</LatitudeDegrees>
              <LongitudeDegrees>-0.5720804817974567413330078125</LongitudeDegrees>
            </Position>
            <AltitudeMeters>138.8000030517578125</AltitudeMeters>
            <DistanceMeters>19996.025701595</DistanceMeters>
          </Trackpoint>
          <Trackpoint>
            <Time>2021-10-09T07:34:32.000Z</Time>
            <Position>
              <LatitudeDegrees>39.53685597516596317291259765625</LatitudeDegrees>
              <LongitudeDegrees>-0.57206816039979457855224609375</LongitudeDegrees>
            </Position>
            <AltitudeMeters>138</AltitudeMeters>
            <DistanceMeters>20008.971674667</DistanceMeters>
          </Trackpoint>
          <Trackpoint>
            <Time>2021-10-09T07:34:33.000Z</Time>
            <Position>
              <LatitudeDegrees>39.5369717292487621307373046875</LatitudeDegrees>
              <LongitudeDegrees>-0.57205759920179843902587890625</LongitudeDegrees>
            </Position>
            <AltitudeMeters>137.600006103515625</AltitudeMeters>
            <DistanceMeters>20021.88692039</DistanceMeters>
          </Trackpoint>
          <Trackpoint>
            <Time>2021-10-09T07:34:34.000Z</Time>
            <Position>
              <LatitudeDegrees>39.53708966262638568878173828125</LatitudeDegrees>
              <LongitudeDegrees>-0.572047121822834014892578125</LongitudeDegrees>
            </Position>
            <AltitudeMeters>136.8000030517578125</AltitudeMeters>
            <DistanceMeters>20035.043917214</DistanceMeters>
          </Trackpoint>
          <Trackpoint>
            <Time>2021-10-09T07:34:35.000Z</Time>
            <Position>
              <LatitudeDegrees>39.53720633871853351593017578125</LatitudeDegrees>
              <LongitudeDegrees>-0.572040416300296783447265625</LongitudeDegrees>
            </Position>
            <AltitudeMeters>136.399993896484375</AltitudeMeters>
            <DistanceMeters>20048.04279372</DistanceMeters>
          </Trackpoint>
          <Trackpoint>
            <Time>2021-10-09T07:34:36.000Z</Time>
            <Position>
              <LatitudeDegrees>39.53732234425842761993408203125</LatitudeDegrees>
              <LongitudeDegrees>-0.572033040225505828857421875</LongitudeDegrees>
            </Position>
            <AltitudeMeters>135.399993896484375</AltitudeMeters>
            <DistanceMeters>20060.970269295</DistanceMeters>
          </Trackpoint>
          <Trackpoint>
            <Time>2021-10-09T07:34:37.000Z</Time>
            <Position>
              <LatitudeDegrees>39.5374364219605922698974609375</LatitudeDegrees>
              <LongitudeDegrees>-0.5720253288745880126953125</LongitudeDegrees>
            </Position>
            <AltitudeMeters>135</AltitudeMeters>
            <DistanceMeters>20073.685042536</DistanceMeters>
          </Trackpoint>
          <Trackpoint>
            <Time>2021-10-09T07:34:38.000Z</Time>
            <Position>
              <LatitudeDegrees>39.53754882328212261199951171875</LatitudeDegrees>
              <LongitudeDegrees>-0.57201837189495563507080078125</LongitudeDegrees>
            </Position>
            <AltitudeMeters>134</AltitudeMeters>
            <DistanceMeters>20086.209476971</DistanceMeters>
          </Trackpoint>
          <Trackpoint>
            <Time>2021-10-09T07:34:39.000Z</Time>
            <Position>
              <LatitudeDegrees>39.53765560872852802276611328125</LatitudeDegrees>
              <LongitudeDegrees>-0.57201116345822811126708984375</LongitudeDegrees>
            </Position>
            <AltitudeMeters>133</AltitudeMeters>
            <DistanceMeters>20098.1109802</DistanceMeters>
          </Trackpoint>
          <Trackpoint>
            <Time>2021-10-09T07:34:40.000Z</Time>
            <Position>
              <LatitudeDegrees>39.5377576164901256561279296875</LatitudeDegrees>
              <LongitudeDegrees>-0.57200253009796142578125</LongitudeDegrees>
            </Position>
            <AltitudeMeters>132.600006103515625</AltitudeMeters>
            <DistanceMeters>20109.488817248</DistanceMeters>
          </Trackpoint>
          <Trackpoint>
            <Time>2021-10-09T07:34:41.000Z</Time>
            <Position>
              <LatitudeDegrees>39.53785677440464496612548828125</LatitudeDegrees>
              <LongitudeDegrees>-0.571994148194789886474609375</LongitudeDegrees>
            </Position>
            <AltitudeMeters>132.1999969482421875</AltitudeMeters>
            <DistanceMeters>20120.548310249</DistanceMeters>
          </Trackpoint>
          <Trackpoint>
            <Time>2021-10-09T07:34:42.000Z</Time>
            <Position>
              <LatitudeDegrees>39.5379520766437053680419921875</LatitudeDegrees>
              <LongitudeDegrees>-0.571981407701969146728515625</LongitudeDegrees>
            </Position>
            <AltitudeMeters>132</AltitudeMeters>
            <DistanceMeters>20131.211645683</DistanceMeters>
          </Trackpoint>
          <Trackpoint>
            <Time>2021-10-09T07:34:43.000Z</Time>
            <Position>
              <LatitudeDegrees>39.538042433559894561767578125</LatitudeDegrees>
              <LongitudeDegrees>-0.5719661526381969451904296875</LongitudeDegrees>
            </Position>
            <AltitudeMeters>131.8000030517578125</AltitudeMeters>
            <DistanceMeters>20141.353271327</DistanceMeters>
          </Trackpoint>
          <Trackpoint>
            <Time>2021-10-09T07:34:44.000Z</Time>
            <Position>
              <LatitudeDegrees>39.53812834806740283966064453125</LatitudeDegrees>
              <LongitudeDegrees>-0.57194880209863185882568359375</LongitudeDegrees>
            </Position>
            <AltitudeMeters>131.600006103515625</AltitudeMeters>
            <DistanceMeters>20151.031078562</DistanceMeters>
          </Trackpoint>
          <Trackpoint>
            <Time>2021-10-09T07:34:45.000Z</Time>
            <Position>
              <LatitudeDegrees>39.538210071623325347900390625</LatitudeDegrees>
              <LongitudeDegrees>-0.571925081312656402587890625</LongitudeDegrees>
            </Position>
            <AltitudeMeters>131.600006103515625</AltitudeMeters>
            <DistanceMeters>20160.352419428</DistanceMeters>
          </Trackpoint>
          <Trackpoint>
            <Time>2021-10-09T07:34:46.000Z</Time>
            <Position>
              <LatitudeDegrees>39.5382863469421863555908203125</LatitudeDegrees>
              <LongitudeDegrees>-0.5718903802335262298583984375</LongitudeDegrees>
            </Position>
            <AltitudeMeters>131.399993896484375</AltitudeMeters>
            <DistanceMeters>20169.349396989</DistanceMeters>
          </Trackpoint>
          <Trackpoint>
            <Time>2021-10-09T07:34:47.000Z</Time>
            <Position>
              <LatitudeDegrees>39.5383560843765735626220703125</LatitudeDegrees>
              <LongitudeDegrees>-0.5718427710235118865966796875</LongitudeDegrees>
            </Position>
            <AltitudeMeters>131.399993896484375</AltitudeMeters>
            <DistanceMeters>20178.12124294</DistanceMeters>
          </Trackpoint>
          <Trackpoint>
            <Time>2021-10-09T07:34:48.000Z</Time>
            <Position>
              <LatitudeDegrees>39.538420625030994415283203125</LatitudeDegrees>
              <LongitudeDegrees>-0.57178904302418231964111328125</LongitudeDegrees>
            </Position>
            <AltitudeMeters>131.600006103515625</AltitudeMeters>
            <DistanceMeters>20186.657265833</DistanceMeters>
          </Trackpoint>
          <Trackpoint>
            <Time>2021-10-09T07:34:49.000Z</Time>
            <Position>
              <LatitudeDegrees>39.538488350808620452880859375</LatitudeDegrees>
              <LongitudeDegrees>-0.57174009270966053009033203125</LongitudeDegrees>
            </Position>
            <AltitudeMeters>131.600006103515625</AltitudeMeters>
            <DistanceMeters>20195.286403122</DistanceMeters>
          </Trackpoint>
          <Trackpoint>
            <Time>2021-10-09T07:34:50.000Z</Time>
            <Position>
              <LatitudeDegrees>39.53856102190911769866943359375</LatitudeDegrees>
              <LongitudeDegrees>-0.57171285152435302734375</LongitudeDegrees>
            </Position>
            <AltitudeMeters>131.600006103515625</AltitudeMeters>
            <DistanceMeters>20203.705791466</DistanceMeters>
          </Trackpoint>
          <Trackpoint>
            <Time>2021-10-09T07:34:51.000Z</Time>
            <Position>
              <LatitudeDegrees>39.53863419592380523681640625</LatitudeDegrees>
              <LongitudeDegrees>-0.57171410880982875823974609375</LongitudeDegrees>
            </Position>
            <AltitudeMeters>131.600006103515625</AltitudeMeters>
            <DistanceMeters>20211.850418011</DistanceMeters>
          </Trackpoint>
          <Trackpoint>
            <Time>2021-10-09T07:34:52.000Z</Time>
            <Position>
              <LatitudeDegrees>39.53870418481528759002685546875</LatitudeDegrees>
              <LongitudeDegrees>-0.57174076326191425323486328125</LongitudeDegrees>
            </Position>
            <AltitudeMeters>131.600006103515625</AltitudeMeters>
            <DistanceMeters>20219.969504046</DistanceMeters>
          </Trackpoint>
          <Trackpoint>
            <Time>2021-10-09T07:34:53.000Z</Time>
            <Position>
              <LatitudeDegrees>39.5387647859752178192138671875</LatitudeDegrees>
              <LongitudeDegrees>-0.57178954593837261199951171875</LongitudeDegrees>
            </Position>
            <AltitudeMeters>131.600006103515625</AltitudeMeters>
            <DistanceMeters>20227.908643393</DistanceMeters>
          </Trackpoint>
          <Trackpoint>
            <Time>2021-10-09T07:34:54.000Z</Time>
            <Position>
              <LatitudeDegrees>39.538808204233646392822265625</LatitudeDegrees>
              <LongitudeDegrees>-0.57186347432434558868408203125</LongitudeDegrees>
            </Position>
            <AltitudeMeters>131.600006103515625</AltitudeMeters>
            <DistanceMeters>20235.885229043</DistanceMeters>
          </Trackpoint>
          <Trackpoint>
            <Time>2021-10-09T07:34:55.000Z</Time>
            <Position>
              <LatitudeDegrees>39.53883536159992218017578125</LatitudeDegrees>
              <LongitudeDegrees>-0.57195366360247135162353515625</LongitudeDegrees>
            </Position>
            <AltitudeMeters>131.600006103515625</AltitudeMeters>
            <DistanceMeters>20244.196128797</DistanceMeters>
          </Trackpoint>
          <Trackpoint>
            <Time>2021-10-09T07:34:56.000Z</Time>
            <Position>
              <LatitudeDegrees>39.53883963637053966522216796875</LatitudeDegrees>
              <LongitudeDegrees>-0.57205005548894405364990234375</LongitudeDegrees>
            </Position>
            <AltitudeMeters>131.600006103515625</AltitudeMeters>
            <DistanceMeters>20252.483635142</DistanceMeters>
          </Trackpoint>
          <Trackpoint>
            <Time>2021-10-09T07:34:57.000Z</Time>
            <Position>
              <LatitudeDegrees>39.53882337547838687896728515625</LatitudeDegrees>
              <LongitudeDegrees>-0.57214175350964069366455078125</LongitudeDegrees>
            </Position>
            <AltitudeMeters>131.399993896484375</AltitudeMeters>
            <DistanceMeters>20260.559228748</DistanceMeters>
          </Trackpoint>
          <Trackpoint>
            <Time>2021-10-09T07:34:58.000Z</Time>
            <Position>
              <LatitudeDegrees>39.53879202716052532196044921875</LatitudeDegrees>
              <LongitudeDegrees>-0.57222791947424411773681640625</LongitudeDegrees>
            </Position>
            <AltitudeMeters>131.1999969482421875</AltitudeMeters>
            <DistanceMeters>20268.737049126</DistanceMeters>
          </Trackpoint>
          <Trackpoint>
            <Time>2021-10-09T07:34:59.000Z</Time>
            <Position>
              <LatitudeDegrees>39.53875279985368251800537109375</LatitudeDegrees>
              <LongitudeDegrees>-0.5723094753921031951904296875</LongitudeDegrees>
            </Position>
            <AltitudeMeters>130.8000030517578125</AltitudeMeters>
            <DistanceMeters>20276.987425859</DistanceMeters>
          </Trackpoint>
          <Trackpoint>
            <Time>2021-10-09T07:35:00.000Z</Time>
            <Position>
              <LatitudeDegrees>39.53871340490877628326416015625</LatitudeDegrees>
              <LongitudeDegrees>-0.57238918729126453399658203125</LongitudeDegrees>
            </Position>
            <AltitudeMeters>130.600006103515625</AltitudeMeters>
            <DistanceMeters>20285.11429359</DistanceMeters>
          </Trackpoint>
          <Trackpoint>
            <Time>2021-10-09T07:35:01.000Z</Time>
            <Position>
              <LatitudeDegrees>39.5386804640293121337890625</LatitudeDegrees>
              <LongitudeDegrees>-0.57247417978942394256591796875</LongitudeDegrees>
            </Position>
            <AltitudeMeters>130.600006103515625</AltitudeMeters>
            <DistanceMeters>20293.279405615</DistanceMeters>
          </Trackpoint>
          <Trackpoint>
            <Time>2021-10-09T07:35:02.000Z</Time>
            <Position>
              <LatitudeDegrees>39.5386615209281444549560546875</LatitudeDegrees>
              <LongitudeDegrees>-0.57256453670561313629150390625</LongitudeDegrees>
            </Position>
            <AltitudeMeters>130.600006103515625</AltitudeMeters>
            <DistanceMeters>20301.316328957</DistanceMeters>
          </Trackpoint>
          <Trackpoint>
            <Time>2021-10-09T07:35:03.000Z</Time>
            <Position>
              <LatitudeDegrees>39.53865808434784412384033203125</LatitudeDegrees>
              <LongitudeDegrees>-0.57265908457338809967041015625</LongitudeDegrees>
            </Position>
            <AltitudeMeters>130.600006103515625</AltitudeMeters>
            <DistanceMeters>20309.440974107</DistanceMeters>
          </Trackpoint>
          <Trackpoint>
            <Time>2021-10-09T07:35:04.000Z</Time>
            <Position>
              <LatitudeDegrees>39.53866395168006420135498046875</LatitudeDegrees>
              <LongitudeDegrees>-0.57275447063148021697998046875</LongitudeDegrees>
            </Position>
            <AltitudeMeters>130.399993896484375</AltitudeMeters>
            <DistanceMeters>20317.655152775</DistanceMeters>
          </Trackpoint>
          <Trackpoint>
            <Time>2021-10-09T07:35:05.000Z</Time>
            <Position>
              <LatitudeDegrees>39.53867367468774318695068359375</LatitudeDegrees>
              <LongitudeDegrees>-0.5728472582995891571044921875</LongitudeDegrees>
            </Position>
            <AltitudeMeters>130.399993896484375</AltitudeMeters>
            <DistanceMeters>20325.692637884</DistanceMeters>
          </Trackpoint>
          <Trackpoint>
            <Time>2021-10-09T07:35:06.000Z</Time>
            <Position>
              <LatitudeDegrees>39.53868675045669078826904296875</LatitudeDegrees>
              <LongitudeDegrees>-0.57293669320642948150634765625</LongitudeDegrees>
            </Position>
            <AltitudeMeters>130.399993896484375</AltitudeMeters>
            <DistanceMeters>20333.505660139</DistanceMeters>
          </Trackpoint>
          <Trackpoint>
            <Time>2021-10-09T07:35:07.000Z</Time>
            <Position>
              <LatitudeDegrees>39.5387014187872409820556640625</LatitudeDegrees>
              <LongitudeDegrees>-0.57302302680909633636474609375</LongitudeDegrees>
            </Position>
            <AltitudeMeters>130.399993896484375</AltitudeMeters>
            <DistanceMeters>20341.093529893</DistanceMeters>
          </Trackpoint>
          <Trackpoint>
            <Time>2021-10-09T07:35:08.000Z</Time>
            <Position>
              <LatitudeDegrees>39.53871600329875946044921875</LatitudeDegrees>
              <LongitudeDegrees>-0.57310734875500202178955078125</LongitudeDegrees>
            </Position>
            <AltitudeMeters>130.399993896484375</AltitudeMeters>
            <DistanceMeters>20348.511093898</DistanceMeters>
          </Trackpoint>
          <Trackpoint>
            <Time>2021-10-09T07:35:09.000Z</Time>
            <Position>
              <LatitudeDegrees>39.53873150981962680816650390625</LatitudeDegrees>
              <LongitudeDegrees>-0.57318882085382938385009765625</LongitudeDegrees>
            </Position>
            <AltitudeMeters>130.600006103515625</AltitudeMeters>
            <DistanceMeters>20355.714344501</DistanceMeters>
          </Trackpoint>
          <Trackpoint>
            <Time>2021-10-09T07:35:10.000Z</Time>
            <Position>
              <LatitudeDegrees>39.5387463457882404327392578125</LatitudeDegrees>
              <LongitudeDegrees>-0.57326861657202243804931640625</LongitudeDegrees>
            </Position>
            <AltitudeMeters>130.600006103515625</AltitudeMeters>
            <DistanceMeters>20362.760432798</DistanceMeters>
          </Trackpoint>
          <Trackpoint>
            <Time>2021-10-09T07:35:11.000Z</Time>
            <Position>
              <LatitudeDegrees>39.5387621037662029266357421875</LatitudeDegrees>
              <LongitudeDegrees>-0.57334489189088344573974609375</LongitudeDegrees>
            </Position>
            <AltitudeMeters>131</AltitudeMeters>
            <DistanceMeters>20369.53870905</DistanceMeters>
          </Trackpoint>
          <Trackpoint>
            <Time>2021-10-09T07:35:12.000Z</Time>
            <Position>
              <LatitudeDegrees>39.538778364658355712890625</LatitudeDegrees>
              <LongitudeDegrees>-0.573419071733951568603515625</LongitudeDegrees>
            </Position>
            <AltitudeMeters>131</AltitudeMeters>
            <DistanceMeters>20376.158600362</DistanceMeters>
          </Trackpoint>
          <Trackpoint>
            <Time>2021-10-09T07:35:13.000Z</Time>
            <Position>
              <LatitudeDegrees>39.5387946255505084991455078125</LatitudeDegrees>
              <LongitudeDegrees>-0.5734896473586559295654296875</LongitudeDegrees>
            </Position>
            <AltitudeMeters>131.399993896484375</AltitudeMeters>
            <DistanceMeters>20382.480555625</DistanceMeters>
          </Trackpoint>
          <Trackpoint>
            <Time>2021-10-09T07:35:14.000Z</Time>
            <Position>
              <LatitudeDegrees>39.53881097026169300079345703125</LatitudeDegrees>
              <LongitudeDegrees>-0.573559217154979705810546875</LongitudeDegrees>
            </Position>
            <AltitudeMeters>131.8000030517578125</AltitudeMeters>
            <DistanceMeters>20388.723456387</DistanceMeters>
          </Trackpoint>
          <Trackpoint>
            <Time>2021-10-09T07:35:15.000Z</Time>
            <Position>
              <LatitudeDegrees>39.538826309144496917724609375</LatitudeDegrees>
              <LongitudeDegrees>-0.573627613484859466552734375</LongitudeDegrees>
            </Position>
            <AltitudeMeters>131.8000030517578125</AltitudeMeters>
            <DistanceMeters>20394.837744283</DistanceMeters>
          </Trackpoint>
          <Trackpoint>
            <Time>2021-10-09T07:35:16.000Z</Time>
            <Position>
              <LatitudeDegrees>39.538842737674713134765625</LatitudeDegrees>
              <LongitudeDegrees>-0.573692657053470611572265625</LongitudeDegrees>
            </Position>
            <AltitudeMeters>132.399993896484375</AltitudeMeters>
            <DistanceMeters>20400.712516804</DistanceMeters>
          </Trackpoint>
          <Trackpoint>
            <Time>2021-10-09T07:35:17.000Z</Time>
            <Position>
              <LatitudeDegrees>39.5388615131378173828125</LatitudeDegrees>
              <LongitudeDegrees>-0.573755688965320587158203125</LongitudeDegrees>
            </Position>
            <AltitudeMeters>132.600006103515625</AltitudeMeters>
            <DistanceMeters>20406.512261174</DistanceMeters>
          </Trackpoint>
          <Trackpoint>
            <Time>2021-10-09T07:35:18.000Z</Time>
            <Position>
              <LatitudeDegrees>39.53888095915317535400390625</LatitudeDegrees>
              <LongitudeDegrees>-0.57381696067750453948974609375</LongitudeDegrees>
            </Position>
            <AltitudeMeters>132.8000030517578125</AltitudeMeters>
            <DistanceMeters>20412.199592167</DistanceMeters>
          </Trackpoint>
          <Trackpoint>
            <Time>2021-10-09T07:35:19.000Z</Time>
            <Position>
              <LatitudeDegrees>39.53889981843531131744384765625</LatitudeDegrees>
              <LongitudeDegrees>-0.57387747801840305328369140625</LongitudeDegrees>
            </Position>
            <AltitudeMeters>132.8000030517578125</AltitudeMeters>
            <DistanceMeters>20417.802140312</DistanceMeters>
          </Trackpoint>
          <Trackpoint>
            <Time>2021-10-09T07:35:20.000Z</Time>
            <Position>
              <LatitudeDegrees>39.53891859389841556549072265625</LatitudeDegrees>
              <LongitudeDegrees>-0.573936402797698974609375</LongitudeDegrees>
            </Position>
            <AltitudeMeters>133.1999969482421875</AltitudeMeters>
            <DistanceMeters>20423.27422707</DistanceMeters>
          </Trackpoint>
          <Trackpoint>
            <Time>2021-10-09T07:35:21.000Z</Time>
            <Position>
              <LatitudeDegrees>39.53894264996051788330078125</LatitudeDegrees>
              <LongitudeDegrees>-0.5740063078701496124267578125</LongitudeDegrees>
            </Position>
            <AltitudeMeters>133.600006103515625</AltitudeMeters>
            <DistanceMeters>20429.844827916</DistanceMeters>
          </Trackpoint>
          <Trackpoint>
            <Time>2021-10-09T07:35:22.000Z</Time>
            <Position>
              <LatitudeDegrees>39.53895664773881435394287109375</LatitudeDegrees>
              <LongitudeDegrees>-0.5740519054234027862548828125</LongitudeDegrees>
            </Position>
            <AltitudeMeters>133.8000030517578125</AltitudeMeters>
            <DistanceMeters>20434.056130581</DistanceMeters>
          </Trackpoint>
          <Trackpoint>
            <Time>2021-10-09T07:35:23.000Z</Time>
            <Position>
              <LatitudeDegrees>39.53897626139223575592041015625</LatitudeDegrees>
              <LongitudeDegrees>-0.5741092376410961151123046875</LongitudeDegrees>
            </Position>
            <AltitudeMeters>134.1999969482421875</AltitudeMeters>
            <DistanceMeters>20439.440046014</DistanceMeters>
          </Trackpoint>
          <Trackpoint>
            <Time>2021-10-09T07:35:24.000Z</Time>
            <Position>
              <LatitudeDegrees>39.53899562358856201171875</LatitudeDegrees>
              <LongitudeDegrees>-0.57416682131588459014892578125</LongitudeDegrees>
            </Position>
            <AltitudeMeters>134.600006103515625</AltitudeMeters>
            <DistanceMeters>20444.832341086</DistanceMeters>
          </Trackpoint>
          <Trackpoint>
            <Time>2021-10-09T07:35:25.000Z</Time>
            <Position>
              <LatitudeDegrees>39.53901448287069797515869140625</LatitudeDegrees>
              <LongitudeDegrees>-0.57422549463808536529541015625</LongitudeDegrees>
            </Position>
            <AltitudeMeters>134.8000030517578125</AltitudeMeters>
            <DistanceMeters>20450.288728356</DistanceMeters>
          </Trackpoint>
          <Trackpoint>
            <Time>2021-10-09T07:35:26.000Z</Time>
            <Position>
              <LatitudeDegrees>39.539035856723785400390625</LatitudeDegrees>
              <LongitudeDegrees>-0.5742837488651275634765625</LongitudeDegrees>
            </Position>
            <AltitudeMeters>135</AltitudeMeters>
            <DistanceMeters>20455.826430009</DistanceMeters>
          </Trackpoint>
          <Trackpoint>
            <Time>2021-10-09T07:35:27.000Z</Time>
            <Position>
              <LatitudeDegrees>39.539057649672031402587890625</LatitudeDegrees>
              <LongitudeDegrees>-0.57434150017797946929931640625</LongitudeDegrees>
            </Position>
            <AltitudeMeters>135.1999969482421875</AltitudeMeters>
            <DistanceMeters>20461.344529118</DistanceMeters>
          </Trackpoint>
          <Trackpoint>
            <Time>2021-10-09T07:35:28.000Z</Time>
            <Position>
              <LatitudeDegrees>39.53907919116318225860595703125</LatitudeDegrees>
              <LongitudeDegrees>-0.57439950294792652130126953125</LongitudeDegrees>
            </Position>
            <AltitudeMeters>135.8000030517578125</AltitudeMeters>
            <DistanceMeters>20466.870804403</DistanceMeters>
          </Trackpoint>
          <Trackpoint>
            <Time>2021-10-09T07:35:29.000Z</Time>
            <Position>
              <LatitudeDegrees>39.53910031355917453765869140625</LatitudeDegrees>
              <LongitudeDegrees>-0.5744569189846515655517578125</LongitudeDegrees>
            </Position>
            <AltitudeMeters>136</AltitudeMeters>
            <DistanceMeters>20472.331327493</DistanceMeters>
          </Trackpoint>
          <Trackpoint>
            <Time>2021-10-09T07:35:30.000Z</Time>
            <Position>
              <LatitudeDegrees>39.5391221903264522552490234375</LatitudeDegrees>
              <LongitudeDegrees>-0.57451483793556690216064453125</LongitudeDegrees>
            </Position>
            <AltitudeMeters>136.399993896484375</AltitudeMeters>
            <DistanceMeters>20477.867398253</DistanceMeters>
          </Trackpoint>
          <Trackpoint>
            <Time>2021-10-09T07:35:31.000Z</Time>
            <Position>
              <LatitudeDegrees>39.53914381563663482666015625</LatitudeDegrees>
              <LongitudeDegrees>-0.57457166723906993865966796875</LongitudeDegrees>
            </Position>
            <AltitudeMeters>136.399993896484375</AltitudeMeters>
            <DistanceMeters>20483.306380734</DistanceMeters>
          </Trackpoint>
          <Trackpoint>
            <Time>2021-10-09T07:35:32.000Z</Time>
            <Position>
              <LatitudeDegrees>39.5391654409468173980712890625</LatitudeDegrees>
              <LongitudeDegrees>-0.57462682016193866729736328125</LongitudeDegrees>
            </Position>
            <AltitudeMeters>136.600006103515625</AltitudeMeters>
            <DistanceMeters>20488.617685546</DistanceMeters>
          </Trackpoint>
          <Trackpoint>
            <Time>2021-10-09T07:35:33.000Z</Time>
            <Position>
              <LatitudeDegrees>39.53918874263763427734375</LatitudeDegrees>
              <LongitudeDegrees>-0.574682056903839111328125</LongitudeDegrees>
            </Position>
            <AltitudeMeters>137</AltitudeMeters>
            <DistanceMeters>20494.022525719</DistanceMeters>
          </Trackpoint>
          <Trackpoint>
            <Time>2021-10-09T07:35:34.000Z</Time>
            <Position>
              <LatitudeDegrees>39.53921128995716571807861328125</LatitudeDegrees>
              <LongitudeDegrees>-0.5747382156550884246826171875</LongitudeDegrees>
            </Position>
            <AltitudeMeters>137.1999969482421875</AltitudeMeters>
            <DistanceMeters>20499.456525165</DistanceMeters>
          </Trackpoint>
          <Trackpoint>
            <Time>2021-10-09T07:35:35.000Z</Time>
            <Position>
              <LatitudeDegrees>39.53923190943896770477294921875</LatitudeDegrees>
              <LongitudeDegrees>-0.574794374406337738037109375</LongitudeDegrees>
            </Position>
            <AltitudeMeters>137.399993896484375</AltitudeMeters>
            <DistanceMeters>20504.794963256</DistanceMeters>
          </Trackpoint>
          <Trackpoint>
            <Time>2021-10-09T07:35:36.000Z</Time>
            <Position>
              <LatitudeDegrees>39.53925219364464282989501953125</LatitudeDegrees>
              <LongitudeDegrees>-0.57484910823404788970947265625</LongitudeDegrees>
            </Position>
            <AltitudeMeters>137.600006103515625</AltitudeMeters>
            <DistanceMeters>20510.006725908</DistanceMeters>
          </Trackpoint>
          <Trackpoint>
            <Time>2021-10-09T07:35:37.000Z</Time>
            <Position>
              <LatitudeDegrees>39.53927130438387393951416015625</LatitudeDegrees>
              <LongitudeDegrees>-0.5749048478901386260986328125</LongitudeDegrees>
            </Position>
            <AltitudeMeters>137.8000030517578125</AltitudeMeters>
            <DistanceMeters>20515.242689247</DistanceMeters>
          </Trackpoint>
          <Trackpoint>
            <Time>2021-10-09T07:35:38.000Z</Time>
            <Position>
              <LatitudeDegrees>39.53928991220891475677490234375</LatitudeDegrees>
              <LongitudeDegrees>-0.57496125809848308563232421875</LongitudeDegrees>
            </Position>
            <AltitudeMeters>138.1999969482421875</AltitudeMeters>
            <DistanceMeters>20520.507889593</DistanceMeters>
          </Trackpoint>
          <Trackpoint>
            <Time>2021-10-09T07:35:39.000Z</Time>
            <Position>
              <LatitudeDegrees>39.53931136988103389739990234375</LatitudeDegrees>
              <LongitudeDegrees>-0.57501657865941524505615234375</LongitudeDegrees>
            </Position>
            <AltitudeMeters>138.8000030517578125</AltitudeMeters>
            <DistanceMeters>20525.822593641</DistanceMeters>
          </Trackpoint>
          <Trackpoint>
            <Time>2021-10-09T07:35:40.000Z</Time>
            <Position>
              <LatitudeDegrees>39.53933115117251873016357421875</LatitudeDegrees>
              <LongitudeDegrees>-0.57507223449647426605224609375</LongitudeDegrees>
            </Position>
            <AltitudeMeters>139.1999969482421875</AltitudeMeters>
            <DistanceMeters>20531.082646324</DistanceMeters>
          </Trackpoint>
          <Trackpoint>
            <Time>2021-10-09T07:35:41.000Z</Time>
            <Position>
              <LatitudeDegrees>39.5393511839210987091064453125</LatitudeDegrees>
              <LongitudeDegrees>-0.57512663304805755615234375</LongitudeDegrees>
            </Position>
            <AltitudeMeters>139.399993896484375</AltitudeMeters>
            <DistanceMeters>20536.257023258</DistanceMeters>
          </Trackpoint>
          <Trackpoint>
            <Time>2021-10-09T07:35:42.000Z</Time>
            <Position>
              <LatitudeDegrees>39.5393709652125835418701171875</LatitudeDegrees>
              <LongitudeDegrees>-0.5751796066761016845703125</LongitudeDegrees>
            </Position>
            <AltitudeMeters>139.600006103515625</AltitudeMeters>
            <DistanceMeters>20541.308656264</DistanceMeters>
          </Trackpoint>
          <Trackpoint>
            <Time>2021-10-09T07:35:43.000Z</Time>
            <Position>
              <LatitudeDegrees>39.53939166851341724395751953125</LatitudeDegrees>
              <LongitudeDegrees>-0.57523434050381183624267578125</LongitudeDegrees>
            </Position>
            <AltitudeMeters>139.600006103515625</AltitudeMeters>
            <DistanceMeters>20546.541169215</DistanceMeters>
          </Trackpoint>
          <Trackpoint>
            <Time>2021-10-09T07:35:44.000Z</Time>
            <Position>
              <LatitudeDegrees>39.53941144980490207672119140625</LatitudeDegrees>
              <LongitudeDegrees>-0.57528848759829998016357421875</LongitudeDegrees>
            </Position>
            <AltitudeMeters>139.8000030517578125</AltitudeMeters>
            <DistanceMeters>20551.684037471</DistanceMeters>
          </Trackpoint>
          <Trackpoint>
            <Time>2021-10-09T07:35:45.000Z</Time>
            <Position>
              <LatitudeDegrees>39.53943307511508464813232421875</LatitudeDegrees>
              <LongitudeDegrees>-0.57534280233085155487060546875</LongitudeDegrees>
            </Position>
            <AltitudeMeters>140</AltitudeMeters>
            <DistanceMeters>20556.930338359</DistanceMeters>
          </Trackpoint>
          <Trackpoint>
            <Time>2021-10-09T07:35:46.000Z</Time>
            <Position>
              <LatitudeDegrees>39.53945402987301349639892578125</LatitudeDegrees>
              <LongitudeDegrees>-0.575396530330181121826171875</LongitudeDegrees>
            </Position>
            <AltitudeMeters>140.1999969482421875</AltitudeMeters>
            <DistanceMeters>20562.09860365</DistanceMeters>
          </Trackpoint>
          <Trackpoint>
            <Time>2021-10-09T07:35:47.000Z</Time>
            <Position>
              <LatitudeDegrees>39.53947448171675205230712890625</LatitudeDegrees>
              <LongitudeDegrees>-0.57544958777725696563720703125</LongitudeDegrees>
            </Position>
            <AltitudeMeters>140.399993896484375</AltitudeMeters>
            <DistanceMeters>20567.191184483</DistanceMeters>
          </Trackpoint>
          <Trackpoint>
            <Time>2021-10-09T07:35:48.000Z</Time>
            <Position>
              <LatitudeDegrees>39.53949510119855403900146484375</LatitudeDegrees>
              <LongitudeDegrees>-0.57550239376723766326904296875</LongitudeDegrees>
            </Position>
            <AltitudeMeters>140.399993896484375</AltitudeMeters>
            <DistanceMeters>20572.271337875</DistanceMeters>
          </Trackpoint>
          <Trackpoint>
            <Time>2021-10-09T07:35:49.000Z</Time>
            <Position>
              <LatitudeDegrees>39.5395158044993877410888671875</LatitudeDegrees>
              <LongitudeDegrees>-0.57555654086172580718994140625</LongitudeDegrees>
            </Position>
            <AltitudeMeters>140.8000030517578125</AltitudeMeters>
            <DistanceMeters>20577.45878694</DistanceMeters>
          </Trackpoint>
          <Trackpoint>
            <Time>2021-10-09T07:35:50.000Z</Time>
            <Position>
              <LatitudeDegrees>39.5395359210669994354248046875</LatitudeDegrees>
              <LongitudeDegrees>-0.575609765946865081787109375</LongitudeDegrees>
            </Position>
            <AltitudeMeters>141</AltitudeMeters>
            <DistanceMeters>20582.546045444</DistanceMeters>
          </Trackpoint>
          <Trackpoint>
            <Time>2021-10-09T07:35:51.000Z</Time>
            <Position>
              <LatitudeDegrees>39.53955763019621372222900390625</LatitudeDegrees>
              <LongitudeDegrees>-0.575662069022655487060546875</LongitudeDegrees>
            </Position>
            <AltitudeMeters>141.1999969482421875</AltitudeMeters>
            <DistanceMeters>20587.64394305</DistanceMeters>
          </Trackpoint>
          <Trackpoint>
            <Time>2021-10-09T07:35:52.000Z</Time>
            <Position>
              <LatitudeDegrees>39.53957875259220600128173828125</LatitudeDegrees>
              <LongitudeDegrees>-0.575716383755207061767578125</LongitudeDegrees>
            </Position>
            <AltitudeMeters>141.399993896484375</AltitudeMeters>
            <DistanceMeters>20592.864361684</DistanceMeters>
          </Trackpoint>
          <Trackpoint>
            <Time>2021-10-09T07:35:53.000Z</Time>
            <Position>
              <LatitudeDegrees>39.539598785340785980224609375</LatitudeDegrees>
              <LongitudeDegrees>-0.57577145285904407501220703125</LongitudeDegrees>
            </Position>
            <AltitudeMeters>141.600006103515625</AltitudeMeters>
            <DistanceMeters>20598.089967023</DistanceMeters>
          </Trackpoint>
          <Trackpoint>
            <Time>2021-10-09T07:35:54.000Z</Time>
            <Position>
              <LatitudeDegrees>39.539618901908397674560546875</LatitudeDegrees>
              <LongitudeDegrees>-0.57582828216254711151123046875</LongitudeDegrees>
            </Position>
            <AltitudeMeters>142</AltitudeMeters>
            <DistanceMeters>20603.457083927</DistanceMeters>
          </Trackpoint>
          <Trackpoint>
            <Time>2021-10-09T07:35:55.000Z</Time>
            <Position>
              <LatitudeDegrees>39.539640359580516815185546875</LatitudeDegrees>
              <LongitudeDegrees>-0.5758851952850818634033203125</LongitudeDegrees>
            </Position>
            <AltitudeMeters>142</AltitudeMeters>
            <DistanceMeters>20608.896066408</DistanceMeters>
          </Trackpoint>
          <Trackpoint>
            <Time>2021-10-09T07:35:56.000Z</Time>
            <Position>
              <LatitudeDegrees>39.53966223634779453277587890625</LatitudeDegrees>
              <LongitudeDegrees>-0.575943030416965484619140625</LongitudeDegrees>
            </Position>
            <AltitudeMeters>142.1999969482421875</AltitudeMeters>
            <DistanceMeters>20614.42560878</DistanceMeters>
          </Trackpoint>
          <Trackpoint>
            <Time>2021-10-09T07:35:57.000Z</Time>
            <Position>
              <LatitudeDegrees>39.53968402929604053497314453125</LatitudeDegrees>
              <LongitudeDegrees>-0.5760018713772296905517578125</LongitudeDegrees>
            </Position>
            <AltitudeMeters>142.399993896484375</AltitudeMeters>
            <DistanceMeters>20620.028962757</DistanceMeters>
          </Trackpoint>
          <Trackpoint>
            <Time>2021-10-09T07:35:58.000Z</Time>
            <Position>
              <LatitudeDegrees>39.5397062413394451141357421875</LatitudeDegrees>
              <LongitudeDegrees>-0.57605811394751071929931640625</LongitudeDegrees>
            </Position>
            <AltitudeMeters>142.600006103515625</AltitudeMeters>
            <DistanceMeters>20625.453814749</DistanceMeters>
          </Trackpoint>
          <Trackpoint>
            <Time>2021-10-09T07:35:59.000Z</Time>
            <Position>
              <LatitudeDegrees>39.53972761519253253936767578125</LatitudeDegrees>
              <LongitudeDegrees>-0.5761131830513477325439453125</LongitudeDegrees>
            </Position>
            <AltitudeMeters>142.8000030517578125</AltitudeMeters>
            <DistanceMeters>20630.745531583</DistanceMeters>
          </Trackpoint>
          <Trackpoint>
            <Time>2021-10-09T07:36:00.000Z</Time>
            <Position>
              <LatitudeDegrees>39.539749324321746826171875</LatitudeDegrees>
              <LongitudeDegrees>-0.57616942562162876129150390625</LongitudeDegrees>
            </Position>
            <AltitudeMeters>143.1999969482421875</AltitudeMeters>
            <DistanceMeters>20636.144521003</DistanceMeters>
          </Trackpoint>
          <Trackpoint>
            <Time>2021-10-09T07:36:01.000Z</Time>
            <Position>
              <LatitudeDegrees>39.53977002762258052825927734375</LatitudeDegrees>
              <LongitudeDegrees>-0.57622591964900493621826171875</LongitudeDegrees>
            </Position>
            <AltitudeMeters>143.600006103515625</AltitudeMeters>
            <DistanceMeters>20641.513320125</DistanceMeters>
          </Trackpoint>
          <Trackpoint>
            <Time>2021-10-09T07:36:02.000Z</Time>
            <Position>
              <LatitudeDegrees>39.5397890545427799224853515625</LatitudeDegrees>
              <LongitudeDegrees>-0.57628224603831768035888671875</LongitudeDegrees>
            </Position>
            <AltitudeMeters>143.8000030517578125</AltitudeMeters>
            <DistanceMeters>20646.790512158</DistanceMeters>
          </Trackpoint>
          <Trackpoint>
            <Time>2021-10-09T07:36:03.000Z</Time>
            <Position>
              <LatitudeDegrees>39.5398078300058841705322265625</LatitudeDegrees>
              <LongitudeDegrees>-0.57633991353213787078857421875</LongitudeDegrees>
            </Position>
            <AltitudeMeters>144</AltitudeMeters>
            <DistanceMeters>20652.162674135</DistanceMeters>
          </Trackpoint>
          <Trackpoint>
            <Time>2021-10-09T07:36:04.000Z</Time>
            <Position>
              <LatitudeDegrees>39.53982652164995670318603515625</LatitudeDegrees>
              <LongitudeDegrees>-0.57639908976852893829345703125</LongitudeDegrees>
            </Position>
            <AltitudeMeters>144.1999969482421875</AltitudeMeters>
            <DistanceMeters>20657.651238157</DistanceMeters>
          </Trackpoint>
          <Trackpoint>
            <Time>2021-10-09T07:36:05.000Z</Time>
            <Position>
              <LatitudeDegrees>39.53984764404594898223876953125</LatitudeDegrees>
              <LongitudeDegrees>-0.5764541588723659515380859375</LongitudeDegrees>
            </Position>
            <AltitudeMeters>144.399993896484375</AltitudeMeters>
            <DistanceMeters>20662.930141064</DistanceMeters>
          </Trackpoint>
          <Trackpoint>
            <Time>2021-10-09T07:36:06.000Z</Time>
            <Position>
              <LatitudeDegrees>39.53987069427967071533203125</LatitudeDegrees>
              <LongitudeDegrees>-0.57651065289974212646484375</LongitudeDegrees>
            </Position>
            <AltitudeMeters>144.600006103515625</AltitudeMeters>
            <DistanceMeters>20668.415413593</DistanceMeters>
          </Trackpoint>
          <Trackpoint>
            <Time>2021-10-09T07:36:07.000Z</Time>
            <Position>
              <LatitudeDegrees>39.5398936606943607330322265625</LatitudeDegrees>
              <LongitudeDegrees>-0.57656907476484775543212890625</LongitudeDegrees>
            </Position>
            <AltitudeMeters>144.8000030517578125</AltitudeMeters>
            <DistanceMeters>20674.042086501</DistanceMeters>
          </Trackpoint>
          <Trackpoint>
            <Time>2021-10-09T07:36:08.000Z</Time>
            <Position>
              <LatitudeDegrees>39.53991654329001903533935546875</LatitudeDegrees>
              <LongitudeDegrees>-0.57662791572511196136474609375</LongitudeDegrees>
            </Position>
            <AltitudeMeters>145.1999969482421875</AltitudeMeters>
            <DistanceMeters>20679.697573285</DistanceMeters>
          </Trackpoint>
          <Trackpoint>
            <Time>2021-10-09T07:36:09.000Z</Time>
            <Position>
              <LatitudeDegrees>39.53993934206664562225341796875</LatitudeDegrees>
              <LongitudeDegrees>-0.5766865052282810211181640625</LongitudeDegrees>
            </Position>
            <AltitudeMeters>145.1999969482421875</AltitudeMeters>
            <DistanceMeters>20685.330662013</DistanceMeters>
          </Trackpoint>
          <Trackpoint>
            <Time>2021-10-09T07:36:10.000Z</Time>
            <Position>
              <LatitudeDegrees>39.53996314667165279388427734375</LatitudeDegrees>
              <LongitudeDegrees>-0.5767448432743549346923828125</LongitudeDegrees>
            </Position>
            <AltitudeMeters>145.399993896484375</AltitudeMeters>
            <DistanceMeters>20690.995720855</DistanceMeters>
          </Trackpoint>
          <Trackpoint>
            <Time>2021-10-09T07:36:11.000Z</Time>
            <Position>
              <LatitudeDegrees>39.539986364543437957763671875</LatitudeDegrees>
              <LongitudeDegrees>-0.57680435478687286376953125</LongitudeDegrees>
            </Position>
            <AltitudeMeters>145.399993896484375</AltitudeMeters>
            <DistanceMeters>20696.721031108</DistanceMeters>
          </Trackpoint>
          <Trackpoint>
            <Time>2021-10-09T07:36:12.000Z</Time>
            <Position>
              <LatitudeDegrees>39.54000958241522312164306640625</LatitudeDegrees>
              <LongitudeDegrees>-0.576865039765834808349609375</LongitudeDegrees>
            </Position>
            <AltitudeMeters>145.600006103515625</AltitudeMeters>
            <DistanceMeters>20702.537100774</DistanceMeters>
          </Trackpoint>
          <Trackpoint>
            <Time>2021-10-09T07:36:13.000Z</Time>
            <Position>
              <LatitudeDegrees>39.54003238119184970855712890625</LatitudeDegrees>
              <LongitudeDegrees>-0.57692706584930419921875</LongitudeDegrees>
            </Position>
            <AltitudeMeters>145.600006103515625</AltitudeMeters>
            <DistanceMeters>20708.434119036</DistanceMeters>
          </Trackpoint>
          <Trackpoint>
            <Time>2021-10-09T07:36:14.000Z</Time>
            <Position>
              <LatitudeDegrees>39.54005652107298374176025390625</LatitudeDegrees>
              <LongitudeDegrees>-0.5769902653992176055908203125</LongitudeDegrees>
            </Position>
            <AltitudeMeters>146</AltitudeMeters>
            <DistanceMeters>20714.487551964</DistanceMeters>
          </Trackpoint>
          <Trackpoint>
            <Time>2021-10-09T07:36:15.000Z</Time>
            <Position>
              <LatitudeDegrees>39.54008032567799091339111328125</LatitudeDegrees>
              <LongitudeDegrees>-0.57705572806298732757568359375</LongitudeDegrees>
            </Position>
            <AltitudeMeters>146</AltitudeMeters>
            <DistanceMeters>20720.700002907</DistanceMeters>
          </Trackpoint>
          <Trackpoint>
            <Time>2021-10-09T07:36:16.000Z</Time>
            <Position>
              <LatitudeDegrees>39.54010547138750553131103515625</LatitudeDegrees>
              <LongitudeDegrees>-0.577119849622249603271484375</LongitudeDegrees>
            </Position>
            <AltitudeMeters>146.1999969482421875</AltitudeMeters>
            <DistanceMeters>20726.875277219</DistanceMeters>
          </Trackpoint>
          <Trackpoint>
            <Time>2021-10-09T07:36:17.000Z</Time>
            <Position>
              <LatitudeDegrees>39.54012827016413211822509765625</LatitudeDegrees>
              <LongitudeDegrees>-0.5771847255527973175048828125</LongitudeDegrees>
            </Position>
            <AltitudeMeters>146.1999969482421875</AltitudeMeters>
            <DistanceMeters>20732.995469788</DistanceMeters>
          </Trackpoint>
          <Trackpoint>
            <Time>2021-10-09T07:36:18.000Z</Time>
            <Position>
              <LatitudeDegrees>39.5401531644165515899658203125</LatitudeDegrees>
              <LongitudeDegrees>-0.57724951766431331634521484375</LongitudeDegrees>
            </Position>
            <AltitudeMeters>146.1999969482421875</AltitudeMeters>
            <DistanceMeters>20739.209374106</DistanceMeters>
          </Trackpoint>
          <Trackpoint>
            <Time>2021-10-09T07:36:19.000Z</Time>
            <Position>
              <LatitudeDegrees>39.54017772339284420013427734375</LatitudeDegrees>
              <LongitudeDegrees>-0.57731422595679759979248046875</LongitudeDegrees>
            </Position>
            <AltitudeMeters>146.399993896484375</AltitudeMeters>
            <DistanceMeters>20745.399983481</DistanceMeters>
          </Trackpoint>
          <Trackpoint>
            <Time>2021-10-09T07:36:20.000Z</Time>
            <Position>
              <LatitudeDegrees>39.54020068980753421783447265625</LatitudeDegrees>
              <LongitudeDegrees>-0.57737893424928188323974609375</LongitudeDegrees>
            </Position>
            <AltitudeMeters>146.399993896484375</AltitudeMeters>
            <DistanceMeters>20751.514271377</DistanceMeters>
          </Trackpoint>
          <Trackpoint>
            <Time>2021-10-09T07:36:21.000Z</Time>
            <Position>
              <LatitudeDegrees>39.54022499732673168182373046875</LatitudeDegrees>
              <LongitudeDegrees>-0.5774435587227344512939453125</LongitudeDegrees>
            </Position>
            <AltitudeMeters>146.399993896484375</AltitudeMeters>
            <DistanceMeters>20757.685888867</DistanceMeters>
          </Trackpoint>
          <Trackpoint>
            <Time>2021-10-09T07:36:22.000Z</Time>
            <Position>
              <LatitudeDegrees>39.5402507297694683074951171875</LatitudeDegrees>
              <LongitudeDegrees>-0.5775082670152187347412109375</LongitudeDegrees>
            </Position>
            <AltitudeMeters>146.600006103515625</AltitudeMeters>
            <DistanceMeters>20763.934572772</DistanceMeters>
          </Trackpoint>
          <Trackpoint>
            <Time>2021-10-09T07:36:23.000Z</Time>
            <Position>
              <LatitudeDegrees>39.5402755402028560638427734375</LatitudeDegrees>
              <LongitudeDegrees>-0.5775749869644641876220703125</LongitudeDegrees>
            </Position>
            <AltitudeMeters>146.600006103515625</AltitudeMeters>
            <DistanceMeters>20770.292136941</DistanceMeters>
          </Trackpoint>
          <Trackpoint>
            <Time>2021-10-09T07:36:24.000Z</Time>
            <Position>
              <LatitudeDegrees>39.54030110500752925872802734375</LatitudeDegrees>
              <LongitudeDegrees>-0.5776430480182170867919921875</LongitudeDegrees>
            </Position>
            <AltitudeMeters>146.600006103515625</AltitudeMeters>
            <DistanceMeters>20776.790185683</DistanceMeters>
          </Trackpoint>
          <Trackpoint>
            <Time>2021-10-09T07:36:25.000Z</Time>
            <Position>
              <LatitudeDegrees>39.54032658599317073822021484375</LatitudeDegrees>
              <LongitudeDegrees>-0.57771286927163600921630859375</LongitudeDegrees>
            </Position>
            <AltitudeMeters>146.600006103515625</AltitudeMeters>
            <DistanceMeters>20783.420299719</DistanceMeters>
          </Trackpoint>
          <Trackpoint>
            <Time>2021-10-09T07:36:26.000Z</Time>
            <Position>
              <LatitudeDegrees>39.5403526537120342254638671875</LatitudeDegrees>
              <LongitudeDegrees>-0.57778227142989635467529296875</LongitudeDegrees>
            </Position>
            <AltitudeMeters>146.600006103515625</AltitudeMeters>
            <DistanceMeters>20790.046326558</DistanceMeters>
          </Trackpoint>
          <Trackpoint>
            <Time>2021-10-09T07:36:27.000Z</Time>
            <Position>
              <LatitudeDegrees>39.5403801463544368743896484375</LatitudeDegrees>
              <LongitudeDegrees>-0.57785100303590297698974609375</LongitudeDegrees>
            </Position>
            <AltitudeMeters>146.600006103515625</AltitudeMeters>
            <DistanceMeters>20796.692764247</DistanceMeters>
          </Trackpoint>
          <Trackpoint>
            <Time>2021-10-09T07:36:28.000Z</Time>
            <Position>
              <LatitudeDegrees>39.5404078066349029541015625</LatitudeDegrees>
              <LongitudeDegrees>-0.57792325504124164581298828125</LongitudeDegrees>
            </Position>
            <AltitudeMeters>146.600006103515625</AltitudeMeters>
            <DistanceMeters>20803.616684802</DistanceMeters>
          </Trackpoint>
          <Trackpoint>
            <Time>2021-10-09T07:36:29.000Z</Time>
            <Position>
              <LatitudeDegrees>39.5404351316392421722412109375</LatitudeDegrees>
              <LongitudeDegrees>-0.57799634523689746856689453125</LongitudeDegrees>
            </Position>
            <AltitudeMeters>146.600006103515625</AltitudeMeters>
            <DistanceMeters>20810.589340793</DistanceMeters>
          </Trackpoint>
          <Trackpoint>
            <Time>2021-10-09T07:36:30.000Z</Time>
            <Position>
              <LatitudeDegrees>39.54046237282454967498779296875</LatitudeDegrees>
              <LongitudeDegrees>-0.57806910015642642974853515625</LongitudeDegrees>
            </Position>
            <AltitudeMeters>146.600006103515625</AltitudeMeters>
            <DistanceMeters>20817.530845522</DistanceMeters>
          </Trackpoint>
          <Trackpoint>
            <Time>2021-10-09T07:36:31.000Z</Time>
            <Position>
              <LatitudeDegrees>39.5404901169240474700927734375</LatitudeDegrees>
              <LongitudeDegrees>-0.57814554311335086822509765625</LongitudeDegrees>
            </Position>
            <AltitudeMeters>146.600006103515625</AltitudeMeters>
            <DistanceMeters>20824.782822164</DistanceMeters>
          </Trackpoint>
          <Trackpoint>
            <Time>2021-10-09T07:36:32.000Z</Time>
            <Position>
              <LatitudeDegrees>39.54051886685192584991455078125</LatitudeDegrees>
              <LongitudeDegrees>-0.57822030968964099884033203125</LongitudeDegrees>
            </Position>
            <AltitudeMeters>146.600006103515625</AltitudeMeters>
            <DistanceMeters>20831.954034429</DistanceMeters>
          </Trackpoint>
          <Trackpoint>
            <Time>2021-10-09T07:36:33.000Z</Time>
            <Position>
              <LatitudeDegrees>39.54054870642721652984619140625</LatitudeDegrees>
              <LongitudeDegrees>-0.57829574681818485260009765625</LongitudeDegrees>
            </Position>
            <AltitudeMeters>146.600006103515625</AltitudeMeters>
            <DistanceMeters>20839.230872222</DistanceMeters>
          </Trackpoint>
          <Trackpoint>
            <Time>2021-10-09T07:36:34.000Z</Time>
            <Position>
              <LatitudeDegrees>39.54057703725993633270263671875</LatitudeDegrees>
              <LongitudeDegrees>-0.57837269268929958343505859375</LongitudeDegrees>
            </Position>
            <AltitudeMeters>146.600006103515625</AltitudeMeters>
            <DistanceMeters>20846.549163237</DistanceMeters>
          </Trackpoint>
          <Trackpoint>
            <Time>2021-10-09T07:36:35.000Z</Time>
            <Position>
              <LatitudeDegrees>39.540607966482639312744140625</LatitudeDegrees>
              <LongitudeDegrees>-0.57845265604555606842041015625</LongitudeDegrees>
            </Position>
            <AltitudeMeters>146.600006103515625</AltitudeMeters>
            <DistanceMeters>20854.228121447</DistanceMeters>
          </Trackpoint>
          <Trackpoint>
            <Time>2021-10-09T07:36:36.000Z</Time>
            <Position>
              <LatitudeDegrees>39.54063990153372287750244140625</LatitudeDegrees>
              <LongitudeDegrees>-0.5785328708589076995849609375</LongitudeDegrees>
            </Position>
            <AltitudeMeters>146.600006103515625</AltitudeMeters>
            <DistanceMeters>20861.976150112</DistanceMeters>
          </Trackpoint>
          <Trackpoint>
            <Time>2021-10-09T07:36:37.000Z</Time>
            <Position>
              <LatitudeDegrees>39.5406721718609333038330078125</LatitudeDegrees>
              <LongitudeDegrees>-0.57861358858644962310791015625</LongitudeDegrees>
            </Position>
            <AltitudeMeters>146.399993896484375</AltitudeMeters>
            <DistanceMeters>20869.779920709</DistanceMeters>
          </Trackpoint>
          <Trackpoint>
            <Time>2021-10-09T07:36:38.000Z</Time>
            <Position>
              <LatitudeDegrees>39.54070486128330230712890625</LatitudeDegrees>
              <LongitudeDegrees>-0.57869422249495983123779296875</LongitudeDegrees>
            </Position>
            <AltitudeMeters>146.399993896484375</AltitudeMeters>
            <DistanceMeters>20877.59929713</DistanceMeters>
          </Trackpoint>
          <Trackpoint>
            <Time>2021-10-09T07:36:39.000Z</Time>
            <Position>
              <LatitudeDegrees>39.5407385565340518951416015625</LatitudeDegrees>
              <LongitudeDegrees>-0.5787742696702480316162109375</LongitudeDegrees>
            </Position>
            <AltitudeMeters>146.399993896484375</AltitudeMeters>
            <DistanceMeters>20885.426176367</DistanceMeters>
          </Trackpoint>
          <Trackpoint>
            <Time>2021-10-09T07:36:40.000Z</Time>
            <Position>
              <LatitudeDegrees>39.54077267087996006011962890625</LatitudeDegrees>
              <LongitudeDegrees>-0.57885490357875823974609375</LongitudeDegrees>
            </Position>
            <AltitudeMeters>146.1999969482421875</AltitudeMeters>
            <DistanceMeters>20893.320832003</DistanceMeters>
          </Trackpoint>
          <Trackpoint>
            <Time>2021-10-09T07:36:41.000Z</Time>
            <Position>
              <LatitudeDegrees>39.540807791054248809814453125</LatitudeDegrees>
              <LongitudeDegrees>-0.5789372138679027557373046875</LongitudeDegrees>
            </Position>
            <AltitudeMeters>146.1999969482421875</AltitudeMeters>
            <DistanceMeters>20901.394188912</DistanceMeters>
          </Trackpoint>
          <Trackpoint>
            <Time>2021-10-09T07:36:42.000Z</Time>
            <Position>
              <LatitudeDegrees>39.54084458760917186737060546875</LatitudeDegrees>
              <LongitudeDegrees>-0.5790200270712375640869140625</LongitudeDegrees>
            </Position>
            <AltitudeMeters>146</AltitudeMeters>
            <DistanceMeters>20909.596816514</DistanceMeters>
          </Trackpoint>
          <Trackpoint>
            <Time>2021-10-09T07:36:43.000Z</Time>
            <Position>
              <LatitudeDegrees>39.54088264144957065582275390625</LatitudeDegrees>
              <LongitudeDegrees>-0.5791031755506992340087890625</LongitudeDegrees>
            </Position>
            <AltitudeMeters>146</AltitudeMeters>
            <DistanceMeters>20917.895755786</DistanceMeters>
          </Trackpoint>
          <Trackpoint>
            <Time>2021-10-09T07:36:44.000Z</Time>
            <Position>
              <LatitudeDegrees>39.5409182645380496978759765625</LatitudeDegrees>
              <LongitudeDegrees>-0.5791841447353363037109375</LongitudeDegrees>
            </Position>
            <AltitudeMeters>146</AltitudeMeters>
            <DistanceMeters>20925.897208279</DistanceMeters>
          </Trackpoint>
          <Trackpoint>
            <Time>2021-10-09T07:36:45.000Z</Time>
            <Position>
              <LatitudeDegrees>39.54095673747360706329345703125</LatitudeDegrees>
              <LongitudeDegrees>-0.57926486246287822723388671875</LongitudeDegrees>
            </Position>
            <AltitudeMeters>145.8000030517578125</AltitudeMeters>
            <DistanceMeters>20934.041280447</DistanceMeters>
          </Trackpoint>
          <Trackpoint>
            <Time>2021-10-09T07:36:46.000Z</Time>
            <Position>
              <LatitudeDegrees>39.5409967191517353057861328125</LatitudeDegrees>
              <LongitudeDegrees>-0.5793472565710544586181640625</LongitudeDegrees>
            </Position>
            <AltitudeMeters>145.8000030517578125</AltitudeMeters>
            <DistanceMeters>20942.396068949</DistanceMeters>
          </Trackpoint>
          <Trackpoint>
            <Time>2021-10-09T07:36:47.000Z</Time>
            <Position>
              <LatitudeDegrees>39.541036449372768402099609375</LatitudeDegrees>
              <LongitudeDegrees>-0.5794297344982624053955078125</LongitudeDegrees>
            </Position>
            <AltitudeMeters>145.8000030517578125</AltitudeMeters>
            <DistanceMeters>20950.74220636</DistanceMeters>
          </Trackpoint>
          <Trackpoint>
            <Time>2021-10-09T07:36:48.000Z</Time>
            <Position>
              <LatitudeDegrees>39.54107777215540409088134765625</LatitudeDegrees>
              <LongitudeDegrees>-0.5795105360448360443115234375</LongitudeDegrees>
            </Position>
            <AltitudeMeters>145.600006103515625</AltitudeMeters>
            <DistanceMeters>20959.064506903</DistanceMeters>
          </Trackpoint>
          <Trackpoint>
            <Time>2021-10-09T07:36:49.000Z</Time>
            <Position>
              <LatitudeDegrees>39.5411180891096591949462890625</LatitudeDegrees>
              <LongitudeDegrees>-0.579590834677219390869140625</LongitudeDegrees>
            </Position>
            <AltitudeMeters>145.600006103515625</AltitudeMeters>
            <DistanceMeters>20967.289122556</DistanceMeters>
          </Trackpoint>
          <Trackpoint>
            <Time>2021-10-09T07:36:50.000Z</Time>
            <Position>
              <LatitudeDegrees>39.54115823842585086822509765625</LatitudeDegrees>
              <LongitudeDegrees>-0.57966903783380985260009765625</LongitudeDegrees>
            </Position>
            <AltitudeMeters>145.399993896484375</AltitudeMeters>
            <DistanceMeters>20975.353526474</DistanceMeters>
          </Trackpoint>
          <Trackpoint>
            <Time>2021-10-09T07:36:51.000Z</Time>
            <Position>
              <LatitudeDegrees>39.54119914211332798004150390625</LatitudeDegrees>
              <LongitudeDegrees>-0.57974413968622684478759765625</LongitudeDegrees>
            </Position>
            <AltitudeMeters>145.399993896484375</AltitudeMeters>
            <DistanceMeters>20983.245894136</DistanceMeters>
          </Trackpoint>
          <Trackpoint>
            <Time>2021-10-09T07:36:52.000Z</Time>
            <Position>
              <LatitudeDegrees>39.54124038107693195343017578125</LatitudeDegrees>
              <LongitudeDegrees>-0.5798183195292949676513671875</LongitudeDegrees>
            </Position>
            <AltitudeMeters>145.1999969482421875</AltitudeMeters>
            <DistanceMeters>20991.094663561</DistanceMeters>
          </Trackpoint>
          <Trackpoint>
            <Time>2021-10-09T07:36:53.000Z</Time>
            <Position>
              <LatitudeDegrees>39.5412823744118213653564453125</LatitudeDegrees>
              <LongitudeDegrees>-0.5798974446952342987060546875</LongitudeDegrees>
            </Position>
            <AltitudeMeters>145.1999969482421875</AltitudeMeters>
            <DistanceMeters>20999.339565954</DistanceMeters>
          </Trackpoint>
          <Trackpoint>
            <Time>2021-10-09T07:36:54.000Z</Time>
            <Position>
              <LatitudeDegrees>39.54132721759378910064697265625</LatitudeDegrees>
              <LongitudeDegrees>-0.57997682131826877593994140625</LongitudeDegrees>
            </Position>
            <AltitudeMeters>145</AltitudeMeters>
            <DistanceMeters>21007.785725076</DistanceMeters>
          </Trackpoint>
          <Trackpoint>
            <Time>2021-10-09T07:36:55.000Z</Time>
            <Position>
              <LatitudeDegrees>39.54137382097542285919189453125</LatitudeDegrees>
              <LongitudeDegrees>-0.58005661703646183013916015625</LongitudeDegrees>
            </Position>
            <AltitudeMeters>145</AltitudeMeters>
            <DistanceMeters>21016.377107087</DistanceMeters>
          </Trackpoint>
          <Trackpoint>
            <Time>2021-10-09T07:36:56.000Z</Time>
            <Position>
              <LatitudeDegrees>39.54142193309962749481201171875</LatitudeDegrees>
              <LongitudeDegrees>-0.580137334764003753662109375</LongitudeDegrees>
            </Position>
            <AltitudeMeters>144.8000030517578125</AltitudeMeters>
            <DistanceMeters>21025.132982201</DistanceMeters>
          </Trackpoint>
          <Trackpoint>
            <Time>2021-10-09T07:36:57.000Z</Time>
            <Position>
              <LatitudeDegrees>39.541470967233180999755859375</LatitudeDegrees>
              <LongitudeDegrees>-0.58021553792059421539306640625</LongitudeDegrees>
            </Position>
            <AltitudeMeters>144.600006103515625</AltitudeMeters>
            <DistanceMeters>21033.78406731</DistanceMeters>
          </Trackpoint>
          <Trackpoint>
            <Time>2021-10-09T07:36:58.000Z</Time>
            <Position>
              <LatitudeDegrees>39.54151933081448078155517578125</LatitudeDegrees>
              <LongitudeDegrees>-0.5802927352488040924072265625</LongitudeDegrees>
            </Position>
            <AltitudeMeters>144.600006103515625</AltitudeMeters>
            <DistanceMeters>21042.321148016</DistanceMeters>
          </Trackpoint>
          <Trackpoint>
            <Time>2021-10-09T07:36:59.000Z</Time>
            <Position>
              <LatitudeDegrees>39.5415687002241611480712890625</LatitudeDegrees>
              <LongitudeDegrees>-0.58037060312926769256591796875</LongitudeDegrees>
            </Position>
            <AltitudeMeters>144.399993896484375</AltitudeMeters>
            <DistanceMeters>21050.973798696</DistanceMeters>
          </Trackpoint>
          <Trackpoint>
            <Time>2021-10-09T07:37:00.000Z</Time>
            <Position>
              <LatitudeDegrees>39.54161815345287322998046875</LatitudeDegrees>
              <LongitudeDegrees>-0.5804486386477947235107421875</LongitudeDegrees>
            </Position>
            <AltitudeMeters>144.399993896484375</AltitudeMeters>
            <DistanceMeters>21059.64313121</DistanceMeters>
          </Trackpoint>
          <Trackpoint>
            <Time>2021-10-09T07:37:01.000Z</Time>
            <Position>
              <LatitudeDegrees>39.5416686125099658966064453125</LatitudeDegrees>
              <LongitudeDegrees>-0.58052767999470233917236328125</LongitudeDegrees>
            </Position>
            <AltitudeMeters>144.1999969482421875</AltitudeMeters>
            <DistanceMeters>21068.450421183</DistanceMeters>
          </Trackpoint>
          <Trackpoint>
            <Time>2021-10-09T07:37:02.000Z</Time>
            <Position>
              <LatitudeDegrees>39.54172066412866115570068359375</LatitudeDegrees>
              <LongitudeDegrees>-0.58060714043676853179931640625</LongitudeDegrees>
            </Position>
            <AltitudeMeters>144.1999969482421875</AltitudeMeters>
            <DistanceMeters>21077.399092475</DistanceMeters>
          </Trackpoint>
          <Trackpoint>
            <Time>2021-10-09T07:37:03.000Z</Time>
            <Position>
              <LatitudeDegrees>39.54177447594702243804931640625</LatitudeDegrees>
              <LongitudeDegrees>-0.58068593032658100128173828125</LongitudeDegrees>
            </Position>
            <AltitudeMeters>144</AltitudeMeters>
            <DistanceMeters>21086.432130212</DistanceMeters>
          </Trackpoint>
          <Trackpoint>
            <Time>2021-10-09T07:37:04.000Z</Time>
            <Position>
              <LatitudeDegrees>39.541828371584415435791015625</LatitudeDegrees>
              <LongitudeDegrees>-0.5807612836360931396484375</LongitudeDegrees>
            </Position>
            <AltitudeMeters>143.600006103515625</AltitudeMeters>
            <DistanceMeters>21095.253762645</DistanceMeters>
          </Trackpoint>
          <Trackpoint>
            <Time>2021-10-09T07:37:05.000Z</Time>
            <Position>
              <LatitudeDegrees>39.54188528470695018768310546875</LatitudeDegrees>
              <LongitudeDegrees>-0.5808378942310810089111328125</LongitudeDegrees>
            </Position>
            <AltitudeMeters>143.600006103515625</AltitudeMeters>
            <DistanceMeters>21104.384242684</DistanceMeters>
          </Trackpoint>
          <Trackpoint>
            <Time>2021-10-09T07:37:06.000Z</Time>
            <Position>
              <LatitudeDegrees>39.54194295220077037811279296875</LatitudeDegrees>
              <LongitudeDegrees>-0.5809180252254009246826171875</LongitudeDegrees>
            </Position>
            <AltitudeMeters>143.399993896484375</AltitudeMeters>
            <DistanceMeters>21113.791887406</DistanceMeters>
          </Trackpoint>
          <Trackpoint>
            <Time>2021-10-09T07:37:07.000Z</Time>
            <Position>
              <LatitudeDegrees>39.5420010387897491455078125</LatitudeDegrees>
              <LongitudeDegrees>-0.58099790476262569427490234375</LongitudeDegrees>
            </Position>
            <AltitudeMeters>143.1999969482421875</AltitudeMeters>
            <DistanceMeters>21123.21583572</DistanceMeters>
          </Trackpoint>
          <Trackpoint>
            <Time>2021-10-09T07:37:08.000Z</Time>
            <Position>
              <LatitudeDegrees>39.542061723768711090087890625</LatitudeDegrees>
              <LongitudeDegrees>-0.58107753284275531768798828125</LongitudeDegrees>
            </Position>
            <AltitudeMeters>143</AltitudeMeters>
            <DistanceMeters>21132.825287407</DistanceMeters>
          </Trackpoint>
          <Trackpoint>
            <Time>2021-10-09T07:37:09.000Z</Time>
            <Position>
              <LatitudeDegrees>39.5421249233186244964599609375</LatitudeDegrees>
              <LongitudeDegrees>-0.58115229941904544830322265625</LongitudeDegrees>
            </Position>
            <AltitudeMeters>142.600006103515625</AltitudeMeters>
            <DistanceMeters>21142.347419394</DistanceMeters>
          </Trackpoint>
          <Trackpoint>
            <Time>2021-10-09T07:37:10.000Z</Time>
            <Position>
              <LatitudeDegrees>39.54219189472496509552001953125</LatitudeDegrees>
              <LongitudeDegrees>-0.58122270740568637847900390625</LongitudeDegrees>
            </Position>
            <AltitudeMeters>142.399993896484375</AltitudeMeters>
            <DistanceMeters>21151.943235643</DistanceMeters>
          </Trackpoint>
          <Trackpoint>
            <Time>2021-10-09T07:37:11.000Z</Time>
            <Position>
              <LatitudeDegrees>39.54228007234632968902587890625</LatitudeDegrees>
              <LongitudeDegrees>-0.5812945403158664703369140625</LongitudeDegrees>
            </Position>
            <AltitudeMeters>142</AltitudeMeters>
            <DistanceMeters>21163.534157839</DistanceMeters>
          </Trackpoint>
          <Trackpoint>
            <Time>2021-10-09T07:37:12.000Z</Time>
            <Position>
              <LatitudeDegrees>39.54234964214265346527099609375</LatitudeDegrees>
              <LongitudeDegrees>-0.58132127858698368072509765625</LongitudeDegrees>
            </Position>
            <AltitudeMeters>141.8000030517578125</AltitudeMeters>
            <DistanceMeters>21171.610310521</DistanceMeters>
          </Trackpoint>
          <Trackpoint>
            <Time>2021-10-09T07:37:13.000Z</Time>
            <Position>
              <LatitudeDegrees>39.54243899323046207427978515625</LatitudeDegrees>
              <LongitudeDegrees>-0.58133334852755069732666015625</LongitudeDegrees>
            </Position>
            <AltitudeMeters>141.600006103515625</AltitudeMeters>
            <DistanceMeters>21181.609360796</DistanceMeters>
          </Trackpoint>
          <Trackpoint>
            <Time>2021-10-09T07:37:14.000Z</Time>
            <Position>
              <LatitudeDegrees>39.54252876341342926025390625</LatitudeDegrees>
              <LongitudeDegrees>-0.58133997023105621337890625</LongitudeDegrees>
            </Position>
            <AltitudeMeters>141.399993896484375</AltitudeMeters>
            <DistanceMeters>21191.617437929</DistanceMeters>
          </Trackpoint>
          <Trackpoint>
            <Time>2021-10-09T07:37:15.000Z</Time>
            <Position>
              <LatitudeDegrees>39.5426134206354618072509765625</LatitudeDegrees>
              <LongitudeDegrees>-0.58136989362537860870361328125</LongitudeDegrees>
            </Position>
            <AltitudeMeters>141.1999969482421875</AltitudeMeters>
            <DistanceMeters>21201.3839469</DistanceMeters>
          </Trackpoint>
          <Trackpoint>
            <Time>2021-10-09T07:37:16.000Z</Time>
            <Position>
              <LatitudeDegrees>39.5426850020885467529296875</LatitudeDegrees>
              <LongitudeDegrees>-0.58143108151853084564208984375</LongitudeDegrees>
            </Position>
            <AltitudeMeters>140.600006103515625</AltitudeMeters>
            <DistanceMeters>21210.926446094</DistanceMeters>
          </Trackpoint>
          <Trackpoint>
            <Time>2021-10-09T07:37:17.000Z</Time>
            <Position>
              <LatitudeDegrees>39.5427391491830348968505859375</LatitudeDegrees>
              <LongitudeDegrees>-0.58151791803538799285888671875</LongitudeDegrees>
            </Position>
            <AltitudeMeters>140.1999969482421875</AltitudeMeters>
            <DistanceMeters>21220.511434239</DistanceMeters>
          </Trackpoint>
          <Trackpoint>
            <Time>2021-10-09T07:37:18.000Z</Time>
            <Position>
              <LatitudeDegrees>39.5427761971950531005859375</LatitudeDegrees>
              <LongitudeDegrees>-0.58162235654890537261962890625</LongitudeDegrees>
            </Position>
            <AltitudeMeters>139.8000030517578125</AltitudeMeters>
            <DistanceMeters>21230.378667094</DistanceMeters>
          </Trackpoint>
          <Trackpoint>
            <Time>2021-10-09T07:37:19.000Z</Time>
            <Position>
              <LatitudeDegrees>39.5428055338561534881591796875</LatitudeDegrees>
              <LongitudeDegrees>-0.581735260784626007080078125</LongitudeDegrees>
            </Position>
            <AltitudeMeters>139.8000030517578125</AltitudeMeters>
            <DistanceMeters>21240.604530638</DistanceMeters>
          </Trackpoint>
          <Trackpoint>
            <Time>2021-10-09T07:37:20.000Z</Time>
            <Position>
              <LatitudeDegrees>39.5428405702114105224609375</LatitudeDegrees>
              <LongitudeDegrees>-0.581848584115505218505859375</LongitudeDegrees>
            </Position>
            <AltitudeMeters>139.399993896484375</AltitudeMeters>
            <DistanceMeters>21251.083353547</DistanceMeters>
          </Trackpoint>
          <Trackpoint>
            <Time>2021-10-09T07:37:21.000Z</Time>
            <Position>
              <LatitudeDegrees>39.5428923703730106353759765625</LatitudeDegrees>
              <LongitudeDegrees>-0.58195277117192745208740234375</LongitudeDegrees>
            </Position>
            <AltitudeMeters>139.1999969482421875</AltitudeMeters>
            <DistanceMeters>21261.723799894</DistanceMeters>
          </Trackpoint>
          <Trackpoint>
            <Time>2021-10-09T07:37:22.000Z</Time>
            <Position>
              <LatitudeDegrees>39.54296034760773181915283203125</LatitudeDegrees>
              <LongitudeDegrees>-0.58204472064971923828125</LongitudeDegrees>
            </Position>
            <AltitudeMeters>138.8000030517578125</AltitudeMeters>
            <DistanceMeters>21272.657241802</DistanceMeters>
          </Trackpoint>
          <Trackpoint>
            <Time>2021-10-09T07:37:23.000Z</Time>
            <Position>
              <LatitudeDegrees>39.54303729347884654998779296875</LatitudeDegrees>
              <LongitudeDegrees>-0.58212879113852977752685546875</LongitudeDegrees>
            </Position>
            <AltitudeMeters>138.399993896484375</AltitudeMeters>
            <DistanceMeters>21283.855889116</DistanceMeters>
          </Trackpoint>
          <Trackpoint>
            <Time>2021-10-09T07:37:24.000Z</Time>
            <Position>
              <LatitudeDegrees>39.543121196329593658447265625</LatitudeDegrees>
              <LongitudeDegrees>-0.58220657519996166229248046875</LongitudeDegrees>
            </Position>
            <AltitudeMeters>138</AltitudeMeters>
            <DistanceMeters>21295.334864482</DistanceMeters>
          </Trackpoint>
          <Trackpoint>
            <Time>2021-10-09T07:37:25.000Z</Time>
            <Position>
              <LatitudeDegrees>39.5432095415890216827392578125</LatitudeDegrees>
              <LongitudeDegrees>-0.58228083886206150054931640625</LongitudeDegrees>
            </Position>
            <AltitudeMeters>137.600006103515625</AltitudeMeters>
            <DistanceMeters>21307.052856734</DistanceMeters>
          </Trackpoint>
          <Trackpoint>
            <Time>2021-10-09T07:37:26.000Z</Time>
            <Position>
              <LatitudeDegrees>39.5433000661432743072509765625</LatitudeDegrees>
              <LongitudeDegrees>-0.58235376141965389251708984375</LongitudeDegrees>
            </Position>
            <AltitudeMeters>137.1999969482421875</AltitudeMeters>
            <DistanceMeters>21318.914459538</DistanceMeters>
          </Trackpoint>
          <Trackpoint>
            <Time>2021-10-09T07:37:27.000Z</Time>
            <Position>
              <LatitudeDegrees>39.543392099440097808837890625</LatitudeDegrees>
              <LongitudeDegrees>-0.58242651633918285369873046875</LongitudeDegrees>
            </Position>
            <AltitudeMeters>136.399993896484375</AltitudeMeters>
            <DistanceMeters>21330.911182355</DistanceMeters>
          </Trackpoint>
          <Trackpoint>
            <Time>2021-10-09T07:37:28.000Z</Time>
            <Position>
              <LatitudeDegrees>39.54348522238433361053466796875</LatitudeDegrees>
              <LongitudeDegrees>-0.5824988521635532379150390625</LongitudeDegrees>
            </Position>
            <AltitudeMeters>136.1999969482421875</AltitudeMeters>
            <DistanceMeters>21342.993035927</DistanceMeters>
          </Trackpoint>
          <Trackpoint>
            <Time>2021-10-09T07:37:29.000Z</Time>
            <Position>
              <LatitudeDegrees>39.5435808598995208740234375</LatitudeDegrees>
              <LongitudeDegrees>-0.5825692601501941680908203125</LongitudeDegrees>
            </Position>
            <AltitudeMeters>135.600006103515625</AltitudeMeters>
            <DistanceMeters>21355.233421066</DistanceMeters>
          </Trackpoint>
          <Trackpoint>
            <Time>2021-10-09T07:37:30.000Z</Time>
            <Position>
              <LatitudeDegrees>39.54367817379534244537353515625</LatitudeDegrees>
              <LongitudeDegrees>-0.5826379917562007904052734375</LongitudeDegrees>
            </Position>
            <AltitudeMeters>134.8000030517578125</AltitudeMeters>
            <DistanceMeters>21367.566775747</DistanceMeters>
          </Trackpoint>
          <Trackpoint>
            <Time>2021-10-09T07:37:31.000Z</Time>
            <Position>
              <LatitudeDegrees>39.54377557151019573211669921875</LatitudeDegrees>
              <LongitudeDegrees>-0.5827080644667148590087890625</LongitudeDegrees>
            </Position>
            <AltitudeMeters>134.600006103515625</AltitudeMeters>
            <DistanceMeters>21379.964029519</DistanceMeters>
          </Trackpoint>
          <Trackpoint>
            <Time>2021-10-09T07:37:32.000Z</Time>
            <Position>
              <LatitudeDegrees>39.54387347213923931121826171875</LatitudeDegrees>
              <LongitudeDegrees>-0.582777298986911773681640625</LongitudeDegrees>
            </Position>
            <AltitudeMeters>134</AltitudeMeters>
            <DistanceMeters>21392.375478832</DistanceMeters>
          </Trackpoint>
          <Trackpoint>
            <Time>2021-10-09T07:37:33.000Z</Time>
            <Position>
              <LatitudeDegrees>39.54397380352020263671875</LatitudeDegrees>
              <LongitudeDegrees>-0.58284410275518894195556640625</LongitudeDegrees>
            </Position>
            <AltitudeMeters>133.600006103515625</AltitudeMeters>
            <DistanceMeters>21404.928360332</DistanceMeters>
          </Trackpoint>
          <Trackpoint>
            <Time>2021-10-09T07:37:34.000Z</Time>
            <Position>
              <LatitudeDegrees>39.54407497309148311614990234375</LatitudeDegrees>
              <LongitudeDegrees>-0.582910068333148956298828125</LongitudeDegrees>
            </Position>
            <AltitudeMeters>132.8000030517578125</AltitudeMeters>
            <DistanceMeters>21417.532213108</DistanceMeters>
          </Trackpoint>
          <Trackpoint>
            <Time>2021-10-09T07:37:35.000Z</Time>
            <Position>
              <LatitudeDegrees>39.544177316129207611083984375</LatitudeDegrees>
              <LongitudeDegrees>-0.58297620154917240142822265625</LongitudeDegrees>
            </Position>
            <AltitudeMeters>132.600006103515625</AltitudeMeters>
            <DistanceMeters>21430.259054082</DistanceMeters>
          </Trackpoint>
          <Trackpoint>
            <Time>2021-10-09T07:37:36.000Z</Time>
            <Position>
              <LatitudeDegrees>39.54428049735724925994873046875</LatitudeDegrees>
              <LongitudeDegrees>-0.58304292149841785430908203125</LongitudeDegrees>
            </Position>
            <AltitudeMeters>131.8000030517578125</AltitudeMeters>
            <DistanceMeters>21443.092235067</DistanceMeters>
          </Trackpoint>
          <Trackpoint>
            <Time>2021-10-09T07:37:37.000Z</Time>
            <Position>
              <LatitudeDegrees>39.544383846223354339599609375</LatitudeDegrees>
              <LongitudeDegrees>-0.58311014436185359954833984375</LongitudeDegrees>
            </Position>
            <AltitudeMeters>131</AltitudeMeters>
            <DistanceMeters>21455.9612522</DistanceMeters>
          </Trackpoint>
          <Trackpoint>
            <Time>2021-10-09T07:37:38.000Z</Time>
            <Position>
              <LatitudeDegrees>39.54448887147009372711181640625</LatitudeDegrees>
              <LongitudeDegrees>-0.583176948130130767822265625</LongitudeDegrees>
            </Position>
            <AltitudeMeters>131</AltitudeMeters>
            <DistanceMeters>21468.981299246</DistanceMeters>
          </Trackpoint>
          <Trackpoint>
            <Time>2021-10-09T07:37:39.000Z</Time>
            <Position>
              <LatitudeDegrees>39.5445938967168331146240234375</LatitudeDegrees>
              <LongitudeDegrees>-0.58324442245066165924072265625</LongitudeDegrees>
            </Position>
            <AltitudeMeters>130.399993896484375</AltitudeMeters>
            <DistanceMeters>21482.026982469</DistanceMeters>
          </Trackpoint>
          <Trackpoint>
            <Time>2021-10-09T07:37:40.000Z</Time>
            <Position>
              <LatitudeDegrees>39.5446995086967945098876953125</LatitudeDegrees>
              <LongitudeDegrees>-0.58331407606601715087890625</LongitudeDegrees>
            </Position>
            <AltitudeMeters>129.8000030517578125</AltitudeMeters>
            <DistanceMeters>21495.214828097</DistanceMeters>
          </Trackpoint>
          <Trackpoint>
            <Time>2021-10-09T07:37:41.000Z</Time>
            <Position>
              <LatitudeDegrees>39.5448064617812633514404296875</LatitudeDegrees>
              <LongitudeDegrees>-0.5833812989294528961181640625</LongitudeDegrees>
            </Position>
            <AltitudeMeters>129.1999969482421875</AltitudeMeters>
            <DistanceMeters>21508.443352255</DistanceMeters>
          </Trackpoint>
          <Trackpoint>
            <Time>2021-10-09T07:37:42.000Z</Time>
            <Position>
              <LatitudeDegrees>39.5449127443134784698486328125</LatitudeDegrees>
              <LongitudeDegrees>-0.5834460072219371795654296875</LongitudeDegrees>
            </Position>
            <AltitudeMeters>128.8000030517578125</AltitudeMeters>
            <DistanceMeters>21521.511857747</DistanceMeters>
          </Trackpoint>
          <Trackpoint>
            <Time>2021-10-09T07:37:43.000Z</Time>
            <Position>
              <LatitudeDegrees>39.5450200326740741729736328125</LatitudeDegrees>
              <LongitudeDegrees>-0.58351247571408748626708984375</LongitudeDegrees>
            </Position>
            <AltitudeMeters>128.1999969482421875</AltitudeMeters>
            <DistanceMeters>21534.746182917</DistanceMeters>
          </Trackpoint>
          <Trackpoint>
            <Time>2021-10-09T07:37:44.000Z</Time>
            <Position>
              <LatitudeDegrees>39.5451273210346698760986328125</LatitudeDegrees>
              <LongitudeDegrees>-0.583579279482364654541015625</LongitudeDegrees>
            </Position>
            <AltitudeMeters>127.40000152587890625</AltitudeMeters>
            <DistanceMeters>21547.992784196</DistanceMeters>
          </Trackpoint>
          <Trackpoint>
            <Time>2021-10-09T07:37:45.000Z</Time>
            <Position>
              <LatitudeDegrees>39.54523435793817043304443359375</LatitudeDegrees>
              <LongitudeDegrees>-0.58364826254546642303466796875</LongitudeDegrees>
            </Position>
            <AltitudeMeters>127</AltitudeMeters>
            <DistanceMeters>21561.296184823</DistanceMeters>
          </Trackpoint>
          <Trackpoint>
            <Time>2021-10-09T07:37:46.000Z</Time>
            <Position>
              <LatitudeDegrees>39.54534080810844898223876953125</LatitudeDegrees>
              <LongitudeDegrees>-0.58371649123728275299072265625</LongitudeDegrees>
            </Position>
            <AltitudeMeters>126.1999969482421875</AltitudeMeters>
            <DistanceMeters>21574.512074448</DistanceMeters>
          </Trackpoint>
          <Trackpoint>
            <Time>2021-10-09T07:37:47.000Z</Time>
            <Position>
              <LatitudeDegrees>39.5454478450119495391845703125</LatitudeDegrees>
              <LongitudeDegrees>-0.58378270827233791351318359375</LongitudeDegrees>
            </Position>
            <AltitudeMeters>125.8000030517578125</AltitudeMeters>
            <DistanceMeters>21587.711897363</DistanceMeters>
          </Trackpoint>
          <Trackpoint>
            <Time>2021-10-09T07:37:48.000Z</Time>
            <Position>
              <LatitudeDegrees>39.5455554686486721038818359375</LatitudeDegrees>
              <LongitudeDegrees>-0.583849512040615081787109375</LongitudeDegrees>
            </Position>
            <AltitudeMeters>125.40000152587890625</AltitudeMeters>
            <DistanceMeters>21600.991859446</DistanceMeters>
          </Trackpoint>
          <Trackpoint>
            <Time>2021-10-09T07:37:49.000Z</Time>
            <Position>
              <LatitudeDegrees>39.54566367901861667633056640625</LatitudeDegrees>
              <LongitudeDegrees>-0.58391665108501911163330078125</LongitudeDegrees>
            </Position>
            <AltitudeMeters>124.8000030517578125</AltitudeMeters>
            <DistanceMeters>21614.343704606</DistanceMeters>
          </Trackpoint>
          <Trackpoint>
            <Time>2021-10-09T07:37:50.000Z</Time>
            <Position>
              <LatitudeDegrees>39.54577297903597354888916015625</LatitudeDegrees>
              <LongitudeDegrees>-0.58398605324327945709228515625</LongitudeDegrees>
            </Position>
            <AltitudeMeters>123.8000030517578125</AltitudeMeters>
            <DistanceMeters>21627.888928605</DistanceMeters>
          </Trackpoint>
          <Trackpoint>
            <Time>2021-10-09T07:37:51.000Z</Time>
            <Position>
              <LatitudeDegrees>39.545883871614933013916015625</LatitudeDegrees>
              <LongitudeDegrees>-0.58405713178217411041259765625</LongitudeDegrees>
            </Position>
            <AltitudeMeters>123.1999969482421875</AltitudeMeters>
            <DistanceMeters>21641.656656618</DistanceMeters>
          </Trackpoint>
          <Trackpoint>
            <Time>2021-10-09T07:37:52.000Z</Time>
            <Position>
              <LatitudeDegrees>39.5460194908082485198974609375</LatitudeDegrees>
              <LongitudeDegrees>-0.5841430462896823883056640625</LongitudeDegrees>
            </Position>
            <AltitudeMeters>122.8000030517578125</AltitudeMeters>
            <DistanceMeters>21658.456240219</DistanceMeters>
          </Trackpoint>
          <Trackpoint>
            <Time>2021-10-09T07:37:53.000Z</Time>
            <Position>
              <LatitudeDegrees>39.54611076973378658294677734375</LatitudeDegrees>
              <LongitudeDegrees>-0.58420029468834400177001953125</LongitudeDegrees>
            </Position>
            <AltitudeMeters>122</AltitudeMeters>
            <DistanceMeters>21669.741637783</DistanceMeters>
          </Trackpoint>
          <Trackpoint>
            <Time>2021-10-09T07:37:54.000Z</Time>
            <Position>
              <LatitudeDegrees>39.5462266914546489715576171875</LatitudeDegrees>
              <LongitudeDegrees>-0.584273971617221832275390625</LongitudeDegrees>
            </Position>
            <AltitudeMeters>121.59999847412109375</AltitudeMeters>
            <DistanceMeters>21684.110481432</DistanceMeters>
          </Trackpoint>
          <Trackpoint>
            <Time>2021-10-09T07:37:55.000Z</Time>
            <Position>
              <LatitudeDegrees>39.5463430322706699371337890625</LatitudeDegrees>
              <LongitudeDegrees>-0.5843485705554485321044921875</LongitudeDegrees>
            </Position>
            <AltitudeMeters>120.59999847412109375</AltitudeMeters>
            <DistanceMeters>21698.555792313</DistanceMeters>
          </Trackpoint>
          <Trackpoint>
            <Time>2021-10-09T07:37:56.000Z</Time>
            <Position>
              <LatitudeDegrees>39.54646063037216663360595703125</LatitudeDegrees>
              <LongitudeDegrees>-0.5844236724078655242919921875</LongitudeDegrees>
            </Position>
            <AltitudeMeters>120.40000152587890625</AltitudeMeters>
            <DistanceMeters>21713.145410606</DistanceMeters>
          </Trackpoint>
          <Trackpoint>
            <Time>2021-10-09T07:37:57.000Z</Time>
            <Position>
              <LatitudeDegrees>39.54657780937850475311279296875</LatitudeDegrees>
              <LongitudeDegrees>-0.5844987742602825164794921875</LongitudeDegrees>
            </Position>
            <AltitudeMeters>119.59999847412109375</AltitudeMeters>
            <DistanceMeters>21727.693500917</DistanceMeters>
          </Trackpoint>
          <Trackpoint>
            <Time>2021-10-09T07:37:58.000Z</Time>
            <Position>
              <LatitudeDegrees>39.54669515602290630340576171875</LatitudeDegrees>
              <LongitudeDegrees>-0.584573037922382354736328125</LongitudeDegrees>
            </Position>
            <AltitudeMeters>119</AltitudeMeters>
            <DistanceMeters>21742.226686667</DistanceMeters>
          </Trackpoint>
          <Trackpoint>
            <Time>2021-10-09T07:37:59.000Z</Time>
            <Position>
              <LatitudeDegrees>39.54681518487632274627685546875</LatitudeDegrees>
              <LongitudeDegrees>-0.58464822359383106231689453125</LongitudeDegrees>
            </Position>
            <AltitudeMeters>118.59999847412109375</AltitudeMeters>
            <DistanceMeters>21757.063032018</DistanceMeters>
          </Trackpoint>
          <Trackpoint>
            <Time>2021-10-09T07:38:00.000Z</Time>
            <Position>
              <LatitudeDegrees>39.54693387262523174285888671875</LatitudeDegrees>
              <LongitudeDegrees>-0.58472332544624805450439453125</LongitudeDegrees>
            </Position>
            <AltitudeMeters>117.8000030517578125</AltitudeMeters>
            <DistanceMeters>21771.761794177</DistanceMeters>
          </Trackpoint>
          <Trackpoint>
            <Time>2021-10-09T07:38:01.000Z</Time>
            <Position>
              <LatitudeDegrees>39.54705172218382358551025390625</LatitudeDegrees>
              <LongitudeDegrees>-0.584799349308013916015625</LongitudeDegrees>
            </Position>
            <AltitudeMeters>117.59999847412109375</AltitudeMeters>
            <DistanceMeters>21786.411634683</DistanceMeters>
          </Trackpoint>
          <Trackpoint>
            <Time>2021-10-09T07:38:02.000Z</Time>
            <Position>
              <LatitudeDegrees>39.54716873355209827423095703125</LatitudeDegrees>
              <LongitudeDegrees>-0.58487378060817718505859375</LongitudeDegrees>
            </Position>
            <AltitudeMeters>116.1999969482421875</AltitudeMeters>
            <DistanceMeters>21800.917455628</DistanceMeters>
          </Trackpoint>
          <Trackpoint>
            <Time>2021-10-09T07:38:03.000Z</Time>
            <Position>
              <LatitudeDegrees>39.54728608019649982452392578125</LatitudeDegrees>
              <LongitudeDegrees>-0.58494779281318187713623046875</LongitudeDegrees>
            </Position>
            <AltitudeMeters>115</AltitudeMeters>
            <DistanceMeters>21815.441007386</DistanceMeters>
          </Trackpoint>
          <Trackpoint>
            <Time>2021-10-09T07:38:04.000Z</Time>
            <Position>
              <LatitudeDegrees>39.54740208573639392852783203125</LatitudeDegrees>
              <LongitudeDegrees>-0.5850197933614253997802734375</LongitudeDegrees>
            </Position>
            <AltitudeMeters>114.59999847412109375</AltitudeMeters>
            <DistanceMeters>21829.755071606</DistanceMeters>
          </Trackpoint>
          <Trackpoint>
            <Time>2021-10-09T07:38:05.000Z</Time>
            <Position>
              <LatitudeDegrees>39.547518007457256317138671875</LatitudeDegrees>
              <LongitudeDegrees>-0.58509380556643009185791015625</LongitudeDegrees>
            </Position>
            <AltitudeMeters>114</AltitudeMeters>
            <DistanceMeters>21844.135850818</DistanceMeters>
          </Trackpoint>
          <Trackpoint>
            <Time>2021-10-09T07:38:06.000Z</Time>
            <Position>
              <LatitudeDegrees>39.54763174988329410552978515625</LatitudeDegrees>
              <LongitudeDegrees>-0.585166476666927337646484375</LongitudeDegrees>
            </Position>
            <AltitudeMeters>113.8000030517578125</AltitudeMeters>
            <DistanceMeters>21858.248517683</DistanceMeters>
          </Trackpoint>
          <Trackpoint>
            <Time>2021-10-09T07:38:07.000Z</Time>
            <Position>
              <LatitudeDegrees>39.547743983566761016845703125</LatitudeDegrees>
              <LongitudeDegrees>-0.5852370522916316986083984375</LongitudeDegrees>
            </Position>
            <AltitudeMeters>113.59999847412109375</AltitudeMeters>
            <DistanceMeters>21872.131527141</DistanceMeters>
          </Trackpoint>
          <Trackpoint>
            <Time>2021-10-09T07:38:08.000Z</Time>
            <Position>
              <LatitudeDegrees>39.54785370267927646636962890625</LatitudeDegrees>
              <LongitudeDegrees>-0.58530804701149463653564453125</LongitudeDegrees>
            </Position>
            <AltitudeMeters>112.59999847412109375</AltitudeMeters>
            <DistanceMeters>21885.779692471</DistanceMeters>
          </Trackpoint>
          <Trackpoint>
            <Time>2021-10-09T07:38:09.000Z</Time>
            <Position>
              <LatitudeDegrees>39.54796157777309417724609375</LatitudeDegrees>
              <LongitudeDegrees>-0.5853775329887866973876953125</LongitudeDegrees>
            </Position>
            <AltitudeMeters>111.40000152587890625</AltitudeMeters>
            <DistanceMeters>21899.186207363</DistanceMeters>
          </Trackpoint>
          <Trackpoint>
            <Time>2021-10-09T07:38:10.000Z</Time>
            <Position>
              <LatitudeDegrees>39.54806844703853130340576171875</LatitudeDegrees>
              <LongitudeDegrees>-0.585443414747714996337890625</LongitudeDegrees>
            </Position>
            <AltitudeMeters>111</AltitudeMeters>
            <DistanceMeters>21912.356238052</DistanceMeters>
          </Trackpoint>
          <Trackpoint>
            <Time>2021-10-09T07:38:11.000Z</Time>
            <Position>
              <LatitudeDegrees>39.54817271791398525238037109375</LatitudeDegrees>
              <LongitudeDegrees>-0.5855087935924530029296875</LongitudeDegrees>
            </Position>
            <AltitudeMeters>110.59999847412109375</AltitudeMeters>
            <DistanceMeters>21925.24698926</DistanceMeters>
          </Trackpoint>
          <Trackpoint>
            <Time>2021-10-09T07:38:12.000Z</Time>
            <Position>
              <LatitudeDegrees>39.54827330075204372406005859375</LatitudeDegrees>
              <LongitudeDegrees>-0.5855746753513813018798828125</LongitudeDegrees>
            </Position>
            <AltitudeMeters>110.1999969482421875</AltitudeMeters>
            <DistanceMeters>21937.789075676</DistanceMeters>
          </Trackpoint>
          <Trackpoint>
            <Time>2021-10-09T07:38:13.000Z</Time>
            <Position>
              <LatitudeDegrees>39.54837103374302387237548828125</LatitudeDegrees>
              <LongitudeDegrees>-0.58563829399645328521728515625</LongitudeDegrees>
            </Position>
            <AltitudeMeters>110</AltitudeMeters>
            <DistanceMeters>21949.959916813</DistanceMeters>
          </Trackpoint>
          <Trackpoint>
            <Time>2021-10-09T07:38:14.000Z</Time>
            <Position>
              <LatitudeDegrees>39.54846725799143314361572265625</LatitudeDegrees>
              <LongitudeDegrees>-0.585698224604129791259765625</LongitudeDegrees>
            </Position>
            <AltitudeMeters>109.59999847412109375</AltitudeMeters>
            <DistanceMeters>21961.840156491</DistanceMeters>
          </Trackpoint>
          <Trackpoint>
            <Time>2021-10-09T07:38:15.000Z</Time>
            <Position>
              <LatitudeDegrees>39.54856197349727153778076171875</LatitudeDegrees>
              <LongitudeDegrees>-0.58575564064085483551025390625</LongitudeDegrees>
            </Position>
            <AltitudeMeters>109.59999847412109375</AltitudeMeters>
            <DistanceMeters>21973.476952715</DistanceMeters>
          </Trackpoint>
          <Trackpoint>
            <Time>2021-10-09T07:38:16.000Z</Time>
            <Position>
              <LatitudeDegrees>39.54865316860377788543701171875</LatitudeDegrees>
              <LongitudeDegrees>-0.58581179939210414886474609375</LongitudeDegrees>
            </Position>
            <AltitudeMeters>109.40000152587890625</AltitudeMeters>
            <DistanceMeters>21984.713836577</DistanceMeters>
          </Trackpoint>
          <Trackpoint>
            <Time>2021-10-09T07:38:17.000Z</Time>
            <Position>
              <LatitudeDegrees>39.548743776977062225341796875</LatitudeDegrees>
              <LongitudeDegrees>-0.58587131090462207794189453125</LongitudeDegrees>
            </Position>
            <AltitudeMeters>109.1999969482421875</AltitudeMeters>
            <DistanceMeters>21996.018421568</DistanceMeters>
          </Trackpoint>
          <Trackpoint>
            <Time>2021-10-09T07:38:18.000Z</Time>
            <Position>
              <LatitudeDegrees>39.54883472062647342681884765625</LatitudeDegrees>
              <LongitudeDegrees>-0.58593031950294971466064453125</LongitudeDegrees>
            </Position>
            <AltitudeMeters>109</AltitudeMeters>
            <DistanceMeters>22007.337375786</DistanceMeters>
          </Trackpoint>
          <Trackpoint>
            <Time>2021-10-09T07:38:19.000Z</Time>
            <Position>
              <LatitudeDegrees>39.548924155533313751220703125</LatitudeDegrees>
              <LongitudeDegrees>-0.58598731644451618194580078125</LongitudeDegrees>
            </Position>
            <AltitudeMeters>108.59999847412109375</AltitudeMeters>
            <DistanceMeters>22018.42825949</DistanceMeters>
          </Trackpoint>
          <Trackpoint>
            <Time>2021-10-09T07:38:20.000Z</Time>
            <Position>
              <LatitudeDegrees>39.5490109920501708984375</LatitudeDegrees>
              <LongitudeDegrees>-0.58604213409125804901123046875</LongitudeDegrees>
            </Position>
            <AltitudeMeters>108.59999847412109375</AltitudeMeters>
            <DistanceMeters>22029.177204931</DistanceMeters>
          </Trackpoint>
          <Trackpoint>
            <Time>2021-10-09T07:38:21.000Z</Time>
            <Position>
              <LatitudeDegrees>39.54909724183380603790283203125</LatitudeDegrees>
              <LongitudeDegrees>-0.58609711937606334686279296875</LongitudeDegrees>
            </Position>
            <AltitudeMeters>108.40000152587890625</AltitudeMeters>
            <DistanceMeters>22039.874360099</DistanceMeters>
          </Trackpoint>
          <Trackpoint>
            <Time>2021-10-09T07:38:22.000Z</Time>
            <Position>
              <LatitudeDegrees>39.54918240197002887725830078125</LatitudeDegrees>
              <LongitudeDegrees>-0.58614975772798061370849609375</LongitudeDegrees>
            </Position>
            <AltitudeMeters>108.40000152587890625</AltitudeMeters>
            <DistanceMeters>22050.37470454</DistanceMeters>
          </Trackpoint>
          <Trackpoint>
            <Time>2021-10-09T07:38:23.000Z</Time>
            <Position>
              <LatitudeDegrees>39.5492671430110931396484375</LatitudeDegrees>
              <LongitudeDegrees>-0.58619971387088298797607421875</LongitudeDegrees>
            </Position>
            <AltitudeMeters>108.1999969482421875</AltitudeMeters>
            <DistanceMeters>22060.735231491</DistanceMeters>
          </Trackpoint>
          <Trackpoint>
            <Time>2021-10-09T07:38:24.000Z</Time>
            <Position>
              <LatitudeDegrees>39.549350626766681671142578125</LatitudeDegrees>
              <LongitudeDegrees>-0.58624749071896076202392578125</LongitudeDegrees>
            </Position>
            <AltitudeMeters>108.1999969482421875</AltitudeMeters>
            <DistanceMeters>22070.89198261</DistanceMeters>
          </Trackpoint>
          <Trackpoint>
            <Time>2021-10-09T07:38:25.000Z</Time>
            <Position>
              <LatitudeDegrees>39.54943402670323848724365234375</LatitudeDegrees>
              <LongitudeDegrees>-0.58629191480576992034912109375</LongitudeDegrees>
            </Position>
            <AltitudeMeters>108</AltitudeMeters>
            <DistanceMeters>22080.927091603</DistanceMeters>
          </Trackpoint>
          <Trackpoint>
            <Time>2021-10-09T07:38:26.000Z</Time>
            <Position>
              <LatitudeDegrees>39.54951868392527103424072265625</LatitudeDegrees>
              <LongitudeDegrees>-0.58633298613131046295166015625</LongitudeDegrees>
            </Position>
            <AltitudeMeters>108</AltitudeMeters>
            <DistanceMeters>22090.987364799</DistanceMeters>
          </Trackpoint>
          <Trackpoint>
            <Time>2021-10-09T07:38:27.000Z</Time>
            <Position>
              <LatitudeDegrees>39.54960451461374759674072265625</LatitudeDegrees>
              <LongitudeDegrees>-0.58636844158172607421875</LongitudeDegrees>
            </Position>
            <AltitudeMeters>107.8000030517578125</AltitudeMeters>
            <DistanceMeters>22101.01347127</DistanceMeters>
          </Trackpoint>
          <Trackpoint>
            <Time>2021-10-09T07:38:28.000Z</Time>
            <Position>
              <LatitudeDegrees>39.5496894232928752899169921875</LatitudeDegrees>
              <LongitudeDegrees>-0.58640188537538051605224609375</LongitudeDegrees>
            </Position>
            <AltitudeMeters>107.59999847412109375</AltitudeMeters>
            <DistanceMeters>22110.889851465</DistanceMeters>
          </Trackpoint>
          <Trackpoint>
            <Time>2021-10-09T07:38:29.000Z</Time>
            <Position>
              <LatitudeDegrees>39.54977475106716156005859375</LatitudeDegrees>
              <LongitudeDegrees>-0.586431808769702911376953125</LongitudeDegrees>
            </Position>
            <AltitudeMeters>107.59999847412109375</AltitudeMeters>
            <DistanceMeters>22120.728214612</DistanceMeters>
          </Trackpoint>
          <Trackpoint>
            <Time>2021-10-09T07:38:30.000Z</Time>
            <Position>
              <LatitudeDegrees>39.5498620904982089996337890625</LatitudeDegrees>
              <LongitudeDegrees>-0.58645837940275669097900390625</LongitudeDegrees>
            </Position>
            <AltitudeMeters>107.40000152587890625</AltitudeMeters>
            <DistanceMeters>22130.713257126</DistanceMeters>
          </Trackpoint>
          <Trackpoint>
            <Time>2021-10-09T07:38:31.000Z</Time>
            <Position>
              <LatitudeDegrees>39.54994917847216129302978515625</LatitudeDegrees>
              <LongitudeDegrees>-0.586478747427463531494140625</LongitudeDegrees>
            </Position>
            <AltitudeMeters>107.40000152587890625</AltitudeMeters>
            <DistanceMeters>22140.562169815</DistanceMeters>
          </Trackpoint>
          <Trackpoint>
            <Time>2021-10-09T07:38:32.000Z</Time>
            <Position>
              <LatitudeDegrees>39.55003760755062103271484375</LatitudeDegrees>
              <LongitudeDegrees>-0.58649718761444091796875</LongitudeDegrees>
            </Position>
            <AltitudeMeters>107.40000152587890625</AltitudeMeters>
            <DistanceMeters>22150.530920553</DistanceMeters>
          </Trackpoint>
          <Trackpoint>
            <Time>2021-10-09T07:38:33.000Z</Time>
            <Position>
              <LatitudeDegrees>39.550124108791351318359375</LatitudeDegrees>
              <LongitudeDegrees>-0.58651219122111797332763671875</LongitudeDegrees>
            </Position>
            <AltitudeMeters>107.1999969482421875</AltitudeMeters>
            <DistanceMeters>22160.244584576</DistanceMeters>
          </Trackpoint>
          <Trackpoint>
            <Time>2021-10-09T07:38:34.000Z</Time>
            <Position>
              <LatitudeDegrees>39.550209939479827880859375</LatitudeDegrees>
              <LongitudeDegrees>-0.5865226686000823974609375</LongitudeDegrees>
            </Position>
            <AltitudeMeters>107.1999969482421875</AltitudeMeters>
            <DistanceMeters>22169.839930293</DistanceMeters>
          </Trackpoint>
          <Trackpoint>
            <Time>2021-10-09T07:38:35.000Z</Time>
            <Position>
              <LatitudeDegrees>39.55029652453958988189697265625</LatitudeDegrees>
              <LongitudeDegrees>-0.58652828447520732879638671875</LongitudeDegrees>
            </Position>
            <AltitudeMeters>107.1999969482421875</AltitudeMeters>
            <DistanceMeters>22179.489704813</DistanceMeters>
          </Trackpoint>
          <Trackpoint>
            <Time>2021-10-09T07:38:36.000Z</Time>
            <Position>
              <LatitudeDegrees>39.55038336105644702911376953125</LatitudeDegrees>
              <LongitudeDegrees>-0.586532056331634521484375</LongitudeDegrees>
            </Position>
            <AltitudeMeters>107</AltitudeMeters>
            <DistanceMeters>22189.160978349</DistanceMeters>
          </Trackpoint>
          <Trackpoint>
            <Time>2021-10-09T07:38:37.000Z</Time>
            <Position>
              <LatitudeDegrees>39.550467766821384429931640625</LatitudeDegrees>
              <LongitudeDegrees>-0.5865318886935710906982421875</LongitudeDegrees>
            </Position>
            <AltitudeMeters>107</AltitudeMeters>
            <DistanceMeters>22198.555655947</DistanceMeters>
          </Trackpoint>
          <Trackpoint>
            <Time>2021-10-09T07:38:38.000Z</Time>
            <Position>
              <LatitudeDegrees>39.5505497418344020843505859375</LatitudeDegrees>
              <LongitudeDegrees>-0.586528368294239044189453125</LongitudeDegrees>
            </Position>
            <AltitudeMeters>107</AltitudeMeters>
            <DistanceMeters>22207.685146928</DistanceMeters>
          </Trackpoint>
          <Trackpoint>
            <Time>2021-10-09T07:38:39.000Z</Time>
            <Position>
              <LatitudeDegrees>39.55063146539032459259033203125</LatitudeDegrees>
              <LongitudeDegrees>-0.5865228362381458282470703125</LongitudeDegrees>
            </Position>
            <AltitudeMeters>107</AltitudeMeters>
            <DistanceMeters>22216.793842903</DistanceMeters>
          </Trackpoint>
          <Trackpoint>
            <Time>2021-10-09T07:38:40.000Z</Time>
            <Position>
              <LatitudeDegrees>39.55071142874658107757568359375</LatitudeDegrees>
              <LongitudeDegrees>-0.58650934137403964996337890625</LongitudeDegrees>
            </Position>
            <AltitudeMeters>106.8000030517578125</AltitudeMeters>
            <DistanceMeters>22225.768712366</DistanceMeters>
          </Trackpoint>
          <Trackpoint>
            <Time>2021-10-09T07:38:41.000Z</Time>
            <Position>
              <LatitudeDegrees>39.55078938044607639312744140625</LatitudeDegrees>
              <LongitudeDegrees>-0.58648754842579364776611328125</LongitudeDegrees>
            </Position>
            <AltitudeMeters>106.8000030517578125</AltitudeMeters>
            <DistanceMeters>22234.644431317</DistanceMeters>
          </Trackpoint>
          <Trackpoint>
            <Time>2021-10-09T07:38:42.000Z</Time>
            <Position>
              <LatitudeDegrees>39.55086817033588886260986328125</LatitudeDegrees>
              <LongitudeDegrees>-0.58645427227020263671875</LongitudeDegrees>
            </Position>
            <AltitudeMeters>106.8000030517578125</AltitudeMeters>
            <DistanceMeters>22243.866919595</DistanceMeters>
          </Trackpoint>
          <Trackpoint>
            <Time>2021-10-09T07:38:43.000Z</Time>
            <Position>
              <LatitudeDegrees>39.55094058997929096221923828125</LatitudeDegrees>
              <LongitudeDegrees>-0.58640305884182453155517578125</LongitudeDegrees>
            </Position>
            <AltitudeMeters>106.59999847412109375</AltitudeMeters>
            <DistanceMeters>22253.047700255</DistanceMeters>
          </Trackpoint>
          <Trackpoint>
            <Time>2021-10-09T07:38:44.000Z</Time>
            <Position>
              <LatitudeDegrees>39.551003873348236083984375</LatitudeDegrees>
              <LongitudeDegrees>-0.5863334052264690399169921875</LongitudeDegrees>
            </Position>
            <AltitudeMeters>106.40000152587890625</AltitudeMeters>
            <DistanceMeters>22262.285352684</DistanceMeters>
          </Trackpoint>
          <Trackpoint>
            <Time>2021-10-09T07:38:45.000Z</Time>
            <Position>
              <LatitudeDegrees>39.55105684697628021240234375</LatitudeDegrees>
              <LongitudeDegrees>-0.58625352568924427032470703125</LongitudeDegrees>
            </Position>
            <AltitudeMeters>106.1999969482421875</AltitudeMeters>
            <DistanceMeters>22271.327382993</DistanceMeters>
          </Trackpoint>
          <Trackpoint>
            <Time>2021-10-09T07:38:46.000Z</Time>
            <Position>
              <LatitudeDegrees>39.55111258663237094879150390625</LatitudeDegrees>
              <LongitudeDegrees>-0.58618010021746158599853515625</LongitudeDegrees>
            </Position>
            <AltitudeMeters>106.1999969482421875</AltitudeMeters>
            <DistanceMeters>22280.170485504</DistanceMeters>
          </Trackpoint>
          <Trackpoint>
            <Time>2021-10-09T07:38:47.000Z</Time>
            <Position>
              <LatitudeDegrees>39.5511924661695957183837890625</LatitudeDegrees>
              <LongitudeDegrees>-0.58611690066754817962646484375</LongitudeDegrees>
            </Position>
            <AltitudeMeters>105.8000030517578125</AltitudeMeters>
            <DistanceMeters>22290.584910508</DistanceMeters>
          </Trackpoint>
          <Trackpoint>
            <Time>2021-10-09T07:38:48.000Z</Time>
            <Position>
              <LatitudeDegrees>39.5512492954730987548828125</LatitudeDegrees>
              <LongitudeDegrees>-0.586099885404109954833984375</LongitudeDegrees>
            </Position>
            <AltitudeMeters>105.8000030517578125</AltitudeMeters>
            <DistanceMeters>22297.076007232</DistanceMeters>
          </Trackpoint>
          <Trackpoint>
            <Time>2021-10-09T07:38:49.000Z</Time>
            <Position>
              <LatitudeDegrees>39.55132196657359600067138671875</LatitudeDegrees>
              <LongitudeDegrees>-0.58609913103282451629638671875</LongitudeDegrees>
            </Position>
            <AltitudeMeters>105.59999847412109375</AltitudeMeters>
            <DistanceMeters>22305.16500803</DistanceMeters>
          </Trackpoint>
          <Trackpoint>
            <Time>2021-10-09T07:38:50.000Z</Time>
            <Position>
              <LatitudeDegrees>39.5513892732560634613037109375</LatitudeDegrees>
              <LongitudeDegrees>-0.58612410910427570343017578125</LongitudeDegrees>
            </Position>
            <AltitudeMeters>105.59999847412109375</AltitudeMeters>
            <DistanceMeters>22312.957198609</DistanceMeters>
          </Trackpoint>
          <Trackpoint>
            <Time>2021-10-09T07:38:51.000Z</Time>
            <Position>
              <LatitudeDegrees>39.5514492876827716827392578125</LatitudeDegrees>
              <LongitudeDegrees>-0.58616987429559230804443359375</LongitudeDegrees>
            </Position>
            <AltitudeMeters>105.40000152587890625</AltitudeMeters>
            <DistanceMeters>22320.705809986</DistanceMeters>
          </Trackpoint>
          <Trackpoint>
            <Time>2021-10-09T07:38:52.000Z</Time>
            <Position>
              <LatitudeDegrees>39.55149832181632518768310546875</LatitudeDegrees>
              <LongitudeDegrees>-0.5862365104258060455322265625</LongitudeDegrees>
            </Position>
            <AltitudeMeters>105.40000152587890625</AltitudeMeters>
            <DistanceMeters>22328.611324458</DistanceMeters>
          </Trackpoint>
          <Trackpoint>
            <Time>2021-10-09T07:38:53.000Z</Time>
            <Position>
              <LatitudeDegrees>39.55153302289545536041259765625</LatitudeDegrees>
              <LongitudeDegrees>-0.58631856925785541534423828125</LongitudeDegrees>
            </Position>
            <AltitudeMeters>105.40000152587890625</AltitudeMeters>
            <DistanceMeters>22336.643190127</DistanceMeters>
          </Trackpoint>
          <Trackpoint>
            <Time>2021-10-09T07:38:54.000Z</Time>
            <Position>
              <LatitudeDegrees>39.5515512116253376007080078125</LatitudeDegrees>
              <LongitudeDegrees>-0.58641135692596435546875</LongitudeDegrees>
            </Position>
            <AltitudeMeters>105.1999969482421875</AltitudeMeters>
            <DistanceMeters>22344.859567156</DistanceMeters>
          </Trackpoint>
          <Trackpoint>
            <Time>2021-10-09T07:38:55.000Z</Time>
            <Position>
              <LatitudeDegrees>39.551552720367908477783203125</LatitudeDegrees>
              <LongitudeDegrees>-0.58650992810726165771484375</LongitudeDegrees>
            </Position>
            <AltitudeMeters>105.1999969482421875</AltitudeMeters>
            <DistanceMeters>22353.320680916</DistanceMeters>
          </Trackpoint>
          <Trackpoint>
            <Time>2021-10-09T07:38:56.000Z</Time>
            <Position>
              <LatitudeDegrees>39.551549367606639862060546875</LatitudeDegrees>
              <LongitudeDegrees>-0.58660808019340038299560546875</LongitudeDegrees>
            </Position>
            <AltitudeMeters>105.1999969482421875</AltitudeMeters>
            <DistanceMeters>22361.751858874</DistanceMeters>
          </Trackpoint>
          <Trackpoint>
            <Time>2021-10-09T07:38:57.000Z</Time>
            <Position>
              <LatitudeDegrees>39.55155632458627223968505859375</LatitudeDegrees>
              <LongitudeDegrees>-0.5867045558989048004150390625</LongitudeDegrees>
            </Position>
            <AltitudeMeters>105.1999969482421875</AltitudeMeters>
            <DistanceMeters>22370.067103629</DistanceMeters>
          </Trackpoint>
          <Trackpoint>
            <Time>2021-10-09T07:38:58.000Z</Time>
            <Position>
              <LatitudeDegrees>39.55157593823969364166259765625</LatitudeDegrees>
              <LongitudeDegrees>-0.58680019341409206390380859375</LongitudeDegrees>
            </Position>
            <AltitudeMeters>105</AltitudeMeters>
            <DistanceMeters>22378.560174371</DistanceMeters>
          </Trackpoint>
          <Trackpoint>
            <Time>2021-10-09T07:38:59.000Z</Time>
            <Position>
              <LatitudeDegrees>39.5516061969101428985595703125</LatitudeDegrees>
              <LongitudeDegrees>-0.5868926458060741424560546875</LongitudeDegrees>
            </Position>
            <AltitudeMeters>105</AltitudeMeters>
            <DistanceMeters>22387.179888344</DistanceMeters>
          </Trackpoint>
          <Trackpoint>
            <Time>2021-10-09T07:39:00.000Z</Time>
            <Position>
              <LatitudeDegrees>39.55163964070379734039306640625</LatitudeDegrees>
              <LongitudeDegrees>-0.58698258362710475921630859375</LongitudeDegrees>
            </Position>
            <AltitudeMeters>105</AltitudeMeters>
            <DistanceMeters>22395.749169624</DistanceMeters>
          </Trackpoint>
          <Trackpoint>
            <Time>2021-10-09T07:39:01.000Z</Time>
            <Position>
              <LatitudeDegrees>39.55167484469711780548095703125</LatitudeDegrees>
              <LongitudeDegrees>-0.58707050979137420654296875</LongitudeDegrees>
            </Position>
            <AltitudeMeters>104.8000030517578125</AltitudeMeters>
            <DistanceMeters>22404.25180404</DistanceMeters>
          </Trackpoint>
          <Trackpoint>
            <Time>2021-10-09T07:39:02.000Z</Time>
            <Position>
              <LatitudeDegrees>39.55171138979494571685791015625</LatitudeDegrees>
              <LongitudeDegrees>-0.58715692721307277679443359375</LongitudeDegrees>
            </Position>
            <AltitudeMeters>104.8000030517578125</AltitudeMeters>
            <DistanceMeters>22412.710249267</DistanceMeters>
          </Trackpoint>
          <Trackpoint>
            <Time>2021-10-09T07:39:03.000Z</Time>
            <Position>
              <LatitudeDegrees>39.55174910835921764373779296875</LatitudeDegrees>
              <LongitudeDegrees>-0.58724326081573963165283203125</LongitudeDegrees>
            </Position>
            <AltitudeMeters>104.8000030517578125</AltitudeMeters>
            <DistanceMeters>22421.226148745</DistanceMeters>
          </Trackpoint>
          <Trackpoint>
            <Time>2021-10-09T07:39:04.000Z</Time>
            <Position>
              <LatitudeDegrees>39.551786743104457855224609375</LatitudeDegrees>
              <LongitudeDegrees>-0.58732674457132816314697265625</LongitudeDegrees>
            </Position>
            <AltitudeMeters>104.8000030517578125</AltitudeMeters>
            <DistanceMeters>22429.525088017</DistanceMeters>
          </Trackpoint>
          <Trackpoint>
            <Time>2021-10-09T07:39:05.000Z</Time>
            <Position>
              <LatitudeDegrees>39.55182622186839580535888671875</LatitudeDegrees>
              <LongitudeDegrees>-0.5874136649072170257568359375</LongitudeDegrees>
            </Position>
            <AltitudeMeters>104.59999847412109375</AltitudeMeters>
            <DistanceMeters>22438.182433712</DistanceMeters>
          </Trackpoint>
          <Trackpoint>
            <Time>2021-10-09T07:39:06.000Z</Time>
            <Position>
              <LatitudeDegrees>39.5518643595278263092041015625</LatitudeDegrees>
              <LongitudeDegrees>-0.5875003337860107421875</LongitudeDegrees>
            </Position>
            <AltitudeMeters>104.59999847412109375</AltitudeMeters>
            <DistanceMeters>22446.745917279</DistanceMeters>
          </Trackpoint>
          <Trackpoint>
            <Time>2021-10-09T07:39:07.000Z</Time>
            <Position>
              <LatitudeDegrees>39.55190182663500308990478515625</LatitudeDegrees>
              <LongitudeDegrees>-0.58758758939802646636962890625</LongitudeDegrees>
            </Position>
            <AltitudeMeters>104.59999847412109375</AltitudeMeters>
            <DistanceMeters>22455.317305845</DistanceMeters>
          </Trackpoint>
          <Trackpoint>
            <Time>2021-10-09T07:39:08.000Z</Time>
            <Position>
              <LatitudeDegrees>39.5519391261041164398193359375</LatitudeDegrees>
              <LongitudeDegrees>-0.5876733362674713134765625</LongitudeDegrees>
            </Position>
            <AltitudeMeters>104.59999847412109375</AltitudeMeters>
            <DistanceMeters>22463.76667176</DistanceMeters>
          </Trackpoint>
          <Trackpoint>
            <Time>2021-10-09T07:39:09.000Z</Time>
            <Position>
              <LatitudeDegrees>39.5519766770303249359130859375</LatitudeDegrees>
              <LongitudeDegrees>-0.58775841258466243743896484375</LongitudeDegrees>
            </Position>
            <AltitudeMeters>104.59999847412109375</AltitudeMeters>
            <DistanceMeters>22472.179622441</DistanceMeters>
          </Trackpoint>
          <Trackpoint>
            <Time>2021-10-09T07:39:10.000Z</Time>
            <Position>
              <LatitudeDegrees>39.55201414413750171661376953125</LatitudeDegrees>
              <LongitudeDegrees>-0.5878436565399169921875</LongitudeDegrees>
            </Position>
            <AltitudeMeters>104.59999847412109375</AltitudeMeters>
            <DistanceMeters>22480.600619432</DistanceMeters>
          </Trackpoint>
          <Trackpoint>
            <Time>2021-10-09T07:39:11.000Z</Time>
            <Position>
              <LatitudeDegrees>39.55205052159726619720458984375</LatitudeDegrees>
              <LongitudeDegrees>-0.5879296548664569854736328125</LongitudeDegrees>
            </Position>
            <AltitudeMeters>104.40000152587890625</AltitudeMeters>
            <DistanceMeters>22489.018935174</DistanceMeters>
          </Trackpoint>
          <Trackpoint>
            <Time>2021-10-09T07:39:12.000Z</Time>
            <Position>
              <LatitudeDegrees>39.55208689905703067779541015625</LatitudeDegrees>
              <LongitudeDegrees>-0.58801623992621898651123046875</LongitudeDegrees>
            </Position>
            <AltitudeMeters>104.59999847412109375</AltitudeMeters>
            <DistanceMeters>22497.48111611</DistanceMeters>
          </Trackpoint>
          <Trackpoint>
            <Time>2021-10-09T07:39:13.000Z</Time>
            <Position>
              <LatitudeDegrees>39.5521236956119537353515625</LatitudeDegrees>
              <LongitudeDegrees>-0.5881024897098541259765625</LongitudeDegrees>
            </Position>
            <AltitudeMeters>104.59999847412109375</AltitudeMeters>
            <DistanceMeters>22505.940628851</DistanceMeters>
          </Trackpoint>
          <Trackpoint>
            <Time>2021-10-09T07:39:14.000Z</Time>
            <Position>
              <LatitudeDegrees>39.55215990543365478515625</LatitudeDegrees>
              <LongitudeDegrees>-0.588186644017696380615234375</LongitudeDegrees>
            </Position>
            <AltitudeMeters>104.59999847412109375</AltitudeMeters>
            <DistanceMeters>22514.210683204</DistanceMeters>
          </Trackpoint>
          <Trackpoint>
            <Time>2021-10-09T07:39:15.000Z</Time>
            <Position>
              <LatitudeDegrees>39.55219410359859466552734375</LatitudeDegrees>
              <LongitudeDegrees>-0.58827037923038005828857421875</LongitudeDegrees>
            </Position>
            <AltitudeMeters>104.40000152587890625</AltitudeMeters>
            <DistanceMeters>22522.342549521</DistanceMeters>
          </Trackpoint>
          <Trackpoint>
            <Time>2021-10-09T07:39:16.000Z</Time>
            <Position>
              <LatitudeDegrees>39.552228637039661407470703125</LatitudeDegrees>
              <LongitudeDegrees>-0.58835436590015888214111328125</LongitudeDegrees>
            </Position>
            <AltitudeMeters>104.40000152587890625</AltitudeMeters>
            <DistanceMeters>22530.510425913</DistanceMeters>
          </Trackpoint>
          <Trackpoint>
            <Time>2021-10-09T07:39:17.000Z</Time>
            <Position>
              <LatitudeDegrees>39.5522660203278064727783203125</LatitudeDegrees>
              <LongitudeDegrees>-0.5884379334747791290283203125</LongitudeDegrees>
            </Position>
            <AltitudeMeters>104.40000152587890625</AltitudeMeters>
            <DistanceMeters>22538.801744986</DistanceMeters>
          </Trackpoint>
          <Trackpoint>
            <Time>2021-10-09T07:39:18.000Z</Time>
            <Position>
              <LatitudeDegrees>39.5523025654256343841552734375</LatitudeDegrees>
              <LongitudeDegrees>-0.5885194055736064910888671875</LongitudeDegrees>
            </Position>
            <AltitudeMeters>104.40000152587890625</AltitudeMeters>
            <DistanceMeters>22546.890745784</DistanceMeters>
          </Trackpoint>
          <Trackpoint>
            <Time>2021-10-09T07:39:19.000Z</Time>
            <Position>
              <LatitudeDegrees>39.55233768559992313385009765625</LatitudeDegrees>
              <LongitudeDegrees>-0.58860096149146556854248046875</LongitudeDegrees>
            </Position>
            <AltitudeMeters>104.40000152587890625</AltitudeMeters>
            <DistanceMeters>22554.907419287</DistanceMeters>
          </Trackpoint>
          <Trackpoint>
            <Time>2021-10-09T07:39:20.000Z</Time>
            <Position>
              <LatitudeDegrees>39.5523729734122753143310546875</LatitudeDegrees>
              <LongitudeDegrees>-0.58868251740932464599609375</LongitudeDegrees>
            </Position>
            <AltitudeMeters>104.1999969482421875</AltitudeMeters>
            <DistanceMeters>22562.933661581</DistanceMeters>
          </Trackpoint>
          <Trackpoint>
            <Time>2021-10-09T07:39:21.000Z</Time>
            <Position>
              <LatitudeDegrees>39.5524085126817226409912109375</LatitudeDegrees>
              <LongitudeDegrees>-0.5887623131275177001953125</LongitudeDegrees>
            </Position>
            <AltitudeMeters>104.1999969482421875</AltitudeMeters>
            <DistanceMeters>22570.841460223</DistanceMeters>
          </Trackpoint>
          <Trackpoint>
            <Time>2021-10-09T07:39:22.000Z</Time>
            <Position>
              <LatitudeDegrees>39.55244430340826511383056640625</LatitudeDegrees>
              <LongitudeDegrees>-0.5888449586927890777587890625</LongitudeDegrees>
            </Position>
            <AltitudeMeters>104.1999969482421875</AltitudeMeters>
            <DistanceMeters>22578.976102206</DistanceMeters>
          </Trackpoint>
          <Trackpoint>
            <Time>2021-10-09T07:39:23.000Z</Time>
            <Position>
              <LatitudeDegrees>39.55248135142028331756591796875</LatitudeDegrees>
              <LongitudeDegrees>-0.58892819099128246307373046875</LongitudeDegrees>
            </Position>
            <AltitudeMeters>104.1999969482421875</AltitudeMeters>
            <DistanceMeters>22587.224289639</DistanceMeters>
          </Trackpoint>
          <Trackpoint>
            <Time>2021-10-09T07:39:24.000Z</Time>
            <Position>
              <LatitudeDegrees>39.55251722596585750579833984375</LatitudeDegrees>
              <LongitudeDegrees>-0.58900983072817325592041015625</LongitudeDegrees>
            </Position>
            <AltitudeMeters>104.1999969482421875</AltitudeMeters>
            <DistanceMeters>22595.288693557</DistanceMeters>
          </Trackpoint>
          <Trackpoint>
            <Time>2021-10-09T07:39:25.000Z</Time>
            <Position>
              <LatitudeDegrees>39.5525526814162731170654296875</LatitudeDegrees>
              <LongitudeDegrees>-0.5890900455415248870849609375</LongitudeDegrees>
            </Position>
            <AltitudeMeters>104</AltitudeMeters>
            <DistanceMeters>22603.22328195</DistanceMeters>
          </Trackpoint>
          <Trackpoint>
            <Time>2021-10-09T07:39:26.000Z</Time>
            <Position>
              <LatitudeDegrees>39.55258998088538646697998046875</LatitudeDegrees>
              <LongitudeDegrees>-0.5891718529164791107177734375</LongitudeDegrees>
            </Position>
            <AltitudeMeters>104</AltitudeMeters>
            <DistanceMeters>22611.380095251</DistanceMeters>
          </Trackpoint>
          <Trackpoint>
            <Time>2021-10-09T07:39:27.000Z</Time>
            <Position>
              <LatitudeDegrees>39.5526284538209438323974609375</LatitudeDegrees>
              <LongitudeDegrees>-0.589252822101116180419921875</LongitudeDegrees>
            </Position>
            <AltitudeMeters>104</AltitudeMeters>
            <DistanceMeters>22619.542441973</DistanceMeters>
          </Trackpoint>
          <Trackpoint>
            <Time>2021-10-09T07:39:28.000Z</Time>
            <Position>
              <LatitudeDegrees>39.552667848765850067138671875</LatitudeDegrees>
              <LongitudeDegrees>-0.5893321149051189422607421875</LongitudeDegrees>
            </Position>
            <AltitudeMeters>104</AltitudeMeters>
            <DistanceMeters>22627.638138041</DistanceMeters>
          </Trackpoint>
          <Trackpoint>
            <Time>2021-10-09T07:39:29.000Z</Time>
            <Position>
              <LatitudeDegrees>39.552710764110088348388671875</LatitudeDegrees>
              <LongitudeDegrees>-0.5894072167575359344482421875</LongitudeDegrees>
            </Position>
            <AltitudeMeters>104</AltitudeMeters>
            <DistanceMeters>22635.660441627</DistanceMeters>
          </Trackpoint>
          <Trackpoint>
            <Time>2021-10-09T07:39:30.000Z</Time>
            <Position>
              <LatitudeDegrees>39.55275292508304119110107421875</LatitudeDegrees>
              <LongitudeDegrees>-0.58948055841028690338134765625</LongitudeDegrees>
            </Position>
            <AltitudeMeters>104</AltitudeMeters>
            <DistanceMeters>22643.510936626</DistanceMeters>
          </Trackpoint>
          <Trackpoint>
            <Time>2021-10-09T07:39:31.000Z</Time>
            <Position>
              <LatitudeDegrees>39.55279516987502574920654296875</LatitudeDegrees>
              <LongitudeDegrees>-0.58955180458724498748779296875</LongitudeDegrees>
            </Position>
            <AltitudeMeters>104</AltitudeMeters>
            <DistanceMeters>22651.223922015</DistanceMeters>
          </Trackpoint>
          <Trackpoint>
            <Time>2021-10-09T07:39:32.000Z</Time>
            <Position>
              <LatitudeDegrees>39.552842192351818084716796875</LatitudeDegrees>
              <LongitudeDegrees>-0.5896238051354885101318359375</LongitudeDegrees>
            </Position>
            <AltitudeMeters>104</AltitudeMeters>
            <DistanceMeters>22659.32184861</DistanceMeters>
          </Trackpoint>
          <Trackpoint>
            <Time>2021-10-09T07:39:33.000Z</Time>
            <Position>
              <LatitudeDegrees>39.5528936572372913360595703125</LatitudeDegrees>
              <LongitudeDegrees>-0.589699409902095794677734375</LongitudeDegrees>
            </Position>
            <AltitudeMeters>104</AltitudeMeters>
            <DistanceMeters>22667.977107946</DistanceMeters>
          </Trackpoint>
          <Trackpoint>
            <Time>2021-10-09T07:39:34.000Z</Time>
            <Position>
              <LatitudeDegrees>39.55294839106500148773193359375</LatitudeDegrees>
              <LongitudeDegrees>-0.58977610431611537933349609375</LongitudeDegrees>
            </Position>
            <AltitudeMeters>103.8000030517578125</AltitudeMeters>
            <DistanceMeters>22676.945435041</DistanceMeters>
          </Trackpoint>
          <Trackpoint>
            <Time>2021-10-09T07:39:35.000Z</Time>
            <Position>
              <LatitudeDegrees>39.5530093275010585784912109375</LatitudeDegrees>
              <LongitudeDegrees>-0.589852966368198394775390625</LongitudeDegrees>
            </Position>
            <AltitudeMeters>103.8000030517578125</AltitudeMeters>
            <DistanceMeters>22686.406202331</DistanceMeters>
          </Trackpoint>
          <Trackpoint>
            <Time>2021-10-09T07:39:36.000Z</Time>
            <Position>
              <LatitudeDegrees>39.55307629890739917755126953125</LatitudeDegrees>
              <LongitudeDegrees>-0.5899262242019176483154296875</LongitudeDegrees>
            </Position>
            <AltitudeMeters>103.8000030517578125</AltitudeMeters>
            <DistanceMeters>22696.157443532</DistanceMeters>
          </Trackpoint>
          <Trackpoint>
            <Time>2021-10-09T07:39:37.000Z</Time>
            <Position>
              <LatitudeDegrees>39.55314871855080127716064453125</LatitudeDegrees>
              <LongitudeDegrees>-0.5899889208376407623291015625</LongitudeDegrees>
            </Position>
            <AltitudeMeters>103.59999847412109375</AltitudeMeters>
            <DistanceMeters>22705.848304949</DistanceMeters>
          </Trackpoint>
          <Trackpoint>
            <Time>2021-10-09T07:39:38.000Z</Time>
            <Position>
              <LatitudeDegrees>39.55321962945163249969482421875</LatitudeDegrees>
              <LongitudeDegrees>-0.59005555696785449981689453125</LongitudeDegrees>
            </Position>
            <AltitudeMeters>103.40000152587890625</AltitudeMeters>
            <DistanceMeters>22715.594914831</DistanceMeters>
          </Trackpoint>
          <Trackpoint>
            <Time>2021-10-09T07:39:39.000Z</Time>
            <Position>
              <LatitudeDegrees>39.55328986980020999908447265625</LatitudeDegrees>
              <LongitudeDegrees>-0.59012797661125659942626953125</LongitudeDegrees>
            </Position>
            <AltitudeMeters>103.1999969482421875</AltitudeMeters>
            <DistanceMeters>22725.582217991</DistanceMeters>
          </Trackpoint>
          <Trackpoint>
            <Time>2021-10-09T07:39:40.000Z</Time>
            <Position>
              <LatitudeDegrees>39.5533590205013751983642578125</LatitudeDegrees>
              <LongitudeDegrees>-0.59020156972110271453857421875</LongitudeDegrees>
            </Position>
            <AltitudeMeters>103.1999969482421875</AltitudeMeters>
            <DistanceMeters>22735.538278915</DistanceMeters>
          </Trackpoint>
          <Trackpoint>
            <Time>2021-10-09T07:39:41.000Z</Time>
            <Position>
              <LatitudeDegrees>39.55342750065028667449951171875</LatitudeDegrees>
              <LongitudeDegrees>-0.590275414288043975830078125</LongitudeDegrees>
            </Position>
            <AltitudeMeters>103.1999969482421875</AltitudeMeters>
            <DistanceMeters>22745.450253073</DistanceMeters>
          </Trackpoint>
          <Trackpoint>
            <Time>2021-10-09T07:39:42.000Z</Time>
            <Position>
              <LatitudeDegrees>39.55349405296146869659423828125</LatitudeDegrees>
              <LongitudeDegrees>-0.59034640900790691375732421875</LongitudeDegrees>
            </Position>
            <AltitudeMeters>103.1999969482421875</AltitudeMeters>
            <DistanceMeters>22755.041362953</DistanceMeters>
          </Trackpoint>
          <Trackpoint>
            <Time>2021-10-09T07:39:43.000Z</Time>
            <Position>
              <LatitudeDegrees>39.55355943180620670318603515625</LatitudeDegrees>
              <LongitudeDegrees>-0.5904180742800235748291015625</LongitudeDegrees>
            </Position>
            <AltitudeMeters>103</AltitudeMeters>
            <DistanceMeters>22764.5687093</DistanceMeters>
          </Trackpoint>
          <Trackpoint>
            <Time>2021-10-09T07:39:44.000Z</Time>
            <Position>
              <LatitudeDegrees>39.55362531356513500213623046875</LatitudeDegrees>
              <LongitudeDegrees>-0.59048789553344249725341796875</LongitudeDegrees>
            </Position>
            <AltitudeMeters>103</AltitudeMeters>
            <DistanceMeters>22774.038539772</DistanceMeters>
          </Trackpoint>
          <Trackpoint>
            <Time>2021-10-09T07:39:45.000Z</Time>
            <Position>
              <LatitudeDegrees>39.55369153060019016265869140625</LatitudeDegrees>
              <LongitudeDegrees>-0.59055914171040058135986328125</LongitudeDegrees>
            </Position>
            <AltitudeMeters>103</AltitudeMeters>
            <DistanceMeters>22783.615045208</DistanceMeters>
          </Trackpoint>
          <Trackpoint>
            <Time>2021-10-09T07:39:46.000Z</Time>
            <Position>
              <LatitudeDegrees>39.55375850200653076171875</LatitudeDegrees>
              <LongitudeDegrees>-0.59063248336315155029296875</LongitudeDegrees>
            </Position>
            <AltitudeMeters>103</AltitudeMeters>
            <DistanceMeters>22793.37137832</DistanceMeters>
          </Trackpoint>
          <Trackpoint>
            <Time>2021-10-09T07:39:47.000Z</Time>
            <Position>
              <LatitudeDegrees>39.55382480286061763763427734375</LatitudeDegrees>
              <LongitudeDegrees>-0.5907067470252513885498046875</LongitudeDegrees>
            </Position>
            <AltitudeMeters>103</AltitudeMeters>
            <DistanceMeters>22803.122619521</DistanceMeters>
          </Trackpoint>
          <Trackpoint>
            <Time>2021-10-09T07:39:48.000Z</Time>
            <Position>
              <LatitudeDegrees>39.55389118753373622894287109375</LatitudeDegrees>
              <LongitudeDegrees>-0.5907793343067169189453125</LongitudeDegrees>
            </Position>
            <AltitudeMeters>103</AltitudeMeters>
            <DistanceMeters>22812.786420563</DistanceMeters>
          </Trackpoint>
          <Trackpoint>
            <Time>2021-10-09T07:39:49.000Z</Time>
            <Position>
              <LatitudeDegrees>39.5539571531116962432861328125</LatitudeDegrees>
              <LongitudeDegrees>-0.59085032902657985687255859375</LongitudeDegrees>
            </Position>
            <AltitudeMeters>102.8000030517578125</AltitudeMeters>
            <DistanceMeters>22822.3275002</DistanceMeters>
          </Trackpoint>
          <Trackpoint>
            <Time>2021-10-09T07:39:50.000Z</Time>
            <Position>
              <LatitudeDegrees>39.5540225319564342498779296875</LatitudeDegrees>
              <LongitudeDegrees>-0.590920150279998779296875</LongitudeDegrees>
            </Position>
            <AltitudeMeters>102.8000030517578125</AltitudeMeters>
            <DistanceMeters>22831.753843722</DistanceMeters>
          </Trackpoint>
          <Trackpoint>
            <Time>2021-10-09T07:39:51.000Z</Time>
            <Position>
              <LatitudeDegrees>39.554088413715362548828125</LatitudeDegrees>
              <LongitudeDegrees>-0.5909890495240688323974609375</LongitudeDegrees>
            </Position>
            <AltitudeMeters>102.8000030517578125</AltitudeMeters>
            <DistanceMeters>22841.172520433</DistanceMeters>
          </Trackpoint>
          <Trackpoint>
            <Time>2021-10-09T07:39:52.000Z</Time>
            <Position>
              <LatitudeDegrees>39.55415287055075168609619140625</LatitudeDegrees>
              <LongitudeDegrees>-0.591059960424900054931640625</LongitudeDegrees>
            </Position>
            <AltitudeMeters>102.8000030517578125</AltitudeMeters>
            <DistanceMeters>22850.579685211</DistanceMeters>
          </Trackpoint>
          <Trackpoint>
            <Time>2021-10-09T07:39:53.000Z</Time>
            <Position>
              <LatitudeDegrees>39.55421783030033111572265625</LatitudeDegrees>
              <LongitudeDegrees>-0.59112944640219211578369140625</LongitudeDegrees>
            </Position>
            <AltitudeMeters>102.8000030517578125</AltitudeMeters>
            <DistanceMeters>22859.951747608</DistanceMeters>
          </Trackpoint>
          <Trackpoint>
            <Time>2021-10-09T07:39:54.000Z</Time>
            <Position>
              <LatitudeDegrees>39.55428220331668853759765625</LatitudeDegrees>
              <LongitudeDegrees>-0.5911977589130401611328125</LongitudeDegrees>
            </Position>
            <AltitudeMeters>102.59999847412109375</AltitudeMeters>
            <DistanceMeters>22869.2094177</DistanceMeters>
          </Trackpoint>
          <Trackpoint>
            <Time>2021-10-09T07:39:55.000Z</Time>
            <Position>
              <LatitudeDegrees>39.55434565432369709014892578125</LatitudeDegrees>
              <LongitudeDegrees>-0.59126556850969791412353515625</LongitudeDegrees>
            </Position>
            <AltitudeMeters>102.59999847412109375</AltitudeMeters>
            <DistanceMeters>22878.360149849</DistanceMeters>
          </Trackpoint>
          <Trackpoint>
            <Time>2021-10-09T07:39:56.000Z</Time>
            <Position>
              <LatitudeDegrees>39.5544101111590862274169921875</LatitudeDegrees>
              <LongitudeDegrees>-0.5913343839347362518310546875</LongitudeDegrees>
            </Position>
            <AltitudeMeters>102.59999847412109375</AltitudeMeters>
            <DistanceMeters>22887.652382678</DistanceMeters>
          </Trackpoint>
          <Trackpoint>
            <Time>2021-10-09T07:39:57.000Z</Time>
            <Position>
              <LatitudeDegrees>39.5544734783470630645751953125</LatitudeDegrees>
              <LongitudeDegrees>-0.5914037860929965972900390625</LongitudeDegrees>
            </Position>
            <AltitudeMeters>102.40000152587890625</AltitudeMeters>
            <DistanceMeters>22896.883678979</DistanceMeters>
          </Trackpoint>
          <Trackpoint>
            <Time>2021-10-09T07:39:58.000Z</Time>
            <Position>
              <LatitudeDegrees>39.55453827045857906341552734375</LatitudeDegrees>
              <LongitudeDegrees>-0.59147377498447895050048828125</LongitudeDegrees>
            </Position>
            <AltitudeMeters>102.40000152587890625</AltitudeMeters>
            <DistanceMeters>22906.268739748</DistanceMeters>
          </Trackpoint>
          <Trackpoint>
            <Time>2021-10-09T07:39:59.000Z</Time>
            <Position>
              <LatitudeDegrees>39.55460163764655590057373046875</LatitudeDegrees>
              <LongitudeDegrees>-0.5915432609617710113525390625</LongitudeDegrees>
            </Position>
            <AltitudeMeters>102.1999969482421875</AltitudeMeters>
            <DistanceMeters>22915.504925767</DistanceMeters>
          </Trackpoint>
          <Trackpoint>
            <Time>2021-10-09T07:40:00.000Z</Time>
            <Position>
              <LatitudeDegrees>39.5546655915677547454833984375</LatitudeDegrees>
              <LongitudeDegrees>-0.5916126631200313568115234375</LongitudeDegrees>
            </Position>
            <AltitudeMeters>102.1999969482421875</AltitudeMeters>
            <DistanceMeters>22924.786462777</DistanceMeters>
          </Trackpoint>
          <Trackpoint>
            <Time>2021-10-09T07:40:01.000Z</Time>
            <Position>
              <LatitudeDegrees>39.55473004840314388275146484375</LatitudeDegrees>
              <LongitudeDegrees>-0.59168122708797454833984375</LongitudeDegrees>
            </Position>
            <AltitudeMeters>102.1999969482421875</AltitudeMeters>
            <DistanceMeters>22934.065080606</DistanceMeters>
          </Trackpoint>
          <Trackpoint>
            <Time>2021-10-09T07:40:02.000Z</Time>
            <Position>
              <LatitudeDegrees>39.55479308031499385833740234375</LatitudeDegrees>
              <LongitudeDegrees>-0.59175071306526660919189453125</LongitudeDegrees>
            </Position>
            <AltitudeMeters>102.1999969482421875</AltitudeMeters>
            <DistanceMeters>22943.272379757</DistanceMeters>
          </Trackpoint>
          <Trackpoint>
            <Time>2021-10-09T07:40:03.000Z</Time>
            <Position>
              <LatitudeDegrees>39.5548560284078121185302734375</LatitudeDegrees>
              <LongitudeDegrees>-0.59182061813771724700927734375</LongitudeDegrees>
            </Position>
            <AltitudeMeters>102.1999969482421875</AltitudeMeters>
            <DistanceMeters>22952.496336622</DistanceMeters>
          </Trackpoint>
          <Trackpoint>
            <Time>2021-10-09T07:40:04.000Z</Time>
            <Position>
              <LatitudeDegrees>39.5549183897674083709716796875</LatitudeDegrees>
              <LongitudeDegrees>-0.5918899364769458770751953125</LongitudeDegrees>
            </Position>
            <AltitudeMeters>102</AltitudeMeters>
            <DistanceMeters>22961.637689225</DistanceMeters>
          </Trackpoint>
          <Trackpoint>
            <Time>2021-10-09T07:40:05.000Z</Time>
            <Position>
              <LatitudeDegrees>39.55498251132667064666748046875</LatitudeDegrees>
              <LongitudeDegrees>-0.59195791371166706085205078125</LongitudeDegrees>
            </Position>
            <AltitudeMeters>102</AltitudeMeters>
            <DistanceMeters>22970.85430081</DistanceMeters>
          </Trackpoint>
          <Trackpoint>
            <Time>2021-10-09T07:40:06.000Z</Time>
            <Position>
              <LatitudeDegrees>39.55504604615271091461181640625</LatitudeDegrees>
              <LongitudeDegrees>-0.59202547185122966766357421875</LongitudeDegrees>
            </Position>
            <AltitudeMeters>102</AltitudeMeters>
            <DistanceMeters>22979.998616415</DistanceMeters>
          </Trackpoint>
          <Trackpoint>
            <Time>2021-10-09T07:40:07.000Z</Time>
            <Position>
              <LatitudeDegrees>39.5551084913313388824462890625</LatitudeDegrees>
              <LongitudeDegrees>-0.59209286235272884368896484375</LongitudeDegrees>
            </Position>
            <AltitudeMeters>102</AltitudeMeters>
            <DistanceMeters>22989.040147372</DistanceMeters>
          </Trackpoint>
          <Trackpoint>
            <Time>2021-10-09T07:40:08.000Z</Time>
            <Position>
              <LatitudeDegrees>39.55516976304352283477783203125</LatitudeDegrees>
              <LongitudeDegrees>-0.59216000139713287353515625</LongitudeDegrees>
            </Position>
            <AltitudeMeters>102</AltitudeMeters>
            <DistanceMeters>22997.967602479</DistanceMeters>
          </Trackpoint>
          <Trackpoint>
            <Time>2021-10-09T07:40:09.000Z</Time>
            <Position>
              <LatitudeDegrees>39.5552305318415164947509765625</LatitudeDegrees>
              <LongitudeDegrees>-0.59222630225121974945068359375</LongitudeDegrees>
            </Position>
            <AltitudeMeters>101.8000030517578125</AltitudeMeters>
            <DistanceMeters>23006.806619472</DistanceMeters>
          </Trackpoint>
          <Trackpoint>
            <Time>2021-10-09T07:40:10.000Z</Time>
            <Position>
              <LatitudeDegrees>39.55529130063951015472412109375</LatitudeDegrees>
              <LongitudeDegrees>-0.59229142963886260986328125</LongitudeDegrees>
            </Position>
            <AltitudeMeters>101.8000030517578125</AltitudeMeters>
            <DistanceMeters>23015.581038641</DistanceMeters>
          </Trackpoint>
          <Trackpoint>
            <Time>2021-10-09T07:40:11.000Z</Time>
            <Position>
              <LatitudeDegrees>39.555352069437503814697265625</LatitudeDegrees>
              <LongitudeDegrees>-0.5923569761216640472412109375</LongitudeDegrees>
            </Position>
            <AltitudeMeters>101.8000030517578125</AltitudeMeters>
            <DistanceMeters>23024.378069681</DistanceMeters>
          </Trackpoint>
          <Trackpoint>
            <Time>2021-10-09T07:40:12.000Z</Time>
            <Position>
              <LatitudeDegrees>39.5554122515022754669189453125</LatitudeDegrees>
              <LongitudeDegrees>-0.59242361225187778472900390625</LongitudeDegrees>
            </Position>
            <AltitudeMeters>101.8000030517578125</AltitudeMeters>
            <DistanceMeters>23033.185359653</DistanceMeters>
          </Trackpoint>
          <Trackpoint>
            <Time>2021-10-09T07:40:13.000Z</Time>
            <Position>
              <LatitudeDegrees>39.55547251738607883453369140625</LatitudeDegrees>
              <LongitudeDegrees>-0.59248748235404491424560546875</LongitudeDegrees>
            </Position>
            <AltitudeMeters>101.59999847412109375</AltitudeMeters>
            <DistanceMeters>23041.847919047</DistanceMeters>
          </Trackpoint>
          <Trackpoint>
            <Time>2021-10-09T07:40:14.000Z</Time>
            <Position>
              <LatitudeDegrees>39.55553370527923107147216796875</LatitudeDegrees>
              <LongitudeDegrees>-0.59255302883684635162353515625</LongitudeDegrees>
            </Position>
            <AltitudeMeters>101.59999847412109375</AltitudeMeters>
            <DistanceMeters>23050.68080422</DistanceMeters>
          </Trackpoint>
          <Trackpoint>
            <Time>2021-10-09T07:40:15.000Z</Time>
            <Position>
              <LatitudeDegrees>39.55559439025819301605224609375</LatitudeDegrees>
              <LongitudeDegrees>-0.592620670795440673828125</LongitudeDegrees>
            </Position>
            <AltitudeMeters>101.59999847412109375</AltitudeMeters>
            <DistanceMeters>23059.586992601</DistanceMeters>
          </Trackpoint>
          <Trackpoint>
            <Time>2021-10-09T07:40:16.000Z</Time>
            <Position>
              <LatitudeDegrees>39.55565549433231353759765625</LatitudeDegrees>
              <LongitudeDegrees>-0.59268697164952754974365234375</LongitudeDegrees>
            </Position>
            <AltitudeMeters>101.59999847412109375</AltitudeMeters>
            <DistanceMeters>23068.454059512</DistanceMeters>
          </Trackpoint>
          <Trackpoint>
            <Time>2021-10-09T07:40:17.000Z</Time>
            <Position>
              <LatitudeDegrees>39.55571659840643405914306640625</LatitudeDegrees>
              <LongitudeDegrees>-0.5927534401416778564453125</LongitudeDegrees>
            </Position>
            <AltitudeMeters>101.40000152587890625</AltitudeMeters>
            <DistanceMeters>23077.330795796</DistanceMeters>
          </Trackpoint>
          <Trackpoint>
            <Time>2021-10-09T07:40:18.000Z</Time>
            <Position>
              <LatitudeDegrees>39.5557777024805545806884765625</LatitudeDegrees>
              <LongitudeDegrees>-0.59282057918608188629150390625</LongitudeDegrees>
            </Position>
            <AltitudeMeters>101.40000152587890625</AltitudeMeters>
            <DistanceMeters>23086.244078724</DistanceMeters>
          </Trackpoint>
          <Trackpoint>
            <Time>2021-10-09T07:40:19.000Z</Time>
            <Position>
              <LatitudeDegrees>39.5558373816311359405517578125</LatitudeDegrees>
              <LongitudeDegrees>-0.59288545511662960052490234375</LongitudeDegrees>
            </Position>
            <AltitudeMeters>101.40000152587890625</AltitudeMeters>
            <DistanceMeters>23094.910806818</DistanceMeters>
          </Trackpoint>
          <Trackpoint>
            <Time>2021-10-09T07:40:20.000Z</Time>
            <Position>
              <LatitudeDegrees>39.55589714460074901580810546875</LatitudeDegrees>
              <LongitudeDegrees>-0.592950917780399322509765625</LongitudeDegrees>
            </Position>
            <AltitudeMeters>101.40000152587890625</AltitudeMeters>
            <DistanceMeters>23103.617556599</DistanceMeters>
          </Trackpoint>
          <Trackpoint>
            <Time>2021-10-09T07:40:21.000Z</Time>
            <Position>
              <LatitudeDegrees>39.55595548264682292938232421875</LatitudeDegrees>
              <LongitudeDegrees>-0.5930149555206298828125</LongitudeDegrees>
            </Position>
            <AltitudeMeters>101.40000152587890625</AltitudeMeters>
            <DistanceMeters>23112.123376516</DistanceMeters>
          </Trackpoint>
          <Trackpoint>
            <Time>2021-10-09T07:40:22.000Z</Time>
            <Position>
              <LatitudeDegrees>39.55601465888321399688720703125</LatitudeDegrees>
              <LongitudeDegrees>-0.59307857416570186614990234375</LongitudeDegrees>
            </Position>
            <AltitudeMeters>101.40000152587890625</AltitudeMeters>
            <DistanceMeters>23120.677892254</DistanceMeters>
          </Trackpoint>
          <Trackpoint>
            <Time>2021-10-09T07:40:23.000Z</Time>
            <Position>
              <LatitudeDegrees>39.55607232637703418731689453125</LatitudeDegrees>
              <LongitudeDegrees>-0.59314194135367870330810546875</LongitudeDegrees>
            </Position>
            <AltitudeMeters>101.40000152587890625</AltitudeMeters>
            <DistanceMeters>23129.090842935</DistanceMeters>
          </Trackpoint>
          <Trackpoint>
            <Time>2021-10-09T07:40:24.000Z</Time>
            <Position>
              <LatitudeDegrees>39.5561294071376323699951171875</LatitudeDegrees>
              <LongitudeDegrees>-0.59320296160876750946044921875</LongitudeDegrees>
            </Position>
            <AltitudeMeters>101.40000152587890625</AltitudeMeters>
            <DistanceMeters>23137.323688967</DistanceMeters>
          </Trackpoint>
          <Trackpoint>
            <Time>2021-10-09T07:40:25.000Z</Time>
            <Position>
              <LatitudeDegrees>39.5561872422695159912109375</LatitudeDegrees>
              <LongitudeDegrees>-0.5932645685970783233642578125</LongitudeDegrees>
            </Position>
            <AltitudeMeters>101.1999969482421875</AltitudeMeters>
            <DistanceMeters>23145.653581367</DistanceMeters>
          </Trackpoint>
          <Trackpoint>
            <Time>2021-10-09T07:40:26.000Z</Time>
            <Position>
              <LatitudeDegrees>39.55624331720173358917236328125</LatitudeDegrees>
              <LongitudeDegrees>-0.59332408010959625244140625</LongitudeDegrees>
            </Position>
            <AltitudeMeters>101.1999969482421875</AltitudeMeters>
            <DistanceMeters>23153.717985285</DistanceMeters>
          </Trackpoint>
          <Trackpoint>
            <Time>2021-10-09T07:40:27.000Z</Time>
            <Position>
              <LatitudeDegrees>39.556298889219760894775390625</LatitudeDegrees>
              <LongitudeDegrees>-0.5933832563459873199462890625</LongitudeDegrees>
            </Position>
            <AltitudeMeters>101.40000152587890625</AltitudeMeters>
            <DistanceMeters>23161.72113043</DistanceMeters>
          </Trackpoint>
          <Trackpoint>
            <Time>2021-10-09T07:40:28.000Z</Time>
            <Position>
              <LatitudeDegrees>39.55635362304747104644775390625</LatitudeDegrees>
              <LongitudeDegrees>-0.5934429354965686798095703125</LongitudeDegrees>
            </Position>
            <AltitudeMeters>101.59999847412109375</AltitudeMeters>
            <DistanceMeters>23169.679582301</DistanceMeters>
          </Trackpoint>
          <Trackpoint>
            <Time>2021-10-09T07:40:29.000Z</Time>
            <Position>
              <LatitudeDegrees>39.55640609376132488250732421875</LatitudeDegrees>
              <LongitudeDegrees>-0.593500770628452301025390625</LongitudeDegrees>
            </Position>
            <AltitudeMeters>101.59999847412109375</AltitudeMeters>
            <DistanceMeters>23177.344416112</DistanceMeters>
          </Trackpoint>
          <Trackpoint>
            <Time>2021-10-09T07:40:30.000Z</Time>
            <Position>
              <LatitudeDegrees>39.55645739100873470306396484375</LatitudeDegrees>
              <LongitudeDegrees>-0.593559108674526214599609375</LongitudeDegrees>
            </Position>
            <AltitudeMeters>101.8000030517578125</AltitudeMeters>
            <DistanceMeters>23184.938233872</DistanceMeters>
          </Trackpoint>
          <Trackpoint>
            <Time>2021-10-09T07:40:31.000Z</Time>
            <Position>
              <LatitudeDegrees>39.5565122924745082855224609375</LatitudeDegrees>
              <LongitudeDegrees>-0.5936159379780292510986328125</LongitudeDegrees>
            </Position>
            <AltitudeMeters>101.8000030517578125</AltitudeMeters>
            <DistanceMeters>23192.756455373</DistanceMeters>
          </Trackpoint>
          <Trackpoint>
            <Time>2021-10-09T07:40:32.000Z</Time>
            <Position>
              <LatitudeDegrees>39.556566774845123291015625</LatitudeDegrees>
              <LongitudeDegrees>-0.593672432005405426025390625</LongitudeDegrees>
            </Position>
            <AltitudeMeters>101.8000030517578125</AltitudeMeters>
            <DistanceMeters>23200.519620333</DistanceMeters>
          </Trackpoint>
          <Trackpoint>
            <Time>2021-10-09T07:40:33.000Z</Time>
            <Position>
              <LatitudeDegrees>39.55662117339670658111572265625</LatitudeDegrees>
              <LongitudeDegrees>-0.59372867457568645477294921875</LongitudeDegrees>
            </Position>
            <AltitudeMeters>101.8000030517578125</AltitudeMeters>
            <DistanceMeters>23208.262985724</DistanceMeters>
          </Trackpoint>
          <Trackpoint>
            <Time>2021-10-09T07:40:34.000Z</Time>
            <Position>
              <LatitudeDegrees>39.5566759072244167327880859375</LatitudeDegrees>
              <LongitudeDegrees>-0.5937855876982212066650390625</LongitudeDegrees>
            </Position>
            <AltitudeMeters>101.8000030517578125</AltitudeMeters>
            <DistanceMeters>23216.071383521</DistanceMeters>
          </Trackpoint>
          <Trackpoint>
            <Time>2021-10-09T07:40:35.000Z</Time>
            <Position>
              <LatitudeDegrees>39.556730054318904876708984375</LatitudeDegrees>
              <LongitudeDegrees>-0.59384367428719997406005859375</LongitudeDegrees>
            </Position>
            <AltitudeMeters>102</AltitudeMeters>
            <DistanceMeters>23223.892491999</DistanceMeters>
          </Trackpoint>
          <Trackpoint>
            <Time>2021-10-09T07:40:36.000Z</Time>
            <Position>
              <LatitudeDegrees>39.55678277648985385894775390625</LatitudeDegrees>
              <LongitudeDegrees>-0.59390343725681304931640625</LongitudeDegrees>
            </Position>
            <AltitudeMeters>102</AltitudeMeters>
            <DistanceMeters>23231.685841354</DistanceMeters>
          </Trackpoint>
          <Trackpoint>
            <Time>2021-10-09T07:40:37.000Z</Time>
            <Position>
              <LatitudeDegrees>39.556836672127246856689453125</LatitudeDegrees>
              <LongitudeDegrees>-0.5939619429409503936767578125</LongitudeDegrees>
            </Position>
            <AltitudeMeters>102</AltitudeMeters>
            <DistanceMeters>23239.508104325</DistanceMeters>
          </Trackpoint>
          <Trackpoint>
            <Time>2021-10-09T07:40:38.000Z</Time>
            <Position>
              <LatitudeDegrees>39.55689140595495700836181640625</LatitudeDegrees>
              <LongitudeDegrees>-0.5940194427967071533203125</LongitudeDegrees>
            </Position>
            <AltitudeMeters>102</AltitudeMeters>
            <DistanceMeters>23247.347664279</DistanceMeters>
          </Trackpoint>
          <Trackpoint>
            <Time>2021-10-09T07:40:39.000Z</Time>
            <Position>
              <LatitudeDegrees>39.55694370903074741363525390625</LatitudeDegrees>
              <LongitudeDegrees>-0.5940786190330982208251953125</LongitudeDegrees>
            </Position>
            <AltitudeMeters>102.1999969482421875</AltitudeMeters>
            <DistanceMeters>23255.072932897</DistanceMeters>
          </Trackpoint>
          <Trackpoint>
            <Time>2021-10-09T07:40:40.000Z</Time>
            <Position>
              <LatitudeDegrees>39.55699651502072811126708984375</LatitudeDegrees>
              <LongitudeDegrees>-0.5941356159746646881103515625</LongitudeDegrees>
            </Position>
            <AltitudeMeters>102.1999969482421875</AltitudeMeters>
            <DistanceMeters>23262.718893588</DistanceMeters>
          </Trackpoint>
          <Trackpoint>
            <Time>2021-10-09T07:40:41.000Z</Time>
            <Position>
              <LatitudeDegrees>39.5570483990013599395751953125</LatitudeDegrees>
              <LongitudeDegrees>-0.594192780554294586181640625</LongitudeDegrees>
            </Position>
            <AltitudeMeters>102.1999969482421875</AltitudeMeters>
            <DistanceMeters>23270.296045166</DistanceMeters>
          </Trackpoint>
          <Trackpoint>
            <Time>2021-10-09T07:40:42.000Z</Time>
            <Position>
              <LatitudeDegrees>39.55710011534392833709716796875</LatitudeDegrees>
              <LongitudeDegrees>-0.59424885548651218414306640625</LongitudeDegrees>
            </Position>
            <AltitudeMeters>102.1999969482421875</AltitudeMeters>
            <DistanceMeters>23277.798944376</DistanceMeters>
          </Trackpoint>
          <Trackpoint>
            <Time>2021-10-09T07:40:43.000Z</Time>
            <Position>
              <LatitudeDegrees>39.5571519993245601654052734375</LatitudeDegrees>
              <LongitudeDegrees>-0.59430501423776149749755859375</LongitudeDegrees>
            </Position>
            <AltitudeMeters>102.1999969482421875</AltitudeMeters>
            <DistanceMeters>23285.319875092</DistanceMeters>
          </Trackpoint>
          <Trackpoint>
            <Time>2021-10-09T07:40:44.000Z</Time>
            <Position>
              <LatitudeDegrees>39.5572029612958431243896484375</LatitudeDegrees>
              <LongitudeDegrees>-0.5943595804274082183837890625</LongitudeDegrees>
            </Position>
            <AltitudeMeters>102.1999969482421875</AltitudeMeters>
            <DistanceMeters>23292.67447623</DistanceMeters>
          </Trackpoint>
          <Trackpoint>
            <Time>2021-10-09T07:40:45.000Z</Time>
            <Position>
              <LatitudeDegrees>39.55725467763841152191162109375</LatitudeDegrees>
              <LongitudeDegrees>-0.5944125540554523468017578125</LongitudeDegrees>
            </Position>
            <AltitudeMeters>102.1999969482421875</AltitudeMeters>
            <DistanceMeters>23300.00940605</DistanceMeters>
          </Trackpoint>
          <Trackpoint>
            <Time>2021-10-09T07:40:46.000Z</Time>
            <Position>
              <LatitudeDegrees>39.55730698071420192718505859375</LatitudeDegrees>
              <LongitudeDegrees>-0.594465695321559906005859375</LongitudeDegrees>
            </Position>
            <AltitudeMeters>102.1999969482421875</AltitudeMeters>
            <DistanceMeters>23307.403803447</DistanceMeters>
          </Trackpoint>
          <Trackpoint>
            <Time>2021-10-09T07:40:47.000Z</Time>
            <Position>
              <LatitudeDegrees>39.55736045725643634796142578125</LatitudeDegrees>
              <LongitudeDegrees>-0.59451757930219173431396484375</LongitudeDegrees>
            </Position>
            <AltitudeMeters>102.40000152587890625</AltitudeMeters>
            <DistanceMeters>23314.836569264</DistanceMeters>
          </Trackpoint>
          <Trackpoint>
            <Time>2021-10-09T07:40:48.000Z</Time>
            <Position>
              <LatitudeDegrees>39.55741460435092449188232421875</LatitudeDegrees>
              <LongitudeDegrees>-0.59456820599734783172607421875</LongitudeDegrees>
            </Position>
            <AltitudeMeters>102.40000152587890625</AltitudeMeters>
            <DistanceMeters>23322.265689482</DistanceMeters>
          </Trackpoint>
          <Trackpoint>
            <Time>2021-10-09T07:40:49.000Z</Time>
            <Position>
              <LatitudeDegrees>39.5574695058166980743408203125</LatitudeDegrees>
              <LongitudeDegrees>-0.5946167372167110443115234375</LongitudeDegrees>
            </Position>
            <AltitudeMeters>102.59999847412109375</AltitudeMeters>
            <DistanceMeters>23329.660697457</DistanceMeters>
          </Trackpoint>
          <Trackpoint>
            <Time>2021-10-09T07:40:50.000Z</Time>
            <Position>
              <LatitudeDegrees>39.55752658657729625701904296875</LatitudeDegrees>
              <LongitudeDegrees>-0.59466183185577392578125</LongitudeDegrees>
            </Position>
            <AltitudeMeters>102.59999847412109375</AltitudeMeters>
            <DistanceMeters>23337.0995353</DistanceMeters>
          </Trackpoint>
          <Trackpoint>
            <Time>2021-10-09T07:40:51.000Z</Time>
            <Position>
              <LatitudeDegrees>39.5575858466327190399169921875</LatitudeDegrees>
              <LongitudeDegrees>-0.5947032384574413299560546875</LongitudeDegrees>
            </Position>
            <AltitudeMeters>102.59999847412109375</AltitudeMeters>
            <DistanceMeters>23344.591594774</DistanceMeters>
          </Trackpoint>
          <Trackpoint>
            <Time>2021-10-09T07:40:52.000Z</Time>
            <Position>
              <LatitudeDegrees>39.55764795653522014617919921875</LatitudeDegrees>
              <LongitudeDegrees>-0.59474288485944271087646484375</LongitudeDegrees>
            </Position>
            <AltitudeMeters>102.59999847412109375</AltitudeMeters>
            <DistanceMeters>23352.296380465</DistanceMeters>
          </Trackpoint>
          <Trackpoint>
            <Time>2021-10-09T07:40:53.000Z</Time>
            <Position>
              <LatitudeDegrees>39.55771274864673614501953125</LatitudeDegrees>
              <LongitudeDegrees>-0.5947820283472537994384765625</LongitudeDegrees>
            </Position>
            <AltitudeMeters>102.8000030517578125</AltitudeMeters>
            <DistanceMeters>23360.251427651</DistanceMeters>
          </Trackpoint>
          <Trackpoint>
            <Time>2021-10-09T07:40:54.000Z</Time>
            <Position>
              <LatitudeDegrees>39.55777972005307674407958984375</LatitudeDegrees>
              <LongitudeDegrees>-0.59481882490217685699462890625</LongitudeDegrees>
            </Position>
            <AltitudeMeters>102.8000030517578125</AltitudeMeters>
            <DistanceMeters>23368.346565991</DistanceMeters>
          </Trackpoint>
          <Trackpoint>
            <Time>2021-10-09T07:40:55.000Z</Time>
            <Position>
              <LatitudeDegrees>39.55784744583070278167724609375</LatitudeDegrees>
              <LongitudeDegrees>-0.5948531068861484527587890625</LongitudeDegrees>
            </Position>
            <AltitudeMeters>102.8000030517578125</AltitudeMeters>
            <DistanceMeters>23376.437799162</DistanceMeters>
          </Trackpoint>
          <Trackpoint>
            <Time>2021-10-09T07:40:56.000Z</Time>
            <Position>
              <LatitudeDegrees>39.55791584216058254241943359375</LatitudeDegrees>
              <LongitudeDegrees>-0.594883449375629425048828125</LongitudeDegrees>
            </Position>
            <AltitudeMeters>102.59999847412109375</AltitudeMeters>
            <DistanceMeters>23384.483144894</DistanceMeters>
          </Trackpoint>
          <Trackpoint>
            <Time>2021-10-09T07:40:57.000Z</Time>
            <Position>
              <LatitudeDegrees>39.5579858310520648956298828125</LatitudeDegrees>
              <LongitudeDegrees>-0.59491286985576152801513671875</LongitudeDegrees>
            </Position>
            <AltitudeMeters>102.59999847412109375</AltitudeMeters>
            <DistanceMeters>23392.671999983</DistanceMeters>
          </Trackpoint>
          <Trackpoint>
            <Time>2021-10-09T07:40:58.000Z</Time>
            <Position>
              <LatitudeDegrees>39.5580575801432132720947265625</LatitudeDegrees>
              <LongitudeDegrees>-0.59494270943105220794677734375</LongitudeDegrees>
            </Position>
            <AltitudeMeters>102.59999847412109375</AltitudeMeters>
            <DistanceMeters>23401.058612256</DistanceMeters>
          </Trackpoint>
          <Trackpoint>
            <Time>2021-10-09T07:40:59.000Z</Time>
            <Position>
              <LatitudeDegrees>39.55813025124371051788330078125</LatitudeDegrees>
              <LongitudeDegrees>-0.59497238136827945709228515625</LongitudeDegrees>
            </Position>
            <AltitudeMeters>102.59999847412109375</AltitudeMeters>
            <DistanceMeters>23409.538382225</DistanceMeters>
          </Trackpoint>
          <Trackpoint>
            <Time>2021-10-09T07:41:00.000Z</Time>
            <Position>
              <LatitudeDegrees>39.5582037605345249176025390625</LatitudeDegrees>
              <LongitudeDegrees>-0.59500389732420444488525390625</LongitudeDegrees>
            </Position>
            <AltitudeMeters>102.59999847412109375</AltitudeMeters>
            <DistanceMeters>23418.155476782</DistanceMeters>
          </Trackpoint>
          <Trackpoint>
            <Time>2021-10-09T07:41:01.000Z</Time>
            <Position>
              <LatitudeDegrees>39.55827760510146617889404296875</LatitudeDegrees>
              <LongitudeDegrees>-0.59503440745174884796142578125</LongitudeDegrees>
            </Position>
            <AltitudeMeters>102.59999847412109375</AltitudeMeters>
            <DistanceMeters>23426.78147411</DistanceMeters>
          </Trackpoint>
          <Trackpoint>
            <Time>2021-10-09T07:41:02.000Z</Time>
            <Position>
              <LatitudeDegrees>39.55835186876356601715087890625</LatitudeDegrees>
              <LongitudeDegrees>-0.59506558813154697418212890625</LongitudeDegrees>
            </Position>
            <AltitudeMeters>102.40000152587890625</AltitudeMeters>
            <DistanceMeters>23435.470055068</DistanceMeters>
          </Trackpoint>
          <Trackpoint>
            <Time>2021-10-09T07:41:03.000Z</Time>
            <Position>
              <LatitudeDegrees>39.55842747353017330169677734375</LatitudeDegrees>
              <LongitudeDegrees>-0.5950975231826305389404296875</LongitudeDegrees>
            </Position>
            <AltitudeMeters>102.40000152587890625</AltitudeMeters>
            <DistanceMeters>23444.320302696</DistanceMeters>
          </Trackpoint>
          <Trackpoint>
            <Time>2021-10-09T07:41:04.000Z</Time>
            <Position>
              <LatitudeDegrees>39.5585038326680660247802734375</LatitudeDegrees>
              <LongitudeDegrees>-0.59512727893888950347900390625</LongitudeDegrees>
            </Position>
            <AltitudeMeters>102.40000152587890625</AltitudeMeters>
            <DistanceMeters>23453.194495429</DistanceMeters>
          </Trackpoint>
          <Trackpoint>
            <Time>2021-10-09T07:41:05.000Z</Time>
            <Position>
              <LatitudeDegrees>39.5585811138153076171875</LatitudeDegrees>
              <LongitudeDegrees>-0.595157705247402191162109375</LongitudeDegrees>
            </Position>
            <AltitudeMeters>102</AltitudeMeters>
            <DistanceMeters>23462.183439973</DistanceMeters>
          </Trackpoint>
          <Trackpoint>
            <Time>2021-10-09T07:41:06.000Z</Time>
            <Position>
              <LatitudeDegrees>39.55865797586739063262939453125</LatitudeDegrees>
              <LongitudeDegrees>-0.595188550651073455810546875</LongitudeDegrees>
            </Position>
            <AltitudeMeters>101.8000030517578125</AltitudeMeters>
            <DistanceMeters>23471.139172159</DistanceMeters>
          </Trackpoint>
          <Trackpoint>
            <Time>2021-10-09T07:41:07.000Z</Time>
            <Position>
              <LatitudeDegrees>39.55873525701463222503662109375</LatitudeDegrees>
              <LongitudeDegrees>-0.59522065334022045135498046875</LongitudeDegrees>
            </Position>
            <AltitudeMeters>101.59999847412109375</AltitudeMeters>
            <DistanceMeters>23480.171210168</DistanceMeters>
          </Trackpoint>
          <Trackpoint>
            <Time>2021-10-09T07:41:08.000Z</Time>
            <Position>
              <LatitudeDegrees>39.5588132925331592559814453125</LatitudeDegrees>
              <LongitudeDegrees>-0.5952510796487331390380859375</LongitudeDegrees>
            </Position>
            <AltitudeMeters>101.40000152587890625</AltitudeMeters>
            <DistanceMeters>23489.240164697</DistanceMeters>
          </Trackpoint>
          <Trackpoint>
            <Time>2021-10-09T07:41:09.000Z</Time>
            <Position>
              <LatitudeDegrees>39.5588907413184642791748046875</LatitudeDegrees>
              <LongitudeDegrees>-0.595281422138214111328125</LongitudeDegrees>
            </Position>
            <AltitudeMeters>101.40000152587890625</AltitudeMeters>
            <DistanceMeters>23498.24516811</DistanceMeters>
          </Trackpoint>
          <Trackpoint>
            <Time>2021-10-09T07:41:10.000Z</Time>
            <Position>
              <LatitudeDegrees>39.55896642990410327911376953125</LatitudeDegrees>
              <LongitudeDegrees>-0.595311932265758514404296875</LongitudeDegrees>
            </Position>
            <AltitudeMeters>101.1999969482421875</AltitudeMeters>
            <DistanceMeters>23507.066800543</DistanceMeters>
          </Trackpoint>
          <Trackpoint>
            <Time>2021-10-09T07:41:11.000Z</Time>
            <Position>
              <LatitudeDegrees>39.55904153175652027130126953125</LatitudeDegrees>
              <LongitudeDegrees>-0.5953429453074932098388671875</LongitudeDegrees>
            </Position>
            <AltitudeMeters>101.1999969482421875</AltitudeMeters>
            <DistanceMeters>23515.839161198</DistanceMeters>
          </Trackpoint>
          <Trackpoint>
            <Time>2021-10-09T07:41:12.000Z</Time>
            <Position>
              <LatitudeDegrees>39.5591153763234615325927734375</LatitudeDegrees>
              <LongitudeDegrees>-0.5953724496066570281982421875</LongitudeDegrees>
            </Position>
            <AltitudeMeters>101</AltitudeMeters>
            <DistanceMeters>23524.438947595</DistanceMeters>
          </Trackpoint>
          <Trackpoint>
            <Time>2021-10-09T07:41:13.000Z</Time>
            <Position>
              <LatitudeDegrees>39.55918796360492706298828125</LatitudeDegrees>
              <LongitudeDegrees>-0.595400445163249969482421875</LongitudeDegrees>
            </Position>
            <AltitudeMeters>101</AltitudeMeters>
            <DistanceMeters>23532.867983214</DistanceMeters>
          </Trackpoint>
          <Trackpoint>
            <Time>2021-10-09T07:41:14.000Z</Time>
            <Position>
              <LatitudeDegrees>39.55925895832479000091552734375</LatitudeDegrees>
              <LongitudeDegrees>-0.595428943634033203125</LongitudeDegrees>
            </Position>
            <AltitudeMeters>100.8000030517578125</AltitudeMeters>
            <DistanceMeters>23541.139129394</DistanceMeters>
          </Trackpoint>
          <Trackpoint>
            <Time>2021-10-09T07:41:15.000Z</Time>
            <Position>
              <LatitudeDegrees>39.55932802520692348480224609375</LatitudeDegrees>
              <LongitudeDegrees>-0.59545635245740413665771484375</LongitudeDegrees>
            </Position>
            <AltitudeMeters>100.8000030517578125</AltitudeMeters>
            <DistanceMeters>23549.17886118</DistanceMeters>
          </Trackpoint>
          <Trackpoint>
            <Time>2021-10-09T07:41:16.000Z</Time>
            <Position>
              <LatitudeDegrees>39.5593990199267864227294921875</LatitudeDegrees>
              <LongitudeDegrees>-0.59548200108110904693603515625</LongitudeDegrees>
            </Position>
            <AltitudeMeters>100.8000030517578125</AltitudeMeters>
            <DistanceMeters>23557.380938326</DistanceMeters>
          </Trackpoint>
          <Trackpoint>
            <Time>2021-10-09T07:41:17.000Z</Time>
            <Position>
              <LatitudeDegrees>39.55946917645633220672607421875</LatitudeDegrees>
              <LongitudeDegrees>-0.595509745180606842041015625</LongitudeDegrees>
            </Position>
            <AltitudeMeters>100.59999847412109375</AltitudeMeters>
            <DistanceMeters>23565.544391281</DistanceMeters>
          </Trackpoint>
          <Trackpoint>
            <Time>2021-10-09T07:41:18.000Z</Time>
            <Position>
              <LatitudeDegrees>39.55954008735716342926025390625</LatitudeDegrees>
              <LongitudeDegrees>-0.5955370701849460601806640625</LongitudeDegrees>
            </Position>
            <AltitudeMeters>100.59999847412109375</AltitudeMeters>
            <DistanceMeters>23573.778334076</DistanceMeters>
          </Trackpoint>
          <Trackpoint>
            <Time>2021-10-09T07:41:19.000Z</Time>
            <Position>
              <LatitudeDegrees>39.55960999242961406707763671875</LatitudeDegrees>
              <LongitudeDegrees>-0.5955638922750949859619140625</LongitudeDegrees>
            </Position>
            <AltitudeMeters>100.59999847412109375</AltitudeMeters>
            <DistanceMeters>23581.891857187</DistanceMeters>
          </Trackpoint>
          <Trackpoint>
            <Time>2021-10-09T07:41:20.000Z</Time>
            <Position>
              <LatitudeDegrees>39.55968040041625499725341796875</LatitudeDegrees>
              <LongitudeDegrees>-0.59559163637459278106689453125</LongitudeDegrees>
            </Position>
            <AltitudeMeters>100.59999847412109375</AltitudeMeters>
            <DistanceMeters>23590.082366201</DistanceMeters>
          </Trackpoint>
          <Trackpoint>
            <Time>2021-10-09T07:41:21.000Z</Time>
            <Position>
              <LatitudeDegrees>39.559750892221927642822265625</LatitudeDegrees>
              <LongitudeDegrees>-0.59562013484537601470947265625</LongitudeDegrees>
            </Position>
            <AltitudeMeters>100.59999847412109375</AltitudeMeters>
            <DistanceMeters>23598.300391616</DistanceMeters>
          </Trackpoint>
          <Trackpoint>
            <Time>2021-10-09T07:41:22.000Z</Time>
            <Position>
              <LatitudeDegrees>39.559819288551807403564453125</LatitudeDegrees>
              <LongitudeDegrees>-0.59564955532550811767578125</LongitudeDegrees>
            </Position>
            <AltitudeMeters>100.40000152587890625</AltitudeMeters>
            <DistanceMeters>23606.320443642</DistanceMeters>
          </Trackpoint>
          <Trackpoint>
            <Time>2021-10-09T07:41:23.000Z</Time>
            <Position>
              <LatitudeDegrees>39.55988877452909946441650390625</LatitudeDegrees>
              <LongitudeDegrees>-0.59567914344370365142822265625</LongitudeDegrees>
            </Position>
            <AltitudeMeters>100.40000152587890625</AltitudeMeters>
            <DistanceMeters>23614.460634116</DistanceMeters>
          </Trackpoint>
          <Trackpoint>
            <Time>2021-10-09T07:41:24.000Z</Time>
            <Position>
              <LatitudeDegrees>39.559958092868328094482421875</LatitudeDegrees>
              <LongitudeDegrees>-0.59570856392383575439453125</LongitudeDegrees>
            </Position>
            <AltitudeMeters>100.40000152587890625</AltitudeMeters>
            <DistanceMeters>23622.578607871</DistanceMeters>
          </Trackpoint>
          <Trackpoint>
            <Time>2021-10-09T07:41:25.000Z</Time>
            <Position>
              <LatitudeDegrees>39.56002749502658843994140625</LatitudeDegrees>
              <LongitudeDegrees>-0.59573806822299957275390625</LongitudeDegrees>
            </Position>
            <AltitudeMeters>100.40000152587890625</AltitudeMeters>
            <DistanceMeters>23630.707697575</DistanceMeters>
          </Trackpoint>
          <Trackpoint>
            <Time>2021-10-09T07:41:26.000Z</Time>
            <Position>
              <LatitudeDegrees>39.5600960589945316314697265625</LatitudeDegrees>
              <LongitudeDegrees>-0.5957660637795925140380859375</LongitudeDegrees>
            </Position>
            <AltitudeMeters>100.40000152587890625</AltitudeMeters>
            <DistanceMeters>23638.708021433</DistanceMeters>
          </Trackpoint>
          <Trackpoint>
            <Time>2021-10-09T07:41:27.000Z</Time>
            <Position>
              <LatitudeDegrees>39.5601621083915233612060546875</LatitudeDegrees>
              <LongitudeDegrees>-0.59579380787909030914306640625</LongitudeDegrees>
            </Position>
            <AltitudeMeters>100.40000152587890625</AltitudeMeters>
            <DistanceMeters>23646.435043204</DistanceMeters>
          </Trackpoint>
          <Trackpoint>
            <Time>2021-10-09T07:41:28.000Z</Time>
            <Position>
              <LatitudeDegrees>39.56022757105529308319091796875</LatitudeDegrees>
              <LongitudeDegrees>-0.595821551978588104248046875</LongitudeDegrees>
            </Position>
            <AltitudeMeters>100.59999847412109375</AltitudeMeters>
            <DistanceMeters>23654.099877015</DistanceMeters>
          </Trackpoint>
          <Trackpoint>
            <Time>2021-10-09T07:41:29.000Z</Time>
            <Position>
              <LatitudeDegrees>39.56029395572841167449951171875</LatitudeDegrees>
              <LongitudeDegrees>-0.5958488769829273223876953125</LongitudeDegrees>
            </Position>
            <AltitudeMeters>100.59999847412109375</AltitudeMeters>
            <DistanceMeters>23661.851983744</DistanceMeters>
          </Trackpoint>
          <Trackpoint>
            <Time>2021-10-09T07:41:30.000Z</Time>
            <Position>
              <LatitudeDegrees>39.560359083116054534912109375</LatitudeDegrees>
              <LongitudeDegrees>-0.59587888419628143310546875</LongitudeDegrees>
            </Position>
            <AltitudeMeters>100.59999847412109375</AltitudeMeters>
            <DistanceMeters>23669.545040419</DistanceMeters>
          </Trackpoint>
          <Trackpoint>
            <Time>2021-10-09T07:41:31.000Z</Time>
            <Position>
              <LatitudeDegrees>39.5604226179420948028564453125</LatitudeDegrees>
              <LongitudeDegrees>-0.595906712114810943603515625</LongitudeDegrees>
            </Position>
            <AltitudeMeters>100.8000030517578125</AltitudeMeters>
            <DistanceMeters>23677.008116963</DistanceMeters>
          </Trackpoint>
          <Trackpoint>
            <Time>2021-10-09T07:41:32.000Z</Time>
            <Position>
              <LatitudeDegrees>39.56048741005361080169677734375</LatitudeDegrees>
              <LongitudeDegrees>-0.595930851995944976806640625</LongitudeDegrees>
            </Position>
            <AltitudeMeters>100.8000030517578125</AltitudeMeters>
            <DistanceMeters>23684.511016173</DistanceMeters>
          </Trackpoint>
          <Trackpoint>
            <Time>2021-10-09T07:41:33.000Z</Time>
            <Position>
              <LatitudeDegrees>39.56055245362222194671630859375</LatitudeDegrees>
              <LongitudeDegrees>-0.5959558300673961639404296875</LongitudeDegrees>
            </Position>
            <AltitudeMeters>100.8000030517578125</AltitudeMeters>
            <DistanceMeters>23692.060707724</DistanceMeters>
          </Trackpoint>
          <Trackpoint>
            <Time>2021-10-09T07:41:34.000Z</Time>
            <Position>
              <LatitudeDegrees>39.5606167428195476531982421875</LatitudeDegrees>
              <LongitudeDegrees>-0.59598105959594249725341796875</LongitudeDegrees>
            </Position>
            <AltitudeMeters>101</AltitudeMeters>
            <DistanceMeters>23699.536478127</DistanceMeters>
          </Trackpoint>
          <Trackpoint>
            <Time>2021-10-09T07:41:35.000Z</Time>
            <Position>
              <LatitudeDegrees>39.56068187020719051361083984375</LatitudeDegrees>
              <LongitudeDegrees>-0.59600771404802799224853515625</LongitudeDegrees>
            </Position>
            <AltitudeMeters>101</AltitudeMeters>
            <DistanceMeters>23707.13742735</DistanceMeters>
          </Trackpoint>
          <Trackpoint>
            <Time>2021-10-09T07:41:36.000Z</Time>
            <Position>
              <LatitudeDegrees>39.56074540503323078155517578125</LatitudeDegrees>
              <LongitudeDegrees>-0.59603579342365264892578125</LongitudeDegrees>
            </Position>
            <AltitudeMeters>101.1999969482421875</AltitudeMeters>
            <DistanceMeters>23714.608968862</DistanceMeters>
          </Trackpoint>
          <Trackpoint>
            <Time>2021-10-09T07:41:37.000Z</Time>
            <Position>
              <LatitudeDegrees>39.56080944277346134185791015625</LatitudeDegrees>
              <LongitudeDegrees>-0.59606186114251613616943359375</LongitudeDegrees>
            </Position>
            <AltitudeMeters>101.1999969482421875</AltitudeMeters>
            <DistanceMeters>23722.079301681</DistanceMeters>
          </Trackpoint>
          <Trackpoint>
            <Time>2021-10-09T07:41:38.000Z</Time>
            <Position>
              <LatitudeDegrees>39.5608730614185333251953125</LatitudeDegrees>
              <LongitudeDegrees>-0.59608767740428447723388671875</LongitudeDegrees>
            </Position>
            <AltitudeMeters>101.40000152587890625</AltitudeMeters>
            <DistanceMeters>23729.497474357</DistanceMeters>
          </Trackpoint>
          <Trackpoint>
            <Time>2021-10-09T07:41:39.000Z</Time>
            <Position>
              <LatitudeDegrees>39.56093517132103443145751953125</LatitudeDegrees>
              <LongitudeDegrees>-0.59611366130411624908447265625</LongitudeDegrees>
            </Position>
            <AltitudeMeters>101.40000152587890625</AltitudeMeters>
            <DistanceMeters>23736.760649048</DistanceMeters>
          </Trackpoint>
          <Trackpoint>
            <Time>2021-10-09T07:41:40.000Z</Time>
            <Position>
              <LatitudeDegrees>39.56099753268063068389892578125</LatitudeDegrees>
              <LongitudeDegrees>-0.59613914228975772857666015625</LongitudeDegrees>
            </Position>
            <AltitudeMeters>101.40000152587890625</AltitudeMeters>
            <DistanceMeters>23744.038727669</DistanceMeters>
          </Trackpoint>
          <Trackpoint>
            <Time>2021-10-09T07:41:41.000Z</Time>
            <Position>
              <LatitudeDegrees>39.561059474945068359375</LatitudeDegrees>
              <LongitudeDegrees>-0.5961643718183040618896484375</LongitudeDegrees>
            </Position>
            <AltitudeMeters>101.59999847412109375</AltitudeMeters>
            <DistanceMeters>23751.265132866</DistanceMeters>
          </Trackpoint>
          <Trackpoint>
            <Time>2021-10-09T07:41:42.000Z</Time>
            <Position>
              <LatitudeDegrees>39.561120830476284027099609375</LatitudeDegrees>
              <LongitudeDegrees>-0.5961906909942626953125</LongitudeDegrees>
            </Position>
            <AltitudeMeters>101.59999847412109375</AltitudeMeters>
            <DistanceMeters>23758.458347587</DistanceMeters>
          </Trackpoint>
          <Trackpoint>
            <Time>2021-10-09T07:41:43.000Z</Time>
            <Position>
              <LatitudeDegrees>39.56118210218846797943115234375</LatitudeDegrees>
              <LongitudeDegrees>-0.59621608816087245941162109375</LongitudeDegrees>
            </Position>
            <AltitudeMeters>101.8000030517578125</AltitudeMeters>
            <DistanceMeters>23765.617587344</DistanceMeters>
          </Trackpoint>
          <Trackpoint>
            <Time>2021-10-09T07:41:44.000Z</Time>
            <Position>
              <LatitudeDegrees>39.56124329008162021636962890625</LatitudeDegrees>
              <LongitudeDegrees>-0.596241652965545654296875</LongitudeDegrees>
            </Position>
            <AltitudeMeters>101.8000030517578125</AltitudeMeters>
            <DistanceMeters>23772.773042147</DistanceMeters>
          </Trackpoint>
          <Trackpoint>
            <Time>2021-10-09T07:41:45.000Z</Time>
            <Position>
              <LatitudeDegrees>39.561304561793804168701171875</LatitudeDegrees>
              <LongitudeDegrees>-0.5962662957608699798583984375</LongitudeDegrees>
            </Position>
            <AltitudeMeters>101.8000030517578125</AltitudeMeters>
            <DistanceMeters>23779.913337071</DistanceMeters>
          </Trackpoint>
          <Trackpoint>
            <Time>2021-10-09T07:41:46.000Z</Time>
            <Position>
              <LatitudeDegrees>39.561366252601146697998046875</LatitudeDegrees>
              <LongitudeDegrees>-0.5962914414703845977783203125</LongitudeDegrees>
            </Position>
            <AltitudeMeters>101.8000030517578125</AltitudeMeters>
            <DistanceMeters>23787.110316888</DistanceMeters>
          </Trackpoint>
          <Trackpoint>
            <Time>2021-10-09T07:41:47.000Z</Time>
            <Position>
              <LatitudeDegrees>39.5614281110465526580810546875</LatitudeDegrees>
              <LongitudeDegrees>-0.596316419541835784912109375</LongitudeDegrees>
            </Position>
            <AltitudeMeters>101.8000030517578125</AltitudeMeters>
            <DistanceMeters>23794.321085236</DistanceMeters>
          </Trackpoint>
          <Trackpoint>
            <Time>2021-10-09T07:41:48.000Z</Time>
            <Position>
              <LatitudeDegrees>39.56149038858711719512939453125</LatitudeDegrees>
              <LongitudeDegrees>-0.5963417328894138336181640625</LongitudeDegrees>
            </Position>
            <AltitudeMeters>101.8000030517578125</AltitudeMeters>
            <DistanceMeters>23801.585503088</DistanceMeters>
          </Trackpoint>
          <Trackpoint>
            <Time>2021-10-09T07:41:49.000Z</Time>
            <Position>
              <LatitudeDegrees>39.56155098974704742431640625</LatitudeDegrees>
              <LongitudeDegrees>-0.5963662080466747283935546875</LongitudeDegrees>
            </Position>
            <AltitudeMeters>101.8000030517578125</AltitudeMeters>
            <DistanceMeters>23808.650149754</DistanceMeters>
          </Trackpoint>
          <Trackpoint>
            <Time>2021-10-09T07:41:50.000Z</Time>
            <Position>
              <LatitudeDegrees>39.56161242909729480743408203125</LatitudeDegrees>
              <LongitudeDegrees>-0.59639093466103076934814453125</LongitudeDegrees>
            </Position>
            <AltitudeMeters>101.8000030517578125</AltitudeMeters>
            <DistanceMeters>23815.810650717</DistanceMeters>
          </Trackpoint>
          <Trackpoint>
            <Time>2021-10-09T07:41:51.000Z</Time>
            <Position>
              <LatitudeDegrees>39.56167411990463733673095703125</LatitudeDegrees>
              <LongitudeDegrees>-0.596416331827640533447265625</LongitudeDegrees>
            </Position>
            <AltitudeMeters>101.8000030517578125</AltitudeMeters>
            <DistanceMeters>23823.015154822</DistanceMeters>
          </Trackpoint>
          <Trackpoint>
            <Time>2021-10-09T07:41:52.000Z</Time>
            <Position>
              <LatitudeDegrees>39.5617466233670711517333984375</LatitudeDegrees>
              <LongitudeDegrees>-0.59644751250743865966796875</LongitudeDegrees>
            </Position>
            <AltitudeMeters>101.8000030517578125</AltitudeMeters>
            <DistanceMeters>23831.517258205</DistanceMeters>
          </Trackpoint>
          <Trackpoint>
            <Time>2021-10-09T07:41:53.000Z</Time>
            <Position>
              <LatitudeDegrees>39.5617957413196563720703125</LatitudeDegrees>
              <LongitudeDegrees>-0.5964691378176212310791015625</LongitudeDegrees>
            </Position>
            <AltitudeMeters>101.8000030517578125</AltitudeMeters>
            <DistanceMeters>23837.291255281</DistanceMeters>
          </Trackpoint>
          <Trackpoint>
            <Time>2021-10-09T07:41:54.000Z</Time>
            <Position>
              <LatitudeDegrees>39.56185801886022090911865234375</LatitudeDegrees>
              <LongitudeDegrees>-0.59649839065968990325927734375</LongitudeDegrees>
            </Position>
            <AltitudeMeters>101.8000030517578125</AltitudeMeters>
            <DistanceMeters>23844.663638214</DistanceMeters>
          </Trackpoint>
          <Trackpoint>
            <Time>2021-10-09T07:41:55.000Z</Time>
            <Position>
              <LatitudeDegrees>39.56192038021981716156005859375</LatitudeDegrees>
              <LongitudeDegrees>-0.5965299904346466064453125</LongitudeDegrees>
            </Position>
            <AltitudeMeters>101.8000030517578125</AltitudeMeters>
            <DistanceMeters>23852.115211206</DistanceMeters>
          </Trackpoint>
          <Trackpoint>
            <Time>2021-10-09T07:41:56.000Z</Time>
            <Position>
              <LatitudeDegrees>39.56198223866522312164306640625</LatitudeDegrees>
              <LongitudeDegrees>-0.59656661935150623321533203125</LongitudeDegrees>
            </Position>
            <AltitudeMeters>101.8000030517578125</AltitudeMeters>
            <DistanceMeters>23859.684015931</DistanceMeters>
          </Trackpoint>
          <Trackpoint>
            <Time>2021-10-09T07:41:57.000Z</Time>
            <Position>
              <LatitudeDegrees>39.5620416663587093353271484375</LatitudeDegrees>
              <LongitudeDegrees>-0.5966049246490001678466796875</LongitudeDegrees>
            </Position>
            <AltitudeMeters>102.1999969482421875</AltitudeMeters>
            <DistanceMeters>23867.069859945</DistanceMeters>
          </Trackpoint>
          <Trackpoint>
            <Time>2021-10-09T07:41:58.000Z</Time>
            <Position>
              <LatitudeDegrees>39.56209950149059295654296875</LatitudeDegrees>
              <LongitudeDegrees>-0.59664574451744556427001953125</LongitudeDegrees>
            </Position>
            <AltitudeMeters>102.1999969482421875</AltitudeMeters>
            <DistanceMeters>23874.398015553</DistanceMeters>
          </Trackpoint>
          <Trackpoint>
            <Time>2021-10-09T07:41:59.000Z</Time>
            <Position>
              <LatitudeDegrees>39.56215524114668369293212890625</LatitudeDegrees>
              <LongitudeDegrees>-0.59669318608939647674560546875</LongitudeDegrees>
            </Position>
            <AltitudeMeters>102.1999969482421875</AltitudeMeters>
            <DistanceMeters>23881.818013941</DistanceMeters>
          </Trackpoint>
          <Trackpoint>
            <Time>2021-10-09T07:42:00.000Z</Time>
            <Position>
              <LatitudeDegrees>39.56220905296504497528076171875</LatitudeDegrees>
              <LongitudeDegrees>-0.5967437289655208587646484375</LongitudeDegrees>
            </Position>
            <AltitudeMeters>102.1999969482421875</AltitudeMeters>
            <DistanceMeters>23889.213021915</DistanceMeters>
          </Trackpoint>
          <Trackpoint>
            <Time>2021-10-09T07:42:01.000Z</Time>
            <Position>
              <LatitudeDegrees>39.56225917674601078033447265625</LatitudeDegrees>
              <LongitudeDegrees>-0.5967993848025798797607421875</LongitudeDegrees>
            </Position>
            <AltitudeMeters>102.1999969482421875</AltitudeMeters>
            <DistanceMeters>23896.55656442</DistanceMeters>
          </Trackpoint>
          <Trackpoint>
            <Time>2021-10-09T07:42:02.000Z</Time>
            <Position>
              <LatitudeDegrees>39.5623058639466762542724609375</LatitudeDegrees>
              <LongitudeDegrees>-0.5968587286770343780517578125</LongitudeDegrees>
            </Position>
            <AltitudeMeters>102.1999969482421875</AltitudeMeters>
            <DistanceMeters>23903.832161174</DistanceMeters>
          </Trackpoint>
          <Trackpoint>
            <Time>2021-10-09T07:42:03.000Z</Time>
            <Position>
              <LatitudeDegrees>39.56235020421445369720458984375</LatitudeDegrees>
              <LongitudeDegrees>-0.5969204194843769073486328125</LongitudeDegrees>
            </Position>
            <AltitudeMeters>102.1999969482421875</AltitudeMeters>
            <DistanceMeters>23911.06918013</DistanceMeters>
          </Trackpoint>
          <Trackpoint>
            <Time>2021-10-09T07:42:04.000Z</Time>
            <Position>
              <LatitudeDegrees>39.5623911917209625244140625</LatitudeDegrees>
              <LongitudeDegrees>-0.59698521159589290618896484375</LongitudeDegrees>
            </Position>
            <AltitudeMeters>102.1999969482421875</AltitudeMeters>
            <DistanceMeters>23918.261139381</DistanceMeters>
          </Trackpoint>
          <Trackpoint>
            <Time>2021-10-09T07:42:05.000Z</Time>
            <Position>
              <LatitudeDegrees>39.56243083812296390533447265625</LatitudeDegrees>
              <LongitudeDegrees>-0.59705511666834354400634765625</LongitudeDegrees>
            </Position>
            <AltitudeMeters>102.1999969482421875</AltitudeMeters>
            <DistanceMeters>23925.707257119</DistanceMeters>
          </Trackpoint>
          <Trackpoint>
            <Time>2021-10-09T07:42:06.000Z</Time>
            <Position>
              <LatitudeDegrees>39.56246822141110897064208984375</LatitudeDegrees>
              <LongitudeDegrees>-0.59712745249271392822265625</LongitudeDegrees>
            </Position>
            <AltitudeMeters>102.1999969482421875</AltitudeMeters>
            <DistanceMeters>23933.18000713</DistanceMeters>
          </Trackpoint>
          <Trackpoint>
            <Time>2021-10-09T07:42:07.000Z</Time>
            <Position>
              <LatitudeDegrees>39.562500156462192535400390625</LatitudeDegrees>
              <LongitudeDegrees>-0.5972020514309406280517578125</LongitudeDegrees>
            </Position>
            <AltitudeMeters>102.1999969482421875</AltitudeMeters>
            <DistanceMeters>23940.501998925</DistanceMeters>
          </Trackpoint>
          <Trackpoint>
            <Time>2021-10-09T07:42:08.000Z</Time>
            <Position>
              <LatitudeDegrees>39.56253133714199066162109375</LatitudeDegrees>
              <LongitudeDegrees>-0.5972783267498016357421875</LongitudeDegrees>
            </Position>
            <AltitudeMeters>102.40000152587890625</AltitudeMeters>
            <DistanceMeters>23947.9098174</DistanceMeters>
          </Trackpoint>
          <Trackpoint>
            <Time>2021-10-09T07:42:09.000Z</Time>
            <Position>
              <LatitudeDegrees>39.56255924887955188751220703125</LatitudeDegrees>
              <LongitudeDegrees>-0.5973569490015506744384765625</LongitudeDegrees>
            </Position>
            <AltitudeMeters>102.40000152587890625</AltitudeMeters>
            <DistanceMeters>23955.337722022</DistanceMeters>
          </Trackpoint>
          <Trackpoint>
            <Time>2021-10-09T07:42:10.000Z</Time>
            <Position>
              <LatitudeDegrees>39.56258422695100307464599609375</LatitudeDegrees>
              <LongitudeDegrees>-0.59743699617683887481689453125</LongitudeDegrees>
            </Position>
            <AltitudeMeters>102.8000030517578125</AltitudeMeters>
            <DistanceMeters>23962.747368759</DistanceMeters>
          </Trackpoint>
          <Trackpoint>
            <Time>2021-10-09T07:42:11.000Z</Time>
            <Position>
              <LatitudeDegrees>39.562610127031803131103515625</LatitudeDegrees>
              <LongitudeDegrees>-0.59751712717115879058837890625</LongitudeDegrees>
            </Position>
            <AltitudeMeters>102.8000030517578125</AltitudeMeters>
            <DistanceMeters>23970.203181967</DistanceMeters>
          </Trackpoint>
          <Trackpoint>
            <Time>2021-10-09T07:42:12.000Z</Time>
            <Position>
              <LatitudeDegrees>39.56263602711260318756103515625</LatitudeDegrees>
              <LongitudeDegrees>-0.5975990183651447296142578125</LongitudeDegrees>
            </Position>
            <AltitudeMeters>102.8000030517578125</AltitudeMeters>
            <DistanceMeters>23977.798188769</DistanceMeters>
          </Trackpoint>
          <Trackpoint>
            <Time>2021-10-09T07:42:13.000Z</Time>
            <Position>
              <LatitudeDegrees>39.56266083754599094390869140625</LatitudeDegrees>
              <LongitudeDegrees>-0.597680322825908660888671875</LongitudeDegrees>
            </Position>
            <AltitudeMeters>102.8000030517578125</AltitudeMeters>
            <DistanceMeters>23985.301087979</DistanceMeters>
          </Trackpoint>
          <Trackpoint>
            <Time>2021-10-09T07:42:14.000Z</Time>
            <Position>
              <LatitudeDegrees>39.56268447451293468475341796875</LatitudeDegrees>
              <LongitudeDegrees>-0.597761459648609161376953125</LongitudeDegrees>
            </Position>
            <AltitudeMeters>102.8000030517578125</AltitudeMeters>
            <DistanceMeters>23992.743566659</DistanceMeters>
          </Trackpoint>
          <Trackpoint>
            <Time>2021-10-09T07:42:15.000Z</Time>
            <Position>
              <LatitudeDegrees>39.562709033489227294921875</LatitudeDegrees>
              <LongitudeDegrees>-0.59784301556646823883056640625</LongitudeDegrees>
            </Position>
            <AltitudeMeters>102.8000030517578125</AltitudeMeters>
            <DistanceMeters>24000.256689036</DistanceMeters>
          </Trackpoint>
          <Trackpoint>
            <Time>2021-10-09T07:42:16.000Z</Time>
            <Position>
              <LatitudeDegrees>39.5627309940755367279052734375</LatitudeDegrees>
              <LongitudeDegrees>-0.5979242362082004547119140625</LongitudeDegrees>
            </Position>
            <AltitudeMeters>102.8000030517578125</AltitudeMeters>
            <DistanceMeters>24007.64253305</DistanceMeters>
          </Trackpoint>
          <Trackpoint>
            <Time>2021-10-09T07:42:17.000Z</Time>
            <Position>
              <LatitudeDegrees>39.5627527870237827301025390625</LatitudeDegrees>
              <LongitudeDegrees>-0.59800461865961551666259765625</LongitudeDegrees>
            </Position>
            <AltitudeMeters>102.8000030517578125</AltitudeMeters>
            <DistanceMeters>24014.954651938</DistanceMeters>
          </Trackpoint>
          <Trackpoint>
            <Time>2021-10-09T07:42:18.000Z</Time>
            <Position>
              <LatitudeDegrees>39.562776088714599609375</LatitudeDegrees>
              <LongitudeDegrees>-0.59808474965393543243408203125</LongitudeDegrees>
            </Position>
            <AltitudeMeters>102.8000030517578125</AltitudeMeters>
            <DistanceMeters>24022.303725839</DistanceMeters>
          </Trackpoint>
          <Trackpoint>
            <Time>2021-10-09T07:42:19.000Z</Time>
            <Position>
              <LatitudeDegrees>39.5627990551292896270751953125</LatitudeDegrees>
              <LongitudeDegrees>-0.5981642939150333404541015625</LongitudeDegrees>
            </Position>
            <AltitudeMeters>102.8000030517578125</AltitudeMeters>
            <DistanceMeters>24029.591723482</DistanceMeters>
          </Trackpoint>
          <Trackpoint>
            <Time>2021-10-09T07:42:20.000Z</Time>
            <Position>
              <LatitudeDegrees>39.56282344646751880645751953125</LatitudeDegrees>
              <LongitudeDegrees>-0.598241575062274932861328125</LongitudeDegrees>
            </Position>
            <AltitudeMeters>102.8000030517578125</AltitudeMeters>
            <DistanceMeters>24036.756636921</DistanceMeters>
          </Trackpoint>
          <Trackpoint>
            <Time>2021-10-09T07:42:21.000Z</Time>
            <Position>
              <LatitudeDegrees>39.5628463290631771087646484375</LatitudeDegrees>
              <LongitudeDegrees>-0.5983188562095165252685546875</LongitudeDegrees>
            </Position>
            <AltitudeMeters>102.8000030517578125</AltitudeMeters>
            <DistanceMeters>24043.860161903</DistanceMeters>
          </Trackpoint>
          <Trackpoint>
            <Time>2021-10-09T07:42:22.000Z</Time>
            <Position>
              <LatitudeDegrees>39.56286904402077198028564453125</LatitudeDegrees>
              <LongitudeDegrees>-0.598395131528377532958984375</LongitudeDegrees>
            </Position>
            <AltitudeMeters>102.8000030517578125</AltitudeMeters>
            <DistanceMeters>24050.876068594</DistanceMeters>
          </Trackpoint>
          <Trackpoint>
            <Time>2021-10-09T07:42:23.000Z</Time>
            <Position>
              <LatitudeDegrees>39.56289343535900115966796875</LatitudeDegrees>
              <LongitudeDegrees>-0.59847165830433368682861328125</LongitudeDegrees>
            </Position>
            <AltitudeMeters>102.8000030517578125</AltitudeMeters>
            <DistanceMeters>24057.982135542</DistanceMeters>
          </Trackpoint>
          <Trackpoint>
            <Time>2021-10-09T07:42:24.000Z</Time>
            <Position>
              <LatitudeDegrees>39.562916569411754608154296875</LatitudeDegrees>
              <LongitudeDegrees>-0.598547346889972686767578125</LongitudeDegrees>
            </Position>
            <AltitudeMeters>102.8000030517578125</AltitudeMeters>
            <DistanceMeters>24064.969022779</DistanceMeters>
          </Trackpoint>
          <Trackpoint>
            <Time>2021-10-09T07:42:25.000Z</Time>
            <Position>
              <LatitudeDegrees>39.56293760798871517181396484375</LatitudeDegrees>
              <LongitudeDegrees>-0.598622448742389678955078125</LongitudeDegrees>
            </Position>
            <AltitudeMeters>102.8000030517578125</AltitudeMeters>
            <DistanceMeters>24071.826107294</DistanceMeters>
          </Trackpoint>
          <Trackpoint>
            <Time>2021-10-09T07:42:26.000Z</Time>
            <Position>
              <LatitudeDegrees>39.5629579760134220123291015625</LatitudeDegrees>
              <LongitudeDegrees>-0.59869713149964809417724609375</LongitudeDegrees>
            </Position>
            <AltitudeMeters>102.8000030517578125</AltitudeMeters>
            <DistanceMeters>24078.62367312</DistanceMeters>
          </Trackpoint>
          <Trackpoint>
            <Time>2021-10-09T07:42:27.000Z</Time>
            <Position>
              <LatitudeDegrees>39.5629787631332874298095703125</LatitudeDegrees>
              <LongitudeDegrees>-0.59877038933336734771728515625</LongitudeDegrees>
            </Position>
            <AltitudeMeters>103.1999969482421875</AltitudeMeters>
            <DistanceMeters>24085.321539928</DistanceMeters>
          </Trackpoint>
          <Trackpoint>
            <Time>2021-10-09T07:42:28.000Z</Time>
            <Position>
              <LatitudeDegrees>39.5629972033202648162841796875</LatitudeDegrees>
              <LongitudeDegrees>-0.59884482063353061676025390625</LongitudeDegrees>
            </Position>
            <AltitudeMeters>103</AltitudeMeters>
            <DistanceMeters>24092.03018368</DistanceMeters>
          </Trackpoint>
          <Trackpoint>
            <Time>2021-10-09T07:42:29.000Z</Time>
            <Position>
              <LatitudeDegrees>39.563015811145305633544921875</LatitudeDegrees>
              <LongitudeDegrees>-0.59892076067626476287841796875</LongitudeDegrees>
            </Position>
            <AltitudeMeters>103.40000152587890625</AltitudeMeters>
            <DistanceMeters>24098.866825814</DistanceMeters>
          </Trackpoint>
          <Trackpoint>
            <Time>2021-10-09T07:42:30.000Z</Time>
            <Position>
              <LatitudeDegrees>39.5630344189703464508056640625</LatitudeDegrees>
              <LongitudeDegrees>-0.5989987961947917938232421875</LongitudeDegrees>
            </Position>
            <AltitudeMeters>103.40000152587890625</AltitudeMeters>
            <DistanceMeters>24105.875649957</DistanceMeters>
          </Trackpoint>
          <Trackpoint>
            <Time>2021-10-09T07:42:31.000Z</Time>
            <Position>
              <LatitudeDegrees>39.56305034458637237548828125</LatitudeDegrees>
              <LongitudeDegrees>-0.59907741844654083251953125</LongitudeDegrees>
            </Position>
            <AltitudeMeters>103.40000152587890625</AltitudeMeters>
            <DistanceMeters>24112.850895607</DistanceMeters>
          </Trackpoint>
          <Trackpoint>
            <Time>2021-10-09T07:42:32.000Z</Time>
            <Position>
              <LatitudeDegrees>39.56306434236466884613037109375</LatitudeDegrees>
              <LongitudeDegrees>-0.599154531955718994140625</LongitudeDegrees>
            </Position>
            <AltitudeMeters>103.59999847412109375</AltitudeMeters>
            <DistanceMeters>24119.647797187</DistanceMeters>
          </Trackpoint>
          <Trackpoint>
            <Time>2021-10-09T07:42:33.000Z</Time>
            <Position>
              <LatitudeDegrees>39.5630773343145847320556640625</LatitudeDegrees>
              <LongitudeDegrees>-0.5992318131029605865478515625</LongitudeDegrees>
            </Position>
            <AltitudeMeters>103.59999847412109375</AltitudeMeters>
            <DistanceMeters>24126.434061981</DistanceMeters>
          </Trackpoint>
          <Trackpoint>
            <Time>2021-10-09T07:42:34.000Z</Time>
            <Position>
              <LatitudeDegrees>39.5630872249603271484375</LatitudeDegrees>
              <LongitudeDegrees>-0.5993095971643924713134765625</LongitudeDegrees>
            </Position>
            <AltitudeMeters>103.8000030517578125</AltitudeMeters>
            <DistanceMeters>24133.198335582</DistanceMeters>
          </Trackpoint>
          <Trackpoint>
            <Time>2021-10-09T07:42:35.000Z</Time>
            <Position>
              <LatitudeDegrees>39.56309401430189609527587890625</LatitudeDegrees>
              <LongitudeDegrees>-0.59938796795904636383056640625</LongitudeDegrees>
            </Position>
            <AltitudeMeters>103.8000030517578125</AltitudeMeters>
            <DistanceMeters>24139.965945775</DistanceMeters>
          </Trackpoint>
          <Trackpoint>
            <Time>2021-10-09T07:42:36.000Z</Time>
            <Position>
              <LatitudeDegrees>39.56309786997735500335693359375</LatitudeDegrees>
              <LongitudeDegrees>-0.59946625493466854095458984375</LongitudeDegrees>
            </Position>
            <AltitudeMeters>104</AltitudeMeters>
            <DistanceMeters>24146.697433247</DistanceMeters>
          </Trackpoint>
          <Trackpoint>
            <Time>2021-10-09T07:42:37.000Z</Time>
            <Position>
              <LatitudeDegrees>39.563099630177021026611328125</LatitudeDegrees>
              <LongitudeDegrees>-0.59954303316771984100341796875</LongitudeDegrees>
            </Position>
            <AltitudeMeters>104</AltitudeMeters>
            <DistanceMeters>24153.288616584</DistanceMeters>
          </Trackpoint>
          <Trackpoint>
            <Time>2021-10-09T07:42:38.000Z</Time>
            <Position>
              <LatitudeDegrees>39.563100636005401611328125</LatitudeDegrees>
              <LongitudeDegrees>-0.59961847029626369476318359375</LongitudeDegrees>
            </Position>
            <AltitudeMeters>104.1999969482421875</AltitudeMeters>
            <DistanceMeters>24159.76299801</DistanceMeters>
          </Trackpoint>
          <Trackpoint>
            <Time>2021-10-09T07:42:39.000Z</Time>
            <Position>
              <LatitudeDegrees>39.5630991272628307342529296875</LatitudeDegrees>
              <LongitudeDegrees>-0.59969541616737842559814453125</LongitudeDegrees>
            </Position>
            <AltitudeMeters>104.1999969482421875</AltitudeMeters>
            <DistanceMeters>24166.367183745</DistanceMeters>
          </Trackpoint>
          <Trackpoint>
            <Time>2021-10-09T07:42:40.000Z</Time>
            <Position>
              <LatitudeDegrees>39.56309728324413299560546875</LatitudeDegrees>
              <LongitudeDegrees>-0.5997722782194614410400390625</LongitudeDegrees>
            </Position>
            <AltitudeMeters>104.1999969482421875</AltitudeMeters>
            <DistanceMeters>24172.965897909</DistanceMeters>
          </Trackpoint>
          <Trackpoint>
            <Time>2021-10-09T07:42:41.000Z</Time>
            <Position>
              <LatitudeDegrees>39.56309258937835693359375</LatitudeDegrees>
              <LongitudeDegrees>-0.59985064901411533355712890625</LongitudeDegrees>
            </Position>
            <AltitudeMeters>104.40000152587890625</AltitudeMeters>
            <DistanceMeters>24179.710786724</DistanceMeters>
          </Trackpoint>
          <Trackpoint>
            <Time>2021-10-09T07:42:42.000Z</Time>
            <Position>
              <LatitudeDegrees>39.5630867220461368560791015625</LatitudeDegrees>
              <LongitudeDegrees>-0.59992977418005466461181640625</LongitudeDegrees>
            </Position>
            <AltitudeMeters>104.40000152587890625</AltitudeMeters>
            <DistanceMeters>24186.531560422</DistanceMeters>
          </Trackpoint>
          <Trackpoint>
            <Time>2021-10-09T07:42:43.000Z</Time>
            <Position>
              <LatitudeDegrees>39.5630810223519802093505859375</LatitudeDegrees>
              <LongitudeDegrees>-0.60001174919307231903076171875</LongitudeDegrees>
            </Position>
            <AltitudeMeters>104.1999969482421875</AltitudeMeters>
            <DistanceMeters>24193.594289517</DistanceMeters>
          </Trackpoint>
          <Trackpoint>
            <Time>2021-10-09T07:42:44.000Z</Time>
            <Position>
              <LatitudeDegrees>39.56307523883879184722900390625</LatitudeDegrees>
              <LongitudeDegrees>-0.60009623877704143524169921875</LongitudeDegrees>
            </Position>
            <AltitudeMeters>104</AltitudeMeters>
            <DistanceMeters>24200.872368139</DistanceMeters>
          </Trackpoint>
          <Trackpoint>
            <Time>2021-10-09T07:42:45.000Z</Time>
            <Position>
              <LatitudeDegrees>39.56306853331625461578369140625</LatitudeDegrees>
              <LongitudeDegrees>-0.60017980635166168212890625</LongitudeDegrees>
            </Position>
            <AltitudeMeters>104</AltitudeMeters>
            <DistanceMeters>24208.081884073</DistanceMeters>
          </Trackpoint>
          <Trackpoint>
            <Time>2021-10-09T07:42:46.000Z</Time>
            <Position>
              <LatitudeDegrees>39.5630617439746856689453125</LatitudeDegrees>
              <LongitudeDegrees>-0.600263960659503936767578125</LongitudeDegrees>
            </Position>
            <AltitudeMeters>104</AltitudeMeters>
            <DistanceMeters>24215.341328</DistanceMeters>
          </Trackpoint>
          <Trackpoint>
            <Time>2021-10-09T07:42:47.000Z</Time>
            <Position>
              <LatitudeDegrees>39.563056044280529022216796875</LatitudeDegrees>
              <LongitudeDegrees>-0.6003476120531558990478515625</LongitudeDegrees>
            </Position>
            <AltitudeMeters>104</AltitudeMeters>
            <DistanceMeters>24222.547085389</DistanceMeters>
          </Trackpoint>
          <Trackpoint>
            <Time>2021-10-09T07:42:48.000Z</Time>
            <Position>
              <LatitudeDegrees>39.56304925493896007537841796875</LatitudeDegrees>
              <LongitudeDegrees>-0.6004310958087444305419921875</LongitudeDegrees>
            </Position>
            <AltitudeMeters>103.8000030517578125</AltitudeMeters>
            <DistanceMeters>24229.749709159</DistanceMeters>
          </Trackpoint>
          <Trackpoint>
            <Time>2021-10-09T07:42:49.000Z</Time>
            <Position>
              <LatitudeDegrees>39.5630438067018985748291015625</LatitudeDegrees>
              <LongitudeDegrees>-0.60051667504012584686279296875</LongitudeDegrees>
            </Position>
            <AltitudeMeters>103.59999847412109375</AltitudeMeters>
            <DistanceMeters>24237.117803864</DistanceMeters>
          </Trackpoint>
          <Trackpoint>
            <Time>2021-10-09T07:42:50.000Z</Time>
            <Position>
              <LatitudeDegrees>39.5630376040935516357421875</LatitudeDegrees>
              <LongitudeDegrees>-0.6006037630140781402587890625</LongitudeDegrees>
            </Position>
            <AltitudeMeters>103.8000030517578125</AltitudeMeters>
            <DistanceMeters>24244.621906522</DistanceMeters>
          </Trackpoint>
          <Trackpoint>
            <Time>2021-10-09T07:42:51.000Z</Time>
            <Position>
              <LatitudeDegrees>39.5630322396755218505859375</LatitudeDegrees>
              <LongitudeDegrees>-0.6006895937025547027587890625</LongitudeDegrees>
            </Position>
            <AltitudeMeters>103.59999847412109375</AltitudeMeters>
            <DistanceMeters>24252.009584238</DistanceMeters>
          </Trackpoint>
          <Trackpoint>
            <Time>2021-10-09T07:42:52.000Z</Time>
            <Position>
              <LatitudeDegrees>39.56302746199071407318115234375</LatitudeDegrees>
              <LongitudeDegrees>-0.60077768750488758087158203125</LongitudeDegrees>
            </Position>
            <AltitudeMeters>103.40000152587890625</AltitudeMeters>
            <DistanceMeters>24259.586735815</DistanceMeters>
          </Trackpoint>
          <Trackpoint>
            <Time>2021-10-09T07:42:53.000Z</Time>
            <Position>
              <LatitudeDegrees>39.5630216784775257110595703125</LatitudeDegrees>
              <LongitudeDegrees>-0.6008684635162353515625</LongitudeDegrees>
            </Position>
            <AltitudeMeters>103.1999969482421875</AltitudeMeters>
            <DistanceMeters>24267.402069274</DistanceMeters>
          </Trackpoint>
          <Trackpoint>
            <Time>2021-10-09T07:42:54.000Z</Time>
            <Position>
              <LatitudeDegrees>39.5630169846117496490478515625</LatitudeDegrees>
              <LongitudeDegrees>-0.60095764696598052978515625</LongitudeDegrees>
            </Position>
            <AltitudeMeters>103</AltitudeMeters>
            <DistanceMeters>24275.072202782</DistanceMeters>
          </Trackpoint>
          <Trackpoint>
            <Time>2021-10-09T07:42:55.000Z</Time>
            <Position>
              <LatitudeDegrees>39.56301036290824413299560546875</LatitudeDegrees>
              <LongitudeDegrees>-0.60104750096797943115234375</LongitudeDegrees>
            </Position>
            <AltitudeMeters>103</AltitudeMeters>
            <DistanceMeters>24282.817900161</DistanceMeters>
          </Trackpoint>
          <Trackpoint>
            <Time>2021-10-09T07:42:56.000Z</Time>
            <Position>
              <LatitudeDegrees>39.5630059204995632171630859375</LatitudeDegrees>
              <LongitudeDegrees>-0.6011318229138851165771484375</LongitudeDegrees>
            </Position>
            <AltitudeMeters>103</AltitudeMeters>
            <DistanceMeters>24290.069254182</DistanceMeters>
          </Trackpoint>
          <Trackpoint>
            <Time>2021-10-09T07:42:57.000Z</Time>
            <Position>
              <LatitudeDegrees>39.562999047338962554931640625</LatitudeDegrees>
              <LongitudeDegrees>-0.60122075490653514862060546875</LongitudeDegrees>
            </Position>
            <AltitudeMeters>102.8000030517578125</AltitudeMeters>
            <DistanceMeters>24297.737621531</DistanceMeters>
          </Trackpoint>
          <Trackpoint>
            <Time>2021-10-09T07:42:58.000Z</Time>
            <Position>
              <LatitudeDegrees>39.56299359910190105438232421875</LatitudeDegrees>
              <LongitudeDegrees>-0.60130759142339229583740234375</LongitudeDegrees>
            </Position>
            <AltitudeMeters>102.8000030517578125</AltitudeMeters>
            <DistanceMeters>24305.212787953</DistanceMeters>
          </Trackpoint>
          <Trackpoint>
            <Time>2021-10-09T07:42:59.000Z</Time>
            <Position>
              <LatitudeDegrees>39.56298907287418842315673828125</LatitudeDegrees>
              <LongitudeDegrees>-0.60139484703540802001953125</LongitudeDegrees>
            </Position>
            <AltitudeMeters>102.8000030517578125</AltitudeMeters>
            <DistanceMeters>24312.716890611</DistanceMeters>
          </Trackpoint>
          <Trackpoint>
            <Time>2021-10-09T07:43:00.000Z</Time>
            <Position>
              <LatitudeDegrees>39.56298303790390491485595703125</LatitudeDegrees>
              <LongitudeDegrees>-0.60148294083774089813232421875</LongitudeDegrees>
            </Position>
            <AltitudeMeters>102.8000030517578125</AltitudeMeters>
            <DistanceMeters>24320.305355376</DistanceMeters>
          </Trackpoint>
          <Trackpoint>
            <Time>2021-10-09T07:43:01.000Z</Time>
            <Position>
              <LatitudeDegrees>39.56297700293362140655517578125</LatitudeDegrees>
              <LongitudeDegrees>-0.60157145373523235321044921875</LongitudeDegrees>
            </Position>
            <AltitudeMeters>102.8000030517578125</AltitudeMeters>
            <DistanceMeters>24327.930620107</DistanceMeters>
          </Trackpoint>
          <Trackpoint>
            <Time>2021-10-09T07:43:02.000Z</Time>
            <Position>
              <LatitudeDegrees>39.5629703812301158905029296875</LatitudeDegrees>
              <LongitudeDegrees>-0.60166147537529468536376953125</LongitudeDegrees>
            </Position>
            <AltitudeMeters>102.8000030517578125</AltitudeMeters>
            <DistanceMeters>24335.690294696</DistanceMeters>
          </Trackpoint>
          <Trackpoint>
            <Time>2021-10-09T07:43:03.000Z</Time>
            <Position>
              <LatitudeDegrees>39.562962837517261505126953125</LatitudeDegrees>
              <LongitudeDegrees>-0.6017524190247058868408203125</LongitudeDegrees>
            </Position>
            <AltitudeMeters>102.59999847412109375</AltitudeMeters>
            <DistanceMeters>24343.537913529</DistanceMeters>
          </Trackpoint>
          <Trackpoint>
            <Time>2021-10-09T07:43:04.000Z</Time>
            <Position>
              <LatitudeDegrees>39.562956131994724273681640625</LatitudeDegrees>
              <LongitudeDegrees>-0.60184202156960964202880859375</LongitudeDegrees>
            </Position>
            <AltitudeMeters>102.40000152587890625</AltitudeMeters>
            <DistanceMeters>24351.261428596</DistanceMeters>
          </Trackpoint>
          <Trackpoint>
            <Time>2021-10-09T07:43:05.000Z</Time>
            <Position>
              <LatitudeDegrees>39.5629502646625041961669921875</LatitudeDegrees>
              <LongitudeDegrees>-0.60193154029548168182373046875</LongitudeDegrees>
            </Position>
            <AltitudeMeters>102.1999969482421875</AltitudeMeters>
            <DistanceMeters>24358.970315226</DistanceMeters>
          </Trackpoint>
          <Trackpoint>
            <Time>2021-10-09T07:43:06.000Z</Time>
            <Position>
              <LatitudeDegrees>39.5629449002444744110107421875</LatitudeDegrees>
              <LongitudeDegrees>-0.60202256776392459869384765625</LongitudeDegrees>
            </Position>
            <AltitudeMeters>102.1999969482421875</AltitudeMeters>
            <DistanceMeters>24366.804113763</DistanceMeters>
          </Trackpoint>
          <Trackpoint>
            <Time>2021-10-09T07:43:07.000Z</Time>
            <Position>
              <LatitudeDegrees>39.56293760798871517181396484375</LatitudeDegrees>
              <LongitudeDegrees>-0.60211443342268466949462890625</LongitudeDegrees>
            </Position>
            <AltitudeMeters>102.1999969482421875</AltitudeMeters>
            <DistanceMeters>24374.729022701</DistanceMeters>
          </Trackpoint>
          <Trackpoint>
            <Time>2021-10-09T07:43:08.000Z</Time>
            <Position>
              <LatitudeDegrees>39.5629303157329559326171875</LatitudeDegrees>
              <LongitudeDegrees>-0.60220764018595218658447265625</LongitudeDegrees>
            </Position>
            <AltitudeMeters>102.1999969482421875</AltitudeMeters>
            <DistanceMeters>24382.767631227</DistanceMeters>
          </Trackpoint>
          <Trackpoint>
            <Time>2021-10-09T07:43:09.000Z</Time>
            <Position>
              <LatitudeDegrees>39.56292436458170413970947265625</LatitudeDegrees>
              <LongitudeDegrees>-0.602301768958568572998046875</LongitudeDegrees>
            </Position>
            <AltitudeMeters>102.1999969482421875</AltitudeMeters>
            <DistanceMeters>24390.871688604</DistanceMeters>
          </Trackpoint>
          <Trackpoint>
            <Time>2021-10-09T07:43:10.000Z</Time>
            <Position>
              <LatitudeDegrees>39.56291665323078632354736328125</LatitudeDegrees>
              <LongitudeDegrees>-0.60239690355956554412841796875</LongitudeDegrees>
            </Position>
            <AltitudeMeters>102.1999969482421875</AltitudeMeters>
            <DistanceMeters>24399.079818741</DistanceMeters>
          </Trackpoint>
          <Trackpoint>
            <Time>2021-10-09T07:43:11.000Z</Time>
            <Position>
              <LatitudeDegrees>39.56290978007018566131591796875</LatitudeDegrees>
              <LongitudeDegrees>-0.6024920381605625152587890625</LongitudeDegrees>
            </Position>
            <AltitudeMeters>102.1999969482421875</AltitudeMeters>
            <DistanceMeters>24407.278592372</DistanceMeters>
          </Trackpoint>
          <Trackpoint>
            <Time>2021-10-09T07:43:12.000Z</Time>
            <Position>
              <LatitudeDegrees>39.56290282309055328369140625</LatitudeDegrees>
              <LongitudeDegrees>-0.60258801095187664031982421875</LongitudeDegrees>
            </Position>
            <AltitudeMeters>102</AltitudeMeters>
            <DistanceMeters>24415.550284413</DistanceMeters>
          </Trackpoint>
          <Trackpoint>
            <Time>2021-10-09T07:43:13.000Z</Time>
            <Position>
              <LatitudeDegrees>39.56289569847285747528076171875</LatitudeDegrees>
              <LongitudeDegrees>-0.60268524102866649627685546875</LongitudeDegrees>
            </Position>
            <AltitudeMeters>102</AltitudeMeters>
            <DistanceMeters>24423.931511331</DistanceMeters>
          </Trackpoint>
          <Trackpoint>
            <Time>2021-10-09T07:43:14.000Z</Time>
            <Position>
              <LatitudeDegrees>39.56288949586451053619384765625</LatitudeDegrees>
              <LongitudeDegrees>-0.602782554924488067626953125</LongitudeDegrees>
            </Position>
            <AltitudeMeters>101.8000030517578125</AltitudeMeters>
            <DistanceMeters>24432.310044274</DistanceMeters>
          </Trackpoint>
          <Trackpoint>
            <Time>2021-10-09T07:43:15.000Z</Time>
            <Position>
              <LatitudeDegrees>39.56288404762744903564453125</LatitudeDegrees>
              <LongitudeDegrees>-0.60287903062999248504638671875</LongitudeDegrees>
            </Position>
            <AltitudeMeters>101.59999847412109375</AltitudeMeters>
            <DistanceMeters>24440.610615535</DistanceMeters>
          </Trackpoint>
          <Trackpoint>
            <Time>2021-10-09T07:43:16.000Z</Time>
            <Position>
              <LatitudeDegrees>39.562878347933292388916015625</LatitudeDegrees>
              <LongitudeDegrees>-0.60297609306871891021728515625</LongitudeDegrees>
            </Position>
            <AltitudeMeters>101.1999969482421875</AltitudeMeters>
            <DistanceMeters>24448.963242105</DistanceMeters>
          </Trackpoint>
          <Trackpoint>
            <Time>2021-10-09T07:43:17.000Z</Time>
            <Position>
              <LatitudeDegrees>39.5628711394965648651123046875</LatitudeDegrees>
              <LongitudeDegrees>-0.6030747480690479278564453125</LongitudeDegrees>
            </Position>
            <AltitudeMeters>101</AltitudeMeters>
            <DistanceMeters>24457.465876521</DistanceMeters>
          </Trackpoint>
          <Trackpoint>
            <Time>2021-10-09T07:43:18.000Z</Time>
            <Position>
              <LatitudeDegrees>39.562865607440471649169921875</LatitudeDegrees>
              <LongitudeDegrees>-0.60317256487905979156494140625</LongitudeDegrees>
            </Position>
            <AltitudeMeters>100.8000030517578125</AltitudeMeters>
            <DistanceMeters>24465.88151016</DistanceMeters>
          </Trackpoint>
          <Trackpoint>
            <Time>2021-10-09T07:43:19.000Z</Time>
            <Position>
              <LatitudeDegrees>39.5628604106605052947998046875</LatitudeDegrees>
              <LongitudeDegrees>-0.6032712198793888092041015625</LongitudeDegrees>
            </Position>
            <AltitudeMeters>101</AltitudeMeters>
            <DistanceMeters>24474.366070809</DistanceMeters>
          </Trackpoint>
          <Trackpoint>
            <Time>2021-10-09T07:43:20.000Z</Time>
            <Position>
              <LatitudeDegrees>39.56285714171826839447021484375</LatitudeDegrees>
              <LongitudeDegrees>-0.6033892370760440826416015625</LongitudeDegrees>
            </Position>
            <AltitudeMeters>101</AltitudeMeters>
            <DistanceMeters>24484.498788567</DistanceMeters>
          </Trackpoint>
          <Trackpoint>
            <Time>2021-10-09T07:43:21.000Z</Time>
            <Position>
              <LatitudeDegrees>39.562857560813426971435546875</LatitudeDegrees>
              <LongitudeDegrees>-0.603469200432300567626953125</LongitudeDegrees>
            </Position>
            <AltitudeMeters>100.59999847412109375</AltitudeMeters>
            <DistanceMeters>24491.359164536</DistanceMeters>
          </Trackpoint>
          <Trackpoint>
            <Time>2021-10-09T07:43:22.000Z</Time>
            <Position>
              <LatitudeDegrees>39.5628614164888858795166015625</LatitudeDegrees>
              <LongitudeDegrees>-0.603568442165851593017578125</LongitudeDegrees>
            </Position>
            <AltitudeMeters>100.59999847412109375</AltitudeMeters>
            <DistanceMeters>24499.885131658</DistanceMeters>
          </Trackpoint>
          <Trackpoint>
            <Time>2021-10-09T07:43:23.000Z</Time>
            <Position>
              <LatitudeDegrees>39.56286971457302570343017578125</LatitudeDegrees>
              <LongitudeDegrees>-0.60366667807102203369140625</LongitudeDegrees>
            </Position>
            <AltitudeMeters>100.40000152587890625</AltitudeMeters>
            <DistanceMeters>24508.364369162</DistanceMeters>
          </Trackpoint>
          <Trackpoint>
            <Time>2021-10-09T07:43:24.000Z</Time>
            <Position>
              <LatitudeDegrees>39.562880694866180419921875</LatitudeDegrees>
              <LongitudeDegrees>-0.60376415960490703582763671875</LongitudeDegrees>
            </Position>
            <AltitudeMeters>100.40000152587890625</AltitudeMeters>
            <DistanceMeters>24516.818008909</DistanceMeters>
          </Trackpoint>
          <Trackpoint>
            <Time>2021-10-09T07:43:25.000Z</Time>
            <Position>
              <LatitudeDegrees>39.5628939382731914520263671875</LatitudeDegrees>
              <LongitudeDegrees>-0.60385845601558685302734375</LongitudeDegrees>
            </Position>
            <AltitudeMeters>100.1999969482421875</AltitudeMeters>
            <DistanceMeters>24525.042075578</DistanceMeters>
          </Trackpoint>
          <Trackpoint>
            <Time>2021-10-09T07:43:26.000Z</Time>
            <Position>
              <LatitudeDegrees>39.56291221082210540771484375</LatitudeDegrees>
              <LongitudeDegrees>-0.60394889675080776214599609375</LongitudeDegrees>
            </Position>
            <AltitudeMeters>100.1999969482421875</AltitudeMeters>
            <DistanceMeters>24533.064941954</DistanceMeters>
          </Trackpoint>
          <Trackpoint>
            <Time>2021-10-09T07:43:27.000Z</Time>
            <Position>
              <LatitudeDegrees>39.562934003770351409912109375</LatitudeDegrees>
              <LongitudeDegrees>-0.60403757728636264801025390625</LongitudeDegrees>
            </Position>
            <AltitudeMeters>100.1999969482421875</AltitudeMeters>
            <DistanceMeters>24541.051709761</DistanceMeters>
          </Trackpoint>
          <Trackpoint>
            <Time>2021-10-09T07:43:28.000Z</Time>
            <Position>
              <LatitudeDegrees>39.56296049058437347412109375</LatitudeDegrees>
              <LongitudeDegrees>-0.604123659431934356689453125</LongitudeDegrees>
            </Position>
            <AltitudeMeters>100</AltitudeMeters>
            <DistanceMeters>24549.004486346</DistanceMeters>
          </Trackpoint>
          <Trackpoint>
            <Time>2021-10-09T07:43:29.000Z</Time>
            <Position>
              <LatitudeDegrees>39.562989659607410430908203125</LatitudeDegrees>
              <LongitudeDegrees>-0.60420722700655460357666015625</LongitudeDegrees>
            </Position>
            <AltitudeMeters>100</AltitudeMeters>
            <DistanceMeters>24556.875085078</DistanceMeters>
          </Trackpoint>
          <Trackpoint>
            <Time>2021-10-09T07:43:30.000Z</Time>
            <Position>
              <LatitudeDegrees>39.5630200020968914031982421875</LatitudeDegrees>
              <LongitudeDegrees>-0.6042864359915256500244140625</LongitudeDegrees>
            </Position>
            <AltitudeMeters>100</AltitudeMeters>
            <DistanceMeters>24564.464144806</DistanceMeters>
          </Trackpoint>
          <Trackpoint>
            <Time>2021-10-09T07:43:31.000Z</Time>
            <Position>
              <LatitudeDegrees>39.5630552060902118682861328125</LatitudeDegrees>
              <LongitudeDegrees>-0.60436145402491092681884765625</LongitudeDegrees>
            </Position>
            <AltitudeMeters>100</AltitudeMeters>
            <DistanceMeters>24572.000068821</DistanceMeters>
          </Trackpoint>
          <Trackpoint>
            <Time>2021-10-09T07:43:32.000Z</Time>
            <Position>
              <LatitudeDegrees>39.563092254102230072021484375</LatitudeDegrees>
              <LongitudeDegrees>-0.6044336222112178802490234375</LongitudeDegrees>
            </Position>
            <AltitudeMeters>100.1999969482421875</AltitudeMeters>
            <DistanceMeters>24579.439513594</DistanceMeters>
          </Trackpoint>
          <Trackpoint>
            <Time>2021-10-09T07:43:33.000Z</Time>
            <Position>
              <LatitudeDegrees>39.5631301403045654296875</LatitudeDegrees>
              <LongitudeDegrees>-0.604502856731414794921875</LongitudeDegrees>
            </Position>
            <AltitudeMeters>100.1999969482421875</AltitudeMeters>
            <DistanceMeters>24586.724412993</DistanceMeters>
          </Trackpoint>
          <Trackpoint>
            <Time>2021-10-09T07:43:34.000Z</Time>
            <Position>
              <LatitudeDegrees>39.56316970288753509521484375</LatitudeDegrees>
              <LongitudeDegrees>-0.6045704148709774017333984375</LongitudeDegrees>
            </Position>
            <AltitudeMeters>100.1999969482421875</AltitudeMeters>
            <DistanceMeters>24594.003732232</DistanceMeters>
          </Trackpoint>
          <Trackpoint>
            <Time>2021-10-09T07:43:35.000Z</Time>
            <Position>
              <LatitudeDegrees>39.56321085803210735321044921875</LatitudeDegrees>
              <LongitudeDegrees>-0.60463520698249340057373046875</LongitudeDegrees>
            </Position>
            <AltitudeMeters>100.40000152587890625</AltitudeMeters>
            <DistanceMeters>24601.206982835</DistanceMeters>
          </Trackpoint>
          <Trackpoint>
            <Time>2021-10-09T07:43:36.000Z</Time>
            <Position>
              <LatitudeDegrees>39.56325477920472621917724609375</LatitudeDegrees>
              <LongitudeDegrees>-0.6046974845230579376220703125</LongitudeDegrees>
            </Position>
            <AltitudeMeters>100.40000152587890625</AltitudeMeters>
            <DistanceMeters>24608.449614543</DistanceMeters>
          </Trackpoint>
          <Trackpoint>
            <Time>2021-10-09T07:43:37.000Z</Time>
            <Position>
              <LatitudeDegrees>39.56330113112926483154296875</LatitudeDegrees>
              <LongitudeDegrees>-0.60475540347397327423095703125</LongitudeDegrees>
            </Position>
            <AltitudeMeters>100.59999847412109375</AltitudeMeters>
            <DistanceMeters>24615.612637254</DistanceMeters>
          </Trackpoint>
          <Trackpoint>
            <Time>2021-10-09T07:43:38.000Z</Time>
            <Position>
              <LatitudeDegrees>39.56334899179637432098388671875</LatitudeDegrees>
              <LongitudeDegrees>-0.6048114784061908721923828125</LongitudeDegrees>
            </Position>
            <AltitudeMeters>100.59999847412109375</AltitudeMeters>
            <DistanceMeters>24622.790771843</DistanceMeters>
          </Trackpoint>
          <Trackpoint>
            <Time>2021-10-09T07:43:39.000Z</Time>
            <Position>
              <LatitudeDegrees>39.56339844502508640289306640625</LatitudeDegrees>
              <LongitudeDegrees>-0.6048644520342350006103515625</LongitudeDegrees>
            </Position>
            <AltitudeMeters>100.8000030517578125</AltitudeMeters>
            <DistanceMeters>24629.929801991</DistanceMeters>
          </Trackpoint>
          <Trackpoint>
            <Time>2021-10-09T07:43:40.000Z</Time>
            <Position>
              <LatitudeDegrees>39.563448987901210784912109375</LatitudeDegrees>
              <LongitudeDegrees>-0.60491658747196197509765625</LongitudeDegrees>
            </Position>
            <AltitudeMeters>100.8000030517578125</AltitudeMeters>
            <DistanceMeters>24637.117365371</DistanceMeters>
          </Trackpoint>
          <Trackpoint>
            <Time>2021-10-09T07:43:41.000Z</Time>
            <Position>
              <LatitudeDegrees>39.56349902786314487457275390625</LatitudeDegrees>
              <LongitudeDegrees>-0.6049673818051815032958984375</LongitudeDegrees>
            </Position>
            <AltitudeMeters>100.8000030517578125</AltitudeMeters>
            <DistanceMeters>24644.190315498</DistanceMeters>
          </Trackpoint>
          <Trackpoint>
            <Time>2021-10-09T07:43:42.000Z</Time>
            <Position>
              <LatitudeDegrees>39.563551582396030426025390625</LatitudeDegrees>
              <LongitudeDegrees>-0.605016164481639862060546875</LongitudeDegrees>
            </Position>
            <AltitudeMeters>101</AltitudeMeters>
            <DistanceMeters>24651.382902511</DistanceMeters>
          </Trackpoint>
          <Trackpoint>
            <Time>2021-10-09T07:43:43.000Z</Time>
            <Position>
              <LatitudeDegrees>39.56361494958400726318359375</LatitudeDegrees>
              <LongitudeDegrees>-0.605073161423206329345703125</LongitudeDegrees>
            </Position>
            <AltitudeMeters>101</AltitudeMeters>
            <DistanceMeters>24659.965871906</DistanceMeters>
          </Trackpoint>
          <Trackpoint>
            <Time>2021-10-09T07:43:44.000Z</Time>
            <Position>
              <LatitudeDegrees>39.56365711055696010589599609375</LatitudeDegrees>
              <LongitudeDegrees>-0.60511029325425624847412109375</LongitudeDegrees>
            </Position>
            <AltitudeMeters>101.1999969482421875</AltitudeMeters>
            <DistanceMeters>24665.637303144</DistanceMeters>
          </Trackpoint>
          <Trackpoint>
            <Time>2021-10-09T07:43:45.000Z</Time>
            <Position>
              <LatitudeDegrees>39.563711173832416534423828125</LatitudeDegrees>
              <LongitudeDegrees>-0.605155639350414276123046875</LongitudeDegrees>
            </Position>
            <AltitudeMeters>101.1999969482421875</AltitudeMeters>
            <DistanceMeters>24672.803476791</DistanceMeters>
          </Trackpoint>
          <Trackpoint>
            <Time>2021-10-09T07:43:46.000Z</Time>
            <Position>
              <LatitudeDegrees>39.5637649856507778167724609375</LatitudeDegrees>
              <LongitudeDegrees>-0.6052003987133502960205078125</LongitudeDegrees>
            </Position>
            <AltitudeMeters>101.40000152587890625</AltitudeMeters>
            <DistanceMeters>24679.91843347</DistanceMeters>
          </Trackpoint>
          <Trackpoint>
            <Time>2021-10-09T07:43:47.000Z</Time>
            <Position>
              <LatitudeDegrees>39.56381971947848796844482421875</LatitudeDegrees>
              <LongitudeDegrees>-0.6052470020949840545654296875</LongitudeDegrees>
            </Position>
            <AltitudeMeters>101.59999847412109375</AltitudeMeters>
            <DistanceMeters>24687.205191974</DistanceMeters>
          </Trackpoint>
          <Trackpoint>
            <Time>2021-10-09T07:43:48.000Z</Time>
            <Position>
              <LatitudeDegrees>39.56387470476329326629638671875</LatitudeDegrees>
              <LongitudeDegrees>-0.60529410839080810546875</LongitudeDegrees>
            </Position>
            <AltitudeMeters>101.59999847412109375</AltitudeMeters>
            <DistanceMeters>24694.540121793</DistanceMeters>
          </Trackpoint>
          <Trackpoint>
            <Time>2021-10-09T07:43:49.000Z</Time>
            <Position>
              <LatitudeDegrees>39.56393052823841571807861328125</LatitudeDegrees>
              <LongitudeDegrees>-0.605342388153076171875</LongitudeDegrees>
            </Position>
            <AltitudeMeters>101.59999847412109375</AltitudeMeters>
            <DistanceMeters>24702.008036637</DistanceMeters>
          </Trackpoint>
          <Trackpoint>
            <Time>2021-10-09T07:43:50.000Z</Time>
            <Position>
              <LatitudeDegrees>39.56398702226579189300537109375</LatitudeDegrees>
              <LongitudeDegrees>-0.60538957826793193817138671875</LongitudeDegrees>
            </Position>
            <AltitudeMeters>101.59999847412109375</AltitudeMeters>
            <DistanceMeters>24709.486826211</DistanceMeters>
          </Trackpoint>
          <Trackpoint>
            <Time>2021-10-09T07:43:51.000Z</Time>
            <Position>
              <LatitudeDegrees>39.56404435448348522186279296875</LatitudeDegrees>
              <LongitudeDegrees>-0.605437941849231719970703125</LongitudeDegrees>
            </Position>
            <AltitudeMeters>101.59999847412109375</AltitudeMeters>
            <DistanceMeters>24717.098460101</DistanceMeters>
          </Trackpoint>
          <Trackpoint>
            <Time>2021-10-09T07:43:52.000Z</Time>
            <Position>
              <LatitudeDegrees>39.5640995912253856658935546875</LatitudeDegrees>
              <LongitudeDegrees>-0.6054867245256900787353515625</LongitudeDegrees>
            </Position>
            <AltitudeMeters>101.59999847412109375</AltitudeMeters>
            <DistanceMeters>24724.536083935</DistanceMeters>
          </Trackpoint>
          <Trackpoint>
            <Time>2021-10-09T07:43:53.000Z</Time>
            <Position>
              <LatitudeDegrees>39.56415273249149322509765625</LatitudeDegrees>
              <LongitudeDegrees>-0.605533160269260406494140625</LongitudeDegrees>
            </Position>
            <AltitudeMeters>101.59999847412109375</AltitudeMeters>
            <DistanceMeters>24731.667520714</DistanceMeters>
          </Trackpoint>
          <Trackpoint>
            <Time>2021-10-09T07:43:54.000Z</Time>
            <Position>
              <LatitudeDegrees>39.564205706119537353515625</LatitudeDegrees>
              <LongitudeDegrees>-0.60557750053703784942626953125</LongitudeDegrees>
            </Position>
            <AltitudeMeters>101.59999847412109375</AltitudeMeters>
            <DistanceMeters>24738.684070918</DistanceMeters>
          </Trackpoint>
          <Trackpoint>
            <Time>2021-10-09T07:43:55.000Z</Time>
            <Position>
              <LatitudeDegrees>39.5642568357288837432861328125</LatitudeDegrees>
              <LongitudeDegrees>-0.60562142170965671539306640625</LongitudeDegrees>
            </Position>
            <AltitudeMeters>101.59999847412109375</AltitudeMeters>
            <DistanceMeters>24745.509476721</DistanceMeters>
          </Trackpoint>
          <Trackpoint>
            <Time>2021-10-09T07:43:56.000Z</Time>
            <Position>
              <LatitudeDegrees>39.5643081329762935638427734375</LatitudeDegrees>
              <LongitudeDegrees>-0.605666935443878173828125</LongitudeDegrees>
            </Position>
            <AltitudeMeters>101.59999847412109375</AltitudeMeters>
            <DistanceMeters>24752.426873274</DistanceMeters>
          </Trackpoint>
          <Trackpoint>
            <Time>2021-10-09T07:43:57.000Z</Time>
            <Position>
              <LatitudeDegrees>39.5643584243953227996826171875</LatitudeDegrees>
              <LongitudeDegrees>-0.60570842586457729339599609375</LongitudeDegrees>
            </Position>
            <AltitudeMeters>101.59999847412109375</AltitudeMeters>
            <DistanceMeters>24759.061071989</DistanceMeters>
          </Trackpoint>
          <Trackpoint>
            <Time>2021-10-09T07:43:58.000Z</Time>
            <Position>
              <LatitudeDegrees>39.56440947018563747406005859375</LatitudeDegrees>
              <LongitudeDegrees>-0.60575075447559356689453125</LongitudeDegrees>
            </Position>
            <AltitudeMeters>101.59999847412109375</AltitudeMeters>
            <DistanceMeters>24765.804621868</DistanceMeters>
          </Trackpoint>
          <Trackpoint>
            <Time>2021-10-09T07:43:59.000Z</Time>
            <Position>
              <LatitudeDegrees>39.56446244381368160247802734375</LatitudeDegrees>
              <LongitudeDegrees>-0.60579291544854640960693359375</LongitudeDegrees>
            </Position>
            <AltitudeMeters>101.59999847412109375</AltitudeMeters>
            <DistanceMeters>24772.722018422</DistanceMeters>
          </Trackpoint>
          <Trackpoint>
            <Time>2021-10-09T07:44:00.000Z</Time>
            <Position>
              <LatitudeDegrees>39.564513824880123138427734375</LatitudeDegrees>
              <LongitudeDegrees>-0.6058367528021335601806640625</LongitudeDegrees>
            </Position>
            <AltitudeMeters>101.59999847412109375</AltitudeMeters>
            <DistanceMeters>24779.567900158</DistanceMeters>
          </Trackpoint>
          <Trackpoint>
            <Time>2021-10-09T07:44:01.000Z</Time>
            <Position>
              <LatitudeDegrees>39.56456570886075496673583984375</LatitudeDegrees>
              <LongitudeDegrees>-0.60588243417441844940185546875</LongitudeDegrees>
            </Position>
            <AltitudeMeters>101.8000030517578125</AltitudeMeters>
            <DistanceMeters>24786.547028494</DistanceMeters>
          </Trackpoint>
          <Trackpoint>
            <Time>2021-10-09T07:44:02.000Z</Time>
            <Position>
              <LatitudeDegrees>39.564618766307830810546875</LatitudeDegrees>
              <LongitudeDegrees>-0.60592702589929103851318359375</LongitudeDegrees>
            </Position>
            <AltitudeMeters>102</AltitudeMeters>
            <DistanceMeters>24793.583498429</DistanceMeters>
          </Trackpoint>
          <Trackpoint>
            <Time>2021-10-09T07:44:03.000Z</Time>
            <Position>
              <LatitudeDegrees>39.56466830335557460784912109375</LatitudeDegrees>
              <LongitudeDegrees>-0.6059705279767513275146484375</LongitudeDegrees>
            </Position>
            <AltitudeMeters>102</AltitudeMeters>
            <DistanceMeters>24800.242152598</DistanceMeters>
          </Trackpoint>
          <Trackpoint>
            <Time>2021-10-09T07:44:04.000Z</Time>
            <Position>
              <LatitudeDegrees>39.56471624784171581268310546875</LatitudeDegrees>
              <LongitudeDegrees>-0.6060094200074672698974609375</LongitudeDegrees>
            </Position>
            <AltitudeMeters>102.1999969482421875</AltitudeMeters>
            <DistanceMeters>24806.535475669</DistanceMeters>
          </Trackpoint>
          <Trackpoint>
            <Time>2021-10-09T07:44:05.000Z</Time>
            <Position>
              <LatitudeDegrees>39.5647614262998104095458984375</LatitudeDegrees>
              <LongitudeDegrees>-0.60605141334235668182373046875</LongitudeDegrees>
            </Position>
            <AltitudeMeters>102.40000152587890625</AltitudeMeters>
            <DistanceMeters>24812.720977581</DistanceMeters>
          </Trackpoint>
          <Trackpoint>
            <Time>2021-10-09T07:44:06.000Z</Time>
            <Position>
              <LatitudeDegrees>39.5648043416440486907958984375</LatitudeDegrees>
              <LongitudeDegrees>-0.60609349049627780914306640625</LongitudeDegrees>
            </Position>
            <AltitudeMeters>102.59999847412109375</AltitudeMeters>
            <DistanceMeters>24818.708414719</DistanceMeters>
          </Trackpoint>
          <Trackpoint>
            <Time>2021-10-09T07:44:07.000Z</Time>
            <Position>
              <LatitudeDegrees>39.56484432332217693328857421875</LatitudeDegrees>
              <LongitudeDegrees>-0.6061371602118015289306640625</LongitudeDegrees>
            </Position>
            <AltitudeMeters>103.1999969482421875</AltitudeMeters>
            <DistanceMeters>24824.526036785</DistanceMeters>
          </Trackpoint>
          <Trackpoint>
            <Time>2021-10-09T07:44:08.000Z</Time>
            <Position>
              <LatitudeDegrees>39.56488505937159061431884765625</LatitudeDegrees>
              <LongitudeDegrees>-0.60618133284151554107666015625</LongitudeDegrees>
            </Position>
            <AltitudeMeters>103.8000030517578125</AltitudeMeters>
            <DistanceMeters>24830.436056725</DistanceMeters>
          </Trackpoint>
          <Trackpoint>
            <Time>2021-10-09T07:44:09.000Z</Time>
            <Position>
              <LatitudeDegrees>39.5649250410497188568115234375</LatitudeDegrees>
              <LongitudeDegrees>-0.606226511299610137939453125</LongitudeDegrees>
            </Position>
            <AltitudeMeters>104</AltitudeMeters>
            <DistanceMeters>24836.338432088</DistanceMeters>
          </Trackpoint>
          <Trackpoint>
            <Time>2021-10-09T07:44:10.000Z</Time>
            <Position>
              <LatitudeDegrees>39.56496384926140308380126953125</LatitudeDegrees>
              <LongitudeDegrees>-0.6062736175954341888427734375</LongitudeDegrees>
            </Position>
            <AltitudeMeters>104.40000152587890625</AltitudeMeters>
            <DistanceMeters>24842.254560576</DistanceMeters>
          </Trackpoint>
          <Trackpoint>
            <Time>2021-10-09T07:44:11.000Z</Time>
            <Position>
              <LatitudeDegrees>39.565000645816326141357421875</LatitudeDegrees>
              <LongitudeDegrees>-0.6063232384622097015380859375</LongitudeDegrees>
            </Position>
            <AltitudeMeters>104.59999847412109375</AltitudeMeters>
            <DistanceMeters>24848.162288182</DistanceMeters>
          </Trackpoint>
          <Trackpoint>
            <Time>2021-10-09T07:44:12.000Z</Time>
            <Position>
              <LatitudeDegrees>39.56503593362867832183837890625</LatitudeDegrees>
              <LongitudeDegrees>-0.60637612827122211456298828125</LongitudeDegrees>
            </Position>
            <AltitudeMeters>104.8000030517578125</AltitudeMeters>
            <DistanceMeters>24854.164035838</DistanceMeters>
          </Trackpoint>
          <Trackpoint>
            <Time>2021-10-09T07:44:13.000Z</Time>
            <Position>
              <LatitudeDegrees>39.56507004797458648681640625</LatitudeDegrees>
              <LongitudeDegrees>-0.60642943717539310455322265625</LongitudeDegrees>
            </Position>
            <AltitudeMeters>105.40000152587890625</AltitudeMeters>
            <DistanceMeters>24860.109094223</DistanceMeters>
          </Trackpoint>
          <Trackpoint>
            <Time>2021-10-09T07:44:14.000Z</Time>
            <Position>
              <LatitudeDegrees>39.56510365940630435943603515625</LatitudeDegrees>
              <LongitudeDegrees>-0.60648500919342041015625</LongitudeDegrees>
            </Position>
            <AltitudeMeters>105.8000030517578125</AltitudeMeters>
            <DistanceMeters>24866.169981202</DistanceMeters>
          </Trackpoint>
          <Trackpoint>
            <Time>2021-10-09T07:44:15.000Z</Time>
            <Position>
              <LatitudeDegrees>39.56514070741832256317138671875</LatitudeDegrees>
              <LongitudeDegrees>-0.60655298642814159393310546875</LongitudeDegrees>
            </Position>
            <AltitudeMeters>106</AltitudeMeters>
            <DistanceMeters>24873.312805007</DistanceMeters>
          </Trackpoint>
          <Trackpoint>
            <Time>2021-10-09T07:44:16.000Z</Time>
            <Position>
              <LatitudeDegrees>39.56516367383301258087158203125</LatitudeDegrees>
              <LongitudeDegrees>-0.606599338352680206298828125</LongitudeDegrees>
            </Position>
            <AltitudeMeters>106.1999969482421875</AltitudeMeters>
            <DistanceMeters>24878.040324357</DistanceMeters>
          </Trackpoint>
          <Trackpoint>
            <Time>2021-10-09T07:44:17.000Z</Time>
            <Position>
              <LatitudeDegrees>39.565193094313144683837890625</LatitudeDegrees>
              <LongitudeDegrees>-0.60665776021778583526611328125</LongitudeDegrees>
            </Position>
            <AltitudeMeters>106.59999847412109375</AltitudeMeters>
            <DistanceMeters>24884.027007362</DistanceMeters>
          </Trackpoint>
          <Trackpoint>
            <Time>2021-10-09T07:44:18.000Z</Time>
            <Position>
              <LatitudeDegrees>39.5652224309742450714111328125</LatitudeDegrees>
              <LongitudeDegrees>-0.6067197024822235107421875</LongitudeDegrees>
            </Position>
            <AltitudeMeters>106.59999847412109375</AltitudeMeters>
            <DistanceMeters>24890.26411962</DistanceMeters>
          </Trackpoint>
          <Trackpoint>
            <Time>2021-10-09T07:44:19.000Z</Time>
            <Position>
              <LatitudeDegrees>39.5652526058256626129150390625</LatitudeDegrees>
              <LongitudeDegrees>-0.60678206384181976318359375</LongitudeDegrees>
            </Position>
            <AltitudeMeters>106.8000030517578125</AltitudeMeters>
            <DistanceMeters>24896.581788326</DistanceMeters>
          </Trackpoint>
          <Trackpoint>
            <Time>2021-10-09T07:44:20.000Z</Time>
            <Position>
              <LatitudeDegrees>39.56528127193450927734375</LatitudeDegrees>
              <LongitudeDegrees>-0.60684333555400371551513671875</LongitudeDegrees>
            </Position>
            <AltitudeMeters>107</AltitudeMeters>
            <DistanceMeters>24902.731419222</DistanceMeters>
          </Trackpoint>
          <Trackpoint>
            <Time>2021-10-09T07:44:21.000Z</Time>
            <Position>
              <LatitudeDegrees>39.56531169824302196502685546875</LatitudeDegrees>
              <LongitudeDegrees>-0.60690636746585369110107421875</LongitudeDegrees>
            </Position>
            <AltitudeMeters>107.1999969482421875</AltitudeMeters>
            <DistanceMeters>24909.113083954</DistanceMeters>
          </Trackpoint>
          <Trackpoint>
            <Time>2021-10-09T07:44:22.000Z</Time>
            <Position>
              <LatitudeDegrees>39.5653448067605495452880859375</LatitudeDegrees>
              <LongitudeDegrees>-0.60697115957736968994140625</LongitudeDegrees>
            </Position>
            <AltitudeMeters>107.1999969482421875</AltitudeMeters>
            <DistanceMeters>24915.78257843</DistanceMeters>
          </Trackpoint>
          <Trackpoint>
            <Time>2021-10-09T07:44:23.000Z</Time>
            <Position>
              <LatitudeDegrees>39.565380178391933441162109375</LatitudeDegrees>
              <LongitudeDegrees>-0.60703829862177371978759765625</LongitudeDegrees>
            </Position>
            <AltitudeMeters>107.40000152587890625</AltitudeMeters>
            <DistanceMeters>24922.760412778</DistanceMeters>
          </Trackpoint>
          <Trackpoint>
            <Time>2021-10-09T07:44:24.000Z</Time>
            <Position>
              <LatitudeDegrees>39.565418064594268798828125</LatitudeDegrees>
              <LongitudeDegrees>-0.60710820369422435760498046875</LongitudeDegrees>
            </Position>
            <AltitudeMeters>107.40000152587890625</AltitudeMeters>
            <DistanceMeters>24930.092264186</DistanceMeters>
          </Trackpoint>
          <Trackpoint>
            <Time>2021-10-09T07:44:25.000Z</Time>
            <Position>
              <LatitudeDegrees>39.56545955501496791839599609375</LatitudeDegrees>
              <LongitudeDegrees>-0.6071761809289455413818359375</LongitudeDegrees>
            </Position>
            <AltitudeMeters>107.40000152587890625</AltitudeMeters>
            <DistanceMeters>24937.531102029</DistanceMeters>
          </Trackpoint>
          <Trackpoint>
            <Time>2021-10-09T07:44:26.000Z</Time>
            <Position>
              <LatitudeDegrees>39.56550247035920619964599609375</LatitudeDegrees>
              <LongitudeDegrees>-0.60724482871592044830322265625</LongitudeDegrees>
            </Position>
            <AltitudeMeters>107.40000152587890625</AltitudeMeters>
            <DistanceMeters>24945.114210019</DistanceMeters>
          </Trackpoint>
          <Trackpoint>
            <Time>2021-10-09T07:44:27.000Z</Time>
            <Position>
              <LatitudeDegrees>39.565548487007617950439453125</LatitudeDegrees>
              <LongitudeDegrees>-0.60731490142643451690673828125</LongitudeDegrees>
            </Position>
            <AltitudeMeters>107.1999969482421875</AltitudeMeters>
            <DistanceMeters>24953.012296375</DistanceMeters>
          </Trackpoint>
          <Trackpoint>
            <Time>2021-10-09T07:44:28.000Z</Time>
            <Position>
              <LatitudeDegrees>39.56559735350310802459716796875</LatitudeDegrees>
              <LongitudeDegrees>-0.607385896146297454833984375</LongitudeDegrees>
            </Position>
            <AltitudeMeters>107.1999969482421875</AltitudeMeters>
            <DistanceMeters>24961.178514259</DistanceMeters>
          </Trackpoint>
          <Trackpoint>
            <Time>2021-10-09T07:44:29.000Z</Time>
            <Position>
              <LatitudeDegrees>39.565648734569549560546875</LatitudeDegrees>
              <LongitudeDegrees>-0.60745890252292156219482421875</LongitudeDegrees>
            </Position>
            <AltitudeMeters>107</AltitudeMeters>
            <DistanceMeters>24969.660946051</DistanceMeters>
          </Trackpoint>
          <Trackpoint>
            <Time>2021-10-09T07:44:30.000Z</Time>
            <Position>
              <LatitudeDegrees>39.56570195965468883514404296875</LatitudeDegrees>
              <LongitudeDegrees>-0.6075319088995456695556640625</LongitudeDegrees>
            </Position>
            <AltitudeMeters>106.8000030517578125</AltitudeMeters>
            <DistanceMeters>24978.282754985</DistanceMeters>
          </Trackpoint>
          <Trackpoint>
            <Time>2021-10-09T07:44:31.000Z</Time>
            <Position>
              <LatitudeDegrees>39.56575761549174785614013671875</LatitudeDegrees>
              <LongitudeDegrees>-0.6076073460280895233154296875</LongitudeDegrees>
            </Position>
            <AltitudeMeters>106.59999847412109375</AltitudeMeters>
            <DistanceMeters>24987.242519467</DistanceMeters>
          </Trackpoint>
          <Trackpoint>
            <Time>2021-10-09T07:44:32.000Z</Time>
            <Position>
              <LatitudeDegrees>39.565814025700092315673828125</LatitudeDegrees>
              <LongitudeDegrees>-0.60768387280404567718505859375</LongitudeDegrees>
            </Position>
            <AltitudeMeters>106.59999847412109375</AltitudeMeters>
            <DistanceMeters>24996.327391437</DistanceMeters>
          </Trackpoint>
          <Trackpoint>
            <Time>2021-10-09T07:44:33.000Z</Time>
            <Position>
              <LatitudeDegrees>39.565870352089405059814453125</LatitudeDegrees>
              <LongitudeDegrees>-0.60775964520871639251708984375</LongitudeDegrees>
            </Position>
            <AltitudeMeters>106.1999969482421875</AltitudeMeters>
            <DistanceMeters>25005.359429446</DistanceMeters>
          </Trackpoint>
          <Trackpoint>
            <Time>2021-10-09T07:44:34.000Z</Time>
            <Position>
              <LatitudeDegrees>39.56592760048806667327880859375</LatitudeDegrees>
              <LongitudeDegrees>-0.6078349985182285308837890625</LongitudeDegrees>
            </Position>
            <AltitudeMeters>105.8000030517578125</AltitudeMeters>
            <DistanceMeters>25014.43684359</DistanceMeters>
          </Trackpoint>
          <Trackpoint>
            <Time>2021-10-09T07:44:35.000Z</Time>
            <Position>
              <LatitudeDegrees>39.56598442979156970977783203125</LatitudeDegrees>
              <LongitudeDegrees>-0.6079124473035335540771484375</LongitudeDegrees>
            </Position>
            <AltitudeMeters>105.59999847412109375</AltitudeMeters>
            <DistanceMeters>25023.610736573</DistanceMeters>
          </Trackpoint>
          <Trackpoint>
            <Time>2021-10-09T07:44:36.000Z</Time>
            <Position>
              <LatitudeDegrees>39.566040337085723876953125</LatitudeDegrees>
              <LongitudeDegrees>-0.607989393174648284912109375</LongitudeDegrees>
            </Position>
            <AltitudeMeters>105.40000152587890625</AltitudeMeters>
            <DistanceMeters>25032.68367308</DistanceMeters>
          </Trackpoint>
          <Trackpoint>
            <Time>2021-10-09T07:44:37.000Z</Time>
            <Position>
              <LatitudeDegrees>39.56609507091343402862548828125</LatitudeDegrees>
              <LongitudeDegrees>-0.60806290246546268463134765625</LongitudeDegrees>
            </Position>
            <AltitudeMeters>105.1999969482421875</AltitudeMeters>
            <DistanceMeters>25041.452430171</DistanceMeters>
          </Trackpoint>
          <Trackpoint>
            <Time>2021-10-09T07:44:38.000Z</Time>
            <Position>
              <LatitudeDegrees>39.56615944392979145050048828125</LatitudeDegrees>
              <LongitudeDegrees>-0.6081494875252246856689453125</LongitudeDegrees>
            </Position>
            <AltitudeMeters>104.59999847412109375</AltitudeMeters>
            <DistanceMeters>25051.773223829</DistanceMeters>
          </Trackpoint>
          <Trackpoint>
            <Time>2021-10-09T07:44:39.000Z</Time>
            <Position>
              <LatitudeDegrees>39.566201269626617431640625</LatitudeDegrees>
              <LongitudeDegrees>-0.6082054786384105682373046875</LongitudeDegrees>
            </Position>
            <AltitudeMeters>104.1999969482421875</AltitudeMeters>
            <DistanceMeters>25058.462321584</DistanceMeters>
          </Trackpoint>
          <Trackpoint>
            <Time>2021-10-09T07:44:40.000Z</Time>
            <Position>
              <LatitudeDegrees>39.5662520639598369598388671875</LatitudeDegrees>
              <LongitudeDegrees>-0.608275718986988067626953125</LongitudeDegrees>
            </Position>
            <AltitudeMeters>104</AltitudeMeters>
            <DistanceMeters>25066.725275535</DistanceMeters>
          </Trackpoint>
          <Trackpoint>
            <Time>2021-10-09T07:44:41.000Z</Time>
            <Position>
              <LatitudeDegrees>39.566303528845310211181640625</LatitudeDegrees>
              <LongitudeDegrees>-0.60834453441202640533447265625</LongitudeDegrees>
            </Position>
            <AltitudeMeters>103.8000030517578125</AltitudeMeters>
            <DistanceMeters>25074.952086761</DistanceMeters>
          </Trackpoint>
          <Trackpoint>
            <Time>2021-10-09T07:44:42.000Z</Time>
            <Position>
              <LatitudeDegrees>39.56635524518787860870361328125</LatitudeDegrees>
              <LongitudeDegrees>-0.6084106676280498504638671875</LongitudeDegrees>
            </Position>
            <AltitudeMeters>103.59999847412109375</AltitudeMeters>
            <DistanceMeters>25083.035503931</DistanceMeters>
          </Trackpoint>
          <Trackpoint>
            <Time>2021-10-09T07:44:43.000Z</Time>
            <Position>
              <LatitudeDegrees>39.566405117511749267578125</LatitudeDegrees>
              <LongitudeDegrees>-0.60847629792988300323486328125</LongitudeDegrees>
            </Position>
            <AltitudeMeters>103.59999847412109375</AltitudeMeters>
            <DistanceMeters>25090.942731593</DistanceMeters>
          </Trackpoint>
          <Trackpoint>
            <Time>2021-10-09T07:44:44.000Z</Time>
            <Position>
              <LatitudeDegrees>39.5664549060165882110595703125</LatitudeDegrees>
              <LongitudeDegrees>-0.60854251496493816375732421875</LongitudeDegrees>
            </Position>
            <AltitudeMeters>103.59999847412109375</AltitudeMeters>
            <DistanceMeters>25098.87959579</DistanceMeters>
          </Trackpoint>
          <Trackpoint>
            <Time>2021-10-09T07:44:45.000Z</Time>
            <Position>
              <LatitudeDegrees>39.56650310195982456207275390625</LatitudeDegrees>
              <LongitudeDegrees>-0.608608312904834747314453125</LongitudeDegrees>
            </Position>
            <AltitudeMeters>103.59999847412109375</AltitudeMeters>
            <DistanceMeters>25106.667149539</DistanceMeters>
          </Trackpoint>
          <Trackpoint>
            <Time>2021-10-09T07:44:46.000Z</Time>
            <Position>
              <LatitudeDegrees>39.5665514655411243438720703125</LatitudeDegrees>
              <LongitudeDegrees>-0.60867226682603359222412109375</LongitudeDegrees>
            </Position>
            <AltitudeMeters>103.40000152587890625</AltitudeMeters>
            <DistanceMeters>25114.353160214</DistanceMeters>
          </Trackpoint>
          <Trackpoint>
            <Time>2021-10-09T07:44:47.000Z</Time>
            <Position>
              <LatitudeDegrees>39.56659966148436069488525390625</LatitudeDegrees>
              <LongitudeDegrees>-0.60873747803270816802978515625</LongitudeDegrees>
            </Position>
            <AltitudeMeters>103.40000152587890625</AltitudeMeters>
            <DistanceMeters>25122.104684494</DistanceMeters>
          </Trackpoint>
          <Trackpoint>
            <Time>2021-10-09T07:44:48.000Z</Time>
            <Position>
              <LatitudeDegrees>39.566648863255977630615234375</LatitudeDegrees>
              <LongitudeDegrees>-0.608802773058414459228515625</LongitudeDegrees>
            </Position>
            <AltitudeMeters>103.1999969482421875</AltitudeMeters>
            <DistanceMeters>25129.939635653</DistanceMeters>
          </Trackpoint>
          <Trackpoint>
            <Time>2021-10-09T07:44:49.000Z</Time>
            <Position>
              <LatitudeDegrees>39.56669739447534084320068359375</LatitudeDegrees>
              <LongitudeDegrees>-0.60886739753186702728271484375</LongitudeDegrees>
            </Position>
            <AltitudeMeters>103.40000152587890625</AltitudeMeters>
            <DistanceMeters>25137.680668354</DistanceMeters>
          </Trackpoint>
          <Trackpoint>
            <Time>2021-10-09T07:44:50.000Z</Time>
            <Position>
              <LatitudeDegrees>39.566745758056640625</LatitudeDegrees>
              <LongitudeDegrees>-0.608929507434368133544921875</LongitudeDegrees>
            </Position>
            <AltitudeMeters>103.40000152587890625</AltitudeMeters>
            <DistanceMeters>25145.255436055</DistanceMeters>
          </Trackpoint>
          <Trackpoint>
            <Time>2021-10-09T07:44:51.000Z</Time>
            <Position>
              <LatitudeDegrees>39.56679428927600383758544921875</LatitudeDegrees>
              <LongitudeDegrees>-0.60899312607944011688232421875</LongitudeDegrees>
            </Position>
            <AltitudeMeters>103.40000152587890625</AltitudeMeters>
            <DistanceMeters>25152.934394264</DistanceMeters>
          </Trackpoint>
          <Trackpoint>
            <Time>2021-10-09T07:44:52.000Z</Time>
            <Position>
              <LatitudeDegrees>39.5668434910476207733154296875</LatitudeDegrees>
              <LongitudeDegrees>-0.6090557388961315155029296875</LongitudeDegrees>
            </Position>
            <AltitudeMeters>103.40000152587890625</AltitudeMeters>
            <DistanceMeters>25160.605704986</DistanceMeters>
          </Trackpoint>
          <Trackpoint>
            <Time>2021-10-09T07:44:53.000Z</Time>
            <Position>
              <LatitudeDegrees>39.566889591515064239501953125</LatitudeDegrees>
              <LongitudeDegrees>-0.6091181002557277679443359375</LongitudeDegrees>
            </Position>
            <AltitudeMeters>103.40000152587890625</AltitudeMeters>
            <DistanceMeters>25168.019006898</DistanceMeters>
          </Trackpoint>
          <Trackpoint>
            <Time>2021-10-09T07:44:54.000Z</Time>
            <Position>
              <LatitudeDegrees>39.56693686544895172119140625</LatitudeDegrees>
              <LongitudeDegrees>-0.60918071307241916656494140625</LongitudeDegrees>
            </Position>
            <AltitudeMeters>103.40000152587890625</AltitudeMeters>
            <DistanceMeters>25175.538736859</DistanceMeters>
          </Trackpoint>
          <Trackpoint>
            <Time>2021-10-09T07:44:55.000Z</Time>
            <Position>
              <LatitudeDegrees>39.56698154099285602569580078125</LatitudeDegrees>
              <LongitudeDegrees>-0.6092409789562225341796875</LongitudeDegrees>
            </Position>
            <AltitudeMeters>103.40000152587890625</AltitudeMeters>
            <DistanceMeters>25182.713096463</DistanceMeters>
          </Trackpoint>
          <Trackpoint>
            <Time>2021-10-09T07:44:56.000Z</Time>
            <Position>
              <LatitudeDegrees>39.56702462397515773773193359375</LatitudeDegrees>
              <LongitudeDegrees>-0.6092999875545501708984375</LongitudeDegrees>
            </Position>
            <AltitudeMeters>103.40000152587890625</AltitudeMeters>
            <DistanceMeters>25189.687047404</DistanceMeters>
          </Trackpoint>
          <Trackpoint>
            <Time>2021-10-09T07:44:57.000Z</Time>
            <Position>
              <LatitudeDegrees>39.56706787459552288055419921875</LatitudeDegrees>
              <LongitudeDegrees>-0.60935857705771923065185546875</LongitudeDegrees>
            </Position>
            <AltitudeMeters>103.59999847412109375</AltitudeMeters>
            <DistanceMeters>25196.646740648</DistanceMeters>
          </Trackpoint>
          <Trackpoint>
            <Time>2021-10-09T07:44:58.000Z</Time>
            <Position>
              <LatitudeDegrees>39.5671137236058712005615234375</LatitudeDegrees>
              <LongitudeDegrees>-0.60941708274185657501220703125</LongitudeDegrees>
            </Position>
            <AltitudeMeters>103.59999847412109375</AltitudeMeters>
            <DistanceMeters>25203.804718976</DistanceMeters>
          </Trackpoint>
          <Trackpoint>
            <Time>2021-10-09T07:44:59.000Z</Time>
            <Position>
              <LatitudeDegrees>39.5671589858829975128173828125</LatitudeDegrees>
              <LongitudeDegrees>-0.60947642661631107330322265625</LongitudeDegrees>
            </Position>
            <AltitudeMeters>103.59999847412109375</AltitudeMeters>
            <DistanceMeters>25210.967741687</DistanceMeters>
          </Trackpoint>
          <Trackpoint>
            <Time>2021-10-09T07:45:00.000Z</Time>
            <Position>
              <LatitudeDegrees>39.56720181740820407867431640625</LatitudeDegrees>
              <LongitudeDegrees>-0.60953660868108272552490234375</LongitudeDegrees>
            </Position>
            <AltitudeMeters>103.8000030517578125</AltitudeMeters>
            <DistanceMeters>25217.99586506</DistanceMeters>
          </Trackpoint>
          <Trackpoint>
            <Time>2021-10-09T07:45:01.000Z</Time>
            <Position>
              <LatitudeDegrees>39.56724372692406177520751953125</LatitudeDegrees>
              <LongitudeDegrees>-0.609602071344852447509765625</LongitudeDegrees>
            </Position>
            <AltitudeMeters>103.8000030517578125</AltitudeMeters>
            <DistanceMeters>25225.297479356</DistanceMeters>
          </Trackpoint>
          <Trackpoint>
            <Time>2021-10-09T07:45:02.000Z</Time>
            <Position>
              <LatitudeDegrees>39.56728396005928516387939453125</LatitudeDegrees>
              <LongitudeDegrees>-0.6096716411411762237548828125</LongitudeDegrees>
            </Position>
            <AltitudeMeters>103.8000030517578125</AltitudeMeters>
            <DistanceMeters>25232.759950892</DistanceMeters>
          </Trackpoint>
          <Trackpoint>
            <Time>2021-10-09T07:45:03.000Z</Time>
            <Position>
              <LatitudeDegrees>39.567321427166461944580078125</LatitudeDegrees>
              <LongitudeDegrees>-0.609742216765880584716796875</LongitudeDegrees>
            </Position>
            <AltitudeMeters>103.8000030517578125</AltitudeMeters>
            <DistanceMeters>25240.112710079</DistanceMeters>
          </Trackpoint>
          <Trackpoint>
            <Time>2021-10-09T07:45:04.000Z</Time>
            <Position>
              <LatitudeDegrees>39.56735738553106784820556640625</LatitudeDegrees>
              <LongitudeDegrees>-0.6098154745995998382568359375</LongitudeDegrees>
            </Position>
            <AltitudeMeters>104</AltitudeMeters>
            <DistanceMeters>25247.564283071</DistanceMeters>
          </Trackpoint>
          <Trackpoint>
            <Time>2021-10-09T07:45:05.000Z</Time>
            <Position>
              <LatitudeDegrees>39.5673896558582782745361328125</LatitudeDegrees>
              <LongitudeDegrees>-0.60988998971879482269287109375</LongitudeDegrees>
            </Position>
            <AltitudeMeters>104</AltitudeMeters>
            <DistanceMeters>25254.896750265</DistanceMeters>
          </Trackpoint>
          <Trackpoint>
            <Time>2021-10-09T07:45:06.000Z</Time>
            <Position>
              <LatitudeDegrees>39.56741991452872753143310546875</LatitudeDegrees>
              <LongitudeDegrees>-0.60996718704700469970703125</LongitudeDegrees>
            </Position>
            <AltitudeMeters>104.1999969482421875</AltitudeMeters>
            <DistanceMeters>25262.327693506</DistanceMeters>
          </Trackpoint>
          <Trackpoint>
            <Time>2021-10-09T07:45:07.000Z</Time>
            <Position>
              <LatitudeDegrees>39.56744791008532047271728515625</LatitudeDegrees>
              <LongitudeDegrees>-0.61004706658422946929931640625</LongitudeDegrees>
            </Position>
            <AltitudeMeters>104.1999969482421875</AltitudeMeters>
            <DistanceMeters>25269.855824733</DistanceMeters>
          </Trackpoint>
          <Trackpoint>
            <Time>2021-10-09T07:45:08.000Z</Time>
            <Position>
              <LatitudeDegrees>39.56747355870902538299560546875</LatitudeDegrees>
              <LongitudeDegrees>-0.6101279519498348236083984375</LongitudeDegrees>
            </Position>
            <AltitudeMeters>104.1999969482421875</AltitudeMeters>
            <DistanceMeters>25277.358723943</DistanceMeters>
          </Trackpoint>
          <Trackpoint>
            <Time>2021-10-09T07:45:09.000Z</Time>
            <Position>
              <LatitudeDegrees>39.56749568693339824676513671875</LatitudeDegrees>
              <LongitudeDegrees>-0.61020883731544017791748046875</LongitudeDegrees>
            </Position>
            <AltitudeMeters>104.1999969482421875</AltitudeMeters>
            <DistanceMeters>25284.722527922</DistanceMeters>
          </Trackpoint>
          <Trackpoint>
            <Time>2021-10-09T07:45:10.000Z</Time>
            <Position>
              <LatitudeDegrees>39.5675194077193737030029296875</LatitudeDegrees>
              <LongitudeDegrees>-0.6103083305060863494873046875</LongitudeDegrees>
            </Position>
            <AltitudeMeters>104.1999969482421875</AltitudeMeters>
            <DistanceMeters>25293.658071325</DistanceMeters>
          </Trackpoint>
          <Trackpoint>
            <Time>2021-10-09T07:45:11.000Z</Time>
            <Position>
              <LatitudeDegrees>39.56753122620284557342529296875</LatitudeDegrees>
              <LongitudeDegrees>-0.6103767268359661102294921875</LongitudeDegrees>
            </Position>
            <AltitudeMeters>104.1999969482421875</AltitudeMeters>
            <DistanceMeters>25299.672594269</DistanceMeters>
          </Trackpoint>
          <Trackpoint>
            <Time>2021-10-09T07:45:12.000Z</Time>
            <Position>
              <LatitudeDegrees>39.56754245795309543609619140625</LatitudeDegrees>
              <LongitudeDegrees>-0.61046532355248928070068359375</LongitudeDegrees>
            </Position>
            <AltitudeMeters>104.1999969482421875</AltitudeMeters>
            <DistanceMeters>25307.376207862</DistanceMeters>
          </Trackpoint>
          <Trackpoint>
            <Time>2021-10-09T07:45:13.000Z</Time>
            <Position>
              <LatitudeDegrees>39.567552097141742706298828125</LatitudeDegrees>
              <LongitudeDegrees>-0.6105540879070758819580078125</LongitudeDegrees>
            </Position>
            <AltitudeMeters>104.40000152587890625</AltitudeMeters>
            <DistanceMeters>25315.066916588</DistanceMeters>
          </Trackpoint>
          <Trackpoint>
            <Time>2021-10-09T07:45:14.000Z</Time>
            <Position>
              <LatitudeDegrees>39.56755721010267734527587890625</LatitudeDegrees>
              <LongitudeDegrees>-0.61064570210874080657958984375</LongitudeDegrees>
            </Position>
            <AltitudeMeters>104.40000152587890625</AltitudeMeters>
            <DistanceMeters>25322.947834414</DistanceMeters>
          </Trackpoint>
          <Trackpoint>
            <Time>2021-10-09T07:45:15.000Z</Time>
            <Position>
              <LatitudeDegrees>39.567560143768787384033203125</LatitudeDegrees>
              <LongitudeDegrees>-0.6107378192245960235595703125</LongitudeDegrees>
            </Position>
            <AltitudeMeters>104.40000152587890625</AltitudeMeters>
            <DistanceMeters>25330.858487342</DistanceMeters>
          </Trackpoint>
          <Trackpoint>
            <Time>2021-10-09T07:45:16.000Z</Time>
            <Position>
              <LatitudeDegrees>39.567560814321041107177734375</LatitudeDegrees>
              <LongitudeDegrees>-0.61083161272108554840087890625</LongitudeDegrees>
            </Position>
            <AltitudeMeters>104.1999969482421875</AltitudeMeters>
            <DistanceMeters>25338.906077557</DistanceMeters>
          </Trackpoint>
          <Trackpoint>
            <Time>2021-10-09T07:45:17.000Z</Time>
            <Position>
              <LatitudeDegrees>39.5675593055784702301025390625</LatitudeDegrees>
              <LongitudeDegrees>-0.61092833988368511199951171875</LongitudeDegrees>
            </Position>
            <AltitudeMeters>104.1999969482421875</AltitudeMeters>
            <DistanceMeters>25347.206648818</DistanceMeters>
          </Trackpoint>
          <Trackpoint>
            <Time>2021-10-09T07:45:18.000Z</Time>
            <Position>
              <LatitudeDegrees>39.5675576291978359222412109375</LatitudeDegrees>
              <LongitudeDegrees>-0.611025989055633544921875</LongitudeDegrees>
            </Position>
            <AltitudeMeters>104</AltitudeMeters>
            <DistanceMeters>25355.586259455</DistanceMeters>
          </Trackpoint>
          <Trackpoint>
            <Time>2021-10-09T07:45:19.000Z</Time>
            <Position>
              <LatitudeDegrees>39.5675544440746307373046875</LatitudeDegrees>
              <LongitudeDegrees>-0.6111253984272480010986328125</LongitudeDegrees>
            </Position>
            <AltitudeMeters>104</AltitudeMeters>
            <DistanceMeters>25364.122811271</DistanceMeters>
          </Trackpoint>
          <Trackpoint>
            <Time>2021-10-09T07:45:20.000Z</Time>
            <Position>
              <LatitudeDegrees>39.56755033694207668304443359375</LatitudeDegrees>
              <LongitudeDegrees>-0.61122380197048187255859375</LongitudeDegrees>
            </Position>
            <AltitudeMeters>103.8000030517578125</AltitudeMeters>
            <DistanceMeters>25372.577519139</DistanceMeters>
          </Trackpoint>
          <Trackpoint>
            <Time>2021-10-09T07:45:21.000Z</Time>
            <Position>
              <LatitudeDegrees>39.5675475709140300750732421875</LatitudeDegrees>
              <LongitudeDegrees>-0.611320696771144866943359375</LongitudeDegrees>
            </Position>
            <AltitudeMeters>103.59999847412109375</AltitudeMeters>
            <DistanceMeters>25380.896563908</DistanceMeters>
          </Trackpoint>
          <Trackpoint>
            <Time>2021-10-09T07:45:22.000Z</Time>
            <Position>
              <LatitudeDegrees>39.56754514016211032867431640625</LatitudeDegrees>
              <LongitudeDegrees>-0.611417256295680999755859375</LongitudeDegrees>
            </Position>
            <AltitudeMeters>103.59999847412109375</AltitudeMeters>
            <DistanceMeters>25389.185159783</DistanceMeters>
          </Trackpoint>
          <Trackpoint>
            <Time>2021-10-09T07:45:23.000Z</Time>
            <Position>
              <LatitudeDegrees>39.56754379905760288238525390625</LatitudeDegrees>
              <LongitudeDegrees>-0.61151188798248767852783203125</LongitudeDegrees>
            </Position>
            <AltitudeMeters>103.40000152587890625</AltitudeMeters>
            <DistanceMeters>25397.305357945</DistanceMeters>
          </Trackpoint>
          <Trackpoint>
            <Time>2021-10-09T07:45:24.000Z</Time>
            <Position>
              <LatitudeDegrees>39.56754212267696857452392578125</LatitudeDegrees>
              <LongitudeDegrees>-0.611604340374469757080078125</LongitudeDegrees>
            </Position>
            <AltitudeMeters>103.1999969482421875</AltitudeMeters>
            <DistanceMeters>25405.239946338</DistanceMeters>
          </Trackpoint>
          <Trackpoint>
            <Time>2021-10-09T07:45:25.000Z</Time>
            <Position>
              <LatitudeDegrees>39.5675398595631122589111328125</LatitudeDegrees>
              <LongitudeDegrees>-0.61169989407062530517578125</LongitudeDegrees>
            </Position>
            <AltitudeMeters>103</AltitudeMeters>
            <DistanceMeters>25413.442023484</DistanceMeters>
          </Trackpoint>
          <Trackpoint>
            <Time>2021-10-09T07:45:26.000Z</Time>
            <Position>
              <LatitudeDegrees>39.56753776408731937408447265625</LatitudeDegrees>
              <LongitudeDegrees>-0.61179838143289089202880859375</LongitudeDegrees>
            </Position>
            <AltitudeMeters>103</AltitudeMeters>
            <DistanceMeters>25421.895663231</DistanceMeters>
          </Trackpoint>
          <Trackpoint>
            <Time>2021-10-09T07:45:27.000Z</Time>
            <Position>
              <LatitudeDegrees>39.567536003887653350830078125</LatitudeDegrees>
              <LongitudeDegrees>-0.6118975393474102020263671875</LongitudeDegrees>
            </Position>
            <AltitudeMeters>102.8000030517578125</AltitudeMeters>
            <DistanceMeters>25430.40572863</DistanceMeters>
          </Trackpoint>
          <Trackpoint>
            <Time>2021-10-09T07:45:28.000Z</Time>
            <Position>
              <LatitudeDegrees>39.56753374077379703521728515625</LatitudeDegrees>
              <LongitudeDegrees>-0.6119971163570880889892578125</LongitudeDegrees>
            </Position>
            <AltitudeMeters>102.59999847412109375</AltitudeMeters>
            <DistanceMeters>25438.953380267</DistanceMeters>
          </Trackpoint>
          <Trackpoint>
            <Time>2021-10-09T07:45:29.000Z</Time>
            <Position>
              <LatitudeDegrees>39.56753055565059185028076171875</LatitudeDegrees>
              <LongitudeDegrees>-0.612097866833209991455078125</LongitudeDegrees>
            </Position>
            <AltitudeMeters>102.59999847412109375</AltitudeMeters>
            <DistanceMeters>25447.604987264</DistanceMeters>
          </Trackpoint>
          <Trackpoint>
            <Time>2021-10-09T07:45:30.000Z</Time>
            <Position>
              <LatitudeDegrees>39.56752770580351352691650390625</LatitudeDegrees>
              <LongitudeDegrees>-0.61219819821417331695556640625</LongitudeDegrees>
            </Position>
            <AltitudeMeters>102.40000152587890625</AltitudeMeters>
            <DistanceMeters>25456.219461608</DistanceMeters>
          </Trackpoint>
          <Trackpoint>
            <Time>2021-10-09T07:45:31.000Z</Time>
            <Position>
              <LatitudeDegrees>39.56752753816545009613037109375</LatitudeDegrees>
              <LongitudeDegrees>-0.612292997539043426513671875</LongitudeDegrees>
            </Position>
            <AltitudeMeters>102.40000152587890625</AltitudeMeters>
            <DistanceMeters>25464.352993438</DistanceMeters>
          </Trackpoint>
          <Trackpoint>
            <Time>2021-10-09T07:45:32.000Z</Time>
            <Position>
              <LatitudeDegrees>39.5675249397754669189453125</LatitudeDegrees>
              <LongitudeDegrees>-0.61238846741616725921630859375</LongitudeDegrees>
            </Position>
            <AltitudeMeters>102.40000152587890625</AltitudeMeters>
            <DistanceMeters>25472.549563986</DistanceMeters>
          </Trackpoint>
          <Trackpoint>
            <Time>2021-10-09T07:45:33.000Z</Time>
            <Position>
              <LatitudeDegrees>39.56752083264291286468505859375</LatitudeDegrees>
              <LongitudeDegrees>-0.61248301528394222259521484375</LongitudeDegrees>
            </Position>
            <AltitudeMeters>102.1999969482421875</AltitudeMeters>
            <DistanceMeters>25480.675320502</DistanceMeters>
          </Trackpoint>
          <Trackpoint>
            <Time>2021-10-09T07:45:34.000Z</Time>
            <Position>
              <LatitudeDegrees>39.56751831807196140289306640625</LatitudeDegrees>
              <LongitudeDegrees>-0.61257521621882915496826171875</LongitudeDegrees>
            </Position>
            <AltitudeMeters>102.1999969482421875</AltitudeMeters>
            <DistanceMeters>25488.591108551</DistanceMeters>
          </Trackpoint>
          <Trackpoint>
            <Time>2021-10-09T07:45:35.000Z</Time>
            <Position>
              <LatitudeDegrees>39.56751764751970767974853515625</LatitudeDegrees>
              <LongitudeDegrees>-0.61266490258276462554931640625</LongitudeDegrees>
            </Position>
            <AltitudeMeters>102.1999969482421875</AltitudeMeters>
            <DistanceMeters>25496.28651246</DistanceMeters>
          </Trackpoint>
          <Trackpoint>
            <Time>2021-10-09T07:45:36.000Z</Time>
            <Position>
              <LatitudeDegrees>39.5675177313387393951416015625</LatitudeDegrees>
              <LongitudeDegrees>-0.6127545051276683807373046875</LongitudeDegrees>
            </Position>
            <AltitudeMeters>102.40000152587890625</AltitudeMeters>
            <DistanceMeters>25503.973697917</DistanceMeters>
          </Trackpoint>
          <Trackpoint>
            <Time>2021-10-09T07:45:37.000Z</Time>
            <Position>
              <LatitudeDegrees>39.567516557872295379638671875</LatitudeDegrees>
              <LongitudeDegrees>-0.61284326948225498199462890625</LongitudeDegrees>
            </Position>
            <AltitudeMeters>102.40000152587890625</AltitudeMeters>
            <DistanceMeters>25511.590668519</DistanceMeters>
          </Trackpoint>
          <Trackpoint>
            <Time>2021-10-09T07:45:38.000Z</Time>
            <Position>
              <LatitudeDegrees>39.5675143785774707794189453125</LatitudeDegrees>
              <LongitudeDegrees>-0.612930022180080413818359375</LongitudeDegrees>
            </Position>
            <AltitudeMeters>102.40000152587890625</AltitudeMeters>
            <DistanceMeters>25519.037998881</DistanceMeters>
          </Trackpoint>
          <Trackpoint>
            <Time>2021-10-09T07:45:39.000Z</Time>
            <Position>
              <LatitudeDegrees>39.56751161254942417144775390625</LatitudeDegrees>
              <LongitudeDegrees>-0.6130140088498592376708984375</LongitudeDegrees>
            </Position>
            <AltitudeMeters>102.40000152587890625</AltitudeMeters>
            <DistanceMeters>25526.251271402</DistanceMeters>
          </Trackpoint>
          <Trackpoint>
            <Time>2021-10-09T07:45:40.000Z</Time>
            <Position>
              <LatitudeDegrees>39.5675100199878215789794921875</LatitudeDegrees>
              <LongitudeDegrees>-0.6130993366241455078125</LongitudeDegrees>
            </Position>
            <AltitudeMeters>102.59999847412109375</AltitudeMeters>
            <DistanceMeters>25533.573879812</DistanceMeters>
          </Trackpoint>
          <Trackpoint>
            <Time>2021-10-09T07:45:41.000Z</Time>
            <Position>
              <LatitudeDegrees>39.56750683486461639404296875</LatitudeDegrees>
              <LongitudeDegrees>-0.6131838262081146240234375</LongitudeDegrees>
            </Position>
            <AltitudeMeters>102.59999847412109375</AltitudeMeters>
            <DistanceMeters>25540.830835498</DistanceMeters>
          </Trackpoint>
          <Trackpoint>
            <Time>2021-10-09T07:45:42.000Z</Time>
            <Position>
              <LatitudeDegrees>39.56750457175076007843017578125</LatitudeDegrees>
              <LongitudeDegrees>-0.61326890252530574798583984375</LongitudeDegrees>
            </Position>
            <AltitudeMeters>102.59999847412109375</AltitudeMeters>
            <DistanceMeters>25548.134922821</DistanceMeters>
          </Trackpoint>
          <Trackpoint>
            <Time>2021-10-09T07:45:43.000Z</Time>
            <Position>
              <LatitudeDegrees>39.5675029791891574859619140625</LatitudeDegrees>
              <LongitudeDegrees>-0.61335188336670398712158203125</LongitudeDegrees>
            </Position>
            <AltitudeMeters>102.8000030517578125</AltitudeMeters>
            <DistanceMeters>25555.256856504</DistanceMeters>
          </Trackpoint>
          <Trackpoint>
            <Time>2021-10-09T07:45:44.000Z</Time>
            <Position>
              <LatitudeDegrees>39.56750188954174518585205078125</LatitudeDegrees>
              <LongitudeDegrees>-0.61343260109424591064453125</LongitudeDegrees>
            </Position>
            <AltitudeMeters>102.8000030517578125</AltitudeMeters>
            <DistanceMeters>25562.184036755</DistanceMeters>
          </Trackpoint>
          <Trackpoint>
            <Time>2021-10-09T07:45:45.000Z</Time>
            <Position>
              <LatitudeDegrees>39.56749987788498401641845703125</LatitudeDegrees>
              <LongitudeDegrees>-0.61351398937404155731201171875</LongitudeDegrees>
            </Position>
            <AltitudeMeters>103</AltitudeMeters>
            <DistanceMeters>25569.170277745</DistanceMeters>
          </Trackpoint>
          <Trackpoint>
            <Time>2021-10-09T07:45:46.000Z</Time>
            <Position>
              <LatitudeDegrees>39.56749786622822284698486328125</LatitudeDegrees>
              <LongitudeDegrees>-0.6135943718254566192626953125</LongitudeDegrees>
            </Position>
            <AltitudeMeters>103.1999969482421875</AltitudeMeters>
            <DistanceMeters>25576.070028684</DistanceMeters>
          </Trackpoint>
          <Trackpoint>
            <Time>2021-10-09T07:45:47.000Z</Time>
            <Position>
              <LatitudeDegrees>39.56749652512371540069580078125</LatitudeDegrees>
              <LongitudeDegrees>-0.61367358081042766571044921875</LongitudeDegrees>
            </Position>
            <AltitudeMeters>103.40000152587890625</AltitudeMeters>
            <DistanceMeters>25582.868258692</DistanceMeters>
          </Trackpoint>
          <Trackpoint>
            <Time>2021-10-09T07:45:48.000Z</Time>
            <Position>
              <LatitudeDegrees>39.56749568693339824676513671875</LatitudeDegrees>
              <LongitudeDegrees>-0.61375404708087444305419921875</LongitudeDegrees>
            </Position>
            <AltitudeMeters>103.40000152587890625</AltitudeMeters>
            <DistanceMeters>25589.773242662</DistanceMeters>
          </Trackpoint>
          <Trackpoint>
            <Time>2021-10-09T07:45:49.000Z</Time>
            <Position>
              <LatitudeDegrees>39.5674939267337322235107421875</LatitudeDegrees>
              <LongitudeDegrees>-0.61383426189422607421875</LongitudeDegrees>
            </Position>
            <AltitudeMeters>103.40000152587890625</AltitudeMeters>
            <DistanceMeters>25596.658582256</DistanceMeters>
          </Trackpoint>
          <Trackpoint>
            <Time>2021-10-09T07:45:50.000Z</Time>
            <Position>
              <LatitudeDegrees>39.56749334000051021575927734375</LatitudeDegrees>
              <LongitudeDegrees>-0.61391062103211879730224609375</LongitudeDegrees>
            </Position>
            <AltitudeMeters>103.40000152587890625</AltitudeMeters>
            <DistanceMeters>25603.210603579</DistanceMeters>
          </Trackpoint>
          <Trackpoint>
            <Time>2021-10-09T07:45:51.000Z</Time>
            <Position>
              <LatitudeDegrees>39.5674902386963367462158203125</LatitudeDegrees>
              <LongitudeDegrees>-0.6139856390655040740966796875</LongitudeDegrees>
            </Position>
            <AltitudeMeters>103.59999847412109375</AltitudeMeters>
            <DistanceMeters>25609.656329428</DistanceMeters>
          </Trackpoint>
          <Trackpoint>
            <Time>2021-10-09T07:45:52.000Z</Time>
            <Position>
              <LatitudeDegrees>39.5674855448305606842041015625</LatitudeDegrees>
              <LongitudeDegrees>-0.61406266875565052032470703125</LongitudeDegrees>
            </Position>
            <AltitudeMeters>103.59999847412109375</AltitudeMeters>
            <DistanceMeters>25616.285081345</DistanceMeters>
          </Trackpoint>
          <Trackpoint>
            <Time>2021-10-09T07:45:53.000Z</Time>
            <Position>
              <LatitudeDegrees>39.5674820244312286376953125</LatitudeDegrees>
              <LongitudeDegrees>-0.61414011754095554351806640625</LongitudeDegrees>
            </Position>
            <AltitudeMeters>104</AltitudeMeters>
            <DistanceMeters>25622.942379234</DistanceMeters>
          </Trackpoint>
          <Trackpoint>
            <Time>2021-10-09T07:45:54.000Z</Time>
            <Position>
              <LatitudeDegrees>39.56748093478381633758544921875</LatitudeDegrees>
              <LongitudeDegrees>-0.6142166443169116973876953125</LongitudeDegrees>
            </Position>
            <AltitudeMeters>104</AltitudeMeters>
            <DistanceMeters>25629.509543393</DistanceMeters>
          </Trackpoint>
          <Trackpoint>
            <Time>2021-10-09T07:45:55.000Z</Time>
            <Position>
              <LatitudeDegrees>39.5674785040318965911865234375</LatitudeDegrees>
              <LongitudeDegrees>-0.61429367400705814361572265625</LongitudeDegrees>
            </Position>
            <AltitudeMeters>104.1999969482421875</AltitudeMeters>
            <DistanceMeters>25636.124658695</DistanceMeters>
          </Trackpoint>
          <Trackpoint>
            <Time>2021-10-09T07:45:56.000Z</Time>
            <Position>
              <LatitudeDegrees>39.56747531890869140625</LatitudeDegrees>
              <LongitudeDegrees>-0.61437003314495086669921875</LongitudeDegrees>
            </Position>
            <AltitudeMeters>104.40000152587890625</AltitudeMeters>
            <DistanceMeters>25642.685632281</DistanceMeters>
          </Trackpoint>
          <Trackpoint>
            <Time>2021-10-09T07:45:57.000Z</Time>
            <Position>
              <LatitudeDegrees>39.5674711279571056365966796875</LatitudeDegrees>
              <LongitudeDegrees>-0.6144444644451141357421875</LongitudeDegrees>
            </Position>
            <AltitudeMeters>104.40000152587890625</AltitudeMeters>
            <DistanceMeters>25649.088486884</DistanceMeters>
          </Trackpoint>
          <Trackpoint>
            <Time>2021-10-09T07:45:58.000Z</Time>
            <Position>
              <LatitudeDegrees>39.5674630813300609588623046875</LatitudeDegrees>
              <LongitudeDegrees>-0.61452032066881656646728515625</LongitudeDegrees>
            </Position>
            <AltitudeMeters>104.59999847412109375</AltitudeMeters>
            <DistanceMeters>25655.658400536</DistanceMeters>
          </Trackpoint>
          <Trackpoint>
            <Time>2021-10-09T07:45:59.000Z</Time>
            <Position>
              <LatitudeDegrees>39.5674550347030162811279296875</LatitudeDegrees>
              <LongitudeDegrees>-0.61459399759769439697265625</LongitudeDegrees>
            </Position>
            <AltitudeMeters>104.59999847412109375</AltitudeMeters>
            <DistanceMeters>25662.042894648</DistanceMeters>
          </Trackpoint>
          <Trackpoint>
            <Time>2021-10-09T07:46:00.000Z</Time>
            <Position>
              <LatitudeDegrees>39.56744338385760784149169921875</LatitudeDegrees>
              <LongitudeDegrees>-0.614668093621730804443359375</LongitudeDegrees>
            </Position>
            <AltitudeMeters>104.8000030517578125</AltitudeMeters>
            <DistanceMeters>25668.53120848</DistanceMeters>
          </Trackpoint>
          <Trackpoint>
            <Time>2021-10-09T07:46:01.000Z</Time>
            <Position>
              <LatitudeDegrees>39.567429721355438232421875</LatitudeDegrees>
              <LongitudeDegrees>-0.6147395074367523193359375</LongitudeDegrees>
            </Position>
            <AltitudeMeters>104.8000030517578125</AltitudeMeters>
            <DistanceMeters>25674.843872525</DistanceMeters>
          </Trackpoint>
          <Trackpoint>
            <Time>2021-10-09T07:46:02.000Z</Time>
            <Position>
              <LatitudeDegrees>39.56741505302488803863525390625</LatitudeDegrees>
              <LongitudeDegrees>-0.61481234617531299591064453125</LongitudeDegrees>
            </Position>
            <AltitudeMeters>105</AltitudeMeters>
            <DistanceMeters>25681.302893594</DistanceMeters>
          </Trackpoint>
          <Trackpoint>
            <Time>2021-10-09T07:46:03.000Z</Time>
            <Position>
              <LatitudeDegrees>39.56740197725594043731689453125</LatitudeDegrees>
              <LongitudeDegrees>-0.614883340895175933837890625</LongitudeDegrees>
            </Position>
            <AltitudeMeters>105</AltitudeMeters>
            <DistanceMeters>25687.566011993</DistanceMeters>
          </Trackpoint>
          <Trackpoint>
            <Time>2021-10-09T07:46:04.000Z</Time>
            <Position>
              <LatitudeDegrees>39.5673881471157073974609375</LatitudeDegrees>
              <LongitudeDegrees>-0.61495341360569000244140625</LongitudeDegrees>
            </Position>
            <AltitudeMeters>105.1999969482421875</AltitudeMeters>
            <DistanceMeters>25693.772646033</DistanceMeters>
          </Trackpoint>
          <Trackpoint>
            <Time>2021-10-09T07:46:05.000Z</Time>
            <Position>
              <LatitudeDegrees>39.5673712156713008880615234375</LatitudeDegrees>
              <LongitudeDegrees>-0.61502491123974323272705078125</LongitudeDegrees>
            </Position>
            <AltitudeMeters>105.40000152587890625</AltitudeMeters>
            <DistanceMeters>25700.189588341</DistanceMeters>
          </Trackpoint>
          <Trackpoint>
            <Time>2021-10-09T07:46:06.000Z</Time>
            <Position>
              <LatitudeDegrees>39.5673514343798160552978515625</LatitudeDegrees>
              <LongitudeDegrees>-0.615095905959606170654296875</LongitudeDegrees>
            </Position>
            <AltitudeMeters>105.40000152587890625</AltitudeMeters>
            <DistanceMeters>25706.666758646</DistanceMeters>
          </Trackpoint>
          <Trackpoint>
            <Time>2021-10-09T07:46:07.000Z</Time>
            <Position>
              <LatitudeDegrees>39.5673303119838237762451171875</LatitudeDegrees>
              <LongitudeDegrees>-0.61516170389950275421142578125</LongitudeDegrees>
            </Position>
            <AltitudeMeters>105.59999847412109375</AltitudeMeters>
            <DistanceMeters>25712.781784938</DistanceMeters>
          </Trackpoint>
          <Trackpoint>
            <Time>2021-10-09T07:46:08.000Z</Time>
            <Position>
              <LatitudeDegrees>39.56730910576879978179931640625</LatitudeDegrees>
              <LongitudeDegrees>-0.61522741802036762237548828125</LongitudeDegrees>
            </Position>
            <AltitudeMeters>105.59999847412109375</AltitudeMeters>
            <DistanceMeters>25718.894595775</DistanceMeters>
          </Trackpoint>
          <Trackpoint>
            <Time>2021-10-09T07:46:09.000Z</Time>
            <Position>
              <LatitudeDegrees>39.56728697754442691802978515625</LatitudeDegrees>
              <LongitudeDegrees>-0.61529547907412052154541015625</LongitudeDegrees>
            </Position>
            <AltitudeMeters>105.8000030517578125</AltitudeMeters>
            <DistanceMeters>25725.232243605</DistanceMeters>
          </Trackpoint>
          <Trackpoint>
            <Time>2021-10-09T07:46:10.000Z</Time>
            <Position>
              <LatitudeDegrees>39.56726384349167346954345703125</LatitudeDegrees>
              <LongitudeDegrees>-0.6153666414320468902587890625</LongitudeDegrees>
            </Position>
            <AltitudeMeters>106</AltitudeMeters>
            <DistanceMeters>25731.858951819</DistanceMeters>
          </Trackpoint>
          <Trackpoint>
            <Time>2021-10-09T07:46:11.000Z</Time>
            <Position>
              <LatitudeDegrees>39.56723987124860286712646484375</LatitudeDegrees>
              <LongitudeDegrees>-0.61543679796159267425537109375</LongitudeDegrees>
            </Position>
            <AltitudeMeters>106</AltitudeMeters>
            <DistanceMeters>25738.442595714</DistanceMeters>
          </Trackpoint>
          <Trackpoint>
            <Time>2021-10-09T07:46:12.000Z</Time>
            <Position>
              <LatitudeDegrees>39.5672156475484371185302734375</LatitudeDegrees>
              <LongitudeDegrees>-0.6155066192150115966796875</LongitudeDegrees>
            </Position>
            <AltitudeMeters>106</AltitudeMeters>
            <DistanceMeters>25745.011134763</DistanceMeters>
          </Trackpoint>
          <Trackpoint>
            <Time>2021-10-09T07:46:13.000Z</Time>
            <Position>
              <LatitudeDegrees>39.5671915076673030853271484375</LatitudeDegrees>
              <LongitudeDegrees>-0.61557568609714508056640625</LongitudeDegrees>
            </Position>
            <AltitudeMeters>106.1999969482421875</AltitudeMeters>
            <DistanceMeters>25751.517516121</DistanceMeters>
          </Trackpoint>
          <Trackpoint>
            <Time>2021-10-09T07:46:14.000Z</Time>
            <Position>
              <LatitudeDegrees>39.56716711632907390594482421875</LatitudeDegrees>
              <LongitudeDegrees>-0.6156432442367076873779296875</LongitudeDegrees>
            </Position>
            <AltitudeMeters>106.1999969482421875</AltitudeMeters>
            <DistanceMeters>25757.918960247</DistanceMeters>
          </Trackpoint>
          <Trackpoint>
            <Time>2021-10-09T07:46:15.000Z</Time>
            <Position>
              <LatitudeDegrees>39.567143730819225311279296875</LatitudeDegrees>
              <LongitudeDegrees>-0.61571088619530200958251953125</LongitudeDegrees>
            </Position>
            <AltitudeMeters>106.40000152587890625</AltitudeMeters>
            <DistanceMeters>25764.279364516</DistanceMeters>
          </Trackpoint>
          <Trackpoint>
            <Time>2021-10-09T07:46:16.000Z</Time>
            <Position>
              <LatitudeDegrees>39.56711900420486927032470703125</LatitudeDegrees>
              <LongitudeDegrees>-0.61577861197292804718017578125</LongitudeDegrees>
            </Position>
            <AltitudeMeters>106.40000152587890625</AltitudeMeters>
            <DistanceMeters>25770.70755476</DistanceMeters>
          </Trackpoint>
          <Trackpoint>
            <Time>2021-10-09T07:46:17.000Z</Time>
            <Position>
              <LatitudeDegrees>39.56709469668567180633544921875</LatitudeDegrees>
              <LongitudeDegrees>-0.6158472597599029541015625</LongitudeDegrees>
            </Position>
            <AltitudeMeters>106.59999847412109375</AltitudeMeters>
            <DistanceMeters>25777.189602715</DistanceMeters>
          </Trackpoint>
          <Trackpoint>
            <Time>2021-10-09T07:46:18.000Z</Time>
            <Position>
              <LatitudeDegrees>39.5670701377093791961669921875</LatitudeDegrees>
              <LongitudeDegrees>-0.61591573990881443023681640625</LongitudeDegrees>
            </Position>
            <AltitudeMeters>106.8000030517578125</AltitudeMeters>
            <DistanceMeters>25783.669560699</DistanceMeters>
          </Trackpoint>
          <Trackpoint>
            <Time>2021-10-09T07:46:19.000Z</Time>
            <Position>
              <LatitudeDegrees>39.56704591400921344757080078125</LatitudeDegrees>
              <LongitudeDegrees>-0.61598279513418674468994140625</LongitudeDegrees>
            </Position>
            <AltitudeMeters>106.8000030517578125</AltitudeMeters>
            <DistanceMeters>25790.022862337</DistanceMeters>
          </Trackpoint>
          <Trackpoint>
            <Time>2021-10-09T07:46:20.000Z</Time>
            <Position>
              <LatitudeDegrees>39.56702378578484058380126953125</LatitudeDegrees>
              <LongitudeDegrees>-0.61605085618793964385986328125</LongitudeDegrees>
            </Position>
            <AltitudeMeters>107</AltitudeMeters>
            <DistanceMeters>25796.360510167</DistanceMeters>
          </Trackpoint>
          <Trackpoint>
            <Time>2021-10-09T07:46:21.000Z</Time>
            <Position>
              <LatitudeDegrees>39.56700148992240428924560546875</LatitudeDegrees>
              <LongitudeDegrees>-0.61611874960362911224365234375</LongitudeDegrees>
            </Position>
            <AltitudeMeters>107</AltitudeMeters>
            <DistanceMeters>25802.692456109</DistanceMeters>
          </Trackpoint>
          <Trackpoint>
            <Time>2021-10-09T07:46:22.000Z</Time>
            <Position>
              <LatitudeDegrees>39.56697885878384113311767578125</LatitudeDegrees>
              <LongitudeDegrees>-0.6161843799054622650146484375</LongitudeDegrees>
            </Position>
            <AltitudeMeters>107.1999969482421875</AltitudeMeters>
            <DistanceMeters>25808.861146581</DistanceMeters>
          </Trackpoint>
          <Trackpoint>
            <Time>2021-10-09T07:46:23.000Z</Time>
            <Position>
              <LatitudeDegrees>39.5669551379978656768798828125</LatitudeDegrees>
              <LongitudeDegrees>-0.6162504293024539947509765625</LongitudeDegrees>
            </Position>
            <AltitudeMeters>107.1999969482421875</AltitudeMeters>
            <DistanceMeters>25815.114164332</DistanceMeters>
          </Trackpoint>
          <Trackpoint>
            <Time>2021-10-09T07:46:24.000Z</Time>
            <Position>
              <LatitudeDegrees>39.56693342886865139007568359375</LatitudeDegrees>
              <LongitudeDegrees>-0.61631857417523860931396484375</LongitudeDegrees>
            </Position>
            <AltitudeMeters>107.1999969482421875</AltitudeMeters>
            <DistanceMeters>25821.440403246</DistanceMeters>
          </Trackpoint>
          <Trackpoint>
            <Time>2021-10-09T07:46:25.000Z</Time>
            <Position>
              <LatitudeDegrees>39.56691406667232513427734375</LatitudeDegrees>
              <LongitudeDegrees>-0.61638931743800640106201171875</LongitudeDegrees>
            </Position>
            <AltitudeMeters>107.40000152587890625</AltitudeMeters>
            <DistanceMeters>25827.881223938</DistanceMeters>
          </Trackpoint>
          <Trackpoint>
            <Time>2021-10-09T07:46:26.000Z</Time>
            <Position>
              <LatitudeDegrees>39.5668947882950305938720703125</LatitudeDegrees>
              <LongitudeDegrees>-0.6164613179862499237060546875</LongitudeDegrees>
            </Position>
            <AltitudeMeters>107.40000152587890625</AltitudeMeters>
            <DistanceMeters>25834.421519965</DistanceMeters>
          </Trackpoint>
          <Trackpoint>
            <Time>2021-10-09T07:46:27.000Z</Time>
            <Position>
              <LatitudeDegrees>39.5668756775557994842529296875</LatitudeDegrees>
              <LongitudeDegrees>-0.61653432436287403106689453125</LongitudeDegrees>
            </Position>
            <AltitudeMeters>107.59999847412109375</AltitudeMeters>
            <DistanceMeters>25841.036635266</DistanceMeters>
          </Trackpoint>
          <Trackpoint>
            <Time>2021-10-09T07:46:28.000Z</Time>
            <Position>
              <LatitudeDegrees>39.566858746111392974853515625</LatitudeDegrees>
              <LongitudeDegrees>-0.61660699546337127685546875</LongitudeDegrees>
            </Position>
            <AltitudeMeters>107.8000030517578125</AltitudeMeters>
            <DistanceMeters>25847.550645491</DistanceMeters>
          </Trackpoint>
          <Trackpoint>
            <Time>2021-10-09T07:46:29.000Z</Time>
            <Position>
              <LatitudeDegrees>39.56684307195246219635009765625</LatitudeDegrees>
              <LongitudeDegrees>-0.616680085659027099609375</LongitudeDegrees>
            </Position>
            <AltitudeMeters>107.8000030517578125</AltitudeMeters>
            <DistanceMeters>25854.059802016</DistanceMeters>
          </Trackpoint>
          <Trackpoint>
            <Time>2021-10-09T07:46:30.000Z</Time>
            <Position>
              <LatitudeDegrees>39.56682848744094371795654296875</LatitudeDegrees>
              <LongitudeDegrees>-0.61675317585468292236328125</LongitudeDegrees>
            </Position>
            <AltitudeMeters>108</AltitudeMeters>
            <DistanceMeters>25860.536972321</DistanceMeters>
          </Trackpoint>
          <Trackpoint>
            <Time>2021-10-09T07:46:31.000Z</Time>
            <Position>
              <LatitudeDegrees>39.56681549549102783203125</LatitudeDegrees>
              <LongitudeDegrees>-0.6168250925838947296142578125</LongitudeDegrees>
            </Position>
            <AltitudeMeters>108</AltitudeMeters>
            <DistanceMeters>25866.873195161</DistanceMeters>
          </Trackpoint>
          <Trackpoint>
            <Time>2021-10-09T07:46:32.000Z</Time>
            <Position>
              <LatitudeDegrees>39.56680116243660449981689453125</LatitudeDegrees>
              <LongitudeDegrees>-0.6168975122272968292236328125</LongitudeDegrees>
            </Position>
            <AltitudeMeters>108.1999969482421875</AltitudeMeters>
            <DistanceMeters>25873.287322403</DistanceMeters>
          </Trackpoint>
          <Trackpoint>
            <Time>2021-10-09T07:46:33.000Z</Time>
            <Position>
              <LatitudeDegrees>39.56678724847733974456787109375</LatitudeDegrees>
              <LongitudeDegrees>-0.61697001568973064422607421875</LongitudeDegrees>
            </Position>
            <AltitudeMeters>108.40000152587890625</AltitudeMeters>
            <DistanceMeters>25879.698633343</DistanceMeters>
          </Trackpoint>
          <Trackpoint>
            <Time>2021-10-09T07:46:34.000Z</Time>
            <Position>
              <LatitudeDegrees>39.56677216105163097381591796875</LatitudeDegrees>
              <LongitudeDegrees>-0.61704226769506931304931640625</LongitudeDegrees>
            </Position>
            <AltitudeMeters>108.40000152587890625</AltitudeMeters>
            <DistanceMeters>25886.121905038</DistanceMeters>
          </Trackpoint>
          <Trackpoint>
            <Time>2021-10-09T07:46:35.000Z</Time>
            <Position>
              <LatitudeDegrees>39.56675522960722446441650390625</LatitudeDegrees>
              <LongitudeDegrees>-0.61711636371910572052001953125</LongitudeDegrees>
            </Position>
            <AltitudeMeters>108.59999847412109375</AltitudeMeters>
            <DistanceMeters>25892.752700029</DistanceMeters>
          </Trackpoint>
          <Trackpoint>
            <Time>2021-10-09T07:46:36.000Z</Time>
            <Position>
              <LatitudeDegrees>39.56674030981957912445068359375</LatitudeDegrees>
              <LongitudeDegrees>-0.61718844808638095855712890625</LongitudeDegrees>
            </Position>
            <AltitudeMeters>108.59999847412109375</AltitudeMeters>
            <DistanceMeters>25899.156259752</DistanceMeters>
          </Trackpoint>
          <Trackpoint>
            <Time>2021-10-09T07:46:37.000Z</Time>
            <Position>
              <LatitudeDegrees>39.56672840751707553863525390625</LatitudeDegrees>
              <LongitudeDegrees>-0.61725919134914875030517578125</LongitudeDegrees>
            </Position>
            <AltitudeMeters>108.8000030517578125</AltitudeMeters>
            <DistanceMeters>25905.368710696</DistanceMeters>
          </Trackpoint>
          <Trackpoint>
            <Time>2021-10-09T07:46:38.000Z</Time>
            <Position>
              <LatitudeDegrees>39.5667147450149059295654296875</LatitudeDegrees>
              <LongitudeDegrees>-0.61733177863061428070068359375</LongitudeDegrees>
            </Position>
            <AltitudeMeters>108.8000030517578125</AltitudeMeters>
            <DistanceMeters>25911.780021636</DistanceMeters>
          </Trackpoint>
          <Trackpoint>
            <Time>2021-10-09T07:46:39.000Z</Time>
            <Position>
              <LatitudeDegrees>39.56670108251273632049560546875</LatitudeDegrees>
              <LongitudeDegrees>-0.617404617369174957275390625</LongitudeDegrees>
            </Position>
            <AltitudeMeters>109</AltitudeMeters>
            <DistanceMeters>25918.211722825</DistanceMeters>
          </Trackpoint>
          <Trackpoint>
            <Time>2021-10-09T07:46:40.000Z</Time>
            <Position>
              <LatitudeDegrees>39.566688425838947296142578125</LatitudeDegrees>
              <LongitudeDegrees>-0.61747829429805278778076171875</LongitudeDegrees>
            </Position>
            <AltitudeMeters>109</AltitudeMeters>
            <DistanceMeters>25924.688196023</DistanceMeters>
          </Trackpoint>
          <Trackpoint>
            <Time>2021-10-09T07:46:41.000Z</Time>
            <Position>
              <LatitudeDegrees>39.56667400896549224853515625</LatitudeDegrees>
              <LongitudeDegrees>-0.617553479969501495361328125</LongitudeDegrees>
            </Position>
            <AltitudeMeters>109</AltitudeMeters>
            <DistanceMeters>25931.335992208</DistanceMeters>
          </Trackpoint>
          <Trackpoint>
            <Time>2021-10-09T07:46:42.000Z</Time>
            <Position>
              <LatitudeDegrees>39.566658921539783477783203125</LatitudeDegrees>
              <LongitudeDegrees>-0.61762799508869647979736328125</LongitudeDegrees>
            </Position>
            <AltitudeMeters>109</AltitudeMeters>
            <DistanceMeters>25937.945644985</DistanceMeters>
          </Trackpoint>
          <Trackpoint>
            <Time>2021-10-09T07:46:43.000Z</Time>
            <Position>
              <LatitudeDegrees>39.56664844416081905364990234375</LatitudeDegrees>
              <LongitudeDegrees>-0.6177001632750034332275390625</LongitudeDegrees>
            </Position>
            <AltitudeMeters>109</AltitudeMeters>
            <DistanceMeters>25944.246854879</DistanceMeters>
          </Trackpoint>
          <Trackpoint>
            <Time>2021-10-09T07:46:44.000Z</Time>
            <Position>
              <LatitudeDegrees>39.566637463867664337158203125</LatitudeDegrees>
              <LongitudeDegrees>-0.61777534894645214080810546875</LongitudeDegrees>
            </Position>
            <AltitudeMeters>109</AltitudeMeters>
            <DistanceMeters>25950.81264386</DistanceMeters>
          </Trackpoint>
          <Trackpoint>
            <Time>2021-10-09T07:46:45.000Z</Time>
            <Position>
              <LatitudeDegrees>39.56662665121257305145263671875</LatitudeDegrees>
              <LongitudeDegrees>-0.61785279773175716400146484375</LongitudeDegrees>
            </Position>
            <AltitudeMeters>109.1999969482421875</AltitudeMeters>
            <DistanceMeters>25957.565560714</DistanceMeters>
          </Trackpoint>
          <Trackpoint>
            <Time>2021-10-09T07:46:46.000Z</Time>
            <Position>
              <LatitudeDegrees>39.56661709584295749664306640625</LatitudeDegrees>
              <LongitudeDegrees>-0.6179311685264110565185546875</LongitudeDegrees>
            </Position>
            <AltitudeMeters>109.1999969482421875</AltitudeMeters>
            <DistanceMeters>25964.373082459</DistanceMeters>
          </Trackpoint>
          <Trackpoint>
            <Time>2021-10-09T07:46:47.000Z</Time>
            <Position>
              <LatitudeDegrees>39.56661039032042026519775390625</LatitudeDegrees>
              <LongitudeDegrees>-0.61801020987331867218017578125</LongitudeDegrees>
            </Position>
            <AltitudeMeters>109.1999969482421875</AltitudeMeters>
            <DistanceMeters>25971.195179937</DistanceMeters>
          </Trackpoint>
          <Trackpoint>
            <Time>2021-10-09T07:46:48.000Z</Time>
            <Position>
              <LatitudeDegrees>39.56660720519721508026123046875</LatitudeDegrees>
              <LongitudeDegrees>-0.6180924363434314727783203125</LongitudeDegrees>
            </Position>
            <AltitudeMeters>109.1999969482421875</AltitudeMeters>
            <DistanceMeters>25978.25854828</DistanceMeters>
          </Trackpoint>
          <Trackpoint>
            <Time>2021-10-09T07:46:49.000Z</Time>
            <Position>
              <LatitudeDegrees>39.56660653464496135711669921875</LatitudeDegrees>
              <LongitudeDegrees>-0.6181762553751468658447265625</LongitudeDegrees>
            </Position>
            <AltitudeMeters>109.1999969482421875</AltitudeMeters>
            <DistanceMeters>25985.450507531</DistanceMeters>
          </Trackpoint>
          <Trackpoint>
            <Time>2021-10-09T07:46:50.000Z</Time>
            <Position>
              <LatitudeDegrees>39.56660703755915164947509765625</LatitudeDegrees>
              <LongitudeDegrees>-0.61826133169233798980712890625</LongitudeDegrees>
            </Position>
            <AltitudeMeters>109.1999969482421875</AltitudeMeters>
            <DistanceMeters>25992.750884999</DistanceMeters>
          </Trackpoint>
          <Trackpoint>
            <Time>2021-10-09T07:46:51.000Z</Time>
            <Position>
              <LatitudeDegrees>39.56661022268235683441162109375</LatitudeDegrees>
              <LongitudeDegrees>-0.618347413837909698486328125</LongitudeDegrees>
            </Position>
            <AltitudeMeters>109.1999969482421875</AltitudeMeters>
            <DistanceMeters>26000.145892974</DistanceMeters>
          </Trackpoint>
          <Trackpoint>
            <Time>2021-10-09T07:46:52.000Z</Time>
            <Position>
              <LatitudeDegrees>39.56661625765264034271240234375</LatitudeDegrees>
              <LongitudeDegrees>-0.61843517236411571502685546875</LongitudeDegrees>
            </Position>
            <AltitudeMeters>109.40000152587890625</AltitudeMeters>
            <DistanceMeters>26007.705147152</DistanceMeters>
          </Trackpoint>
          <Trackpoint>
            <Time>2021-10-09T07:46:53.000Z</Time>
            <Position>
              <LatitudeDegrees>39.5666248910129070281982421875</LatitudeDegrees>
              <LongitudeDegrees>-0.61852133832871913909912109375</LongitudeDegrees>
            </Position>
            <AltitudeMeters>109.1999969482421875</AltitudeMeters>
            <DistanceMeters>26015.160354763</DistanceMeters>
          </Trackpoint>
          <Trackpoint>
            <Time>2021-10-09T07:46:54.000Z</Time>
            <Position>
              <LatitudeDegrees>39.5666344463825225830078125</LatitudeDegrees>
              <LongitudeDegrees>-0.61860834248363971710205078125</LongitudeDegrees>
            </Position>
            <AltitudeMeters>109.1999969482421875</AltitudeMeters>
            <DistanceMeters>26022.700471558</DistanceMeters>
          </Trackpoint>
          <Trackpoint>
            <Time>2021-10-09T07:46:55.000Z</Time>
            <Position>
              <LatitudeDegrees>39.56664492376148700714111328125</LatitudeDegrees>
              <LongitudeDegrees>-0.61869417317211627960205078125</LongitudeDegrees>
            </Position>
            <AltitudeMeters>109.40000152587890625</AltitudeMeters>
            <DistanceMeters>26030.156284766</DistanceMeters>
          </Trackpoint>
          <Trackpoint>
            <Time>2021-10-09T07:46:56.000Z</Time>
            <Position>
              <LatitudeDegrees>39.5666554011404514312744140625</LatitudeDegrees>
              <LongitudeDegrees>-0.61878184787929058074951171875</LongitudeDegrees>
            </Position>
            <AltitudeMeters>109.40000152587890625</AltitudeMeters>
            <DistanceMeters>26037.767918655</DistanceMeters>
          </Trackpoint>
          <Trackpoint>
            <Time>2021-10-09T07:46:57.000Z</Time>
            <Position>
              <LatitudeDegrees>39.5666657947003841400146484375</LatitudeDegrees>
              <LongitudeDegrees>-0.61886784620583057403564453125</LongitudeDegrees>
            </Position>
            <AltitudeMeters>109.1999969482421875</AltitudeMeters>
            <DistanceMeters>26045.236438067</DistanceMeters>
          </Trackpoint>
          <Trackpoint>
            <Time>2021-10-09T07:46:58.000Z</Time>
            <Position>
              <LatitudeDegrees>39.5666758529841899871826171875</LatitudeDegrees>
              <LongitudeDegrees>-0.61895526945590972900390625</LongitudeDegrees>
            </Position>
            <AltitudeMeters>109.1999969482421875</AltitudeMeters>
            <DistanceMeters>26052.820736778</DistanceMeters>
          </Trackpoint>
          <Trackpoint>
            <Time>2021-10-09T07:46:59.000Z</Time>
            <Position>
              <LatitudeDegrees>39.56668633036315441131591796875</LatitudeDegrees>
              <LongitudeDegrees>-0.61904319562017917633056640625</LongitudeDegrees>
            </Position>
            <AltitudeMeters>109.1999969482421875</AltitudeMeters>
            <DistanceMeters>26060.454878077</DistanceMeters>
          </Trackpoint>
          <Trackpoint>
            <Time>2021-10-09T07:47:00.000Z</Time>
            <Position>
              <LatitudeDegrees>39.5666969753801822662353515625</LatitudeDegrees>
              <LongitudeDegrees>-0.61913338489830493927001953125</LongitudeDegrees>
            </Position>
            <AltitudeMeters>109.1999969482421875</AltitudeMeters>
            <DistanceMeters>26068.282910956</DistanceMeters>
          </Trackpoint>
          <Trackpoint>
            <Time>2021-10-09T07:47:01.000Z</Time>
            <Position>
              <LatitudeDegrees>39.566707871854305267333984375</LatitudeDegrees>
              <LongitudeDegrees>-0.61922424472868442535400390625</LongitudeDegrees>
            </Position>
            <AltitudeMeters>109.1999969482421875</AltitudeMeters>
            <DistanceMeters>26076.17298998</DistanceMeters>
          </Trackpoint>
          <Trackpoint>
            <Time>2021-10-09T07:47:02.000Z</Time>
            <Position>
              <LatitudeDegrees>39.56671893596649169921875</LatitudeDegrees>
              <LongitudeDegrees>-0.6193153560161590576171875</LongitudeDegrees>
            </Position>
            <AltitudeMeters>109.1999969482421875</AltitudeMeters>
            <DistanceMeters>26084.085925596</DistanceMeters>
          </Trackpoint>
          <Trackpoint>
            <Time>2021-10-09T07:47:03.000Z</Time>
            <Position>
              <LatitudeDegrees>39.566728658974170684814453125</LatitudeDegrees>
              <LongitudeDegrees>-0.61940596438944339752197265625</LongitudeDegrees>
            </Position>
            <AltitudeMeters>109.1999969482421875</AltitudeMeters>
            <DistanceMeters>26091.935845446</DistanceMeters>
          </Trackpoint>
          <Trackpoint>
            <Time>2021-10-09T07:47:04.000Z</Time>
            <Position>
              <LatitudeDegrees>39.56673930399119853973388671875</LatitudeDegrees>
              <LongitudeDegrees>-0.619496740400791168212890625</LongitudeDegrees>
            </Position>
            <AltitudeMeters>109.1999969482421875</AltitudeMeters>
            <DistanceMeters>26099.814471308</DistanceMeters>
          </Trackpoint>
          <Trackpoint>
            <Time>2021-10-09T07:47:05.000Z</Time>
            <Position>
              <LatitudeDegrees>39.5667492784559726715087890625</LatitudeDegrees>
              <LongitudeDegrees>-0.6195877678692340850830078125</LongitudeDegrees>
            </Position>
            <AltitudeMeters>109</AltitudeMeters>
            <DistanceMeters>26107.703405764</DistanceMeters>
          </Trackpoint>
          <Trackpoint>
            <Time>2021-10-09T07:47:06.000Z</Time>
            <Position>
              <LatitudeDegrees>39.56675975583493709564208984375</LatitudeDegrees>
              <LongitudeDegrees>-0.61967854388058185577392578125</LongitudeDegrees>
            </Position>
            <AltitudeMeters>109</AltitudeMeters>
            <DistanceMeters>26115.578592429</DistanceMeters>
          </Trackpoint>
          <Trackpoint>
            <Time>2021-10-09T07:47:07.000Z</Time>
            <Position>
              <LatitudeDegrees>39.56677065230906009674072265625</LatitudeDegrees>
              <LongitudeDegrees>-0.619768984615802764892578125</LongitudeDegrees>
            </Position>
            <AltitudeMeters>109</AltitudeMeters>
            <DistanceMeters>26123.432537437</DistanceMeters>
          </Trackpoint>
          <Trackpoint>
            <Time>2021-10-09T07:47:08.000Z</Time>
            <Position>
              <LatitudeDegrees>39.56678138114511966705322265625</LatitudeDegrees>
              <LongitudeDegrees>-0.6198580004274845123291015625</LongitudeDegrees>
            </Position>
            <AltitudeMeters>109</AltitudeMeters>
            <DistanceMeters>26131.163064322</DistanceMeters>
          </Trackpoint>
          <Trackpoint>
            <Time>2021-10-09T07:47:09.000Z</Time>
            <Position>
              <LatitudeDegrees>39.5667911879718303680419921875</LatitudeDegrees>
              <LongitudeDegrees>-0.619947016239166259765625</LongitudeDegrees>
            </Position>
            <AltitudeMeters>109</AltitudeMeters>
            <DistanceMeters>26138.878390881</DistanceMeters>
          </Trackpoint>
          <Trackpoint>
            <Time>2021-10-09T07:47:10.000Z</Time>
            <Position>
              <LatitudeDegrees>39.56680200062692165374755859375</LatitudeDegrees>
              <LongitudeDegrees>-0.62003393657505512237548828125</LongitudeDegrees>
            </Position>
            <AltitudeMeters>109</AltitudeMeters>
            <DistanceMeters>26146.432865259</DistanceMeters>
          </Trackpoint>
          <Trackpoint>
            <Time>2021-10-09T07:47:11.000Z</Time>
            <Position>
              <LatitudeDegrees>39.5668116398155689239501953125</LatitudeDegrees>
              <LongitudeDegrees>-0.62011809088289737701416015625</LongitudeDegrees>
            </Position>
            <AltitudeMeters>109</AltitudeMeters>
            <DistanceMeters>26153.733242727</DistanceMeters>
          </Trackpoint>
          <Trackpoint>
            <Time>2021-10-09T07:47:12.000Z</Time>
            <Position>
              <LatitudeDegrees>39.5668163336813449859619140625</LatitudeDegrees>
              <LongitudeDegrees>-0.620202831923961639404296875</LongitudeDegrees>
            </Position>
            <AltitudeMeters>109</AltitudeMeters>
            <DistanceMeters>26161.022479298</DistanceMeters>
          </Trackpoint>
          <Trackpoint>
            <Time>2021-10-09T07:47:13.000Z</Time>
            <Position>
              <LatitudeDegrees>39.56681641750037670135498046875</LatitudeDegrees>
              <LongitudeDegrees>-0.62028472311794757843017578125</LongitudeDegrees>
            </Position>
            <AltitudeMeters>109</AltitudeMeters>
            <DistanceMeters>26168.049317705</DistanceMeters>
          </Trackpoint>
          <Trackpoint>
            <Time>2021-10-09T07:47:14.000Z</Time>
            <Position>
              <LatitudeDegrees>39.56680920906364917755126953125</LatitudeDegrees>
              <LongitudeDegrees>-0.6203672848641872406005859375</LongitudeDegrees>
            </Position>
            <AltitudeMeters>109</AltitudeMeters>
            <DistanceMeters>26175.178221564</DistanceMeters>
          </Trackpoint>
          <Trackpoint>
            <Time>2021-10-09T07:47:15.000Z</Time>
            <Position>
              <LatitudeDegrees>39.56679713912308216094970703125</LatitudeDegrees>
              <LongitudeDegrees>-0.6204472482204437255859375</LongitudeDegrees>
            </Position>
            <AltitudeMeters>109</AltitudeMeters>
            <DistanceMeters>26182.169630849</DistanceMeters>
          </Trackpoint>
          <Trackpoint>
            <Time>2021-10-09T07:47:16.000Z</Time>
            <Position>
              <LatitudeDegrees>39.566779620945453643798828125</LatitudeDegrees>
              <LongitudeDegrees>-0.620526373386383056640625</LongitudeDegrees>
            </Position>
            <AltitudeMeters>109</AltitudeMeters>
            <DistanceMeters>26189.233638382</DistanceMeters>
          </Trackpoint>
          <Trackpoint>
            <Time>2021-10-09T07:47:17.000Z</Time>
            <Position>
              <LatitudeDegrees>39.5667605102062225341796875</LatitudeDegrees>
              <LongitudeDegrees>-0.620604492723941802978515625</LongitudeDegrees>
            </Position>
            <AltitudeMeters>108.8000030517578125</AltitudeMeters>
            <DistanceMeters>26196.265615245</DistanceMeters>
          </Trackpoint>
          <Trackpoint>
            <Time>2021-10-09T07:47:18.000Z</Time>
            <Position>
              <LatitudeDegrees>39.5667412318289279937744140625</LatitudeDegrees>
              <LongitudeDegrees>-0.6206831149756908416748046875</LongitudeDegrees>
            </Position>
            <AltitudeMeters>108.8000030517578125</AltitudeMeters>
            <DistanceMeters>26203.344308217</DistanceMeters>
          </Trackpoint>
          <Trackpoint>
            <Time>2021-10-09T07:47:19.000Z</Time>
            <Position>
              <LatitudeDegrees>39.5667221210896968841552734375</LatitudeDegrees>
              <LongitudeDegrees>-0.62076182104647159576416015625</LongitudeDegrees>
            </Position>
            <AltitudeMeters>108.8000030517578125</AltitudeMeters>
            <DistanceMeters>26210.424914435</DistanceMeters>
          </Trackpoint>
          <Trackpoint>
            <Time>2021-10-09T07:47:20.000Z</Time>
            <Position>
              <LatitudeDegrees>39.566702507436275482177734375</LatitudeDegrees>
              <LongitudeDegrees>-0.620840527117252349853515625</LongitudeDegrees>
            </Position>
            <AltitudeMeters>108.8000030517578125</AltitudeMeters>
            <DistanceMeters>26217.522080518</DistanceMeters>
          </Trackpoint>
          <Trackpoint>
            <Time>2021-10-09T07:47:21.000Z</Time>
            <Position>
              <LatitudeDegrees>39.56668247468769550323486328125</LatitudeDegrees>
              <LongitudeDegrees>-0.6209191493690013885498046875</LongitudeDegrees>
            </Position>
            <AltitudeMeters>108.8000030517578125</AltitudeMeters>
            <DistanceMeters>26224.626876597</DistanceMeters>
          </Trackpoint>
          <Trackpoint>
            <Time>2021-10-09T07:47:22.000Z</Time>
            <Position>
              <LatitudeDegrees>39.56666235812008380889892578125</LatitudeDegrees>
              <LongitudeDegrees>-0.6209962628781795501708984375</LongitudeDegrees>
            </Position>
            <AltitudeMeters>109</AltitudeMeters>
            <DistanceMeters>26231.612471282</DistanceMeters>
          </Trackpoint>
          <Trackpoint>
            <Time>2021-10-09T07:47:23.000Z</Time>
            <Position>
              <LatitudeDegrees>39.56664224155247211456298828125</LatitudeDegrees>
              <LongitudeDegrees>-0.621071867644786834716796875</LongitudeDegrees>
            </Position>
            <AltitudeMeters>109</AltitudeMeters>
            <DistanceMeters>26238.475479276</DistanceMeters>
          </Trackpoint>
          <Trackpoint>
            <Time>2021-10-09T07:47:24.000Z</Time>
            <Position>
              <LatitudeDegrees>39.566624052822589874267578125</LatitudeDegrees>
              <LongitudeDegrees>-0.62114520929753780364990234375</LongitudeDegrees>
            </Position>
            <AltitudeMeters>109.1999969482421875</AltitudeMeters>
            <DistanceMeters>26245.085815116</DistanceMeters>
          </Trackpoint>
          <Trackpoint>
            <Time>2021-10-09T07:47:25.000Z</Time>
            <Position>
              <LatitudeDegrees>39.56660519354045391082763671875</LatitudeDegrees>
              <LongitudeDegrees>-0.621218718588352203369140625</LongitudeDegrees>
            </Position>
            <AltitudeMeters>109.1999969482421875</AltitudeMeters>
            <DistanceMeters>26251.732932088</DistanceMeters>
          </Trackpoint>
          <Trackpoint>
            <Time>2021-10-09T07:47:26.000Z</Time>
            <Position>
              <LatitudeDegrees>39.56658675335347652435302734375</LatitudeDegrees>
              <LongitudeDegrees>-0.6212903000414371490478515625</LongitudeDegrees>
            </Position>
            <AltitudeMeters>109.1999969482421875</AltitudeMeters>
            <DistanceMeters>26258.208010846</DistanceMeters>
          </Trackpoint>
          <Trackpoint>
            <Time>2021-10-09T07:47:27.000Z</Time>
            <Position>
              <LatitudeDegrees>39.56656898371875286102294921875</LatitudeDegrees>
              <LongitudeDegrees>-0.62136112712323665618896484375</LongitudeDegrees>
            </Position>
            <AltitudeMeters>109.59999847412109375</AltitudeMeters>
            <DistanceMeters>26264.599572927</DistanceMeters>
          </Trackpoint>
          <Trackpoint>
            <Time>2021-10-09T07:47:28.000Z</Time>
            <Position>
              <LatitudeDegrees>39.56655154936015605926513671875</LatitudeDegrees>
              <LongitudeDegrees>-0.62143119983375072479248046875</LongitudeDegrees>
            </Position>
            <AltitudeMeters>109.59999847412109375</AltitudeMeters>
            <DistanceMeters>26270.917241633</DistanceMeters>
          </Trackpoint>
          <Trackpoint>
            <Time>2021-10-09T07:47:29.000Z</Time>
            <Position>
              <LatitudeDegrees>39.56653864122927188873291015625</LatitudeDegrees>
              <LongitudeDegrees>-0.62149926088750362396240234375</LongitudeDegrees>
            </Position>
            <AltitudeMeters>109.8000030517578125</AltitudeMeters>
            <DistanceMeters>26276.931764577</DistanceMeters>
          </Trackpoint>
          <Trackpoint>
            <Time>2021-10-09T07:47:30.000Z</Time>
            <Position>
              <LatitudeDegrees>39.56652908585965633392333984375</LatitudeDegrees>
              <LongitudeDegrees>-0.62156899832189083099365234375</LongitudeDegrees>
            </Position>
            <AltitudeMeters>110</AltitudeMeters>
            <DistanceMeters>26283.009761182</DistanceMeters>
          </Trackpoint>
          <Trackpoint>
            <Time>2021-10-09T07:47:31.000Z</Time>
            <Position>
              <LatitudeDegrees>39.56652305088937282562255859375</LatitudeDegrees>
              <LongitudeDegrees>-0.62164016067981719970703125</LongitudeDegrees>
            </Position>
            <AltitudeMeters>110</AltitudeMeters>
            <DistanceMeters>26289.152045723</DistanceMeters>
          </Trackpoint>
          <Trackpoint>
            <Time>2021-10-09T07:47:32.000Z</Time>
            <Position>
              <LatitudeDegrees>39.56651718355715274810791015625</LatitudeDegrees>
              <LongitudeDegrees>-0.62171182595193386077880859375</LongitudeDegrees>
            </Position>
            <AltitudeMeters>110</AltitudeMeters>
            <DistanceMeters>26295.33535743</DistanceMeters>
          </Trackpoint>
          <Trackpoint>
            <Time>2021-10-09T07:47:33.000Z</Time>
            <Position>
              <LatitudeDegrees>39.56651651300489902496337890625</LatitudeDegrees>
              <LongitudeDegrees>-0.6217821501195430755615234375</LongitudeDegrees>
            </Position>
            <AltitudeMeters>110.40000152587890625</AltitudeMeters>
            <DistanceMeters>26301.370863073</DistanceMeters>
          </Trackpoint>
          <Trackpoint>
            <Time>2021-10-09T07:47:34.000Z</Time>
            <Position>
              <LatitudeDegrees>39.56652942113578319549560546875</LatitudeDegrees>
              <LongitudeDegrees>-0.6218471936881542205810546875</LongitudeDegrees>
            </Position>
            <AltitudeMeters>110.59999847412109375</AltitudeMeters>
            <DistanceMeters>26307.133902303</DistanceMeters>
          </Trackpoint>
          <Trackpoint>
            <Time>2021-10-09T07:47:35.000Z</Time>
            <Position>
              <LatitudeDegrees>39.56655330955982208251953125</LatitudeDegrees>
              <LongitudeDegrees>-0.621910728514194488525390625</LongitudeDegrees>
            </Position>
            <AltitudeMeters>110.8000030517578125</AltitudeMeters>
            <DistanceMeters>26313.199257316</DistanceMeters>
          </Trackpoint>
          <Trackpoint>
            <Time>2021-10-09T07:47:36.000Z</Time>
            <Position>
              <LatitudeDegrees>39.56658692099153995513916015625</LatitudeDegrees>
              <LongitudeDegrees>-0.6219688989222049713134765625</LongitudeDegrees>
            </Position>
            <AltitudeMeters>111</AltitudeMeters>
            <DistanceMeters>26319.437093431</DistanceMeters>
          </Trackpoint>
          <Trackpoint>
            <Time>2021-10-09T07:47:37.000Z</Time>
            <Position>
              <LatitudeDegrees>39.56663168035447597503662109375</LatitudeDegrees>
              <LongitudeDegrees>-0.6220155023038387298583984375</LongitudeDegrees>
            </Position>
            <AltitudeMeters>111</AltitudeMeters>
            <DistanceMeters>26325.825122505</DistanceMeters>
          </Trackpoint>
          <Trackpoint>
            <Time>2021-10-09T07:47:38.000Z</Time>
            <Position>
              <LatitudeDegrees>39.56668649800121784210205078125</LatitudeDegrees>
              <LongitudeDegrees>-0.62204073183238506317138671875</LongitudeDegrees>
            </Position>
            <AltitudeMeters>111</AltitudeMeters>
            <DistanceMeters>26332.299503931</DistanceMeters>
          </Trackpoint>
          <Trackpoint>
            <Time>2021-10-09T07:47:39.000Z</Time>
            <Position>
              <LatitudeDegrees>39.56674433313310146331787109375</LatitudeDegrees>
              <LongitudeDegrees>-0.622048191726207733154296875</LongitudeDegrees>
            </Position>
            <AltitudeMeters>111.1999969482421875</AltitudeMeters>
            <DistanceMeters>26338.768303993</DistanceMeters>
          </Trackpoint>
          <Trackpoint>
            <Time>2021-10-09T07:47:40.000Z</Time>
            <Position>
              <LatitudeDegrees>39.5668039284646511077880859375</LatitudeDegrees>
              <LongitudeDegrees>-0.62205112539231777191162109375</LongitudeDegrees>
            </Position>
            <AltitudeMeters>111.40000152587890625</AltitudeMeters>
            <DistanceMeters>26345.406584873</DistanceMeters>
          </Trackpoint>
          <Trackpoint>
            <Time>2021-10-09T07:47:41.000Z</Time>
            <Position>
              <LatitudeDegrees>39.56686436198651790618896484375</LatitudeDegrees>
              <LongitudeDegrees>-0.62205431051552295684814453125</LongitudeDegrees>
            </Position>
            <AltitudeMeters>111.40000152587890625</AltitudeMeters>
            <DistanceMeters>26352.138072346</DistanceMeters>
          </Trackpoint>
          <Trackpoint>
            <Time>2021-10-09T07:47:42.000Z</Time>
            <Position>
              <LatitudeDegrees>39.56692437641322612762451171875</LatitudeDegrees>
              <LongitudeDegrees>-0.622060261666774749755859375</LongitudeDegrees>
            </Position>
            <AltitudeMeters>111.59999847412109375</AltitudeMeters>
            <DistanceMeters>26358.83728722</DistanceMeters>
          </Trackpoint>
          <Trackpoint>
            <Time>2021-10-09T07:47:43.000Z</Time>
            <Position>
              <LatitudeDegrees>39.5669846422970294952392578125</LatitudeDegrees>
              <LongitudeDegrees>-0.622065961360931396484375</LongitudeDegrees>
            </Position>
            <AltitudeMeters>111.59999847412109375</AltitudeMeters>
            <DistanceMeters>26365.563406679</DistanceMeters>
          </Trackpoint>
          <Trackpoint>
            <Time>2021-10-09T07:47:44.000Z</Time>
            <Position>
              <LatitudeDegrees>39.56704507581889629364013671875</LatitudeDegrees>
              <LongitudeDegrees>-0.6220721639692783355712890625</LongitudeDegrees>
            </Position>
            <AltitudeMeters>111.59999847412109375</AltitudeMeters>
            <DistanceMeters>26372.310972569</DistanceMeters>
          </Trackpoint>
          <Trackpoint>
            <Time>2021-10-09T07:47:45.000Z</Time>
            <Position>
              <LatitudeDegrees>39.56710576079785823822021484375</LatitudeDegrees>
              <LongitudeDegrees>-0.6220792047679424285888671875</LongitudeDegrees>
            </Position>
            <AltitudeMeters>111.8000030517578125</AltitudeMeters>
            <DistanceMeters>26379.091912714</DistanceMeters>
          </Trackpoint>
          <Trackpoint>
            <Time>2021-10-09T07:47:46.000Z</Time>
            <Position>
              <LatitudeDegrees>39.56716753542423248291015625</LatitudeDegrees>
              <LongitudeDegrees>-0.6220838986337184906005859375</LongitudeDegrees>
            </Position>
            <AltitudeMeters>111.59999847412109375</AltitudeMeters>
            <DistanceMeters>26385.979874795</DistanceMeters>
          </Trackpoint>
          <Trackpoint>
            <Time>2021-10-09T07:47:47.000Z</Time>
            <Position>
              <LatitudeDegrees>39.5672285556793212890625</LatitudeDegrees>
              <LongitudeDegrees>-0.62209035269916057586669921875</LongitudeDegrees>
            </Position>
            <AltitudeMeters>111.59999847412109375</AltitudeMeters>
            <DistanceMeters>26392.794025738</DistanceMeters>
          </Trackpoint>
          <Trackpoint>
            <Time>2021-10-09T07:47:48.000Z</Time>
            <Position>
              <LatitudeDegrees>39.5672887377440929412841796875</LatitudeDegrees>
              <LongitudeDegrees>-0.6220966391265392303466796875</LongitudeDegrees>
            </Position>
            <AltitudeMeters>111.59999847412109375</AltitudeMeters>
            <DistanceMeters>26399.513429151</DistanceMeters>
          </Trackpoint>
          <Trackpoint>
            <Time>2021-10-09T07:47:49.000Z</Time>
            <Position>
              <LatitudeDegrees>39.56734833307564258575439453125</LatitudeDegrees>
              <LongitudeDegrees>-0.6221050210297107696533203125</LongitudeDegrees>
            </Position>
            <AltitudeMeters>111.59999847412109375</AltitudeMeters>
            <DistanceMeters>26406.185630952</DistanceMeters>
          </Trackpoint>
          <Trackpoint>
            <Time>2021-10-09T07:47:50.000Z</Time>
            <Position>
              <LatitudeDegrees>39.56740315072238445281982421875</LatitudeDegrees>
              <LongitudeDegrees>-0.62211633659899234771728515625</LongitudeDegrees>
            </Position>
            <AltitudeMeters>111.59999847412109375</AltitudeMeters>
            <DistanceMeters>26412.364559921</DistanceMeters>
          </Trackpoint>
          <Trackpoint>
            <Time>2021-10-09T07:47:51.000Z</Time>
            <Position>
              <LatitudeDegrees>39.567452184855937957763671875</LatitudeDegrees>
              <LongitudeDegrees>-0.62214952893555164337158203125</LongitudeDegrees>
            </Position>
            <AltitudeMeters>111.59999847412109375</AltitudeMeters>
            <DistanceMeters>26418.520061587</DistanceMeters>
          </Trackpoint>
          <Trackpoint>
            <Time>2021-10-09T07:47:52.000Z</Time>
            <Position>
              <LatitudeDegrees>39.56749417819082736968994140625</LatitudeDegrees>
              <LongitudeDegrees>-0.62219562940299510955810546875</LongitudeDegrees>
            </Position>
            <AltitudeMeters>111.59999847412109375</AltitudeMeters>
            <DistanceMeters>26424.643941686</DistanceMeters>
          </Trackpoint>
          <Trackpoint>
            <Time>2021-10-09T07:47:53.000Z</Time>
            <Position>
              <LatitudeDegrees>39.56752770580351352691650390625</LatitudeDegrees>
              <LongitudeDegrees>-0.6222572363913059234619140625</LongitudeDegrees>
            </Position>
            <AltitudeMeters>111.8000030517578125</AltitudeMeters>
            <DistanceMeters>26431.11413754</DistanceMeters>
          </Trackpoint>
          <Trackpoint>
            <Time>2021-10-09T07:47:54.000Z</Time>
            <Position>
              <LatitudeDegrees>39.567546732723712921142578125</LatitudeDegrees>
              <LongitudeDegrees>-0.62232806347310543060302734375</LongitudeDegrees>
            </Position>
            <AltitudeMeters>111.8000030517578125</AltitudeMeters>
            <DistanceMeters>26437.550750837</DistanceMeters>
          </Trackpoint>
          <Trackpoint>
            <Time>2021-10-09T07:47:55.000Z</Time>
            <Position>
              <LatitudeDegrees>39.56755385734140872955322265625</LatitudeDegrees>
              <LongitudeDegrees>-0.62240299768745899200439453125</LongitudeDegrees>
            </Position>
            <AltitudeMeters>112</AltitudeMeters>
            <DistanceMeters>26444.029315131</DistanceMeters>
          </Trackpoint>
          <Trackpoint>
            <Time>2021-10-09T07:47:56.000Z</Time>
            <Position>
              <LatitudeDegrees>39.5675499178469181060791015625</LatitudeDegrees>
              <LongitudeDegrees>-0.62247893773019313812255859375</LongitudeDegrees>
            </Position>
            <AltitudeMeters>112</AltitudeMeters>
            <DistanceMeters>26450.559247823</DistanceMeters>
          </Trackpoint>
          <Trackpoint>
            <Time>2021-10-09T07:47:57.000Z</Time>
            <Position>
              <LatitudeDegrees>39.56754011102020740509033203125</LatitudeDegrees>
              <LongitudeDegrees>-0.6225509382784366607666015625</LongitudeDegrees>
            </Position>
            <AltitudeMeters>112</AltitudeMeters>
            <DistanceMeters>26456.832450605</DistanceMeters>
          </Trackpoint>
          <Trackpoint>
            <Time>2021-10-09T07:47:58.000Z</Time>
            <Position>
              <LatitudeDegrees>39.56753441132605075836181640625</LatitudeDegrees>
              <LongitudeDegrees>-0.6226233579218387603759765625</LongitudeDegrees>
            </Position>
            <AltitudeMeters>112</AltitudeMeters>
            <DistanceMeters>26463.078243608</DistanceMeters>
          </Trackpoint>
          <Trackpoint>
            <Time>2021-10-09T07:47:59.000Z</Time>
            <Position>
              <LatitudeDegrees>39.56753726117312908172607421875</LatitudeDegrees>
              <LongitudeDegrees>-0.62269619666039943695068359375</LongitudeDegrees>
            </Position>
            <AltitudeMeters>112.1999969482421875</AltitudeMeters>
            <DistanceMeters>26469.335592205</DistanceMeters>
          </Trackpoint>
          <Trackpoint>
            <Time>2021-10-09T07:48:00.000Z</Time>
            <Position>
              <LatitudeDegrees>39.567542374134063720703125</LatitudeDegrees>
              <LongitudeDegrees>-0.62276962213218212127685546875</LongitudeDegrees>
            </Position>
            <AltitudeMeters>112.1999969482421875</AltitudeMeters>
            <DistanceMeters>26475.660403557</DistanceMeters>
          </Trackpoint>
          <Trackpoint>
            <Time>2021-10-09T07:48:01.000Z</Time>
            <Position>
              <LatitudeDegrees>39.56754799000918865203857421875</LatitudeDegrees>
              <LongitudeDegrees>-0.6228406168520450592041015625</LongitudeDegrees>
            </Position>
            <AltitudeMeters>112.1999969482421875</AltitudeMeters>
            <DistanceMeters>26481.783546329</DistanceMeters>
          </Trackpoint>
          <Trackpoint>
            <Time>2021-10-09T07:48:02.000Z</Time>
            <Position>
              <LatitudeDegrees>39.56754983402788639068603515625</LatitudeDegrees>
              <LongitudeDegrees>-0.62291395850479602813720703125</LongitudeDegrees>
            </Position>
            <AltitudeMeters>112.40000152587890625</AltitudeMeters>
            <DistanceMeters>26488.079738478</DistanceMeters>
          </Trackpoint>
          <Trackpoint>
            <Time>2021-10-09T07:48:03.000Z</Time>
            <Position>
              <LatitudeDegrees>39.56755234859883785247802734375</LatitudeDegrees>
              <LongitudeDegrees>-0.62298252247273921966552734375</LongitudeDegrees>
            </Position>
            <AltitudeMeters>112.40000152587890625</AltitudeMeters>
            <DistanceMeters>26493.969095287</DistanceMeters>
          </Trackpoint>
          <Trackpoint>
            <Time>2021-10-09T07:48:04.000Z</Time>
            <Position>
              <LatitudeDegrees>39.56755754537880420684814453125</LatitudeDegrees>
              <LongitudeDegrees>-0.6230518408119678497314453125</LongitudeDegrees>
            </Position>
            <AltitudeMeters>112.59999847412109375</AltitudeMeters>
            <DistanceMeters>26499.94445488</DistanceMeters>
          </Trackpoint>
          <Trackpoint>
            <Time>2021-10-09T07:48:05.000Z</Time>
            <Position>
              <LatitudeDegrees>39.56756039522588253021240234375</LatitudeDegrees>
              <LongitudeDegrees>-0.6231222487986087799072265625</LongitudeDegrees>
            </Position>
            <AltitudeMeters>112.59999847412109375</AltitudeMeters>
            <DistanceMeters>26505.993410967</DistanceMeters>
          </Trackpoint>
          <Trackpoint>
            <Time>2021-10-09T07:48:06.000Z</Time>
            <Position>
              <LatitudeDegrees>39.5675599761307239532470703125</LatitudeDegrees>
              <LongitudeDegrees>-0.623193494975566864013671875</LongitudeDegrees>
            </Position>
            <AltitudeMeters>112.59999847412109375</AltitudeMeters>
            <DistanceMeters>26512.106221804</DistanceMeters>
          </Trackpoint>
          <Trackpoint>
            <Time>2021-10-09T07:48:07.000Z</Time>
            <Position>
              <LatitudeDegrees>39.56755779683589935302734375</LatitudeDegrees>
              <LongitudeDegrees>-0.62326432205736637115478515625</LongitudeDegrees>
            </Position>
            <AltitudeMeters>112.8000030517578125</AltitudeMeters>
            <DistanceMeters>26518.187931524</DistanceMeters>
          </Trackpoint>
          <Trackpoint>
            <Time>2021-10-09T07:48:08.000Z</Time>
            <Position>
              <LatitudeDegrees>39.5675598084926605224609375</LatitudeDegrees>
              <LongitudeDegrees>-0.6233307905495166778564453125</LongitudeDegrees>
            </Position>
            <AltitudeMeters>113</AltitudeMeters>
            <DistanceMeters>26523.895865985</DistanceMeters>
          </Trackpoint>
          <Trackpoint>
            <Time>2021-10-09T07:48:09.000Z</Time>
            <Position>
              <LatitudeDegrees>39.56756718456745147705078125</LatitudeDegrees>
              <LongitudeDegrees>-0.623389296233654022216796875</LongitudeDegrees>
            </Position>
            <AltitudeMeters>113</AltitudeMeters>
            <DistanceMeters>26528.983124489</DistanceMeters>
          </Trackpoint>
          <Trackpoint>
            <Time>2021-10-09T07:48:10.000Z</Time>
            <Position>
              <LatitudeDegrees>39.56756944768130779266357421875</LatitudeDegrees>
              <LongitudeDegrees>-0.6234454549849033355712890625</LongitudeDegrees>
            </Position>
            <AltitudeMeters>113.1999969482421875</AltitudeMeters>
            <DistanceMeters>26533.808947439</DistanceMeters>
          </Trackpoint>
          <Trackpoint>
            <Time>2021-10-09T07:48:11.000Z</Time>
            <Position>
              <LatitudeDegrees>39.5675703696906566619873046875</LatitudeDegrees>
              <LongitudeDegrees>-0.62350052408874034881591796875</LongitudeDegrees>
            </Position>
            <AltitudeMeters>113.40000152587890625</AltitudeMeters>
            <DistanceMeters>26538.534556294</DistanceMeters>
          </Trackpoint>
          <Trackpoint>
            <Time>2021-10-09T07:48:12.000Z</Time>
            <Position>
              <LatitudeDegrees>39.56756844185292720794677734375</LatitudeDegrees>
              <LongitudeDegrees>-0.62356020323932170867919921875</LongitudeDegrees>
            </Position>
            <AltitudeMeters>113.59999847412109375</AltitudeMeters>
            <DistanceMeters>26543.658955019</DistanceMeters>
          </Trackpoint>
          <Trackpoint>
            <Time>2021-10-09T07:48:13.000Z</Time>
            <Position>
              <LatitudeDegrees>39.56756844185292720794677734375</LatitudeDegrees>
              <LongitudeDegrees>-0.6236191280186176300048828125</LongitudeDegrees>
            </Position>
            <AltitudeMeters>114</AltitudeMeters>
            <DistanceMeters>26548.712375265</DistanceMeters>
          </Trackpoint>
          <Trackpoint>
            <Time>2021-10-09T07:48:14.000Z</Time>
            <Position>
              <LatitudeDegrees>39.56757129170000553131103515625</LatitudeDegrees>
              <LongitudeDegrees>-0.6236831657588481903076171875</LongitudeDegrees>
            </Position>
            <AltitudeMeters>114</AltitudeMeters>
            <DistanceMeters>26554.215726644</DistanceMeters>
          </Trackpoint>
          <Trackpoint>
            <Time>2021-10-09T07:48:15.000Z</Time>
            <Position>
              <LatitudeDegrees>39.5675764046609401702880859375</LatitudeDegrees>
              <LongitudeDegrees>-0.62375198118388652801513671875</LongitudeDegrees>
            </Position>
            <AltitudeMeters>114</AltitudeMeters>
            <DistanceMeters>26560.147860147</DistanceMeters>
          </Trackpoint>
          <Trackpoint>
            <Time>2021-10-09T07:48:16.000Z</Time>
            <Position>
              <LatitudeDegrees>39.56758487038314342498779296875</LatitudeDegrees>
              <LongitudeDegrees>-0.6238139234483242034912109375</LongitudeDegrees>
            </Position>
            <AltitudeMeters>114.1999969482421875</AltitudeMeters>
            <DistanceMeters>26565.546013228</DistanceMeters>
          </Trackpoint>
          <Trackpoint>
            <Time>2021-10-09T07:48:17.000Z</Time>
            <Position>
              <LatitudeDegrees>39.567589648067951202392578125</LatitudeDegrees>
              <LongitudeDegrees>-0.6238803081214427947998046875</LongitudeDegrees>
            </Position>
            <AltitudeMeters>114.1999969482421875</AltitudeMeters>
            <DistanceMeters>26571.266589863</DistanceMeters>
          </Trackpoint>
          <Trackpoint>
            <Time>2021-10-09T07:48:18.000Z</Time>
            <Position>
              <LatitudeDegrees>39.5675893127918243408203125</LatitudeDegrees>
              <LongitudeDegrees>-0.6239460222423076629638671875</LongitudeDegrees>
            </Position>
            <AltitudeMeters>114.1999969482421875</AltitudeMeters>
            <DistanceMeters>26576.904485665</DistanceMeters>
          </Trackpoint>
          <Trackpoint>
            <Time>2021-10-09T07:48:19.000Z</Time>
            <Position>
              <LatitudeDegrees>39.56758730113506317138671875</LatitudeDegrees>
              <LongitudeDegrees>-0.624013245105743408203125</LongitudeDegrees>
            </Position>
            <AltitudeMeters>114.40000152587890625</AltitudeMeters>
            <DistanceMeters>26582.675354051</DistanceMeters>
          </Trackpoint>
          <Trackpoint>
            <Time>2021-10-09T07:48:20.000Z</Time>
            <Position>
              <LatitudeDegrees>39.56759040243923664093017578125</LatitudeDegrees>
              <LongitudeDegrees>-0.62408407218754291534423828125</LongitudeDegrees>
            </Position>
            <AltitudeMeters>114.40000152587890625</AltitudeMeters>
            <DistanceMeters>26588.761516518</DistanceMeters>
          </Trackpoint>
          <Trackpoint>
            <Time>2021-10-09T07:48:21.000Z</Time>
            <Position>
              <LatitudeDegrees>39.5675938390195369720458984375</LatitudeDegrees>
              <LongitudeDegrees>-0.624152719974517822265625</LongitudeDegrees>
            </Position>
            <AltitudeMeters>114.40000152587890625</AltitudeMeters>
            <DistanceMeters>26594.663891881</DistanceMeters>
          </Trackpoint>
          <Trackpoint>
            <Time>2021-10-09T07:48:22.000Z</Time>
            <Position>
              <LatitudeDegrees>39.567596353590488433837890625</LatitudeDegrees>
              <LongitudeDegrees>-0.6242216192185878753662109375</LongitudeDegrees>
            </Position>
            <AltitudeMeters>114.59999847412109375</AltitudeMeters>
            <DistanceMeters>26600.58230945</DistanceMeters>
          </Trackpoint>
          <Trackpoint>
            <Time>2021-10-09T07:48:23.000Z</Time>
            <Position>
              <LatitudeDegrees>39.5675992034375667572021484375</LatitudeDegrees>
              <LongitudeDegrees>-0.62429009936749935150146484375</LongitudeDegrees>
            </Position>
            <AltitudeMeters>114.8000030517578125</AltitudeMeters>
            <DistanceMeters>26606.466297306</DistanceMeters>
          </Trackpoint>
          <Trackpoint>
            <Time>2021-10-09T07:48:24.000Z</Time>
            <Position>
              <LatitudeDegrees>39.56760364584624767303466796875</LatitudeDegrees>
              <LongitudeDegrees>-0.62435732223093509674072265625</LongitudeDegrees>
            </Position>
            <AltitudeMeters>115</AltitudeMeters>
            <DistanceMeters>26612.255912471</DistanceMeters>
          </Trackpoint>
          <Trackpoint>
            <Time>2021-10-09T07:48:25.000Z</Time>
            <Position>
              <LatitudeDegrees>39.56760867498815059661865234375</LatitudeDegrees>
              <LongitudeDegrees>-0.624417923390865325927734375</LongitudeDegrees>
            </Position>
            <AltitudeMeters>115.1999969482421875</AltitudeMeters>
            <DistanceMeters>26617.484972757</DistanceMeters>
          </Trackpoint>
          <Trackpoint>
            <Time>2021-10-09T07:48:26.000Z</Time>
            <Position>
              <LatitudeDegrees>39.56761202774941921234130859375</LatitudeDegrees>
              <LongitudeDegrees>-0.62448388896882534027099609375</LongitudeDegrees>
            </Position>
            <AltitudeMeters>115.1999969482421875</AltitudeMeters>
            <DistanceMeters>26623.157995976</DistanceMeters>
          </Trackpoint>
          <Trackpoint>
            <Time>2021-10-09T07:48:27.000Z</Time>
            <Position>
              <LatitudeDegrees>39.56761672161519527435302734375</LatitudeDegrees>
              <LongitudeDegrees>-0.62455035746097564697265625</LongitudeDegrees>
            </Position>
            <AltitudeMeters>115.40000152587890625</AltitudeMeters>
            <DistanceMeters>26628.884883232</DistanceMeters>
          </Trackpoint>
          <Trackpoint>
            <Time>2021-10-09T07:48:28.000Z</Time>
            <Position>
              <LatitudeDegrees>39.5676250196993350982666015625</LatitudeDegrees>
              <LongitudeDegrees>-0.62461850233376026153564453125</LongitudeDegrees>
            </Position>
            <AltitudeMeters>115.40000152587890625</AltitudeMeters>
            <DistanceMeters>26634.804063632</DistanceMeters>
          </Trackpoint>
          <Trackpoint>
            <Time>2021-10-09T07:48:29.000Z</Time>
            <Position>
              <LatitudeDegrees>39.567631222307682037353515625</LatitudeDegrees>
              <LongitudeDegrees>-0.62468991614878177642822265625</LongitudeDegrees>
            </Position>
            <AltitudeMeters>115.8000030517578125</AltitudeMeters>
            <DistanceMeters>26640.969825696</DistanceMeters>
          </Trackpoint>
          <Trackpoint>
            <Time>2021-10-09T07:48:30.000Z</Time>
            <Position>
              <LatitudeDegrees>39.5676370896399021148681640625</LatitudeDegrees>
              <LongitudeDegrees>-0.62475730665028095245361328125</LongitudeDegrees>
            </Position>
            <AltitudeMeters>116</AltitudeMeters>
            <DistanceMeters>26646.787447762</DistanceMeters>
          </Trackpoint>
          <Trackpoint>
            <Time>2021-10-09T07:48:31.000Z</Time>
            <Position>
              <LatitudeDegrees>39.567643292248249053955078125</LatitudeDegrees>
              <LongitudeDegrees>-0.6248234398663043975830078125</LongitudeDegrees>
            </Position>
            <AltitudeMeters>116.40000152587890625</AltitudeMeters>
            <DistanceMeters>26652.503286859</DistanceMeters>
          </Trackpoint>
          <Trackpoint>
            <Time>2021-10-09T07:48:32.000Z</Time>
            <Position>
              <LatitudeDegrees>39.56764857284724712371826171875</LatitudeDegrees>
              <LongitudeDegrees>-0.62488588504493236541748046875</LongitudeDegrees>
            </Position>
            <AltitudeMeters>116.59999847412109375</AltitudeMeters>
            <DistanceMeters>26657.893907045</DistanceMeters>
          </Trackpoint>
          <Trackpoint>
            <Time>2021-10-09T07:48:33.000Z</Time>
            <Position>
              <LatitudeDegrees>39.56765259616076946258544921875</LatitudeDegrees>
              <LongitudeDegrees>-0.6249488331377506256103515625</LongitudeDegrees>
            </Position>
            <AltitudeMeters>116.8000030517578125</AltitudeMeters>
            <DistanceMeters>26663.31292989</DistanceMeters>
          </Trackpoint>
          <Trackpoint>
            <Time>2021-10-09T07:48:34.000Z</Time>
            <Position>
              <LatitudeDegrees>39.5676582120358943939208984375</LatitudeDegrees>
              <LongitudeDegrees>-0.62501295469701290130615234375</LongitudeDegrees>
            </Position>
            <AltitudeMeters>116.8000030517578125</AltitudeMeters>
            <DistanceMeters>26668.849816157</DistanceMeters>
          </Trackpoint>
          <Trackpoint>
            <Time>2021-10-09T07:48:35.000Z</Time>
            <Position>
              <LatitudeDegrees>39.5676622353494167327880859375</LatitudeDegrees>
              <LongitudeDegrees>-0.62507615424692630767822265625</LongitudeDegrees>
            </Position>
            <AltitudeMeters>116.8000030517578125</AltitudeMeters>
            <DistanceMeters>26674.290458636</DistanceMeters>
          </Trackpoint>
          <Trackpoint>
            <Time>2021-10-09T07:48:36.000Z</Time>
            <Position>
              <LatitudeDegrees>39.567665755748748779296875</LatitudeDegrees>
              <LongitudeDegrees>-0.62513750977814197540283203125</LongitudeDegrees>
            </Position>
            <AltitudeMeters>116.8000030517578125</AltitudeMeters>
            <DistanceMeters>26679.569361543</DistanceMeters>
          </Trackpoint>
          <Trackpoint>
            <Time>2021-10-09T07:48:37.000Z</Time>
            <Position>
              <LatitudeDegrees>39.56766986288130283355712890625</LatitudeDegrees>
              <LongitudeDegrees>-0.6251986138522624969482421875</LongitudeDegrees>
            </Position>
            <AltitudeMeters>117</AltitudeMeters>
            <DistanceMeters>26684.831130673</DistanceMeters>
          </Trackpoint>
          <Trackpoint>
            <Time>2021-10-09T07:48:38.000Z</Time>
            <Position>
              <LatitudeDegrees>39.56767522729933261871337890625</LatitudeDegrees>
              <LongitudeDegrees>-0.62525452114641666412353515625</LongitudeDegrees>
            </Position>
            <AltitudeMeters>117</AltitudeMeters>
            <DistanceMeters>26689.665366687</DistanceMeters>
          </Trackpoint>
          <Trackpoint>
            <Time>2021-10-09T07:48:39.000Z</Time>
            <Position>
              <LatitudeDegrees>39.56767673604190349578857421875</LatitudeDegrees>
              <LongitudeDegrees>-0.6253062374889850616455078125</LongitudeDegrees>
            </Position>
            <AltitudeMeters>117.1999969482421875</AltitudeMeters>
            <DistanceMeters>26694.106277286</DistanceMeters>
          </Trackpoint>
          <Trackpoint>
            <Time>2021-10-09T07:48:40.000Z</Time>
            <Position>
              <LatitudeDegrees>39.5676779933273792266845703125</LatitudeDegrees>
              <LongitudeDegrees>-0.62536600045859813690185546875</LongitudeDegrees>
            </Position>
            <AltitudeMeters>117.1999969482421875</AltitudeMeters>
            <DistanceMeters>26699.235959807</DistanceMeters>
          </Trackpoint>
          <Trackpoint>
            <Time>2021-10-09T07:48:41.000Z</Time>
            <Position>
              <LatitudeDegrees>39.5676833577454090118408203125</LatitudeDegrees>
              <LongitudeDegrees>-0.6254309602081775665283203125</LongitudeDegrees>
            </Position>
            <AltitudeMeters>117.40000152587890625</AltitudeMeters>
            <DistanceMeters>26704.841730585</DistanceMeters>
          </Trackpoint>
          <Trackpoint>
            <Time>2021-10-09T07:48:42.000Z</Time>
            <Position>
              <LatitudeDegrees>39.5676860399544239044189453125</LatitudeDegrees>
              <LongitudeDegrees>-0.62549642287194728851318359375</LongitudeDegrees>
            </Position>
            <AltitudeMeters>117.40000152587890625</AltitudeMeters>
            <DistanceMeters>26710.466798395</DistanceMeters>
          </Trackpoint>
          <Trackpoint>
            <Time>2021-10-09T07:48:43.000Z</Time>
            <Position>
              <LatitudeDegrees>39.5676853694021701812744140625</LatitudeDegrees>
              <LongitudeDegrees>-0.6255662441253662109375</LongitudeDegrees>
            </Position>
            <AltitudeMeters>117.40000152587890625</AltitudeMeters>
            <DistanceMeters>26716.458758336</DistanceMeters>
          </Trackpoint>
          <Trackpoint>
            <Time>2021-10-09T07:48:44.000Z</Time>
            <Position>
              <LatitudeDegrees>39.56768696196377277374267578125</LatitudeDegrees>
              <LongitudeDegrees>-0.625634305179119110107421875</LongitudeDegrees>
            </Position>
            <AltitudeMeters>117.59999847412109375</AltitudeMeters>
            <DistanceMeters>26722.301162718</DistanceMeters>
          </Trackpoint>
          <Trackpoint>
            <Time>2021-10-09T07:48:45.000Z</Time>
            <Position>
              <LatitudeDegrees>39.56768654286861419677734375</LatitudeDegrees>
              <LongitudeDegrees>-0.6256998516619205474853515625</LongitudeDegrees>
            </Position>
            <AltitudeMeters>117.59999847412109375</AltitudeMeters>
            <DistanceMeters>26727.924624971</DistanceMeters>
          </Trackpoint>
          <Trackpoint>
            <Time>2021-10-09T07:48:46.000Z</Time>
            <Position>
              <LatitudeDegrees>39.567691572010517120361328125</LatitudeDegrees>
              <LongitudeDegrees>-0.6257642246782779693603515625</LongitudeDegrees>
            </Position>
            <AltitudeMeters>117.59999847412109375</AltitudeMeters>
            <DistanceMeters>26733.476169882</DistanceMeters>
          </Trackpoint>
          <Trackpoint>
            <Time>2021-10-09T07:48:47.000Z</Time>
            <Position>
              <LatitudeDegrees>39.5676947571337223052978515625</LatitudeDegrees>
              <LongitudeDegrees>-0.62583169899880886077880859375</LongitudeDegrees>
            </Position>
            <AltitudeMeters>117.8000030517578125</AltitudeMeters>
            <DistanceMeters>26739.276692689</DistanceMeters>
          </Trackpoint>
          <Trackpoint>
            <Time>2021-10-09T07:48:48.000Z</Time>
            <Position>
              <LatitudeDegrees>39.56770397722721099853515625</LatitudeDegrees>
              <LongitudeDegrees>-0.62589691020548343658447265625</LongitudeDegrees>
            </Position>
            <AltitudeMeters>118</AltitudeMeters>
            <DistanceMeters>26744.965611213</DistanceMeters>
          </Trackpoint>
          <Trackpoint>
            <Time>2021-10-09T07:48:49.000Z</Time>
            <Position>
              <LatitudeDegrees>39.56770456396043300628662109375</LatitudeDegrees>
              <LongitudeDegrees>-0.6259680725634098052978515625</LongitudeDegrees>
            </Position>
            <AltitudeMeters>118</AltitudeMeters>
            <DistanceMeters>26751.07177086</DistanceMeters>
          </Trackpoint>
          <Trackpoint>
            <Time>2021-10-09T07:48:50.000Z</Time>
            <Position>
              <LatitudeDegrees>39.56770506687462329864501953125</LatitudeDegrees>
              <LongitudeDegrees>-0.62604007311165332794189453125</LongitudeDegrees>
            </Position>
            <AltitudeMeters>118</AltitudeMeters>
            <DistanceMeters>26757.249238226</DistanceMeters>
          </Trackpoint>
          <Trackpoint>
            <Time>2021-10-09T07:48:51.000Z</Time>
            <Position>
              <LatitudeDegrees>39.567708671092987060546875</LatitudeDegrees>
              <LongitudeDegrees>-0.62609774060547351837158203125</LongitudeDegrees>
            </Position>
            <AltitudeMeters>118.1999969482421875</AltitudeMeters>
            <DistanceMeters>26762.21250817</DistanceMeters>
          </Trackpoint>
          <Trackpoint>
            <Time>2021-10-09T07:48:52.000Z</Time>
            <Position>
              <LatitudeDegrees>39.5677121914923191070556640625</LatitudeDegrees>
              <LongitudeDegrees>-0.62615792267024517059326171875</LongitudeDegrees>
            </Position>
            <AltitudeMeters>118.1999969482421875</AltitudeMeters>
            <DistanceMeters>26767.391246147</DistanceMeters>
          </Trackpoint>
          <Trackpoint>
            <Time>2021-10-09T07:48:53.000Z</Time>
            <Position>
              <LatitudeDegrees>39.56771462224423885345458984375</LatitudeDegrees>
              <LongitudeDegrees>-0.62622631900012493133544921875</LongitudeDegrees>
            </Position>
            <AltitudeMeters>118.1999969482421875</AltitudeMeters>
            <DistanceMeters>26773.266018668</DistanceMeters>
          </Trackpoint>
          <Trackpoint>
            <Time>2021-10-09T07:48:54.000Z</Time>
            <Position>
              <LatitudeDegrees>39.56771713681519031524658203125</LatitudeDegrees>
              <LongitudeDegrees>-0.62629044055938720703125</LongitudeDegrees>
            </Position>
            <AltitudeMeters>118.40000152587890625</AltitudeMeters>
            <DistanceMeters>26778.774290343</DistanceMeters>
          </Trackpoint>
          <Trackpoint>
            <Time>2021-10-09T07:48:55.000Z</Time>
            <Position>
              <LatitudeDegrees>39.56771914847195148468017578125</LatitudeDegrees>
              <LongitudeDegrees>-0.62635623849928379058837890625</LongitudeDegrees>
            </Position>
            <AltitudeMeters>118.59999847412109375</AltitudeMeters>
            <DistanceMeters>26784.423386745</DistanceMeters>
          </Trackpoint>
          <Trackpoint>
            <Time>2021-10-09T07:48:56.000Z</Time>
            <Position>
              <LatitudeDegrees>39.5677220821380615234375</LatitudeDegrees>
              <LongitudeDegrees>-0.62642429955303668975830078125</LongitudeDegrees>
            </Position>
            <AltitudeMeters>118.8000030517578125</AltitudeMeters>
            <DistanceMeters>26790.272742235</DistanceMeters>
          </Trackpoint>
          <Trackpoint>
            <Time>2021-10-09T07:48:57.000Z</Time>
            <Position>
              <LatitudeDegrees>39.56772669218480587005615234375</LatitudeDegrees>
              <LongitudeDegrees>-0.6264917738735675811767578125</LongitudeDegrees>
            </Position>
            <AltitudeMeters>118.8000030517578125</AltitudeMeters>
            <DistanceMeters>26796.085705855</DistanceMeters>
          </Trackpoint>
          <Trackpoint>
            <Time>2021-10-09T07:48:58.000Z</Time>
            <Position>
              <LatitudeDegrees>39.567741192877292633056640625</LatitudeDegrees>
              <LongitudeDegrees>-0.6265574879944324493408203125</LongitudeDegrees>
            </Position>
            <AltitudeMeters>119.1999969482421875</AltitudeMeters>
            <DistanceMeters>26801.949708848</DistanceMeters>
          </Trackpoint>
          <Trackpoint>
            <Time>2021-10-09T07:48:59.000Z</Time>
            <Position>
              <LatitudeDegrees>39.56774949096143245697021484375</LatitudeDegrees>
              <LongitudeDegrees>-0.62661959789693355560302734375</LongitudeDegrees>
            </Position>
            <AltitudeMeters>119.1999969482421875</AltitudeMeters>
            <DistanceMeters>26807.357054548</DistanceMeters>
          </Trackpoint>
          <Trackpoint>
            <Time>2021-10-09T07:49:00.000Z</Time>
            <Position>
              <LatitudeDegrees>39.567751921713352203369140625</LatitudeDegrees>
              <LongitudeDegrees>-0.6266835518181324005126953125</LongitudeDegrees>
            </Position>
            <AltitudeMeters>119.1999969482421875</AltitudeMeters>
            <DistanceMeters>26812.850552111</DistanceMeters>
          </Trackpoint>
          <Trackpoint>
            <Time>2021-10-09T07:49:01.000Z</Time>
            <Position>
              <LatitudeDegrees>39.56775301136076450347900390625</LatitudeDegrees>
              <LongitudeDegrees>-0.626747421920299530029296875</LongitudeDegrees>
            </Position>
            <AltitudeMeters>119.40000152587890625</AltitudeMeters>
            <DistanceMeters>26818.330883694</DistanceMeters>
          </Trackpoint>
          <Trackpoint>
            <Time>2021-10-09T07:49:02.000Z</Time>
            <Position>
              <LatitudeDegrees>39.56775359809398651123046875</LatitudeDegrees>
              <LongitudeDegrees>-0.6268072687089443206787109375</LongitudeDegrees>
            </Position>
            <AltitudeMeters>119.40000152587890625</AltitudeMeters>
            <DistanceMeters>26823.467602819</DistanceMeters>
          </Trackpoint>
          <Trackpoint>
            <Time>2021-10-09T07:49:03.000Z</Time>
            <Position>
              <LatitudeDegrees>39.56775493919849395751953125</LatitudeDegrees>
              <LongitudeDegrees>-0.62686451710760593414306640625</LongitudeDegrees>
            </Position>
            <AltitudeMeters>119.59999847412109375</AltitudeMeters>
            <DistanceMeters>26828.381503959</DistanceMeters>
          </Trackpoint>
          <Trackpoint>
            <Time>2021-10-09T07:49:04.000Z</Time>
            <Position>
              <LatitudeDegrees>39.56775519065558910369873046875</LatitudeDegrees>
              <LongitudeDegrees>-0.62691933475434780120849609375</LongitudeDegrees>
            </Position>
            <AltitudeMeters>119.59999847412109375</AltitudeMeters>
            <DistanceMeters>26833.083166126</DistanceMeters>
          </Trackpoint>
          <Trackpoint>
            <Time>2021-10-09T07:49:05.000Z</Time>
            <Position>
              <LatitudeDegrees>39.56775736995041370391845703125</LatitudeDegrees>
              <LongitudeDegrees>-0.6269645132124423980712890625</LongitudeDegrees>
            </Position>
            <AltitudeMeters>119.8000030517578125</AltitudeMeters>
            <DistanceMeters>26836.967655505</DistanceMeters>
          </Trackpoint>
          <Trackpoint>
            <Time>2021-10-09T07:49:06.000Z</Time>
            <Position>
              <LatitudeDegrees>39.56776139326393604278564453125</LatitudeDegrees>
              <LongitudeDegrees>-0.62701052986085414886474609375</LongitudeDegrees>
            </Position>
            <AltitudeMeters>120</AltitudeMeters>
            <DistanceMeters>26840.941772225</DistanceMeters>
          </Trackpoint>
          <Trackpoint>
            <Time>2021-10-09T07:49:07.000Z</Time>
            <Position>
              <LatitudeDegrees>39.5677661709487438201904296875</LatitudeDegrees>
              <LongitudeDegrees>-0.62705461867153644561767578125</LongitudeDegrees>
            </Position>
            <AltitudeMeters>120</AltitudeMeters>
            <DistanceMeters>26844.761798865</DistanceMeters>
          </Trackpoint>
          <Trackpoint>
            <Time>2021-10-09T07:49:08.000Z</Time>
            <Position>
              <LatitudeDegrees>39.56777094863355159759521484375</LatitudeDegrees>
              <LongitudeDegrees>-0.6270956061780452728271484375</LongitudeDegrees>
            </Position>
            <AltitudeMeters>120.1999969482421875</AltitudeMeters>
            <DistanceMeters>26848.318642564</DistanceMeters>
          </Trackpoint>
          <Trackpoint>
            <Time>2021-10-09T07:49:09.000Z</Time>
            <Position>
              <LatitudeDegrees>39.56777363084256649017333984375</LatitudeDegrees>
              <LongitudeDegrees>-0.62713600695133209228515625</LongitudeDegrees>
            </Position>
            <AltitudeMeters>120.1999969482421875</AltitudeMeters>
            <DistanceMeters>26851.798489186</DistanceMeters>
          </Trackpoint>
          <Trackpoint>
            <Time>2021-10-09T07:49:10.000Z</Time>
            <Position>
              <LatitudeDegrees>39.567778743803501129150390625</LatitudeDegrees>
              <LongitudeDegrees>-0.627171881496906280517578125</LongitudeDegrees>
            </Position>
            <AltitudeMeters>120.40000152587890625</AltitudeMeters>
            <DistanceMeters>26854.927163484</DistanceMeters>
          </Trackpoint>
          <Trackpoint>
            <Time>2021-10-09T07:49:11.000Z</Time>
            <Position>
              <LatitudeDegrees>39.56778184510767459869384765625</LatitudeDegrees>
              <LongitudeDegrees>-0.6272072531282901763916015625</LongitudeDegrees>
            </Position>
            <AltitudeMeters>120.40000152587890625</AltitudeMeters>
            <DistanceMeters>26857.981352242</DistanceMeters>
          </Trackpoint>
          <Trackpoint>
            <Time>2021-10-09T07:49:12.000Z</Time>
            <Position>
              <LatitudeDegrees>39.56778469495475292205810546875</LatitudeDegrees>
              <LongitudeDegrees>-0.6272391043603420257568359375</LongitudeDegrees>
            </Position>
            <AltitudeMeters>120.59999847412109375</AltitudeMeters>
            <DistanceMeters>26860.732207392</DistanceMeters>
          </Trackpoint>
          <Trackpoint>
            <Time>2021-10-09T07:49:13.000Z</Time>
            <Position>
              <LatitudeDegrees>39.5677877962589263916015625</LatitudeDegrees>
              <LongitudeDegrees>-0.627267099916934967041015625</LongitudeDegrees>
            </Position>
            <AltitudeMeters>120.59999847412109375</AltitudeMeters>
            <DistanceMeters>26863.158647138</DistanceMeters>
          </Trackpoint>
          <Trackpoint>
            <Time>2021-10-09T07:49:14.000Z</Time>
            <Position>
              <LatitudeDegrees>39.56778989173471927642822265625</LatitudeDegrees>
              <LongitudeDegrees>-0.62728042714297771453857421875</LongitudeDegrees>
            </Position>
            <AltitudeMeters>120.8000030517578125</AltitudeMeters>
            <DistanceMeters>26864.326354954</DistanceMeters>
          </Trackpoint>
          <Trackpoint>
            <Time>2021-10-09T07:49:15.000Z</Time>
            <Position>
              <LatitudeDegrees>39.56778989173471927642822265625</LatitudeDegrees>
              <LongitudeDegrees>-0.62728042714297771453857421875</LongitudeDegrees>
            </Position>
            <AltitudeMeters>120.8000030517578125</AltitudeMeters>
            <DistanceMeters>26864.326354954</DistanceMeters>
          </Trackpoint>
          <Trackpoint>
            <Time>2021-10-09T07:49:37.000Z</Time>
            <Position>
              <LatitudeDegrees>39.56778989173471927642822265625</LatitudeDegrees>
              <LongitudeDegrees>-0.62728042714297771453857421875</LongitudeDegrees>
            </Position>
            <AltitudeMeters>121</AltitudeMeters>
            <DistanceMeters>26864.326354954</DistanceMeters>
          </Trackpoint>
          <Trackpoint>
            <Time>2021-10-09T07:49:38.000Z</Time>
            <Position>
              <LatitudeDegrees>39.5677906461060047149658203125</LatitudeDegrees>
              <LongitudeDegrees>-0.62728294171392917633056640625</LongitudeDegrees>
            </Position>
            <AltitudeMeters>121</AltitudeMeters>
            <DistanceMeters>26864.559121916</DistanceMeters>
          </Trackpoint>
          <Trackpoint>
            <Time>2021-10-09T07:49:39.000Z</Time>
            <Position>
              <LatitudeDegrees>39.56779324449598789215087890625</LatitudeDegrees>
              <LongitudeDegrees>-0.62731093727052211761474609375</LongitudeDegrees>
            </Position>
            <AltitudeMeters>121</AltitudeMeters>
            <DistanceMeters>26866.978107145</DistanceMeters>
          </Trackpoint>
          <Trackpoint>
            <Time>2021-10-09T07:49:40.000Z</Time>
            <Position>
              <LatitudeDegrees>39.5677976869046688079833984375</LatitudeDegrees>
              <LongitudeDegrees>-0.6273457221686840057373046875</LongitudeDegrees>
            </Position>
            <AltitudeMeters>121</AltitudeMeters>
            <DistanceMeters>26870.004077653</DistanceMeters>
          </Trackpoint>
          <Trackpoint>
            <Time>2021-10-09T07:49:41.000Z</Time>
            <Position>
              <LatitudeDegrees>39.567803554236888885498046875</LatitudeDegrees>
              <LongitudeDegrees>-0.6273856200277805328369140625</LongitudeDegrees>
            </Position>
            <AltitudeMeters>121</AltitudeMeters>
            <DistanceMeters>26873.489110338</DistanceMeters>
          </Trackpoint>
          <Trackpoint>
            <Time>2021-10-09T07:49:42.000Z</Time>
            <Position>
              <LatitudeDegrees>39.5678094215691089630126953125</LatitudeDegrees>
              <LongitudeDegrees>-0.62742643989622592926025390625</LongitudeDegrees>
            </Position>
            <AltitudeMeters>121</AltitudeMeters>
            <DistanceMeters>26877.051027996</DistanceMeters>
          </Trackpoint>
          <Trackpoint>
            <Time>2021-10-09T07:49:43.000Z</Time>
            <Position>
              <LatitudeDegrees>39.56781755201518535614013671875</LatitudeDegrees>
              <LongitudeDegrees>-0.62747337855398654937744140625</LongitudeDegrees>
            </Position>
            <AltitudeMeters>121</AltitudeMeters>
            <DistanceMeters>26881.177857793</DistanceMeters>
          </Trackpoint>
          <Trackpoint>
            <Time>2021-10-09T07:49:44.000Z</Time>
            <Position>
              <LatitudeDegrees>39.5678285323083400726318359375</LatitudeDegrees>
              <LongitudeDegrees>-0.62752651982009410858154296875</LongitudeDegrees>
            </Position>
            <AltitudeMeters>121</AltitudeMeters>
            <DistanceMeters>26885.897730523</DistanceMeters>
          </Trackpoint>
          <Trackpoint>
            <Time>2021-10-09T07:49:45.000Z</Time>
            <Position>
              <LatitudeDegrees>39.56784672103822231292724609375</LatitudeDegrees>
              <LongitudeDegrees>-0.62758385203778743743896484375</LongitudeDegrees>
            </Position>
            <AltitudeMeters>121.1999969482421875</AltitudeMeters>
            <DistanceMeters>26891.21668056</DistanceMeters>
          </Trackpoint>
          <Trackpoint>
            <Time>2021-10-09T07:49:46.000Z</Time>
            <Position>
              <LatitudeDegrees>39.56787773407995700836181640625</LatitudeDegrees>
              <LongitudeDegrees>-0.62762291170656681060791015625</LongitudeDegrees>
            </Position>
            <AltitudeMeters>121.1999969482421875</AltitudeMeters>
            <DistanceMeters>26896.02844905</DistanceMeters>
          </Trackpoint>
          <Trackpoint>
            <Time>2021-10-09T07:49:47.000Z</Time>
            <Position>
              <LatitudeDegrees>39.5679227448999881744384765625</LatitudeDegrees>
              <LongitudeDegrees>-0.6276320479810237884521484375</LongitudeDegrees>
            </Position>
            <AltitudeMeters>121.1999969482421875</AltitudeMeters>
            <DistanceMeters>26901.098816654</DistanceMeters>
          </Trackpoint>
          <Trackpoint>
            <Time>2021-10-09T07:49:48.000Z</Time>
            <Position>
              <LatitudeDegrees>39.5679623074829578399658203125</LatitudeDegrees>
              <LongitudeDegrees>-0.62760883010923862457275390625</LongitudeDegrees>
            </Position>
            <AltitudeMeters>121.40000152587890625</AltitudeMeters>
            <DistanceMeters>26905.933052668</DistanceMeters>
          </Trackpoint>
          <Trackpoint>
            <Time>2021-10-09T07:49:49.000Z</Time>
            <Position>
              <LatitudeDegrees>39.567997343838214874267578125</LatitudeDegrees>
              <LongitudeDegrees>-0.62756516039371490478515625</LongitudeDegrees>
            </Position>
            <AltitudeMeters>121.40000152587890625</AltitudeMeters>
            <DistanceMeters>26911.340398368</DistanceMeters>
          </Trackpoint>
          <Trackpoint>
            <Time>2021-10-09T07:49:50.000Z</Time>
            <Position>
              <LatitudeDegrees>39.56803179346024990081787109375</LatitudeDegrees>
              <LongitudeDegrees>-0.62750774435698986053466796875</LongitudeDegrees>
            </Position>
            <AltitudeMeters>121.40000152587890625</AltitudeMeters>
            <DistanceMeters>26917.582575861</DistanceMeters>
          </Trackpoint>
          <Trackpoint>
            <Time>2021-10-09T07:49:51.000Z</Time>
            <Position>
              <LatitudeDegrees>39.56807009875774383544921875</LatitudeDegrees>
              <LongitudeDegrees>-0.62744739465415477752685546875</LongitudeDegrees>
            </Position>
            <AltitudeMeters>121.59999847412109375</AltitudeMeters>
            <DistanceMeters>26924.289873443</DistanceMeters>
          </Trackpoint>
          <Trackpoint>
            <Time>2021-10-09T07:49:52.000Z</Time>
            <Position>
              <LatitudeDegrees>39.5681118406355381011962890625</LatitudeDegrees>
              <LongitudeDegrees>-0.627387128770351409912109375</LongitudeDegrees>
            </Position>
            <AltitudeMeters>121.59999847412109375</AltitudeMeters>
            <DistanceMeters>26931.241777436</DistanceMeters>
          </Trackpoint>
          <Trackpoint>
            <Time>2021-10-09T07:49:53.000Z</Time>
            <Position>
              <LatitudeDegrees>39.56815651617944240570068359375</LatitudeDegrees>
              <LongitudeDegrees>-0.6273189000785350799560546875</LongitudeDegrees>
            </Position>
            <AltitudeMeters>121.8000030517578125</AltitudeMeters>
            <DistanceMeters>26938.921911506</DistanceMeters>
          </Trackpoint>
          <Trackpoint>
            <Time>2021-10-09T07:49:54.000Z</Time>
            <Position>
              <LatitudeDegrees>39.5682053826749324798583984375</LatitudeDegrees>
              <LongitudeDegrees>-0.62725192867219448089599609375</LongitudeDegrees>
            </Position>
            <AltitudeMeters>121.8000030517578125</AltitudeMeters>
            <DistanceMeters>26946.83370586</DistanceMeters>
          </Trackpoint>
          <Trackpoint>
            <Time>2021-10-09T07:49:55.000Z</Time>
            <Position>
              <LatitudeDegrees>39.5682586915791034698486328125</LatitudeDegrees>
              <LongitudeDegrees>-0.62718856148421764373779296875</LongitudeDegrees>
            </Position>
            <AltitudeMeters>121.8000030517578125</AltitudeMeters>
            <DistanceMeters>26954.881296074</DistanceMeters>
          </Trackpoint>
          <Trackpoint>
            <Time>2021-10-09T07:49:56.000Z</Time>
            <Position>
              <LatitudeDegrees>39.56831543706357479095458984375</LatitudeDegrees>
              <LongitudeDegrees>-0.627127625048160552978515625</LongitudeDegrees>
            </Position>
            <AltitudeMeters>121.8000030517578125</AltitudeMeters>
            <DistanceMeters>26963.080069705</DistanceMeters>
          </Trackpoint>
          <Trackpoint>
            <Time>2021-10-09T07:49:57.000Z</Time>
            <Position>
              <LatitudeDegrees>39.56836723722517490386962890625</LatitudeDegrees>
              <LongitudeDegrees>-0.627053864300251007080078125</LongitudeDegrees>
            </Position>
            <AltitudeMeters>121.8000030517578125</AltitudeMeters>
            <DistanceMeters>26971.64091665</DistanceMeters>
          </Trackpoint>
          <Trackpoint>
            <Time>2021-10-09T07:49:58.000Z</Time>
            <Position>
              <LatitudeDegrees>39.5684189535677433013916015625</LatitudeDegrees>
              <LongitudeDegrees>-0.626974403858184814453125</LongitudeDegrees>
            </Position>
            <AltitudeMeters>122</AltitudeMeters>
            <DistanceMeters>26980.563312849</DistanceMeters>
          </Trackpoint>
          <Trackpoint>
            <Time>2021-10-09T07:49:59.000Z</Time>
            <Position>
              <LatitudeDegrees>39.5684658922255039215087890625</LatitudeDegrees>
              <LongitudeDegrees>-0.62690273858606815338134765625</LongitudeDegrees>
            </Position>
            <AltitudeMeters>122</AltitudeMeters>
            <DistanceMeters>26988.632194504</DistanceMeters>
          </Trackpoint>
          <Trackpoint>
            <Time>2021-10-09T07:50:00.000Z</Time>
            <Position>
              <LatitudeDegrees>39.56851526163518428802490234375</LatitudeDegrees>
              <LongitudeDegrees>-0.62683266587555408477783203125</LongitudeDegrees>
            </Position>
            <AltitudeMeters>122</AltitudeMeters>
            <DistanceMeters>26996.776821049</DistanceMeters>
          </Trackpoint>
          <Trackpoint>
            <Time>2021-10-09T07:50:01.000Z</Time>
            <Position>
              <LatitudeDegrees>39.5685634575784206390380859375</LatitudeDegrees>
              <LongitudeDegrees>-0.626766197383403778076171875</LongitudeDegrees>
            </Position>
            <AltitudeMeters>122</AltitudeMeters>
            <DistanceMeters>27004.606584071</DistanceMeters>
          </Trackpoint>
          <Trackpoint>
            <Time>2021-10-09T07:50:02.000Z</Time>
            <Position>
              <LatitudeDegrees>39.56861148588359355926513671875</LatitudeDegrees>
              <LongitudeDegrees>-0.62669402919709682464599609375</LongitudeDegrees>
            </Position>
            <AltitudeMeters>121.8000030517578125</AltitudeMeters>
            <DistanceMeters>27012.787164523</DistanceMeters>
          </Trackpoint>
          <Trackpoint>
            <Time>2021-10-09T07:50:03.000Z</Time>
            <Position>
              <LatitudeDegrees>39.568655826151371002197265625</LatitudeDegrees>
              <LongitudeDegrees>-0.62661892734467983245849609375</LongitudeDegrees>
            </Position>
            <AltitudeMeters>122</AltitudeMeters>
            <DistanceMeters>27020.904025846</DistanceMeters>
          </Trackpoint>
          <Trackpoint>
            <Time>2021-10-09T07:50:04.000Z</Time>
            <Position>
              <LatitudeDegrees>39.5687022618949413299560546875</LatitudeDegrees>
              <LongitudeDegrees>-0.626552961766719818115234375</LongitudeDegrees>
            </Position>
            <AltitudeMeters>122</AltitudeMeters>
            <DistanceMeters>27028.569448692</DistanceMeters>
          </Trackpoint>
          <Trackpoint>
            <Time>2021-10-09T07:50:05.000Z</Time>
            <Position>
              <LatitudeDegrees>39.568747021257877349853515625</LatitudeDegrees>
              <LongitudeDegrees>-0.6264914385974407196044921875</LongitudeDegrees>
            </Position>
            <AltitudeMeters>121.8000030517578125</AltitudeMeters>
            <DistanceMeters>27035.828270639</DistanceMeters>
          </Trackpoint>
          <Trackpoint>
            <Time>2021-10-09T07:50:06.000Z</Time>
            <Position>
              <LatitudeDegrees>39.5687921158969402313232421875</LatitudeDegrees>
              <LongitudeDegrees>-0.62643268145620822906494140625</LongitudeDegrees>
            </Position>
            <AltitudeMeters>121.8000030517578125</AltitudeMeters>
            <DistanceMeters>27042.941958037</DistanceMeters>
          </Trackpoint>
          <Trackpoint>
            <Time>2021-10-09T07:50:07.000Z</Time>
            <Position>
              <LatitudeDegrees>39.5688353665173053741455078125</LatitudeDegrees>
              <LongitudeDegrees>-0.6263714097440242767333984375</LongitudeDegrees>
            </Position>
            <AltitudeMeters>121.8000030517578125</AltitudeMeters>
            <DistanceMeters>27050.070228525</DistanceMeters>
          </Trackpoint>
          <Trackpoint>
            <Time>2021-10-09T07:50:08.000Z</Time>
            <Position>
              <LatitudeDegrees>39.56887668929994106292724609375</LatitudeDegrees>
              <LongitudeDegrees>-0.6263100542128086090087890625</LongitudeDegrees>
            </Position>
            <AltitudeMeters>121.40000152587890625</AltitudeMeters>
            <DistanceMeters>27057.060991982</DistanceMeters>
          </Trackpoint>
          <Trackpoint>
            <Time>2021-10-09T07:50:09.000Z</Time>
            <Position>
              <LatitudeDegrees>39.56892245449125766754150390625</LatitudeDegrees>
              <LongitudeDegrees>-0.6262507103383541107177734375</LongitudeDegrees>
            </Position>
            <AltitudeMeters>121.59999847412109375</AltitudeMeters>
            <DistanceMeters>27064.262988864</DistanceMeters>
          </Trackpoint>
          <Trackpoint>
            <Time>2021-10-09T07:50:10.000Z</Time>
            <Position>
              <LatitudeDegrees>39.56896671094000339508056640625</LatitudeDegrees>
              <LongitudeDegrees>-0.62618860043585300445556640625</LongitudeDegrees>
            </Position>
            <AltitudeMeters>121.59999847412109375</AltitudeMeters>
            <DistanceMeters>27071.51994455</DistanceMeters>
          </Trackpoint>
          <Trackpoint>
            <Time>2021-10-09T07:50:11.000Z</Time>
            <Position>
              <LatitudeDegrees>39.5690110512077808380126953125</LatitudeDegrees>
              <LongitudeDegrees>-0.62612841837108135223388671875</LongitudeDegrees>
            </Position>
            <AltitudeMeters>121.40000152587890625</AltitudeMeters>
            <DistanceMeters>27078.663400435</DistanceMeters>
          </Trackpoint>
          <Trackpoint>
            <Time>2021-10-09T07:50:12.000Z</Time>
            <Position>
              <LatitudeDegrees>39.5690569840371608734130859375</LatitudeDegrees>
              <LongitudeDegrees>-0.6260676495730876922607421875</LongitudeDegrees>
            </Position>
            <AltitudeMeters>121.40000152587890625</AltitudeMeters>
            <DistanceMeters>27085.965633066</DistanceMeters>
          </Trackpoint>
          <Trackpoint>
            <Time>2021-10-09T07:50:13.000Z</Time>
            <Position>
              <LatitudeDegrees>39.56910417415201663970947265625</LatitudeDegrees>
              <LongitudeDegrees>-0.626007132232189178466796875</LongitudeDegrees>
            </Position>
            <AltitudeMeters>121.1999969482421875</AltitudeMeters>
            <DistanceMeters>27093.350865745</DistanceMeters>
          </Trackpoint>
          <Trackpoint>
            <Time>2021-10-09T07:50:14.000Z</Time>
            <Position>
              <LatitudeDegrees>39.56914943642914295196533203125</LatitudeDegrees>
              <LongitudeDegrees>-0.62594602815806865692138671875</LongitudeDegrees>
            </Position>
            <AltitudeMeters>121.1999969482421875</AltitudeMeters>
            <DistanceMeters>27100.62211719</DistanceMeters>
          </Trackpoint>
          <Trackpoint>
            <Time>2021-10-09T07:50:15.000Z</Time>
            <Position>
              <LatitudeDegrees>39.5691931061446666717529296875</LatitudeDegrees>
              <LongitudeDegrees>-0.6258923001587390899658203125</LongitudeDegrees>
            </Position>
            <AltitudeMeters>121</AltitudeMeters>
            <DistanceMeters>27107.321332064</DistanceMeters>
          </Trackpoint>
          <Trackpoint>
            <Time>2021-10-09T07:50:16.000Z</Time>
            <Position>
              <LatitudeDegrees>39.56923392601311206817626953125</LatitudeDegrees>
              <LongitudeDegrees>-0.6258433498442173004150390625</LongitudeDegrees>
            </Position>
            <AltitudeMeters>121</AltitudeMeters>
            <DistanceMeters>27113.507563871</DistanceMeters>
          </Trackpoint>
          <Trackpoint>
            <Time>2021-10-09T07:50:17.000Z</Time>
            <Position>
              <LatitudeDegrees>39.56926929764449596405029296875</LatitudeDegrees>
              <LongitudeDegrees>-0.6257947348058223724365234375</LongitudeDegrees>
            </Position>
            <AltitudeMeters>120.8000030517578125</AltitudeMeters>
            <DistanceMeters>27119.242329639</DistanceMeters>
          </Trackpoint>
          <Trackpoint>
            <Time>2021-10-09T07:50:18.000Z</Time>
            <Position>
              <LatitudeDegrees>39.56930332817137241363525390625</LatitudeDegrees>
              <LongitudeDegrees>-0.62575198709964752197265625</LongitudeDegrees>
            </Position>
            <AltitudeMeters>120.8000030517578125</AltitudeMeters>
            <DistanceMeters>27124.515242057</DistanceMeters>
          </Trackpoint>
          <Trackpoint>
            <Time>2021-10-09T07:50:19.000Z</Time>
            <Position>
              <LatitudeDegrees>39.5693327486515045166015625</LatitudeDegrees>
              <LongitudeDegrees>-0.62571267597377300262451171875</LongitudeDegrees>
            </Position>
            <AltitudeMeters>120.8000030517578125</AltitudeMeters>
            <DistanceMeters>27129.216904224</DistanceMeters>
          </Trackpoint>
          <Trackpoint>
            <Time>2021-10-09T07:50:20.000Z</Time>
            <Position>
              <LatitudeDegrees>39.56936158239841461181640625</LatitudeDegrees>
              <LongitudeDegrees>-0.6256793998181819915771484375</LongitudeDegrees>
            </Position>
            <AltitudeMeters>120.59999847412109375</AltitudeMeters>
            <DistanceMeters>27133.513120729</DistanceMeters>
          </Trackpoint>
          <Trackpoint>
            <Time>2021-10-09T07:50:21.000Z</Time>
            <Position>
              <LatitudeDegrees>39.56938999705016613006591796875</LatitudeDegrees>
              <LongitudeDegrees>-0.62565014697611331939697265625</LongitudeDegrees>
            </Position>
            <AltitudeMeters>120.59999847412109375</AltitudeMeters>
            <DistanceMeters>27137.550358396</DistanceMeters>
          </Trackpoint>
          <Trackpoint>
            <Time>2021-10-09T07:50:22.000Z</Time>
            <Position>
              <LatitudeDegrees>39.56941983662545680999755859375</LatitudeDegrees>
              <LongitudeDegrees>-0.62561787664890289306640625</LongitudeDegrees>
            </Position>
            <AltitudeMeters>120.40000152587890625</AltitudeMeters>
            <DistanceMeters>27141.873812829</DistanceMeters>
          </Trackpoint>
          <Trackpoint>
            <Time>2021-10-09T07:50:23.000Z</Time>
            <Position>
              <LatitudeDegrees>39.56944875419139862060546875</LatitudeDegrees>
              <LongitudeDegrees>-0.62557487748563289642333984375</LongitudeDegrees>
            </Position>
            <AltitudeMeters>120.40000152587890625</AltitudeMeters>
            <DistanceMeters>27146.769302885</DistanceMeters>
          </Trackpoint>
          <Trackpoint>
            <Time>2021-10-09T07:50:24.000Z</Time>
            <Position>
              <LatitudeDegrees>39.5694775879383087158203125</LatitudeDegrees>
              <LongitudeDegrees>-0.62552525661885738372802734375</LongitudeDegrees>
            </Position>
            <AltitudeMeters>120.40000152587890625</AltitudeMeters>
            <DistanceMeters>27152.100970602</DistanceMeters>
          </Trackpoint>
          <Trackpoint>
            <Time>2021-10-09T07:50:25.000Z</Time>
            <Position>
              <LatitudeDegrees>39.56951287575066089630126953125</LatitudeDegrees>
              <LongitudeDegrees>-0.6254745461046695709228515625</LongitudeDegrees>
            </Position>
            <AltitudeMeters>120.1999969482421875</AltitudeMeters>
            <DistanceMeters>27157.962663264</DistanceMeters>
          </Trackpoint>
          <Trackpoint>
            <Time>2021-10-09T07:50:26.000Z</Time>
            <Position>
              <LatitudeDegrees>39.56955562345683574676513671875</LatitudeDegrees>
              <LongitudeDegrees>-0.62541830353438854217529296875</LongitudeDegrees>
            </Position>
            <AltitudeMeters>120.1999969482421875</AltitudeMeters>
            <DistanceMeters>27164.739607177</DistanceMeters>
          </Trackpoint>
          <Trackpoint>
            <Time>2021-10-09T07:50:27.000Z</Time>
            <Position>
              <LatitudeDegrees>39.569599963724613189697265625</LatitudeDegrees>
              <LongitudeDegrees>-0.62536080367863178253173828125</LongitudeDegrees>
            </Position>
            <AltitudeMeters>120.1999969482421875</AltitudeMeters>
            <DistanceMeters>27171.717441525</DistanceMeters>
          </Trackpoint>
          <Trackpoint>
            <Time>2021-10-09T07:50:28.000Z</Time>
            <Position>
              <LatitudeDegrees>39.56964631564915180206298828125</LatitudeDegrees>
              <LongitudeDegrees>-0.625305064022541046142578125</LongitudeDegrees>
            </Position>
            <AltitudeMeters>120</AltitudeMeters>
            <DistanceMeters>27178.751986209</DistanceMeters>
          </Trackpoint>
          <Trackpoint>
            <Time>2021-10-09T07:50:29.000Z</Time>
            <Position>
              <LatitudeDegrees>39.569693170487880706787109375</LatitudeDegrees>
              <LongitudeDegrees>-0.62524412758648395538330078125</LongitudeDegrees>
            </Position>
            <AltitudeMeters>119.59999847412109375</AltitudeMeters>
            <DistanceMeters>27186.136607502</DistanceMeters>
          </Trackpoint>
          <Trackpoint>
            <Time>2021-10-09T07:50:30.000Z</Time>
            <Position>
              <LatitudeDegrees>39.5697406120598316192626953125</LatitudeDegrees>
              <LongitudeDegrees>-0.6251795031130313873291015625</LongitudeDegrees>
            </Position>
            <AltitudeMeters>119.40000152587890625</AltitudeMeters>
            <DistanceMeters>27193.793190047</DistanceMeters>
          </Trackpoint>
          <Trackpoint>
            <Time>2021-10-09T07:50:31.000Z</Time>
            <Position>
              <LatitudeDegrees>39.5697892270982265472412109375</LatitudeDegrees>
              <LongitudeDegrees>-0.6251181475818157196044921875</LongitudeDegrees>
            </Position>
            <AltitudeMeters>119.1999969482421875</AltitudeMeters>
            <DistanceMeters>27201.341685418</DistanceMeters>
          </Trackpoint>
          <Trackpoint>
            <Time>2021-10-09T07:50:32.000Z</Time>
            <Position>
              <LatitudeDegrees>39.5698344893753528594970703125</LatitudeDegrees>
              <LongitudeDegrees>-0.625058971345424652099609375</LongitudeDegrees>
            </Position>
            <AltitudeMeters>119.1999969482421875</AltitudeMeters>
            <DistanceMeters>27208.493353264</DistanceMeters>
          </Trackpoint>
          <Trackpoint>
            <Time>2021-10-09T07:50:33.000Z</Time>
            <Position>
              <LatitudeDegrees>39.5698760636150836944580078125</LatitudeDegrees>
              <LongitudeDegrees>-0.6250071711838245391845703125</LongitudeDegrees>
            </Position>
            <AltitudeMeters>118.8000030517578125</AltitudeMeters>
            <DistanceMeters>27214.908888194</DistanceMeters>
          </Trackpoint>
          <Trackpoint>
            <Time>2021-10-09T07:50:34.000Z</Time>
            <Position>
              <LatitudeDegrees>39.56991353072226047515869140625</LatitudeDegrees>
              <LongitudeDegrees>-0.62496316619217395782470703125</LongitudeDegrees>
            </Position>
            <AltitudeMeters>118.59999847412109375</AltitudeMeters>
            <DistanceMeters>27220.533956003</DistanceMeters>
          </Trackpoint>
          <Trackpoint>
            <Time>2021-10-09T07:50:35.000Z</Time>
            <Position>
              <LatitudeDegrees>39.569943957030773162841796875</LatitudeDegrees>
              <LongitudeDegrees>-0.62492787837982177734375</LongitudeDegrees>
            </Position>
            <AltitudeMeters>118.40000152587890625</AltitudeMeters>
            <DistanceMeters>27225.07539791</DistanceMeters>
          </Trackpoint>
          <Trackpoint>
            <Time>2021-10-09T07:50:36.000Z</Time>
            <Position>
              <LatitudeDegrees>39.569966755807399749755859375</LatitudeDegrees>
              <LongitudeDegrees>-0.6249042414128780364990234375</LongitudeDegrees>
            </Position>
            <AltitudeMeters>118.40000152587890625</AltitudeMeters>
            <DistanceMeters>27228.323032324</DistanceMeters>
          </Trackpoint>
          <Trackpoint>
            <Time>2021-10-09T07:50:39.000Z</Time>
            <Position>
              <LatitudeDegrees>39.5700064860284328460693359375</LatitudeDegrees>
              <LongitudeDegrees>-0.62487364746630191802978515625</LongitudeDegrees>
            </Position>
            <AltitudeMeters>118.1999969482421875</AltitudeMeters>
            <DistanceMeters>27233.465022584</DistanceMeters>
          </Trackpoint>
          <Trackpoint>
            <Time>2021-10-09T07:50:40.000Z</Time>
            <Position>
              <LatitudeDegrees>39.5700249262154102325439453125</LatitudeDegrees>
              <LongitudeDegrees>-0.62486073933541774749755859375</LongitudeDegrees>
            </Position>
            <AltitudeMeters>118</AltitudeMeters>
            <DistanceMeters>27235.796568427</DistanceMeters>
          </Trackpoint>
          <Trackpoint>
            <Time>2021-10-09T07:50:41.000Z</Time>
            <Position>
              <LatitudeDegrees>39.57004395313560962677001953125</LatitudeDegrees>
              <LongitudeDegrees>-0.6248455680906772613525390625</LongitudeDegrees>
            </Position>
            <AltitudeMeters>118</AltitudeMeters>
            <DistanceMeters>27238.281839496</DistanceMeters>
          </Trackpoint>
          <Trackpoint>
            <Time>2021-10-09T07:50:42.000Z</Time>
            <Position>
              <LatitudeDegrees>39.57006256096065044403076171875</LatitudeDegrees>
              <LongitudeDegrees>-0.6248328275978565216064453125</LongitudeDegrees>
            </Position>
            <AltitudeMeters>118</AltitudeMeters>
            <DistanceMeters>27240.624975531</DistanceMeters>
          </Trackpoint>
          <Trackpoint>
            <Time>2021-10-09T07:50:43.000Z</Time>
            <Position>
              <LatitudeDegrees>39.5700799115002155303955078125</LatitudeDegrees>
              <LongitudeDegrees>-0.624821595847606658935546875</LongitudeDegrees>
            </Position>
            <AltitudeMeters>117.8000030517578125</AltitudeMeters>
            <DistanceMeters>27242.783567536</DistanceMeters>
          </Trackpoint>
          <Trackpoint>
            <Time>2021-10-09T07:50:44.000Z</Time>
            <Position>
              <LatitudeDegrees>39.57009910605847835540771484375</LatitudeDegrees>
              <LongitudeDegrees>-0.6248103640973567962646484375</LongitudeDegrees>
            </Position>
            <AltitudeMeters>117.8000030517578125</AltitudeMeters>
            <DistanceMeters>27245.1286297</DistanceMeters>
          </Trackpoint>
          <Trackpoint>
            <Time>2021-10-09T07:50:45.000Z</Time>
            <Position>
              <LatitudeDegrees>39.57013028673827648162841796875</LatitudeDegrees>
              <LongitudeDegrees>-0.6247929297387599945068359375</LongitudeDegrees>
            </Position>
            <AltitudeMeters>117.8000030517578125</AltitudeMeters>
            <DistanceMeters>27248.90825679</DistanceMeters>
          </Trackpoint>
          <Trackpoint>
            <Time>2021-10-09T07:50:46.000Z</Time>
            <Position>
              <LatitudeDegrees>39.57015744410455226898193359375</LatitudeDegrees>
              <LongitudeDegrees>-0.62477759085595607757568359375</LongitudeDegrees>
            </Position>
            <AltitudeMeters>117.8000030517578125</AltitudeMeters>
            <DistanceMeters>27252.205560543</DistanceMeters>
          </Trackpoint>
          <Trackpoint>
            <Time>2021-10-09T07:50:47.000Z</Time>
            <Position>
              <LatitudeDegrees>39.57019683904945850372314453125</LatitudeDegrees>
              <LongitudeDegrees>-0.6247567199170589447021484375</LongitudeDegrees>
            </Position>
            <AltitudeMeters>117.59999847412109375</AltitudeMeters>
            <DistanceMeters>27256.941667582</DistanceMeters>
          </Trackpoint>
          <Trackpoint>
            <Time>2021-10-09T07:50:48.000Z</Time>
            <Position>
              <LatitudeDegrees>39.5702472142875194549560546875</LatitudeDegrees>
              <LongitudeDegrees>-0.6247362680733203887939453125</LongitudeDegrees>
            </Position>
            <AltitudeMeters>117.59999847412109375</AltitudeMeters>
            <DistanceMeters>27262.816440102</DistanceMeters>
          </Trackpoint>
          <Trackpoint>
            <Time>2021-10-09T07:50:49.000Z</Time>
            <Position>
              <LatitudeDegrees>39.570305384695529937744140625</LatitudeDegrees>
              <LongitudeDegrees>-0.62471221201121807098388671875</LongitudeDegrees>
            </Position>
            <AltitudeMeters>117.40000152587890625</AltitudeMeters>
            <DistanceMeters>27269.612012995</DistanceMeters>
          </Trackpoint>
          <Trackpoint>
            <Time>2021-10-09T07:50:50.000Z</Time>
            <Position>
              <LatitudeDegrees>39.5703709311783313751220703125</LatitudeDegrees>
              <LongitudeDegrees>-0.624687485396862030029296875</LongitudeDegrees>
            </Position>
            <AltitudeMeters>117.1999969482421875</AltitudeMeters>
            <DistanceMeters>27277.209991588</DistanceMeters>
          </Trackpoint>
          <Trackpoint>
            <Time>2021-10-09T07:50:51.000Z</Time>
            <Position>
              <LatitudeDegrees>39.57044519484043121337890625</LatitudeDegrees>
              <LongitudeDegrees>-0.624663345515727996826171875</LongitudeDegrees>
            </Position>
            <AltitudeMeters>117</AltitudeMeters>
            <DistanceMeters>27285.731191309</DistanceMeters>
          </Trackpoint>
          <Trackpoint>
            <Time>2021-10-09T07:50:52.000Z</Time>
            <Position>
              <LatitudeDegrees>39.57052373327314853668212890625</LatitudeDegrees>
              <LongitudeDegrees>-0.6246363557875156402587890625</LongitudeDegrees>
            </Position>
            <AltitudeMeters>116.8000030517578125</AltitudeMeters>
            <DistanceMeters>27294.774220242</DistanceMeters>
          </Trackpoint>
          <Trackpoint>
            <Time>2021-10-09T07:50:53.000Z</Time>
            <Position>
              <LatitudeDegrees>39.57060235552489757537841796875</LatitudeDegrees>
              <LongitudeDegrees>-0.6246127188205718994140625</LongitudeDegrees>
            </Position>
            <AltitudeMeters>116.8000030517578125</AltitudeMeters>
            <DistanceMeters>27303.757135309</DistanceMeters>
          </Trackpoint>
          <Trackpoint>
            <Time>2021-10-09T07:50:54.000Z</Time>
            <Position>
              <LatitudeDegrees>39.57068181596696376800537109375</LatitudeDegrees>
              <LongitudeDegrees>-0.6245887465775012969970703125</LongitudeDegrees>
            </Position>
            <AltitudeMeters>116.1999969482421875</AltitudeMeters>
            <DistanceMeters>27312.837036076</DistanceMeters>
          </Trackpoint>
          <Trackpoint>
            <Time>2021-10-09T07:50:55.000Z</Time>
            <Position>
              <LatitudeDegrees>39.570758678019046783447265625</LatitudeDegrees>
              <LongitudeDegrees>-0.6245575658977031707763671875</LongitudeDegrees>
            </Position>
            <AltitudeMeters>116</AltitudeMeters>
            <DistanceMeters>27321.800831042</DistanceMeters>
          </Trackpoint>
          <Trackpoint>
            <Time>2021-10-09T07:50:56.000Z</Time>
            <Position>
              <LatitudeDegrees>39.5708373002707958221435546875</LatitudeDegrees>
              <LongitudeDegrees>-0.62452529557049274444580078125</LongitudeDegrees>
            </Position>
            <AltitudeMeters>115.8000030517578125</AltitudeMeters>
            <DistanceMeters>27330.979152411</DistanceMeters>
          </Trackpoint>
          <Trackpoint>
            <Time>2021-10-09T07:50:57.000Z</Time>
            <Position>
              <LatitudeDegrees>39.570918269455432891845703125</LatitudeDegrees>
              <LongitudeDegrees>-0.62449713237583637237548828125</LongitudeDegrees>
            </Position>
            <AltitudeMeters>115.40000152587890625</AltitudeMeters>
            <DistanceMeters>27340.308724043</DistanceMeters>
          </Trackpoint>
          <Trackpoint>
            <Time>2021-10-09T07:50:58.000Z</Time>
            <Position>
              <LatitudeDegrees>39.57100166939198970794677734375</LatitudeDegrees>
              <LongitudeDegrees>-0.624471567571163177490234375</LongitudeDegrees>
            </Position>
            <AltitudeMeters>115.1999969482421875</AltitudeMeters>
            <DistanceMeters>27349.846963932</DistanceMeters>
          </Trackpoint>
          <Trackpoint>
            <Time>2021-10-09T07:50:59.000Z</Time>
            <Position>
              <LatitudeDegrees>39.57108649425208568572998046875</LatitudeDegrees>
              <LongitudeDegrees>-0.624448098242282867431640625</LongitudeDegrees>
            </Position>
            <AltitudeMeters>114.8000030517578125</AltitudeMeters>
            <DistanceMeters>27359.499545387</DistanceMeters>
          </Trackpoint>
          <Trackpoint>
            <Time>2021-10-09T07:51:00.000Z</Time>
            <Position>
              <LatitudeDegrees>39.5711698941886425018310546875</LatitudeDegrees>
              <LongitudeDegrees>-0.62441951595246791839599609375</LongitudeDegrees>
            </Position>
            <AltitudeMeters>114.8000030517578125</AltitudeMeters>
            <DistanceMeters>27369.100535978</DistanceMeters>
          </Trackpoint>
          <Trackpoint>
            <Time>2021-10-09T07:51:01.000Z</Time>
            <Position>
              <LatitudeDegrees>39.57124809734523296356201171875</LatitudeDegrees>
              <LongitudeDegrees>-0.62438582070171833038330078125</LongitudeDegrees>
            </Position>
            <AltitudeMeters>114.8000030517578125</AltitudeMeters>
            <DistanceMeters>27378.272460103</DistanceMeters>
          </Trackpoint>
          <Trackpoint>
            <Time>2021-10-09T07:51:02.000Z</Time>
            <Position>
              <LatitudeDegrees>39.57132839597761631011962890625</LatitudeDegrees>
              <LongitudeDegrees>-0.6243547238409519195556640625</LongitudeDegrees>
            </Position>
            <AltitudeMeters>114.59999847412109375</AltitudeMeters>
            <DistanceMeters>27387.599611676</DistanceMeters>
          </Trackpoint>
          <Trackpoint>
            <Time>2021-10-09T07:51:03.000Z</Time>
            <Position>
              <LatitudeDegrees>39.571413807570934295654296875</LatitudeDegrees>
              <LongitudeDegrees>-0.62432580627501010894775390625</LongitudeDegrees>
            </Position>
            <AltitudeMeters>114.59999847412109375</AltitudeMeters>
            <DistanceMeters>27397.42465708</DistanceMeters>
          </Trackpoint>
          <Trackpoint>
            <Time>2021-10-09T07:51:04.000Z</Time>
            <Position>
              <LatitudeDegrees>39.57149821333587169647216796875</LatitudeDegrees>
              <LongitudeDegrees>-0.62429160811007022857666015625</LongitudeDegrees>
            </Position>
            <AltitudeMeters>114.1999969482421875</AltitudeMeters>
            <DistanceMeters>27407.266690915</DistanceMeters>
          </Trackpoint>
          <Trackpoint>
            <Time>2021-10-09T07:51:05.000Z</Time>
            <Position>
              <LatitudeDegrees>39.57158186472952365875244140625</LatitudeDegrees>
              <LongitudeDegrees>-0.62425271607935428619384765625</LongitudeDegrees>
            </Position>
            <AltitudeMeters>114</AltitudeMeters>
            <DistanceMeters>27417.156776255</DistanceMeters>
          </Trackpoint>
          <Trackpoint>
            <Time>2021-10-09T07:51:06.000Z</Time>
            <Position>
              <LatitudeDegrees>39.57166736014187335968017578125</LatitudeDegrees>
              <LongitudeDegrees>-0.6242125667631626129150390625</LongitudeDegrees>
            </Position>
            <AltitudeMeters>113.8000030517578125</AltitudeMeters>
            <DistanceMeters>27427.276563652</DistanceMeters>
          </Trackpoint>
          <Trackpoint>
            <Time>2021-10-09T07:51:07.000Z</Time>
            <Position>
              <LatitudeDegrees>39.57175704650580883026123046875</LatitudeDegrees>
              <LongitudeDegrees>-0.62417744658887386322021484375</LongitudeDegrees>
            </Position>
            <AltitudeMeters>113.59999847412109375</AltitudeMeters>
            <DistanceMeters>27437.703120625</DistanceMeters>
          </Trackpoint>
          <Trackpoint>
            <Time>2021-10-09T07:51:08.000Z</Time>
            <Position>
              <LatitudeDegrees>39.5718649215996265411376953125</LatitudeDegrees>
              <LongitudeDegrees>-0.62413905747234821319580078125</LongitudeDegrees>
            </Position>
            <AltitudeMeters>113.1999969482421875</AltitudeMeters>
            <DistanceMeters>27450.153433562</DistanceMeters>
          </Trackpoint>
          <Trackpoint>
            <Time>2021-10-09T07:51:09.000Z</Time>
            <Position>
              <LatitudeDegrees>39.57193776033818721771240234375</LatitudeDegrees>
              <LongitudeDegrees>-0.62411558814346790313720703125</LongitudeDegrees>
            </Position>
            <AltitudeMeters>113</AltitudeMeters>
            <DistanceMeters>27458.507141168</DistanceMeters>
          </Trackpoint>
          <Trackpoint>
            <Time>2021-10-09T07:51:10.000Z</Time>
            <Position>
              <LatitudeDegrees>39.5720283687114715576171875</LatitudeDegrees>
              <LongitudeDegrees>-0.6240808032453060150146484375</LongitudeDegrees>
            </Position>
            <AltitudeMeters>112.59999847412109375</AltitudeMeters>
            <DistanceMeters>27469.024241831</DistanceMeters>
          </Trackpoint>
          <Trackpoint>
            <Time>2021-10-09T07:51:11.000Z</Time>
            <Position>
              <LatitudeDegrees>39.5721207372844219207763671875</LatitudeDegrees>
              <LongitudeDegrees>-0.62404735945165157318115234375</LongitudeDegrees>
            </Position>
            <AltitudeMeters>112.40000152587890625</AltitudeMeters>
            <DistanceMeters>27479.697311415</DistanceMeters>
          </Trackpoint>
          <Trackpoint>
            <Time>2021-10-09T07:51:12.000Z</Time>
            <Position>
              <LatitudeDegrees>39.5722122676670551300048828125</LatitudeDegrees>
              <LongitudeDegrees>-0.62401383183896541595458984375</LongitudeDegrees>
            </Position>
            <AltitudeMeters>112.1999969482421875</AltitudeMeters>
            <DistanceMeters>27490.283304456</DistanceMeters>
          </Trackpoint>
          <Trackpoint>
            <Time>2021-10-09T07:51:13.000Z</Time>
            <Position>
              <LatitudeDegrees>39.57230572588741779327392578125</LatitudeDegrees>
              <LongitudeDegrees>-0.62398483045399188995361328125</LongitudeDegrees>
            </Position>
            <AltitudeMeters>112</AltitudeMeters>
            <DistanceMeters>27500.978771178</DistanceMeters>
          </Trackpoint>
          <Trackpoint>
            <Time>2021-10-09T07:51:14.000Z</Time>
            <Position>
              <LatitudeDegrees>39.57239759154617786407470703125</LatitudeDegrees>
              <LongitudeDegrees>-0.6239537335932254791259765625</LongitudeDegrees>
            </Position>
            <AltitudeMeters>111.8000030517578125</AltitudeMeters>
            <DistanceMeters>27511.545553811</DistanceMeters>
          </Trackpoint>
          <Trackpoint>
            <Time>2021-10-09T07:51:15.000Z</Time>
            <Position>
              <LatitudeDegrees>39.5724878646433353424072265625</LatitudeDegrees>
              <LongitudeDegrees>-0.62392163090407848358154296875</LongitudeDegrees>
            </Position>
            <AltitudeMeters>111.40000152587890625</AltitudeMeters>
            <DistanceMeters>27521.963446534</DistanceMeters>
          </Trackpoint>
          <Trackpoint>
            <Time>2021-10-09T07:51:16.000Z</Time>
            <Position>
              <LatitudeDegrees>39.57257847301661968231201171875</LatitudeDegrees>
              <LongitudeDegrees>-0.6238923780620098114013671875</LongitudeDegrees>
            </Position>
            <AltitudeMeters>111</AltitudeMeters>
            <DistanceMeters>27532.356606517</DistanceMeters>
          </Trackpoint>
          <Trackpoint>
            <Time>2021-10-09T07:51:17.000Z</Time>
            <Position>
              <LatitudeDegrees>39.5726672373712062835693359375</LatitudeDegrees>
              <LongitudeDegrees>-0.62386077828705310821533203125</LongitudeDegrees>
            </Position>
            <AltitudeMeters>110.59999847412109375</AltitudeMeters>
            <DistanceMeters>27542.600997588</DistanceMeters>
          </Trackpoint>
          <Trackpoint>
            <Time>2021-10-09T07:51:18.000Z</Time>
            <Position>
              <LatitudeDegrees>39.572754912078380584716796875</LatitudeDegrees>
              <LongitudeDegrees>-0.62383060343563556671142578125</LongitudeDegrees>
            </Position>
            <AltitudeMeters>110.1999969482421875</AltitudeMeters>
            <DistanceMeters>27552.69666363</DistanceMeters>
          </Trackpoint>
          <Trackpoint>
            <Time>2021-10-09T07:51:19.000Z</Time>
            <Position>
              <LatitudeDegrees>39.5728422515094280242919921875</LatitudeDegrees>
              <LongitudeDegrees>-0.6237988360226154327392578125</LongitudeDegrees>
            </Position>
            <AltitudeMeters>110</AltitudeMeters>
            <DistanceMeters>27562.791882436</DistanceMeters>
          </Trackpoint>
          <Trackpoint>
            <Time>2021-10-09T07:51:20.000Z</Time>
            <Position>
              <LatitudeDegrees>39.57292883656919002532958984375</LatitudeDegrees>
              <LongitudeDegrees>-0.62376405112445354461669921875</LongitudeDegrees>
            </Position>
            <AltitudeMeters>109.40000152587890625</AltitudeMeters>
            <DistanceMeters>27572.879942781</DistanceMeters>
          </Trackpoint>
          <Trackpoint>
            <Time>2021-10-09T07:51:21.000Z</Time>
            <Position>
              <LatitudeDegrees>39.57301466725766658782958984375</LatitudeDegrees>
              <LongitudeDegrees>-0.62373018823564052581787109375</LongitudeDegrees>
            </Position>
            <AltitudeMeters>109.1999969482421875</AltitudeMeters>
            <DistanceMeters>27582.865437466</DistanceMeters>
          </Trackpoint>
          <Trackpoint>
            <Time>2021-10-09T07:51:22.000Z</Time>
            <Position>
              <LatitudeDegrees>39.5731014199554920196533203125</LatitudeDegrees>
              <LongitudeDegrees>-0.62370034866034984588623046875</LongitudeDegrees>
            </Position>
            <AltitudeMeters>109.1999969482421875</AltitudeMeters>
            <DistanceMeters>27592.854548773</DistanceMeters>
          </Trackpoint>
          <Trackpoint>
            <Time>2021-10-09T07:51:23.000Z</Time>
            <Position>
              <LatitudeDegrees>39.57318398170173168182373046875</LatitudeDegrees>
              <LongitudeDegrees>-0.6236684136092662811279296875</LongitudeDegrees>
            </Position>
            <AltitudeMeters>109</AltitudeMeters>
            <DistanceMeters>27602.443304602</DistanceMeters>
          </Trackpoint>
          <Trackpoint>
            <Time>2021-10-09T07:51:24.000Z</Time>
            <Position>
              <LatitudeDegrees>39.573268555104732513427734375</LatitudeDegrees>
              <LongitudeDegrees>-0.6236395798623561859130859375</LongitudeDegrees>
            </Position>
            <AltitudeMeters>108.8000030517578125</AltitudeMeters>
            <DistanceMeters>27612.176935068</DistanceMeters>
          </Trackpoint>
          <Trackpoint>
            <Time>2021-10-09T07:51:25.000Z</Time>
            <Position>
              <LatitudeDegrees>39.5733525417745113372802734375</LatitudeDegrees>
              <LongitudeDegrees>-0.6236095726490020751953125</LongitudeDegrees>
            </Position>
            <AltitudeMeters>108.8000030517578125</AltitudeMeters>
            <DistanceMeters>27621.872920106</DistanceMeters>
          </Trackpoint>
          <Trackpoint>
            <Time>2021-10-09T07:51:26.000Z</Time>
            <Position>
              <LatitudeDegrees>39.57343527115881443023681640625</LatitudeDegrees>
              <LongitudeDegrees>-0.62357663176953792572021484375</LongitudeDegrees>
            </Position>
            <AltitudeMeters>108.8000030517578125</AltitudeMeters>
            <DistanceMeters>27631.504898376</DistanceMeters>
          </Trackpoint>
          <Trackpoint>
            <Time>2021-10-09T07:51:27.000Z</Time>
            <Position>
              <LatitudeDegrees>39.57351188175380229949951171875</LatitudeDegrees>
              <LongitudeDegrees>-0.62354092486202716827392578125</LongitudeDegrees>
            </Position>
            <AltitudeMeters>108.59999847412109375</AltitudeMeters>
            <DistanceMeters>27640.564887055</DistanceMeters>
          </Trackpoint>
          <Trackpoint>
            <Time>2021-10-09T07:51:28.000Z</Time>
            <Position>
              <LatitudeDegrees>39.57358279265463352203369140625</LatitudeDegrees>
              <LongitudeDegrees>-0.62350253574550151824951171875</LongitudeDegrees>
            </Position>
            <AltitudeMeters>108.59999847412109375</AltitudeMeters>
            <DistanceMeters>27649.116763406</DistanceMeters>
          </Trackpoint>
          <Trackpoint>
            <Time>2021-10-09T07:51:29.000Z</Time>
            <Position>
              <LatitudeDegrees>39.5736438967287540435791015625</LatitudeDegrees>
              <LongitudeDegrees>-0.623452663421630859375</LongitudeDegrees>
            </Position>
            <AltitudeMeters>108.59999847412109375</AltitudeMeters>
            <DistanceMeters>27657.150877322</DistanceMeters>
          </Trackpoint>
          <Trackpoint>
            <Time>2021-10-09T07:51:30.000Z</Time>
            <Position>
              <LatitudeDegrees>39.5736967027187347412109375</LatitudeDegrees>
              <LongitudeDegrees>-0.623391978442668914794921875</LongitudeDegrees>
            </Position>
            <AltitudeMeters>108.59999847412109375</AltitudeMeters>
            <DistanceMeters>27665.003097515</DistanceMeters>
          </Trackpoint>
          <Trackpoint>
            <Time>2021-10-09T07:51:31.000Z</Time>
            <Position>
              <LatitudeDegrees>39.57374456338584423065185546875</LatitudeDegrees>
              <LongitudeDegrees>-0.62332467176020145416259765625</LongitudeDegrees>
            </Position>
            <AltitudeMeters>108.59999847412109375</AltitudeMeters>
            <DistanceMeters>27672.859916374</DistanceMeters>
          </Trackpoint>
          <Trackpoint>
            <Time>2021-10-09T07:51:32.000Z</Time>
            <Position>
              <LatitudeDegrees>39.573800973594188690185546875</LatitudeDegrees>
              <LongitudeDegrees>-0.62326448969542980194091796875</LongitudeDegrees>
            </Position>
            <AltitudeMeters>108.59999847412109375</AltitudeMeters>
            <DistanceMeters>27680.989006078</DistanceMeters>
          </Trackpoint>
          <Trackpoint>
            <Time>2021-10-09T07:51:33.000Z</Time>
            <Position>
              <LatitudeDegrees>39.5738738961517810821533203125</LatitudeDegrees>
              <LongitudeDegrees>-0.62322861514985561370849609375</LongitudeDegrees>
            </Position>
            <AltitudeMeters>108.59999847412109375</AltitudeMeters>
            <DistanceMeters>27689.669268623</DistanceMeters>
          </Trackpoint>
          <Trackpoint>
            <Time>2021-10-09T07:51:34.000Z</Time>
            <Position>
              <LatitudeDegrees>39.5739520154893398284912109375</LatitudeDegrees>
              <LongitudeDegrees>-0.623217634856700897216796875</LongitudeDegrees>
            </Position>
            <AltitudeMeters>108.40000152587890625</AltitudeMeters>
            <DistanceMeters>27698.415340744</DistanceMeters>
          </Trackpoint>
          <Trackpoint>
            <Time>2021-10-09T07:51:35.000Z</Time>
            <Position>
              <LatitudeDegrees>39.57403021864593029022216796875</LatitudeDegrees>
              <LongitudeDegrees>-0.62322995625436305999755859375</LongitudeDegrees>
            </Position>
            <AltitudeMeters>108.40000152587890625</AltitudeMeters>
            <DistanceMeters>27707.18358292</DistanceMeters>
          </Trackpoint>
          <Trackpoint>
            <Time>2021-10-09T07:51:36.000Z</Time>
            <Position>
              <LatitudeDegrees>39.5741085894405841827392578125</LatitudeDegrees>
              <LongitudeDegrees>-0.6232528388500213623046875</LongitudeDegrees>
            </Position>
            <AltitudeMeters>108.40000152587890625</AltitudeMeters>
            <DistanceMeters>27716.125187744</DistanceMeters>
          </Trackpoint>
          <Trackpoint>
            <Time>2021-10-09T07:51:37.000Z</Time>
            <Position>
              <LatitudeDegrees>39.57418930716812610626220703125</LatitudeDegrees>
              <LongitudeDegrees>-0.62326750718057155609130859375</LongitudeDegrees>
            </Position>
            <AltitudeMeters>108.40000152587890625</AltitudeMeters>
            <DistanceMeters>27725.19712892</DistanceMeters>
          </Trackpoint>
          <Trackpoint>
            <Time>2021-10-09T07:51:38.000Z</Time>
            <Position>
              <LatitudeDegrees>39.574269354343414306640625</LatitudeDegrees>
              <LongitudeDegrees>-0.62326465733349323272705078125</LongitudeDegrees>
            </Position>
            <AltitudeMeters>108.40000152587890625</AltitudeMeters>
            <DistanceMeters>27734.110918386</DistanceMeters>
          </Trackpoint>
          <Trackpoint>
            <Time>2021-10-09T07:51:39.000Z</Time>
            <Position>
              <LatitudeDegrees>39.57434806041419506072998046875</LatitudeDegrees>
              <LongitudeDegrees>-0.6232523359358310699462890625</LongitudeDegrees>
            </Position>
            <AltitudeMeters>108.1999969482421875</AltitudeMeters>
            <DistanceMeters>27742.93510952</DistanceMeters>
          </Trackpoint>
          <Trackpoint>
            <Time>2021-10-09T07:51:40.000Z</Time>
            <Position>
              <LatitudeDegrees>39.57442500628530979156494140625</LatitudeDegrees>
              <LongitudeDegrees>-0.62323272228240966796875</LongitudeDegrees>
            </Position>
            <AltitudeMeters>108.1999969482421875</AltitudeMeters>
            <DistanceMeters>27751.663094676</DistanceMeters>
          </Trackpoint>
          <Trackpoint>
            <Time>2021-10-09T07:51:41.000Z</Time>
            <Position>
              <LatitudeDegrees>39.5744986832141876220703125</LatitudeDegrees>
              <LongitudeDegrees>-0.6232074089348316192626953125</LongitudeDegrees>
            </Position>
            <AltitudeMeters>108.1999969482421875</AltitudeMeters>
            <DistanceMeters>27760.146590963</DistanceMeters>
          </Trackpoint>
          <Trackpoint>
            <Time>2021-10-09T07:51:42.000Z</Time>
            <Position>
              <LatitudeDegrees>39.5745729468762874603271484375</LatitudeDegrees>
              <LongitudeDegrees>-0.6231829337775707244873046875</LongitudeDegrees>
            </Position>
            <AltitudeMeters>108.1999969482421875</AltitudeMeters>
            <DistanceMeters>27768.674146627</DistanceMeters>
          </Trackpoint>
          <Trackpoint>
            <Time>2021-10-09T07:51:43.000Z</Time>
            <Position>
              <LatitudeDegrees>39.57464779727160930633544921875</LatitudeDegrees>
              <LongitudeDegrees>-0.62316005118191242218017578125</LongitudeDegrees>
            </Position>
            <AltitudeMeters>108</AltitudeMeters>
            <DistanceMeters>27777.23288369</DistanceMeters>
          </Trackpoint>
          <Trackpoint>
            <Time>2021-10-09T07:51:44.000Z</Time>
            <Position>
              <LatitudeDegrees>39.5747224800288677215576171875</LatitudeDegrees>
              <LongitudeDegrees>-0.62314010225236415863037109375</LongitudeDegrees>
            </Position>
            <AltitudeMeters>108</AltitudeMeters>
            <DistanceMeters>27785.719572663</DistanceMeters>
          </Trackpoint>
          <Trackpoint>
            <Time>2021-10-09T07:51:45.000Z</Time>
            <Position>
              <LatitudeDegrees>39.57479565404355525970458984375</LatitudeDegrees>
              <LongitudeDegrees>-0.62311814166605472564697265625</LongitudeDegrees>
            </Position>
            <AltitudeMeters>108</AltitudeMeters>
            <DistanceMeters>27794.078683353</DistanceMeters>
          </Trackpoint>
          <Trackpoint>
            <Time>2021-10-09T07:51:46.000Z</Time>
            <Position>
              <LatitudeDegrees>39.57486891187727451324462890625</LatitudeDegrees>
              <LongitudeDegrees>-0.6230920739471912384033203125</LongitudeDegrees>
            </Position>
            <AltitudeMeters>108</AltitudeMeters>
            <DistanceMeters>27802.53339122</DistanceMeters>
          </Trackpoint>
          <Trackpoint>
            <Time>2021-10-09T07:51:47.000Z</Time>
            <Position>
              <LatitudeDegrees>39.57494258880615234375</LatitudeDegrees>
              <LongitudeDegrees>-0.6230675987899303436279296875</LongitudeDegrees>
            </Position>
            <AltitudeMeters>108.1999969482421875</AltitudeMeters>
            <DistanceMeters>27810.997706107</DistanceMeters>
          </Trackpoint>
          <Trackpoint>
            <Time>2021-10-09T07:51:48.000Z</Time>
            <Position>
              <LatitudeDegrees>39.57501567900180816650390625</LatitudeDegrees>
              <LongitudeDegrees>-0.6230411119759082794189453125</LongitudeDegrees>
            </Position>
            <AltitudeMeters>108.1999969482421875</AltitudeMeters>
            <DistanceMeters>27819.443865229</DistanceMeters>
          </Trackpoint>
          <Trackpoint>
            <Time>2021-10-09T07:51:49.000Z</Time>
            <Position>
              <LatitudeDegrees>39.57508801482617855072021484375</LatitudeDegrees>
              <LongitudeDegrees>-0.62301345169544219970703125</LongitudeDegrees>
            </Position>
            <AltitudeMeters>108.1999969482421875</AltitudeMeters>
            <DistanceMeters>27827.837473298</DistanceMeters>
          </Trackpoint>
          <Trackpoint>
            <Time>2021-10-09T07:51:50.000Z</Time>
            <Position>
              <LatitudeDegrees>39.5751606859266757965087890625</LatitudeDegrees>
              <LongitudeDegrees>-0.62298755161464214324951171875</LongitudeDegrees>
            </Position>
            <AltitudeMeters>108.1999969482421875</AltitudeMeters>
            <DistanceMeters>27836.225700504</DistanceMeters>
          </Trackpoint>
          <Trackpoint>
            <Time>2021-10-09T07:51:51.000Z</Time>
            <Position>
              <LatitudeDegrees>39.57523385994136333465576171875</LatitudeDegrees>
              <LongitudeDegrees>-0.62296307645738124847412109375</LongitudeDegrees>
            </Position>
            <AltitudeMeters>108.1999969482421875</AltitudeMeters>
            <DistanceMeters>27844.636504202</DistanceMeters>
          </Trackpoint>
          <Trackpoint>
            <Time>2021-10-09T07:51:52.000Z</Time>
            <Position>
              <LatitudeDegrees>39.575304351747035980224609375</LatitudeDegrees>
              <LongitudeDegrees>-0.62293625436723232269287109375</LongitudeDegrees>
            </Position>
            <AltitudeMeters>108.1999969482421875</AltitudeMeters>
            <DistanceMeters>27852.812115852</DistanceMeters>
          </Trackpoint>
          <Trackpoint>
            <Time>2021-10-09T07:51:53.000Z</Time>
            <Position>
              <LatitudeDegrees>39.575375430285930633544921875</LatitudeDegrees>
              <LongitudeDegrees>-0.62290825881063938140869140625</LongitudeDegrees>
            </Position>
            <AltitudeMeters>108.1999969482421875</AltitudeMeters>
            <DistanceMeters>27861.079986114</DistanceMeters>
          </Trackpoint>
          <Trackpoint>
            <Time>2021-10-09T07:51:54.000Z</Time>
            <Position>
              <LatitudeDegrees>39.5754468441009521484375</LatitudeDegrees>
              <LongitudeDegrees>-0.62288177199661731719970703125</LongitudeDegrees>
            </Position>
            <AltitudeMeters>108.1999969482421875</AltitudeMeters>
            <DistanceMeters>27869.347310264</DistanceMeters>
          </Trackpoint>
          <Trackpoint>
            <Time>2021-10-09T07:51:55.000Z</Time>
            <Position>
              <LatitudeDegrees>39.5755180902779102325439453125</LatitudeDegrees>
              <LongitudeDegrees>-0.62285528518259525299072265625</LongitudeDegrees>
            </Position>
            <AltitudeMeters>108.1999969482421875</AltitudeMeters>
            <DistanceMeters>27877.59659242</DistanceMeters>
          </Trackpoint>
          <Trackpoint>
            <Time>2021-10-09T07:51:56.000Z</Time>
            <Position>
              <LatitudeDegrees>39.57559009082615375518798828125</LatitudeDegrees>
              <LongitudeDegrees>-0.62282796017825603485107421875</LongitudeDegrees>
            </Position>
            <AltitudeMeters>108.1999969482421875</AltitudeMeters>
            <DistanceMeters>27885.945975041</DistanceMeters>
          </Trackpoint>
          <Trackpoint>
            <Time>2021-10-09T07:51:57.000Z</Time>
            <Position>
              <LatitudeDegrees>39.57566083408892154693603515625</LatitudeDegrees>
              <LongitudeDegrees>-0.62280113808810710906982421875</LongitudeDegrees>
            </Position>
            <AltitudeMeters>108.1999969482421875</AltitudeMeters>
            <DistanceMeters>27894.149153063</DistanceMeters>
          </Trackpoint>
          <Trackpoint>
            <Time>2021-10-09T07:51:58.000Z</Time>
            <Position>
              <LatitudeDegrees>39.57573157735168933868408203125</LatitudeDegrees>
              <LongitudeDegrees>-0.62277347780764102935791015625</LongitudeDegrees>
            </Position>
            <AltitudeMeters>108.1999969482421875</AltitudeMeters>
            <DistanceMeters>27902.37267071</DistanceMeters>
          </Trackpoint>
          <Trackpoint>
            <Time>2021-10-09T07:51:59.000Z</Time>
            <Position>
              <LatitudeDegrees>39.57580232061445713043212890625</LatitudeDegrees>
              <LongitudeDegrees>-0.622747242450714111328125</LongitudeDegrees>
            </Position>
            <AltitudeMeters>108</AltitudeMeters>
            <DistanceMeters>27910.561525799</DistanceMeters>
          </Trackpoint>
          <Trackpoint>
            <Time>2021-10-09T07:52:00.000Z</Time>
            <Position>
              <LatitudeDegrees>39.5758734829723834991455078125</LatitudeDegrees>
              <LongitudeDegrees>-0.62272067181766033172607421875</LongitudeDegrees>
            </Position>
            <AltitudeMeters>108</AltitudeMeters>
            <DistanceMeters>27918.804237438</DistanceMeters>
          </Trackpoint>
          <Trackpoint>
            <Time>2021-10-09T07:52:01.000Z</Time>
            <Position>
              <LatitudeDegrees>39.57594330422580242156982421875</LatitudeDegrees>
              <LongitudeDegrees>-0.622693262994289398193359375</LongitudeDegrees>
            </Position>
            <AltitudeMeters>108</AltitudeMeters>
            <DistanceMeters>27926.923879555</DistanceMeters>
          </Trackpoint>
          <Trackpoint>
            <Time>2021-10-09T07:52:02.000Z</Time>
            <Position>
              <LatitudeDegrees>39.5760149694979190826416015625</LatitudeDegrees>
              <LongitudeDegrees>-0.62266744673252105712890625</LongitudeDegrees>
            </Position>
            <AltitudeMeters>108</AltitudeMeters>
            <DistanceMeters>27935.202119111</DistanceMeters>
          </Trackpoint>
          <Trackpoint>
            <Time>2021-10-09T07:52:03.000Z</Time>
            <Position>
              <LatitudeDegrees>39.57608613185584545135498046875</LatitudeDegrees>
              <LongitudeDegrees>-0.622642301023006439208984375</LongitudeDegrees>
            </Position>
            <AltitudeMeters>108</AltitudeMeters>
            <DistanceMeters>27943.410799298</DistanceMeters>
          </Trackpoint>
          <Trackpoint>
            <Time>2021-10-09T07:52:04.000Z</Time>
            <Position>
              <LatitudeDegrees>39.57615788094699382781982421875</LatitudeDegrees>
              <LongitudeDegrees>-0.62261757440865039825439453125</LongitudeDegrees>
            </Position>
            <AltitudeMeters>107.8000030517578125</AltitudeMeters>
            <DistanceMeters>27951.673206812</DistanceMeters>
          </Trackpoint>
          <Trackpoint>
            <Time>2021-10-09T07:52:05.000Z</Time>
            <Position>
              <LatitudeDegrees>39.57622996531426906585693359375</LatitudeDegrees>
              <LongitudeDegrees>-0.62259628437459468841552734375</LongitudeDegrees>
            </Position>
            <AltitudeMeters>107.8000030517578125</AltitudeMeters>
            <DistanceMeters>27959.901664333</DistanceMeters>
          </Trackpoint>
          <Trackpoint>
            <Time>2021-10-09T07:52:06.000Z</Time>
            <Position>
              <LatitudeDegrees>39.57630087621510028839111328125</LatitudeDegrees>
              <LongitudeDegrees>-0.62257415615022182464599609375</LongitudeDegrees>
            </Position>
            <AltitudeMeters>107.8000030517578125</AltitudeMeters>
            <DistanceMeters>27968.019081891</DistanceMeters>
          </Trackpoint>
          <Trackpoint>
            <Time>2021-10-09T07:52:07.000Z</Time>
            <Position>
              <LatitudeDegrees>39.5763717032968997955322265625</LatitudeDegrees>
              <LongitudeDegrees>-0.6225501000881195068359375</LongitudeDegrees>
            </Position>
            <AltitudeMeters>107.8000030517578125</AltitudeMeters>
            <DistanceMeters>27976.168142092</DistanceMeters>
          </Trackpoint>
          <Trackpoint>
            <Time>2021-10-09T07:52:08.000Z</Time>
            <Position>
              <LatitudeDegrees>39.576442949473857879638671875</LatitudeDegrees>
              <LongitudeDegrees>-0.62252604402601718902587890625</LongitudeDegrees>
            </Position>
            <AltitudeMeters>107.8000030517578125</AltitudeMeters>
            <DistanceMeters>27984.361406905</DistanceMeters>
          </Trackpoint>
          <Trackpoint>
            <Time>2021-10-09T07:52:09.000Z</Time>
            <Position>
              <LatitudeDegrees>39.576514028012752532958984375</LatitudeDegrees>
              <LongitudeDegrees>-0.62250114977359771728515625</LongitudeDegrees>
            </Position>
            <AltitudeMeters>107.59999847412109375</AltitudeMeters>
            <DistanceMeters>27992.555773777</DistanceMeters>
          </Trackpoint>
          <Trackpoint>
            <Time>2021-10-09T07:52:10.000Z</Time>
            <Position>
              <LatitudeDegrees>39.57658519037067890167236328125</LatitudeDegrees>
              <LongitudeDegrees>-0.622474662959575653076171875</LongitudeDegrees>
            </Position>
            <AltitudeMeters>107.59999847412109375</AltitudeMeters>
            <DistanceMeters>28000.795746155</DistanceMeters>
          </Trackpoint>
          <Trackpoint>
            <Time>2021-10-09T07:52:11.000Z</Time>
            <Position>
              <LatitudeDegrees>39.57665584981441497802734375</LatitudeDegrees>
              <LongitudeDegrees>-0.62244792468845844268798828125</LongitudeDegrees>
            </Position>
            <AltitudeMeters>107.59999847412109375</AltitudeMeters>
            <DistanceMeters>28008.988459881</DistanceMeters>
          </Trackpoint>
          <Trackpoint>
            <Time>2021-10-09T07:52:12.000Z</Time>
            <Position>
              <LatitudeDegrees>39.57672617398202419281005859375</LatitudeDegrees>
              <LongitudeDegrees>-0.6224238686263561248779296875</LongitudeDegrees>
            </Position>
            <AltitudeMeters>107.59999847412109375</AltitudeMeters>
            <DistanceMeters>28017.083598222</DistanceMeters>
          </Trackpoint>
          <Trackpoint>
            <Time>2021-10-09T07:52:13.000Z</Time>
            <Position>
              <LatitudeDegrees>39.57679658196866512298583984375</LatitudeDegrees>
              <LongitudeDegrees>-0.62239830382168292999267578125</LongitudeDegrees>
            </Position>
            <AltitudeMeters>107.59999847412109375</AltitudeMeters>
            <DistanceMeters>28025.221569753</DistanceMeters>
          </Trackpoint>
          <Trackpoint>
            <Time>2021-10-09T07:52:14.000Z</Time>
            <Position>
              <LatitudeDegrees>39.5768670737743377685546875</LatitudeDegrees>
              <LongitudeDegrees>-0.62237265519797801971435546875</LongitudeDegrees>
            </Position>
            <AltitudeMeters>107.59999847412109375</AltitudeMeters>
            <DistanceMeters>28033.370075879</DistanceMeters>
          </Trackpoint>
          <Trackpoint>
            <Time>2021-10-09T07:52:15.000Z</Time>
            <Position>
              <LatitudeDegrees>39.57693655975162982940673828125</LatitudeDegrees>
              <LongitudeDegrees>-0.6223484314978122711181640625</LongitudeDegrees>
            </Position>
            <AltitudeMeters>107.59999847412109375</AltitudeMeters>
            <DistanceMeters>28041.378296837</DistanceMeters>
          </Trackpoint>
          <Trackpoint>
            <Time>2021-10-09T07:52:16.000Z</Time>
            <Position>
              <LatitudeDegrees>39.577006883919239044189453125</LatitudeDegrees>
              <LongitudeDegrees>-0.62232504598796367645263671875</LongitudeDegrees>
            </Position>
            <AltitudeMeters>107.59999847412109375</AltitudeMeters>
            <DistanceMeters>28049.458361978</DistanceMeters>
          </Trackpoint>
          <Trackpoint>
            <Time>2021-10-09T07:52:17.000Z</Time>
            <Position>
              <LatitudeDegrees>39.57707838155329227447509765625</LatitudeDegrees>
              <LongitudeDegrees>-0.622300989925861358642578125</LongitudeDegrees>
            </Position>
            <AltitudeMeters>107.59999847412109375</AltitudeMeters>
            <DistanceMeters>28057.679683173</DistanceMeters>
          </Trackpoint>
          <Trackpoint>
            <Time>2021-10-09T07:52:18.000Z</Time>
            <Position>
              <LatitudeDegrees>39.57714979536831378936767578125</LatitudeDegrees>
              <LongitudeDegrees>-0.62227559275925159454345703125</LongitudeDegrees>
            </Position>
            <AltitudeMeters>107.40000152587890625</AltitudeMeters>
            <DistanceMeters>28065.921847032</DistanceMeters>
          </Trackpoint>
          <Trackpoint>
            <Time>2021-10-09T07:52:19.000Z</Time>
            <Position>
              <LatitudeDegrees>39.5772212930023670196533203125</LatitudeDegrees>
              <LongitudeDegrees>-0.62225044704973697662353515625</LongitudeDegrees>
            </Position>
            <AltitudeMeters>107.40000152587890625</AltitudeMeters>
            <DistanceMeters>28074.166749425</DistanceMeters>
          </Trackpoint>
          <Trackpoint>
            <Time>2021-10-09T07:52:20.000Z</Time>
            <Position>
              <LatitudeDegrees>39.57729195244610309600830078125</LatitudeDegrees>
              <LongitudeDegrees>-0.62222622334957122802734375</LongitudeDegrees>
            </Position>
            <AltitudeMeters>107.1999969482421875</AltitudeMeters>
            <DistanceMeters>28082.301391408</DistanceMeters>
          </Trackpoint>
          <Trackpoint>
            <Time>2021-10-09T07:52:21.000Z</Time>
            <Position>
              <LatitudeDegrees>39.57736370153725147247314453125</LatitudeDegrees>
              <LongitudeDegrees>-0.62220065854489803314208984375</LongitudeDegrees>
            </Position>
            <AltitudeMeters>107.1999969482421875</AltitudeMeters>
            <DistanceMeters>28090.583447956</DistanceMeters>
          </Trackpoint>
          <Trackpoint>
            <Time>2021-10-09T07:52:22.000Z</Time>
            <Position>
              <LatitudeDegrees>39.577434696257114410400390625</LatitudeDegrees>
              <LongitudeDegrees>-0.62217584811151027679443359375</LongitudeDegrees>
            </Position>
            <AltitudeMeters>107.1999969482421875</AltitudeMeters>
            <DistanceMeters>28098.76678755</DistanceMeters>
          </Trackpoint>
          <Trackpoint>
            <Time>2021-10-09T07:52:23.000Z</Time>
            <Position>
              <LatitudeDegrees>39.57750703208148479461669921875</LatitudeDegrees>
              <LongitudeDegrees>-0.6221512891352176666259765625</LongitudeDegrees>
            </Position>
            <AltitudeMeters>107.1999969482421875</AltitudeMeters>
            <DistanceMeters>28107.088002976</DistanceMeters>
          </Trackpoint>
          <Trackpoint>
            <Time>2021-10-09T07:52:24.000Z</Time>
            <Position>
              <LatitudeDegrees>39.57757827825844287872314453125</LatitudeDegrees>
              <LongitudeDegrees>-0.6221264787018299102783203125</LongitudeDegrees>
            </Position>
            <AltitudeMeters>107.1999969482421875</AltitudeMeters>
            <DistanceMeters>28115.297783155</DistanceMeters>
          </Trackpoint>
          <Trackpoint>
            <Time>2021-10-09T07:52:25.000Z</Time>
            <Position>
              <LatitudeDegrees>39.57764952443540096282958984375</LatitudeDegrees>
              <LongitudeDegrees>-0.62210150063037872314453125</LongitudeDegrees>
            </Position>
            <AltitudeMeters>107.1999969482421875</AltitudeMeters>
            <DistanceMeters>28123.513061077</DistanceMeters>
          </Trackpoint>
          <Trackpoint>
            <Time>2021-10-09T07:52:26.000Z</Time>
            <Position>
              <LatitudeDegrees>39.57772043533623218536376953125</LatitudeDegrees>
              <LongitudeDegrees>-0.62207677401602268218994140625</LongitudeDegrees>
            </Position>
            <AltitudeMeters>107.1999969482421875</AltitudeMeters>
            <DistanceMeters>28131.685358513</DistanceMeters>
          </Trackpoint>
          <Trackpoint>
            <Time>2021-10-09T07:52:27.000Z</Time>
            <Position>
              <LatitudeDegrees>39.57779084332287311553955078125</LatitudeDegrees>
              <LongitudeDegrees>-0.62205129303038120269775390625</LongitudeDegrees>
            </Position>
            <AltitudeMeters>107.1999969482421875</AltitudeMeters>
            <DistanceMeters>28139.821110496</DistanceMeters>
          </Trackpoint>
          <Trackpoint>
            <Time>2021-10-09T07:52:28.000Z</Time>
            <Position>
              <LatitudeDegrees>39.5778620056807994842529296875</LatitudeDegrees>
              <LongitudeDegrees>-0.62202698551118373870849609375</LongitudeDegrees>
            </Position>
            <AltitudeMeters>107.1999969482421875</AltitudeMeters>
            <DistanceMeters>28148.012170744</DistanceMeters>
          </Trackpoint>
          <Trackpoint>
            <Time>2021-10-09T07:52:29.000Z</Time>
            <Position>
              <LatitudeDegrees>39.57793199457228183746337890625</LatitudeDegrees>
              <LongitudeDegrees>-0.62200334854423999786376953125</LongitudeDegrees>
            </Position>
            <AltitudeMeters>107.1999969482421875</AltitudeMeters>
            <DistanceMeters>28156.062004814</DistanceMeters>
          </Trackpoint>
          <Trackpoint>
            <Time>2021-10-09T07:52:30.000Z</Time>
            <Position>
              <LatitudeDegrees>39.57800290547311305999755859375</LatitudeDegrees>
              <LongitudeDegrees>-0.6219796277582645416259765625</LongitudeDegrees>
            </Position>
            <AltitudeMeters>107.1999969482421875</AltitudeMeters>
            <DistanceMeters>28164.212173053</DistanceMeters>
          </Trackpoint>
          <Trackpoint>
            <Time>2021-10-09T07:52:31.000Z</Time>
            <Position>
              <LatitudeDegrees>39.5780728943645954132080078125</LatitudeDegrees>
              <LongitudeDegrees>-0.62195624224841594696044921875</LongitudeDegrees>
            </Position>
            <AltitudeMeters>107.1999969482421875</AltitudeMeters>
            <DistanceMeters>28172.256396309</DistanceMeters>
          </Trackpoint>
          <Trackpoint>
            <Time>2021-10-09T07:52:32.000Z</Time>
            <Position>
              <LatitudeDegrees>39.57814313471317291259765625</LatitudeDegrees>
              <LongitudeDegrees>-0.6219331920146942138671875</LongitudeDegrees>
            </Position>
            <AltitudeMeters>107.1999969482421875</AltitudeMeters>
            <DistanceMeters>28180.320800227</DistanceMeters>
          </Trackpoint>
          <Trackpoint>
            <Time>2021-10-09T07:52:33.000Z</Time>
            <Position>
              <LatitudeDegrees>39.578212201595306396484375</LatitudeDegrees>
              <LongitudeDegrees>-0.62190963886678218841552734375</LongitudeDegrees>
            </Position>
            <AltitudeMeters>107.1999969482421875</AltitudeMeters>
            <DistanceMeters>28188.269033666</DistanceMeters>
          </Trackpoint>
          <Trackpoint>
            <Time>2021-10-09T07:52:34.000Z</Time>
            <Position>
              <LatitudeDegrees>39.57828126847743988037109375</LatitudeDegrees>
              <LongitudeDegrees>-0.62188432551920413970947265625</LongitudeDegrees>
            </Position>
            <AltitudeMeters>107.1999969482421875</AltitudeMeters>
            <DistanceMeters>28196.256932023</DistanceMeters>
          </Trackpoint>
          <Trackpoint>
            <Time>2021-10-09T07:52:35.000Z</Time>
            <Position>
              <LatitudeDegrees>39.578350000083446502685546875</LatitudeDegrees>
              <LongitudeDegrees>-0.62185901217162609100341796875</LongitudeDegrees>
            </Position>
            <AltitudeMeters>107.1999969482421875</AltitudeMeters>
            <DistanceMeters>28204.208573065</DistanceMeters>
          </Trackpoint>
          <Trackpoint>
            <Time>2021-10-09T07:52:36.000Z</Time>
            <Position>
              <LatitudeDegrees>39.5784195698797702789306640625</LatitudeDegrees>
              <LongitudeDegrees>-0.62183462083339691162109375</LongitudeDegrees>
            </Position>
            <AltitudeMeters>107.1999969482421875</AltitudeMeters>
            <DistanceMeters>28212.22918804</DistanceMeters>
          </Trackpoint>
          <Trackpoint>
            <Time>2021-10-09T07:52:37.000Z</Time>
            <Position>
              <LatitudeDegrees>39.578488133847713470458984375</LatitudeDegrees>
              <LongitudeDegrees>-0.6218109838664531707763671875</LongitudeDegrees>
            </Position>
            <AltitudeMeters>107.1999969482421875</AltitudeMeters>
            <DistanceMeters>28220.125559222</DistanceMeters>
          </Trackpoint>
          <Trackpoint>
            <Time>2021-10-09T07:52:38.000Z</Time>
            <Position>
              <LatitudeDegrees>39.5785553567111492156982421875</LatitudeDegrees>
              <LongitudeDegrees>-0.621786005795001983642578125</LongitudeDegrees>
            </Position>
            <AltitudeMeters>107.1999969482421875</AltitudeMeters>
            <DistanceMeters>28227.90905348</DistanceMeters>
          </Trackpoint>
          <Trackpoint>
            <Time>2021-10-09T07:52:39.000Z</Time>
            <Position>
              <LatitudeDegrees>39.57862299866974353790283203125</LatitudeDegrees>
              <LongitudeDegrees>-0.621761865913867950439453125</LongitudeDegrees>
            </Position>
            <AltitudeMeters>107.1999969482421875</AltitudeMeters>
            <DistanceMeters>28235.717451277</DistanceMeters>
          </Trackpoint>
          <Trackpoint>
            <Time>2021-10-09T07:52:40.000Z</Time>
            <Position>
              <LatitudeDegrees>39.57870195619761943817138671875</LatitudeDegrees>
              <LongitudeDegrees>-0.62173135578632354736328125</LongitudeDegrees>
            </Position>
            <AltitudeMeters>107.1999969482421875</AltitudeMeters>
            <DistanceMeters>28244.886913735</DistanceMeters>
          </Trackpoint>
          <Trackpoint>
            <Time>2021-10-09T07:52:41.000Z</Time>
            <Position>
              <LatitudeDegrees>39.578753672540187835693359375</LatitudeDegrees>
              <LongitudeDegrees>-0.62171014957129955291748046875</LongitudeDegrees>
            </Position>
            <AltitudeMeters>107.1999969482421875</AltitudeMeters>
            <DistanceMeters>28250.923915352</DistanceMeters>
          </Trackpoint>
          <Trackpoint>
            <Time>2021-10-09T07:52:42.000Z</Time>
            <Position>
              <LatitudeDegrees>39.5788182131946086883544921875</LatitudeDegrees>
              <LongitudeDegrees>-0.62168265692889690399169921875</LongitudeDegrees>
            </Position>
            <AltitudeMeters>107.1999969482421875</AltitudeMeters>
            <DistanceMeters>28258.484364009</DistanceMeters>
          </Trackpoint>
          <Trackpoint>
            <Time>2021-10-09T07:52:43.000Z</Time>
            <Position>
              <LatitudeDegrees>39.57888334058225154876708984375</LatitudeDegrees>
              <LongitudeDegrees>-0.621655918657779693603515625</LongitudeDegrees>
            </Position>
            <AltitudeMeters>107.1999969482421875</AltitudeMeters>
            <DistanceMeters>28266.087095052</DistanceMeters>
          </Trackpoint>
          <Trackpoint>
            <Time>2021-10-09T07:52:44.000Z</Time>
            <Position>
              <LatitudeDegrees>39.57894779741764068603515625</LatitudeDegrees>
              <LongitudeDegrees>-0.62162951566278934478759765625</LongitudeDegrees>
            </Position>
            <AltitudeMeters>107.1999969482421875</AltitudeMeters>
            <DistanceMeters>28273.609226333</DistanceMeters>
          </Trackpoint>
          <Trackpoint>
            <Time>2021-10-09T07:52:45.000Z</Time>
            <Position>
              <LatitudeDegrees>39.57901225425302982330322265625</LatitudeDegrees>
              <LongitudeDegrees>-0.62160118483006954193115234375</LongitudeDegrees>
            </Position>
            <AltitudeMeters>107.1999969482421875</AltitudeMeters>
            <DistanceMeters>28281.183397947</DistanceMeters>
          </Trackpoint>
          <Trackpoint>
            <Time>2021-10-09T07:52:46.000Z</Time>
            <Position>
              <LatitudeDegrees>39.57907713018357753753662109375</LatitudeDegrees>
              <LongitudeDegrees>-0.6215715967118740081787109375</LongitudeDegrees>
            </Position>
            <AltitudeMeters>107.1999969482421875</AltitudeMeters>
            <DistanceMeters>28288.837621354</DistanceMeters>
          </Trackpoint>
          <Trackpoint>
            <Time>2021-10-09T07:52:47.000Z</Time>
            <Position>
              <LatitudeDegrees>39.57914150319993495941162109375</LatitudeDegrees>
              <LongitudeDegrees>-0.62153915874660015106201171875</LongitudeDegrees>
            </Position>
            <AltitudeMeters>107.1999969482421875</AltitudeMeters>
            <DistanceMeters>28296.524806811</DistanceMeters>
          </Trackpoint>
          <Trackpoint>
            <Time>2021-10-09T07:52:48.000Z</Time>
            <Position>
              <LatitudeDegrees>39.5792041160166263580322265625</LatitudeDegrees>
              <LongitudeDegrees>-0.62149993143975734710693359375</LongitudeDegrees>
            </Position>
            <AltitudeMeters>107.1999969482421875</AltitudeMeters>
            <DistanceMeters>28304.263506119</DistanceMeters>
          </Trackpoint>
          <Trackpoint>
            <Time>2021-10-09T07:52:49.000Z</Time>
            <Position>
              <LatitudeDegrees>39.5792676508426666259765625</LatitudeDegrees>
              <LongitudeDegrees>-0.62145718373358249664306640625</LongitudeDegrees>
            </Position>
            <AltitudeMeters>107.1999969482421875</AltitudeMeters>
            <DistanceMeters>28312.228762995</DistanceMeters>
          </Trackpoint>
          <Trackpoint>
            <Time>2021-10-09T07:52:50.000Z</Time>
            <Position>
              <LatitudeDegrees>39.57933160476386547088623046875</LatitudeDegrees>
              <LongitudeDegrees>-0.62141560949385166168212890625</LongitudeDegrees>
            </Position>
            <AltitudeMeters>107.1999969482421875</AltitudeMeters>
            <DistanceMeters>28320.189483847</DistanceMeters>
          </Trackpoint>
          <Trackpoint>
            <Time>2021-10-09T07:52:51.000Z</Time>
            <Position>
              <LatitudeDegrees>39.57939706742763519287109375</LatitudeDegrees>
              <LongitudeDegrees>-0.6213724426925182342529296875</LongitudeDegrees>
            </Position>
            <AltitudeMeters>107.1999969482421875</AltitudeMeters>
            <DistanceMeters>28328.36288617</DistanceMeters>
          </Trackpoint>
          <Trackpoint>
            <Time>2021-10-09T07:52:52.000Z</Time>
            <Position>
              <LatitudeDegrees>39.5794629491865634918212890625</LatitudeDegrees>
              <LongitudeDegrees>-0.62132659368216991424560546875</LongitudeDegrees>
            </Position>
            <AltitudeMeters>107.1999969482421875</AltitudeMeters>
            <DistanceMeters>28336.683558985</DistanceMeters>
          </Trackpoint>
          <Trackpoint>
            <Time>2021-10-09T07:52:53.000Z</Time>
            <Position>
              <LatitudeDegrees>39.579528830945491790771484375</LatitudeDegrees>
              <LongitudeDegrees>-0.62128317542374134063720703125</LongitudeDegrees>
            </Position>
            <AltitudeMeters>107.1999969482421875</AltitudeMeters>
            <DistanceMeters>28344.907625653</DistanceMeters>
          </Trackpoint>
          <Trackpoint>
            <Time>2021-10-09T07:52:54.000Z</Time>
            <Position>
              <LatitudeDegrees>39.57959596998989582061767578125</LatitudeDegrees>
              <LongitudeDegrees>-0.62124109826982021331787109375</LongitudeDegrees>
            </Position>
            <AltitudeMeters>107.1999969482421875</AltitudeMeters>
            <DistanceMeters>28353.206020857</DistanceMeters>
          </Trackpoint>
          <Trackpoint>
            <Time>2021-10-09T07:52:55.000Z</Time>
            <Position>
              <LatitudeDegrees>39.5796614326536655426025390625</LatitudeDegrees>
              <LongitudeDegrees>-0.62119935639202594757080078125</LongitudeDegrees>
            </Position>
            <AltitudeMeters>107.40000152587890625</AltitudeMeters>
            <DistanceMeters>28361.324550771</DistanceMeters>
          </Trackpoint>
          <Trackpoint>
            <Time>2021-10-09T07:52:56.000Z</Time>
            <Position>
              <LatitudeDegrees>39.5797268114984035491943359375</LatitudeDegrees>
              <LongitudeDegrees>-0.62115878798067569732666015625</LongitudeDegrees>
            </Position>
            <AltitudeMeters>107.40000152587890625</AltitudeMeters>
            <DistanceMeters>28369.390074356</DistanceMeters>
          </Trackpoint>
          <Trackpoint>
            <Time>2021-10-09T07:52:57.000Z</Time>
            <Position>
              <LatitudeDegrees>39.57979311235249042510986328125</LatitudeDegrees>
              <LongitudeDegrees>-0.62111578881740570068359375</LongitudeDegrees>
            </Position>
            <AltitudeMeters>107.40000152587890625</AltitudeMeters>
            <DistanceMeters>28377.639356512</DistanceMeters>
          </Trackpoint>
          <Trackpoint>
            <Time>2021-10-09T07:52:58.000Z</Time>
            <Position>
              <LatitudeDegrees>39.579857401549816131591796875</LatitudeDegrees>
              <LongitudeDegrees>-0.62107329256832599639892578125</LongitudeDegrees>
            </Position>
            <AltitudeMeters>107.59999847412109375</AltitudeMeters>
            <DistanceMeters>28385.67009782</DistanceMeters>
          </Trackpoint>
          <Trackpoint>
            <Time>2021-10-09T07:52:59.000Z</Time>
            <Position>
              <LatitudeDegrees>39.57992202602326869964599609375</LatitudeDegrees>
              <LongitudeDegrees>-0.62103138305246829986572265625</LongitudeDegrees>
            </Position>
            <AltitudeMeters>107.59999847412109375</AltitudeMeters>
            <DistanceMeters>28393.710952709</DistanceMeters>
          </Trackpoint>
          <Trackpoint>
            <Time>2021-10-09T07:53:00.000Z</Time>
            <Position>
              <LatitudeDegrees>39.57998706959187984466552734375</LatitudeDegrees>
              <LongitudeDegrees>-0.62098830007016658782958984375</LongitudeDegrees>
            </Position>
            <AltitudeMeters>107.59999847412109375</AltitudeMeters>
            <DistanceMeters>28401.838931502</DistanceMeters>
          </Trackpoint>
          <Trackpoint>
            <Time>2021-10-09T07:53:01.000Z</Time>
            <Position>
              <LatitudeDegrees>39.58005110733211040496826171875</LatitudeDegrees>
              <LongitudeDegrees>-0.62094706110656261444091796875</LongitudeDegrees>
            </Position>
            <AltitudeMeters>107.59999847412109375</AltitudeMeters>
            <DistanceMeters>28409.795681212</DistanceMeters>
          </Trackpoint>
          <Trackpoint>
            <Time>2021-10-09T07:53:02.000Z</Time>
            <Position>
              <LatitudeDegrees>39.58011497743427753448486328125</LatitudeDegrees>
              <LongitudeDegrees>-0.62090548686683177947998046875</LongitudeDegrees>
            </Position>
            <AltitudeMeters>107.40000152587890625</AltitudeMeters>
            <DistanceMeters>28417.748457797</DistanceMeters>
          </Trackpoint>
          <Trackpoint>
            <Time>2021-10-09T07:53:03.000Z</Time>
            <Position>
              <LatitudeDegrees>39.580179937183856964111328125</LatitudeDegrees>
              <LongitudeDegrees>-0.6208634935319423675537109375</LongitudeDegrees>
            </Position>
            <AltitudeMeters>107.40000152587890625</AltitudeMeters>
            <DistanceMeters>28425.82628748</DistanceMeters>
          </Trackpoint>
          <Trackpoint>
            <Time>2021-10-09T07:53:04.000Z</Time>
            <Position>
              <LatitudeDegrees>39.5802458189427852630615234375</LatitudeDegrees>
              <LongitudeDegrees>-0.6208212487399578094482421875</LongitudeDegrees>
            </Position>
            <AltitudeMeters>107.40000152587890625</AltitudeMeters>
            <DistanceMeters>28434.005212</DistanceMeters>
          </Trackpoint>
          <Trackpoint>
            <Time>2021-10-09T07:53:05.000Z</Time>
            <Position>
              <LatitudeDegrees>39.5803122036159038543701171875</LatitudeDegrees>
              <LongitudeDegrees>-0.62077808193862438201904296875</LongitudeDegrees>
            </Position>
            <AltitudeMeters>107.40000152587890625</AltitudeMeters>
            <DistanceMeters>28442.269805046</DistanceMeters>
          </Trackpoint>
          <Trackpoint>
            <Time>2021-10-09T07:53:06.000Z</Time>
            <Position>
              <LatitudeDegrees>39.58037699572741985321044921875</LatitudeDegrees>
              <LongitudeDegrees>-0.6207350827753543853759765625</LongitudeDegrees>
            </Position>
            <AltitudeMeters>107.40000152587890625</AltitudeMeters>
            <DistanceMeters>28450.369961553</DistanceMeters>
          </Trackpoint>
          <Trackpoint>
            <Time>2021-10-09T07:53:07.000Z</Time>
            <Position>
              <LatitudeDegrees>39.58044388331472873687744140625</LatitudeDegrees>
              <LongitudeDegrees>-0.62069141305983066558837890625</LongitudeDegrees>
            </Position>
            <AltitudeMeters>107.40000152587890625</AltitudeMeters>
            <DistanceMeters>28458.704189052</DistanceMeters>
          </Trackpoint>
          <Trackpoint>
            <Time>2021-10-09T07:53:08.000Z</Time>
            <Position>
              <LatitudeDegrees>39.5805108547210693359375</LatitudeDegrees>
              <LongitudeDegrees>-0.62064833007752895355224609375</LongitudeDegrees>
            </Position>
            <AltitudeMeters>107.40000152587890625</AltitudeMeters>
            <DistanceMeters>28467.024319221</DistanceMeters>
          </Trackpoint>
          <Trackpoint>
            <Time>2021-10-09T07:53:09.000Z</Time>
            <Position>
              <LatitudeDegrees>39.58057858049869537353515625</LatitudeDegrees>
              <LongitudeDegrees>-0.6206073425710201263427734375</LongitudeDegrees>
            </Position>
            <AltitudeMeters>107.40000152587890625</AltitudeMeters>
            <DistanceMeters>28475.342278448</DistanceMeters>
          </Trackpoint>
          <Trackpoint>
            <Time>2021-10-09T07:53:10.000Z</Time>
            <Position>
              <LatitudeDegrees>39.58064521662890911102294921875</LatitudeDegrees>
              <LongitudeDegrees>-0.62056434340775012969970703125</LongitudeDegrees>
            </Position>
            <AltitudeMeters>107.40000152587890625</AltitudeMeters>
            <DistanceMeters>28483.625425243</DistanceMeters>
          </Trackpoint>
          <Trackpoint>
            <Time>2021-10-09T07:53:11.000Z</Time>
            <Position>
              <LatitudeDegrees>39.580712020397186279296875</LatitudeDegrees>
              <LongitudeDegrees>-0.6205205060541629791259765625</LongitudeDegrees>
            </Position>
            <AltitudeMeters>107.40000152587890625</AltitudeMeters>
            <DistanceMeters>28491.957485475</DistanceMeters>
          </Trackpoint>
          <Trackpoint>
            <Time>2021-10-09T07:53:12.000Z</Time>
            <Position>
              <LatitudeDegrees>39.58079257048666477203369140625</LatitudeDegrees>
              <LongitudeDegrees>-0.620469041168689727783203125</LongitudeDegrees>
            </Position>
            <AltitudeMeters>107.40000152587890625</AltitudeMeters>
            <DistanceMeters>28501.951115719</DistanceMeters>
          </Trackpoint>
          <Trackpoint>
            <Time>2021-10-09T07:53:13.000Z</Time>
            <Position>
              <LatitudeDegrees>39.5808466337621212005615234375</LatitudeDegrees>
              <LongitudeDegrees>-0.6204346753656864166259765625</LongitudeDegrees>
            </Position>
            <AltitudeMeters>107.40000152587890625</AltitudeMeters>
            <DistanceMeters>28508.651678388</DistanceMeters>
          </Trackpoint>
          <Trackpoint>
            <Time>2021-10-09T07:53:14.000Z</Time>
            <Position>
              <LatitudeDegrees>39.58091444335877895355224609375</LatitudeDegrees>
              <LongitudeDegrees>-0.6203910894691944122314453125</LongitudeDegrees>
            </Position>
            <AltitudeMeters>107.40000152587890625</AltitudeMeters>
            <DistanceMeters>28517.074283718</DistanceMeters>
          </Trackpoint>
          <Trackpoint>
            <Time>2021-10-09T07:53:15.000Z</Time>
            <Position>
              <LatitudeDegrees>39.5809829235076904296875</LatitudeDegrees>
              <LongitudeDegrees>-0.62034741975367069244384765625</LongitudeDegrees>
            </Position>
            <AltitudeMeters>107.40000152587890625</AltitudeMeters>
            <DistanceMeters>28525.567354461</DistanceMeters>
          </Trackpoint>
          <Trackpoint>
            <Time>2021-10-09T07:53:16.000Z</Time>
            <Position>
              <LatitudeDegrees>39.58105056546628475189208984375</LatitudeDegrees>
              <LongitudeDegrees>-0.6203025765717029571533203125</LongitudeDegrees>
            </Position>
            <AltitudeMeters>107.40000152587890625</AltitudeMeters>
            <DistanceMeters>28534.022062328</DistanceMeters>
          </Trackpoint>
          <Trackpoint>
            <Time>2021-10-09T07:53:17.000Z</Time>
            <Position>
              <LatitudeDegrees>39.581117369234561920166015625</LatitudeDegrees>
              <LongitudeDegrees>-0.62026058323681354522705078125</LongitudeDegrees>
            </Position>
            <AltitudeMeters>107.59999847412109375</AltitudeMeters>
            <DistanceMeters>28542.284469842</DistanceMeters>
          </Trackpoint>
          <Trackpoint>
            <Time>2021-10-09T07:53:18.000Z</Time>
            <Position>
              <LatitudeDegrees>39.581183753907680511474609375</LatitudeDegrees>
              <LongitudeDegrees>-0.62021783553063869476318359375</LongitudeDegrees>
            </Position>
            <AltitudeMeters>107.59999847412109375</AltitudeMeters>
            <DistanceMeters>28550.533204654</DistanceMeters>
          </Trackpoint>
          <Trackpoint>
            <Time>2021-10-09T07:53:19.000Z</Time>
            <Position>
              <LatitudeDegrees>39.5812499709427356719970703125</LatitudeDegrees>
              <LongitudeDegrees>-0.62017324380576610565185546875</LongitudeDegrees>
            </Position>
            <AltitudeMeters>107.59999847412109375</AltitudeMeters>
            <DistanceMeters>28558.837038933</DistanceMeters>
          </Trackpoint>
          <Trackpoint>
            <Time>2021-10-09T07:53:20.000Z</Time>
            <Position>
              <LatitudeDegrees>39.58131543360650539398193359375</LatitudeDegrees>
              <LongitudeDegrees>-0.620130412280559539794921875</LongitudeDegrees>
            </Position>
            <AltitudeMeters>107.59999847412109375</AltitudeMeters>
            <DistanceMeters>28566.996619413</DistanceMeters>
          </Trackpoint>
          <Trackpoint>
            <Time>2021-10-09T07:53:21.000Z</Time>
            <Position>
              <LatitudeDegrees>39.581379555165767669677734375</LatitudeDegrees>
              <LongitudeDegrees>-0.6200879998505115509033203125</LongitudeDegrees>
            </Position>
            <AltitudeMeters>107.59999847412109375</AltitudeMeters>
            <DistanceMeters>28575.007095255</DistanceMeters>
          </Trackpoint>
          <Trackpoint>
            <Time>2021-10-09T07:53:22.000Z</Time>
            <Position>
              <LatitudeDegrees>39.58144149743020534515380859375</LatitudeDegrees>
              <LongitudeDegrees>-0.62004617415368556976318359375</LongitudeDegrees>
            </Position>
            <AltitudeMeters>107.59999847412109375</AltitudeMeters>
            <DistanceMeters>28582.779560206</DistanceMeters>
          </Trackpoint>
          <Trackpoint>
            <Time>2021-10-09T07:53:23.000Z</Time>
            <Position>
              <LatitudeDegrees>39.58150201477110385894775390625</LatitudeDegrees>
              <LongitudeDegrees>-0.62000443227589130401611328125</LongitudeDegrees>
            </Position>
            <AltitudeMeters>107.8000030517578125</AltitudeMeters>
            <DistanceMeters>28590.407784941</DistanceMeters>
          </Trackpoint>
          <Trackpoint>
            <Time>2021-10-09T07:53:24.000Z</Time>
            <Position>
              <LatitudeDegrees>39.58156161010265350341796875</LatitudeDegrees>
              <LongitudeDegrees>-0.6199646182358264923095703125</LongitudeDegrees>
            </Position>
            <AltitudeMeters>107.8000030517578125</AltitudeMeters>
            <DistanceMeters>28597.869046314</DistanceMeters>
          </Trackpoint>
          <Trackpoint>
            <Time>2021-10-09T07:53:25.000Z</Time>
            <Position>
              <LatitudeDegrees>39.58161701448261737823486328125</LatitudeDegrees>
              <LongitudeDegrees>-0.61992488801479339599609375</LongitudeDegrees>
            </Position>
            <AltitudeMeters>107.8000030517578125</AltitudeMeters>
            <DistanceMeters>28604.915134611</DistanceMeters>
          </Trackpoint>
          <Trackpoint>
            <Time>2021-10-09T07:53:26.000Z</Time>
            <Position>
              <LatitudeDegrees>39.58166881464421749114990234375</LatitudeDegrees>
              <LongitudeDegrees>-0.619884319603443145751953125</LongitudeDegrees>
            </Position>
            <AltitudeMeters>107.8000030517578125</AltitudeMeters>
            <DistanceMeters>28611.649304485</DistanceMeters>
          </Trackpoint>
          <Trackpoint>
            <Time>2021-10-09T07:53:27.000Z</Time>
            <Position>
              <LatitudeDegrees>39.58171944133937358856201171875</LatitudeDegrees>
              <LongitudeDegrees>-0.61984500847756862640380859375</LongitudeDegrees>
            </Position>
            <AltitudeMeters>108</AltitudeMeters>
            <DistanceMeters>28618.215781092</DistanceMeters>
          </Trackpoint>
          <Trackpoint>
            <Time>2021-10-09T07:53:28.000Z</Time>
            <Position>
              <LatitudeDegrees>39.58176788873970508575439453125</LatitudeDegrees>
              <LongitudeDegrees>-0.619806535542011260986328125</LongitudeDegrees>
            </Position>
            <AltitudeMeters>108.40000152587890625</AltitudeMeters>
            <DistanceMeters>28624.537736354</DistanceMeters>
          </Trackpoint>
          <Trackpoint>
            <Time>2021-10-09T07:53:29.000Z</Time>
            <Position>
              <LatitudeDegrees>39.5818162523210048675537109375</LatitudeDegrees>
              <LongitudeDegrees>-0.61976806260645389556884765625</LongitudeDegrees>
            </Position>
            <AltitudeMeters>108.59999847412109375</AltitudeMeters>
            <DistanceMeters>28630.851830707</DistanceMeters>
          </Trackpoint>
          <Trackpoint>
            <Time>2021-10-09T07:53:30.000Z</Time>
            <Position>
              <LatitudeDegrees>39.58186411298811435699462890625</LatitudeDegrees>
              <LongitudeDegrees>-0.6197282485663890838623046875</LongitudeDegrees>
            </Position>
            <AltitudeMeters>109</AltitudeMeters>
            <DistanceMeters>28637.179496861</DistanceMeters>
          </Trackpoint>
          <Trackpoint>
            <Time>2021-10-09T07:53:31.000Z</Time>
            <Position>
              <LatitudeDegrees>39.58191021345555782318115234375</LatitudeDegrees>
              <LongitudeDegrees>-0.61968726105988025665283203125</LongitudeDegrees>
            </Position>
            <AltitudeMeters>109.1999969482421875</AltitudeMeters>
            <DistanceMeters>28643.399211282</DistanceMeters>
          </Trackpoint>
          <Trackpoint>
            <Time>2021-10-09T07:53:32.000Z</Time>
            <Position>
              <LatitudeDegrees>39.58195463754236698150634765625</LatitudeDegrees>
              <LongitudeDegrees>-0.6196440942585468292236328125</LongitudeDegrees>
            </Position>
            <AltitudeMeters>109.40000152587890625</AltitudeMeters>
            <DistanceMeters>28649.576678648</DistanceMeters>
          </Trackpoint>
          <Trackpoint>
            <Time>2021-10-09T07:53:33.000Z</Time>
            <Position>
              <LatitudeDegrees>39.58199788816273212432861328125</LatitudeDegrees>
              <LongitudeDegrees>-0.61959992162883281707763671875</LongitudeDegrees>
            </Position>
            <AltitudeMeters>109.8000030517578125</AltitudeMeters>
            <DistanceMeters>28655.7027702</DistanceMeters>
          </Trackpoint>
          <Trackpoint>
            <Time>2021-10-09T07:53:34.000Z</Time>
            <Position>
              <LatitudeDegrees>39.582038708031177520751953125</LatitudeDegrees>
              <LongitudeDegrees>-0.6195552460849285125732421875</LongitudeDegrees>
            </Position>
            <AltitudeMeters>109.8000030517578125</AltitudeMeters>
            <DistanceMeters>28661.645549766</DistanceMeters>
          </Trackpoint>
          <Trackpoint>
            <Time>2021-10-09T07:53:35.000Z</Time>
            <Position>
              <LatitudeDegrees>39.58207919262349605560302734375</LatitudeDegrees>
              <LongitudeDegrees>-0.6195111572742462158203125</LongitudeDegrees>
            </Position>
            <AltitudeMeters>110.1999969482421875</AltitudeMeters>
            <DistanceMeters>28667.528002735</DistanceMeters>
          </Trackpoint>
          <Trackpoint>
            <Time>2021-10-09T07:53:36.000Z</Time>
            <Position>
              <LatitudeDegrees>39.5821196772158145904541015625</LatitudeDegrees>
              <LongitudeDegrees>-0.61946765519678592681884765625</LongitudeDegrees>
            </Position>
            <AltitudeMeters>110.40000152587890625</AltitudeMeters>
            <DistanceMeters>28673.378901794</DistanceMeters>
          </Trackpoint>
          <Trackpoint>
            <Time>2021-10-09T07:53:37.000Z</Time>
            <Position>
              <LatitudeDegrees>39.58215798251330852508544921875</LatitudeDegrees>
              <LongitudeDegrees>-0.61942406930029392242431640625</LongitudeDegrees>
            </Position>
            <AltitudeMeters>110.8000030517578125</AltitudeMeters>
            <DistanceMeters>28679.050333033</DistanceMeters>
          </Trackpoint>
          <Trackpoint>
            <Time>2021-10-09T07:53:38.000Z</Time>
            <Position>
              <LatitudeDegrees>39.582194276154041290283203125</LatitudeDegrees>
              <LongitudeDegrees>-0.61938039958477020263671875</LongitudeDegrees>
            </Position>
            <AltitudeMeters>111</AltitudeMeters>
            <DistanceMeters>28684.55942433</DistanceMeters>
          </Trackpoint>
          <Trackpoint>
            <Time>2021-10-09T07:53:39.000Z</Time>
            <Position>
              <LatitudeDegrees>39.58222906105220317840576171875</LatitudeDegrees>
              <LongitudeDegrees>-0.619337148964405059814453125</LongitudeDegrees>
            </Position>
            <AltitudeMeters>111</AltitudeMeters>
            <DistanceMeters>28689.921491413</DistanceMeters>
          </Trackpoint>
          <Trackpoint>
            <Time>2021-10-09T07:53:40.000Z</Time>
            <Position>
              <LatitudeDegrees>39.58226275630295276641845703125</LatitudeDegrees>
              <LongitudeDegrees>-0.6192923896014690399169921875</LongitudeDegrees>
            </Position>
            <AltitudeMeters>111.40000152587890625</AltitudeMeters>
            <DistanceMeters>28695.28776701</DistanceMeters>
          </Trackpoint>
          <Trackpoint>
            <Time>2021-10-09T07:53:41.000Z</Time>
            <Position>
              <LatitudeDegrees>39.5822960324585437774658203125</LatitudeDegrees>
              <LongitudeDegrees>-0.6192471273243427276611328125</LongitudeDegrees>
            </Position>
            <AltitudeMeters>111.59999847412109375</AltitudeMeters>
            <DistanceMeters>28700.654883913</DistanceMeters>
          </Trackpoint>
          <Trackpoint>
            <Time>2021-10-09T07:53:42.000Z</Time>
            <Position>
              <LatitudeDegrees>39.58232847042381763458251953125</LatitudeDegrees>
              <LongitudeDegrees>-0.61920337378978729248046875</LongitudeDegrees>
            </Position>
            <AltitudeMeters>112</AltitudeMeters>
            <DistanceMeters>28705.863180145</DistanceMeters>
          </Trackpoint>
          <Trackpoint>
            <Time>2021-10-09T07:53:43.000Z</Time>
            <Position>
              <LatitudeDegrees>39.58236032165586948394775390625</LatitudeDegrees>
              <LongitudeDegrees>-0.61915651895105838775634765625</LongitudeDegrees>
            </Position>
            <AltitudeMeters>112</AltitudeMeters>
            <DistanceMeters>28711.221878036</DistanceMeters>
          </Trackpoint>
          <Trackpoint>
            <Time>2021-10-09T07:53:44.000Z</Time>
            <Position>
              <LatitudeDegrees>39.58239787258207798004150390625</LatitudeDegrees>
              <LongitudeDegrees>-0.619101114571094512939453125</LongitudeDegrees>
            </Position>
            <AltitudeMeters>112.40000152587890625</AltitudeMeters>
            <DistanceMeters>28717.54954419</DistanceMeters>
          </Trackpoint>
          <Trackpoint>
            <Time>2021-10-09T07:53:45.000Z</Time>
            <Position>
              <LatitudeDegrees>39.58242100663483142852783203125</LatitudeDegrees>
              <LongitudeDegrees>-0.61906297691166400909423828125</LongitudeDegrees>
            </Position>
            <AltitudeMeters>112.59999847412109375</AltitudeMeters>
            <DistanceMeters>28721.711236949</DistanceMeters>
          </Trackpoint>
          <Trackpoint>
            <Time>2021-10-09T07:53:46.000Z</Time>
            <Position>
              <LatitudeDegrees>39.58245134912431240081787109375</LatitudeDegrees>
              <LongitudeDegrees>-0.6190147809684276580810546875</LongitudeDegrees>
            </Position>
            <AltitudeMeters>112.59999847412109375</AltitudeMeters>
            <DistanceMeters>28727.049675041</DistanceMeters>
          </Trackpoint>
          <Trackpoint>
            <Time>2021-10-09T07:53:47.000Z</Time>
            <Position>
              <LatitudeDegrees>39.58248051814734935760498046875</LatitudeDegrees>
              <LongitudeDegrees>-0.61896759085357189178466796875</LongitudeDegrees>
            </Position>
            <AltitudeMeters>112.8000030517578125</AltitudeMeters>
            <DistanceMeters>28732.238864568</DistanceMeters>
          </Trackpoint>
          <Trackpoint>
            <Time>2021-10-09T07:53:48.000Z</Time>
            <Position>
              <LatitudeDegrees>39.58251052536070346832275390625</LatitudeDegrees>
              <LongitudeDegrees>-0.61891964636743068695068359375</LongitudeDegrees>
            </Position>
            <AltitudeMeters>113</AltitudeMeters>
            <DistanceMeters>28737.536550628</DistanceMeters>
          </Trackpoint>
          <Trackpoint>
            <Time>2021-10-09T07:53:49.000Z</Time>
            <Position>
              <LatitudeDegrees>39.5825394429266452789306640625</LatitudeDegrees>
              <LongitudeDegrees>-0.61887036077678203582763671875</LongitudeDegrees>
            </Position>
            <AltitudeMeters>113.40000152587890625</AltitudeMeters>
            <DistanceMeters>28742.84955533</DistanceMeters>
          </Trackpoint>
          <Trackpoint>
            <Time>2021-10-09T07:53:50.000Z</Time>
            <Position>
              <LatitudeDegrees>39.5825676061213016510009765625</LatitudeDegrees>
              <LongitudeDegrees>-0.6188213266432285308837890625</LongitudeDegrees>
            </Position>
            <AltitudeMeters>113.59999847412109375</AltitudeMeters>
            <DistanceMeters>28748.094134708</DistanceMeters>
          </Trackpoint>
          <Trackpoint>
            <Time>2021-10-09T07:53:51.000Z</Time>
            <Position>
              <LatitudeDegrees>39.5825961045920848846435546875</LatitudeDegrees>
              <LongitudeDegrees>-0.61877111904323101043701171875</LongitudeDegrees>
            </Position>
            <AltitudeMeters>114</AltitudeMeters>
            <DistanceMeters>28753.442712292</DistanceMeters>
          </Trackpoint>
          <Trackpoint>
            <Time>2021-10-09T07:53:52.000Z</Time>
            <Position>
              <LatitudeDegrees>39.58262644708156585693359375</LatitudeDegrees>
              <LongitudeDegrees>-0.61872015707194805145263671875</LongitudeDegrees>
            </Position>
            <AltitudeMeters>114.40000152587890625</AltitudeMeters>
            <DistanceMeters>28758.965718559</DistanceMeters>
          </Trackpoint>
          <Trackpoint>
            <Time>2021-10-09T07:53:53.000Z</Time>
            <Position>
              <LatitudeDegrees>39.58265637047588825225830078125</LatitudeDegrees>
              <LongitudeDegrees>-0.6186691112816333770751953125</LongitudeDegrees>
            </Position>
            <AltitudeMeters>114.59999847412109375</AltitudeMeters>
            <DistanceMeters>28764.467428861</DistanceMeters>
          </Trackpoint>
          <Trackpoint>
            <Time>2021-10-09T07:53:54.000Z</Time>
            <Position>
              <LatitudeDegrees>39.582686461508274078369140625</LatitudeDegrees>
              <LongitudeDegrees>-0.6186198256909847259521484375</LongitudeDegrees>
            </Position>
            <AltitudeMeters>114.59999847412109375</AltitudeMeters>
            <DistanceMeters>28769.861398299</DistanceMeters>
          </Trackpoint>
          <Trackpoint>
            <Time>2021-10-09T07:53:55.000Z</Time>
            <Position>
              <LatitudeDegrees>39.58271722309291362762451171875</LatitudeDegrees>
              <LongitudeDegrees>-0.6185725517570972442626953125</LongitudeDegrees>
            </Position>
            <AltitudeMeters>114.8000030517578125</AltitudeMeters>
            <DistanceMeters>28775.169301699</DistanceMeters>
          </Trackpoint>
          <Trackpoint>
            <Time>2021-10-09T07:53:56.000Z</Time>
            <Position>
              <LatitudeDegrees>39.58274756558239459991455078125</LatitudeDegrees>
              <LongitudeDegrees>-0.6185242719948291778564453125</LongitudeDegrees>
            </Position>
            <AltitudeMeters>115</AltitudeMeters>
            <DistanceMeters>28780.513656833</DistanceMeters>
          </Trackpoint>
          <Trackpoint>
            <Time>2021-10-09T07:53:57.000Z</Time>
            <Position>
              <LatitudeDegrees>39.58277924917638301849365234375</LatitudeDegrees>
              <LongitudeDegrees>-0.618476159870624542236328125</LongitudeDegrees>
            </Position>
            <AltitudeMeters>115</AltitudeMeters>
            <DistanceMeters>28785.942668668</DistanceMeters>
          </Trackpoint>
          <Trackpoint>
            <Time>2021-10-09T07:53:58.000Z</Time>
            <Position>
              <LatitudeDegrees>39.58281143568456172943115234375</LatitudeDegrees>
              <LongitudeDegrees>-0.61842813156545162200927734375</LongitudeDegrees>
            </Position>
            <AltitudeMeters>115.1999969482421875</AltitudeMeters>
            <DistanceMeters>28791.403191758</DistanceMeters>
          </Trackpoint>
          <Trackpoint>
            <Time>2021-10-09T07:53:59.000Z</Time>
            <Position>
              <LatitudeDegrees>39.58284362219274044036865234375</LatitudeDegrees>
              <LongitudeDegrees>-0.618380606174468994140625</LongitudeDegrees>
            </Position>
            <AltitudeMeters>115.40000152587890625</AltitudeMeters>
            <DistanceMeters>28796.830540039</DistanceMeters>
          </Trackpoint>
          <Trackpoint>
            <Time>2021-10-09T07:54:00.000Z</Time>
            <Position>
              <LatitudeDegrees>39.58287698216736316680908203125</LatitudeDegrees>
              <LongitudeDegrees>-0.6183336675167083740234375</LongitudeDegrees>
            </Position>
            <AltitudeMeters>115.40000152587890625</AltitudeMeters>
            <DistanceMeters>28802.307575181</DistanceMeters>
          </Trackpoint>
          <Trackpoint>
            <Time>2021-10-09T07:54:01.000Z</Time>
            <Position>
              <LatitudeDegrees>39.58291067741811275482177734375</LatitudeDegrees>
              <LongitudeDegrees>-0.6182853877544403076171875</LongitudeDegrees>
            </Position>
            <AltitudeMeters>115.59999847412109375</AltitudeMeters>
            <DistanceMeters>28807.894790433</DistanceMeters>
          </Trackpoint>
          <Trackpoint>
            <Time>2021-10-09T07:54:02.000Z</Time>
            <Position>
              <LatitudeDegrees>39.58294554613530635833740234375</LatitudeDegrees>
              <LongitudeDegrees>-0.6182372756302356719970703125</LongitudeDegrees>
            </Position>
            <AltitudeMeters>115.8000030517578125</AltitudeMeters>
            <DistanceMeters>28813.559849275</DistanceMeters>
          </Trackpoint>
          <Trackpoint>
            <Time>2021-10-09T07:54:03.000Z</Time>
            <Position>
              <LatitudeDegrees>39.58298276178538799285888671875</LatitudeDegrees>
              <LongitudeDegrees>-0.61818958260118961334228515625</LongitudeDegrees>
            </Position>
            <AltitudeMeters>116</AltitudeMeters>
            <DistanceMeters>28819.38212606</DistanceMeters>
          </Trackpoint>
          <Trackpoint>
            <Time>2021-10-09T07:54:04.000Z</Time>
            <Position>
              <LatitudeDegrees>39.5830219052731990814208984375</LatitudeDegrees>
              <LongitudeDegrees>-0.61814147047698497772216796875</LongitudeDegrees>
            </Position>
            <AltitudeMeters>116</AltitudeMeters>
            <DistanceMeters>28825.383121383</DistanceMeters>
          </Trackpoint>
          <Trackpoint>
            <Time>2021-10-09T07:54:05.000Z</Time>
            <Position>
              <LatitudeDegrees>39.58306222222745418548583984375</LatitudeDegrees>
              <LongitudeDegrees>-0.6180924363434314727783203125</LongitudeDegrees>
            </Position>
            <AltitudeMeters>116.1999969482421875</AltitudeMeters>
            <DistanceMeters>28831.532752278</DistanceMeters>
          </Trackpoint>
          <Trackpoint>
            <Time>2021-10-09T07:54:06.000Z</Time>
            <Position>
              <LatitudeDegrees>39.5831040479242801666259765625</LatitudeDegrees>
              <LongitudeDegrees>-0.618044324219226837158203125</LongitudeDegrees>
            </Position>
            <AltitudeMeters>116.1999969482421875</AltitudeMeters>
            <DistanceMeters>28837.753918378</DistanceMeters>
          </Trackpoint>
          <Trackpoint>
            <Time>2021-10-09T07:54:07.000Z</Time>
            <Position>
              <LatitudeDegrees>39.583146460354328155517578125</LatitudeDegrees>
              <LongitudeDegrees>-0.61799579299986362457275390625</LongitudeDegrees>
            </Position>
            <AltitudeMeters>116.1999969482421875</AltitudeMeters>
            <DistanceMeters>28844.047241449</DistanceMeters>
          </Trackpoint>
          <Trackpoint>
            <Time>2021-10-09T07:54:08.000Z</Time>
            <Position>
              <LatitudeDegrees>39.5831898786127567291259765625</LatitudeDegrees>
              <LongitudeDegrees>-0.61794801615178585052490234375</LongitudeDegrees>
            </Position>
            <AltitudeMeters>116.1999969482421875</AltitudeMeters>
            <DistanceMeters>28850.383464288</DistanceMeters>
          </Trackpoint>
          <Trackpoint>
            <Time>2021-10-09T07:54:09.000Z</Time>
            <Position>
              <LatitudeDegrees>39.58323304541409015655517578125</LatitudeDegrees>
              <LongitudeDegrees>-0.61790090985596179962158203125</LongitudeDegrees>
            </Position>
            <AltitudeMeters>116.1999969482421875</AltitudeMeters>
            <DistanceMeters>28856.66098399</DistanceMeters>
          </Trackpoint>
          <Trackpoint>
            <Time>2021-10-09T07:54:10.000Z</Time>
            <Position>
              <LatitudeDegrees>39.5832770504057407379150390625</LatitudeDegrees>
              <LongitudeDegrees>-0.61785288155078887939453125</LongitudeDegrees>
            </Position>
            <AltitudeMeters>116.1999969482421875</AltitudeMeters>
            <DistanceMeters>28863.061722762</DistanceMeters>
          </Trackpoint>
          <Trackpoint>
            <Time>2021-10-09T07:54:11.000Z</Time>
            <Position>
              <LatitudeDegrees>39.5833223126828670501708984375</LatitudeDegrees>
              <LongitudeDegrees>-0.6178054399788379669189453125</LongitudeDegrees>
            </Position>
            <AltitudeMeters>116.1999969482421875</AltitudeMeters>
            <DistanceMeters>28869.537498777</DistanceMeters>
          </Trackpoint>
          <Trackpoint>
            <Time>2021-10-09T07:54:12.000Z</Time>
            <Position>
              <LatitudeDegrees>39.583368413150310516357421875</LatitudeDegrees>
              <LongitudeDegrees>-0.6177585013210773468017578125</LongitudeDegrees>
            </Position>
            <AltitudeMeters>116.1999969482421875</AltitudeMeters>
            <DistanceMeters>28876.059821226</DistanceMeters>
          </Trackpoint>
          <Trackpoint>
            <Time>2021-10-09T07:54:13.000Z</Time>
            <Position>
              <LatitudeDegrees>39.58341543562710285186767578125</LatitudeDegrees>
              <LongitudeDegrees>-0.6177149154245853424072265625</LongitudeDegrees>
            </Position>
            <AltitudeMeters>116.1999969482421875</AltitudeMeters>
            <DistanceMeters>28882.491522416</DistanceMeters>
          </Trackpoint>
          <Trackpoint>
            <Time>2021-10-09T07:54:14.000Z</Time>
            <Position>
              <LatitudeDegrees>39.583463966846466064453125</LatitudeDegrees>
              <LongitudeDegrees>-0.61767174862325191497802734375</LongitudeDegrees>
            </Position>
            <AltitudeMeters>116.1999969482421875</AltitudeMeters>
            <DistanceMeters>28889.040786734</DistanceMeters>
          </Trackpoint>
          <Trackpoint>
            <Time>2021-10-09T07:54:15.000Z</Time>
            <Position>
              <LatitudeDegrees>39.583510570228099822998046875</LatitudeDegrees>
              <LongitudeDegrees>-0.61763050965964794158935546875</LongitudeDegrees>
            </Position>
            <AltitudeMeters>116.1999969482421875</AltitudeMeters>
            <DistanceMeters>28895.319744749</DistanceMeters>
          </Trackpoint>
          <Trackpoint>
            <Time>2021-10-09T07:54:16.000Z</Time>
            <Position>
              <LatitudeDegrees>39.58355675451457500457763671875</LatitudeDegrees>
              <LongitudeDegrees>-0.61758994124829769134521484375</LongitudeDegrees>
            </Position>
            <AltitudeMeters>116.40000152587890625</AltitudeMeters>
            <DistanceMeters>28901.5271062</DistanceMeters>
          </Trackpoint>
          <Trackpoint>
            <Time>2021-10-09T07:54:17.000Z</Time>
            <Position>
              <LatitudeDegrees>39.5836009271442890167236328125</LatitudeDegrees>
              <LongitudeDegrees>-0.61755071394145488739013671875</LongitudeDegrees>
            </Position>
            <AltitudeMeters>116.40000152587890625</AltitudeMeters>
            <DistanceMeters>28907.484303563</DistanceMeters>
          </Trackpoint>
          <Trackpoint>
            <Time>2021-10-09T07:54:18.000Z</Time>
            <Position>
              <LatitudeDegrees>39.5836455188691616058349609375</LatitudeDegrees>
              <LongitudeDegrees>-0.61751282773911952972412109375</LongitudeDegrees>
            </Position>
            <AltitudeMeters>116.59999847412109375</AltitudeMeters>
            <DistanceMeters>28913.417198133</DistanceMeters>
          </Trackpoint>
          <Trackpoint>
            <Time>2021-10-09T07:54:19.000Z</Time>
            <Position>
              <LatitudeDegrees>39.58369036205112934112548828125</LatitudeDegrees>
              <LongitudeDegrees>-0.6174788810312747955322265625</LongitudeDegrees>
            </Position>
            <AltitudeMeters>117</AltitudeMeters>
            <DistanceMeters>28919.195103689</DistanceMeters>
          </Trackpoint>
          <Trackpoint>
            <Time>2021-10-09T07:54:20.000Z</Time>
            <Position>
              <LatitudeDegrees>39.58373663015663623809814453125</LatitudeDegrees>
              <LongitudeDegrees>-0.61744543723762035369873046875</LongitudeDegrees>
            </Position>
            <AltitudeMeters>117.1999969482421875</AltitudeMeters>
            <DistanceMeters>28925.089824561</DistanceMeters>
          </Trackpoint>
          <Trackpoint>
            <Time>2021-10-09T07:54:21.000Z</Time>
            <Position>
              <LatitudeDegrees>39.58378373645246028900146484375</LatitudeDegrees>
              <LongitudeDegrees>-0.61740763485431671142578125</LongitudeDegrees>
            </Position>
            <AltitudeMeters>117.40000152587890625</AltitudeMeters>
            <DistanceMeters>28931.2541219</DistanceMeters>
          </Trackpoint>
          <Trackpoint>
            <Time>2021-10-09T07:54:22.000Z</Time>
            <Position>
              <LatitudeDegrees>39.5838302560150623321533203125</LatitudeDegrees>
              <LongitudeDegrees>-0.6173680722713470458984375</LongitudeDegrees>
            </Position>
            <AltitudeMeters>117.40000152587890625</AltitudeMeters>
            <DistanceMeters>28937.444731274</DistanceMeters>
          </Trackpoint>
          <Trackpoint>
            <Time>2021-10-09T07:54:23.000Z</Time>
            <Position>
              <LatitudeDegrees>39.583876691758632659912109375</LatitudeDegrees>
              <LongitudeDegrees>-0.617333538830280303955078125</LongitudeDegrees>
            </Position>
            <AltitudeMeters>117.8000030517578125</AltitudeMeters>
            <DistanceMeters>28943.401170676</DistanceMeters>
          </Trackpoint>
          <Trackpoint>
            <Time>2021-10-09T07:54:24.000Z</Time>
            <Position>
              <LatitudeDegrees>39.58392203785479068756103515625</LatitudeDegrees>
              <LongitudeDegrees>-0.617300011217594146728515625</LongitudeDegrees>
            </Position>
            <AltitudeMeters>118.1999969482421875</AltitudeMeters>
            <DistanceMeters>28949.209472114</DistanceMeters>
          </Trackpoint>
          <Trackpoint>
            <Time>2021-10-09T07:54:25.000Z</Time>
            <Position>
              <LatitudeDegrees>39.58396629430353641510009765625</LatitudeDegrees>
              <LongitudeDegrees>-0.61726740561425685882568359375</LongitudeDegrees>
            </Position>
            <AltitudeMeters>118.40000152587890625</AltitudeMeters>
            <DistanceMeters>28954.873733902</DistanceMeters>
          </Trackpoint>
          <Trackpoint>
            <Time>2021-10-09T07:54:26.000Z</Time>
            <Position>
              <LatitudeDegrees>39.58401055075228214263916015625</LatitudeDegrees>
              <LongitudeDegrees>-0.6172366440296173095703125</LongitudeDegrees>
            </Position>
            <AltitudeMeters>118.59999847412109375</AltitudeMeters>
            <DistanceMeters>28960.460949154</DistanceMeters>
          </Trackpoint>
          <Trackpoint>
            <Time>2021-10-09T07:54:27.000Z</Time>
            <Position>
              <LatitudeDegrees>39.58405279554426670074462890625</LatitudeDegrees>
              <LongitudeDegrees>-0.6172012723982334136962890625</LongitudeDegrees>
            </Position>
            <AltitudeMeters>119</AltitudeMeters>
            <DistanceMeters>28966.057046464</DistanceMeters>
          </Trackpoint>
          <Trackpoint>
            <Time>2021-10-09T07:54:28.000Z</Time>
            <Position>
              <LatitudeDegrees>39.58409621380269527435302734375</LatitudeDegrees>
              <LongitudeDegrees>-0.6171623803675174713134765625</LongitudeDegrees>
            </Position>
            <AltitudeMeters>119</AltitudeMeters>
            <DistanceMeters>28971.928743992</DistanceMeters>
          </Trackpoint>
          <Trackpoint>
            <Time>2021-10-09T07:54:29.000Z</Time>
            <Position>
              <LatitudeDegrees>39.58414197899401187896728515625</LatitudeDegrees>
              <LongitudeDegrees>-0.617123655974864959716796875</LongitudeDegrees>
            </Position>
            <AltitudeMeters>119.40000152587890625</AltitudeMeters>
            <DistanceMeters>28978.008968738</DistanceMeters>
          </Trackpoint>
          <Trackpoint>
            <Time>2021-10-09T07:54:30.000Z</Time>
            <Position>
              <LatitudeDegrees>39.584188498556613922119140625</LatitudeDegrees>
              <LongitudeDegrees>-0.61708602122962474822998046875</LongitudeDegrees>
            </Position>
            <AltitudeMeters>119.59999847412109375</AltitudeMeters>
            <DistanceMeters>28984.110690231</DistanceMeters>
          </Trackpoint>
          <Trackpoint>
            <Time>2021-10-09T07:54:31.000Z</Time>
            <Position>
              <LatitudeDegrees>39.58423367701470851898193359375</LatitudeDegrees>
              <LongitudeDegrees>-0.6170517392456531524658203125</LongitudeDegrees>
            </Position>
            <AltitudeMeters>120</AltitudeMeters>
            <DistanceMeters>28989.936068097</DistanceMeters>
          </Trackpoint>
          <Trackpoint>
            <Time>2021-10-09T07:54:32.000Z</Time>
            <Position>
              <LatitudeDegrees>39.58427558653056621551513671875</LatitudeDegrees>
              <LongitudeDegrees>-0.61701863072812557220458984375</LongitudeDegrees>
            </Position>
            <AltitudeMeters>120.1999969482421875</AltitudeMeters>
            <DistanceMeters>28995.396591187</DistanceMeters>
          </Trackpoint>
          <Trackpoint>
            <Time>2021-10-09T07:54:33.000Z</Time>
            <Position>
              <LatitudeDegrees>39.584316909313201904296875</LatitudeDegrees>
              <LongitudeDegrees>-0.61698795296251773834228515625</LongitudeDegrees>
            </Position>
            <AltitudeMeters>120.40000152587890625</AltitudeMeters>
            <DistanceMeters>29000.694277247</DistanceMeters>
          </Trackpoint>
          <Trackpoint>
            <Time>2021-10-09T07:54:34.000Z</Time>
            <Position>
              <LatitudeDegrees>39.58435839973390102386474609375</LatitudeDegrees>
              <LongitudeDegrees>-0.61695744283497333526611328125</LongitudeDegrees>
            </Position>
            <AltitudeMeters>121</AltitudeMeters>
            <DistanceMeters>29006.001329953</DistanceMeters>
          </Trackpoint>
          <Trackpoint>
            <Time>2021-10-09T07:54:35.000Z</Time>
            <Position>
              <LatitudeDegrees>39.58439896814525127410888671875</LatitudeDegrees>
              <LongitudeDegrees>-0.61692408286035060882568359375</LongitudeDegrees>
            </Position>
            <AltitudeMeters>121.1999969482421875</AltitudeMeters>
            <DistanceMeters>29011.346529844</DistanceMeters>
          </Trackpoint>
          <Trackpoint>
            <Time>2021-10-09T07:54:36.000Z</Time>
            <Position>
              <LatitudeDegrees>39.5844397880136966705322265625</LatitudeDegrees>
              <LongitudeDegrees>-0.616892985999584197998046875</LongitudeDegrees>
            </Position>
            <AltitudeMeters>121.40000152587890625</AltitudeMeters>
            <DistanceMeters>29016.615159171</DistanceMeters>
          </Trackpoint>
          <Trackpoint>
            <Time>2021-10-09T07:54:37.000Z</Time>
            <Position>
              <LatitudeDegrees>39.5844800211489200592041015625</LatitudeDegrees>
              <LongitudeDegrees>-0.6168633140623569488525390625</LongitudeDegrees>
            </Position>
            <AltitudeMeters>121.59999847412109375</AltitudeMeters>
            <DistanceMeters>29021.765922667</DistanceMeters>
          </Trackpoint>
          <Trackpoint>
            <Time>2021-10-09T07:54:38.000Z</Time>
            <Position>
              <LatitudeDegrees>39.5845195837318897247314453125</LatitudeDegrees>
              <LongitudeDegrees>-0.61683288775384426116943359375</LongitudeDegrees>
            </Position>
            <AltitudeMeters>121.59999847412109375</AltitudeMeters>
            <DistanceMeters>29026.884150071</DistanceMeters>
          </Trackpoint>
          <Trackpoint>
            <Time>2021-10-09T07:54:39.000Z</Time>
            <Position>
              <LatitudeDegrees>39.58455763757228851318359375</LatitudeDegrees>
              <LongitudeDegrees>-0.61680204235017299652099609375</LongitudeDegrees>
            </Position>
            <AltitudeMeters>121.8000030517578125</AltitudeMeters>
            <DistanceMeters>29031.876445234</DistanceMeters>
          </Trackpoint>
          <Trackpoint>
            <Time>2021-10-09T07:54:40.000Z</Time>
            <Position>
              <LatitudeDegrees>39.584596194326877593994140625</LatitudeDegrees>
              <LongitudeDegrees>-0.61677102930843830108642578125</LongitudeDegrees>
            </Position>
            <AltitudeMeters>122</AltitudeMeters>
            <DistanceMeters>29036.924501862</DistanceMeters>
          </Trackpoint>
          <Trackpoint>
            <Time>2021-10-09T07:54:41.000Z</Time>
            <Position>
              <LatitudeDegrees>39.58463332615792751312255859375</LatitudeDegrees>
              <LongitudeDegrees>-0.61674001626670360565185546875</LongitudeDegrees>
            </Position>
            <AltitudeMeters>122.1999969482421875</AltitudeMeters>
            <DistanceMeters>29041.838403002</DistanceMeters>
          </Trackpoint>
          <Trackpoint>
            <Time>2021-10-09T07:54:42.000Z</Time>
            <Position>
              <LatitudeDegrees>39.5846711285412311553955078125</LatitudeDegrees>
              <LongitudeDegrees>-0.61670833267271518707275390625</LongitudeDegrees>
            </Position>
            <AltitudeMeters>122.40000152587890625</AltitudeMeters>
            <DistanceMeters>29046.846950931</DistanceMeters>
          </Trackpoint>
          <Trackpoint>
            <Time>2021-10-09T07:54:43.000Z</Time>
            <Position>
              <LatitudeDegrees>39.58470943383872509002685546875</LatitudeDegrees>
              <LongitudeDegrees>-0.61668000183999538421630859375</LongitudeDegrees>
            </Position>
            <AltitudeMeters>122.59999847412109375</AltitudeMeters>
            <DistanceMeters>29051.754416048</DistanceMeters>
          </Trackpoint>
          <Trackpoint>
            <Time>2021-10-09T07:54:44.000Z</Time>
            <Position>
              <LatitudeDegrees>39.58474849350750446319580078125</LatitudeDegrees>
              <LongitudeDegrees>-0.61665116809308528900146484375</LongitudeDegrees>
            </Position>
            <AltitudeMeters>122.59999847412109375</AltitudeMeters>
            <DistanceMeters>29056.756649732</DistanceMeters>
          </Trackpoint>
          <Trackpoint>
            <Time>2021-10-09T07:54:45.000Z</Time>
            <Position>
              <LatitudeDegrees>39.5847847871482372283935546875</LatitudeDegrees>
              <LongitudeDegrees>-0.61662116087973117828369140625</LongitudeDegrees>
            </Position>
            <AltitudeMeters>123.1999969482421875</AltitudeMeters>
            <DistanceMeters>29061.547730437</DistanceMeters>
          </Trackpoint>
          <Trackpoint>
            <Time>2021-10-09T07:54:46.000Z</Time>
            <Position>
              <LatitudeDegrees>39.584822170436382293701171875</LatitudeDegrees>
              <LongitudeDegrees>-0.61658880673348903656005859375</LongitudeDegrees>
            </Position>
            <AltitudeMeters>123.1999969482421875</AltitudeMeters>
            <DistanceMeters>29066.549964121</DistanceMeters>
          </Trackpoint>
          <Trackpoint>
            <Time>2021-10-09T07:54:47.000Z</Time>
            <Position>
              <LatitudeDegrees>39.58485997281968593597412109375</LatitudeDegrees>
              <LongitudeDegrees>-0.61655662022531032562255859375</LongitudeDegrees>
            </Position>
            <AltitudeMeters>123.59999847412109375</AltitudeMeters>
            <DistanceMeters>29071.581895594</DistanceMeters>
          </Trackpoint>
          <Trackpoint>
            <Time>2021-10-09T07:54:48.000Z</Time>
            <Position>
              <LatitudeDegrees>39.58490121178328990936279296875</LatitudeDegrees>
              <LongitudeDegrees>-0.61652694828808307647705078125</LongitudeDegrees>
            </Position>
            <AltitudeMeters>123.8000030517578125</AltitudeMeters>
            <DistanceMeters>29076.829917426</DistanceMeters>
          </Trackpoint>
          <Trackpoint>
            <Time>2021-10-09T07:54:49.000Z</Time>
            <Position>
              <LatitudeDegrees>39.58494211547076702117919921875</LatitudeDegrees>
              <LongitudeDegrees>-0.6164971925318241119384765625</LongitudeDegrees>
            </Position>
            <AltitudeMeters>124</AltitudeMeters>
            <DistanceMeters>29082.050336059</DistanceMeters>
          </Trackpoint>
          <Trackpoint>
            <Time>2021-10-09T07:54:50.000Z</Time>
            <Position>
              <LatitudeDegrees>39.58498301915824413299560546875</LatitudeDegrees>
              <LongitudeDegrees>-0.616465173661708831787109375</LongitudeDegrees>
            </Position>
            <AltitudeMeters>124.1999969482421875</AltitudeMeters>
            <DistanceMeters>29087.367588108</DistanceMeters>
          </Trackpoint>
          <Trackpoint>
            <Time>2021-10-09T07:54:51.000Z</Time>
            <Position>
              <LatitudeDegrees>39.585024677217006683349609375</LatitudeDegrees>
              <LongitudeDegrees>-0.61643357388675212860107421875</LongitudeDegrees>
            </Position>
            <AltitudeMeters>124.40000152587890625</AltitudeMeters>
            <DistanceMeters>29092.738909569</DistanceMeters>
          </Trackpoint>
          <Trackpoint>
            <Time>2021-10-09T07:54:52.000Z</Time>
            <Position>
              <LatitudeDegrees>39.5850667543709278106689453125</LatitudeDegrees>
              <LongitudeDegrees>-0.61640205793082714080810546875</LongitudeDegrees>
            </Position>
            <AltitudeMeters>124.59999847412109375</AltitudeMeters>
            <DistanceMeters>29098.147924976</DistanceMeters>
          </Trackpoint>
          <Trackpoint>
            <Time>2021-10-09T07:54:53.000Z</Time>
            <Position>
              <LatitudeDegrees>39.58510816097259521484375</LatitudeDegrees>
              <LongitudeDegrees>-0.61636970378458499908447265625</LongitudeDegrees>
            </Position>
            <AltitudeMeters>124.8000030517578125</AltitudeMeters>
            <DistanceMeters>29103.526806359</DistanceMeters>
          </Trackpoint>
          <Trackpoint>
            <Time>2021-10-09T07:54:54.000Z</Time>
            <Position>
              <LatitudeDegrees>39.58515015430748462677001953125</LatitudeDegrees>
              <LongitudeDegrees>-0.61633550561964511871337890625</LongitudeDegrees>
            </Position>
            <AltitudeMeters>125</AltitudeMeters>
            <DistanceMeters>29109.044905467</DistanceMeters>
          </Trackpoint>
          <Trackpoint>
            <Time>2021-10-09T07:54:55.000Z</Time>
            <Position>
              <LatitudeDegrees>39.585192315280437469482421875</LatitudeDegrees>
              <LongitudeDegrees>-0.6163010559976100921630859375</LongitudeDegrees>
            </Position>
            <AltitudeMeters>125.40000152587890625</AltitudeMeters>
            <DistanceMeters>29114.590754398</DistanceMeters>
          </Trackpoint>
          <Trackpoint>
            <Time>2021-10-09T07:54:56.000Z</Time>
            <Position>
              <LatitudeDegrees>39.5852333866059780120849609375</LatitudeDegrees>
              <LongitudeDegrees>-0.61626710928976535797119140625</LongitudeDegrees>
            </Position>
            <AltitudeMeters>125.59999847412109375</AltitudeMeters>
            <DistanceMeters>29120.010610363</DistanceMeters>
          </Trackpoint>
          <Trackpoint>
            <Time>2021-10-09T07:54:57.000Z</Time>
            <Position>
              <LatitudeDegrees>39.5852732844650745391845703125</LatitudeDegrees>
              <LongitudeDegrees>-0.61623458750545978546142578125</LongitudeDegrees>
            </Position>
            <AltitudeMeters>126</AltitudeMeters>
            <DistanceMeters>29125.25518974</DistanceMeters>
          </Trackpoint>
          <Trackpoint>
            <Time>2021-10-09T07:54:58.000Z</Time>
            <Position>
              <LatitudeDegrees>39.58531393669545650482177734375</LatitudeDegrees>
              <LongitudeDegrees>-0.616202317178249359130859375</LongitudeDegrees>
            </Position>
            <AltitudeMeters>126.1999969482421875</AltitudeMeters>
            <DistanceMeters>29130.559689547</DistanceMeters>
          </Trackpoint>
          <Trackpoint>
            <Time>2021-10-09T07:54:59.000Z</Time>
            <Position>
              <LatitudeDegrees>39.5853547565639019012451171875</LatitudeDegrees>
              <LongitudeDegrees>-0.61617071740329265594482421875</LongitudeDegrees>
            </Position>
            <AltitudeMeters>126.1999969482421875</AltitudeMeters>
            <DistanceMeters>29135.850553085</DistanceMeters>
          </Trackpoint>
          <Trackpoint>
            <Time>2021-10-09T07:55:00.000Z</Time>
            <Position>
              <LatitudeDegrees>39.58539742045104503631591796875</LatitudeDegrees>
              <LongitudeDegrees>-0.616138279438018798828125</LongitudeDegrees>
            </Position>
            <AltitudeMeters>126.40000152587890625</AltitudeMeters>
            <DistanceMeters>29141.354724818</DistanceMeters>
          </Trackpoint>
          <Trackpoint>
            <Time>2021-10-09T07:55:01.000Z</Time>
            <Position>
              <LatitudeDegrees>39.58543949760496616363525390625</LatitudeDegrees>
              <LongitudeDegrees>-0.61610466800630092620849609375</LongitudeDegrees>
            </Position>
            <AltitudeMeters>126.59999847412109375</AltitudeMeters>
            <DistanceMeters>29146.854793553</DistanceMeters>
          </Trackpoint>
          <Trackpoint>
            <Time>2021-10-09T07:55:02.000Z</Time>
            <Position>
              <LatitudeDegrees>39.585481323301792144775390625</LatitudeDegrees>
              <LongitudeDegrees>-0.61607013456523418426513671875</LongitudeDegrees>
            </Position>
            <AltitudeMeters>126.59999847412109375</AltitudeMeters>
            <DistanceMeters>29152.372892661</DistanceMeters>
          </Trackpoint>
          <Trackpoint>
            <Time>2021-10-09T07:55:03.000Z</Time>
            <Position>
              <LatitudeDegrees>39.5855230651795864105224609375</LatitudeDegrees>
              <LongitudeDegrees>-0.6160358525812625885009765625</LongitudeDegrees>
            </Position>
            <AltitudeMeters>126.8000030517578125</AltitudeMeters>
            <DistanceMeters>29157.871319339</DistanceMeters>
          </Trackpoint>
          <Trackpoint>
            <Time>2021-10-09T07:55:04.000Z</Time>
            <Position>
              <LatitudeDegrees>39.58556589670479297637939453125</LatitudeDegrees>
              <LongitudeDegrees>-0.61600224114954471588134765625</LongitudeDegrees>
            </Position>
            <AltitudeMeters>126.8000030517578125</AltitudeMeters>
            <DistanceMeters>29163.441538604</DistanceMeters>
          </Trackpoint>
          <Trackpoint>
            <Time>2021-10-09T07:55:05.000Z</Time>
            <Position>
              <LatitudeDegrees>39.5856083929538726806640625</LatitudeDegrees>
              <LongitudeDegrees>-0.61596821062266826629638671875</LongitudeDegrees>
            </Position>
            <AltitudeMeters>126.8000030517578125</AltitudeMeters>
            <DistanceMeters>29168.99958606</DistanceMeters>
          </Trackpoint>
          <Trackpoint>
            <Time>2021-10-09T07:55:06.000Z</Time>
            <Position>
              <LatitudeDegrees>39.58565223030745983123779296875</LatitudeDegrees>
              <LongitudeDegrees>-0.61593602411448955535888671875</LongitudeDegrees>
            </Position>
            <AltitudeMeters>127.1999969482421875</AltitudeMeters>
            <DistanceMeters>29174.605356838</DistanceMeters>
          </Trackpoint>
          <Trackpoint>
            <Time>2021-10-09T07:55:07.000Z</Time>
            <Position>
              <LatitudeDegrees>39.58569514565169811248779296875</LatitudeDegrees>
              <LongitudeDegrees>-0.6159035861492156982421875</LongitudeDegrees>
            </Position>
            <AltitudeMeters>127.1999969482421875</AltitudeMeters>
            <DistanceMeters>29180.133265908</DistanceMeters>
          </Trackpoint>
          <Trackpoint>
            <Time>2021-10-09T07:55:08.000Z</Time>
            <Position>
              <LatitudeDegrees>39.58573722280561923980712890625</LatitudeDegrees>
              <LongitudeDegrees>-0.61586863361299037933349609375</LongitudeDegrees>
            </Position>
            <AltitudeMeters>127.40000152587890625</AltitudeMeters>
            <DistanceMeters>29185.693749857</DistanceMeters>
          </Trackpoint>
          <Trackpoint>
            <Time>2021-10-09T07:55:09.000Z</Time>
            <Position>
              <LatitudeDegrees>39.5857808925211429595947265625</LatitudeDegrees>
              <LongitudeDegrees>-0.61583544127643108367919921875</LongitudeDegrees>
            </Position>
            <AltitudeMeters>127.59999847412109375</AltitudeMeters>
            <DistanceMeters>29191.325235316</DistanceMeters>
          </Trackpoint>
          <Trackpoint>
            <Time>2021-10-09T07:55:10.000Z</Time>
            <Position>
              <LatitudeDegrees>39.585823975503444671630859375</LatitudeDegrees>
              <LongitudeDegrees>-0.6158014945685863494873046875</LongitudeDegrees>
            </Position>
            <AltitudeMeters>127.59999847412109375</AltitudeMeters>
            <DistanceMeters>29196.935031783</DistanceMeters>
          </Trackpoint>
          <Trackpoint>
            <Time>2021-10-09T07:55:11.000Z</Time>
            <Position>
              <LatitudeDegrees>39.5858700759708881378173828125</LatitudeDegrees>
              <LongitudeDegrees>-0.615767799317836761474609375</LongitudeDegrees>
            </Position>
            <AltitudeMeters>127.59999847412109375</AltitudeMeters>
            <DistanceMeters>29202.824388592</DistanceMeters>
          </Trackpoint>
          <Trackpoint>
            <Time>2021-10-09T07:55:12.000Z</Time>
            <Position>
              <LatitudeDegrees>39.58591760136187076568603515625</LatitudeDegrees>
              <LongitudeDegrees>-0.61573217622935771942138671875</LongitudeDegrees>
            </Position>
            <AltitudeMeters>127.59999847412109375</AltitudeMeters>
            <DistanceMeters>29208.933505218</DistanceMeters>
          </Trackpoint>
          <Trackpoint>
            <Time>2021-10-09T07:55:13.000Z</Time>
            <Position>
              <LatitudeDegrees>39.58596521057188510894775390625</LatitudeDegrees>
              <LongitudeDegrees>-0.6156965531408786773681640625</LongitudeDegrees>
            </Position>
            <AltitudeMeters>127.8000030517578125</AltitudeMeters>
            <DistanceMeters>29215.050746163</DistanceMeters>
          </Trackpoint>
          <Trackpoint>
            <Time>2021-10-09T07:55:14.000Z</Time>
            <Position>
              <LatitudeDegrees>39.5860118977725505828857421875</LatitudeDegrees>
              <LongitudeDegrees>-0.61565858311951160430908203125</LongitudeDegrees>
            </Position>
            <AltitudeMeters>127.8000030517578125</AltitudeMeters>
            <DistanceMeters>29221.183467287</DistanceMeters>
          </Trackpoint>
          <Trackpoint>
            <Time>2021-10-09T07:55:15.000Z</Time>
            <Position>
              <LatitudeDegrees>39.58605808205902576446533203125</LatitudeDegrees>
              <LongitudeDegrees>-0.615618936717510223388671875</LongitudeDegrees>
            </Position>
            <AltitudeMeters>127.8000030517578125</AltitudeMeters>
            <DistanceMeters>29227.347032132</DistanceMeters>
          </Trackpoint>
          <Trackpoint>
            <Time>2021-10-09T07:55:16.000Z</Time>
            <Position>
              <LatitudeDegrees>39.5861054398119449615478515625</LatitudeDegrees>
              <LongitudeDegrees>-0.61558063142001628875732421875</LongitudeDegrees>
            </Position>
            <AltitudeMeters>128</AltitudeMeters>
            <DistanceMeters>29233.558029361</DistanceMeters>
          </Trackpoint>
          <Trackpoint>
            <Time>2021-10-09T07:55:17.000Z</Time>
            <Position>
              <LatitudeDegrees>39.58615355193614959716796875</LatitudeDegrees>
              <LongitudeDegrees>-0.61554391868412494659423828125</LongitudeDegrees>
            </Position>
            <AltitudeMeters>128</AltitudeMeters>
            <DistanceMeters>29239.769026589</DistanceMeters>
          </Trackpoint>
          <Trackpoint>
            <Time>2021-10-09T07:55:18.000Z</Time>
            <Position>
              <LatitudeDegrees>39.58620107732713222503662109375</LatitudeDegrees>
              <LongitudeDegrees>-0.61550703831017017364501953125</LongitudeDegrees>
            </Position>
            <AltitudeMeters>128.1999969482421875</AltitudeMeters>
            <DistanceMeters>29245.931858853</DistanceMeters>
          </Trackpoint>
          <Trackpoint>
            <Time>2021-10-09T07:55:19.000Z</Time>
            <Position>
              <LatitudeDegrees>39.58625019527971744537353515625</LatitudeDegrees>
              <LongitudeDegrees>-0.61546915210783481597900390625</LongitudeDegrees>
            </Position>
            <AltitudeMeters>128.1999969482421875</AltitudeMeters>
            <DistanceMeters>29252.290843231</DistanceMeters>
          </Trackpoint>
          <Trackpoint>
            <Time>2021-10-09T07:55:20.000Z</Time>
            <Position>
              <LatitudeDegrees>39.5862998999655246734619140625</LatitudeDegrees>
              <LongitudeDegrees>-0.61543294228613376617431640625</LongitudeDegrees>
            </Position>
            <AltitudeMeters>128.399993896484375</AltitudeMeters>
            <DistanceMeters>29258.634899561</DistanceMeters>
          </Trackpoint>
          <Trackpoint>
            <Time>2021-10-09T07:55:21.000Z</Time>
            <Position>
              <LatitudeDegrees>39.58634935319423675537109375</LatitudeDegrees>
              <LongitudeDegrees>-0.6153964810073375701904296875</LongitudeDegrees>
            </Position>
            <AltitudeMeters>128.399993896484375</AltitudeMeters>
            <DistanceMeters>29264.965419228</DistanceMeters>
          </Trackpoint>
          <Trackpoint>
            <Time>2021-10-09T07:55:22.000Z</Time>
            <Position>
              <LatitudeDegrees>39.58639805205166339874267578125</LatitudeDegrees>
              <LongitudeDegrees>-0.61535666696727275848388671875</LongitudeDegrees>
            </Position>
            <AltitudeMeters>128.600006103515625</AltitudeMeters>
            <DistanceMeters>29271.372503394</DistanceMeters>
          </Trackpoint>
          <Trackpoint>
            <Time>2021-10-09T07:55:23.000Z</Time>
            <Position>
              <LatitudeDegrees>39.58644717000424861907958984375</LatitudeDegrees>
              <LongitudeDegrees>-0.61531743966042995452880859375</LongitudeDegrees>
            </Position>
            <AltitudeMeters>128.600006103515625</AltitudeMeters>
            <DistanceMeters>29277.792259534</DistanceMeters>
          </Trackpoint>
          <Trackpoint>
            <Time>2021-10-09T07:55:24.000Z</Time>
            <Position>
              <LatitudeDegrees>39.58649662323296070098876953125</LatitudeDegrees>
              <LongitudeDegrees>-0.61527653597295284271240234375</LongitudeDegrees>
            </Position>
            <AltitudeMeters>128.8000030517578125</AltitudeMeters>
            <DistanceMeters>29284.319425892</DistanceMeters>
          </Trackpoint>
          <Trackpoint>
            <Time>2021-10-09T07:55:25.000Z</Time>
            <Position>
              <LatitudeDegrees>39.5865466631948947906494140625</LatitudeDegrees>
              <LongitudeDegrees>-0.61523462645709514617919921875</LongitudeDegrees>
            </Position>
            <AltitudeMeters>128.8000030517578125</AltitudeMeters>
            <DistanceMeters>29290.948177808</DistanceMeters>
          </Trackpoint>
          <Trackpoint>
            <Time>2021-10-09T07:55:26.000Z</Time>
            <Position>
              <LatitudeDegrees>39.58659687079489231109619140625</LatitudeDegrees>
              <LongitudeDegrees>-0.61519573442637920379638671875</LongitudeDegrees>
            </Position>
            <AltitudeMeters>129</AltitudeMeters>
            <DistanceMeters>29297.455946898</DistanceMeters>
          </Trackpoint>
          <Trackpoint>
            <Time>2021-10-09T07:55:27.000Z</Time>
            <Position>
              <LatitudeDegrees>39.58664800040423870086669921875</LatitudeDegrees>
              <LongitudeDegrees>-0.61515851877629756927490234375</LongitudeDegrees>
            </Position>
            <AltitudeMeters>129</AltitudeMeters>
            <DistanceMeters>29303.980345748</DistanceMeters>
          </Trackpoint>
          <Trackpoint>
            <Time>2021-10-09T07:55:28.000Z</Time>
            <Position>
              <LatitudeDegrees>39.5866982080042362213134765625</LatitudeDegrees>
              <LongitudeDegrees>-0.6151212193071842193603515625</LongitudeDegrees>
            </Position>
            <AltitudeMeters>129.1999969482421875</AltitudeMeters>
            <DistanceMeters>29310.41976428</DistanceMeters>
          </Trackpoint>
          <Trackpoint>
            <Time>2021-10-09T07:55:29.000Z</Time>
            <Position>
              <LatitudeDegrees>39.5867471583187580108642578125</LatitudeDegrees>
              <LongitudeDegrees>-0.6150840036571025848388671875</LongitudeDegrees>
            </Position>
            <AltitudeMeters>129.1999969482421875</AltitudeMeters>
            <DistanceMeters>29316.73314352</DistanceMeters>
          </Trackpoint>
          <Trackpoint>
            <Time>2021-10-09T07:55:30.000Z</Time>
            <Position>
              <LatitudeDegrees>39.586794935166835784912109375</LatitudeDegrees>
              <LongitudeDegrees>-0.61504519544541835784912109375</LongitudeDegrees>
            </Position>
            <AltitudeMeters>129.399993896484375</AltitudeMeters>
            <DistanceMeters>29323.006346302</DistanceMeters>
          </Trackpoint>
          <Trackpoint>
            <Time>2021-10-09T07:55:31.000Z</Time>
            <Position>
              <LatitudeDegrees>39.58684329874813556671142578125</LatitudeDegrees>
              <LongitudeDegrees>-0.6150050461292266845703125</LongitudeDegrees>
            </Position>
            <AltitudeMeters>129.399993896484375</AltitudeMeters>
            <DistanceMeters>29329.395082133</DistanceMeters>
          </Trackpoint>
          <Trackpoint>
            <Time>2021-10-09T07:55:32.000Z</Time>
            <Position>
              <LatitudeDegrees>39.58689275197684764862060546875</LatitudeDegrees>
              <LongitudeDegrees>-0.61496757902204990386962890625</LongitudeDegrees>
            </Position>
            <AltitudeMeters>129.399993896484375</AltitudeMeters>
            <DistanceMeters>29335.768251192</DistanceMeters>
          </Trackpoint>
          <Trackpoint>
            <Time>2021-10-09T07:55:33.000Z</Time>
            <Position>
              <LatitudeDegrees>39.5869419537484645843505859375</LatitudeDegrees>
              <LongitudeDegrees>-0.6149326264858245849609375</LongitudeDegrees>
            </Position>
            <AltitudeMeters>129.399993896484375</AltitudeMeters>
            <DistanceMeters>29342.011151954</DistanceMeters>
          </Trackpoint>
          <Trackpoint>
            <Time>2021-10-09T07:55:34.000Z</Time>
            <Position>
              <LatitudeDegrees>39.58698981441557407379150390625</LatitudeDegrees>
              <LongitudeDegrees>-0.614898093044757843017578125</LongitudeDegrees>
            </Position>
            <AltitudeMeters>129.399993896484375</AltitudeMeters>
            <DistanceMeters>29348.106950882</DistanceMeters>
          </Trackpoint>
          <Trackpoint>
            <Time>2021-10-09T07:55:35.000Z</Time>
            <Position>
              <LatitudeDegrees>39.58703641779720783233642578125</LatitudeDegrees>
              <LongitudeDegrees>-0.6148617155849933624267578125</LongitudeDegrees>
            </Position>
            <AltitudeMeters>129.399993896484375</AltitudeMeters>
            <DistanceMeters>29354.16038381</DistanceMeters>
          </Trackpoint>
          <Trackpoint>
            <Time>2021-10-09T07:55:36.000Z</Time>
            <Position>
              <LatitudeDegrees>39.58708293735980987548828125</LatitudeDegrees>
              <LongitudeDegrees>-0.61482491903007030487060546875</LongitudeDegrees>
            </Position>
            <AltitudeMeters>129.600006103515625</AltitudeMeters>
            <DistanceMeters>29360.224249844</DistanceMeters>
          </Trackpoint>
          <Trackpoint>
            <Time>2021-10-09T07:55:37.000Z</Time>
            <Position>
              <LatitudeDegrees>39.587128870189189910888671875</LatitudeDegrees>
              <LongitudeDegrees>-0.61478845775127410888671875</LongitudeDegrees>
            </Position>
            <AltitudeMeters>129.8000030517578125</AltitudeMeters>
            <DistanceMeters>29366.217716628</DistanceMeters>
          </Trackpoint>
          <Trackpoint>
            <Time>2021-10-09T07:55:38.000Z</Time>
            <Position>
              <LatitudeDegrees>39.5871736295521259307861328125</LatitudeDegrees>
              <LongitudeDegrees>-0.6147530861198902130126953125</LongitudeDegrees>
            </Position>
            <AltitudeMeters>129.8000030517578125</AltitudeMeters>
            <DistanceMeters>29372.05083998</DistanceMeters>
          </Trackpoint>
          <Trackpoint>
            <Time>2021-10-09T07:55:39.000Z</Time>
            <Position>
              <LatitudeDegrees>39.587219394743442535400390625</LatitudeDegrees>
              <LongitudeDegrees>-0.61471796594560146331787109375</LongitudeDegrees>
            </Position>
            <AltitudeMeters>130</AltitudeMeters>
            <DistanceMeters>29377.968494621</DistanceMeters>
          </Trackpoint>
          <Trackpoint>
            <Time>2021-10-09T07:55:40.000Z</Time>
            <Position>
              <LatitudeDegrees>39.58726608194410800933837890625</LatitudeDegrees>
              <LongitudeDegrees>-0.6146826781332492828369140625</LongitudeDegrees>
            </Position>
            <AltitudeMeters>130.1999969482421875</AltitudeMeters>
            <DistanceMeters>29383.982266828</DistanceMeters>
          </Trackpoint>
          <Trackpoint>
            <Time>2021-10-09T07:55:41.000Z</Time>
            <Position>
              <LatitudeDegrees>39.587311930954456329345703125</LatitudeDegrees>
              <LongitudeDegrees>-0.61464688740670680999755859375</LongitudeDegrees>
            </Position>
            <AltitudeMeters>130.399993896484375</AltitudeMeters>
            <DistanceMeters>29389.937948172</DistanceMeters>
          </Trackpoint>
          <Trackpoint>
            <Time>2021-10-09T07:55:42.000Z</Time>
            <Position>
              <LatitudeDegrees>39.5873556844890117645263671875</LatitudeDegrees>
              <LongitudeDegrees>-0.61461252160370349884033203125</LongitudeDegrees>
            </Position>
            <AltitudeMeters>130.399993896484375</AltitudeMeters>
            <DistanceMeters>29395.630833588</DistanceMeters>
          </Trackpoint>
          <Trackpoint>
            <Time>2021-10-09T07:55:43.000Z</Time>
            <Position>
              <LatitudeDegrees>39.5873992703855037689208984375</LatitudeDegrees>
              <LongitudeDegrees>-0.6145790778100490570068359375</LongitudeDegrees>
            </Position>
            <AltitudeMeters>130.8000030517578125</AltitudeMeters>
            <DistanceMeters>29401.266326366</DistanceMeters>
          </Trackpoint>
          <Trackpoint>
            <Time>2021-10-09T07:55:44.000Z</Time>
            <Position>
              <LatitudeDegrees>39.58744478411972522735595703125</LatitudeDegrees>
              <LongitudeDegrees>-0.6145448796451091766357421875</LongitudeDegrees>
            </Position>
            <AltitudeMeters>130.8000030517578125</AltitudeMeters>
            <DistanceMeters>29407.119540016</DistanceMeters>
          </Trackpoint>
          <Trackpoint>
            <Time>2021-10-09T07:55:45.000Z</Time>
            <Position>
              <LatitudeDegrees>39.58749038167297840118408203125</LatitudeDegrees>
              <LongitudeDegrees>-0.614511184394359588623046875</LongitudeDegrees>
            </Position>
            <AltitudeMeters>131</AltitudeMeters>
            <DistanceMeters>29412.960398583</DistanceMeters>
          </Trackpoint>
          <Trackpoint>
            <Time>2021-10-09T07:55:46.000Z</Time>
            <Position>
              <LatitudeDegrees>39.58753514103591442108154296875</LatitudeDegrees>
              <LongitudeDegrees>-0.6144751422107219696044921875</LongitudeDegrees>
            </Position>
            <AltitudeMeters>131</AltitudeMeters>
            <DistanceMeters>29418.822861457</DistanceMeters>
          </Trackpoint>
          <Trackpoint>
            <Time>2021-10-09T07:55:47.000Z</Time>
            <Position>
              <LatitudeDegrees>39.5875793136656284332275390625</LatitudeDegrees>
              <LongitudeDegrees>-0.61443968676030635833740234375</LongitudeDegrees>
            </Position>
            <AltitudeMeters>131.1999969482421875</AltitudeMeters>
            <DistanceMeters>29424.603110832</DistanceMeters>
          </Trackpoint>
          <Trackpoint>
            <Time>2021-10-09T07:55:48.000Z</Time>
            <Position>
              <LatitudeDegrees>39.5876332931220531463623046875</LatitudeDegrees>
              <LongitudeDegrees>-0.61439962126314640045166015625</LongitudeDegrees>
            </Position>
            <AltitudeMeters>131.1999969482421875</AltitudeMeters>
            <DistanceMeters>29431.523770155</DistanceMeters>
          </Trackpoint>
          <Trackpoint>
            <Time>2021-10-09T07:55:49.000Z</Time>
            <Position>
              <LatitudeDegrees>39.5876691676676273345947265625</LatitudeDegrees>
              <LongitudeDegrees>-0.61437162570655345916748046875</LongitudeDegrees>
            </Position>
            <AltitudeMeters>131.1999969482421875</AltitudeMeters>
            <DistanceMeters>29436.182987232</DistanceMeters>
          </Trackpoint>
          <Trackpoint>
            <Time>2021-10-09T07:55:50.000Z</Time>
            <Position>
              <LatitudeDegrees>39.58771350793540477752685546875</LatitudeDegrees>
              <LongitudeDegrees>-0.614336170256137847900390625</LongitudeDegrees>
            </Position>
            <AltitudeMeters>131.399993896484375</AltitudeMeters>
            <DistanceMeters>29441.979616809</DistanceMeters>
          </Trackpoint>
          <Trackpoint>
            <Time>2021-10-09T07:55:51.000Z</Time>
            <Position>
              <LatitudeDegrees>39.5877570100128650665283203125</LatitudeDegrees>
              <LongitudeDegrees>-0.61430029571056365966796875</LongitudeDegrees>
            </Position>
            <AltitudeMeters>131.399993896484375</AltitudeMeters>
            <DistanceMeters>29447.71674402</DistanceMeters>
          </Trackpoint>
          <Trackpoint>
            <Time>2021-10-09T07:55:52.000Z</Time>
            <Position>
              <LatitudeDegrees>39.58780084736645221710205078125</LatitudeDegrees>
              <LongitudeDegrees>-0.6142652593553066253662109375</LongitudeDegrees>
            </Position>
            <AltitudeMeters>131.600006103515625</AltitudeMeters>
            <DistanceMeters>29453.447571886</DistanceMeters>
          </Trackpoint>
          <Trackpoint>
            <Time>2021-10-09T07:55:53.000Z</Time>
            <Position>
              <LatitudeDegrees>39.58784610964357852935791015625</LatitudeDegrees>
              <LongitudeDegrees>-0.61423181556165218353271484375</LongitudeDegrees>
            </Position>
            <AltitudeMeters>131.8000030517578125</AltitudeMeters>
            <DistanceMeters>29459.244980317</DistanceMeters>
          </Trackpoint>
          <Trackpoint>
            <Time>2021-10-09T07:55:54.000Z</Time>
            <Position>
              <LatitudeDegrees>39.58788894116878509521484375</LatitudeDegrees>
              <LongitudeDegrees>-0.614196695387363433837890625</LongitudeDegrees>
            </Position>
            <AltitudeMeters>132</AltitudeMeters>
            <DistanceMeters>29464.884477568</DistanceMeters>
          </Trackpoint>
          <Trackpoint>
            <Time>2021-10-09T07:55:55.000Z</Time>
            <Position>
              <LatitudeDegrees>39.5879320241510868072509765625</LatitudeDegrees>
              <LongitudeDegrees>-0.61416107229888439178466796875</LongitudeDegrees>
            </Position>
            <AltitudeMeters>132.1999969482421875</AltitudeMeters>
            <DistanceMeters>29470.570220586</DistanceMeters>
          </Trackpoint>
          <Trackpoint>
            <Time>2021-10-09T07:55:56.000Z</Time>
            <Position>
              <LatitudeDegrees>39.587975777685642242431640625</LatitudeDegrees>
              <LongitudeDegrees>-0.6141284666955471038818359375</LongitudeDegrees>
            </Position>
            <AltitudeMeters>132.399993896484375</AltitudeMeters>
            <DistanceMeters>29476.185648169</DistanceMeters>
          </Trackpoint>
          <Trackpoint>
            <Time>2021-10-09T07:55:57.000Z</Time>
            <Position>
              <LatitudeDegrees>39.58801894448697566986083984375</LatitudeDegrees>
              <LongitudeDegrees>-0.61409535817801952362060546875</LongitudeDegrees>
            </Position>
            <AltitudeMeters>132.600006103515625</AltitudeMeters>
            <DistanceMeters>29481.767203842</DistanceMeters>
          </Trackpoint>
          <Trackpoint>
            <Time>2021-10-09T07:55:58.000Z</Time>
            <Position>
              <LatitudeDegrees>39.58805867470800876617431640625</LatitudeDegrees>
              <LongitudeDegrees>-0.6140609085559844970703125</LongitudeDegrees>
            </Position>
            <AltitudeMeters>132.8000030517578125</AltitudeMeters>
            <DistanceMeters>29487.085304953</DistanceMeters>
          </Trackpoint>
          <Trackpoint>
            <Time>2021-10-09T07:55:59.000Z</Time>
            <Position>
              <LatitudeDegrees>39.58810008130967617034912109375</LatitudeDegrees>
              <LongitudeDegrees>-0.61402746476233005523681640625</LongitudeDegrees>
            </Position>
            <AltitudeMeters>132.8000030517578125</AltitudeMeters>
            <DistanceMeters>29492.513485075</DistanceMeters>
          </Trackpoint>
          <Trackpoint>
            <Time>2021-10-09T07:56:00.000Z</Time>
            <Position>
              <LatitudeDegrees>39.58814199082553386688232421875</LatitudeDegrees>
              <LongitudeDegrees>-0.6139965355396270751953125</LongitudeDegrees>
            </Position>
            <AltitudeMeters>133</AltitudeMeters>
            <DistanceMeters>29497.878919233</DistanceMeters>
          </Trackpoint>
          <Trackpoint>
            <Time>2021-10-09T07:56:01.000Z</Time>
            <Position>
              <LatitudeDegrees>39.5881851576268672943115234375</LatitudeDegrees>
              <LongitudeDegrees>-0.61396493576467037200927734375</LongitudeDegrees>
            </Position>
            <AltitudeMeters>133</AltitudeMeters>
            <DistanceMeters>29503.395381651</DistanceMeters>
          </Trackpoint>
          <Trackpoint>
            <Time>2021-10-09T07:56:02.000Z</Time>
            <Position>
              <LatitudeDegrees>39.5882274024188518524169921875</LatitudeDegrees>
              <LongitudeDegrees>-0.6139306537806987762451171875</LongitudeDegrees>
            </Position>
            <AltitudeMeters>133.1999969482421875</AltitudeMeters>
            <DistanceMeters>29508.941230583</DistanceMeters>
          </Trackpoint>
          <Trackpoint>
            <Time>2021-10-09T07:56:03.000Z</Time>
            <Position>
              <LatitudeDegrees>39.5882699824869632720947265625</LatitudeDegrees>
              <LongitudeDegrees>-0.61389603652060031890869140625</LongitudeDegrees>
            </Position>
            <AltitudeMeters>133.399993896484375</AltitudeMeters>
            <DistanceMeters>29514.534099685</DistanceMeters>
          </Trackpoint>
          <Trackpoint>
            <Time>2021-10-09T07:56:04.000Z</Time>
            <Position>
              <LatitudeDegrees>39.58831281401216983795166015625</LatitudeDegrees>
              <LongitudeDegrees>-0.6138612516224384307861328125</LongitudeDegrees>
            </Position>
            <AltitudeMeters>133.399993896484375</AltitudeMeters>
            <DistanceMeters>29520.159167495</DistanceMeters>
          </Trackpoint>
          <Trackpoint>
            <Time>2021-10-09T07:56:05.000Z</Time>
            <Position>
              <LatitudeDegrees>39.58835505880415439605712890625</LatitudeDegrees>
              <LongitudeDegrees>-0.6138267181813716888427734375</LongitudeDegrees>
            </Position>
            <AltitudeMeters>133.600006103515625</AltitudeMeters>
            <DistanceMeters>29525.716402548</DistanceMeters>
          </Trackpoint>
          <Trackpoint>
            <Time>2021-10-09T07:56:06.000Z</Time>
            <Position>
              <LatitudeDegrees>39.5883970521390438079833984375</LatitudeDegrees>
              <LongitudeDegrees>-0.613792352378368377685546875</LongitudeDegrees>
            </Position>
            <AltitudeMeters>133.8000030517578125</AltitudeMeters>
            <DistanceMeters>29531.242677834</DistanceMeters>
          </Trackpoint>
          <Trackpoint>
            <Time>2021-10-09T07:56:07.000Z</Time>
            <Position>
              <LatitudeDegrees>39.5884392969310283660888671875</LatitudeDegrees>
              <LongitudeDegrees>-0.61375924386084079742431640625</LongitudeDegrees>
            </Position>
            <AltitudeMeters>134</AltitudeMeters>
            <DistanceMeters>29536.736175397</DistanceMeters>
          </Trackpoint>
          <Trackpoint>
            <Time>2021-10-09T07:56:08.000Z</Time>
            <Position>
              <LatitudeDegrees>39.588482044637203216552734375</LatitudeDegrees>
              <LongitudeDegrees>-0.6137274764478206634521484375</LongitudeDegrees>
            </Position>
            <AltitudeMeters>134.1999969482421875</AltitudeMeters>
            <DistanceMeters>29542.218978009</DistanceMeters>
          </Trackpoint>
          <Trackpoint>
            <Time>2021-10-09T07:56:09.000Z</Time>
            <Position>
              <LatitudeDegrees>39.588525295257568359375</LatitudeDegrees>
              <LongitudeDegrees>-0.61369420029222965240478515625</LongitudeDegrees>
            </Position>
            <AltitudeMeters>134.399993896484375</AltitudeMeters>
            <DistanceMeters>29547.815075319</DistanceMeters>
          </Trackpoint>
          <Trackpoint>
            <Time>2021-10-09T07:56:10.000Z</Time>
            <Position>
              <LatitudeDegrees>39.588565863668918609619140625</LatitudeDegrees>
              <LongitudeDegrees>-0.6136590801179409027099609375</LongitudeDegrees>
            </Position>
            <AltitudeMeters>134.399993896484375</AltitudeMeters>
            <DistanceMeters>29553.244087155</DistanceMeters>
          </Trackpoint>
          <Trackpoint>
            <Time>2021-10-09T07:56:11.000Z</Time>
            <Position>
              <LatitudeDegrees>39.588614813983440399169921875</LatitudeDegrees>
              <LongitudeDegrees>-0.6136183440685272216796875</LongitudeDegrees>
            </Position>
            <AltitudeMeters>134.8000030517578125</AltitudeMeters>
            <DistanceMeters>29559.716376134</DistanceMeters>
          </Trackpoint>
          <Trackpoint>
            <Time>2021-10-09T07:56:12.000Z</Time>
            <Position>
              <LatitudeDegrees>39.58864800631999969482421875</LatitudeDegrees>
              <LongitudeDegrees>-0.61359353363513946533203125</LongitudeDegrees>
            </Position>
            <AltitudeMeters>135</AltitudeMeters>
            <DistanceMeters>29563.978830099</DistanceMeters>
          </Trackpoint>
          <Trackpoint>
            <Time>2021-10-09T07:56:13.000Z</Time>
            <Position>
              <LatitudeDegrees>39.58868949674069881439208984375</LatitudeDegrees>
              <LongitudeDegrees>-0.6135625205934047698974609375</LongitudeDegrees>
            </Position>
            <AltitudeMeters>135.1999969482421875</AltitudeMeters>
            <DistanceMeters>29569.307109403</DistanceMeters>
          </Trackpoint>
          <Trackpoint>
            <Time>2021-10-09T07:56:14.000Z</Time>
            <Position>
              <LatitudeDegrees>39.58872981369495391845703125</LatitudeDegrees>
              <LongitudeDegrees>-0.6135316751897335052490234375</LongitudeDegrees>
            </Position>
            <AltitudeMeters>135.399993896484375</AltitudeMeters>
            <DistanceMeters>29574.515405635</DistanceMeters>
          </Trackpoint>
          <Trackpoint>
            <Time>2021-10-09T07:56:15.000Z</Time>
            <Position>
              <LatitudeDegrees>39.5887722261250019073486328125</LatitudeDegrees>
              <LongitudeDegrees>-0.6135025061666965484619140625</LongitudeDegrees>
            </Position>
            <AltitudeMeters>135.399993896484375</AltitudeMeters>
            <DistanceMeters>29579.858915877</DistanceMeters>
          </Trackpoint>
          <Trackpoint>
            <Time>2021-10-09T07:56:16.000Z</Time>
            <Position>
              <LatitudeDegrees>39.5888163149356842041015625</LatitudeDegrees>
              <LongitudeDegrees>-0.6134723313152790069580078125</LongitudeDegrees>
            </Position>
            <AltitudeMeters>135.600006103515625</AltitudeMeters>
            <DistanceMeters>29585.406392828</DistanceMeters>
          </Trackpoint>
          <Trackpoint>
            <Time>2021-10-09T07:56:17.000Z</Time>
            <Position>
              <LatitudeDegrees>39.58886015228927135467529296875</LatitudeDegrees>
              <LongitudeDegrees>-0.6134411506354808807373046875</LongitudeDegrees>
            </Position>
            <AltitudeMeters>135.8000030517578125</AltitudeMeters>
            <DistanceMeters>29590.970123775</DistanceMeters>
          </Trackpoint>
          <Trackpoint>
            <Time>2021-10-09T07:56:18.000Z</Time>
            <Position>
              <LatitudeDegrees>39.5889036543667316436767578125</LatitudeDegrees>
              <LongitudeDegrees>-0.61341114342212677001953125</LongitudeDegrees>
            </Position>
            <AltitudeMeters>136</AltitudeMeters>
            <DistanceMeters>29596.453749816</DistanceMeters>
          </Trackpoint>
          <Trackpoint>
            <Time>2021-10-09T07:56:19.000Z</Time>
            <Position>
              <LatitudeDegrees>39.588948749005794525146484375</LatitudeDegrees>
              <LongitudeDegrees>-0.61338440515100955963134765625</LongitudeDegrees>
            </Position>
            <AltitudeMeters>136.1999969482421875</AltitudeMeters>
            <DistanceMeters>29601.971848925</DistanceMeters>
          </Trackpoint>
          <Trackpoint>
            <Time>2021-10-09T07:56:20.000Z</Time>
            <Position>
              <LatitudeDegrees>39.5889938436448574066162109375</LatitudeDegrees>
              <LongitudeDegrees>-0.61335607431828975677490234375</LongitudeDegrees>
            </Position>
            <AltitudeMeters>136.399993896484375</AltitudeMeters>
            <DistanceMeters>29607.548548959</DistanceMeters>
          </Trackpoint>
          <Trackpoint>
            <Time>2021-10-09T07:56:21.000Z</Time>
            <Position>
              <LatitudeDegrees>39.589039273560047149658203125</LatitudeDegrees>
              <LongitudeDegrees>-0.6133295036852359771728515625</LongitudeDegrees>
            </Position>
            <AltitudeMeters>136.600006103515625</AltitudeMeters>
            <DistanceMeters>29613.09439789</DistanceMeters>
          </Trackpoint>
          <Trackpoint>
            <Time>2021-10-09T07:56:22.000Z</Time>
            <Position>
              <LatitudeDegrees>39.589086212217807769775390625</LatitudeDegrees>
              <LongitudeDegrees>-0.61330645345151424407958984375</LongitudeDegrees>
            </Position>
            <AltitudeMeters>136.600006103515625</AltitudeMeters>
            <DistanceMeters>29618.680804982</DistanceMeters>
          </Trackpoint>
          <Trackpoint>
            <Time>2021-10-09T07:56:23.000Z</Time>
            <Position>
              <LatitudeDegrees>39.5891333185136318206787109375</LatitudeDegrees>
              <LongitudeDegrees>-0.6132862530648708343505859375</LongitudeDegrees>
            </Position>
            <AltitudeMeters>136.8000030517578125</AltitudeMeters>
            <DistanceMeters>29624.203811249</DistanceMeters>
          </Trackpoint>
          <Trackpoint>
            <Time>2021-10-09T07:56:24.000Z</Time>
            <Position>
              <LatitudeDegrees>39.58917916752398014068603515625</LatitudeDegrees>
              <LongitudeDegrees>-0.61326253227889537811279296875</LongitudeDegrees>
            </Position>
            <AltitudeMeters>137</AltitudeMeters>
            <DistanceMeters>29629.696486863</DistanceMeters>
          </Trackpoint>
          <Trackpoint>
            <Time>2021-10-09T07:56:25.000Z</Time>
            <Position>
              <LatitudeDegrees>39.589224345982074737548828125</LatitudeDegrees>
              <LongitudeDegrees>-0.6132406555116176605224609375</LongitudeDegrees>
            </Position>
            <AltitudeMeters>137.1999969482421875</AltitudeMeters>
            <DistanceMeters>29635.063603766</DistanceMeters>
          </Trackpoint>
          <Trackpoint>
            <Time>2021-10-09T07:56:26.000Z</Time>
            <Position>
              <LatitudeDegrees>39.58927036263048648834228515625</LatitudeDegrees>
              <LongitudeDegrees>-0.61322011984884738922119140625</LongitudeDegrees>
            </Position>
            <AltitudeMeters>137.399993896484375</AltitudeMeters>
            <DistanceMeters>29640.480126485</DistanceMeters>
          </Trackpoint>
          <Trackpoint>
            <Time>2021-10-09T07:56:27.000Z</Time>
            <Position>
              <LatitudeDegrees>39.58931612782180309295654296875</LatitudeDegrees>
              <LongitudeDegrees>-0.6132000871002674102783203125</LongitudeDegrees>
            </Position>
            <AltitudeMeters>137.600006103515625</AltitudeMeters>
            <DistanceMeters>29645.856489075</DistanceMeters>
          </Trackpoint>
          <Trackpoint>
            <Time>2021-10-09T07:56:28.000Z</Time>
            <Position>
              <LatitudeDegrees>39.58936206065118312835693359375</LatitudeDegrees>
              <LongitudeDegrees>-0.6131836585700511932373046875</LongitudeDegrees>
            </Position>
            <AltitudeMeters>138</AltitudeMeters>
            <DistanceMeters>29651.160137642</DistanceMeters>
          </Trackpoint>
          <Trackpoint>
            <Time>2021-10-09T07:56:29.000Z</Time>
            <Position>
              <LatitudeDegrees>39.589408077299594879150390625</LatitudeDegrees>
              <LongitudeDegrees>-0.61316840350627899169921875</LongitudeDegrees>
            </Position>
            <AltitudeMeters>138.1999969482421875</AltitudeMeters>
            <DistanceMeters>29656.44587851</DistanceMeters>
          </Trackpoint>
          <Trackpoint>
            <Time>2021-10-09T07:56:30.000Z</Time>
            <Position>
              <LatitudeDegrees>39.58945509977638721466064453125</LatitudeDegrees>
              <LongitudeDegrees>-0.6131543219089508056640625</LongitudeDegrees>
            </Position>
            <AltitudeMeters>138.399993896484375</AltitudeMeters>
            <DistanceMeters>29661.818040487</DistanceMeters>
          </Trackpoint>
          <Trackpoint>
            <Time>2021-10-09T07:56:31.000Z</Time>
            <Position>
              <LatitudeDegrees>39.58950363099575042724609375</LatitudeDegrees>
              <LongitudeDegrees>-0.6131422519683837890625</LongitudeDegrees>
            </Position>
            <AltitudeMeters>138.600006103515625</AltitudeMeters>
            <DistanceMeters>29667.318109222</DistanceMeters>
          </Trackpoint>
          <Trackpoint>
            <Time>2021-10-09T07:56:32.000Z</Time>
            <Position>
              <LatitudeDegrees>39.58955015055835247039794921875</LatitudeDegrees>
              <LongitudeDegrees>-0.6131300143897533416748046875</LongitudeDegrees>
            </Position>
            <AltitudeMeters>138.8000030517578125</AltitudeMeters>
            <DistanceMeters>29672.600432216</DistanceMeters>
          </Trackpoint>
          <Trackpoint>
            <Time>2021-10-09T07:56:33.000Z</Time>
            <Position>
              <LatitudeDegrees>39.5895986817777156829833984375</LatitudeDegrees>
              <LongitudeDegrees>-0.6131176091730594635009765625</LongitudeDegrees>
            </Position>
            <AltitudeMeters>138.8000030517578125</AltitudeMeters>
            <DistanceMeters>29678.103783594</DistanceMeters>
          </Trackpoint>
          <Trackpoint>
            <Time>2021-10-09T07:56:34.000Z</Time>
            <Position>
              <LatitudeDegrees>39.58964847028255462646484375</LatitudeDegrees>
              <LongitudeDegrees>-0.61310696415603160858154296875</LongitudeDegrees>
            </Position>
            <AltitudeMeters>139.1999969482421875</AltitudeMeters>
            <DistanceMeters>29683.719211177</DistanceMeters>
          </Trackpoint>
          <Trackpoint>
            <Time>2021-10-09T07:56:35.000Z</Time>
            <Position>
              <LatitudeDegrees>39.58970018662512302398681640625</LatitudeDegrees>
              <LongitudeDegrees>-0.61309858225286006927490234375</LongitudeDegrees>
            </Position>
            <AltitudeMeters>139.1999969482421875</AltitudeMeters>
            <DistanceMeters>29689.519733984</DistanceMeters>
          </Trackpoint>
          <Trackpoint>
            <Time>2021-10-09T07:56:36.000Z</Time>
            <Position>
              <LatitudeDegrees>39.58975039422512054443359375</LatitudeDegrees>
              <LongitudeDegrees>-0.613090954720973968505859375</LongitudeDegrees>
            </Position>
            <AltitudeMeters>139.399993896484375</AltitudeMeters>
            <DistanceMeters>29695.14720927</DistanceMeters>
          </Trackpoint>
          <Trackpoint>
            <Time>2021-10-09T07:56:37.000Z</Time>
            <Position>
              <LatitudeDegrees>39.5898020267486572265625</LatitudeDegrees>
              <LongitudeDegrees>-0.61308366246521472930908203125</LongitudeDegrees>
            </Position>
            <AltitudeMeters>139.600006103515625</AltitudeMeters>
            <DistanceMeters>29700.927458645</DistanceMeters>
          </Trackpoint>
          <Trackpoint>
            <Time>2021-10-09T07:56:38.000Z</Time>
            <Position>
              <LatitudeDegrees>39.58985541947185993194580078125</LatitudeDegrees>
              <LongitudeDegrees>-0.6130783818662166595458984375</LongitudeDegrees>
            </Position>
            <AltitudeMeters>139.600006103515625</AltitudeMeters>
            <DistanceMeters>29706.88768689</DistanceMeters>
          </Trackpoint>
          <Trackpoint>
            <Time>2021-10-09T07:56:39.000Z</Time>
            <Position>
              <LatitudeDegrees>39.58991132676601409912109375</LatitudeDegrees>
              <LongitudeDegrees>-0.613072849810123443603515625</LongitudeDegrees>
            </Position>
            <AltitudeMeters>139.8000030517578125</AltitudeMeters>
            <DistanceMeters>29713.12914103</DistanceMeters>
          </Trackpoint>
          <Trackpoint>
            <Time>2021-10-09T07:56:40.000Z</Time>
            <Position>
              <LatitudeDegrees>39.58996941335499286651611328125</LatitudeDegrees>
              <LongitudeDegrees>-0.6130676530301570892333984375</LongitudeDegrees>
            </Position>
            <AltitudeMeters>139.8000030517578125</AltitudeMeters>
            <DistanceMeters>29719.609099013</DistanceMeters>
          </Trackpoint>
          <Trackpoint>
            <Time>2021-10-09T07:56:41.000Z</Time>
            <Position>
              <LatitudeDegrees>39.59002741612493991851806640625</LatitudeDegrees>
              <LongitudeDegrees>-0.6130631268024444580078125</LongitudeDegrees>
            </Position>
            <AltitudeMeters>140</AltitudeMeters>
            <DistanceMeters>29726.076502981</DistanceMeters>
          </Trackpoint>
          <Trackpoint>
            <Time>2021-10-09T07:56:42.000Z</Time>
            <Position>
              <LatitudeDegrees>39.59008592180907726287841796875</LatitudeDegrees>
              <LongitudeDegrees>-0.61305834911763668060302734375</LongitudeDegrees>
            </Position>
            <AltitudeMeters>140.1999969482421875</AltitudeMeters>
            <DistanceMeters>29732.600901831</DistanceMeters>
          </Trackpoint>
          <Trackpoint>
            <Time>2021-10-09T07:56:43.000Z</Time>
            <Position>
              <LatitudeDegrees>39.59015666507184505462646484375</LatitudeDegrees>
              <LongitudeDegrees>-0.6130529008805751800537109375</LongitudeDegrees>
            </Position>
            <AltitudeMeters>140.1999969482421875</AltitudeMeters>
            <DistanceMeters>29740.488691553</DistanceMeters>
          </Trackpoint>
          <Trackpoint>
            <Time>2021-10-09T07:56:44.000Z</Time>
            <Position>
              <LatitudeDegrees>39.59020377136766910552978515625</LatitudeDegrees>
              <LongitudeDegrees>-0.61305080540478229522705078125</LongitudeDegrees>
            </Position>
            <AltitudeMeters>140.600006103515625</AltitudeMeters>
            <DistanceMeters>29745.734992441</DistanceMeters>
          </Trackpoint>
          <Trackpoint>
            <Time>2021-10-09T07:56:45.000Z</Time>
            <Position>
              <LatitudeDegrees>39.59026177413761615753173828125</LatitudeDegrees>
              <LongitudeDegrees>-0.61304694972932338714599609375</LongitudeDegrees>
            </Position>
            <AltitudeMeters>140.399993896484375</AltitudeMeters>
            <DistanceMeters>29752.199603317</DistanceMeters>
          </Trackpoint>
          <Trackpoint>
            <Time>2021-10-09T07:56:46.000Z</Time>
            <Position>
              <LatitudeDegrees>39.59032011218369007110595703125</LatitudeDegrees>
              <LongitudeDegrees>-0.6130428425967693328857421875</LongitudeDegrees>
            </Position>
            <AltitudeMeters>140.600006103515625</AltitudeMeters>
            <DistanceMeters>29758.702514049</DistanceMeters>
          </Trackpoint>
          <Trackpoint>
            <Time>2021-10-09T07:56:47.000Z</Time>
            <Position>
              <LatitudeDegrees>39.5903795398771762847900390625</LatitudeDegrees>
              <LongitudeDegrees>-0.6130388192832469940185546875</LongitudeDegrees>
            </Position>
            <AltitudeMeters>140.600006103515625</AltitudeMeters>
            <DistanceMeters>29765.325814689</DistanceMeters>
          </Trackpoint>
          <Trackpoint>
            <Time>2021-10-09T07:56:48.000Z</Time>
            <Position>
              <LatitudeDegrees>39.59043745882809162139892578125</LatitudeDegrees>
              <LongitudeDegrees>-0.61303303577005863189697265625</LongitudeDegrees>
            </Position>
            <AltitudeMeters>140.8000030517578125</AltitudeMeters>
            <DistanceMeters>29771.791822262</DistanceMeters>
          </Trackpoint>
          <Trackpoint>
            <Time>2021-10-09T07:56:49.000Z</Time>
            <Position>
              <LatitudeDegrees>39.5904953777790069580078125</LatitudeDegrees>
              <LongitudeDegrees>-0.6130282580852508544921875</LongitudeDegrees>
            </Position>
            <AltitudeMeters>140.8000030517578125</AltitudeMeters>
            <DistanceMeters>29778.250843331</DistanceMeters>
          </Trackpoint>
          <Trackpoint>
            <Time>2021-10-09T07:56:50.000Z</Time>
            <Position>
              <LatitudeDegrees>39.59055396728217601776123046875</LatitudeDegrees>
              <LongitudeDegrees>-0.6130274198949337005615234375</LongitudeDegrees>
            </Position>
            <AltitudeMeters>140.8000030517578125</AltitudeMeters>
            <DistanceMeters>29784.772473499</DistanceMeters>
          </Trackpoint>
          <Trackpoint>
            <Time>2021-10-09T07:56:51.000Z</Time>
            <Position>
              <LatitudeDegrees>39.5906108804047107696533203125</LatitudeDegrees>
              <LongitudeDegrees>-0.6130233965814113616943359375</LongitudeDegrees>
            </Position>
            <AltitudeMeters>141.1999969482421875</AltitudeMeters>
            <DistanceMeters>29791.115818093</DistanceMeters>
          </Trackpoint>
          <Trackpoint>
            <Time>2021-10-09T07:56:52.000Z</Time>
            <Position>
              <LatitudeDegrees>39.59066511131823062896728515625</LatitudeDegrees>
              <LongitudeDegrees>-0.613013841211795806884765625</LongitudeDegrees>
            </Position>
            <AltitudeMeters>141</AltitudeMeters>
            <DistanceMeters>29797.206430052</DistanceMeters>
          </Trackpoint>
          <Trackpoint>
            <Time>2021-10-09T07:56:53.000Z</Time>
            <Position>
              <LatitudeDegrees>39.59072009660303592681884765625</LatitudeDegrees>
              <LongitudeDegrees>-0.61300705187022686004638671875</LongitudeDegrees>
            </Position>
            <AltitudeMeters>141.1999969482421875</AltitudeMeters>
            <DistanceMeters>29803.353123459</DistanceMeters>
          </Trackpoint>
          <Trackpoint>
            <Time>2021-10-09T07:56:54.000Z</Time>
            <Position>
              <LatitudeDegrees>39.59077474661171436309814453125</LatitudeDegrees>
              <LongitudeDegrees>-0.61299984343349933624267578125</LongitudeDegrees>
            </Position>
            <AltitudeMeters>141.399993896484375</AltitudeMeters>
            <DistanceMeters>29809.467411355</DistanceMeters>
          </Trackpoint>
          <Trackpoint>
            <Time>2021-10-09T07:56:55.000Z</Time>
            <Position>
              <LatitudeDegrees>39.5908318273723125457763671875</LatitudeDegrees>
              <LongitudeDegrees>-0.61299012042582035064697265625</LongitudeDegrees>
            </Position>
            <AltitudeMeters>141.8000030517578125</AltitudeMeters>
            <DistanceMeters>29815.875904756</DistanceMeters>
          </Trackpoint>
          <Trackpoint>
            <Time>2021-10-09T07:56:56.000Z</Time>
            <Position>
              <LatitudeDegrees>39.59089033305644989013671875</LatitudeDegrees>
              <LongitudeDegrees>-0.6129801459610462188720703125</LongitudeDegrees>
            </Position>
            <AltitudeMeters>142</AltitudeMeters>
            <DistanceMeters>29822.443756396</DistanceMeters>
          </Trackpoint>
          <Trackpoint>
            <Time>2021-10-09T07:56:57.000Z</Time>
            <Position>
              <LatitudeDegrees>39.5909474976360797882080078125</LatitudeDegrees>
              <LongitudeDegrees>-0.61297000385820865631103515625</LongitudeDegrees>
            </Position>
            <AltitudeMeters>142.1999969482421875</AltitudeMeters>
            <DistanceMeters>29828.866325135</DistanceMeters>
          </Trackpoint>
          <Trackpoint>
            <Time>2021-10-09T07:56:58.000Z</Time>
            <Position>
              <LatitudeDegrees>39.5910023152828216552734375</LatitudeDegrees>
              <LongitudeDegrees>-0.61296011321246623992919921875</LongitudeDegrees>
            </Position>
            <AltitudeMeters>142.600006103515625</AltitudeMeters>
            <DistanceMeters>29835.026226207</DistanceMeters>
          </Trackpoint>
          <Trackpoint>
            <Time>2021-10-09T07:56:59.000Z</Time>
            <Position>
              <LatitudeDegrees>39.5910557918250560760498046875</LatitudeDegrees>
              <LongitudeDegrees>-0.6129466183483600616455078125</LongitudeDegrees>
            </Position>
            <AltitudeMeters>142.600006103515625</AltitudeMeters>
            <DistanceMeters>29841.090092241</DistanceMeters>
          </Trackpoint>
          <Trackpoint>
            <Time>2021-10-09T07:57:00.000Z</Time>
            <Position>
              <LatitudeDegrees>39.591109938919544219970703125</LatitudeDegrees>
              <LongitudeDegrees>-0.61293345876038074493408203125</LongitudeDegrees>
            </Position>
            <AltitudeMeters>142.8000030517578125</AltitudeMeters>
            <DistanceMeters>29847.2220771</DistanceMeters>
          </Trackpoint>
          <Trackpoint>
            <Time>2021-10-09T07:57:01.000Z</Time>
            <Position>
              <LatitudeDegrees>39.591164924204349517822265625</LatitudeDegrees>
              <LongitudeDegrees>-0.6129194609820842742919921875</LongitudeDegrees>
            </Position>
            <AltitudeMeters>143</AltitudeMeters>
            <DistanceMeters>29853.459189358</DistanceMeters>
          </Trackpoint>
          <Trackpoint>
            <Time>2021-10-09T07:57:02.000Z</Time>
            <Position>
              <LatitudeDegrees>39.5912210829555988311767578125</LatitudeDegrees>
              <LongitudeDegrees>-0.6129043735563755035400390625</LongitudeDegrees>
            </Position>
            <AltitudeMeters>143</AltitudeMeters>
            <DistanceMeters>29859.842268937</DistanceMeters>
          </Trackpoint>
          <Trackpoint>
            <Time>2021-10-09T07:57:03.000Z</Time>
            <Position>
              <LatitudeDegrees>39.59127581678330898284912109375</LatitudeDegrees>
              <LongitudeDegrees>-0.61288702301681041717529296875</LongitudeDegrees>
            </Position>
            <AltitudeMeters>143.1999969482421875</AltitudeMeters>
            <DistanceMeters>29866.113312145</DistanceMeters>
          </Trackpoint>
          <Trackpoint>
            <Time>2021-10-09T07:57:04.000Z</Time>
            <Position>
              <LatitudeDegrees>39.591328538954257965087890625</LatitudeDegrees>
              <LongitudeDegrees>-0.61286958865821361541748046875</LongitudeDegrees>
            </Position>
            <AltitudeMeters>143.1999969482421875</AltitudeMeters>
            <DistanceMeters>29872.169727794</DistanceMeters>
          </Trackpoint>
          <Trackpoint>
            <Time>2021-10-09T07:57:05.000Z</Time>
            <Position>
              <LatitudeDegrees>39.591380842030048370361328125</LatitudeDegrees>
              <LongitudeDegrees>-0.61285064555704593658447265625</LongitudeDegrees>
            </Position>
            <AltitudeMeters>143.600006103515625</AltitudeMeters>
            <DistanceMeters>29878.213456711</DistanceMeters>
          </Trackpoint>
          <Trackpoint>
            <Time>2021-10-09T07:57:06.000Z</Time>
            <Position>
              <LatitudeDegrees>39.59143339656293392181396484375</LatitudeDegrees>
              <LongitudeDegrees>-0.61283203773200511932373046875</LongitudeDegrees>
            </Position>
            <AltitudeMeters>143.8000030517578125</AltitudeMeters>
            <DistanceMeters>29884.277322745</DistanceMeters>
          </Trackpoint>
          <Trackpoint>
            <Time>2021-10-09T07:57:07.000Z</Time>
            <Position>
              <LatitudeDegrees>39.591486118733882904052734375</LatitudeDegrees>
              <LongitudeDegrees>-0.6128125078976154327392578125</LongitudeDegrees>
            </Position>
            <AltitudeMeters>144</AltitudeMeters>
            <DistanceMeters>29890.379784154</DistanceMeters>
          </Trackpoint>
          <Trackpoint>
            <Time>2021-10-09T07:57:08.000Z</Time>
            <Position>
              <LatitudeDegrees>39.591538421809673309326171875</LatitudeDegrees>
              <LongitudeDegrees>-0.61279063113033771514892578125</LongitudeDegrees>
            </Position>
            <AltitudeMeters>143.8000030517578125</AltitudeMeters>
            <DistanceMeters>29896.4970251</DistanceMeters>
          </Trackpoint>
          <Trackpoint>
            <Time>2021-10-09T07:57:09.000Z</Time>
            <Position>
              <LatitudeDegrees>39.59159131161868572235107421875</LatitudeDegrees>
              <LongitudeDegrees>-0.612767077982425689697265625</LongitudeDegrees>
            </Position>
            <AltitudeMeters>144.1999969482421875</AltitudeMeters>
            <DistanceMeters>29902.72109354</DistanceMeters>
          </Trackpoint>
          <Trackpoint>
            <Time>2021-10-09T07:57:10.000Z</Time>
            <Position>
              <LatitudeDegrees>39.5916442014276981353759765625</LatitudeDegrees>
              <LongitudeDegrees>-0.6127439439296722412109375</LongitudeDegrees>
            </Position>
            <AltitudeMeters>144.399993896484375</AltitudeMeters>
            <DistanceMeters>29908.933544483</DistanceMeters>
          </Trackpoint>
          <Trackpoint>
            <Time>2021-10-09T07:57:11.000Z</Time>
            <Position>
              <LatitudeDegrees>39.591696672141551971435546875</LatitudeDegrees>
              <LongitudeDegrees>-0.6127198040485382080078125</LongitudeDegrees>
            </Position>
            <AltitudeMeters>144.399993896484375</AltitudeMeters>
            <DistanceMeters>29915.12925711</DistanceMeters>
          </Trackpoint>
          <Trackpoint>
            <Time>2021-10-09T07:57:12.000Z</Time>
            <Position>
              <LatitudeDegrees>39.59174863994121551513671875</LatitudeDegrees>
              <LongitudeDegrees>-0.612693987786769866943359375</LongitudeDegrees>
            </Position>
            <AltitudeMeters>144.600006103515625</AltitudeMeters>
            <DistanceMeters>29921.322783144</DistanceMeters>
          </Trackpoint>
          <Trackpoint>
            <Time>2021-10-09T07:57:13.000Z</Time>
            <Position>
              <LatitudeDegrees>39.59179960191249847412109375</LatitudeDegrees>
              <LongitudeDegrees>-0.61266825534403324127197265625</LongitudeDegrees>
            </Position>
            <AltitudeMeters>144.399993896484375</AltitudeMeters>
            <DistanceMeters>29927.408945611</DistanceMeters>
          </Trackpoint>
          <Trackpoint>
            <Time>2021-10-09T07:57:14.000Z</Time>
            <Position>
              <LatitudeDegrees>39.591852910816669464111328125</LatitudeDegrees>
              <LongitudeDegrees>-0.6126448698341846466064453125</LongitudeDegrees>
            </Position>
            <AltitudeMeters>144.600006103515625</AltitudeMeters>
            <DistanceMeters>29933.67206401</DistanceMeters>
          </Trackpoint>
          <Trackpoint>
            <Time>2021-10-09T07:57:15.000Z</Time>
            <Position>
              <LatitudeDegrees>39.59190781228244304656982421875</LatitudeDegrees>
              <LongitudeDegrees>-0.61262098141014575958251953125</LongitudeDegrees>
            </Position>
            <AltitudeMeters>145</AltitudeMeters>
            <DistanceMeters>29940.11708935</DistanceMeters>
          </Trackpoint>
          <Trackpoint>
            <Time>2021-10-09T07:57:16.000Z</Time>
            <Position>
              <LatitudeDegrees>39.591962210834026336669921875</LatitudeDegrees>
              <LongitudeDegrees>-0.6125949136912822723388671875</LongitudeDegrees>
            </Position>
            <AltitudeMeters>145</AltitudeMeters>
            <DistanceMeters>29946.571215367</DistanceMeters>
          </Trackpoint>
          <Trackpoint>
            <Time>2021-10-09T07:57:17.000Z</Time>
            <Position>
              <LatitudeDegrees>39.59201727993786334991455078125</LatitudeDegrees>
              <LongitudeDegrees>-0.6125680916011333465576171875</LongitudeDegrees>
            </Position>
            <AltitudeMeters>145.1999969482421875</AltitudeMeters>
            <DistanceMeters>29953.119100747</DistanceMeters>
          </Trackpoint>
          <Trackpoint>
            <Time>2021-10-09T07:57:18.000Z</Time>
            <Position>
              <LatitudeDegrees>39.5920716784894466400146484375</LatitudeDegrees>
              <LongitudeDegrees>-0.61254051513969898223876953125</LongitudeDegrees>
            </Position>
            <AltitudeMeters>145.1999969482421875</AltitudeMeters>
            <DistanceMeters>29959.619233644</DistanceMeters>
          </Trackpoint>
          <Trackpoint>
            <Time>2021-10-09T07:57:19.000Z</Time>
            <Position>
              <LatitudeDegrees>39.5921263284981250762939453125</LatitudeDegrees>
              <LongitudeDegrees>-0.61251570470631122589111328125</LongitudeDegrees>
            </Position>
            <AltitudeMeters>145.1999969482421875</AltitudeMeters>
            <DistanceMeters>29966.06285774</DistanceMeters>
          </Trackpoint>
          <Trackpoint>
            <Time>2021-10-09T07:57:20.000Z</Time>
            <Position>
              <LatitudeDegrees>39.59217988885939121246337890625</LatitudeDegrees>
              <LongitudeDegrees>-0.61248988844454288482666015625</LongitudeDegrees>
            </Position>
            <AltitudeMeters>145.399993896484375</AltitudeMeters>
            <DistanceMeters>29972.421132053</DistanceMeters>
          </Trackpoint>
          <Trackpoint>
            <Time>2021-10-09T07:57:21.000Z</Time>
            <Position>
              <LatitudeDegrees>39.59223336540162563323974609375</LatitudeDegrees>
              <LongitudeDegrees>-0.61246457509696483612060546875</LongitudeDegrees>
            </Position>
            <AltitudeMeters>145.399993896484375</AltitudeMeters>
            <DistanceMeters>29978.757354893</DistanceMeters>
          </Trackpoint>
          <Trackpoint>
            <Time>2021-10-09T07:57:22.000Z</Time>
            <Position>
              <LatitudeDegrees>39.59228768013417720794677734375</LatitudeDegrees>
              <LongitudeDegrees>-0.61244026757776737213134765625</LongitudeDegrees>
            </Position>
            <AltitudeMeters>145.399993896484375</AltitudeMeters>
            <DistanceMeters>29985.152448028</DistanceMeters>
          </Trackpoint>
          <Trackpoint>
            <Time>2021-10-09T07:57:23.000Z</Time>
            <Position>
              <LatitudeDegrees>39.59234274923801422119140625</LatitudeDegrees>
              <LongitudeDegrees>-0.6124167144298553466796875</LongitudeDegrees>
            </Position>
            <AltitudeMeters>145.600006103515625</AltitudeMeters>
            <DistanceMeters>29991.605874448</DistanceMeters>
          </Trackpoint>
          <Trackpoint>
            <Time>2021-10-09T07:57:24.000Z</Time>
            <Position>
              <LatitudeDegrees>39.5923952199518680572509765625</LatitudeDegrees>
              <LongitudeDegrees>-0.612389557063579559326171875</LongitudeDegrees>
            </Position>
            <AltitudeMeters>145.600006103515625</AltitudeMeters>
            <DistanceMeters>29997.893455436</DistanceMeters>
          </Trackpoint>
          <Trackpoint>
            <Time>2021-10-09T07:57:25.000Z</Time>
            <Position>
              <LatitudeDegrees>39.59244760684669017791748046875</LatitudeDegrees>
              <LongitudeDegrees>-0.61236248351633548736572265625</LongitudeDegrees>
            </Position>
            <AltitudeMeters>145.8000030517578125</AltitudeMeters>
            <DistanceMeters>30004.169536494</DistanceMeters>
          </Trackpoint>
          <Trackpoint>
            <Time>2021-10-09T07:57:26.000Z</Time>
            <Position>
              <LatitudeDegrees>39.592500664293766021728515625</LatitudeDegrees>
              <LongitudeDegrees>-0.6123360805213451385498046875</LongitudeDegrees>
            </Position>
            <AltitudeMeters>145.600006103515625</AltitudeMeters>
            <DistanceMeters>30010.494347847</DistanceMeters>
          </Trackpoint>
          <Trackpoint>
            <Time>2021-10-09T07:57:27.000Z</Time>
            <Position>
              <LatitudeDegrees>39.59255187772214412689208984375</LatitudeDegrees>
              <LongitudeDegrees>-0.612310431897640228271484375</LongitudeDegrees>
            </Position>
            <AltitudeMeters>145.600006103515625</AltitudeMeters>
            <DistanceMeters>30016.604203493</DistanceMeters>
          </Trackpoint>
          <Trackpoint>
            <Time>2021-10-09T07:57:28.000Z</Time>
            <Position>
              <LatitudeDegrees>39.59260317496955394744873046875</LatitudeDegrees>
              <LongitudeDegrees>-0.6122851185500621795654296875</LongitudeDegrees>
            </Position>
            <AltitudeMeters>145.8000030517578125</AltitudeMeters>
            <DistanceMeters>30022.712581008</DistanceMeters>
          </Trackpoint>
          <Trackpoint>
            <Time>2021-10-09T07:57:29.000Z</Time>
            <Position>
              <LatitudeDegrees>39.592666290700435638427734375</LatitudeDegrees>
              <LongitudeDegrees>-0.6122569553554058074951171875</LongitudeDegrees>
            </Position>
            <AltitudeMeters>145.8000030517578125</AltitudeMeters>
            <DistanceMeters>30030.141093453</DistanceMeters>
          </Trackpoint>
          <Trackpoint>
            <Time>2021-10-09T07:57:30.000Z</Time>
            <Position>
              <LatitudeDegrees>39.59270744584500789642333984375</LatitudeDegrees>
              <LongitudeDegrees>-0.61223675496876239776611328125</LongitudeDegrees>
            </Position>
            <AltitudeMeters>145.8000030517578125</AltitudeMeters>
            <DistanceMeters>30035.039349583</DistanceMeters>
          </Trackpoint>
          <Trackpoint>
            <Time>2021-10-09T07:57:31.000Z</Time>
            <Position>
              <LatitudeDegrees>39.59275874309241771697998046875</LatitudeDegrees>
              <LongitudeDegrees>-0.61221127398312091827392578125</LongitudeDegrees>
            </Position>
            <AltitudeMeters>146</AltitudeMeters>
            <DistanceMeters>30041.152898994</DistanceMeters>
          </Trackpoint>
          <Trackpoint>
            <Time>2021-10-09T07:57:32.000Z</Time>
            <Position>
              <LatitudeDegrees>39.59280786104500293731689453125</LatitudeDegrees>
              <LongitudeDegrees>-0.61218763701617717742919921875</LongitudeDegrees>
            </Position>
            <AltitudeMeters>146</AltitudeMeters>
            <DistanceMeters>30046.984474072</DistanceMeters>
          </Trackpoint>
          <Trackpoint>
            <Time>2021-10-09T07:57:33.000Z</Time>
            <Position>
              <LatitudeDegrees>39.59285773336887359619140625</LatitudeDegrees>
              <LongitudeDegrees>-0.61216257512569427490234375</LongitudeDegrees>
            </Position>
            <AltitudeMeters>146.1999969482421875</AltitudeMeters>
            <DistanceMeters>30052.937122219</DistanceMeters>
          </Trackpoint>
          <Trackpoint>
            <Time>2021-10-09T07:57:34.000Z</Time>
            <Position>
              <LatitudeDegrees>39.5929091982543468475341796875</LatitudeDegrees>
              <LongitudeDegrees>-0.6121372617781162261962890625</LongitudeDegrees>
            </Position>
            <AltitudeMeters>146.1999969482421875</AltitudeMeters>
            <DistanceMeters>30059.063213771</DistanceMeters>
          </Trackpoint>
          <Trackpoint>
            <Time>2021-10-09T07:57:35.000Z</Time>
            <Position>
              <LatitudeDegrees>39.59296175278723239898681640625</LatitudeDegrees>
              <LongitudeDegrees>-0.61211337335407733917236328125</LongitudeDegrees>
            </Position>
            <AltitudeMeters>146.399993896484375</AltitudeMeters>
            <DistanceMeters>30065.261112221</DistanceMeters>
          </Trackpoint>
          <Trackpoint>
            <Time>2021-10-09T07:57:36.000Z</Time>
            <Position>
              <LatitudeDegrees>39.5930144749581813812255859375</LatitudeDegrees>
              <LongitudeDegrees>-0.61208873055875301361083984375</LongitudeDegrees>
            </Position>
            <AltitudeMeters>146.399993896484375</AltitudeMeters>
            <DistanceMeters>30071.498224479</DistanceMeters>
          </Trackpoint>
          <Trackpoint>
            <Time>2021-10-09T07:57:37.000Z</Time>
            <Position>
              <LatitudeDegrees>39.59306535311043262481689453125</LatitudeDegrees>
              <LongitudeDegrees>-0.61206400394439697265625</LongitudeDegrees>
            </Position>
            <AltitudeMeters>146.600006103515625</AltitudeMeters>
            <DistanceMeters>30077.544194165</DistanceMeters>
          </Trackpoint>
          <Trackpoint>
            <Time>2021-10-09T07:57:38.000Z</Time>
            <Position>
              <LatitudeDegrees>39.5931251160800457000732421875</LatitudeDegrees>
              <LongitudeDegrees>-0.612034834921360015869140625</LongitudeDegrees>
            </Position>
            <AltitudeMeters>146.8000030517578125</AltitudeMeters>
            <DistanceMeters>30084.650896463</DistanceMeters>
          </Trackpoint>
          <Trackpoint>
            <Time>2021-10-09T07:57:39.000Z</Time>
            <Position>
              <LatitudeDegrees>39.5931640081107616424560546875</LatitudeDegrees>
              <LongitudeDegrees>-0.61201413162052631378173828125</LongitudeDegrees>
            </Position>
            <AltitudeMeters>147</AltitudeMeters>
            <DistanceMeters>30089.329454499</DistanceMeters>
          </Trackpoint>
          <Trackpoint>
            <Time>2021-10-09T07:57:40.000Z</Time>
            <Position>
              <LatitudeDegrees>39.5932136289775371551513671875</LatitudeDegrees>
              <LongitudeDegrees>-0.61199091374874114990234375</LongitudeDegrees>
            </Position>
            <AltitudeMeters>147.1999969482421875</AltitudeMeters>
            <DistanceMeters>30095.200383028</DistanceMeters>
          </Trackpoint>
          <Trackpoint>
            <Time>2021-10-09T07:57:41.000Z</Time>
            <Position>
              <LatitudeDegrees>39.59326266311109066009521484375</LatitudeDegrees>
              <LongitudeDegrees>-0.611969120800495147705078125</LongitudeDegrees>
            </Position>
            <AltitudeMeters>147.399993896484375</AltitudeMeters>
            <DistanceMeters>30100.969686432</DistanceMeters>
          </Trackpoint>
          <Trackpoint>
            <Time>2021-10-09T07:57:42.000Z</Time>
            <Position>
              <LatitudeDegrees>39.5933085121214389801025390625</LatitudeDegrees>
              <LongitudeDegrees>-0.6119473278522491455078125</LongitudeDegrees>
            </Position>
            <AltitudeMeters>147.8000030517578125</AltitudeMeters>
            <DistanceMeters>30106.403685877</DistanceMeters>
          </Trackpoint>
          <Trackpoint>
            <Time>2021-10-09T07:57:43.000Z</Time>
            <Position>
              <LatitudeDegrees>39.59335436113178730010986328125</LatitudeDegrees>
              <LongitudeDegrees>-0.6119253672659397125244140625</LongitudeDegrees>
            </Position>
            <AltitudeMeters>148</AltitudeMeters>
            <DistanceMeters>30111.844328356</DistanceMeters>
          </Trackpoint>
          <Trackpoint>
            <Time>2021-10-09T07:57:44.000Z</Time>
            <Position>
              <LatitudeDegrees>39.5934010483324527740478515625</LatitudeDegrees>
              <LongitudeDegrees>-0.61190365813672542572021484375</LongitudeDegrees>
            </Position>
            <AltitudeMeters>148.399993896484375</AltitudeMeters>
            <DistanceMeters>30117.364063669</DistanceMeters>
          </Trackpoint>
          <Trackpoint>
            <Time>2021-10-09T07:57:45.000Z</Time>
            <Position>
              <LatitudeDegrees>39.59344656206667423248291015625</LatitudeDegrees>
              <LongitudeDegrees>-0.6118831224739551544189453125</LongitudeDegrees>
            </Position>
            <AltitudeMeters>148.600006103515625</AltitudeMeters>
            <DistanceMeters>30122.727814553</DistanceMeters>
          </Trackpoint>
          <Trackpoint>
            <Time>2021-10-09T07:57:46.000Z</Time>
            <Position>
              <LatitudeDegrees>39.59349283017218112945556640625</LatitudeDegrees>
              <LongitudeDegrees>-0.611864514648914337158203125</LongitudeDegrees>
            </Position>
            <AltitudeMeters>148.8000030517578125</AltitudeMeters>
            <DistanceMeters>30128.120109626</DistanceMeters>
          </Trackpoint>
          <Trackpoint>
            <Time>2021-10-09T07:57:47.000Z</Time>
            <Position>
              <LatitudeDegrees>39.5935395173728466033935546875</LatitudeDegrees>
              <LongitudeDegrees>-0.61184599064290523529052734375</LongitudeDegrees>
            </Position>
            <AltitudeMeters>148.8000030517578125</AltitudeMeters>
            <DistanceMeters>30133.554939894</DistanceMeters>
          </Trackpoint>
          <Trackpoint>
            <Time>2021-10-09T07:57:48.000Z</Time>
            <Position>
              <LatitudeDegrees>39.5935874618589878082275390625</LatitudeDegrees>
              <LongitudeDegrees>-0.61182687990367412567138671875</LongitudeDegrees>
            </Position>
            <AltitudeMeters>149</AltitudeMeters>
            <DistanceMeters>30139.13730443</DistanceMeters>
          </Trackpoint>
          <Trackpoint>
            <Time>2021-10-09T07:57:49.000Z</Time>
            <Position>
              <LatitudeDegrees>39.59363683126866817474365234375</LatitudeDegrees>
              <LongitudeDegrees>-0.61180793680250644683837890625</LongitudeDegrees>
            </Position>
            <AltitudeMeters>149.1999969482421875</AltitudeMeters>
            <DistanceMeters>30144.867344391</DistanceMeters>
          </Trackpoint>
          <Trackpoint>
            <Time>2021-10-09T07:57:50.000Z</Time>
            <Position>
              <LatitudeDegrees>39.59368645213544368743896484375</LatitudeDegrees>
              <LongitudeDegrees>-0.61179050244390964508056640625</LongitudeDegrees>
            </Position>
            <AltitudeMeters>149.399993896484375</AltitudeMeters>
            <DistanceMeters>30150.589499333</DistanceMeters>
          </Trackpoint>
          <Trackpoint>
            <Time>2021-10-09T07:57:51.000Z</Time>
            <Position>
              <LatitudeDegrees>39.59373347461223602294921875</LatitudeDegrees>
              <LongitudeDegrees>-0.61177038587629795074462890625</LongitudeDegrees>
            </Position>
            <AltitudeMeters>149.8000030517578125</AltitudeMeters>
            <DistanceMeters>30156.101048767</DistanceMeters>
          </Trackpoint>
          <Trackpoint>
            <Time>2021-10-09T07:57:52.000Z</Time>
            <Position>
              <LatitudeDegrees>39.5937799103558063507080078125</LatitudeDegrees>
              <LongitudeDegrees>-0.61175060458481311798095703125</LongitudeDegrees>
            </Position>
            <AltitudeMeters>150</AltitudeMeters>
            <DistanceMeters>30161.54086131</DistanceMeters>
          </Trackpoint>
          <Trackpoint>
            <Time>2021-10-09T07:57:53.000Z</Time>
            <Position>
              <LatitudeDegrees>39.5938258431851863861083984375</LatitudeDegrees>
              <LongitudeDegrees>-0.6117345951497554779052734375</LongitudeDegrees>
            </Position>
            <AltitudeMeters>150.1999969482421875</AltitudeMeters>
            <DistanceMeters>30166.834284324</DistanceMeters>
          </Trackpoint>
          <Trackpoint>
            <Time>2021-10-09T07:57:54.000Z</Time>
            <Position>
              <LatitudeDegrees>39.59387253038585186004638671875</LatitudeDegrees>
              <LongitudeDegrees>-0.61172042973339557647705078125</LongitudeDegrees>
            </Position>
            <AltitudeMeters>150.399993896484375</AltitudeMeters>
            <DistanceMeters>30172.171030627</DistanceMeters>
          </Trackpoint>
          <Trackpoint>
            <Time>2021-10-09T07:57:55.000Z</Time>
            <Position>
              <LatitudeDegrees>39.59391846321523189544677734375</LatitudeDegrees>
              <LongitudeDegrees>-0.6117032468318939208984375</LongitudeDegrees>
            </Position>
            <AltitudeMeters>150.399993896484375</AltitudeMeters>
            <DistanceMeters>30177.491678111</DistanceMeters>
          </Trackpoint>
          <Trackpoint>
            <Time>2021-10-09T07:57:56.000Z</Time>
            <Position>
              <LatitudeDegrees>39.593964479863643646240234375</LatitudeDegrees>
              <LongitudeDegrees>-0.6116869859397411346435546875</LongitudeDegrees>
            </Position>
            <AltitudeMeters>150.8000030517578125</AltitudeMeters>
            <DistanceMeters>30182.799581512</DistanceMeters>
          </Trackpoint>
          <Trackpoint>
            <Time>2021-10-09T07:57:57.000Z</Time>
            <Position>
              <LatitudeDegrees>39.59401217289268970489501953125</LatitudeDegrees>
              <LongitudeDegrees>-0.61167332343757152557373046875</LongitudeDegrees>
            </Position>
            <AltitudeMeters>150.8000030517578125</AltitudeMeters>
            <DistanceMeters>30188.236073046</DistanceMeters>
          </Trackpoint>
          <Trackpoint>
            <Time>2021-10-09T07:57:58.000Z</Time>
            <Position>
              <LatitudeDegrees>39.59405936300754547119140625</LatitudeDegrees>
              <LongitudeDegrees>-0.6116576492786407470703125</LongitudeDegrees>
            </Position>
            <AltitudeMeters>151.1999969482421875</AltitudeMeters>
            <DistanceMeters>30193.658427599</DistanceMeters>
          </Trackpoint>
          <Trackpoint>
            <Time>2021-10-09T07:57:59.000Z</Time>
            <Position>
              <LatitudeDegrees>39.594106972217559814453125</LatitudeDegrees>
              <LongitudeDegrees>-0.61164356768131256103515625</LongitudeDegrees>
            </Position>
            <AltitudeMeters>151.399993896484375</AltitudeMeters>
            <DistanceMeters>30199.094088564</DistanceMeters>
          </Trackpoint>
          <Trackpoint>
            <Time>2021-10-09T07:58:00.000Z</Time>
            <Position>
              <LatitudeDegrees>39.59415382705628871917724609375</LatitudeDegrees>
              <LongitudeDegrees>-0.6116299889981746673583984375</LongitudeDegrees>
            </Position>
            <AltitudeMeters>151.600006103515625</AltitudeMeters>
            <DistanceMeters>30204.437598807</DistanceMeters>
          </Trackpoint>
          <Trackpoint>
            <Time>2021-10-09T07:58:01.000Z</Time>
            <Position>
              <LatitudeDegrees>39.59420110099017620086669921875</LatitudeDegrees>
              <LongitudeDegrees>-0.611617080867290496826171875</LongitudeDegrees>
            </Position>
            <AltitudeMeters>152</AltitudeMeters>
            <DistanceMeters>30209.813961397</DistanceMeters>
          </Trackpoint>
          <Trackpoint>
            <Time>2021-10-09T07:58:02.000Z</Time>
            <Position>
              <LatitudeDegrees>39.59424854256212711334228515625</LatitudeDegrees>
              <LongitudeDegrees>-0.61160375364124774932861328125</LongitudeDegrees>
            </Position>
            <AltitudeMeters>152.1999969482421875</AltitudeMeters>
            <DistanceMeters>30215.21629488</DistanceMeters>
          </Trackpoint>
          <Trackpoint>
            <Time>2021-10-09T07:58:03.000Z</Time>
            <Position>
              <LatitudeDegrees>39.59429598413407802581787109375</LatitudeDegrees>
              <LongitudeDegrees>-0.61158916912972927093505859375</LongitudeDegrees>
            </Position>
            <AltitudeMeters>152.399993896484375</AltitudeMeters>
            <DistanceMeters>30220.641979096</DistanceMeters>
          </Trackpoint>
          <Trackpoint>
            <Time>2021-10-09T07:58:04.000Z</Time>
            <Position>
              <LatitudeDegrees>39.59434342570602893829345703125</LatitudeDegrees>
              <LongitudeDegrees>-0.61157517135143280029296875</LongitudeDegrees>
            </Position>
            <AltitudeMeters>152.600006103515625</AltitudeMeters>
            <DistanceMeters>30226.057668183</DistanceMeters>
          </Trackpoint>
          <Trackpoint>
            <Time>2021-10-09T07:58:05.000Z</Time>
            <Position>
              <LatitudeDegrees>39.59439120255410671234130859375</LatitudeDegrees>
              <LongitudeDegrees>-0.6115612573921680450439453125</LongitudeDegrees>
            </Position>
            <AltitudeMeters>153</AltitudeMeters>
            <DistanceMeters>30231.508260032</DistanceMeters>
          </Trackpoint>
          <Trackpoint>
            <Time>2021-10-09T07:58:06.000Z</Time>
            <Position>
              <LatitudeDegrees>39.5944410748779773712158203125</LatitudeDegrees>
              <LongitudeDegrees>-0.61154969036579132080078125</LongitudeDegrees>
            </Position>
            <AltitudeMeters>153</AltitudeMeters>
            <DistanceMeters>30237.147757282</DistanceMeters>
          </Trackpoint>
          <Trackpoint>
            <Time>2021-10-09T07:58:07.000Z</Time>
            <Position>
              <LatitudeDegrees>39.59449044428765773773193359375</LatitudeDegrees>
              <LongitudeDegrees>-0.61153627932071685791015625</LongitudeDegrees>
            </Position>
            <AltitudeMeters>153.1999969482421875</AltitudeMeters>
            <DistanceMeters>30242.762380766</DistanceMeters>
          </Trackpoint>
          <Trackpoint>
            <Time>2021-10-09T07:58:08.000Z</Time>
            <Position>
              <LatitudeDegrees>39.5945393107831478118896484375</LatitudeDegrees>
              <LongitudeDegrees>-0.6115223653614521026611328125</LongitudeDegrees>
            </Position>
            <AltitudeMeters>153.399993896484375</AltitudeMeters>
            <DistanceMeters>30248.331789404</DistanceMeters>
          </Trackpoint>
          <Trackpoint>
            <Time>2021-10-09T07:58:09.000Z</Time>
            <Position>
              <LatitudeDegrees>39.59458800964057445526123046875</LatitudeDegrees>
              <LongitudeDegrees>-0.61150920577347278594970703125</LongitudeDegrees>
            </Position>
            <AltitudeMeters>153.399993896484375</AltitudeMeters>
            <DistanceMeters>30253.869491058</DistanceMeters>
          </Trackpoint>
          <Trackpoint>
            <Time>2021-10-09T07:58:10.000Z</Time>
            <Position>
              <LatitudeDegrees>39.59463595412671566009521484375</LatitudeDegrees>
              <LongitudeDegrees>-0.61149646528065204620361328125</LongitudeDegrees>
            </Position>
            <AltitudeMeters>153.600006103515625</AltitudeMeters>
            <DistanceMeters>30259.316768469</DistanceMeters>
          </Trackpoint>
          <Trackpoint>
            <Time>2021-10-09T07:58:11.000Z</Time>
            <Position>
              <LatitudeDegrees>39.594685323536396026611328125</LatitudeDegrees>
              <LongitudeDegrees>-0.61148422770202159881591796875</LongitudeDegrees>
            </Position>
            <AltitudeMeters>153.600006103515625</AltitudeMeters>
            <DistanceMeters>30264.911251909</DistanceMeters>
          </Trackpoint>
          <Trackpoint>
            <Time>2021-10-09T07:58:12.000Z</Time>
            <Position>
              <LatitudeDegrees>39.59473553113639354705810546875</LatitudeDegrees>
              <LongitudeDegrees>-0.61147383414208889007568359375</LongitudeDegrees>
            </Position>
            <AltitudeMeters>153.8000030517578125</AltitudeMeters>
            <DistanceMeters>30270.569931178</DistanceMeters>
          </Trackpoint>
          <Trackpoint>
            <Time>2021-10-09T07:58:13.000Z</Time>
            <Position>
              <LatitudeDegrees>39.594784565269947052001953125</LatitudeDegrees>
              <LongitudeDegrees>-0.61145975254476070404052734375</LongitudeDegrees>
            </Position>
            <AltitudeMeters>154</AltitudeMeters>
            <DistanceMeters>30276.159570209</DistanceMeters>
          </Trackpoint>
          <Trackpoint>
            <Time>2021-10-09T07:58:14.000Z</Time>
            <Position>
              <LatitudeDegrees>39.59483426995575428009033203125</LatitudeDegrees>
              <LongitudeDegrees>-0.6114479340612888336181640625</LongitudeDegrees>
            </Position>
            <AltitudeMeters>154.399993896484375</AltitudeMeters>
            <DistanceMeters>30281.783032461</DistanceMeters>
          </Trackpoint>
          <Trackpoint>
            <Time>2021-10-09T07:58:15.000Z</Time>
            <Position>
              <LatitudeDegrees>39.5948861539363861083984375</LatitudeDegrees>
              <LongitudeDegrees>-0.6114368699491024017333984375</LongitudeDegrees>
            </Position>
            <AltitudeMeters>154.600006103515625</AltitudeMeters>
            <DistanceMeters>30287.634703152</DistanceMeters>
          </Trackpoint>
          <Trackpoint>
            <Time>2021-10-09T07:58:16.000Z</Time>
            <Position>
              <LatitudeDegrees>39.5949386246502399444580078125</LatitudeDegrees>
              <LongitudeDegrees>-0.61142622493207454681396484375</LongitudeDegrees>
            </Position>
            <AltitudeMeters>154.8000030517578125</AltitudeMeters>
            <DistanceMeters>30293.544723092</DistanceMeters>
          </Trackpoint>
          <Trackpoint>
            <Time>2021-10-09T07:58:17.000Z</Time>
            <Position>
              <LatitudeDegrees>39.5949907600879669189453125</LatitudeDegrees>
              <LongitudeDegrees>-0.611417926847934722900390625</LongitudeDegrees>
            </Position>
            <AltitudeMeters>154.8000030517578125</AltitudeMeters>
            <DistanceMeters>30299.391762464</DistanceMeters>
          </Trackpoint>
          <Trackpoint>
            <Time>2021-10-09T07:58:18.000Z</Time>
            <Position>
              <LatitudeDegrees>39.59504373371601104736328125</LatitudeDegrees>
              <LongitudeDegrees>-0.611407198011875152587890625</LongitudeDegrees>
            </Position>
            <AltitudeMeters>154.8000030517578125</AltitudeMeters>
            <DistanceMeters>30305.359561178</DistanceMeters>
          </Trackpoint>
          <Trackpoint>
            <Time>2021-10-09T07:58:19.000Z</Time>
            <Position>
              <LatitudeDegrees>39.59509595297276973724365234375</LatitudeDegrees>
              <LongitudeDegrees>-0.61139454133808612823486328125</LongitudeDegrees>
            </Position>
            <AltitudeMeters>155</AltitudeMeters>
            <DistanceMeters>30311.272636181</DistanceMeters>
          </Trackpoint>
          <Trackpoint>
            <Time>2021-10-09T07:58:20.000Z</Time>
            <Position>
              <LatitudeDegrees>39.59514976479113101959228515625</LatitudeDegrees>
              <LongitudeDegrees>-0.6113813817501068115234375</LongitudeDegrees>
            </Position>
            <AltitudeMeters>155</AltitudeMeters>
            <DistanceMeters>30317.367694383</DistanceMeters>
          </Trackpoint>
          <Trackpoint>
            <Time>2021-10-09T07:58:21.000Z</Time>
            <Position>
              <LatitudeDegrees>39.59520491771399974822998046875</LatitudeDegrees>
              <LongitudeDegrees>-0.61136788688600063323974609375</LongitudeDegrees>
            </Position>
            <AltitudeMeters>155</AltitudeMeters>
            <DistanceMeters>30323.614933005</DistanceMeters>
          </Trackpoint>
          <Trackpoint>
            <Time>2021-10-09T07:58:22.000Z</Time>
            <Position>
              <LatitudeDegrees>39.595261327922344207763671875</LatitudeDegrees>
              <LongitudeDegrees>-0.61135514639317989349365234375</LongitudeDegrees>
            </Position>
            <AltitudeMeters>155</AltitudeMeters>
            <DistanceMeters>30329.988102063</DistanceMeters>
          </Trackpoint>
          <Trackpoint>
            <Time>2021-10-09T07:58:23.000Z</Time>
            <Position>
              <LatitudeDegrees>39.595316313207149505615234375</LatitudeDegrees>
              <LongitudeDegrees>-0.611343495547771453857421875</LongitudeDegrees>
            </Position>
            <AltitudeMeters>155</AltitudeMeters>
            <DistanceMeters>30336.188185564</DistanceMeters>
          </Trackpoint>
          <Trackpoint>
            <Time>2021-10-09T07:58:24.000Z</Time>
            <Position>
              <LatitudeDegrees>39.5953743159770965576171875</LatitudeDegrees>
              <LongitudeDegrees>-0.61133150942623615264892578125</LongitudeDegrees>
            </Position>
            <AltitudeMeters>155</AltitudeMeters>
            <DistanceMeters>30342.725028971</DistanceMeters>
          </Trackpoint>
          <Trackpoint>
            <Time>2021-10-09T07:58:25.000Z</Time>
            <Position>
              <LatitudeDegrees>39.5954324863851070404052734375</LatitudeDegrees>
              <LongitudeDegrees>-0.61132036149501800537109375</LongitudeDegrees>
            </Position>
            <AltitudeMeters>155.1999969482421875</AltitudeMeters>
            <DistanceMeters>30349.268775795</DistanceMeters>
          </Trackpoint>
          <Trackpoint>
            <Time>2021-10-09T07:58:26.000Z</Time>
            <Position>
              <LatitudeDegrees>39.59549208171665668487548828125</LatitudeDegrees>
              <LongitudeDegrees>-0.6113114766776561737060546875</LongitudeDegrees>
            </Position>
            <AltitudeMeters>155</AltitudeMeters>
            <DistanceMeters>30355.946388953</DistanceMeters>
          </Trackpoint>
          <Trackpoint>
            <Time>2021-10-09T07:58:27.000Z</Time>
            <Position>
              <LatitudeDegrees>39.59555109031498432159423828125</LatitudeDegrees>
              <LongitudeDegrees>-0.61129932291805744171142578125</LongitudeDegrees>
            </Position>
            <AltitudeMeters>155.1999969482421875</AltitudeMeters>
            <DistanceMeters>30362.596901296</DistanceMeters>
          </Trackpoint>
          <Trackpoint>
            <Time>2021-10-09T07:58:28.000Z</Time>
            <Position>
              <LatitudeDegrees>39.59561169147491455078125</LatitudeDegrees>
              <LongitudeDegrees>-0.6112875044345855712890625</LongitudeDegrees>
            </Position>
            <AltitudeMeters>155.1999969482421875</AltitudeMeters>
            <DistanceMeters>30369.417674994</DistanceMeters>
          </Trackpoint>
          <Trackpoint>
            <Time>2021-10-09T07:58:29.000Z</Time>
            <Position>
              <LatitudeDegrees>39.59567145444452762603759765625</LatitudeDegrees>
              <LongitudeDegrees>-0.61127451248466968536376953125</LongitudeDegrees>
            </Position>
            <AltitudeMeters>155.1999969482421875</AltitudeMeters>
            <DistanceMeters>30376.161894374</DistanceMeters>
          </Trackpoint>
          <Trackpoint>
            <Time>2021-10-09T07:58:30.000Z</Time>
            <Position>
              <LatitudeDegrees>39.59573163650929927825927734375</LatitudeDegrees>
              <LongitudeDegrees>-0.61126076616346836090087890625</LongitudeDegrees>
            </Position>
            <AltitudeMeters>155.1999969482421875</AltitudeMeters>
            <DistanceMeters>30382.963444317</DistanceMeters>
          </Trackpoint>
          <Trackpoint>
            <Time>2021-10-09T07:58:31.000Z</Time>
            <Position>
              <LatitudeDegrees>39.59579383023083209991455078125</LatitudeDegrees>
              <LongitudeDegrees>-0.61124861240386962890625</LongitudeDegrees>
            </Position>
            <AltitudeMeters>155.1999969482421875</AltitudeMeters>
            <DistanceMeters>30389.96453387</DistanceMeters>
          </Trackpoint>
          <Trackpoint>
            <Time>2021-10-09T07:58:32.000Z</Time>
            <Position>
              <LatitudeDegrees>39.59585619159042835235595703125</LatitudeDegrees>
              <LongitudeDegrees>-0.61123578809201717376708984375</LongitudeDegrees>
            </Position>
            <AltitudeMeters>155.399993896484375</AltitudeMeters>
            <DistanceMeters>30396.99201479</DistanceMeters>
          </Trackpoint>
          <Trackpoint>
            <Time>2021-10-09T07:58:33.000Z</Time>
            <Position>
              <LatitudeDegrees>39.5959179662168025970458984375</LatitudeDegrees>
              <LongitudeDegrees>-0.61122070066630840301513671875</LongitudeDegrees>
            </Position>
            <AltitudeMeters>155.399993896484375</AltitudeMeters>
            <DistanceMeters>30403.9879432</DistanceMeters>
          </Trackpoint>
          <Trackpoint>
            <Time>2021-10-09T07:58:34.000Z</Time>
            <Position>
              <LatitudeDegrees>39.5959818363189697265625</LatitudeDegrees>
              <LongitudeDegrees>-0.6112065352499485015869140625</LongitudeDegrees>
            </Position>
            <AltitudeMeters>155.399993896484375</AltitudeMeters>
            <DistanceMeters>30411.199963744</DistanceMeters>
          </Trackpoint>
          <Trackpoint>
            <Time>2021-10-09T07:58:35.000Z</Time>
            <Position>
              <LatitudeDegrees>39.59604713134467601776123046875</LatitudeDegrees>
              <LongitudeDegrees>-0.61119136400520801544189453125</LongitudeDegrees>
            </Position>
            <AltitudeMeters>155.399993896484375</AltitudeMeters>
            <DistanceMeters>30418.583362114</DistanceMeters>
          </Trackpoint>
          <Trackpoint>
            <Time>2021-10-09T07:58:36.000Z</Time>
            <Position>
              <LatitudeDegrees>39.59611301310360431671142578125</LatitudeDegrees>
              <LongitudeDegrees>-0.61117392964661121368408203125</LongitudeDegrees>
            </Position>
            <AltitudeMeters>155.399993896484375</AltitudeMeters>
            <DistanceMeters>30426.068186377</DistanceMeters>
          </Trackpoint>
          <Trackpoint>
            <Time>2021-10-09T07:58:37.000Z</Time>
            <Position>
              <LatitudeDegrees>39.59617956541478633880615234375</LatitudeDegrees>
              <LongitudeDegrees>-0.61115666292607784271240234375</LongitudeDegrees>
            </Position>
            <AltitudeMeters>155.600006103515625</AltitudeMeters>
            <DistanceMeters>30433.622660755</DistanceMeters>
          </Trackpoint>
          <Trackpoint>
            <Time>2021-10-09T07:58:38.000Z</Time>
            <Position>
              <LatitudeDegrees>39.5962482132017612457275390625</LatitudeDegrees>
              <LongitudeDegrees>-0.6111418269574642181396484375</LongitudeDegrees>
            </Position>
            <AltitudeMeters>155.399993896484375</AltitudeMeters>
            <DistanceMeters>30441.368358135</DistanceMeters>
          </Trackpoint>
          <Trackpoint>
            <Time>2021-10-09T07:58:39.000Z</Time>
            <Position>
              <LatitudeDegrees>39.5963192917406558990478515625</LatitudeDegrees>
              <LongitudeDegrees>-0.61112933792173862457275390625</LongitudeDegrees>
            </Position>
            <AltitudeMeters>155.399993896484375</AltitudeMeters>
            <DistanceMeters>30449.351733332</DistanceMeters>
          </Trackpoint>
          <Trackpoint>
            <Time>2021-10-09T07:58:40.000Z</Time>
            <Position>
              <LatitudeDegrees>39.59638961590826511383056640625</LatitudeDegrees>
              <LongitudeDegrees>-0.61111257411539554595947265625</LongitudeDegrees>
            </Position>
            <AltitudeMeters>155.1999969482421875</AltitudeMeters>
            <DistanceMeters>30457.310185203</DistanceMeters>
          </Trackpoint>
          <Trackpoint>
            <Time>2021-10-09T07:58:41.000Z</Time>
            <Position>
              <LatitudeDegrees>39.59645926952362060546875</LatitudeDegrees>
              <LongitudeDegrees>-0.61109664849936962127685546875</LongitudeDegrees>
            </Position>
            <AltitudeMeters>155.1999969482421875</AltitudeMeters>
            <DistanceMeters>30465.181931169</DistanceMeters>
          </Trackpoint>
          <Trackpoint>
            <Time>2021-10-09T07:58:42.000Z</Time>
            <Position>
              <LatitudeDegrees>39.59654283709824085235595703125</LatitudeDegrees>
              <LongitudeDegrees>-0.61107695102691650390625</LongitudeDegrees>
            </Position>
            <AltitudeMeters>155</AltitudeMeters>
            <DistanceMeters>30474.635059566</DistanceMeters>
          </Trackpoint>
          <Trackpoint>
            <Time>2021-10-09T07:58:43.000Z</Time>
            <Position>
              <LatitudeDegrees>39.59659899584949016571044921875</LatitudeDegrees>
              <LongitudeDegrees>-0.6110650487244129180908203125</LongitudeDegrees>
            </Position>
            <AltitudeMeters>154.8000030517578125</AltitudeMeters>
            <DistanceMeters>30480.967718525</DistanceMeters>
          </Trackpoint>
          <Trackpoint>
            <Time>2021-10-09T07:58:44.000Z</Time>
            <Position>
              <LatitudeDegrees>39.5966673083603382110595703125</LatitudeDegrees>
              <LongitudeDegrees>-0.61104820109903812408447265625</LongitudeDegrees>
            </Position>
            <AltitudeMeters>154.8000030517578125</AltitudeMeters>
            <DistanceMeters>30488.707584617</DistanceMeters>
          </Trackpoint>
          <Trackpoint>
            <Time>2021-10-09T07:58:45.000Z</Time>
            <Position>
              <LatitudeDegrees>39.59673746488988399505615234375</LatitudeDegrees>
              <LongitudeDegrees>-0.6110321916639804840087890625</LongitudeDegrees>
            </Position>
            <AltitudeMeters>154.8000030517578125</AltitudeMeters>
            <DistanceMeters>30496.635911182</DistanceMeters>
          </Trackpoint>
          <Trackpoint>
            <Time>2021-10-09T07:58:46.000Z</Time>
            <Position>
              <LatitudeDegrees>39.5968071185052394866943359375</LatitudeDegrees>
              <LongitudeDegrees>-0.61101500876247882843017578125</LongitudeDegrees>
            </Position>
            <AltitudeMeters>154.8000030517578125</AltitudeMeters>
            <DistanceMeters>30504.527134608</DistanceMeters>
          </Trackpoint>
          <Trackpoint>
            <Time>2021-10-09T07:58:47.000Z</Time>
            <Position>
              <LatitudeDegrees>39.59687710739672183990478515625</LatitudeDegrees>
              <LongitudeDegrees>-0.61099790968000888824462890625</LongitudeDegrees>
            </Position>
            <AltitudeMeters>154.8000030517578125</AltitudeMeters>
            <DistanceMeters>30512.453752544</DistanceMeters>
          </Trackpoint>
          <Trackpoint>
            <Time>2021-10-09T07:58:48.000Z</Time>
            <Position>
              <LatitudeDegrees>39.5969465933740139007568359375</LatitudeDegrees>
              <LongitudeDegrees>-0.61098181642591953277587890625</LongitudeDegrees>
            </Position>
            <AltitudeMeters>154.600006103515625</AltitudeMeters>
            <DistanceMeters>30520.309421988</DistanceMeters>
          </Trackpoint>
          <Trackpoint>
            <Time>2021-10-09T07:58:49.000Z</Time>
            <Position>
              <LatitudeDegrees>39.5970159955322742462158203125</LatitudeDegrees>
              <LongitudeDegrees>-0.610963962972164154052734375</LongitudeDegrees>
            </Position>
            <AltitudeMeters>154.600006103515625</AltitudeMeters>
            <DistanceMeters>30528.183461921</DistanceMeters>
          </Trackpoint>
          <Trackpoint>
            <Time>2021-10-09T07:58:50.000Z</Time>
            <Position>
              <LatitudeDegrees>39.597087241709232330322265625</LatitudeDegrees>
              <LongitudeDegrees>-0.61094460077583789825439453125</LongitudeDegrees>
            </Position>
            <AltitudeMeters>154.600006103515625</AltitudeMeters>
            <DistanceMeters>30536.284733154</DistanceMeters>
          </Trackpoint>
          <Trackpoint>
            <Time>2021-10-09T07:58:51.000Z</Time>
            <Position>
              <LatitudeDegrees>39.5971588231623172760009765625</LatitudeDegrees>
              <LongitudeDegrees>-0.6109269149601459503173828125</LongitudeDegrees>
            </Position>
            <AltitudeMeters>154.600006103515625</AltitudeMeters>
            <DistanceMeters>30544.39491668</DistanceMeters>
          </Trackpoint>
          <Trackpoint>
            <Time>2021-10-09T07:58:52.000Z</Time>
            <Position>
              <LatitudeDegrees>39.5972304046154022216796875</LatitudeDegrees>
              <LongitudeDegrees>-0.610908977687358856201171875</LongitudeDegrees>
            </Position>
            <AltitudeMeters>154.600006103515625</AltitudeMeters>
            <DistanceMeters>30552.509552681</DistanceMeters>
          </Trackpoint>
          <Trackpoint>
            <Time>2021-10-09T07:58:53.000Z</Time>
            <Position>
              <LatitudeDegrees>39.5973029918968677520751953125</LatitudeDegrees>
              <LongitudeDegrees>-0.61089095659554004669189453125</LongitudeDegrees>
            </Position>
            <AltitudeMeters>154.600006103515625</AltitudeMeters>
            <DistanceMeters>30560.735815069</DistanceMeters>
          </Trackpoint>
          <Trackpoint>
            <Time>2021-10-09T07:58:54.000Z</Time>
            <Position>
              <LatitudeDegrees>39.5973765850067138671875</LatitudeDegrees>
              <LongitudeDegrees>-0.610873438417911529541015625</LongitudeDegrees>
            </Position>
            <AltitudeMeters>154.600006103515625</AltitudeMeters>
            <DistanceMeters>30569.063539073</DistanceMeters>
          </Trackpoint>
          <Trackpoint>
            <Time>2021-10-09T07:58:55.000Z</Time>
            <Position>
              <LatitudeDegrees>39.597451351583003997802734375</LatitudeDegrees>
              <LongitudeDegrees>-0.61085390858352184295654296875</LongitudeDegrees>
            </Position>
            <AltitudeMeters>154.399993896484375</AltitudeMeters>
            <DistanceMeters>30577.552355835</DistanceMeters>
          </Trackpoint>
          <Trackpoint>
            <Time>2021-10-09T07:58:56.000Z</Time>
            <Position>
              <LatitudeDegrees>39.59752519614994525909423828125</LatitudeDegrees>
              <LongitudeDegrees>-0.61083077453076839447021484375</LongitudeDegrees>
            </Position>
            <AltitudeMeters>154.399993896484375</AltitudeMeters>
            <DistanceMeters>30586.007063703</DistanceMeters>
          </Trackpoint>
          <Trackpoint>
            <Time>2021-10-09T07:58:57.000Z</Time>
            <Position>
              <LatitudeDegrees>39.5975987054407596588134765625</LatitudeDegrees>
              <LongitudeDegrees>-0.6108055450022220611572265625</LongitudeDegrees>
            </Position>
            <AltitudeMeters>154.399993896484375</AltitudeMeters>
            <DistanceMeters>30594.469244639</DistanceMeters>
          </Trackpoint>
          <Trackpoint>
            <Time>2021-10-09T07:58:58.000Z</Time>
            <Position>
              <LatitudeDegrees>39.5976711250841617584228515625</LatitudeDegrees>
              <LongitudeDegrees>-0.61077813617885112762451171875</LongitudeDegrees>
            </Position>
            <AltitudeMeters>154.399993896484375</AltitudeMeters>
            <DistanceMeters>30602.865004088</DistanceMeters>
          </Trackpoint>
          <Trackpoint>
            <Time>2021-10-09T07:58:59.000Z</Time>
            <Position>
              <LatitudeDegrees>39.59774245508015155792236328125</LatitudeDegrees>
              <LongitudeDegrees>-0.61074879951775074005126953125</LongitudeDegrees>
            </Position>
            <AltitudeMeters>154.399993896484375</AltitudeMeters>
            <DistanceMeters>30611.192728092</DistanceMeters>
          </Trackpoint>
          <Trackpoint>
            <Time>2021-10-09T07:59:00.000Z</Time>
            <Position>
              <LatitudeDegrees>39.5978142879903316497802734375</LatitudeDegrees>
              <LongitudeDegrees>-0.61071728356182575225830078125</LongitudeDegrees>
            </Position>
            <AltitudeMeters>154.399993896484375</AltitudeMeters>
            <DistanceMeters>30619.631934981</DistanceMeters>
          </Trackpoint>
          <Trackpoint>
            <Time>2021-10-09T07:59:01.000Z</Time>
            <Position>
              <LatitudeDegrees>39.59788578562438488006591796875</LatitudeDegrees>
              <LongitudeDegrees>-0.6106841750442981719970703125</LongitudeDegrees>
            </Position>
            <AltitudeMeters>154.399993896484375</AltitudeMeters>
            <DistanceMeters>30628.081300896</DistanceMeters>
          </Trackpoint>
          <Trackpoint>
            <Time>2021-10-09T07:59:02.000Z</Time>
            <Position>
              <LatitudeDegrees>39.59795619361102581024169921875</LatitudeDegrees>
              <LongitudeDegrees>-0.6106503121554851531982421875</LongitudeDegrees>
            </Position>
            <AltitudeMeters>154.399993896484375</AltitudeMeters>
            <DistanceMeters>30636.438791027</DistanceMeters>
          </Trackpoint>
          <Trackpoint>
            <Time>2021-10-09T07:59:03.000Z</Time>
            <Position>
              <LatitudeDegrees>39.59802341647446155548095703125</LatitudeDegrees>
              <LongitudeDegrees>-0.6106142699718475341796875</LongitudeDegrees>
            </Position>
            <AltitudeMeters>154.399993896484375</AltitudeMeters>
            <DistanceMeters>30644.533929368</DistanceMeters>
          </Trackpoint>
          <Trackpoint>
            <Time>2021-10-09T07:59:04.000Z</Time>
            <Position>
              <LatitudeDegrees>39.59808913059532642364501953125</LatitudeDegrees>
              <LongitudeDegrees>-0.61057914979755878448486328125</LongitudeDegrees>
            </Position>
            <AltitudeMeters>154.1999969482421875</AltitudeMeters>
            <DistanceMeters>30652.444011522</DistanceMeters>
          </Trackpoint>
          <Trackpoint>
            <Time>2021-10-09T07:59:05.000Z</Time>
            <Position>
              <LatitudeDegrees>39.59816624410450458526611328125</LatitudeDegrees>
              <LongitudeDegrees>-0.61053338460624217987060546875</LongitudeDegrees>
            </Position>
            <AltitudeMeters>154.1999969482421875</AltitudeMeters>
            <DistanceMeters>30661.88232197</DistanceMeters>
          </Trackpoint>
          <Trackpoint>
            <Time>2021-10-09T07:59:06.000Z</Time>
            <Position>
              <LatitudeDegrees>39.5982172898948192596435546875</LatitudeDegrees>
              <LongitudeDegrees>-0.61050119809806346893310546875</LongitudeDegrees>
            </Position>
            <AltitudeMeters>154.1999969482421875</AltitudeMeters>
            <DistanceMeters>30668.198561178</DistanceMeters>
          </Trackpoint>
          <Trackpoint>
            <Time>2021-10-09T07:59:07.000Z</Time>
            <Position>
              <LatitudeDegrees>39.59827939979732036590576171875</LatitudeDegrees>
              <LongitudeDegrees>-0.61045962385833263397216796875</LongitudeDegrees>
            </Position>
            <AltitudeMeters>154.1999969482421875</AltitudeMeters>
            <DistanceMeters>30675.976832977</DistanceMeters>
          </Trackpoint>
          <Trackpoint>
            <Time>2021-10-09T07:59:08.000Z</Time>
            <Position>
              <LatitudeDegrees>39.59834419190883636474609375</LatitudeDegrees>
              <LongitudeDegrees>-0.6104156188666820526123046875</LongitudeDegrees>
            </Position>
            <AltitudeMeters>154.1999969482421875</AltitudeMeters>
            <DistanceMeters>30684.11702345</DistanceMeters>
          </Trackpoint>
          <Trackpoint>
            <Time>2021-10-09T07:59:09.000Z</Time>
            <Position>
              <LatitudeDegrees>39.59840965457260608673095703125</LatitudeDegrees>
              <LongitudeDegrees>-0.61036909930408000946044921875</LongitudeDegrees>
            </Position>
            <AltitudeMeters>154</AltitudeMeters>
            <DistanceMeters>30692.424119464</DistanceMeters>
          </Trackpoint>
          <Trackpoint>
            <Time>2021-10-09T07:59:10.000Z</Time>
            <Position>
              <LatitudeDegrees>39.59847562015056610107421875</LatitudeDegrees>
              <LongitudeDegrees>-0.61032216064631938934326171875</LongitudeDegrees>
            </Position>
            <AltitudeMeters>154</AltitudeMeters>
            <DistanceMeters>30700.797261856</DistanceMeters>
          </Trackpoint>
          <Trackpoint>
            <Time>2021-10-09T07:59:11.000Z</Time>
            <Position>
              <LatitudeDegrees>39.598543010652065277099609375</LatitudeDegrees>
              <LongitudeDegrees>-0.6102734617888927459716796875</LongitudeDegrees>
            </Position>
            <AltitudeMeters>154</AltitudeMeters>
            <DistanceMeters>30709.382335177</DistanceMeters>
          </Trackpoint>
          <Trackpoint>
            <Time>2021-10-09T07:59:12.000Z</Time>
            <Position>
              <LatitudeDegrees>39.5986109040677547454833984375</LatitudeDegrees>
              <LongitudeDegrees>-0.61022308655083179473876953125</LongitudeDegrees>
            </Position>
            <AltitudeMeters>154</AltitudeMeters>
            <DistanceMeters>30718.087010441</DistanceMeters>
          </Trackpoint>
          <Trackpoint>
            <Time>2021-10-09T07:59:13.000Z</Time>
            <Position>
              <LatitudeDegrees>39.59867871366441249847412109375</LatitudeDegrees>
              <LongitudeDegrees>-0.61017145402729511260986328125</LongitudeDegrees>
            </Position>
            <AltitudeMeters>154</AltitudeMeters>
            <DistanceMeters>30726.837211477</DistanceMeters>
          </Trackpoint>
          <Trackpoint>
            <Time>2021-10-09T07:59:14.000Z</Time>
            <Position>
              <LatitudeDegrees>39.59874778054654598236083984375</LatitudeDegrees>
              <LongitudeDegrees>-0.6101165525615215301513671875</LongitudeDegrees>
            </Position>
            <AltitudeMeters>154</AltitudeMeters>
            <DistanceMeters>30735.852237156</DistanceMeters>
          </Trackpoint>
          <Trackpoint>
            <Time>2021-10-09T07:59:15.000Z</Time>
            <Position>
              <LatitudeDegrees>39.5988182723522186279296875</LatitudeDegrees>
              <LongitudeDegrees>-0.61006098054349422454833984375</LongitudeDegrees>
            </Position>
            <AltitudeMeters>153.8000030517578125</AltitudeMeters>
            <DistanceMeters>30745.033017816</DistanceMeters>
          </Trackpoint>
          <Trackpoint>
            <Time>2021-10-09T07:59:16.000Z</Time>
            <Position>
              <LatitudeDegrees>39.59888935089111328125</LatitudeDegrees>
              <LongitudeDegrees>-0.6100054085254669189453125</LongitudeDegrees>
            </Position>
            <AltitudeMeters>153.8000030517578125</AltitudeMeters>
            <DistanceMeters>30754.268714979</DistanceMeters>
          </Trackpoint>
          <Trackpoint>
            <Time>2021-10-09T07:59:17.000Z</Time>
            <Position>
              <LatitudeDegrees>39.59896051324903964996337890625</LatitudeDegrees>
              <LongitudeDegrees>-0.6099515967071056365966796875</LongitudeDegrees>
            </Position>
            <AltitudeMeters>153.8000030517578125</AltitudeMeters>
            <DistanceMeters>30763.435715109</DistanceMeters>
          </Trackpoint>
          <Trackpoint>
            <Time>2021-10-09T07:59:18.000Z</Time>
            <Position>
              <LatitudeDegrees>39.59903125651180744171142578125</LatitudeDegrees>
              <LongitudeDegrees>-0.60989753343164920806884765625</LongitudeDegrees>
            </Position>
            <AltitudeMeters>153.600006103515625</AltitudeMeters>
            <DistanceMeters>30772.57410375</DistanceMeters>
          </Trackpoint>
          <Trackpoint>
            <Time>2021-10-09T07:59:19.000Z</Time>
            <Position>
              <LatitudeDegrees>39.59910233505070209503173828125</LatitudeDegrees>
              <LongitudeDegrees>-0.6098417937755584716796875</LongitudeDegrees>
            </Position>
            <AltitudeMeters>153.600006103515625</AltitudeMeters>
            <DistanceMeters>30781.817131027</DistanceMeters>
          </Trackpoint>
          <Trackpoint>
            <Time>2021-10-09T07:59:20.000Z</Time>
            <Position>
              <LatitudeDegrees>39.5991745032370090484619140625</LatitudeDegrees>
              <LongitudeDegrees>-0.60978856869041919708251953125</LongitudeDegrees>
            </Position>
            <AltitudeMeters>153.399993896484375</AltitudeMeters>
            <DistanceMeters>30791.055760933</DistanceMeters>
          </Trackpoint>
          <Trackpoint>
            <Time>2021-10-09T07:59:21.000Z</Time>
            <Position>
              <LatitudeDegrees>39.59924650378525257110595703125</LatitudeDegrees>
              <LongitudeDegrees>-0.60973458923399448394775390625</LongitudeDegrees>
            </Position>
            <AltitudeMeters>153.399993896484375</AltitudeMeters>
            <DistanceMeters>30800.31001644</DistanceMeters>
          </Trackpoint>
          <Trackpoint>
            <Time>2021-10-09T07:59:22.000Z</Time>
            <Position>
              <LatitudeDegrees>39.59931858815252780914306640625</LatitudeDegrees>
              <LongitudeDegrees>-0.609679520130157470703125</LongitudeDegrees>
            </Position>
            <AltitudeMeters>153.1999969482421875</AltitudeMeters>
            <DistanceMeters>30809.619725013</DistanceMeters>
          </Trackpoint>
          <Trackpoint>
            <Time>2021-10-09T07:59:23.000Z</Time>
            <Position>
              <LatitudeDegrees>39.59939201362431049346923828125</LatitudeDegrees>
              <LongitudeDegrees>-0.60962495394051074981689453125</LongitudeDegrees>
            </Position>
            <AltitudeMeters>153</AltitudeMeters>
            <DistanceMeters>30819.036484046</DistanceMeters>
          </Trackpoint>
          <Trackpoint>
            <Time>2021-10-09T07:59:24.000Z</Time>
            <Position>
              <LatitudeDegrees>39.5994655229151248931884765625</LatitudeDegrees>
              <LongitudeDegrees>-0.60956963337957859039306640625</LongitudeDegrees>
            </Position>
            <AltitudeMeters>152.8000030517578125</AltitudeMeters>
            <DistanceMeters>30828.493432661</DistanceMeters>
          </Trackpoint>
          <Trackpoint>
            <Time>2021-10-09T07:59:25.000Z</Time>
            <Position>
              <LatitudeDegrees>39.59953819401562213897705078125</LatitudeDegrees>
              <LongitudeDegrees>-0.609512217342853546142578125</LongitudeDegrees>
            </Position>
            <AltitudeMeters>152.8000030517578125</AltitudeMeters>
            <DistanceMeters>30837.962786339</DistanceMeters>
          </Trackpoint>
          <Trackpoint>
            <Time>2021-10-09T07:59:26.000Z</Time>
            <Position>
              <LatitudeDegrees>39.59961229003965854644775390625</LatitudeDegrees>
              <LongitudeDegrees>-0.609457232058048248291015625</LongitudeDegrees>
            </Position>
            <AltitudeMeters>152.399993896484375</AltitudeMeters>
            <DistanceMeters>30847.463557052</DistanceMeters>
          </Trackpoint>
          <Trackpoint>
            <Time>2021-10-09T07:59:27.000Z</Time>
            <Position>
              <LatitudeDegrees>39.59968722425401210784912109375</LatitudeDegrees>
              <LongitudeDegrees>-0.6094054318964481353759765625</LongitudeDegrees>
            </Position>
            <AltitudeMeters>152.1999969482421875</AltitudeMeters>
            <DistanceMeters>30856.912863686</DistanceMeters>
          </Trackpoint>
          <Trackpoint>
            <Time>2021-10-09T07:59:28.000Z</Time>
            <Position>
              <LatitudeDegrees>39.5997619070112705230712890625</LatitudeDegrees>
              <LongitudeDegrees>-0.60935438610613346099853515625</LongitudeDegrees>
            </Position>
            <AltitudeMeters>151.8000030517578125</AltitudeMeters>
            <DistanceMeters>30866.307541284</DistanceMeters>
          </Trackpoint>
          <Trackpoint>
            <Time>2021-10-09T07:59:29.000Z</Time>
            <Position>
              <LatitudeDegrees>39.5998363383114337921142578125</LatitudeDegrees>
              <LongitudeDegrees>-0.6093004904687404632568359375</LongitudeDegrees>
            </Position>
            <AltitudeMeters>151.1999969482421875</AltitudeMeters>
            <DistanceMeters>30875.794044425</DistanceMeters>
          </Trackpoint>
          <Trackpoint>
            <Time>2021-10-09T07:59:30.000Z</Time>
            <Position>
              <LatitudeDegrees>39.59990850649774074554443359375</LatitudeDegrees>
              <LongitudeDegrees>-0.60924374498426914215087890625</LongitudeDegrees>
            </Position>
            <AltitudeMeters>151</AltitudeMeters>
            <DistanceMeters>30885.185357253</DistanceMeters>
          </Trackpoint>
          <Trackpoint>
            <Time>2021-10-09T07:59:31.000Z</Time>
            <Position>
              <LatitudeDegrees>39.59998209960758686065673828125</LatitudeDegrees>
              <LongitudeDegrees>-0.60918557457625865936279296875</LongitudeDegrees>
            </Position>
            <AltitudeMeters>150.399993896484375</AltitudeMeters>
            <DistanceMeters>30894.775996369</DistanceMeters>
          </Trackpoint>
          <Trackpoint>
            <Time>2021-10-09T07:59:32.000Z</Time>
            <Position>
              <LatitudeDegrees>39.6000572852790355682373046875</LatitudeDegrees>
              <LongitudeDegrees>-0.609125308692455291748046875</LongitudeDegrees>
            </Position>
            <AltitudeMeters>150.1999969482421875</AltitudeMeters>
            <DistanceMeters>30904.6116056</DistanceMeters>
          </Trackpoint>
          <Trackpoint>
            <Time>2021-10-09T07:59:33.000Z</Time>
            <Position>
              <LatitudeDegrees>39.60013381205499172210693359375</LatitudeDegrees>
              <LongitudeDegrees>-0.6090644560754299163818359375</LongitudeDegrees>
            </Position>
            <AltitudeMeters>149.8000030517578125</AltitudeMeters>
            <DistanceMeters>30914.600716907</DistanceMeters>
          </Trackpoint>
          <Trackpoint>
            <Time>2021-10-09T07:59:34.000Z</Time>
            <Position>
              <LatitudeDegrees>39.60021142847836017608642578125</LatitudeDegrees>
              <LongitudeDegrees>-0.60899999924004077911376953125</LongitudeDegrees>
            </Position>
            <AltitudeMeters>149.399993896484375</AltitudeMeters>
            <DistanceMeters>30924.856560627</DistanceMeters>
          </Trackpoint>
          <Trackpoint>
            <Time>2021-10-09T07:59:35.000Z</Time>
            <Position>
              <LatitudeDegrees>39.60028803907334804534912109375</LatitudeDegrees>
              <LongitudeDegrees>-0.60893210582435131072998046875</LongitudeDegrees>
            </Position>
            <AltitudeMeters>149.1999969482421875</AltitudeMeters>
            <DistanceMeters>30935.180853453</DistanceMeters>
          </Trackpoint>
          <Trackpoint>
            <Time>2021-10-09T07:59:36.000Z</Time>
            <Position>
              <LatitudeDegrees>39.60036389529705047607421875</LatitudeDegrees>
              <LongitudeDegrees>-0.6088612787425518035888671875</LongitudeDegrees>
            </Position>
            <AltitudeMeters>148.8000030517578125</AltitudeMeters>
            <DistanceMeters>30945.581396021</DistanceMeters>
          </Trackpoint>
          <Trackpoint>
            <Time>2021-10-09T07:59:37.000Z</Time>
            <Position>
              <LatitudeDegrees>39.6004381589591503143310546875</LatitudeDegrees>
              <LongitudeDegrees>-0.60878827236592769622802734375</LongitudeDegrees>
            </Position>
            <AltitudeMeters>148.399993896484375</AltitudeMeters>
            <DistanceMeters>30955.951070572</DistanceMeters>
          </Trackpoint>
          <Trackpoint>
            <Time>2021-10-09T07:59:38.000Z</Time>
            <Position>
              <LatitudeDegrees>39.60051150061190128326416015625</LatitudeDegrees>
              <LongitudeDegrees>-0.6087137572467327117919921875</LongitudeDegrees>
            </Position>
            <AltitudeMeters>148</AltitudeMeters>
            <DistanceMeters>30966.318132347</DistanceMeters>
          </Trackpoint>
          <Trackpoint>
            <Time>2021-10-09T07:59:39.000Z</Time>
            <Position>
              <LatitudeDegrees>39.60058383643627166748046875</LatitudeDegrees>
              <LongitudeDegrees>-0.6086383201181888580322265625</LongitudeDegrees>
            </Position>
            <AltitudeMeters>147.8000030517578125</AltitudeMeters>
            <DistanceMeters>30976.646360318</DistanceMeters>
          </Trackpoint>
          <Trackpoint>
            <Time>2021-10-09T07:59:40.000Z</Time>
            <Position>
              <LatitudeDegrees>39.6006550826132297515869140625</LatitudeDegrees>
              <LongitudeDegrees>-0.60855978168547153472900390625</LongitudeDegrees>
            </Position>
            <AltitudeMeters>147.600006103515625</AltitudeMeters>
            <DistanceMeters>30987.050809194</DistanceMeters>
          </Trackpoint>
          <Trackpoint>
            <Time>2021-10-09T07:59:41.000Z</Time>
            <Position>
              <LatitudeDegrees>39.60072523914277553558349609375</LatitudeDegrees>
              <LongitudeDegrees>-0.60848258435726165771484375</LongitudeDegrees>
            </Position>
            <AltitudeMeters>147.399993896484375</AltitudeMeters>
            <DistanceMeters>30997.288146114</DistanceMeters>
          </Trackpoint>
          <Trackpoint>
            <Time>2021-10-09T07:59:42.000Z</Time>
            <Position>
              <LatitudeDegrees>39.6007965691387653350830078125</LatitudeDegrees>
              <LongitudeDegrees>-0.6084103323519229888916015625</LongitudeDegrees>
            </Position>
            <AltitudeMeters>147.399993896484375</AltitudeMeters>
            <DistanceMeters>31007.359184721</DistanceMeters>
          </Trackpoint>
          <Trackpoint>
            <Time>2021-10-09T07:59:43.000Z</Time>
            <Position>
              <LatitudeDegrees>39.6008689887821674346923828125</LatitudeDegrees>
              <LongitudeDegrees>-0.60834034346044063568115234375</LongitudeDegrees>
            </Position>
            <AltitudeMeters>147.1999969482421875</AltitudeMeters>
            <DistanceMeters>31017.409130244</DistanceMeters>
          </Trackpoint>
          <Trackpoint>
            <Time>2021-10-09T07:59:44.000Z</Time>
            <Position>
              <LatitudeDegrees>39.60093964822590351104736328125</LatitudeDegrees>
              <LongitudeDegrees>-0.6082721985876560211181640625</LongitudeDegrees>
            </Position>
            <AltitudeMeters>146.8000030517578125</AltitudeMeters>
            <DistanceMeters>31027.207485859</DistanceMeters>
          </Trackpoint>
          <Trackpoint>
            <Time>2021-10-09T07:59:45.000Z</Time>
            <Position>
              <LatitudeDegrees>39.60101357661187648773193359375</LatitudeDegrees>
              <LongitudeDegrees>-0.608209669589996337890625</LongitudeDegrees>
            </Position>
            <AltitudeMeters>146.399993896484375</AltitudeMeters>
            <DistanceMeters>31037.028854225</DistanceMeters>
          </Trackpoint>
          <Trackpoint>
            <Time>2021-10-09T07:59:46.000Z</Time>
            <Position>
              <LatitudeDegrees>39.60108943283557891845703125</LatitudeDegrees>
              <LongitudeDegrees>-0.608150325715541839599609375</LongitudeDegrees>
            </Position>
            <AltitudeMeters>146</AltitudeMeters>
            <DistanceMeters>31046.886931253</DistanceMeters>
          </Trackpoint>
          <Trackpoint>
            <Time>2021-10-09T07:59:47.000Z</Time>
            <Position>
              <LatitudeDegrees>39.60116780363023281097412109375</LatitudeDegrees>
              <LongitudeDegrees>-0.6080941669642925262451171875</LongitudeDegrees>
            </Position>
            <AltitudeMeters>145.600006103515625</AltitudeMeters>
            <DistanceMeters>31056.851604884</DistanceMeters>
          </Trackpoint>
          <Trackpoint>
            <Time>2021-10-09T07:59:48.000Z</Time>
            <Position>
              <LatitudeDegrees>39.601247347891330718994140625</LatitudeDegrees>
              <LongitudeDegrees>-0.60804245062172412872314453125</LongitudeDegrees>
            </Position>
            <AltitudeMeters>145.399993896484375</AltitudeMeters>
            <DistanceMeters>31066.753552674</DistanceMeters>
          </Trackpoint>
          <Trackpoint>
            <Time>2021-10-09T07:59:49.000Z</Time>
            <Position>
              <LatitudeDegrees>39.60132739506661891937255859375</LatitudeDegrees>
              <LongitudeDegrees>-0.607994087040424346923828125</LongitudeDegrees>
            </Position>
            <AltitudeMeters>145.1999969482421875</AltitudeMeters>
            <DistanceMeters>31076.581354953</DistanceMeters>
          </Trackpoint>
          <Trackpoint>
            <Time>2021-10-09T07:59:50.000Z</Time>
            <Position>
              <LatitudeDegrees>39.6014087833464145660400390625</LatitudeDegrees>
              <LongitudeDegrees>-0.60794773511588573455810546875</LongitudeDegrees>
            </Position>
            <AltitudeMeters>144.8000030517578125</AltitudeMeters>
            <DistanceMeters>31086.474179044</DistanceMeters>
          </Trackpoint>
          <Trackpoint>
            <Time>2021-10-09T07:59:51.000Z</Time>
            <Position>
              <LatitudeDegrees>39.6014895848929882049560546875</LatitudeDegrees>
              <LongitudeDegrees>-0.60790549032390117645263671875</LongitudeDegrees>
            </Position>
            <AltitudeMeters>144.8000030517578125</AltitudeMeters>
            <DistanceMeters>31096.169232716</DistanceMeters>
          </Trackpoint>
          <Trackpoint>
            <Time>2021-10-09T07:59:52.000Z</Time>
            <Position>
              <LatitudeDegrees>39.60156829096376895904541015625</LatitudeDegrees>
              <LongitudeDegrees>-0.60785838402807712554931640625</LongitudeDegrees>
            </Position>
            <AltitudeMeters>144.399993896484375</AltitudeMeters>
            <DistanceMeters>31105.815263386</DistanceMeters>
          </Trackpoint>
          <Trackpoint>
            <Time>2021-10-09T07:59:53.000Z</Time>
            <Position>
              <LatitudeDegrees>39.60164104588329792022705078125</LatitudeDegrees>
              <LongitudeDegrees>-0.60779719613492488861083984375</LongitudeDegrees>
            </Position>
            <AltitudeMeters>144.1999969482421875</AltitudeMeters>
            <DistanceMeters>31115.46410208</DistanceMeters>
          </Trackpoint>
          <Trackpoint>
            <Time>2021-10-09T07:59:54.000Z</Time>
            <Position>
              <LatitudeDegrees>39.6017028205096721649169921875</LatitudeDegrees>
              <LongitudeDegrees>-0.60771773569285869598388671875</LongitudeDegrees>
            </Position>
            <AltitudeMeters>144</AltitudeMeters>
            <DistanceMeters>31125.144708121</DistanceMeters>
          </Trackpoint>
          <Trackpoint>
            <Time>2021-10-09T07:59:55.000Z</Time>
            <Position>
              <LatitudeDegrees>39.60174699313938617706298828125</LatitudeDegrees>
              <LongitudeDegrees>-0.60762117616832256317138671875</LongitudeDegrees>
            </Position>
            <AltitudeMeters>143.8000030517578125</AltitudeMeters>
            <DistanceMeters>31134.775280023</DistanceMeters>
          </Trackpoint>
          <Trackpoint>
            <Time>2021-10-09T07:59:56.000Z</Time>
            <Position>
              <LatitudeDegrees>39.6017792634665966033935546875</LatitudeDegrees>
              <LongitudeDegrees>-0.6075117923319339752197265625</LongitudeDegrees>
            </Position>
            <AltitudeMeters>143.600006103515625</AltitudeMeters>
            <DistanceMeters>31144.819383469</DistanceMeters>
          </Trackpoint>
          <Trackpoint>
            <Time>2021-10-09T07:59:57.000Z</Time>
            <Position>
              <LatitudeDegrees>39.6018142998218536376953125</LatitudeDegrees>
              <LongitudeDegrees>-0.60740106739103794097900390625</LongitudeDegrees>
            </Position>
            <AltitudeMeters>143.399993896484375</AltitudeMeters>
            <DistanceMeters>31155.084028224</DistanceMeters>
          </Trackpoint>
          <Trackpoint>
            <Time>2021-10-09T07:59:58.000Z</Time>
            <Position>
              <LatitudeDegrees>39.6018612384796142578125</LatitudeDegrees>
              <LongitudeDegrees>-0.60729679651558399200439453125</LongitudeDegrees>
            </Position>
            <AltitudeMeters>143.1999969482421875</AltitudeMeters>
            <DistanceMeters>31165.440196334</DistanceMeters>
          </Trackpoint>
          <Trackpoint>
            <Time>2021-10-09T07:59:59.000Z</Time>
            <Position>
              <LatitudeDegrees>39.60192024707794189453125</LatitudeDegrees>
              <LongitudeDegrees>-0.60720182955265045166015625</LongitudeDegrees>
            </Position>
            <AltitudeMeters>143</AltitudeMeters>
            <DistanceMeters>31175.902633271</DistanceMeters>
          </Trackpoint>
          <Trackpoint>
            <Time>2021-10-09T08:00:00.000Z</Time>
            <Position>
              <LatitudeDegrees>39.60200448520481586456298828125</LatitudeDegrees>
              <LongitudeDegrees>-0.60710392892360687255859375</LongitudeDegrees>
            </Position>
            <AltitudeMeters>142.8000030517578125</AltitudeMeters>
            <DistanceMeters>31188.487844466</DistanceMeters>
          </Trackpoint>
          <Trackpoint>
            <Time>2021-10-09T08:00:01.000Z</Time>
            <Position>
              <LatitudeDegrees>39.6020696125924587249755859375</LatitudeDegrees>
              <LongitudeDegrees>-0.6070524640381336212158203125</LongitudeDegrees>
            </Position>
            <AltitudeMeters>142.600006103515625</AltitudeMeters>
            <DistanceMeters>31196.974533439</DistanceMeters>
          </Trackpoint>
          <Trackpoint>
            <Time>2021-10-09T08:00:02.000Z</Time>
            <Position>
              <LatitudeDegrees>39.60215770639479160308837890625</LatitudeDegrees>
              <LongitudeDegrees>-0.607004351913928985595703125</LongitudeDegrees>
            </Position>
            <AltitudeMeters>142.399993896484375</AltitudeMeters>
            <DistanceMeters>31207.612433513</DistanceMeters>
          </Trackpoint>
          <Trackpoint>
            <Time>2021-10-09T08:00:03.000Z</Time>
            <Position>
              <LatitudeDegrees>39.60225175134837627410888671875</LatitudeDegrees>
              <LongitudeDegrees>-0.60697342269122600555419921875</LongitudeDegrees>
            </Position>
            <AltitudeMeters>142.1999969482421875</AltitudeMeters>
            <DistanceMeters>31218.410412354</DistanceMeters>
          </Trackpoint>
          <Trackpoint>
            <Time>2021-10-09T08:00:04.000Z</Time>
            <Position>
              <LatitudeDegrees>39.60234914906322956085205078125</LatitudeDegrees>
              <LongitudeDegrees>-0.6069632805883884429931640625</LongitudeDegrees>
            </Position>
            <AltitudeMeters>142</AltitudeMeters>
            <DistanceMeters>31229.285471489</DistanceMeters>
          </Trackpoint>
          <Trackpoint>
            <Time>2021-10-09T08:00:05.000Z</Time>
            <Position>
              <LatitudeDegrees>39.60244403220713138580322265625</LatitudeDegrees>
              <LongitudeDegrees>-0.60697115957736968994140625</LongitudeDegrees>
            </Position>
            <AltitudeMeters>142</AltitudeMeters>
            <DistanceMeters>31239.867198565</DistanceMeters>
          </Trackpoint>
          <Trackpoint>
            <Time>2021-10-09T08:00:06.000Z</Time>
            <Position>
              <LatitudeDegrees>39.60253522731363773345947265625</LatitudeDegrees>
              <LongitudeDegrees>-0.60700376518070697784423828125</LongitudeDegrees>
            </Position>
            <AltitudeMeters>141.8000030517578125</AltitudeMeters>
            <DistanceMeters>31250.395026369</DistanceMeters>
          </Trackpoint>
          <Trackpoint>
            <Time>2021-10-09T08:00:07.000Z</Time>
            <Position>
              <LatitudeDegrees>39.60262072272598743438720703125</LatitudeDegrees>
              <LongitudeDegrees>-0.6070578284561634063720703125</LongitudeDegrees>
            </Position>
            <AltitudeMeters>141.8000030517578125</AltitudeMeters>
            <DistanceMeters>31260.980166354</DistanceMeters>
          </Trackpoint>
          <Trackpoint>
            <Time>2021-10-09T08:00:08.000Z</Time>
            <Position>
              <LatitudeDegrees>39.602698422968387603759765625</LatitudeDegrees>
              <LongitudeDegrees>-0.60713075101375579833984375</LongitudeDegrees>
            </Position>
            <AltitudeMeters>141.600006103515625</AltitudeMeters>
            <DistanceMeters>31271.652812899</DistanceMeters>
          </Trackpoint>
          <Trackpoint>
            <Time>2021-10-09T08:00:09.000Z</Time>
            <Position>
              <LatitudeDegrees>39.60276606492698192596435546875</LatitudeDegrees>
              <LongitudeDegrees>-0.60721850953996181488037109375</LongitudeDegrees>
            </Position>
            <AltitudeMeters>141.600006103515625</AltitudeMeters>
            <DistanceMeters>31282.298349962</DistanceMeters>
          </Trackpoint>
          <Trackpoint>
            <Time>2021-10-09T08:00:10.000Z</Time>
            <Position>
              <LatitudeDegrees>39.60282423533499240875244140625</LatitudeDegrees>
              <LongitudeDegrees>-0.6073159910738468170166015625</LongitudeDegrees>
            </Position>
            <AltitudeMeters>141.399993896484375</AltitudeMeters>
            <DistanceMeters>31292.871966962</DistanceMeters>
          </Trackpoint>
          <Trackpoint>
            <Time>2021-10-09T08:00:11.000Z</Time>
            <Position>
              <LatitudeDegrees>39.6028695814311504364013671875</LatitudeDegrees>
              <LongitudeDegrees>-0.6074232794344425201416015625</LongitudeDegrees>
            </Position>
            <AltitudeMeters>141.399993896484375</AltitudeMeters>
            <DistanceMeters>31303.365859578</DistanceMeters>
          </Trackpoint>
          <Trackpoint>
            <Time>2021-10-09T08:00:12.000Z</Time>
            <Position>
              <LatitudeDegrees>39.60290134884417057037353515625</LatitudeDegrees>
              <LongitudeDegrees>-0.60753710567951202392578125</LongitudeDegrees>
            </Position>
            <AltitudeMeters>141.1999969482421875</AltitudeMeters>
            <DistanceMeters>31313.747718392</DistanceMeters>
          </Trackpoint>
          <Trackpoint>
            <Time>2021-10-09T08:00:13.000Z</Time>
            <Position>
              <LatitudeDegrees>39.60291727446019649505615234375</LatitudeDegrees>
              <LongitudeDegrees>-0.60765369795262813568115234375</LongitudeDegrees>
            </Position>
            <AltitudeMeters>141.1999969482421875</AltitudeMeters>
            <DistanceMeters>31323.902246589</DistanceMeters>
          </Trackpoint>
          <Trackpoint>
            <Time>2021-10-09T08:00:14.000Z</Time>
            <Position>
              <LatitudeDegrees>39.6029238961637020111083984375</LatitudeDegrees>
              <LongitudeDegrees>-0.6077712960541248321533203125</LongitudeDegrees>
            </Position>
            <AltitudeMeters>141.1999969482421875</AltitudeMeters>
            <DistanceMeters>31334.014446432</DistanceMeters>
          </Trackpoint>
          <Trackpoint>
            <Time>2021-10-09T08:00:15.000Z</Time>
            <Position>
              <LatitudeDegrees>39.6029329486191272735595703125</LatitudeDegrees>
              <LongitudeDegrees>-0.6078836135566234588623046875</LongitudeDegrees>
            </Position>
            <AltitudeMeters>141.1999969482421875</AltitudeMeters>
            <DistanceMeters>31343.698782958</DistanceMeters>
          </Trackpoint>
          <Trackpoint>
            <Time>2021-10-09T08:00:16.000Z</Time>
            <Position>
              <LatitudeDegrees>39.6029580943286418914794921875</LatitudeDegrees>
              <LongitudeDegrees>-0.6079902313649654388427734375</LongitudeDegrees>
            </Position>
            <AltitudeMeters>141.1999969482421875</AltitudeMeters>
            <DistanceMeters>31353.261133823</DistanceMeters>
          </Trackpoint>
          <Trackpoint>
            <Time>2021-10-09T08:00:17.000Z</Time>
            <Position>
              <LatitudeDegrees>39.60299874655902385711669921875</LatitudeDegrees>
              <LongitudeDegrees>-0.60808804817497730255126953125</LongitudeDegrees>
            </Position>
            <AltitudeMeters>141.1999969482421875</AltitudeMeters>
            <DistanceMeters>31362.79227064</DistanceMeters>
          </Trackpoint>
          <Trackpoint>
            <Time>2021-10-09T08:00:18.000Z</Time>
            <Position>
              <LatitudeDegrees>39.6030489541590213775634765625</LatitudeDegrees>
              <LongitudeDegrees>-0.608178488910198211669921875</LongitudeDegrees>
            </Position>
            <AltitudeMeters>141.1999969482421875</AltitudeMeters>
            <DistanceMeters>31372.351315756</DistanceMeters>
          </Trackpoint>
          <Trackpoint>
            <Time>2021-10-09T08:00:19.000Z</Time>
            <Position>
              <LatitudeDegrees>39.603097401559352874755859375</LatitudeDegrees>
              <LongitudeDegrees>-0.6082671694457530975341796875</LongitudeDegrees>
            </Position>
            <AltitudeMeters>141.1999969482421875</AltitudeMeters>
            <DistanceMeters>31381.674109639</DistanceMeters>
          </Trackpoint>
          <Trackpoint>
            <Time>2021-10-09T08:00:20.000Z</Time>
            <Position>
              <LatitudeDegrees>39.60313721559941768646240234375</LatitudeDegrees>
              <LongitudeDegrees>-0.6083627231419086456298828125</LongitudeDegrees>
            </Position>
            <AltitudeMeters>141.399993896484375</AltitudeMeters>
            <DistanceMeters>31390.989636174</DistanceMeters>
          </Trackpoint>
          <Trackpoint>
            <Time>2021-10-09T08:00:21.000Z</Time>
            <Position>
              <LatitudeDegrees>39.603166468441486358642578125</LatitudeDegrees>
              <LongitudeDegrees>-0.6084619648754596710205078125</LongitudeDegrees>
            </Position>
            <AltitudeMeters>141.399993896484375</AltitudeMeters>
            <DistanceMeters>31400.101801279</DistanceMeters>
          </Trackpoint>
          <Trackpoint>
            <Time>2021-10-09T08:00:22.000Z</Time>
            <Position>
              <LatitudeDegrees>39.60318532772362232208251953125</LatitudeDegrees>
              <LongitudeDegrees>-0.60856564901769161224365234375</LongitudeDegrees>
            </Position>
            <AltitudeMeters>141.600006103515625</AltitudeMeters>
            <DistanceMeters>31409.237719217</DistanceMeters>
          </Trackpoint>
          <Trackpoint>
            <Time>2021-10-09T08:00:23.000Z</Time>
            <Position>
              <LatitudeDegrees>39.603193961083889007568359375</LatitudeDegrees>
              <LongitudeDegrees>-0.608671009540557861328125</LongitudeDegrees>
            </Position>
            <AltitudeMeters>141.600006103515625</AltitudeMeters>
            <DistanceMeters>31418.324082017</DistanceMeters>
          </Trackpoint>
          <Trackpoint>
            <Time>2021-10-09T08:00:24.000Z</Time>
            <Position>
              <LatitudeDegrees>39.6031907759606838226318359375</LatitudeDegrees>
              <LongitudeDegrees>-0.608777962625026702880859375</LongitudeDegrees>
            </Position>
            <AltitudeMeters>141.600006103515625</AltitudeMeters>
            <DistanceMeters>31427.502895296</DistanceMeters>
          </Trackpoint>
          <Trackpoint>
            <Time>2021-10-09T08:00:25.000Z</Time>
            <Position>
              <LatitudeDegrees>39.6031743474304676055908203125</LatitudeDegrees>
              <LongitudeDegrees>-0.6088827364146709442138671875</LongitudeDegrees>
            </Position>
            <AltitudeMeters>141.8000030517578125</AltitudeMeters>
            <DistanceMeters>31436.671865342</DistanceMeters>
          </Trackpoint>
          <Trackpoint>
            <Time>2021-10-09T08:00:26.000Z</Time>
            <Position>
              <LatitudeDegrees>39.60314827971160411834716796875</LatitudeDegrees>
              <LongitudeDegrees>-0.60898541472852230072021484375</LongitudeDegrees>
            </Position>
            <AltitudeMeters>141.8000030517578125</AltitudeMeters>
            <DistanceMeters>31445.943181196</DistanceMeters>
          </Trackpoint>
          <Trackpoint>
            <Time>2021-10-09T08:00:27.000Z</Time>
            <Position>
              <LatitudeDegrees>39.603116847574710845947265625</LatitudeDegrees>
              <LongitudeDegrees>-0.609084405004978179931640625</LongitudeDegrees>
            </Position>
            <AltitudeMeters>141.8000030517578125</AltitudeMeters>
            <DistanceMeters>31455.124453635</DistanceMeters>
          </Trackpoint>
          <Trackpoint>
            <Time>2021-10-09T08:00:28.000Z</Time>
            <Position>
              <LatitudeDegrees>39.60308323614299297332763671875</LatitudeDegrees>
              <LongitudeDegrees>-0.60918071307241916656494140625</LongitudeDegrees>
            </Position>
            <AltitudeMeters>141.8000030517578125</AltitudeMeters>
            <DistanceMeters>31464.190420533</DistanceMeters>
          </Trackpoint>
          <Trackpoint>
            <Time>2021-10-09T08:00:29.000Z</Time>
            <Position>
              <LatitudeDegrees>39.60304870270192623138427734375</LatitudeDegrees>
              <LongitudeDegrees>-0.60927526094019412994384765625</LongitudeDegrees>
            </Position>
            <AltitudeMeters>141.8000030517578125</AltitudeMeters>
            <DistanceMeters>31473.163277468</DistanceMeters>
          </Trackpoint>
          <Trackpoint>
            <Time>2021-10-09T08:00:30.000Z</Time>
            <Position>
              <LatitudeDegrees>39.603012241423130035400390625</LatitudeDegrees>
              <LongitudeDegrees>-0.60936729423701763153076171875</LongitudeDegrees>
            </Position>
            <AltitudeMeters>141.8000030517578125</AltitudeMeters>
            <DistanceMeters>31482.037470201</DistanceMeters>
          </Trackpoint>
          <Trackpoint>
            <Time>2021-10-09T08:00:31.000Z</Time>
            <Position>
              <LatitudeDegrees>39.602975361049175262451171875</LatitudeDegrees>
              <LongitudeDegrees>-0.60945714823901653289794921875</LongitudeDegrees>
            </Position>
            <AltitudeMeters>141.8000030517578125</AltitudeMeters>
            <DistanceMeters>31490.768041504</DistanceMeters>
          </Trackpoint>
          <Trackpoint>
            <Time>2021-10-09T08:00:32.000Z</Time>
            <Position>
              <LatitudeDegrees>39.6029406599700450897216796875</LatitudeDegrees>
              <LongitudeDegrees>-0.60954733751714229583740234375</LongitudeDegrees>
            </Position>
            <AltitudeMeters>141.8000030517578125</AltitudeMeters>
            <DistanceMeters>31499.412861493</DistanceMeters>
          </Trackpoint>
          <Trackpoint>
            <Time>2021-10-09T08:00:33.000Z</Time>
            <Position>
              <LatitudeDegrees>39.60290729999542236328125</LatitudeDegrees>
              <LongitudeDegrees>-0.60963903553783893585205078125</LongitudeDegrees>
            </Position>
            <AltitudeMeters>141.600006103515625</AltitudeMeters>
            <DistanceMeters>31508.109752909</DistanceMeters>
          </Trackpoint>
          <Trackpoint>
            <Time>2021-10-09T08:00:34.000Z</Time>
            <Position>
              <LatitudeDegrees>39.60287620313465595245361328125</LatitudeDegrees>
              <LongitudeDegrees>-0.6097306497395038604736328125</LongitudeDegrees>
            </Position>
            <AltitudeMeters>141.600006103515625</AltitudeMeters>
            <DistanceMeters>31516.69482623</DistanceMeters>
          </Trackpoint>
          <Trackpoint>
            <Time>2021-10-09T08:00:35.000Z</Time>
            <Position>
              <LatitudeDegrees>39.60284837521612644195556640625</LatitudeDegrees>
              <LongitudeDegrees>-0.60982528142631053924560546875</LongitudeDegrees>
            </Position>
            <AltitudeMeters>141.399993896484375</AltitudeMeters>
            <DistanceMeters>31525.381328332</DistanceMeters>
          </Trackpoint>
          <Trackpoint>
            <Time>2021-10-09T08:00:36.000Z</Time>
            <Position>
              <LatitudeDegrees>39.60282213985919952392578125</LatitudeDegrees>
              <LongitudeDegrees>-0.6099190749228000640869140625</LongitudeDegrees>
            </Position>
            <AltitudeMeters>141.399993896484375</AltitudeMeters>
            <DistanceMeters>31533.939010259</DistanceMeters>
          </Trackpoint>
          <Trackpoint>
            <Time>2021-10-09T08:00:37.000Z</Time>
            <Position>
              <LatitudeDegrees>39.6027995087206363677978515625</LatitudeDegrees>
              <LongitudeDegrees>-0.61001412570476531982421875</LongitudeDegrees>
            </Position>
            <AltitudeMeters>141.399993896484375</AltitudeMeters>
            <DistanceMeters>31542.470271369</DistanceMeters>
          </Trackpoint>
          <Trackpoint>
            <Time>2021-10-09T08:00:38.000Z</Time>
            <Position>
              <LatitudeDegrees>39.60278115235269069671630859375</LatitudeDegrees>
              <LongitudeDegrees>-0.61011261306703090667724609375</LongitudeDegrees>
            </Position>
            <AltitudeMeters>141.1999969482421875</AltitudeMeters>
            <DistanceMeters>31551.15989157</DistanceMeters>
          </Trackpoint>
          <Trackpoint>
            <Time>2021-10-09T08:00:39.000Z</Time>
            <Position>
              <LatitudeDegrees>39.60276740603148937225341796875</LatitudeDegrees>
              <LongitudeDegrees>-0.6102100946009159088134765625</LongitudeDegrees>
            </Position>
            <AltitudeMeters>141.1999969482421875</AltitudeMeters>
            <DistanceMeters>31559.658276793</DistanceMeters>
          </Trackpoint>
          <Trackpoint>
            <Time>2021-10-09T08:00:40.000Z</Time>
            <Position>
              <LatitudeDegrees>39.60275768302381038665771484375</LatitudeDegrees>
              <LongitudeDegrees>-0.6103059835731983184814453125</LongitudeDegrees>
            </Position>
            <AltitudeMeters>141.1999969482421875</AltitudeMeters>
            <DistanceMeters>31567.952318169</DistanceMeters>
          </Trackpoint>
          <Trackpoint>
            <Time>2021-10-09T08:00:41.000Z</Time>
            <Position>
              <LatitudeDegrees>39.60274963639676570892333984375</LatitudeDegrees>
              <LongitudeDegrees>-0.6104012019932270050048828125</LongitudeDegrees>
            </Position>
            <AltitudeMeters>141.1999969482421875</AltitudeMeters>
            <DistanceMeters>31576.166496837</DistanceMeters>
          </Trackpoint>
          <Trackpoint>
            <Time>2021-10-09T08:00:42.000Z</Time>
            <Position>
              <LatitudeDegrees>39.6027415059506893157958984375</LatitudeDegrees>
              <LongitudeDegrees>-0.61049616895616054534912109375</LongitudeDegrees>
            </Position>
            <AltitudeMeters>141.1999969482421875</AltitudeMeters>
            <DistanceMeters>31584.360312698</DistanceMeters>
          </Trackpoint>
          <Trackpoint>
            <Time>2021-10-09T08:00:43.000Z</Time>
            <Position>
              <LatitudeDegrees>39.60273496806621551513671875</LatitudeDegrees>
              <LongitudeDegrees>-0.61058937571942806243896484375</LongitudeDegrees>
            </Position>
            <AltitudeMeters>141.1999969482421875</AltitudeMeters>
            <DistanceMeters>31592.385992437</DistanceMeters>
          </Trackpoint>
          <Trackpoint>
            <Time>2021-10-09T08:00:44.000Z</Time>
            <Position>
              <LatitudeDegrees>39.60272851400077342987060546875</LatitudeDegrees>
              <LongitudeDegrees>-0.6106828339397907257080078125</LongitudeDegrees>
            </Position>
            <AltitudeMeters>141.1999969482421875</AltitudeMeters>
            <DistanceMeters>31600.432460488</DistanceMeters>
          </Trackpoint>
          <Trackpoint>
            <Time>2021-10-09T08:00:45.000Z</Time>
            <Position>
              <LatitudeDegrees>39.60272214375436305999755859375</LatitudeDegrees>
              <LongitudeDegrees>-0.6107760407030582427978515625</LongitudeDegrees>
            </Position>
            <AltitudeMeters>141.399993896484375</AltitudeMeters>
            <DistanceMeters>31608.456452328</DistanceMeters>
          </Trackpoint>
          <Trackpoint>
            <Time>2021-10-09T08:00:46.000Z</Time>
            <Position>
              <LatitudeDegrees>39.602715186774730682373046875</LatitudeDegrees>
              <LongitudeDegrees>-0.6108702532947063446044921875</LongitudeDegrees>
            </Position>
            <AltitudeMeters>141.399993896484375</AltitudeMeters>
            <DistanceMeters>31616.573313651</DistanceMeters>
          </Trackpoint>
          <Trackpoint>
            <Time>2021-10-09T08:00:47.000Z</Time>
            <Position>
              <LatitudeDegrees>39.60270923562347888946533203125</LatitudeDegrees>
              <LongitudeDegrees>-0.61096371151506900787353515625</LongitudeDegrees>
            </Position>
            <AltitudeMeters>141.399993896484375</AltitudeMeters>
            <DistanceMeters>31624.615291486</DistanceMeters>
          </Trackpoint>
          <Trackpoint>
            <Time>2021-10-09T08:00:48.000Z</Time>
            <Position>
              <LatitudeDegrees>39.6027016080915927886962890625</LatitudeDegrees>
              <LongitudeDegrees>-0.611055158078670501708984375</LongitudeDegrees>
            </Position>
            <AltitudeMeters>141.399993896484375</AltitudeMeters>
            <DistanceMeters>31632.503081208</DistanceMeters>
          </Trackpoint>
          <Trackpoint>
            <Time>2021-10-09T08:00:49.000Z</Time>
            <Position>
              <LatitudeDegrees>39.60269481875002384185791015625</LatitudeDegrees>
              <LongitudeDegrees>-0.61114509589970111846923828125</LongitudeDegrees>
            </Position>
            <AltitudeMeters>141.399993896484375</AltitudeMeters>
            <DistanceMeters>31640.252857877</DistanceMeters>
          </Trackpoint>
          <Trackpoint>
            <Time>2021-10-09T08:00:50.000Z</Time>
            <Position>
              <LatitudeDegrees>39.60268794558942317962646484375</LatitudeDegrees>
              <LongitudeDegrees>-0.61123394407331943511962890625</LongitudeDegrees>
            </Position>
            <AltitudeMeters>141.600006103515625</AltitudeMeters>
            <DistanceMeters>31647.910619719</DistanceMeters>
          </Trackpoint>
          <Trackpoint>
            <Time>2021-10-09T08:00:51.000Z</Time>
            <Position>
              <LatitudeDegrees>39.6026806533336639404296875</LatitudeDegrees>
              <LongitudeDegrees>-0.61132430098950862884521484375</LongitudeDegrees>
            </Position>
            <AltitudeMeters>141.600006103515625</AltitudeMeters>
            <DistanceMeters>31655.701651349</DistanceMeters>
          </Trackpoint>
          <Trackpoint>
            <Time>2021-10-09T08:00:52.000Z</Time>
            <Position>
              <LatitudeDegrees>39.60267336107790470123291015625</LatitudeDegrees>
              <LongitudeDegrees>-0.61141482554376125335693359375</LongitudeDegrees>
            </Position>
            <AltitudeMeters>141.600006103515625</AltitudeMeters>
            <DistanceMeters>31663.507735889</DistanceMeters>
          </Trackpoint>
          <Trackpoint>
            <Time>2021-10-09T08:00:53.000Z</Time>
            <Position>
              <LatitudeDegrees>39.6026664040982723236083984375</LatitudeDegrees>
              <LongitudeDegrees>-0.611507110297679901123046875</LongitudeDegrees>
            </Position>
            <AltitudeMeters>141.8000030517578125</AltitudeMeters>
            <DistanceMeters>31671.459944723</DistanceMeters>
          </Trackpoint>
          <Trackpoint>
            <Time>2021-10-09T08:00:54.000Z</Time>
            <Position>
              <LatitudeDegrees>39.602660872042179107666015625</LatitudeDegrees>
              <LongitudeDegrees>-0.61159889213740825653076171875</LongitudeDegrees>
            </Position>
            <AltitudeMeters>141.8000030517578125</AltitudeMeters>
            <DistanceMeters>31679.355744097</DistanceMeters>
          </Trackpoint>
          <Trackpoint>
            <Time>2021-10-09T08:00:55.000Z</Time>
            <Position>
              <LatitudeDegrees>39.60265475325286388397216796875</LatitudeDegrees>
              <LongitudeDegrees>-0.61168916523456573486328125</LongitudeDegrees>
            </Position>
            <AltitudeMeters>141.8000030517578125</AltitudeMeters>
            <DistanceMeters>31687.127047158</DistanceMeters>
          </Trackpoint>
          <Trackpoint>
            <Time>2021-10-09T08:00:56.000Z</Time>
            <Position>
              <LatitudeDegrees>39.60264821536839008331298828125</LatitudeDegrees>
              <LongitudeDegrees>-0.6117781810462474822998046875</LongitudeDegrees>
            </Position>
            <AltitudeMeters>141.8000030517578125</AltitudeMeters>
            <DistanceMeters>31694.795414507</DistanceMeters>
          </Trackpoint>
          <Trackpoint>
            <Time>2021-10-09T08:00:57.000Z</Time>
            <Position>
              <LatitudeDegrees>39.60264184512197971343994140625</LatitudeDegrees>
              <LongitudeDegrees>-0.61186694540083408355712890625</LongitudeDegrees>
            </Position>
            <AltitudeMeters>142</AltitudeMeters>
            <DistanceMeters>31702.440194082</DistanceMeters>
          </Trackpoint>
          <Trackpoint>
            <Time>2021-10-09T08:00:58.000Z</Time>
            <Position>
              <LatitudeDegrees>39.60263815708458423614501953125</LatitudeDegrees>
              <LongitudeDegrees>-0.61195470392704010009765625</LongitudeDegrees>
            </Position>
            <AltitudeMeters>142.1999969482421875</AltitudeMeters>
            <DistanceMeters>31709.977316272</DistanceMeters>
          </Trackpoint>
          <Trackpoint>
            <Time>2021-10-09T08:00:59.000Z</Time>
            <Position>
              <LatitudeDegrees>39.60263279266655445098876953125</LatitudeDegrees>
              <LongitudeDegrees>-0.61204397119581699371337890625</LongitudeDegrees>
            </Position>
            <AltitudeMeters>142.1999969482421875</AltitudeMeters>
            <DistanceMeters>31717.656274481</DistanceMeters>
          </Trackpoint>
          <Trackpoint>
            <Time>2021-10-09T08:01:00.000Z</Time>
            <Position>
              <LatitudeDegrees>39.6026265062391757965087890625</LatitudeDegrees>
              <LongitudeDegrees>-0.61213416047394275665283203125</LongitudeDegrees>
            </Position>
            <AltitudeMeters>142.399993896484375</AltitudeMeters>
            <DistanceMeters>31725.421765483</DistanceMeters>
          </Trackpoint>
          <Trackpoint>
            <Time>2021-10-09T08:01:01.000Z</Time>
            <Position>
              <LatitudeDegrees>39.6026218123733997344970703125</LatitudeDegrees>
              <LongitudeDegrees>-0.6122209131717681884765625</LongitudeDegrees>
            </Position>
            <AltitudeMeters>142.399993896484375</AltitudeMeters>
            <DistanceMeters>31732.878789738</DistanceMeters>
          </Trackpoint>
          <Trackpoint>
            <Time>2021-10-09T08:01:02.000Z</Time>
            <Position>
              <LatitudeDegrees>39.6026171185076236724853515625</LatitudeDegrees>
              <LongitudeDegrees>-0.6123062409460544586181640625</LongitudeDegrees>
            </Position>
            <AltitudeMeters>142.600006103515625</AltitudeMeters>
            <DistanceMeters>31740.213719557</DistanceMeters>
          </Trackpoint>
          <Trackpoint>
            <Time>2021-10-09T08:01:03.000Z</Time>
            <Position>
              <LatitudeDegrees>39.6026122570037841796875</LatitudeDegrees>
              <LongitudeDegrees>-0.6123912334442138671875</LongitudeDegrees>
            </Position>
            <AltitudeMeters>142.600006103515625</AltitudeMeters>
            <DistanceMeters>31747.521514853</DistanceMeters>
          </Trackpoint>
          <Trackpoint>
            <Time>2021-10-09T08:01:04.000Z</Time>
            <Position>
              <LatitudeDegrees>39.60260580293834209442138671875</LatitudeDegrees>
              <LongitudeDegrees>-0.61247496865689754486083984375</LongitudeDegrees>
            </Position>
            <AltitudeMeters>142.8000030517578125</AltitudeMeters>
            <DistanceMeters>31754.73791637</DistanceMeters>
          </Trackpoint>
          <Trackpoint>
            <Time>2021-10-09T08:01:05.000Z</Time>
            <Position>
              <LatitudeDegrees>39.602600522339344024658203125</LatitudeDegrees>
              <LongitudeDegrees>-0.6125588715076446533203125</LongitudeDegrees>
            </Position>
            <AltitudeMeters>142.8000030517578125</AltitudeMeters>
            <DistanceMeters>31761.957445526</DistanceMeters>
          </Trackpoint>
          <Trackpoint>
            <Time>2021-10-09T08:01:06.000Z</Time>
            <Position>
              <LatitudeDegrees>39.6025959961116313934326171875</LatitudeDegrees>
              <LongitudeDegrees>-0.6126415170729160308837890625</LongitudeDegrees>
            </Position>
            <AltitudeMeters>142.8000030517578125</AltitudeMeters>
            <DistanceMeters>31769.062241605</DistanceMeters>
          </Trackpoint>
          <Trackpoint>
            <Time>2021-10-09T08:01:07.000Z</Time>
            <Position>
              <LatitudeDegrees>39.60259138606488704681396484375</LatitudeDegrees>
              <LongitudeDegrees>-0.61272324062883853912353515625</LongitudeDegrees>
            </Position>
            <AltitudeMeters>143</AltitudeMeters>
            <DistanceMeters>31776.089080012</DistanceMeters>
          </Trackpoint>
          <Trackpoint>
            <Time>2021-10-09T08:01:08.000Z</Time>
            <Position>
              <LatitudeDegrees>39.60258652456104755401611328125</LatitudeDegrees>
              <LongitudeDegrees>-0.61280370689928531646728515625</LongitudeDegrees>
            </Position>
            <AltitudeMeters>143</AltitudeMeters>
            <DistanceMeters>31783.011044011</DistanceMeters>
          </Trackpoint>
          <Trackpoint>
            <Time>2021-10-09T08:01:09.000Z</Time>
            <Position>
              <LatitudeDegrees>39.60258183069527149200439453125</LatitudeDegrees>
              <LongitudeDegrees>-0.6128832511603832244873046875</LongitudeDegrees>
            </Position>
            <AltitudeMeters>143.1999969482421875</AltitudeMeters>
            <DistanceMeters>31789.852307506</DistanceMeters>
          </Trackpoint>
          <Trackpoint>
            <Time>2021-10-09T08:01:10.000Z</Time>
            <Position>
              <LatitudeDegrees>39.60257663391530513763427734375</LatitudeDegrees>
              <LongitudeDegrees>-0.61296145431697368621826171875</LongitudeDegrees>
            </Position>
            <AltitudeMeters>143.1999969482421875</AltitudeMeters>
            <DistanceMeters>31796.583794979</DistanceMeters>
          </Trackpoint>
          <Trackpoint>
            <Time>2021-10-09T08:01:11.000Z</Time>
            <Position>
              <LatitudeDegrees>39.6025708504021167755126953125</LatitudeDegrees>
              <LongitudeDegrees>-0.6130391545593738555908203125</LongitudeDegrees>
            </Position>
            <AltitudeMeters>143.399993896484375</AltitudeMeters>
            <DistanceMeters>31803.278290434</DistanceMeters>
          </Trackpoint>
          <Trackpoint>
            <Time>2021-10-09T08:01:12.000Z</Time>
            <Position>
              <LatitudeDegrees>39.6025648154318332672119140625</LatitudeDegrees>
              <LongitudeDegrees>-0.61311542987823486328125</LongitudeDegrees>
            </Position>
            <AltitudeMeters>143.399993896484375</AltitudeMeters>
            <DistanceMeters>31809.853012932</DistanceMeters>
          </Trackpoint>
          <Trackpoint>
            <Time>2021-10-09T08:01:13.000Z</Time>
            <Position>
              <LatitudeDegrees>39.6025597862899303436279296875</LatitudeDegrees>
              <LongitudeDegrees>-0.61319061554968357086181640625</LongitudeDegrees>
            </Position>
            <AltitudeMeters>143.600006103515625</AltitudeMeters>
            <DistanceMeters>31816.324604278</DistanceMeters>
          </Trackpoint>
          <Trackpoint>
            <Time>2021-10-09T08:01:14.000Z</Time>
            <Position>
              <LatitudeDegrees>39.60255391895771026611328125</LatitudeDegrees>
              <LongitudeDegrees>-0.61326689086854457855224609375</LongitudeDegrees>
            </Position>
            <AltitudeMeters>143.600006103515625</AltitudeMeters>
            <DistanceMeters>31822.898640014</DistanceMeters>
          </Trackpoint>
          <Trackpoint>
            <Time>2021-10-09T08:01:15.000Z</Time>
            <Position>
              <LatitudeDegrees>39.60254729725420475006103515625</LatitudeDegrees>
              <LongitudeDegrees>-0.61334417201578617095947265625</LongitudeDegrees>
            </Position>
            <AltitudeMeters>143.8000030517578125</AltitudeMeters>
            <DistanceMeters>31829.567457487</DistanceMeters>
          </Trackpoint>
          <Trackpoint>
            <Time>2021-10-09T08:01:16.000Z</Time>
            <Position>
              <LatitudeDegrees>39.6025426872074604034423828125</LatitudeDegrees>
              <LongitudeDegrees>-0.61342061497271060943603515625</LongitudeDegrees>
            </Position>
            <AltitudeMeters>144</AltitudeMeters>
            <DistanceMeters>31836.143553296</DistanceMeters>
          </Trackpoint>
          <Trackpoint>
            <Time>2021-10-09T08:01:17.000Z</Time>
            <Position>
              <LatitudeDegrees>39.6025389991700649261474609375</LatitudeDegrees>
              <LongitudeDegrees>-0.61349554918706417083740234375</LongitudeDegrees>
            </Position>
            <AltitudeMeters>144</AltitudeMeters>
            <DistanceMeters>31842.582270634</DistanceMeters>
          </Trackpoint>
          <Trackpoint>
            <Time>2021-10-09T08:01:18.000Z</Time>
            <Position>
              <LatitudeDegrees>39.60253556258976459503173828125</LatitudeDegrees>
              <LongitudeDegrees>-0.61357031576335430145263671875</LongitudeDegrees>
            </Position>
            <AltitudeMeters>144.1999969482421875</AltitudeMeters>
            <DistanceMeters>31849.00624521</DistanceMeters>
          </Trackpoint>
          <Trackpoint>
            <Time>2021-10-09T08:01:19.000Z</Time>
            <Position>
              <LatitudeDegrees>39.602530784904956817626953125</LatitudeDegrees>
              <LongitudeDegrees>-0.61364726163446903228759765625</LongitudeDegrees>
            </Position>
            <AltitudeMeters>144.1999969482421875</AltitudeMeters>
            <DistanceMeters>31855.626818528</DistanceMeters>
          </Trackpoint>
          <Trackpoint>
            <Time>2021-10-09T08:01:20.000Z</Time>
            <Position>
              <LatitudeDegrees>39.6025259234011173248291015625</LatitudeDegrees>
              <LongitudeDegrees>-0.61372219584882259368896484375</LongitudeDegrees>
            </Position>
            <AltitudeMeters>144.399993896484375</AltitudeMeters>
            <DistanceMeters>31862.076045776</DistanceMeters>
          </Trackpoint>
          <Trackpoint>
            <Time>2021-10-09T08:01:21.000Z</Time>
            <Position>
              <LatitudeDegrees>39.6025198884308338165283203125</LatitudeDegrees>
              <LongitudeDegrees>-0.613798387348651885986328125</LongitudeDegrees>
            </Position>
            <AltitudeMeters>144.399993896484375</AltitudeMeters>
            <DistanceMeters>31868.644584826</DistanceMeters>
          </Trackpoint>
          <Trackpoint>
            <Time>2021-10-09T08:01:22.000Z</Time>
            <Position>
              <LatitudeDegrees>39.6025138534605503082275390625</LatitudeDegrees>
              <LongitudeDegrees>-0.61387516558170318603515625</LongitudeDegrees>
            </Position>
            <AltitudeMeters>144.399993896484375</AltitudeMeters>
            <DistanceMeters>31875.263794062</DistanceMeters>
          </Trackpoint>
          <Trackpoint>
            <Time>2021-10-09T08:01:23.000Z</Time>
            <Position>
              <LatitudeDegrees>39.602507986128330230712890625</LatitudeDegrees>
              <LongitudeDegrees>-0.61394951306283473968505859375</LongitudeDegrees>
            </Position>
            <AltitudeMeters>144.600006103515625</AltitudeMeters>
            <DistanceMeters>31881.673696387</DistanceMeters>
          </Trackpoint>
          <Trackpoint>
            <Time>2021-10-09T08:01:24.000Z</Time>
            <Position>
              <LatitudeDegrees>39.60250237025320529937744140625</LatitudeDegrees>
              <LongitudeDegrees>-0.6140208430588245391845703125</LongitudeDegrees>
            </Position>
            <AltitudeMeters>144.600006103515625</AltitudeMeters>
            <DistanceMeters>31887.823327282</DistanceMeters>
          </Trackpoint>
          <Trackpoint>
            <Time>2021-10-09T08:01:25.000Z</Time>
            <Position>
              <LatitudeDegrees>39.60249683819711208343505859375</LatitudeDegrees>
              <LongitudeDegrees>-0.61409242451190948486328125</LongitudeDegrees>
            </Position>
            <AltitudeMeters>144.600006103515625</AltitudeMeters>
            <DistanceMeters>31893.992749638</DistanceMeters>
          </Trackpoint>
          <Trackpoint>
            <Time>2021-10-09T08:01:26.000Z</Time>
            <Position>
              <LatitudeDegrees>39.6024923957884311676025390625</LatitudeDegrees>
              <LongitudeDegrees>-0.614165849983692169189453125</LongitudeDegrees>
            </Position>
            <AltitudeMeters>144.8000030517578125</AltitudeMeters>
            <DistanceMeters>31900.308988846</DistanceMeters>
          </Trackpoint>
          <Trackpoint>
            <Time>2021-10-09T08:01:27.000Z</Time>
            <Position>
              <LatitudeDegrees>39.60248828865587711334228515625</LatitudeDegrees>
              <LongitudeDegrees>-0.61424195766448974609375</LongitudeDegrees>
            </Position>
            <AltitudeMeters>145</AltitudeMeters>
            <DistanceMeters>31906.85135557</DistanceMeters>
          </Trackpoint>
          <Trackpoint>
            <Time>2021-10-09T08:01:28.000Z</Time>
            <Position>
              <LatitudeDegrees>39.60248309187591075897216796875</LatitudeDegrees>
              <LongitudeDegrees>-0.61431747861206531524658203125</LongitudeDegrees>
            </Position>
            <AltitudeMeters>145.1999969482421875</AltitudeMeters>
            <DistanceMeters>31913.353571954</DistanceMeters>
          </Trackpoint>
          <Trackpoint>
            <Time>2021-10-09T08:01:29.000Z</Time>
            <Position>
              <LatitudeDegrees>39.60247655399143695831298828125</LatitudeDegrees>
              <LongitudeDegrees>-0.6143916584551334381103515625</LongitudeDegrees>
            </Position>
            <AltitudeMeters>145.1999969482421875</AltitudeMeters>
            <DistanceMeters>31919.756426556</DistanceMeters>
          </Trackpoint>
          <Trackpoint>
            <Time>2021-10-09T08:01:30.000Z</Time>
            <Position>
              <LatitudeDegrees>39.60247152484953403472900390625</LatitudeDegrees>
              <LongitudeDegrees>-0.61446583829820156097412109375</LongitudeDegrees>
            </Position>
            <AltitudeMeters>145.399993896484375</AltitudeMeters>
            <DistanceMeters>31926.142334888</DistanceMeters>
          </Trackpoint>
          <Trackpoint>
            <Time>2021-10-09T08:01:31.000Z</Time>
            <Position>
              <LatitudeDegrees>39.6024685911834239959716796875</LatitudeDegrees>
              <LongitudeDegrees>-0.61453792266547679901123046875</LongitudeDegrees>
            </Position>
            <AltitudeMeters>145.600006103515625</AltitudeMeters>
            <DistanceMeters>31932.332944262</DistanceMeters>
          </Trackpoint>
          <Trackpoint>
            <Time>2021-10-09T08:01:32.000Z</Time>
            <Position>
              <LatitudeDegrees>39.60246431641280651092529296875</LatitudeDegrees>
              <LongitudeDegrees>-0.61461134813725948333740234375</LongitudeDegrees>
            </Position>
            <AltitudeMeters>145.600006103515625</AltitudeMeters>
            <DistanceMeters>31938.647753648</DistanceMeters>
          </Trackpoint>
          <Trackpoint>
            <Time>2021-10-09T08:01:33.000Z</Time>
            <Position>
              <LatitudeDegrees>39.602460376918315887451171875</LatitudeDegrees>
              <LongitudeDegrees>-0.6146853603422641754150390625</LongitudeDegrees>
            </Position>
            <AltitudeMeters>145.8000030517578125</AltitudeMeters>
            <DistanceMeters>31945.009577492</DistanceMeters>
          </Trackpoint>
          <Trackpoint>
            <Time>2021-10-09T08:01:34.000Z</Time>
            <Position>
              <LatitudeDegrees>39.60245761089026927947998046875</LatitudeDegrees>
              <LongitudeDegrees>-0.61475669033825397491455078125</LongitudeDegrees>
            </Position>
            <AltitudeMeters>146.1999969482421875</AltitudeMeters>
            <DistanceMeters>31951.134931982</DistanceMeters>
          </Trackpoint>
          <Trackpoint>
            <Time>2021-10-09T08:01:35.000Z</Time>
            <Position>
              <LatitudeDegrees>39.6024551801383495330810546875</LatitudeDegrees>
              <LongitudeDegrees>-0.61482693068683147430419921875</LongitudeDegrees>
            </Position>
            <AltitudeMeters>146.399993896484375</AltitudeMeters>
            <DistanceMeters>31957.164450019</DistanceMeters>
          </Trackpoint>
          <Trackpoint>
            <Time>2021-10-09T08:01:36.000Z</Time>
            <Position>
              <LatitudeDegrees>39.6024531684815883636474609375</LatitudeDegrees>
              <LongitudeDegrees>-0.614899434149265289306640625</LongitudeDegrees>
            </Position>
            <AltitudeMeters>146.600006103515625</AltitudeMeters>
            <DistanceMeters>31963.386341831</DistanceMeters>
          </Trackpoint>
          <Trackpoint>
            <Time>2021-10-09T08:01:37.000Z</Time>
            <Position>
              <LatitudeDegrees>39.60245090536773204803466796875</LatitudeDegrees>
              <LongitudeDegrees>-0.61497277580201625823974609375</LongitudeDegrees>
            </Position>
            <AltitudeMeters>146.600006103515625</AltitudeMeters>
            <DistanceMeters>31969.681099605</DistanceMeters>
          </Trackpoint>
          <Trackpoint>
            <Time>2021-10-09T08:01:38.000Z</Time>
            <Position>
              <LatitudeDegrees>39.6024498157203197479248046875</LatitudeDegrees>
              <LongitudeDegrees>-0.615047626197338104248046875</LongitudeDegrees>
            </Position>
            <AltitudeMeters>146.600006103515625</AltitudeMeters>
            <DistanceMeters>31976.100855744</DistanceMeters>
          </Trackpoint>
          <Trackpoint>
            <Time>2021-10-09T08:01:39.000Z</Time>
            <Position>
              <LatitudeDegrees>39.6024504862725734710693359375</LatitudeDegrees>
              <LongitudeDegrees>-0.61512264423072338104248046875</LongitudeDegrees>
            </Position>
            <AltitudeMeters>146.8000030517578125</AltitudeMeters>
            <DistanceMeters>31982.534662582</DistanceMeters>
          </Trackpoint>
          <Trackpoint>
            <Time>2021-10-09T08:01:40.000Z</Time>
            <Position>
              <LatitudeDegrees>39.60244989953935146331787109375</LatitudeDegrees>
              <LongitudeDegrees>-0.615199841558933258056640625</LongitudeDegrees>
            </Position>
            <AltitudeMeters>146.8000030517578125</AltitudeMeters>
            <DistanceMeters>31989.1552359</DistanceMeters>
          </Trackpoint>
          <Trackpoint>
            <Time>2021-10-09T08:01:41.000Z</Time>
            <Position>
              <LatitudeDegrees>39.6024501509964466094970703125</LatitudeDegrees>
              <LongitudeDegrees>-0.61527569778263568878173828125</LongitudeDegrees>
            </Position>
            <AltitudeMeters>146.8000030517578125</AltitudeMeters>
            <DistanceMeters>31995.660229229</DistanceMeters>
          </Trackpoint>
          <Trackpoint>
            <Time>2021-10-09T08:01:42.000Z</Time>
            <Position>
              <LatitudeDegrees>39.60245241411030292510986328125</LatitudeDegrees>
              <LongitudeDegrees>-0.61535130254924297332763671875</LongitudeDegrees>
            </Position>
            <AltitudeMeters>146.8000030517578125</AltitudeMeters>
            <DistanceMeters>32002.148543061</DistanceMeters>
          </Trackpoint>
          <Trackpoint>
            <Time>2021-10-09T08:01:43.000Z</Time>
            <Position>
              <LatitudeDegrees>39.60245375521481037139892578125</LatitudeDegrees>
              <LongitudeDegrees>-0.61542673967778682708740234375</LongitudeDegrees>
            </Position>
            <AltitudeMeters>146.8000030517578125</AltitudeMeters>
            <DistanceMeters>32008.620134407</DistanceMeters>
          </Trackpoint>
          <Trackpoint>
            <Time>2021-10-09T08:01:44.000Z</Time>
            <Position>
              <LatitudeDegrees>39.602453671395778656005859375</LatitudeDegrees>
              <LongitudeDegrees>-0.6155027635395526885986328125</LongitudeDegrees>
            </Position>
            <AltitudeMeters>146.8000030517578125</AltitudeMeters>
            <DistanceMeters>32015.138994717</DistanceMeters>
          </Trackpoint>
          <Trackpoint>
            <Time>2021-10-09T08:01:45.000Z</Time>
            <Position>
              <LatitudeDegrees>39.6024518273770809173583984375</LatitudeDegrees>
              <LongitudeDegrees>-0.6155765242874622344970703125</LongitudeDegrees>
            </Position>
            <AltitudeMeters>146.8000030517578125</AltitudeMeters>
            <DistanceMeters>32021.46737437</DistanceMeters>
          </Trackpoint>
          <Trackpoint>
            <Time>2021-10-09T08:01:46.000Z</Time>
            <Position>
              <LatitudeDegrees>39.602448977530002593994140625</LatitudeDegrees>
              <LongitudeDegrees>-0.61565036885440349578857421875</LongitudeDegrees>
            </Position>
            <AltitudeMeters>147</AltitudeMeters>
            <DistanceMeters>32027.808583277</DistanceMeters>
          </Trackpoint>
          <Trackpoint>
            <Time>2021-10-09T08:01:47.000Z</Time>
            <Position>
              <LatitudeDegrees>39.6024447865784168243408203125</LatitudeDegrees>
              <LongitudeDegrees>-0.61572379432618618011474609375</LongitudeDegrees>
            </Position>
            <AltitudeMeters>147</AltitudeMeters>
            <DistanceMeters>32034.123392663</DistanceMeters>
          </Trackpoint>
          <Trackpoint>
            <Time>2021-10-09T08:01:48.000Z</Time>
            <Position>
              <LatitudeDegrees>39.602441601455211639404296875</LatitudeDegrees>
              <LongitudeDegrees>-0.61579965054988861083984375</LongitudeDegrees>
            </Position>
            <AltitudeMeters>147</AltitudeMeters>
            <DistanceMeters>32040.638095978</DistanceMeters>
          </Trackpoint>
          <Trackpoint>
            <Time>2021-10-09T08:01:49.000Z</Time>
            <Position>
              <LatitudeDegrees>39.6024405956268310546875</LatitudeDegrees>
              <LongitudeDegrees>-0.61587433330714702606201171875</LongitudeDegrees>
            </Position>
            <AltitudeMeters>147</AltitudeMeters>
            <DistanceMeters>32047.044475411</DistanceMeters>
          </Trackpoint>
          <Trackpoint>
            <Time>2021-10-09T08:01:50.000Z</Time>
            <Position>
              <LatitudeDegrees>39.60244051180779933929443359375</LatitudeDegrees>
              <LongitudeDegrees>-0.6159356050193309783935546875</LongitudeDegrees>
            </Position>
            <AltitudeMeters>147</AltitudeMeters>
            <DistanceMeters>32052.299375388</DistanceMeters>
          </Trackpoint>
          <Trackpoint>
            <Time>2021-10-09T08:01:51.000Z</Time>
            <Position>
              <LatitudeDegrees>39.6024431101977825164794921875</LatitudeDegrees>
              <LongitudeDegrees>-0.61601229943335056304931640625</LongitudeDegrees>
            </Position>
            <AltitudeMeters>147</AltitudeMeters>
            <DistanceMeters>32058.883019282</DistanceMeters>
          </Trackpoint>
          <Trackpoint>
            <Time>2021-10-09T08:01:52.000Z</Time>
            <Position>
              <LatitudeDegrees>39.60244755260646343231201171875</LatitudeDegrees>
              <LongitudeDegrees>-0.61608756892383098602294921875</LongitudeDegrees>
            </Position>
            <AltitudeMeters>147.1999969482421875</AltitudeMeters>
            <DistanceMeters>32065.356005819</DistanceMeters>
          </Trackpoint>
          <Trackpoint>
            <Time>2021-10-09T08:01:53.000Z</Time>
            <Position>
              <LatitudeDegrees>39.60245358757674694061279296875</LatitudeDegrees>
              <LongitudeDegrees>-0.6161796860396862030029296875</LongitudeDegrees>
            </Position>
            <AltitudeMeters>147.1999969482421875</AltitudeMeters>
            <DistanceMeters>32073.283762882</DistanceMeters>
          </Trackpoint>
          <Trackpoint>
            <Time>2021-10-09T08:01:54.000Z</Time>
            <Position>
              <LatitudeDegrees>39.60246138274669647216796875</LatitudeDegrees>
              <LongitudeDegrees>-0.61625654809176921844482421875</LongitudeDegrees>
            </Position>
            <AltitudeMeters>147.1999969482421875</AltitudeMeters>
            <DistanceMeters>32079.931559067</DistanceMeters>
          </Trackpoint>
          <Trackpoint>
            <Time>2021-10-09T08:01:55.000Z</Time>
            <Position>
              <LatitudeDegrees>39.60247219540178775787353515625</LatitudeDegrees>
              <LongitudeDegrees>-0.6163325719535350799560546875</LongitudeDegrees>
            </Position>
            <AltitudeMeters>147.399993896484375</AltitudeMeters>
            <DistanceMeters>32086.561673103</DistanceMeters>
          </Trackpoint>
          <Trackpoint>
            <Time>2021-10-09T08:01:56.000Z</Time>
            <Position>
              <LatitudeDegrees>39.6024796552956104278564453125</LatitudeDegrees>
              <LongitudeDegrees>-0.6163932569324970245361328125</LongitudeDegrees>
            </Position>
            <AltitudeMeters>147.399993896484375</AltitudeMeters>
            <DistanceMeters>32091.831159327</DistanceMeters>
          </Trackpoint>
          <Trackpoint>
            <Time>2021-10-09T08:01:57.000Z</Time>
            <Position>
              <LatitudeDegrees>39.6024887077510356903076171875</LatitudeDegrees>
              <LongitudeDegrees>-0.61646810732781887054443359375</LongitudeDegrees>
            </Position>
            <AltitudeMeters>147.600006103515625</AltitudeMeters>
            <DistanceMeters>32098.329208068</DistanceMeters>
          </Trackpoint>
          <Trackpoint>
            <Time>2021-10-09T08:01:58.000Z</Time>
            <Position>
              <LatitudeDegrees>39.602501951158046722412109375</LatitudeDegrees>
              <LongitudeDegrees>-0.61655695550143718719482421875</LongitudeDegrees>
            </Position>
            <AltitudeMeters>147.600006103515625</AltitudeMeters>
            <DistanceMeters>32106.090046289</DistanceMeters>
          </Trackpoint>
          <Trackpoint>
            <Time>2021-10-09T08:01:59.000Z</Time>
            <Position>
              <LatitudeDegrees>39.602514021098613739013671875</LatitudeDegrees>
              <LongitudeDegrees>-0.6166302971541881561279296875</LongitudeDegrees>
            </Position>
            <AltitudeMeters>147.600006103515625</AltitudeMeters>
            <DistanceMeters>32112.521045442</DistanceMeters>
          </Trackpoint>
          <Trackpoint>
            <Time>2021-10-09T08:02:00.000Z</Time>
            <Position>
              <LatitudeDegrees>39.60252382792532444000244140625</LatitudeDegrees>
              <LongitudeDegrees>-0.61670531518757343292236328125</LongitudeDegrees>
            </Position>
            <AltitudeMeters>147.8000030517578125</AltitudeMeters>
            <DistanceMeters>32119.046828193</DistanceMeters>
          </Trackpoint>
          <Trackpoint>
            <Time>2021-10-09T08:02:01.000Z</Time>
            <Position>
              <LatitudeDegrees>39.6025332994759082794189453125</LatitudeDegrees>
              <LongitudeDegrees>-0.6167644076049327850341796875</LongitudeDegrees>
            </Position>
            <AltitudeMeters>147.8000030517578125</AltitudeMeters>
            <DistanceMeters>32124.223822194</DistanceMeters>
          </Trackpoint>
          <Trackpoint>
            <Time>2021-10-09T08:02:02.000Z</Time>
            <Position>
              <LatitudeDegrees>39.602544195950031280517578125</LatitudeDegrees>
              <LongitudeDegrees>-0.61683892272412776947021484375</LongitudeDegrees>
            </Position>
            <AltitudeMeters>147.8000030517578125</AltitudeMeters>
            <DistanceMeters>32130.728121398</DistanceMeters>
          </Trackpoint>
          <Trackpoint>
            <Time>2021-10-09T08:02:03.000Z</Time>
            <Position>
              <LatitudeDegrees>39.6025560982525348663330078125</LatitudeDegrees>
              <LongitudeDegrees>-0.6169296987354755401611328125</LongitudeDegrees>
            </Position>
            <AltitudeMeters>148</AltitudeMeters>
            <DistanceMeters>32138.625064346</DistanceMeters>
          </Trackpoint>
          <Trackpoint>
            <Time>2021-10-09T08:02:04.000Z</Time>
            <Position>
              <LatitudeDegrees>39.602564983069896697998046875</LatitudeDegrees>
              <LongitudeDegrees>-0.61700538732111454010009765625</LongitudeDegrees>
            </Position>
            <AltitudeMeters>148</AltitudeMeters>
            <DistanceMeters>32145.19016563</DistanceMeters>
          </Trackpoint>
          <Trackpoint>
            <Time>2021-10-09T08:02:05.000Z</Time>
            <Position>
              <LatitudeDegrees>39.602575041353702545166015625</LatitudeDegrees>
              <LongitudeDegrees>-0.61708115972578525543212890625</LongitudeDegrees>
            </Position>
            <AltitudeMeters>148.1999969482421875</AltitudeMeters>
            <DistanceMeters>32151.783403681</DistanceMeters>
          </Trackpoint>
          <Trackpoint>
            <Time>2021-10-09T08:02:06.000Z</Time>
            <Position>
              <LatitudeDegrees>39.60258468054234981536865234375</LatitudeDegrees>
              <LongitudeDegrees>-0.61714217998087406158447265625</LongitudeDegrees>
            </Position>
            <AltitudeMeters>148.1999969482421875</AltitudeMeters>
            <DistanceMeters>32157.125223742</DistanceMeters>
          </Trackpoint>
          <Trackpoint>
            <Time>2021-10-09T08:02:07.000Z</Time>
            <Position>
              <LatitudeDegrees>39.60259817540645599365234375</LatitudeDegrees>
              <LongitudeDegrees>-0.61723639257252216339111328125</LongitudeDegrees>
            </Position>
            <AltitudeMeters>148.1999969482421875</AltitudeMeters>
            <DistanceMeters>32165.343249157</DistanceMeters>
          </Trackpoint>
          <Trackpoint>
            <Time>2021-10-09T08:02:08.000Z</Time>
            <Position>
              <LatitudeDegrees>39.60260831750929355621337890625</LatitudeDegrees>
              <LongitudeDegrees>-0.6173156015574932098388671875</LongitudeDegrees>
            </Position>
            <AltitudeMeters>148.1999969482421875</AltitudeMeters>
            <DistanceMeters>32172.229244467</DistanceMeters>
          </Trackpoint>
          <Trackpoint>
            <Time>2021-10-09T08:02:09.000Z</Time>
            <Position>
              <LatitudeDegrees>39.60261804051697254180908203125</LatitudeDegrees>
              <LongitudeDegrees>-0.6173953972756862640380859375</LongitudeDegrees>
            </Position>
            <AltitudeMeters>148.399993896484375</AltitudeMeters>
            <DistanceMeters>32179.156424718</DistanceMeters>
          </Trackpoint>
          <Trackpoint>
            <Time>2021-10-09T08:02:10.000Z</Time>
            <Position>
              <LatitudeDegrees>39.6026291884481906890869140625</LatitudeDegrees>
              <LongitudeDegrees>-0.6174748577177524566650390625</LongitudeDegrees>
            </Position>
            <AltitudeMeters>148.399993896484375</AltitudeMeters>
            <DistanceMeters>32186.082301274</DistanceMeters>
          </Trackpoint>
          <Trackpoint>
            <Time>2021-10-09T08:02:11.000Z</Time>
            <Position>
              <LatitudeDegrees>39.60263907909393310546875</LatitudeDegrees>
              <LongitudeDegrees>-0.61755205504596233367919921875</LongitudeDegrees>
            </Position>
            <AltitudeMeters>148.399993896484375</AltitudeMeters>
            <DistanceMeters>32192.793636558</DistanceMeters>
          </Trackpoint>
          <Trackpoint>
            <Time>2021-10-09T08:02:12.000Z</Time>
            <Position>
              <LatitudeDegrees>39.6026503108441829681396484375</LatitudeDegrees>
              <LongitudeDegrees>-0.61762916855514049530029296875</LongitudeDegrees>
            </Position>
            <AltitudeMeters>148.399993896484375</AltitudeMeters>
            <DistanceMeters>32199.523782429</DistanceMeters>
          </Trackpoint>
          <Trackpoint>
            <Time>2021-10-09T08:02:13.000Z</Time>
            <Position>
              <LatitudeDegrees>39.6026607044041156768798828125</LatitudeDegrees>
              <LongitudeDegrees>-0.61770544387400150299072265625</LongitudeDegrees>
            </Position>
            <AltitudeMeters>148.399993896484375</AltitudeMeters>
            <DistanceMeters>32206.166142966</DistanceMeters>
          </Trackpoint>
          <Trackpoint>
            <Time>2021-10-09T08:02:14.000Z</Time>
            <Position>
              <LatitudeDegrees>39.602669589221477508544921875</LatitudeDegrees>
              <LongitudeDegrees>-0.61778574250638484954833984375</LongitudeDegrees>
            </Position>
            <AltitudeMeters>148.600006103515625</AltitudeMeters>
            <DistanceMeters>32213.121942675</DistanceMeters>
          </Trackpoint>
          <Trackpoint>
            <Time>2021-10-09T08:02:15.000Z</Time>
            <Position>
              <LatitudeDegrees>39.602679312229156494140625</LatitudeDegrees>
              <LongitudeDegrees>-0.61786453239619731903076171875</LongitudeDegrees>
            </Position>
            <AltitudeMeters>148.600006103515625</AltitudeMeters>
            <DistanceMeters>32219.96386611</DistanceMeters>
          </Trackpoint>
          <Trackpoint>
            <Time>2021-10-09T08:02:16.000Z</Time>
            <Position>
              <LatitudeDegrees>39.60269062779843807220458984375</LatitudeDegrees>
              <LongitudeDegrees>-0.6179442442953586578369140625</LongitudeDegrees>
            </Position>
            <AltitudeMeters>148.600006103515625</AltitudeMeters>
            <DistanceMeters>32226.915770103</DistanceMeters>
          </Trackpoint>
          <Trackpoint>
            <Time>2021-10-09T08:02:17.000Z</Time>
            <Position>
              <LatitudeDegrees>39.602701775729656219482421875</LatitudeDegrees>
              <LongitudeDegrees>-0.61802496202290058135986328125</LongitudeDegrees>
            </Position>
            <AltitudeMeters>148.8000030517578125</AltitudeMeters>
            <DistanceMeters>32233.947746966</DistanceMeters>
          </Trackpoint>
          <Trackpoint>
            <Time>2021-10-09T08:02:18.000Z</Time>
            <Position>
              <LatitudeDegrees>39.60271175019443035125732421875</LatitudeDegrees>
              <LongitudeDegrees>-0.61810232698917388916015625</LongitudeDegrees>
            </Position>
            <AltitudeMeters>148.8000030517578125</AltitudeMeters>
            <DistanceMeters>32240.673866426</DistanceMeters>
          </Trackpoint>
          <Trackpoint>
            <Time>2021-10-09T08:02:19.000Z</Time>
            <Position>
              <LatitudeDegrees>39.60272331722080707550048828125</LatitudeDegrees>
              <LongitudeDegrees>-0.6181780993938446044921875</LongitudeDegrees>
            </Position>
            <AltitudeMeters>148.8000030517578125</AltitudeMeters>
            <DistanceMeters>32247.298530305</DistanceMeters>
          </Trackpoint>
          <Trackpoint>
            <Time>2021-10-09T08:02:20.000Z</Time>
            <Position>
              <LatitudeDegrees>39.602734632790088653564453125</LatitudeDegrees>
              <LongitudeDegrees>-0.61825579963624477386474609375</LongitudeDegrees>
            </Position>
            <AltitudeMeters>148.8000030517578125</AltitudeMeters>
            <DistanceMeters>32254.07947045</DistanceMeters>
          </Trackpoint>
          <Trackpoint>
            <Time>2021-10-09T08:02:21.000Z</Time>
            <Position>
              <LatitudeDegrees>39.60274561308324337005615234375</LatitudeDegrees>
              <LongitudeDegrees>-0.6183324940502643585205078125</LongitudeDegrees>
            </Position>
            <AltitudeMeters>149</AltitudeMeters>
            <DistanceMeters>32260.768568206</DistanceMeters>
          </Trackpoint>
          <Trackpoint>
            <Time>2021-10-09T08:02:22.000Z</Time>
            <Position>
              <LatitudeDegrees>39.6027572639286518096923828125</LatitudeDegrees>
              <LongitudeDegrees>-0.6184092722833156585693359375</LongitudeDegrees>
            </Position>
            <AltitudeMeters>149</AltitudeMeters>
            <DistanceMeters>32267.47990349</DistanceMeters>
          </Trackpoint>
          <Trackpoint>
            <Time>2021-10-09T08:02:23.000Z</Time>
            <Position>
              <LatitudeDegrees>39.60276715457439422607421875</LatitudeDegrees>
              <LongitudeDegrees>-0.61848663724958896636962890625</LongitudeDegrees>
            </Position>
            <AltitudeMeters>149</AltitudeMeters>
            <DistanceMeters>32274.204680277</DistanceMeters>
          </Trackpoint>
          <Trackpoint>
            <Time>2021-10-09T08:02:24.000Z</Time>
            <Position>
              <LatitudeDegrees>39.60277788341045379638671875</LatitudeDegrees>
              <LongitudeDegrees>-0.6185621581971645355224609375</LongitudeDegrees>
            </Position>
            <AltitudeMeters>149</AltitudeMeters>
            <DistanceMeters>32280.789695621</DistanceMeters>
          </Trackpoint>
          <Trackpoint>
            <Time>2021-10-09T08:02:25.000Z</Time>
            <Position>
              <LatitudeDegrees>39.6027867682278156280517578125</LatitudeDegrees>
              <LongitudeDegrees>-0.61864002607762813568115234375</LongitudeDegrees>
            </Position>
            <AltitudeMeters>149</AltitudeMeters>
            <DistanceMeters>32287.539937523</DistanceMeters>
          </Trackpoint>
          <Trackpoint>
            <Time>2021-10-09T08:02:26.000Z</Time>
            <Position>
              <LatitudeDegrees>39.60279473103582859039306640625</LatitudeDegrees>
              <LongitudeDegrees>-0.6187170557677745819091796875</LongitudeDegrees>
            </Position>
            <AltitudeMeters>149</AltitudeMeters>
            <DistanceMeters>32294.20536895</DistanceMeters>
          </Trackpoint>
          <Trackpoint>
            <Time>2021-10-09T08:02:27.000Z</Time>
            <Position>
              <LatitudeDegrees>39.60280696861445903778076171875</LatitudeDegrees>
              <LongitudeDegrees>-0.61879701912403106689453125</LongitudeDegrees>
            </Position>
            <AltitudeMeters>149</AltitudeMeters>
            <DistanceMeters>32301.196132407</DistanceMeters>
          </Trackpoint>
          <Trackpoint>
            <Time>2021-10-09T08:02:28.000Z</Time>
            <Position>
              <LatitudeDegrees>39.60281811654567718505859375</LatitudeDegrees>
              <LongitudeDegrees>-0.6188746355473995208740234375</LongitudeDegrees>
            </Position>
            <AltitudeMeters>149</AltitudeMeters>
            <DistanceMeters>32307.96641069</DistanceMeters>
          </Trackpoint>
          <Trackpoint>
            <Time>2021-10-09T08:02:29.000Z</Time>
            <Position>
              <LatitudeDegrees>39.60282750427722930908203125</LatitudeDegrees>
              <LongitudeDegrees>-0.618952251970767974853515625</LongitudeDegrees>
            </Position>
            <AltitudeMeters>149</AltitudeMeters>
            <DistanceMeters>32314.703261899</DistanceMeters>
          </Trackpoint>
          <Trackpoint>
            <Time>2021-10-09T08:02:30.000Z</Time>
            <Position>
              <LatitudeDegrees>39.6028370596468448638916015625</LatitudeDegrees>
              <LongitudeDegrees>-0.61902928166091442108154296875</LongitudeDegrees>
            </Position>
            <AltitudeMeters>149</AltitudeMeters>
            <DistanceMeters>32321.393034605</DistanceMeters>
          </Trackpoint>
          <Trackpoint>
            <Time>2021-10-09T08:02:31.000Z</Time>
            <Position>
              <LatitudeDegrees>39.60284720174968242645263671875</LatitudeDegrees>
              <LongitudeDegrees>-0.61910840682685375213623046875</LongitudeDegrees>
            </Position>
            <AltitudeMeters>149</AltitudeMeters>
            <DistanceMeters>32328.271813607</DistanceMeters>
          </Trackpoint>
          <Trackpoint>
            <Time>2021-10-09T08:02:32.000Z</Time>
            <Position>
              <LatitudeDegrees>39.602857343852519989013671875</LatitudeDegrees>
              <LongitudeDegrees>-0.61918803490698337554931640625</LongitudeDegrees>
            </Position>
            <AltitudeMeters>149.1999969482421875</AltitudeMeters>
            <DistanceMeters>32335.193777607</DistanceMeters>
          </Trackpoint>
          <Trackpoint>
            <Time>2021-10-09T08:02:33.000Z</Time>
            <Position>
              <LatitudeDegrees>39.6028682403266429901123046875</LatitudeDegrees>
              <LongitudeDegrees>-0.61926749534904956817626953125</LongitudeDegrees>
            </Position>
            <AltitudeMeters>149.399993896484375</AltitudeMeters>
            <DistanceMeters>32342.115741607</DistanceMeters>
          </Trackpoint>
          <Trackpoint>
            <Time>2021-10-09T08:02:34.000Z</Time>
            <Position>
              <LatitudeDegrees>39.602878130972385406494140625</LatitudeDegrees>
              <LongitudeDegrees>-0.61934829689562320709228515625</LongitudeDegrees>
            </Position>
            <AltitudeMeters>149.399993896484375</AltitudeMeters>
            <DistanceMeters>32349.132291811</DistanceMeters>
          </Trackpoint>
          <Trackpoint>
            <Time>2021-10-09T08:02:35.000Z</Time>
            <Position>
              <LatitudeDegrees>39.602888859808444976806640625</LatitudeDegrees>
              <LongitudeDegrees>-0.619427673518657684326171875</LongitudeDegrees>
            </Position>
            <AltitudeMeters>149.8000030517578125</AltitudeMeters>
            <DistanceMeters>32356.042504849</DistanceMeters>
          </Trackpoint>
          <Trackpoint>
            <Time>2021-10-09T08:02:36.000Z</Time>
            <Position>
              <LatitudeDegrees>39.60290034301578998565673828125</LatitudeDegrees>
              <LongitudeDegrees>-0.619507133960723876953125</LongitudeDegrees>
            </Position>
            <AltitudeMeters>149.8000030517578125</AltitudeMeters>
            <DistanceMeters>32362.975548691</DistanceMeters>
          </Trackpoint>
          <Trackpoint>
            <Time>2021-10-09T08:02:37.000Z</Time>
            <Position>
              <LatitudeDegrees>39.60290956310927867889404296875</LatitudeDegrees>
              <LongitudeDegrees>-0.61958651058375835418701171875</LongitudeDegrees>
            </Position>
            <AltitudeMeters>150</AltitudeMeters>
            <DistanceMeters>32369.859576667</DistanceMeters>
          </Trackpoint>
          <Trackpoint>
            <Time>2021-10-09T08:02:38.000Z</Time>
            <Position>
              <LatitudeDegrees>39.602918364107608795166015625</LatitudeDegrees>
              <LongitudeDegrees>-0.619665049016475677490234375</LongitudeDegrees>
            </Position>
            <AltitudeMeters>150</AltitudeMeters>
            <DistanceMeters>32376.665771798</DistanceMeters>
          </Trackpoint>
          <Trackpoint>
            <Time>2021-10-09T08:02:39.000Z</Time>
            <Position>
              <LatitudeDegrees>39.60292850621044635772705078125</LatitudeDegrees>
              <LongitudeDegrees>-0.61974425800144672393798828125</LongitudeDegrees>
            </Position>
            <AltitudeMeters>150</AltitudeMeters>
            <DistanceMeters>32383.551111393</DistanceMeters>
          </Trackpoint>
          <Trackpoint>
            <Time>2021-10-09T08:02:40.000Z</Time>
            <Position>
              <LatitudeDegrees>39.6029373072087764739990234375</LatitudeDegrees>
              <LongitudeDegrees>-0.61982296407222747802734375</LongitudeDegrees>
            </Position>
            <AltitudeMeters>150</AltitudeMeters>
            <DistanceMeters>32390.371223104</DistanceMeters>
          </Trackpoint>
          <Trackpoint>
            <Time>2021-10-09T08:02:41.000Z</Time>
            <Position>
              <LatitudeDegrees>39.6029460243880748748779296875</LatitudeDegrees>
              <LongitudeDegrees>-0.61989932321012020111083984375</LongitudeDegrees>
            </Position>
            <AltitudeMeters>150</AltitudeMeters>
            <DistanceMeters>32396.991114416</DistanceMeters>
          </Trackpoint>
          <Trackpoint>
            <Time>2021-10-09T08:02:42.000Z</Time>
            <Position>
              <LatitudeDegrees>39.60295666940510272979736328125</LatitudeDegrees>
              <LongitudeDegrees>-0.61997425742447376251220703125</LongitudeDegrees>
            </Position>
            <AltitudeMeters>150</AltitudeMeters>
            <DistanceMeters>32403.525194415</DistanceMeters>
          </Trackpoint>
          <Trackpoint>
            <Time>2021-10-09T08:02:43.000Z</Time>
            <Position>
              <LatitudeDegrees>39.60296823643147945404052734375</LatitudeDegrees>
              <LongitudeDegrees>-0.62004835344851016998291015625</LongitudeDegrees>
            </Position>
            <AltitudeMeters>150</AltitudeMeters>
            <DistanceMeters>32410.008635311</DistanceMeters>
          </Trackpoint>
          <Trackpoint>
            <Time>2021-10-09T08:02:44.000Z</Time>
            <Position>
              <LatitudeDegrees>39.60297745652496814727783203125</LatitudeDegrees>
              <LongitudeDegrees>-0.6201215274631977081298828125</LongitudeDegrees>
            </Position>
            <AltitudeMeters>150.1999969482421875</AltitudeMeters>
            <DistanceMeters>32416.367619688</DistanceMeters>
          </Trackpoint>
          <Trackpoint>
            <Time>2021-10-09T08:02:45.000Z</Time>
            <Position>
              <LatitudeDegrees>39.602985084056854248046875</LatitudeDegrees>
              <LongitudeDegrees>-0.62019646167755126953125</LongitudeDegrees>
            </Position>
            <AltitudeMeters>150.1999969482421875</AltitudeMeters>
            <DistanceMeters>32422.850364151</DistanceMeters>
          </Trackpoint>
          <Trackpoint>
            <Time>2021-10-09T08:02:46.000Z</Time>
            <Position>
              <LatitudeDegrees>39.6029943041503429412841796875</LatitudeDegrees>
              <LongitudeDegrees>-0.6202703900635242462158203125</LongitudeDegrees>
            </Position>
            <AltitudeMeters>150.399993896484375</AltitudeMeters>
            <DistanceMeters>32429.272932889</DistanceMeters>
          </Trackpoint>
          <Trackpoint>
            <Time>2021-10-09T08:02:47.000Z</Time>
            <Position>
              <LatitudeDegrees>39.60300453007221221923828125</LatitudeDegrees>
              <LongitudeDegrees>-0.62034599483013153076171875</LongitudeDegrees>
            </Position>
            <AltitudeMeters>150.399993896484375</AltitudeMeters>
            <DistanceMeters>32435.856576784</DistanceMeters>
          </Trackpoint>
          <Trackpoint>
            <Time>2021-10-09T08:02:48.000Z</Time>
            <Position>
              <LatitudeDegrees>39.60301416926085948944091796875</LatitudeDegrees>
              <LongitudeDegrees>-0.62042319215834140777587890625</LongitudeDegrees>
            </Position>
            <AltitudeMeters>150.399993896484375</AltitudeMeters>
            <DistanceMeters>32442.563874365</DistanceMeters>
          </Trackpoint>
          <Trackpoint>
            <Time>2021-10-09T08:02:49.000Z</Time>
            <Position>
              <LatitudeDegrees>39.60302305407822132110595703125</LatitudeDegrees>
              <LongitudeDegrees>-0.62050013802945613861083984375</LongitudeDegrees>
            </Position>
            <AltitudeMeters>150.600006103515625</AltitudeMeters>
            <DistanceMeters>32449.236076166</DistanceMeters>
          </Trackpoint>
          <Trackpoint>
            <Time>2021-10-09T08:02:50.000Z</Time>
            <Position>
              <LatitudeDegrees>39.60303126834332942962646484375</LatitudeDegrees>
              <LongitudeDegrees>-0.62057825736701488494873046875</LongitudeDegrees>
            </Position>
            <AltitudeMeters>150.8000030517578125</AltitudeMeters>
            <DistanceMeters>32455.99834702</DistanceMeters>
          </Trackpoint>
          <Trackpoint>
            <Time>2021-10-09T08:02:51.000Z</Time>
            <Position>
              <LatitudeDegrees>39.6030415780842304229736328125</LatitudeDegrees>
              <LongitudeDegrees>-0.62065537087619304656982421875</LongitudeDegrees>
            </Position>
            <AltitudeMeters>150.8000030517578125</AltitudeMeters>
            <DistanceMeters>32462.709682305</DistanceMeters>
          </Trackpoint>
          <Trackpoint>
            <Time>2021-10-09T08:02:52.000Z</Time>
            <Position>
              <LatitudeDegrees>39.60305146872997283935546875</LatitudeDegrees>
              <LongitudeDegrees>-0.62073357403278350830078125</LongitudeDegrees>
            </Position>
            <AltitudeMeters>151</AltitudeMeters>
            <DistanceMeters>32469.505255197</DistanceMeters>
          </Trackpoint>
          <Trackpoint>
            <Time>2021-10-09T08:02:53.000Z</Time>
            <Position>
              <LatitudeDegrees>39.60306161083281040191650390625</LatitudeDegrees>
              <LongitudeDegrees>-0.6208115257322788238525390625</LongitudeDegrees>
            </Position>
            <AltitudeMeters>151</AltitudeMeters>
            <DistanceMeters>32476.284863527</DistanceMeters>
          </Trackpoint>
          <Trackpoint>
            <Time>2021-10-09T08:02:54.000Z</Time>
            <Position>
              <LatitudeDegrees>39.6030710823833942413330078125</LatitudeDegrees>
              <LongitudeDegrees>-0.62088805250823497772216796875</LongitudeDegrees>
            </Position>
            <AltitudeMeters>151.1999969482421875</AltitudeMeters>
            <DistanceMeters>32482.931301216</DistanceMeters>
          </Trackpoint>
          <Trackpoint>
            <Time>2021-10-09T08:02:55.000Z</Time>
            <Position>
              <LatitudeDegrees>39.60308072157204151153564453125</LatitudeDegrees>
              <LongitudeDegrees>-0.62096214853227138519287109375</LongitudeDegrees>
            </Position>
            <AltitudeMeters>151.399993896484375</AltitudeMeters>
            <DistanceMeters>32489.375625973</DistanceMeters>
          </Trackpoint>
          <Trackpoint>
            <Time>2021-10-09T08:02:56.000Z</Time>
            <Position>
              <LatitudeDegrees>39.6030908636748790740966796875</LatitudeDegrees>
              <LongitudeDegrees>-0.6210361607372760772705078125</LongitudeDegrees>
            </Position>
            <AltitudeMeters>151.600006103515625</AltitudeMeters>
            <DistanceMeters>32495.822052254</DistanceMeters>
          </Trackpoint>
          <Trackpoint>
            <Time>2021-10-09T08:02:57.000Z</Time>
            <Position>
              <LatitudeDegrees>39.60309966467320919036865234375</LatitudeDegrees>
              <LongitudeDegrees>-0.621108077466487884521484375</LongitudeDegrees>
            </Position>
            <AltitudeMeters>151.600006103515625</AltitudeMeters>
            <DistanceMeters>32502.066399304</DistanceMeters>
          </Trackpoint>
          <Trackpoint>
            <Time>2021-10-09T08:02:58.000Z</Time>
            <Position>
              <LatitudeDegrees>39.6031086333096027374267578125</LatitudeDegrees>
              <LongitudeDegrees>-0.62118058092892169952392578125</LongitudeDegrees>
            </Position>
            <AltitudeMeters>152</AltitudeMeters>
            <DistanceMeters>32508.364025503</DistanceMeters>
          </Trackpoint>
          <Trackpoint>
            <Time>2021-10-09T08:02:59.000Z</Time>
            <Position>
              <LatitudeDegrees>39.60311927832663059234619140625</LatitudeDegrees>
              <LongitudeDegrees>-0.62125400640070438385009765625</LongitudeDegrees>
            </Position>
            <AltitudeMeters>152.1999969482421875</AltitudeMeters>
            <DistanceMeters>32514.772518904</DistanceMeters>
          </Trackpoint>
          <Trackpoint>
            <Time>2021-10-09T08:03:00.000Z</Time>
            <Position>
              <LatitudeDegrees>39.603129588067531585693359375</LatitudeDegrees>
              <LongitudeDegrees>-0.62132743187248706817626953125</LongitudeDegrees>
            </Position>
            <AltitudeMeters>152.1999969482421875</AltitudeMeters>
            <DistanceMeters>32521.17396303</DistanceMeters>
          </Trackpoint>
          <Trackpoint>
            <Time>2021-10-09T08:03:01.000Z</Time>
            <Position>
              <LatitudeDegrees>39.60313872434198856353759765625</LatitudeDegrees>
              <LongitudeDegrees>-0.62140136025846004486083984375</LongitudeDegrees>
            </Position>
            <AltitudeMeters>152.399993896484375</AltitudeMeters>
            <DistanceMeters>32527.595125623</DistanceMeters>
          </Trackpoint>
          <Trackpoint>
            <Time>2021-10-09T08:03:02.000Z</Time>
            <Position>
              <LatitudeDegrees>39.60314827971160411834716796875</LatitudeDegrees>
              <LongitudeDegrees>-0.62147595919668674468994140625</LongitudeDegrees>
            </Position>
            <AltitudeMeters>152.399993896484375</AltitudeMeters>
            <DistanceMeters>32534.080655368</DistanceMeters>
          </Trackpoint>
          <Trackpoint>
            <Time>2021-10-09T08:03:03.000Z</Time>
            <Position>
              <LatitudeDegrees>39.603158421814441680908203125</LatitudeDegrees>
              <LongitudeDegrees>-0.6215481273829936981201171875</LongitudeDegrees>
            </Position>
            <AltitudeMeters>152.399993896484375</AltitudeMeters>
            <DistanceMeters>32540.37254341</DistanceMeters>
          </Trackpoint>
          <Trackpoint>
            <Time>2021-10-09T08:03:04.000Z</Time>
            <Position>
              <LatitudeDegrees>39.6031673066318035125732421875</LatitudeDegrees>
              <LongitudeDegrees>-0.62161928974092006683349609375</LongitudeDegrees>
            </Position>
            <AltitudeMeters>152.399993896484375</AltitudeMeters>
            <DistanceMeters>32546.555124876</DistanceMeters>
          </Trackpoint>
          <Trackpoint>
            <Time>2021-10-09T08:03:05.000Z</Time>
            <Position>
              <LatitudeDegrees>39.603176526725292205810546875</LatitudeDegrees>
              <LongitudeDegrees>-0.62168969772756099700927734375</LongitudeDegrees>
            </Position>
            <AltitudeMeters>152.399993896484375</AltitudeMeters>
            <DistanceMeters>32552.679742215</DistanceMeters>
          </Trackpoint>
          <Trackpoint>
            <Time>2021-10-09T08:03:06.000Z</Time>
            <Position>
              <LatitudeDegrees>39.60318583063781261444091796875</LatitudeDegrees>
              <LongitudeDegrees>-0.62175641767680644989013671875</LongitudeDegrees>
            </Position>
            <AltitudeMeters>152.600006103515625</AltitudeMeters>
            <DistanceMeters>32558.494259066</DistanceMeters>
          </Trackpoint>
          <Trackpoint>
            <Time>2021-10-09T08:03:07.000Z</Time>
            <Position>
              <LatitudeDegrees>39.6031941287219524383544921875</LatitudeDegrees>
              <LongitudeDegrees>-0.621823556721210479736328125</LongitudeDegrees>
            </Position>
            <AltitudeMeters>152.600006103515625</AltitudeMeters>
            <DistanceMeters>32564.325834144</DistanceMeters>
          </Trackpoint>
          <Trackpoint>
            <Time>2021-10-09T08:03:08.000Z</Time>
            <Position>
              <LatitudeDegrees>39.603202342987060546875</LatitudeDegrees>
              <LongitudeDegrees>-0.6218897737562656402587890625</LongitudeDegrees>
            </Position>
            <AltitudeMeters>152.600006103515625</AltitudeMeters>
            <DistanceMeters>32570.077894652</DistanceMeters>
          </Trackpoint>
          <Trackpoint>
            <Time>2021-10-09T08:03:09.000Z</Time>
            <Position>
              <LatitudeDegrees>39.60321080870926380157470703125</LatitudeDegrees>
              <LongitudeDegrees>-0.62195532023906707763671875</LongitudeDegrees>
            </Position>
            <AltitudeMeters>152.600006103515625</AltitudeMeters>
            <DistanceMeters>32575.777121351</DistanceMeters>
          </Trackpoint>
          <Trackpoint>
            <Time>2021-10-09T08:03:10.000Z</Time>
            <Position>
              <LatitudeDegrees>39.60321986116468906402587890625</LatitudeDegrees>
              <LongitudeDegrees>-0.62202128581702709197998046875</LongitudeDegrees>
            </Position>
            <AltitudeMeters>152.600006103515625</AltitudeMeters>
            <DistanceMeters>32581.523684633</DistanceMeters>
          </Trackpoint>
          <Trackpoint>
            <Time>2021-10-09T08:03:11.000Z</Time>
            <Position>
              <LatitudeDegrees>39.60322857834398746490478515625</LatitudeDegrees>
              <LongitudeDegrees>-0.62208632938563823699951171875</LongitudeDegrees>
            </Position>
            <AltitudeMeters>152.600006103515625</AltitudeMeters>
            <DistanceMeters>32587.185554587</DistanceMeters>
          </Trackpoint>
          <Trackpoint>
            <Time>2021-10-09T08:03:12.000Z</Time>
            <Position>
              <LatitudeDegrees>39.603237211704254150390625</LatitudeDegrees>
              <LongitudeDegrees>-0.622152797877788543701171875</LongitudeDegrees>
            </Position>
            <AltitudeMeters>152.8000030517578125</AltitudeMeters>
            <DistanceMeters>32592.965803963</DistanceMeters>
          </Trackpoint>
          <Trackpoint>
            <Time>2021-10-09T08:03:13.000Z</Time>
            <Position>
              <LatitudeDegrees>39.60324668325483798980712890625</LatitudeDegrees>
              <LongitudeDegrees>-0.6222201883792877197265625</LongitudeDegrees>
            </Position>
            <AltitudeMeters>153</AltitudeMeters>
            <DistanceMeters>32598.839039188</DistanceMeters>
          </Trackpoint>
          <Trackpoint>
            <Time>2021-10-09T08:03:14.000Z</Time>
            <Position>
              <LatitudeDegrees>39.6032546460628509521484375</LatitudeDegrees>
              <LongitudeDegrees>-0.62228791415691375732421875</LongitudeDegrees>
            </Position>
            <AltitudeMeters>153.1999969482421875</AltitudeMeters>
            <DistanceMeters>32604.713811709</DistanceMeters>
          </Trackpoint>
          <Trackpoint>
            <Time>2021-10-09T08:03:15.000Z</Time>
            <Position>
              <LatitudeDegrees>39.60326336324214935302734375</LatitudeDegrees>
              <LongitudeDegrees>-0.622355639934539794921875</LongitudeDegrees>
            </Position>
            <AltitudeMeters>153.1999969482421875</AltitudeMeters>
            <DistanceMeters>32610.601635031</DistanceMeters>
          </Trackpoint>
          <Trackpoint>
            <Time>2021-10-09T08:03:16.000Z</Time>
            <Position>
              <LatitudeDegrees>39.6032722480595111846923828125</LatitudeDegrees>
              <LongitudeDegrees>-0.62242328189313411712646484375</LongitudeDegrees>
            </Position>
            <AltitudeMeters>153.399993896484375</AltitudeMeters>
            <DistanceMeters>32616.485622886</DistanceMeters>
          </Trackpoint>
          <Trackpoint>
            <Time>2021-10-09T08:03:17.000Z</Time>
            <Position>
              <LatitudeDegrees>39.60328037850558757781982421875</LatitudeDegrees>
              <LongitudeDegrees>-0.62249000184237957000732421875</LongitudeDegrees>
            </Position>
            <AltitudeMeters>153.399993896484375</AltitudeMeters>
            <DistanceMeters>32622.278356616</DistanceMeters>
          </Trackpoint>
          <Trackpoint>
            <Time>2021-10-09T08:03:18.000Z</Time>
            <Position>
              <LatitudeDegrees>39.60328750312328338623046875</LatitudeDegrees>
              <LongitudeDegrees>-0.62255345284938812255859375</LongitudeDegrees>
            </Position>
            <AltitudeMeters>153.399993896484375</AltitudeMeters>
            <DistanceMeters>32627.776783294</DistanceMeters>
          </Trackpoint>
          <Trackpoint>
            <Time>2021-10-09T08:03:19.000Z</Time>
            <Position>
              <LatitudeDegrees>39.6032948791980743408203125</LatitudeDegrees>
              <LongitudeDegrees>-0.6226183287799358367919921875</LongitudeDegrees>
            </Position>
            <AltitudeMeters>153.600006103515625</AltitudeMeters>
            <DistanceMeters>32633.400245547</DistanceMeters>
          </Trackpoint>
          <Trackpoint>
            <Time>2021-10-09T08:03:20.000Z</Time>
            <Position>
              <LatitudeDegrees>39.60330368019640445709228515625</LatitudeDegrees>
              <LongitudeDegrees>-0.62268395908176898956298828125</LongitudeDegrees>
            </Position>
            <AltitudeMeters>153.600006103515625</AltitudeMeters>
            <DistanceMeters>32639.113714401</DistanceMeters>
          </Trackpoint>
          <Trackpoint>
            <Time>2021-10-09T08:03:21.000Z</Time>
            <Position>
              <LatitudeDegrees>39.603311978280544281005859375</LatitudeDegrees>
              <LongitudeDegrees>-0.622749589383602142333984375</LongitudeDegrees>
            </Position>
            <AltitudeMeters>154</AltitudeMeters>
            <DistanceMeters>32644.817692436</DistanceMeters>
          </Trackpoint>
          <Trackpoint>
            <Time>2021-10-09T08:03:22.000Z</Time>
            <Position>
              <LatitudeDegrees>39.60332111455500125885009765625</LatitudeDegrees>
              <LongitudeDegrees>-0.62281471677124500274658203125</LongitudeDegrees>
            </Position>
            <AltitudeMeters>154.1999969482421875</AltitudeMeters>
            <DistanceMeters>32650.493898277</DistanceMeters>
          </Trackpoint>
          <Trackpoint>
            <Time>2021-10-09T08:03:23.000Z</Time>
            <Position>
              <LatitudeDegrees>39.60333134047687053680419921875</LatitudeDegrees>
              <LongitudeDegrees>-0.62287976033985614776611328125</LongitudeDegrees>
            </Position>
            <AltitudeMeters>154.399993896484375</AltitudeMeters>
            <DistanceMeters>32656.185990536</DistanceMeters>
          </Trackpoint>
          <Trackpoint>
            <Time>2021-10-09T08:03:24.000Z</Time>
            <Position>
              <LatitudeDegrees>39.60334206931293010711669921875</LatitudeDegrees>
              <LongitudeDegrees>-0.6229443848133087158203125</LongitudeDegrees>
            </Position>
            <AltitudeMeters>154.600006103515625</AltitudeMeters>
            <DistanceMeters>32661.854236472</DistanceMeters>
          </Trackpoint>
          <Trackpoint>
            <Time>2021-10-09T08:03:25.000Z</Time>
            <Position>
              <LatitudeDegrees>39.60334919393062591552734375</LatitudeDegrees>
              <LongitudeDegrees>-0.6229951791465282440185546875</LongitudeDegrees>
            </Position>
            <AltitudeMeters>154.8000030517578125</AltitudeMeters>
            <DistanceMeters>32666.281910349</DistanceMeters>
          </Trackpoint>
          <Trackpoint>
            <Time>2021-10-09T08:03:26.000Z</Time>
            <Position>
              <LatitudeDegrees>39.60335581563413143157958984375</LatitudeDegrees>
              <LongitudeDegrees>-0.623060055077075958251953125</LongitudeDegrees>
            </Position>
            <AltitudeMeters>155</AltitudeMeters>
            <DistanceMeters>32671.894120843</DistanceMeters>
          </Trackpoint>
          <Trackpoint>
            <Time>2021-10-09T08:03:27.000Z</Time>
            <Position>
              <LatitudeDegrees>39.60336453281342983245849609375</LatitudeDegrees>
              <LongitudeDegrees>-0.6231380067765712738037109375</LongitudeDegrees>
            </Position>
            <AltitudeMeters>155</AltitudeMeters>
            <DistanceMeters>32678.649711591</DistanceMeters>
          </Trackpoint>
          <Trackpoint>
            <Time>2021-10-09T08:03:28.000Z</Time>
            <Position>
              <LatitudeDegrees>39.60337475873529911041259765625</LatitudeDegrees>
              <LongitudeDegrees>-0.62320028431713581085205078125</LongitudeDegrees>
            </Position>
            <AltitudeMeters>155</AltitudeMeters>
            <DistanceMeters>32684.111061469</DistanceMeters>
          </Trackpoint>
          <Trackpoint>
            <Time>2021-10-09T08:03:29.000Z</Time>
            <Position>
              <LatitudeDegrees>39.6033835597336292266845703125</LatitudeDegrees>
              <LongitudeDegrees>-0.62326566316187381744384765625</LongitudeDegrees>
            </Position>
            <AltitudeMeters>155.1999969482421875</AltitudeMeters>
            <DistanceMeters>32689.803153728</DistanceMeters>
          </Trackpoint>
          <Trackpoint>
            <Time>2021-10-09T08:03:30.000Z</Time>
            <Position>
              <LatitudeDegrees>39.6033912710845470428466796875</LatitudeDegrees>
              <LongitudeDegrees>-0.62331830151379108428955078125</LongitudeDegrees>
            </Position>
            <AltitudeMeters>155.1999969482421875</AltitudeMeters>
            <DistanceMeters>32694.397968058</DistanceMeters>
          </Trackpoint>
          <Trackpoint>
            <Time>2021-10-09T08:03:31.000Z</Time>
            <Position>
              <LatitudeDegrees>39.60340107791125774383544921875</LatitudeDegrees>
              <LongitudeDegrees>-0.6233824230730533599853515625</LongitudeDegrees>
            </Position>
            <AltitudeMeters>155.1999969482421875</AltitudeMeters>
            <DistanceMeters>32700.004544206</DistanceMeters>
          </Trackpoint>
          <Trackpoint>
            <Time>2021-10-09T08:03:32.000Z</Time>
            <Position>
              <LatitudeDegrees>39.60341113619506359100341796875</LatitudeDegrees>
              <LongitudeDegrees>-0.62345693819224834442138671875</LongitudeDegrees>
            </Position>
            <AltitudeMeters>155.1999969482421875</AltitudeMeters>
            <DistanceMeters>32706.491466144</DistanceMeters>
          </Trackpoint>
          <Trackpoint>
            <Time>2021-10-09T08:03:33.000Z</Time>
            <Position>
              <LatitudeDegrees>39.60341918282210826873779296875</LatitudeDegrees>
              <LongitudeDegrees>-0.6235195510089397430419921875</LongitudeDegrees>
            </Position>
            <AltitudeMeters>155.399993896484375</AltitudeMeters>
            <DistanceMeters>32711.93459767</DistanceMeters>
          </Trackpoint>
          <Trackpoint>
            <Time>2021-10-09T08:03:34.000Z</Time>
            <Position>
              <LatitudeDegrees>39.60342622362077236175537109375</LatitudeDegrees>
              <LongitudeDegrees>-0.62358283437788486480712890625</LongitudeDegrees>
            </Position>
            <AltitudeMeters>155.399993896484375</AltitudeMeters>
            <DistanceMeters>32717.416576729</DistanceMeters>
          </Trackpoint>
          <Trackpoint>
            <Time>2021-10-09T08:03:35.000Z</Time>
            <Position>
              <LatitudeDegrees>39.60343108512461185455322265625</LatitudeDegrees>
              <LongitudeDegrees>-0.623648799955844879150390625</LongitudeDegrees>
            </Position>
            <AltitudeMeters>155.600006103515625</AltitudeMeters>
            <DistanceMeters>32723.099142467</DistanceMeters>
          </Trackpoint>
          <Trackpoint>
            <Time>2021-10-09T08:03:36.000Z</Time>
            <Position>
              <LatitudeDegrees>39.60343477316200733184814453125</LatitudeDegrees>
              <LongitudeDegrees>-0.6237153522670269012451171875</LongitudeDegrees>
            </Position>
            <AltitudeMeters>155.8000030517578125</AltitudeMeters>
            <DistanceMeters>32728.821297409</DistanceMeters>
          </Trackpoint>
          <Trackpoint>
            <Time>2021-10-09T08:03:37.000Z</Time>
            <Position>
              <LatitudeDegrees>39.60343837738037109375</LatitudeDegrees>
              <LongitudeDegrees>-0.6237830780446529388427734375</LongitudeDegrees>
            </Position>
            <AltitudeMeters>155.8000030517578125</AltitudeMeters>
            <DistanceMeters>32734.643574195</DistanceMeters>
          </Trackpoint>
          <Trackpoint>
            <Time>2021-10-09T08:03:38.000Z</Time>
            <Position>
              <LatitudeDegrees>39.6034435741603374481201171875</LatitudeDegrees>
              <LongitudeDegrees>-0.6238496303558349609375</LongitudeDegrees>
            </Position>
            <AltitudeMeters>156</AltitudeMeters>
            <DistanceMeters>32740.379914366</DistanceMeters>
          </Trackpoint>
          <Trackpoint>
            <Time>2021-10-09T08:03:39.000Z</Time>
            <Position>
              <LatitudeDegrees>39.6034496091306209564208984375</LatitudeDegrees>
              <LongitudeDegrees>-0.623917020857334136962890625</LongitudeDegrees>
            </Position>
            <AltitudeMeters>156.1999969482421875</AltitudeMeters>
            <DistanceMeters>32746.197536433</DistanceMeters>
          </Trackpoint>
          <Trackpoint>
            <Time>2021-10-09T08:03:40.000Z</Time>
            <Position>
              <LatitudeDegrees>39.6034546382725238800048828125</LatitudeDegrees>
              <LongitudeDegrees>-0.62398415990173816680908203125</LongitudeDegrees>
            </Position>
            <AltitudeMeters>156.600006103515625</AltitudeMeters>
            <DistanceMeters>32751.982470599</DistanceMeters>
          </Trackpoint>
          <Trackpoint>
            <Time>2021-10-09T08:03:41.000Z</Time>
            <Position>
              <LatitudeDegrees>39.603460840880870819091796875</LatitudeDegrees>
              <LongitudeDegrees>-0.6240519694983959197998046875</LongitudeDegrees>
            </Position>
            <AltitudeMeters>156.600006103515625</AltitudeMeters>
            <DistanceMeters>32757.838768946</DistanceMeters>
          </Trackpoint>
          <Trackpoint>
            <Time>2021-10-09T08:03:42.000Z</Time>
            <Position>
              <LatitudeDegrees>39.6034650318324565887451171875</LatitudeDegrees>
              <LongitudeDegrees>-0.62412078492343425750732421875</LongitudeDegrees>
            </Position>
            <AltitudeMeters>157</AltitudeMeters>
            <DistanceMeters>32763.759474711</DistanceMeters>
          </Trackpoint>
          <Trackpoint>
            <Time>2021-10-09T08:03:43.000Z</Time>
            <Position>
              <LatitudeDegrees>39.603469558060169219970703125</LatitudeDegrees>
              <LongitudeDegrees>-0.62418934889137744903564453125</LongitudeDegrees>
            </Position>
            <AltitudeMeters>157.1999969482421875</AltitudeMeters>
            <DistanceMeters>32769.66031997</DistanceMeters>
          </Trackpoint>
          <Trackpoint>
            <Time>2021-10-09T08:03:44.000Z</Time>
            <Position>
              <LatitudeDegrees>39.60347366519272327423095703125</LatitudeDegrees>
              <LongitudeDegrees>-0.62425640411674976348876953125</LongitudeDegrees>
            </Position>
            <AltitudeMeters>157.1999969482421875</AltitudeMeters>
            <DistanceMeters>32775.428057969</DistanceMeters>
          </Trackpoint>
          <Trackpoint>
            <Time>2021-10-09T08:03:45.000Z</Time>
            <Position>
              <LatitudeDegrees>39.60347768850624561309814453125</LatitudeDegrees>
              <LongitudeDegrees>-0.62432329170405864715576171875</LongitudeDegrees>
            </Position>
            <AltitudeMeters>157.399993896484375</AltitudeMeters>
            <DistanceMeters>32781.181688148</DistanceMeters>
          </Trackpoint>
          <Trackpoint>
            <Time>2021-10-09T08:03:46.000Z</Time>
            <Position>
              <LatitudeDegrees>39.603481292724609375</LatitudeDegrees>
              <LongitudeDegrees>-0.62439001165330410003662109375</LongitudeDegrees>
            </Position>
            <AltitudeMeters>157.399993896484375</AltitudeMeters>
            <DistanceMeters>32786.916453916</DistanceMeters>
          </Trackpoint>
          <Trackpoint>
            <Time>2021-10-09T08:03:47.000Z</Time>
            <Position>
              <LatitudeDegrees>39.60348456166684627532958984375</LatitudeDegrees>
              <LongitudeDegrees>-0.62445790506899356842041015625</LongitudeDegrees>
            </Position>
            <AltitudeMeters>157.399993896484375</AltitudeMeters>
            <DistanceMeters>32792.750351251</DistanceMeters>
          </Trackpoint>
          <Trackpoint>
            <Time>2021-10-09T08:03:48.000Z</Time>
            <Position>
              <LatitudeDegrees>39.6034885011613368988037109375</LatitudeDegrees>
              <LongitudeDegrees>-0.62452487647533416748046875</LongitudeDegrees>
            </Position>
            <AltitudeMeters>157.399993896484375</AltitudeMeters>
            <DistanceMeters>32798.510255838</DistanceMeters>
          </Trackpoint>
          <Trackpoint>
            <Time>2021-10-09T08:03:49.000Z</Time>
            <Position>
              <LatitudeDegrees>39.6034920215606689453125</LatitudeDegrees>
              <LongitudeDegrees>-0.624590925872325897216796875</LongitudeDegrees>
            </Position>
            <AltitudeMeters>157.600006103515625</AltitudeMeters>
            <DistanceMeters>32804.188052321</DistanceMeters>
          </Trackpoint>
          <Trackpoint>
            <Time>2021-10-09T08:03:50.000Z</Time>
            <Position>
              <LatitudeDegrees>39.603497050702571868896484375</LatitudeDegrees>
              <LongitudeDegrees>-0.62465806491672992706298828125</LongitudeDegrees>
            </Position>
            <AltitudeMeters>157.600006103515625</AltitudeMeters>
            <DistanceMeters>32809.972986487</DistanceMeters>
          </Trackpoint>
          <Trackpoint>
            <Time>2021-10-09T08:03:51.000Z</Time>
            <Position>
              <LatitudeDegrees>39.60350099019706249237060546875</LatitudeDegrees>
              <LongitudeDegrees>-0.624725706875324249267578125</LongitudeDegrees>
            </Position>
            <AltitudeMeters>157.600006103515625</AltitudeMeters>
            <DistanceMeters>32815.789832405</DistanceMeters>
          </Trackpoint>
          <Trackpoint>
            <Time>2021-10-09T08:03:52.000Z</Time>
            <Position>
              <LatitudeDegrees>39.6035029180347919464111328125</LatitudeDegrees>
              <LongitudeDegrees>-0.62479368411004543304443359375</LongitudeDegrees>
            </Position>
            <AltitudeMeters>157.600006103515625</AltitudeMeters>
            <DistanceMeters>32821.622955757</DistanceMeters>
          </Trackpoint>
          <Trackpoint>
            <Time>2021-10-09T08:03:53.000Z</Time>
            <Position>
              <LatitudeDegrees>39.60350551642477512359619140625</LatitudeDegrees>
              <LongitudeDegrees>-0.62486040405929088592529296875</LongitudeDegrees>
            </Position>
            <AltitudeMeters>157.600006103515625</AltitudeMeters>
            <DistanceMeters>32827.352207705</DistanceMeters>
          </Trackpoint>
          <Trackpoint>
            <Time>2021-10-09T08:03:54.000Z</Time>
            <Position>
              <LatitudeDegrees>39.60351037792861461639404296875</LatitudeDegrees>
              <LongitudeDegrees>-0.62492628581821918487548828125</LongitudeDegrees>
            </Position>
            <AltitudeMeters>157.8000030517578125</AltitudeMeters>
            <DistanceMeters>32833.027618058</DistanceMeters>
          </Trackpoint>
          <Trackpoint>
            <Time>2021-10-09T08:03:55.000Z</Time>
            <Position>
              <LatitudeDegrees>39.60351674817502498626708984375</LatitudeDegrees>
              <LongitudeDegrees>-0.62499225139617919921875</LongitudeDegrees>
            </Position>
            <AltitudeMeters>157.8000030517578125</AltitudeMeters>
            <DistanceMeters>32838.72922092</DistanceMeters>
          </Trackpoint>
          <Trackpoint>
            <Time>2021-10-09T08:03:56.000Z</Time>
            <Position>
              <LatitudeDegrees>39.603520520031452178955078125</LatitudeDegrees>
              <LongitudeDegrees>-0.62505955807864665985107421875</LongitudeDegrees>
            </Position>
            <AltitudeMeters>158</AltitudeMeters>
            <DistanceMeters>32844.515715839</DistanceMeters>
          </Trackpoint>
          <Trackpoint>
            <Time>2021-10-09T08:03:57.000Z</Time>
            <Position>
              <LatitudeDegrees>39.60352362133562564849853515625</LatitudeDegrees>
              <LongitudeDegrees>-0.62512661330401897430419921875</LongitudeDegrees>
            </Position>
            <AltitudeMeters>158.1999969482421875</AltitudeMeters>
            <DistanceMeters>32850.276404247</DistanceMeters>
          </Trackpoint>
          <Trackpoint>
            <Time>2021-10-09T08:03:58.000Z</Time>
            <Position>
              <LatitudeDegrees>39.6035257168114185333251953125</LatitudeDegrees>
              <LongitudeDegrees>-0.625194422900676727294921875</LongitudeDegrees>
            </Position>
            <AltitudeMeters>158.399993896484375</AltitudeMeters>
            <DistanceMeters>32856.097129874</DistanceMeters>
          </Trackpoint>
          <Trackpoint>
            <Time>2021-10-09T08:03:59.000Z</Time>
            <Position>
              <LatitudeDegrees>39.60352781228721141815185546875</LatitudeDegrees>
              <LongitudeDegrees>-0.62526047229766845703125</LongitudeDegrees>
            </Position>
            <AltitudeMeters>158.399993896484375</AltitudeMeters>
            <DistanceMeters>32861.766172303</DistanceMeters>
          </Trackpoint>
          <Trackpoint>
            <Time>2021-10-09T08:04:00.000Z</Time>
            <Position>
              <LatitudeDegrees>39.6035314165055751800537109375</LatitudeDegrees>
              <LongitudeDegrees>-0.625327192246913909912109375</LongitudeDegrees>
            </Position>
            <AltitudeMeters>158.600006103515625</AltitudeMeters>
            <DistanceMeters>32867.501725326</DistanceMeters>
          </Trackpoint>
          <Trackpoint>
            <Time>2021-10-09T08:04:01.000Z</Time>
            <Position>
              <LatitudeDegrees>39.60353451780974864959716796875</LatitudeDegrees>
              <LongitudeDegrees>-0.62539315782487392425537109375</LongitudeDegrees>
            </Position>
            <AltitudeMeters>158.8000030517578125</AltitudeMeters>
            <DistanceMeters>32873.169971262</DistanceMeters>
          </Trackpoint>
          <Trackpoint>
            <Time>2021-10-09T08:04:02.000Z</Time>
            <Position>
              <LatitudeDegrees>39.6035381220281124114990234375</LatitudeDegrees>
              <LongitudeDegrees>-0.6254591234028339385986328125</LongitudeDegrees>
            </Position>
            <AltitudeMeters>159</AltitudeMeters>
            <DistanceMeters>32878.8414025</DistanceMeters>
          </Trackpoint>
          <Trackpoint>
            <Time>2021-10-09T08:04:03.000Z</Time>
            <Position>
              <LatitudeDegrees>39.603542983531951904296875</LatitudeDegrees>
              <LongitudeDegrees>-0.62552525661885738372802734375</LongitudeDegrees>
            </Position>
            <AltitudeMeters>159</AltitudeMeters>
            <DistanceMeters>32884.53904454</DistanceMeters>
          </Trackpoint>
          <Trackpoint>
            <Time>2021-10-09T08:04:04.000Z</Time>
            <Position>
              <LatitudeDegrees>39.6035485155880451202392578125</LatitudeDegrees>
              <LongitudeDegrees>-0.62559315003454685211181640625</LongitudeDegrees>
            </Position>
            <AltitudeMeters>159</AltitudeMeters>
            <DistanceMeters>32890.393800742</DistanceMeters>
          </Trackpoint>
          <Trackpoint>
            <Time>2021-10-09T08:04:05.000Z</Time>
            <Position>
              <LatitudeDegrees>39.60355513729155063629150390625</LatitudeDegrees>
              <LongitudeDegrees>-0.62565986998379230499267578125</LongitudeDegrees>
            </Position>
            <AltitudeMeters>159</AltitudeMeters>
            <DistanceMeters>32896.161538741</DistanceMeters>
          </Trackpoint>
          <Trackpoint>
            <Time>2021-10-09T08:04:06.000Z</Time>
            <Position>
              <LatitudeDegrees>39.60355849005281925201416015625</LatitudeDegrees>
              <LongitudeDegrees>-0.62572625465691089630126953125</LongitudeDegrees>
            </Position>
            <AltitudeMeters>159.1999969482421875</AltitudeMeters>
            <DistanceMeters>32901.867099675</DistanceMeters>
          </Trackpoint>
          <Trackpoint>
            <Time>2021-10-09T08:04:07.000Z</Time>
            <Position>
              <LatitudeDegrees>39.6035605855286121368408203125</LatitudeDegrees>
              <LongitudeDegrees>-0.62579280696809291839599609375</LongitudeDegrees>
            </Position>
            <AltitudeMeters>159.1999969482421875</AltitudeMeters>
            <DistanceMeters>32907.57977823</DistanceMeters>
          </Trackpoint>
          <Trackpoint>
            <Time>2021-10-09T08:04:08.000Z</Time>
            <Position>
              <LatitudeDegrees>39.60356184281408786773681640625</LatitudeDegrees>
              <LongitudeDegrees>-0.62586053274571895599365234375</LongitudeDegrees>
            </Position>
            <AltitudeMeters>159.1999969482421875</AltitudeMeters>
            <DistanceMeters>32913.389634145</DistanceMeters>
          </Trackpoint>
          <Trackpoint>
            <Time>2021-10-09T08:04:09.000Z</Time>
            <Position>
              <LatitudeDegrees>39.60356536321341991424560546875</LatitudeDegrees>
              <LongitudeDegrees>-0.625930018723011016845703125</LongitudeDegrees>
            </Position>
            <AltitudeMeters>159.399993896484375</AltitudeMeters>
            <DistanceMeters>32919.361214495</DistanceMeters>
          </Trackpoint>
          <Trackpoint>
            <Time>2021-10-09T08:04:10.000Z</Time>
            <Position>
              <LatitudeDegrees>39.60356779396533966064453125</LatitudeDegrees>
              <LongitudeDegrees>-0.62600017525255680084228515625</LongitudeDegrees>
            </Position>
            <AltitudeMeters>159.399993896484375</AltitudeMeters>
            <DistanceMeters>32925.383239652</DistanceMeters>
          </Trackpoint>
          <Trackpoint>
            <Time>2021-10-09T08:04:11.000Z</Time>
            <Position>
              <LatitudeDegrees>39.6035711467266082763671875</LatitudeDegrees>
              <LongitudeDegrees>-0.62607008032500743865966796875</LongitudeDegrees>
            </Position>
            <AltitudeMeters>159.399993896484375</AltitudeMeters>
            <DistanceMeters>32931.389499336</DistanceMeters>
          </Trackpoint>
          <Trackpoint>
            <Time>2021-10-09T08:04:12.000Z</Time>
            <Position>
              <LatitudeDegrees>39.6035753376781940460205078125</LatitudeDegrees>
              <LongitudeDegrees>-0.62613897956907749176025390625</LongitudeDegrees>
            </Position>
            <AltitudeMeters>159.600006103515625</AltitudeMeters>
            <DistanceMeters>32937.316302637</DistanceMeters>
          </Trackpoint>
          <Trackpoint>
            <Time>2021-10-09T08:04:13.000Z</Time>
            <Position>
              <LatitudeDegrees>39.603578187525272369384765625</LatitudeDegrees>
              <LongitudeDegrees>-0.626209639012813568115234375</LongitudeDegrees>
            </Position>
            <AltitudeMeters>159.8000030517578125</AltitudeMeters>
            <DistanceMeters>32943.383146264</DistanceMeters>
          </Trackpoint>
          <Trackpoint>
            <Time>2021-10-09T08:04:14.000Z</Time>
            <Position>
              <LatitudeDegrees>39.603584222495555877685546875</LatitudeDegrees>
              <LongitudeDegrees>-0.6262792088091373443603515625</LongitudeDegrees>
            </Position>
            <AltitudeMeters>159.8000030517578125</AltitudeMeters>
            <DistanceMeters>32949.387150358</DistanceMeters>
          </Trackpoint>
          <Trackpoint>
            <Time>2021-10-09T08:04:15.000Z</Time>
            <Position>
              <LatitudeDegrees>39.603589586913585662841796875</LatitudeDegrees>
              <LongitudeDegrees>-0.6263506226241588592529296875</LongitudeDegrees>
            </Position>
            <AltitudeMeters>160</AltitudeMeters>
            <DistanceMeters>32955.539717339</DistanceMeters>
          </Trackpoint>
          <Trackpoint>
            <Time>2021-10-09T08:04:16.000Z</Time>
            <Position>
              <LatitudeDegrees>39.60359327495098114013671875</LatitudeDegrees>
              <LongitudeDegrees>-0.6264247186481952667236328125</LongitudeDegrees>
            </Position>
            <AltitudeMeters>160</AltitudeMeters>
            <DistanceMeters>32961.906507201</DistanceMeters>
          </Trackpoint>
          <Trackpoint>
            <Time>2021-10-09T08:04:17.000Z</Time>
            <Position>
              <LatitudeDegrees>39.60359805263578891754150390625</LatitudeDegrees>
              <LongitudeDegrees>-0.626497976481914520263671875</LongitudeDegrees>
            </Position>
            <AltitudeMeters>160</AltitudeMeters>
            <DistanceMeters>32968.210582584</DistanceMeters>
          </Trackpoint>
          <Trackpoint>
            <Time>2021-10-09T08:04:18.000Z</Time>
            <Position>
              <LatitudeDegrees>39.6036018244922161102294921875</LatitudeDegrees>
              <LongitudeDegrees>-0.62657232396304607391357421875</LongitudeDegrees>
            </Position>
            <AltitudeMeters>160.1999969482421875</AltitudeMeters>
            <DistanceMeters>32974.599318416</DistanceMeters>
          </Trackpoint>
          <Trackpoint>
            <Time>2021-10-09T08:04:19.000Z</Time>
            <Position>
              <LatitudeDegrees>39.6036055125296115875244140625</LatitudeDegrees>
              <LongitudeDegrees>-0.626648850739002227783203125</LongitudeDegrees>
            </Position>
            <AltitudeMeters>160.1999969482421875</AltitudeMeters>
            <DistanceMeters>32981.174727606</DistanceMeters>
          </Trackpoint>
          <Trackpoint>
            <Time>2021-10-09T08:04:20.000Z</Time>
            <Position>
              <LatitudeDegrees>39.60361163131892681121826171875</LatitudeDegrees>
              <LongitudeDegrees>-0.62672588042914867401123046875</LongitudeDegrees>
            </Position>
            <AltitudeMeters>160.1999969482421875</AltitudeMeters>
            <DistanceMeters>32987.815728536</DistanceMeters>
          </Trackpoint>
          <Trackpoint>
            <Time>2021-10-09T08:04:21.000Z</Time>
            <Position>
              <LatitudeDegrees>39.60361540317535400390625</LatitudeDegrees>
              <LongitudeDegrees>-0.62680081464350223541259765625</LongitudeDegrees>
            </Position>
            <AltitudeMeters>160.1999969482421875</AltitudeMeters>
            <DistanceMeters>32994.256549227</DistanceMeters>
          </Trackpoint>
          <Trackpoint>
            <Time>2021-10-09T08:04:22.000Z</Time>
            <Position>
              <LatitudeDegrees>39.60361749865114688873291015625</LatitudeDegrees>
              <LongitudeDegrees>-0.6268743239343166351318359375</LongitudeDegrees>
            </Position>
            <AltitudeMeters>160.399993896484375</AltitudeMeters>
            <DistanceMeters>33000.564920403</DistanceMeters>
          </Trackpoint>
          <Trackpoint>
            <Time>2021-10-09T08:04:23.000Z</Time>
            <Position>
              <LatitudeDegrees>39.60361951030790805816650390625</LatitudeDegrees>
              <LongitudeDegrees>-0.62694565393030643463134765625</LongitudeDegrees>
            </Position>
            <AltitudeMeters>160.399993896484375</AltitudeMeters>
            <DistanceMeters>33006.685850656</DistanceMeters>
          </Trackpoint>
          <Trackpoint>
            <Time>2021-10-09T08:04:24.000Z</Time>
            <Position>
              <LatitudeDegrees>39.603622443974018096923828125</LatitudeDegrees>
              <LongitudeDegrees>-0.62701790593564510345458984375</LongitudeDegrees>
            </Position>
            <AltitudeMeters>160.399993896484375</AltitudeMeters>
            <DistanceMeters>33012.891029619</DistanceMeters>
          </Trackpoint>
          <Trackpoint>
            <Time>2021-10-09T08:04:25.000Z</Time>
            <Position>
              <LatitudeDegrees>39.6036266349256038665771484375</LatitudeDegrees>
              <LongitudeDegrees>-0.6270889006555080413818359375</LongitudeDegrees>
            </Position>
            <AltitudeMeters>160.600006103515625</AltitudeMeters>
            <DistanceMeters>33018.997189266</DistanceMeters>
          </Trackpoint>
          <Trackpoint>
            <Time>2021-10-09T08:04:26.000Z</Time>
            <Position>
              <LatitudeDegrees>39.60363174788653850555419921875</LatitudeDegrees>
              <LongitudeDegrees>-0.62715905718505382537841796875</LongitudeDegrees>
            </Position>
            <AltitudeMeters>160.600006103515625</AltitudeMeters>
            <DistanceMeters>33025.040171075</DistanceMeters>
          </Trackpoint>
          <Trackpoint>
            <Time>2021-10-09T08:04:27.000Z</Time>
            <Position>
              <LatitudeDegrees>39.603634178638458251953125</LatitudeDegrees>
              <LongitudeDegrees>-0.6272287108004093170166015625</LongitudeDegrees>
            </Position>
            <AltitudeMeters>160.8000030517578125</AltitudeMeters>
            <DistanceMeters>33031.019307521</DistanceMeters>
          </Trackpoint>
          <Trackpoint>
            <Time>2021-10-09T08:04:28.000Z</Time>
            <Position>
              <LatitudeDegrees>39.60363744758069515228271484375</LatitudeDegrees>
              <LongitudeDegrees>-0.62729668803513050079345703125</LongitudeDegrees>
            </Position>
            <AltitudeMeters>160.8000030517578125</AltitudeMeters>
            <DistanceMeters>33036.860166088</DistanceMeters>
          </Trackpoint>
          <Trackpoint>
            <Time>2021-10-09T08:04:29.000Z</Time>
            <Position>
              <LatitudeDegrees>39.6036397106945514678955078125</LatitudeDegrees>
              <LongitudeDegrees>-0.6273646652698516845703125</LongitudeDegrees>
            </Position>
            <AltitudeMeters>161.1999969482421875</AltitudeMeters>
            <DistanceMeters>33042.694837304</DistanceMeters>
          </Trackpoint>
          <Trackpoint>
            <Time>2021-10-09T08:04:30.000Z</Time>
            <Position>
              <LatitudeDegrees>39.6036435663700103759765625</LatitudeDegrees>
              <LongitudeDegrees>-0.62743381597101688385009765625</LongitudeDegrees>
            </Position>
            <AltitudeMeters>161.1999969482421875</AltitudeMeters>
            <DistanceMeters>33048.639895689</DistanceMeters>
          </Trackpoint>
          <Trackpoint>
            <Time>2021-10-09T08:04:31.000Z</Time>
            <Position>
              <LatitudeDegrees>39.60364758968353271484375</LatitudeDegrees>
              <LongitudeDegrees>-0.62750187702476978302001953125</LongitudeDegrees>
            </Position>
            <AltitudeMeters>161.399993896484375</AltitudeMeters>
            <DistanceMeters>33054.493880665</DistanceMeters>
          </Trackpoint>
          <Trackpoint>
            <Time>2021-10-09T08:04:32.000Z</Time>
            <Position>
              <LatitudeDegrees>39.6036511100828647613525390625</LatitudeDegrees>
              <LongitudeDegrees>-0.62756977044045925140380859375</LongitudeDegrees>
            </Position>
            <AltitudeMeters>161.399993896484375</AltitudeMeters>
            <DistanceMeters>33060.330099334</DistanceMeters>
          </Trackpoint>
          <Trackpoint>
            <Time>2021-10-09T08:04:33.000Z</Time>
            <Position>
              <LatitudeDegrees>39.603653959929943084716796875</LatitudeDegrees>
              <LongitudeDegrees>-0.62763690948486328125</LongitudeDegrees>
            </Position>
            <AltitudeMeters>161.600006103515625</AltitudeMeters>
            <DistanceMeters>33066.09705447</DistanceMeters>
          </Trackpoint>
          <Trackpoint>
            <Time>2021-10-09T08:04:34.000Z</Time>
            <Position>
              <LatitudeDegrees>39.6036568097770214080810546875</LatitudeDegrees>
              <LongitudeDegrees>-0.6276903860270977020263671875</LongitudeDegrees>
            </Position>
            <AltitudeMeters>161.600006103515625</AltitudeMeters>
            <DistanceMeters>33070.693833655</DistanceMeters>
          </Trackpoint>
          <Trackpoint>
            <Time>2021-10-09T08:04:35.000Z</Time>
            <Position>
              <LatitudeDegrees>39.6036625094711780548095703125</LatitudeDegrees>
              <LongitudeDegrees>-0.627772696316242218017578125</LongitudeDegrees>
            </Position>
            <AltitudeMeters>161.8000030517578125</AltitudeMeters>
            <DistanceMeters>33077.780813631</DistanceMeters>
          </Trackpoint>
          <Trackpoint>
            <Time>2021-10-09T08:04:36.000Z</Time>
            <Position>
              <LatitudeDegrees>39.603666700422763824462890625</LatitudeDegrees>
              <LongitudeDegrees>-0.62783966772258281707763671875</LongitudeDegrees>
            </Position>
            <AltitudeMeters>161.8000030517578125</AltitudeMeters>
            <DistanceMeters>33083.542285753</DistanceMeters>
          </Trackpoint>
          <Trackpoint>
            <Time>2021-10-09T08:04:37.000Z</Time>
            <Position>
              <LatitudeDegrees>39.6036708913743495941162109375</LatitudeDegrees>
              <LongitudeDegrees>-0.62790504656732082366943359375</LongitudeDegrees>
            </Position>
            <AltitudeMeters>162</AltitudeMeters>
            <DistanceMeters>33089.168156169</DistanceMeters>
          </Trackpoint>
          <Trackpoint>
            <Time>2021-10-09T08:04:38.000Z</Time>
            <Position>
              <LatitudeDegrees>39.60367382504045963287353515625</LatitudeDegrees>
              <LongitudeDegrees>-0.6279599480330944061279296875</LongitudeDegrees>
            </Position>
            <AltitudeMeters>162.1999969482421875</AltitudeMeters>
            <DistanceMeters>33093.8870722</DistanceMeters>
          </Trackpoint>
          <Trackpoint>
            <Time>2021-10-09T08:04:39.000Z</Time>
            <Position>
              <LatitudeDegrees>39.6036789380013942718505859375</LatitudeDegrees>
              <LongitudeDegrees>-0.62804150395095348358154296875</LongitudeDegrees>
            </Position>
            <AltitudeMeters>162.1999969482421875</AltitudeMeters>
            <DistanceMeters>33100.903622405</DistanceMeters>
          </Trackpoint>
          <Trackpoint>
            <Time>2021-10-09T08:04:40.000Z</Time>
            <Position>
              <LatitudeDegrees>39.60368421860039234161376953125</LatitudeDegrees>
              <LongitudeDegrees>-0.628110654652118682861328125</LongitudeDegrees>
            </Position>
            <AltitudeMeters>162.1999969482421875</AltitudeMeters>
            <DistanceMeters>33106.862335401</DistanceMeters>
          </Trackpoint>
          <Trackpoint>
            <Time>2021-10-09T08:04:41.000Z</Time>
            <Position>
              <LatitudeDegrees>39.60369025357067584991455078125</LatitudeDegrees>
              <LongitudeDegrees>-0.62818081118166446685791015625</LongitudeDegrees>
            </Position>
            <AltitudeMeters>162.399993896484375</AltitudeMeters>
            <DistanceMeters>33112.915768329</DistanceMeters>
          </Trackpoint>
          <Trackpoint>
            <Time>2021-10-09T08:04:42.000Z</Time>
            <Position>
              <LatitudeDegrees>39.60369385778903961181640625</LatitudeDegrees>
              <LongitudeDegrees>-0.62825172208249568939208984375</LongitudeDegrees>
            </Position>
            <AltitudeMeters>162.399993896484375</AltitudeMeters>
            <DistanceMeters>33119.009344811</DistanceMeters>
          </Trackpoint>
          <Trackpoint>
            <Time>2021-10-09T08:04:43.000Z</Time>
            <Position>
              <LatitudeDegrees>39.60369762964546680450439453125</LatitudeDegrees>
              <LongitudeDegrees>-0.62832263298332691192626953125</LongitudeDegrees>
            </Position>
            <AltitudeMeters>162.600006103515625</AltitudeMeters>
            <DistanceMeters>33125.104403013</DistanceMeters>
          </Trackpoint>
          <Trackpoint>
            <Time>2021-10-09T08:04:44.000Z</Time>
            <Position>
              <LatitudeDegrees>39.60370064713060855865478515625</LatitudeDegrees>
              <LongitudeDegrees>-0.62839371152222156524658203125</LongitudeDegrees>
            </Position>
            <AltitudeMeters>162.600006103515625</AltitudeMeters>
            <DistanceMeters>33131.208343987</DistanceMeters>
          </Trackpoint>
          <Trackpoint>
            <Time>2021-10-09T08:04:45.000Z</Time>
            <Position>
              <LatitudeDegrees>39.60370299406349658966064453125</LatitudeDegrees>
              <LongitudeDegrees>-0.6284658797085285186767578125</LongitudeDegrees>
            </Position>
            <AltitudeMeters>162.600006103515625</AltitudeMeters>
            <DistanceMeters>33137.402598971</DistanceMeters>
          </Trackpoint>
          <Trackpoint>
            <Time>2021-10-09T08:04:46.000Z</Time>
            <Position>
              <LatitudeDegrees>39.60370701737701892852783203125</LatitudeDegrees>
              <LongitudeDegrees>-0.62853737734258174896240234375</LongitudeDegrees>
            </Position>
            <AltitudeMeters>162.8000030517578125</AltitudeMeters>
            <DistanceMeters>33143.550761297</DistanceMeters>
          </Trackpoint>
          <Trackpoint>
            <Time>2021-10-09T08:04:47.000Z</Time>
            <Position>
              <LatitudeDegrees>39.60371137596666812896728515625</LatitudeDegrees>
              <LongitudeDegrees>-0.62860912643373012542724609375</LongitudeDegrees>
            </Position>
            <AltitudeMeters>163</AltitudeMeters>
            <DistanceMeters>33149.722378787</DistanceMeters>
          </Trackpoint>
          <Trackpoint>
            <Time>2021-10-09T08:04:48.000Z</Time>
            <Position>
              <LatitudeDegrees>39.60371389053761959075927734375</LatitudeDegrees>
              <LongitudeDegrees>-0.6286693923175334930419921875</LongitudeDegrees>
            </Position>
            <AltitudeMeters>163</AltitudeMeters>
            <DistanceMeters>33154.897628224</DistanceMeters>
          </Trackpoint>
          <Trackpoint>
            <Time>2021-10-09T08:04:49.000Z</Time>
            <Position>
              <LatitudeDegrees>39.603720009326934814453125</LatitudeDegrees>
              <LongitudeDegrees>-0.62875698320567607879638671875</LongitudeDegrees>
            </Position>
            <AltitudeMeters>163.1999969482421875</AltitudeMeters>
            <DistanceMeters>33162.439541212</DistanceMeters>
          </Trackpoint>
          <Trackpoint>
            <Time>2021-10-09T08:04:50.000Z</Time>
            <Position>
              <LatitudeDegrees>39.6037240326404571533203125</LatitudeDegrees>
              <LongitudeDegrees>-0.628825463354587554931640625</LongitudeDegrees>
            </Position>
            <AltitudeMeters>163.399993896484375</AltitudeMeters>
            <DistanceMeters>33168.329664615</DistanceMeters>
          </Trackpoint>
          <Trackpoint>
            <Time>2021-10-09T08:04:51.000Z</Time>
            <Position>
              <LatitudeDegrees>39.60372646339237689971923828125</LatitudeDegrees>
              <LongitudeDegrees>-0.62889377586543560028076171875</LongitudeDegrees>
            </Position>
            <AltitudeMeters>163.399993896484375</AltitudeMeters>
            <DistanceMeters>33174.193667607</DistanceMeters>
          </Trackpoint>
          <Trackpoint>
            <Time>2021-10-09T08:04:52.000Z</Time>
            <Position>
              <LatitudeDegrees>39.60372864268720149993896484375</LatitudeDegrees>
              <LongitudeDegrees>-0.6289620883762836456298828125</LongitudeDegrees>
            </Position>
            <AltitudeMeters>163.399993896484375</AltitudeMeters>
            <DistanceMeters>33180.056130481</DistanceMeters>
          </Trackpoint>
          <Trackpoint>
            <Time>2021-10-09T08:04:53.000Z</Time>
            <Position>
              <LatitudeDegrees>39.60373409092426300048828125</LatitudeDegrees>
              <LongitudeDegrees>-0.62902922742068767547607421875</LongitudeDegrees>
            </Position>
            <AltitudeMeters>163.600006103515625</AltitudeMeters>
            <DistanceMeters>33185.845745646</DistanceMeters>
          </Trackpoint>
          <Trackpoint>
            <Time>2021-10-09T08:04:54.000Z</Time>
            <Position>
              <LatitudeDegrees>39.6037376113235950469970703125</LatitudeDegrees>
              <LongitudeDegrees>-0.629096366465091705322265625</LongitudeDegrees>
            </Position>
            <AltitudeMeters>163.600006103515625</AltitudeMeters>
            <DistanceMeters>33191.616614032</DistanceMeters>
          </Trackpoint>
          <Trackpoint>
            <Time>2021-10-09T08:04:55.000Z</Time>
            <Position>
              <LatitudeDegrees>39.60374222137033939361572265625</LatitudeDegrees>
              <LongitudeDegrees>-0.62916836701333522796630859375</LongitudeDegrees>
            </Position>
            <AltitudeMeters>163.8000030517578125</AltitudeMeters>
            <DistanceMeters>33197.813055353</DistanceMeters>
          </Trackpoint>
          <Trackpoint>
            <Time>2021-10-09T08:04:56.000Z</Time>
            <Position>
              <LatitudeDegrees>39.6037490107119083404541015625</LatitudeDegrees>
              <LongitudeDegrees>-0.62924019992351531982421875</LongitudeDegrees>
            </Position>
            <AltitudeMeters>164.1999969482421875</AltitudeMeters>
            <DistanceMeters>33204.019689393</DistanceMeters>
          </Trackpoint>
          <Trackpoint>
            <Time>2021-10-09T08:04:57.000Z</Time>
            <Position>
              <LatitudeDegrees>39.60375278256833553314208984375</LatitudeDegrees>
              <LongitudeDegrees>-0.6292983703315258026123046875</LongitudeDegrees>
            </Position>
            <AltitudeMeters>164.1999969482421875</AltitudeMeters>
            <DistanceMeters>33209.026434065</DistanceMeters>
          </Trackpoint>
          <Trackpoint>
            <Time>2021-10-09T08:04:58.000Z</Time>
            <Position>
              <LatitudeDegrees>39.6037547104060649871826171875</LatitudeDegrees>
              <LongitudeDegrees>-0.62938772141933441162109375</LongitudeDegrees>
            </Position>
            <AltitudeMeters>164.399993896484375</AltitudeMeters>
            <DistanceMeters>33216.691856912</DistanceMeters>
          </Trackpoint>
          <Trackpoint>
            <Time>2021-10-09T08:04:59.000Z</Time>
            <Position>
              <LatitudeDegrees>39.60375546477735042572021484375</LatitudeDegrees>
              <LongitudeDegrees>-0.62946282327175140380859375</LongitudeDegrees>
            </Position>
            <AltitudeMeters>164.600006103515625</AltitudeMeters>
            <DistanceMeters>33223.132677603</DistanceMeters>
          </Trackpoint>
          <Trackpoint>
            <Time>2021-10-09T08:05:00.000Z</Time>
            <Position>
              <LatitudeDegrees>39.6037533693015575408935546875</LatitudeDegrees>
              <LongitudeDegrees>-0.62953599728643894195556640625</LongitudeDegrees>
            </Position>
            <AltitudeMeters>164.600006103515625</AltitudeMeters>
            <DistanceMeters>33229.411635618</DistanceMeters>
          </Trackpoint>
          <Trackpoint>
            <Time>2021-10-09T08:05:01.000Z</Time>
            <Position>
              <LatitudeDegrees>39.6037495136260986328125</LatitudeDegrees>
              <LongitudeDegrees>-0.6296074949204921722412109375</LongitudeDegrees>
            </Position>
            <AltitudeMeters>164.600006103515625</AltitudeMeters>
            <DistanceMeters>33235.558329025</DistanceMeters>
          </Trackpoint>
          <Trackpoint>
            <Time>2021-10-09T08:05:02.000Z</Time>
            <Position>
              <LatitudeDegrees>39.6037446521222591400146484375</LatitudeDegrees>
              <LongitudeDegrees>-0.6296661682426929473876953125</LongitudeDegrees>
            </Position>
            <AltitudeMeters>164.8000030517578125</AltitudeMeters>
            <DistanceMeters>33240.619784041</DistanceMeters>
          </Trackpoint>
          <Trackpoint>
            <Time>2021-10-09T08:05:03.000Z</Time>
            <Position>
              <LatitudeDegrees>39.603739790618419647216796875</LatitudeDegrees>
              <LongitudeDegrees>-0.62974051572382450103759765625</LongitudeDegrees>
            </Position>
            <AltitudeMeters>164.8000030517578125</AltitudeMeters>
            <DistanceMeters>33247.018406283</DistanceMeters>
          </Trackpoint>
          <Trackpoint>
            <Time>2021-10-09T08:05:04.000Z</Time>
            <Position>
              <LatitudeDegrees>39.60373451001942157745361328125</LatitudeDegrees>
              <LongitudeDegrees>-0.6298331357538700103759765625</LongitudeDegrees>
            </Position>
            <AltitudeMeters>164.8000030517578125</AltitudeMeters>
            <DistanceMeters>33254.982529395</DistanceMeters>
          </Trackpoint>
          <Trackpoint>
            <Time>2021-10-09T08:05:05.000Z</Time>
            <Position>
              <LatitudeDegrees>39.603729732334613800048828125</LatitudeDegrees>
              <LongitudeDegrees>-0.62990781851112842559814453125</LongitudeDegrees>
            </Position>
            <AltitudeMeters>164.8000030517578125</AltitudeMeters>
            <DistanceMeters>33261.409314723</DistanceMeters>
          </Trackpoint>
          <Trackpoint>
            <Time>2021-10-09T08:05:06.000Z</Time>
            <Position>
              <LatitudeDegrees>39.6037235297262668609619140625</LatitudeDegrees>
              <LongitudeDegrees>-0.629982836544513702392578125</LongitudeDegrees>
            </Position>
            <AltitudeMeters>165</AltitudeMeters>
            <DistanceMeters>33267.879510577</DistanceMeters>
          </Trackpoint>
          <Trackpoint>
            <Time>2021-10-09T08:05:07.000Z</Time>
            <Position>
              <LatitudeDegrees>39.60371774621307849884033203125</LatitudeDegrees>
              <LongitudeDegrees>-0.6300433538854122161865234375</LongitudeDegrees>
            </Position>
            <AltitudeMeters>165</AltitudeMeters>
            <DistanceMeters>33273.108570863</DistanceMeters>
          </Trackpoint>
          <Trackpoint>
            <Time>2021-10-09T08:05:08.000Z</Time>
            <Position>
              <LatitudeDegrees>39.603709615767002105712890625</LatitudeDegrees>
              <LongitudeDegrees>-0.630117952823638916015625</LongitudeDegrees>
            </Position>
            <AltitudeMeters>165</AltitudeMeters>
            <DistanceMeters>33279.569688677</DistanceMeters>
          </Trackpoint>
          <Trackpoint>
            <Time>2021-10-09T08:05:09.000Z</Time>
            <Position>
              <LatitudeDegrees>39.6037007309496402740478515625</LatitudeDegrees>
              <LongitudeDegrees>-0.6302086450159549713134765625</LongitudeDegrees>
            </Position>
            <AltitudeMeters>165</AltitudeMeters>
            <DistanceMeters>33287.409248631</DistanceMeters>
          </Trackpoint>
          <Trackpoint>
            <Time>2021-10-09T08:05:10.000Z</Time>
            <Position>
              <LatitudeDegrees>39.60369528271257877349853515625</LatitudeDegrees>
              <LongitudeDegrees>-0.63028357923030853271484375</LongitudeDegrees>
            </Position>
            <AltitudeMeters>165</AltitudeMeters>
            <DistanceMeters>33293.864074168</DistanceMeters>
          </Trackpoint>
          <Trackpoint>
            <Time>2021-10-09T08:05:11.000Z</Time>
            <Position>
              <LatitudeDegrees>39.6036891639232635498046875</LatitudeDegrees>
              <LongitudeDegrees>-0.63035809434950351715087890625</LongitudeDegrees>
            </Position>
            <AltitudeMeters>165.1999969482421875</AltitudeMeters>
            <DistanceMeters>33300.290156923</DistanceMeters>
          </Trackpoint>
          <Trackpoint>
            <Time>2021-10-09T08:05:12.000Z</Time>
            <Position>
              <LatitudeDegrees>39.60368338041007518768310546875</LatitudeDegrees>
              <LongitudeDegrees>-0.63041710294783115386962890625</LongitudeDegrees>
            </Position>
            <AltitudeMeters>165.1999969482421875</AltitudeMeters>
            <DistanceMeters>33305.390710838</DistanceMeters>
          </Trackpoint>
          <Trackpoint>
            <Time>2021-10-09T08:05:13.000Z</Time>
            <Position>
              <LatitudeDegrees>39.60367784835398197174072265625</LatitudeDegrees>
              <LongitudeDegrees>-0.63048985786736011505126953125</LongitudeDegrees>
            </Position>
            <AltitudeMeters>165.399993896484375</AltitudeMeters>
            <DistanceMeters>33311.660313916</DistanceMeters>
          </Trackpoint>
          <Trackpoint>
            <Time>2021-10-09T08:05:14.000Z</Time>
            <Position>
              <LatitudeDegrees>39.6036695502698421478271484375</LatitudeDegrees>
              <LongitudeDegrees>-0.6305787898600101470947265625</LongitudeDegrees>
            </Position>
            <AltitudeMeters>165.399993896484375</AltitudeMeters>
            <DistanceMeters>33319.341623667</DistanceMeters>
          </Trackpoint>
          <Trackpoint>
            <Time>2021-10-09T08:05:15.000Z</Time>
            <Position>
              <LatitudeDegrees>39.603662677109241485595703125</LatitudeDegrees>
              <LongitudeDegrees>-0.6306528858840465545654296875</LongitudeDegrees>
            </Position>
            <AltitudeMeters>165.399993896484375</AltitudeMeters>
            <DistanceMeters>33325.741657007</DistanceMeters>
          </Trackpoint>
          <Trackpoint>
            <Time>2021-10-09T08:05:16.000Z</Time>
            <Position>
              <LatitudeDegrees>39.603657312691211700439453125</LatitudeDegrees>
              <LongitudeDegrees>-0.63072421588003635406494140625</LongitudeDegrees>
            </Position>
            <AltitudeMeters>165.600006103515625</AltitudeMeters>
            <DistanceMeters>33331.887615822</DistanceMeters>
          </Trackpoint>
          <Trackpoint>
            <Time>2021-10-09T08:05:17.000Z</Time>
            <Position>
              <LatitudeDegrees>39.6036531217396259307861328125</LatitudeDegrees>
              <LongitudeDegrees>-0.63078238628804683685302734375</LongitudeDegrees>
            </Position>
            <AltitudeMeters>165.600006103515625</AltitudeMeters>
            <DistanceMeters>33336.897065137</DistanceMeters>
          </Trackpoint>
          <Trackpoint>
            <Time>2021-10-09T08:05:18.000Z</Time>
            <Position>
              <LatitudeDegrees>39.6036480925977230072021484375</LatitudeDegrees>
              <LongitudeDegrees>-0.63085245899856090545654296875</LongitudeDegrees>
            </Position>
            <AltitudeMeters>165.8000030517578125</AltitudeMeters>
            <DistanceMeters>33342.932570781</DistanceMeters>
          </Trackpoint>
          <Trackpoint>
            <Time>2021-10-09T08:05:19.000Z</Time>
            <Position>
              <LatitudeDegrees>39.60364063270390033721923828125</LatitudeDegrees>
              <LongitudeDegrees>-0.63093937933444976806640625</LongitudeDegrees>
            </Position>
            <AltitudeMeters>165.8000030517578125</AltitudeMeters>
            <DistanceMeters>33350.433062514</DistanceMeters>
          </Trackpoint>
          <Trackpoint>
            <Time>2021-10-09T08:05:20.000Z</Time>
            <Position>
              <LatitudeDegrees>39.603635184466838836669921875</LatitudeDegrees>
              <LongitudeDegrees>-0.6310119666159152984619140625</LongitudeDegrees>
            </Position>
            <AltitudeMeters>166</AltitudeMeters>
            <DistanceMeters>33356.687524214</DistanceMeters>
          </Trackpoint>
          <Trackpoint>
            <Time>2021-10-09T08:05:21.000Z</Time>
            <Position>
              <LatitudeDegrees>39.60362680256366729736328125</LatitudeDegrees>
              <LongitudeDegrees>-0.631083548069000244140625</LongitudeDegrees>
            </Position>
            <AltitudeMeters>166</AltitudeMeters>
            <DistanceMeters>33362.897067387</DistanceMeters>
          </Trackpoint>
          <Trackpoint>
            <Time>2021-10-09T08:05:22.000Z</Time>
            <Position>
              <LatitudeDegrees>39.6036189235746860504150390625</LatitudeDegrees>
              <LongitudeDegrees>-0.6311558000743389129638671875</LongitudeDegrees>
            </Position>
            <AltitudeMeters>166.1999969482421875</AltitudeMeters>
            <DistanceMeters>33369.155858933</DistanceMeters>
          </Trackpoint>
          <Trackpoint>
            <Time>2021-10-09T08:05:23.000Z</Time>
            <Position>
              <LatitudeDegrees>39.6036113798618316650390625</LatitudeDegrees>
              <LongitudeDegrees>-0.63122612424194812774658203125</LongitudeDegrees>
            </Position>
            <AltitudeMeters>166.1999969482421875</AltitudeMeters>
            <DistanceMeters>33375.244988089</DistanceMeters>
          </Trackpoint>
          <Trackpoint>
            <Time>2021-10-09T08:05:24.000Z</Time>
            <Position>
              <LatitudeDegrees>39.60360542871057987213134765625</LatitudeDegrees>
              <LongitudeDegrees>-0.63129569403827190399169921875</LongitudeDegrees>
            </Position>
            <AltitudeMeters>166.399993896484375</AltitudeMeters>
            <DistanceMeters>33381.248240132</DistanceMeters>
          </Trackpoint>
          <Trackpoint>
            <Time>2021-10-09T08:05:25.000Z</Time>
            <Position>
              <LatitudeDegrees>39.6035984717309474945068359375</LatitudeDegrees>
              <LongitudeDegrees>-0.631366185843944549560546875</LongitudeDegrees>
            </Position>
            <AltitudeMeters>166.399993896484375</AltitudeMeters>
            <DistanceMeters>33387.343298334</DistanceMeters>
          </Trackpoint>
          <Trackpoint>
            <Time>2021-10-09T08:05:26.000Z</Time>
            <Position>
              <LatitudeDegrees>39.60359084419906139373779296875</LatitudeDegrees>
              <LongitudeDegrees>-0.6314370967447757720947265625</LongitudeDegrees>
            </Position>
            <AltitudeMeters>166.399993896484375</AltitudeMeters>
            <DistanceMeters>33393.48411255</DistanceMeters>
          </Trackpoint>
          <Trackpoint>
            <Time>2021-10-09T08:05:27.000Z</Time>
            <Position>
              <LatitudeDegrees>39.6035845577716827392578125</LatitudeDegrees>
              <LongitudeDegrees>-0.63150742091238498687744140625</LongitudeDegrees>
            </Position>
            <AltitudeMeters>166.600006103515625</AltitudeMeters>
            <DistanceMeters>33399.555419826</DistanceMeters>
          </Trackpoint>
          <Trackpoint>
            <Time>2021-10-09T08:05:28.000Z</Time>
            <Position>
              <LatitudeDegrees>39.6035790257155895233154296875</LatitudeDegrees>
              <LongitudeDegrees>-0.63157782889902591705322265625</LongitudeDegrees>
            </Position>
            <AltitudeMeters>166.8000030517578125</AltitudeMeters>
            <DistanceMeters>33405.6237517</DistanceMeters>
          </Trackpoint>
          <Trackpoint>
            <Time>2021-10-09T08:05:29.000Z</Time>
            <Position>
              <LatitudeDegrees>39.60357408039271831512451171875</LatitudeDegrees>
              <LongitudeDegrees>-0.63164873979985713958740234375</LongitudeDegrees>
            </Position>
            <AltitudeMeters>167</AltitudeMeters>
            <DistanceMeters>33411.729171879</DistanceMeters>
          </Trackpoint>
          <Trackpoint>
            <Time>2021-10-09T08:05:30.000Z</Time>
            <Position>
              <LatitudeDegrees>39.6035699732601642608642578125</LatitudeDegrees>
              <LongitudeDegrees>-0.63171856105327606201171875</LongitudeDegrees>
            </Position>
            <AltitudeMeters>167</AltitudeMeters>
            <DistanceMeters>33417.733927931</DistanceMeters>
          </Trackpoint>
          <Trackpoint>
            <Time>2021-10-09T08:05:31.000Z</Time>
            <Position>
              <LatitudeDegrees>39.6035646088421344757080078125</LatitudeDegrees>
              <LongitudeDegrees>-0.63178963959217071533203125</LongitudeDegrees>
            </Position>
            <AltitudeMeters>167</AltitudeMeters>
            <DistanceMeters>33423.85780803</DistanceMeters>
          </Trackpoint>
          <Trackpoint>
            <Time>2021-10-09T08:05:32.000Z</Time>
            <Position>
              <LatitudeDegrees>39.60355840623378753662109375</LatitudeDegrees>
              <LongitudeDegrees>-0.63186180777847766876220703125</LongitudeDegrees>
            </Position>
            <AltitudeMeters>167</AltitudeMeters>
            <DistanceMeters>33430.084777458</DistanceMeters>
          </Trackpoint>
          <Trackpoint>
            <Time>2021-10-09T08:05:33.000Z</Time>
            <Position>
              <LatitudeDegrees>39.60355144925415515899658203125</LatitudeDegrees>
              <LongitudeDegrees>-0.6319339759647846221923828125</LongitudeDegrees>
            </Position>
            <AltitudeMeters>167.1999969482421875</AltitudeMeters>
            <DistanceMeters>33436.321889716</DistanceMeters>
          </Trackpoint>
          <Trackpoint>
            <Time>2021-10-09T08:05:34.000Z</Time>
            <Position>
              <LatitudeDegrees>39.60354340262711048126220703125</LatitudeDegrees>
              <LongitudeDegrees>-0.63200379721820354461669921875</LongitudeDegrees>
            </Position>
            <AltitudeMeters>167.1999969482421875</AltitudeMeters>
            <DistanceMeters>33442.376068462</DistanceMeters>
          </Trackpoint>
          <Trackpoint>
            <Time>2021-10-09T08:05:35.000Z</Time>
            <Position>
              <LatitudeDegrees>39.603537619113922119140625</LatitudeDegrees>
              <LongitudeDegrees>-0.63207403756678104400634765625</LongitudeDegrees>
            </Position>
            <AltitudeMeters>167.1999969482421875</AltitudeMeters>
            <DistanceMeters>33448.433974921</DistanceMeters>
          </Trackpoint>
          <Trackpoint>
            <Time>2021-10-09T08:05:36.000Z</Time>
            <Position>
              <LatitudeDegrees>39.60353015922009944915771484375</LatitudeDegrees>
              <LongitudeDegrees>-0.63214561901986598968505859375</LongitudeDegrees>
            </Position>
            <AltitudeMeters>167.399993896484375</AltitudeMeters>
            <DistanceMeters>33454.628229905</DistanceMeters>
          </Trackpoint>
          <Trackpoint>
            <Time>2021-10-09T08:05:37.000Z</Time>
            <Position>
              <LatitudeDegrees>39.60352496244013309478759765625</LatitudeDegrees>
              <LongitudeDegrees>-0.6322152726352214813232421875</LongitudeDegrees>
            </Position>
            <AltitudeMeters>167.600006103515625</AltitudeMeters>
            <DistanceMeters>33460.629225228</DistanceMeters>
          </Trackpoint>
          <Trackpoint>
            <Time>2021-10-09T08:05:38.000Z</Time>
            <Position>
              <LatitudeDegrees>39.603519178926944732666015625</LatitudeDegrees>
              <LongitudeDegrees>-0.632283501327037811279296875</LongitudeDegrees>
            </Position>
            <AltitudeMeters>167.8000030517578125</AltitudeMeters>
            <DistanceMeters>33466.515514663</DistanceMeters>
          </Trackpoint>
          <Trackpoint>
            <Time>2021-10-09T08:05:39.000Z</Time>
            <Position>
              <LatitudeDegrees>39.60351322777569293975830078125</LatitudeDegrees>
              <LongitudeDegrees>-0.63235483132302761077880859375</LongitudeDegrees>
            </Position>
            <AltitudeMeters>167.8000030517578125</AltitudeMeters>
            <DistanceMeters>33472.668081644</DistanceMeters>
          </Trackpoint>
          <Trackpoint>
            <Time>2021-10-09T08:05:40.000Z</Time>
            <Position>
              <LatitudeDegrees>39.60350786335766315460205078125</LatitudeDegrees>
              <LongitudeDegrees>-0.63242708332836627960205078125</LongitudeDegrees>
            </Position>
            <AltitudeMeters>168</AltitudeMeters>
            <DistanceMeters>33478.893600746</DistanceMeters>
          </Trackpoint>
          <Trackpoint>
            <Time>2021-10-09T08:05:41.000Z</Time>
            <Position>
              <LatitudeDegrees>39.60350199602544307708740234375</LatitudeDegrees>
              <LongitudeDegrees>-0.63249799422919750213623046875</LongitudeDegrees>
            </Position>
            <AltitudeMeters>168.1999969482421875</AltitudeMeters>
            <DistanceMeters>33485.009365345</DistanceMeters>
          </Trackpoint>
          <Trackpoint>
            <Time>2021-10-09T08:05:42.000Z</Time>
            <Position>
              <LatitudeDegrees>39.6034952066838741302490234375</LatitudeDegrees>
              <LongitudeDegrees>-0.632568486034870147705078125</LongitudeDegrees>
            </Position>
            <AltitudeMeters>168.399993896484375</AltitudeMeters>
            <DistanceMeters>33491.101459746</DistanceMeters>
          </Trackpoint>
          <Trackpoint>
            <Time>2021-10-09T08:05:43.000Z</Time>
            <Position>
              <LatitudeDegrees>39.60348925553262233734130859375</LatitudeDegrees>
              <LongitudeDegrees>-0.63263696618378162384033203125</LongitudeDegrees>
            </Position>
            <AltitudeMeters>168.399993896484375</AltitudeMeters>
            <DistanceMeters>33497.011479685</DistanceMeters>
          </Trackpoint>
          <Trackpoint>
            <Time>2021-10-09T08:05:44.000Z</Time>
            <Position>
              <LatitudeDegrees>39.60348330438137054443359375</LatitudeDegrees>
              <LongitudeDegrees>-0.63270670361816883087158203125</LongitudeDegrees>
            </Position>
            <AltitudeMeters>168.600006103515625</AltitudeMeters>
            <DistanceMeters>33503.029004637</DistanceMeters>
          </Trackpoint>
          <Trackpoint>
            <Time>2021-10-09T08:05:45.000Z</Time>
            <Position>
              <LatitudeDegrees>39.60347835905849933624267578125</LatitudeDegrees>
              <LongitudeDegrees>-0.6327785365283489227294921875</LongitudeDegrees>
            </Position>
            <AltitudeMeters>168.600006103515625</AltitudeMeters>
            <DistanceMeters>33509.213046498</DistanceMeters>
          </Trackpoint>
          <Trackpoint>
            <Time>2021-10-09T08:05:46.000Z</Time>
            <Position>
              <LatitudeDegrees>39.6034720726311206817626953125</LatitudeDegrees>
              <LongitudeDegrees>-0.6328489445149898529052734375</LongitudeDegrees>
            </Position>
            <AltitudeMeters>168.600006103515625</AltitudeMeters>
            <DistanceMeters>33515.291785907</DistanceMeters>
          </Trackpoint>
          <Trackpoint>
            <Time>2021-10-09T08:05:47.000Z</Time>
            <Position>
              <LatitudeDegrees>39.60346721112728118896484375</LatitudeDegrees>
              <LongitudeDegrees>-0.6329168379306793212890625</LongitudeDegrees>
            </Position>
            <AltitudeMeters>168.8000030517578125</AltitudeMeters>
            <DistanceMeters>33521.138825279</DistanceMeters>
          </Trackpoint>
          <Trackpoint>
            <Time>2021-10-09T08:05:48.000Z</Time>
            <Position>
              <LatitudeDegrees>39.6034613437950611114501953125</LatitudeDegrees>
              <LongitudeDegrees>-0.6329850666224956512451171875</LongitudeDegrees>
            </Position>
            <AltitudeMeters>169</AltitudeMeters>
            <DistanceMeters>33527.025881708</DistanceMeters>
          </Trackpoint>
          <Trackpoint>
            <Time>2021-10-09T08:05:49.000Z</Time>
            <Position>
              <LatitudeDegrees>39.603454805910587310791015625</LatitudeDegrees>
              <LongitudeDegrees>-0.63305237330496311187744140625</LongitudeDegrees>
            </Position>
            <AltitudeMeters>169</AltitudeMeters>
            <DistanceMeters>33532.843503774</DistanceMeters>
          </Trackpoint>
          <Trackpoint>
            <Time>2021-10-09T08:05:50.000Z</Time>
            <Position>
              <LatitudeDegrees>39.60344969294965267181396484375</LatitudeDegrees>
              <LongitudeDegrees>-0.63311791978776454925537109375</LongitudeDegrees>
            </Position>
            <AltitudeMeters>169.1999969482421875</AltitudeMeters>
            <DistanceMeters>33538.493399369</DistanceMeters>
          </Trackpoint>
          <Trackpoint>
            <Time>2021-10-09T08:05:51.000Z</Time>
            <Position>
              <LatitudeDegrees>39.60344449616968631744384765625</LatitudeDegrees>
              <LongitudeDegrees>-0.63318707048892974853515625</LongitudeDegrees>
            </Position>
            <AltitudeMeters>169.1999969482421875</AltitudeMeters>
            <DistanceMeters>33544.451354597</DistanceMeters>
          </Trackpoint>
          <Trackpoint>
            <Time>2021-10-09T08:05:52.000Z</Time>
            <Position>
              <LatitudeDegrees>39.60343712009489536285400390625</LatitudeDegrees>
              <LongitudeDegrees>-0.633256472647190093994140625</LongitudeDegrees>
            </Position>
            <AltitudeMeters>169.399993896484375</AltitudeMeters>
            <DistanceMeters>33550.459869024</DistanceMeters>
          </Trackpoint>
          <Trackpoint>
            <Time>2021-10-09T08:05:53.000Z</Time>
            <Position>
              <LatitudeDegrees>39.6034304983913898468017578125</LatitudeDegrees>
              <LongitudeDegrees>-0.633324868977069854736328125</LongitudeDegrees>
            </Position>
            <AltitudeMeters>169.399993896484375</AltitudeMeters>
            <DistanceMeters>33556.371416693</DistanceMeters>
          </Trackpoint>
          <Trackpoint>
            <Time>2021-10-09T08:05:54.000Z</Time>
            <Position>
              <LatitudeDegrees>39.6034258045256137847900390625</LatitudeDegrees>
              <LongitudeDegrees>-0.6333941034972667694091796875</LongitudeDegrees>
            </Position>
            <AltitudeMeters>169.600006103515625</AltitudeMeters>
            <DistanceMeters>33562.332402418</DistanceMeters>
          </Trackpoint>
          <Trackpoint>
            <Time>2021-10-09T08:05:55.000Z</Time>
            <Position>
              <LatitudeDegrees>39.60342152975499629974365234375</LatitudeDegrees>
              <LongitudeDegrees>-0.63346057198941707611083984375</LongitudeDegrees>
            </Position>
            <AltitudeMeters>169.600006103515625</AltitudeMeters>
            <DistanceMeters>33568.052189735</DistanceMeters>
          </Trackpoint>
          <Trackpoint>
            <Time>2021-10-09T08:05:56.000Z</Time>
            <Position>
              <LatitudeDegrees>39.60341482423245906829833984375</LatitudeDegrees>
              <LongitudeDegrees>-0.63352578319609165191650390625</LongitudeDegrees>
            </Position>
            <AltitudeMeters>169.8000030517578125</AltitudeMeters>
            <DistanceMeters>33573.693287978</DistanceMeters>
          </Trackpoint>
          <Trackpoint>
            <Time>2021-10-09T08:05:57.000Z</Time>
            <Position>
              <LatitudeDegrees>39.6034075319766998291015625</LatitudeDegrees>
              <LongitudeDegrees>-0.6335925869643688201904296875</LongitudeDegrees>
            </Position>
            <AltitudeMeters>170</AltitudeMeters>
            <DistanceMeters>33579.479782898</DistanceMeters>
          </Trackpoint>
          <Trackpoint>
            <Time>2021-10-09T08:05:58.000Z</Time>
            <Position>
              <LatitudeDegrees>39.603401161730289459228515625</LatitudeDegrees>
              <LongitudeDegrees>-0.63366115093231201171875</LongitudeDegrees>
            </Position>
            <AltitudeMeters>170</AltitudeMeters>
            <DistanceMeters>33585.401251198</DistanceMeters>
          </Trackpoint>
          <Trackpoint>
            <Time>2021-10-09T08:05:59.000Z</Time>
            <Position>
              <LatitudeDegrees>39.60339604876935482025146484375</LatitudeDegrees>
              <LongitudeDegrees>-0.63373063690960407257080078125</LongitudeDegrees>
            </Position>
            <AltitudeMeters>170.1999969482421875</AltitudeMeters>
            <DistanceMeters>33591.387179975</DistanceMeters>
          </Trackpoint>
          <Trackpoint>
            <Time>2021-10-09T08:06:00.000Z</Time>
            <Position>
              <LatitudeDegrees>39.60339001379907131195068359375</LatitudeDegrees>
              <LongitudeDegrees>-0.63380062580108642578125</LongitudeDegrees>
            </Position>
            <AltitudeMeters>170.1999969482421875</AltitudeMeters>
            <DistanceMeters>33597.427172429</DistanceMeters>
          </Trackpoint>
          <Trackpoint>
            <Time>2021-10-09T08:06:01.000Z</Time>
            <Position>
              <LatitudeDegrees>39.60338464938104152679443359375</LatitudeDegrees>
              <LongitudeDegrees>-0.6338703632354736328125</LongitudeDegrees>
            </Position>
            <AltitudeMeters>170.399993896484375</AltitudeMeters>
            <DistanceMeters>33603.437189548</DistanceMeters>
          </Trackpoint>
          <Trackpoint>
            <Time>2021-10-09T08:06:02.000Z</Time>
            <Position>
              <LatitudeDegrees>39.6033775247633457183837890625</LatitudeDegrees>
              <LongitudeDegrees>-0.63393943011760711669921875</LongitudeDegrees>
            </Position>
            <AltitudeMeters>170.399993896484375</AltitudeMeters>
            <DistanceMeters>33609.41254914</DistanceMeters>
          </Trackpoint>
          <Trackpoint>
            <Time>2021-10-09T08:06:03.000Z</Time>
            <Position>
              <LatitudeDegrees>39.6033699810504913330078125</LatitudeDegrees>
              <LongitudeDegrees>-0.634011514484882354736328125</LongitudeDegrees>
            </Position>
            <AltitudeMeters>170.600006103515625</AltitudeMeters>
            <DistanceMeters>33615.650385255</DistanceMeters>
          </Trackpoint>
          <Trackpoint>
            <Time>2021-10-09T08:06:04.000Z</Time>
            <Position>
              <LatitudeDegrees>39.60336126387119293212890625</LatitudeDegrees>
              <LongitudeDegrees>-0.6340862810611724853515625</LongitudeDegrees>
            </Position>
            <AltitudeMeters>170.600006103515625</AltitudeMeters>
            <DistanceMeters>33622.135218792</DistanceMeters>
          </Trackpoint>
          <Trackpoint>
            <Time>2021-10-09T08:06:05.000Z</Time>
            <Position>
              <LatitudeDegrees>39.6033550612628459930419921875</LatitudeDegrees>
              <LongitudeDegrees>-0.6341632269322872161865234375</LongitudeDegrees>
            </Position>
            <AltitudeMeters>170.8000030517578125</AltitudeMeters>
            <DistanceMeters>33628.769417507</DistanceMeters>
          </Trackpoint>
          <Trackpoint>
            <Time>2021-10-09T08:06:06.000Z</Time>
            <Position>
              <LatitudeDegrees>39.60334743373095989227294921875</LatitudeDegrees>
              <LongitudeDegrees>-0.634243190288543701171875</LongitudeDegrees>
            </Position>
            <AltitudeMeters>170.8000030517578125</AltitudeMeters>
            <DistanceMeters>33635.678977128</DistanceMeters>
          </Trackpoint>
          <Trackpoint>
            <Time>2021-10-09T08:06:07.000Z</Time>
            <Position>
              <LatitudeDegrees>39.6033379621803760528564453125</LatitudeDegrees>
              <LongitudeDegrees>-0.634323656558990478515625</LongitudeDegrees>
            </Position>
            <AltitudeMeters>170.8000030517578125</AltitudeMeters>
            <DistanceMeters>33642.659399214</DistanceMeters>
          </Trackpoint>
          <Trackpoint>
            <Time>2021-10-09T08:06:08.000Z</Time>
            <Position>
              <LatitudeDegrees>39.60332916118204593658447265625</LatitudeDegrees>
              <LongitudeDegrees>-0.63440437428653240203857421875</LongitudeDegrees>
            </Position>
            <AltitudeMeters>170.8000030517578125</AltitudeMeters>
            <DistanceMeters>33649.650808499</DistanceMeters>
          </Trackpoint>
          <Trackpoint>
            <Time>2021-10-09T08:06:09.000Z</Time>
            <Position>
              <LatitudeDegrees>39.60331407375633716583251953125</LatitudeDegrees>
              <LongitudeDegrees>-0.6344860978424549102783203125</LongitudeDegrees>
            </Position>
            <AltitudeMeters>170.8000030517578125</AltitudeMeters>
            <DistanceMeters>33656.857192448</DistanceMeters>
          </Trackpoint>
          <Trackpoint>
            <Time>2021-10-09T08:06:10.000Z</Time>
            <Position>
              <LatitudeDegrees>39.6032926999032497406005859375</LatitudeDegrees>
              <LongitudeDegrees>-0.634567402303218841552734375</LongitudeDegrees>
            </Position>
            <AltitudeMeters>170.8000030517578125</AltitudeMeters>
            <DistanceMeters>33664.224061487</DistanceMeters>
          </Trackpoint>
          <Trackpoint>
            <Time>2021-10-09T08:06:11.000Z</Time>
            <Position>
              <LatitudeDegrees>39.60326411761343479156494140625</LatitudeDegrees>
              <LongitudeDegrees>-0.634654574096202850341796875</LongitudeDegrees>
            </Position>
            <AltitudeMeters>170.8000030517578125</AltitudeMeters>
            <DistanceMeters>33672.348706636</DistanceMeters>
          </Trackpoint>
          <Trackpoint>
            <Time>2021-10-09T08:06:12.000Z</Time>
            <Position>
              <LatitudeDegrees>39.603232182562351226806640625</LatitudeDegrees>
              <LongitudeDegrees>-0.63474551774561405181884765625</LongitudeDegrees>
            </Position>
            <AltitudeMeters>170.600006103515625</AltitudeMeters>
            <DistanceMeters>33680.919041624</DistanceMeters>
          </Trackpoint>
          <Trackpoint>
            <Time>2021-10-09T08:06:13.000Z</Time>
            <Position>
              <LatitudeDegrees>39.603197984397411346435546875</LatitudeDegrees>
              <LongitudeDegrees>-0.63483738340437412261962890625</LongitudeDegrees>
            </Position>
            <AltitudeMeters>170.399993896484375</AltitudeMeters>
            <DistanceMeters>33689.668726652</DistanceMeters>
          </Trackpoint>
          <Trackpoint>
            <Time>2021-10-09T08:06:14.000Z</Time>
            <Position>
              <LatitudeDegrees>39.60316219367086887359619140625</LatitudeDegrees>
              <LongitudeDegrees>-0.6349286623299121856689453125</LongitudeDegrees>
            </Position>
            <AltitudeMeters>170.1999969482421875</AltitudeMeters>
            <DistanceMeters>33698.451889127</DistanceMeters>
          </Trackpoint>
          <Trackpoint>
            <Time>2021-10-09T08:06:15.000Z</Time>
            <Position>
              <LatitudeDegrees>39.60312430746853351593017578125</LatitudeDegrees>
              <LongitudeDegrees>-0.63501994125545024871826171875</LongitudeDegrees>
            </Position>
            <AltitudeMeters>169.8000030517578125</AltitudeMeters>
            <DistanceMeters>33707.342855845</DistanceMeters>
          </Trackpoint>
          <Trackpoint>
            <Time>2021-10-09T08:06:16.000Z</Time>
            <Position>
              <LatitudeDegrees>39.603085331618785858154296875</LatitudeDegrees>
              <LongitudeDegrees>-0.63511314801871776580810546875</LongitudeDegrees>
            </Position>
            <AltitudeMeters>169.600006103515625</AltitudeMeters>
            <DistanceMeters>33716.436669131</DistanceMeters>
          </Trackpoint>
          <Trackpoint>
            <Time>2021-10-09T08:06:17.000Z</Time>
            <Position>
              <LatitudeDegrees>39.60304610431194305419921875</LatitudeDegrees>
              <LongitudeDegrees>-0.635207779705524444580078125</LongitudeDegrees>
            </Position>
            <AltitudeMeters>169.1999969482421875</AltitudeMeters>
            <DistanceMeters>33725.651810957</DistanceMeters>
          </Trackpoint>
          <Trackpoint>
            <Time>2021-10-09T08:06:18.000Z</Time>
            <Position>
              <LatitudeDegrees>39.60300360806286334991455078125</LatitudeDegrees>
              <LongitudeDegrees>-0.6353031657636165618896484375</LongitudeDegrees>
            </Position>
            <AltitudeMeters>169</AltitudeMeters>
            <DistanceMeters>33735.100639763</DistanceMeters>
          </Trackpoint>
          <Trackpoint>
            <Time>2021-10-09T08:06:19.000Z</Time>
            <Position>
              <LatitudeDegrees>39.60296086035668849945068359375</LatitudeDegrees>
              <LongitudeDegrees>-0.63539762981235980987548828125</LongitudeDegrees>
            </Position>
            <AltitudeMeters>168.8000030517578125</AltitudeMeters>
            <DistanceMeters>33744.495317361</DistanceMeters>
          </Trackpoint>
          <Trackpoint>
            <Time>2021-10-09T08:06:20.000Z</Time>
            <Position>
              <LatitudeDegrees>39.60291643626987934112548828125</LatitudeDegrees>
              <LongitudeDegrees>-0.63549167476594448089599609375</LongitudeDegrees>
            </Position>
            <AltitudeMeters>168.8000030517578125</AltitudeMeters>
            <DistanceMeters>33753.955130126</DistanceMeters>
          </Trackpoint>
          <Trackpoint>
            <Time>2021-10-09T08:06:21.000Z</Time>
            <Position>
              <LatitudeDegrees>39.60287000052630901336669921875</LatitudeDegrees>
              <LongitudeDegrees>-0.63558362424373626708984375</LongitudeDegrees>
            </Position>
            <AltitudeMeters>168.8000030517578125</AltitudeMeters>
            <DistanceMeters>33763.383868249</DistanceMeters>
          </Trackpoint>
          <Trackpoint>
            <Time>2021-10-09T08:06:22.000Z</Time>
            <Position>
              <LatitudeDegrees>39.602819792926311492919921875</LatitudeDegrees>
              <LongitudeDegrees>-0.635675489902496337890625</LongitudeDegrees>
            </Position>
            <AltitudeMeters>168.600006103515625</AltitudeMeters>
            <DistanceMeters>33773.042996047</DistanceMeters>
          </Trackpoint>
          <Trackpoint>
            <Time>2021-10-09T08:06:23.000Z</Time>
            <Position>
              <LatitudeDegrees>39.60276992060244083404541015625</LatitudeDegrees>
              <LongitudeDegrees>-0.6357702054083347320556640625</LongitudeDegrees>
            </Position>
            <AltitudeMeters>168.600006103515625</AltitudeMeters>
            <DistanceMeters>33782.880900261</DistanceMeters>
          </Trackpoint>
          <Trackpoint>
            <Time>2021-10-09T08:06:24.000Z</Time>
            <Position>
              <LatitudeDegrees>39.60272046737372875213623046875</LatitudeDegrees>
              <LongitudeDegrees>-0.63586525619029998779296875</LongitudeDegrees>
            </Position>
            <AltitudeMeters>168.399993896484375</AltitudeMeters>
            <DistanceMeters>33792.716509492</DistanceMeters>
          </Trackpoint>
          <Trackpoint>
            <Time>2021-10-09T08:06:25.000Z</Time>
            <Position>
              <LatitudeDegrees>39.6026694215834140777587890625</LatitudeDegrees>
              <LongitudeDegrees>-0.63596139661967754364013671875</LongitudeDegrees>
            </Position>
            <AltitudeMeters>168.399993896484375</AltitudeMeters>
            <DistanceMeters>33802.729097004</DistanceMeters>
          </Trackpoint>
          <Trackpoint>
            <Time>2021-10-09T08:06:26.000Z</Time>
            <Position>
              <LatitudeDegrees>39.60261762142181396484375</LatitudeDegrees>
              <LongitudeDegrees>-0.63605242408812046051025390625</LongitudeDegrees>
            </Position>
            <AltitudeMeters>168.1999969482421875</AltitudeMeters>
            <DistanceMeters>33812.43392556</DistanceMeters>
          </Trackpoint>
          <Trackpoint>
            <Time>2021-10-09T08:06:27.000Z</Time>
            <Position>
              <LatitudeDegrees>39.60256171412765979766845703125</LatitudeDegrees>
              <LongitudeDegrees>-0.63613590784370899200439453125</LongitudeDegrees>
            </Position>
            <AltitudeMeters>167.8000030517578125</AltitudeMeters>
            <DistanceMeters>33821.919476767</DistanceMeters>
          </Trackpoint>
          <Trackpoint>
            <Time>2021-10-09T08:06:28.000Z</Time>
            <Position>
              <LatitudeDegrees>39.60249851457774639129638671875</LatitudeDegrees>
              <LongitudeDegrees>-0.6362079083919525146484375</LongitudeDegrees>
            </Position>
            <AltitudeMeters>167.600006103515625</AltitudeMeters>
            <DistanceMeters>33831.279487539</DistanceMeters>
          </Trackpoint>
          <Trackpoint>
            <Time>2021-10-09T08:06:29.000Z</Time>
            <Position>
              <LatitudeDegrees>39.60244336165487766265869140625</LatitudeDegrees>
              <LongitudeDegrees>-0.63625543378293514251708984375</LongitudeDegrees>
            </Position>
            <AltitudeMeters>167.399993896484375</AltitudeMeters>
            <DistanceMeters>33838.648807707</DistanceMeters>
          </Trackpoint>
          <Trackpoint>
            <Time>2021-10-09T08:06:30.000Z</Time>
            <Position>
              <LatitudeDegrees>39.6023535914719104766845703125</LatitudeDegrees>
              <LongitudeDegrees>-0.63631829805672168731689453125</LongitudeDegrees>
            </Position>
            <AltitudeMeters>167.1999969482421875</AltitudeMeters>
            <DistanceMeters>33850.002014794</DistanceMeters>
          </Trackpoint>
          <Trackpoint>
            <Time>2021-10-09T08:06:31.000Z</Time>
            <Position>
              <LatitudeDegrees>39.60227522067725658416748046875</LatitudeDegrees>
              <LongitudeDegrees>-0.6363659910857677459716796875</LongitudeDegrees>
            </Position>
            <AltitudeMeters>166.600006103515625</AltitudeMeters>
            <DistanceMeters>33859.636336553</DistanceMeters>
          </Trackpoint>
          <Trackpoint>
            <Time>2021-10-09T08:06:32.000Z</Time>
            <Position>
              <LatitudeDegrees>39.60221336223185062408447265625</LatitudeDegrees>
              <LongitudeDegrees>-0.636405050754547119140625</LongitudeDegrees>
            </Position>
            <AltitudeMeters>166</AltitudeMeters>
            <DistanceMeters>33867.29350877</DistanceMeters>
          </Trackpoint>
          <Trackpoint>
            <Time>2021-10-09T08:06:33.000Z</Time>
            <Position>
              <LatitudeDegrees>39.6021227538585662841796875</LatitudeDegrees>
              <LongitudeDegrees>-0.636461041867733001708984375</LongitudeDegrees>
            </Position>
            <AltitudeMeters>165.1999969482421875</AltitudeMeters>
            <DistanceMeters>33878.46308961</DistanceMeters>
          </Trackpoint>
          <Trackpoint>
            <Time>2021-10-09T08:06:34.000Z</Time>
            <Position>
              <LatitudeDegrees>39.60204505361616611480712890625</LatitudeDegrees>
              <LongitudeDegrees>-0.63650630414485931396484375</LongitudeDegrees>
            </Position>
            <AltitudeMeters>165</AltitudeMeters>
            <DistanceMeters>33887.942927202</DistanceMeters>
          </Trackpoint>
          <Trackpoint>
            <Time>2021-10-09T08:06:35.000Z</Time>
            <Position>
              <LatitudeDegrees>39.60196785628795623779296875</LatitudeDegrees>
              <LongitudeDegrees>-0.63655299134552478790283203125</LongitudeDegrees>
            </Position>
            <AltitudeMeters>164.399993896484375</AltitudeMeters>
            <DistanceMeters>33897.42181219</DistanceMeters>
          </Trackpoint>
          <Trackpoint>
            <Time>2021-10-09T08:06:36.000Z</Time>
            <Position>
              <LatitudeDegrees>39.60189283825457096099853515625</LatitudeDegrees>
              <LongitudeDegrees>-0.6366026960313320159912109375</LongitudeDegrees>
            </Position>
            <AltitudeMeters>164</AltitudeMeters>
            <DistanceMeters>33906.796283053</DistanceMeters>
          </Trackpoint>
          <Trackpoint>
            <Time>2021-10-09T08:06:37.000Z</Time>
            <Position>
              <LatitudeDegrees>39.60181756876409053802490234375</LatitudeDegrees>
              <LongitudeDegrees>-0.636657513678073883056640625</LongitudeDegrees>
            </Position>
            <AltitudeMeters>163.8000030517578125</AltitudeMeters>
            <DistanceMeters>33916.402915202</DistanceMeters>
          </Trackpoint>
          <Trackpoint>
            <Time>2021-10-09T08:06:38.000Z</Time>
            <Position>
              <LatitudeDegrees>39.60174280218780040740966796875</LatitudeDegrees>
              <LongitudeDegrees>-0.6367176957428455352783203125</LongitudeDegrees>
            </Position>
            <AltitudeMeters>163.399993896484375</AltitudeMeters>
            <DistanceMeters>33926.19573971</DistanceMeters>
          </Trackpoint>
          <Trackpoint>
            <Time>2021-10-09T08:06:39.000Z</Time>
            <Position>
              <LatitudeDegrees>39.601668454706668853759765625</LatitudeDegrees>
              <LongitudeDegrees>-0.636780895292758941650390625</LongitudeDegrees>
            </Position>
            <AltitudeMeters>163.1999969482421875</AltitudeMeters>
            <DistanceMeters>33936.088107395</DistanceMeters>
          </Trackpoint>
          <Trackpoint>
            <Time>2021-10-09T08:06:40.000Z</Time>
            <Position>
              <LatitudeDegrees>39.6015915088355541229248046875</LatitudeDegrees>
              <LongitudeDegrees>-0.63684585504233837127685546875</LongitudeDegrees>
            </Position>
            <AltitudeMeters>163</AltitudeMeters>
            <DistanceMeters>33946.304252634</DistanceMeters>
          </Trackpoint>
          <Trackpoint>
            <Time>2021-10-09T08:06:41.000Z</Time>
            <Position>
              <LatitudeDegrees>39.601515233516693115234375</LatitudeDegrees>
              <LongitudeDegrees>-0.63691198825836181640625</LongitudeDegrees>
            </Position>
            <AltitudeMeters>162.8000030517578125</AltitudeMeters>
            <DistanceMeters>33956.513324204</DistanceMeters>
          </Trackpoint>
          <Trackpoint>
            <Time>2021-10-09T08:06:42.000Z</Time>
            <Position>
              <LatitudeDegrees>39.6014386229217052459716796875</LatitudeDegrees>
              <LongitudeDegrees>-0.63698030076920986175537109375</LongitudeDegrees>
            </Position>
            <AltitudeMeters>162.600006103515625</AltitudeMeters>
            <DistanceMeters>33966.859023604</DistanceMeters>
          </Trackpoint>
          <Trackpoint>
            <Time>2021-10-09T08:06:43.000Z</Time>
            <Position>
              <LatitudeDegrees>39.601364694535732269287109375</LatitudeDegrees>
              <LongitudeDegrees>-0.6370529718697071075439453125</LongitudeDegrees>
            </Position>
            <AltitudeMeters>162</AltitudeMeters>
            <DistanceMeters>33977.181566994</DistanceMeters>
          </Trackpoint>
          <Trackpoint>
            <Time>2021-10-09T08:06:44.000Z</Time>
            <Position>
              <LatitudeDegrees>39.60129654966294765472412109375</LatitudeDegrees>
              <LongitudeDegrees>-0.6371351145207881927490234375</LongitudeDegrees>
            </Position>
            <AltitudeMeters>161.600006103515625</AltitudeMeters>
            <DistanceMeters>33987.53293826</DistanceMeters>
          </Trackpoint>
          <Trackpoint>
            <Time>2021-10-09T08:06:45.000Z</Time>
            <Position>
              <LatitudeDegrees>39.60123485885560512542724609375</LatitudeDegrees>
              <LongitudeDegrees>-0.6372283212840557098388671875</LongitudeDegrees>
            </Position>
            <AltitudeMeters>161</AltitudeMeters>
            <DistanceMeters>33998.070196915</DistanceMeters>
          </Trackpoint>
          <Trackpoint>
            <Time>2021-10-09T08:06:46.000Z</Time>
            <Position>
              <LatitudeDegrees>39.60118741728365421295166015625</LatitudeDegrees>
              <LongitudeDegrees>-0.6373344361782073974609375</LongitudeDegrees>
            </Position>
            <AltitudeMeters>160.600006103515625</AltitudeMeters>
            <DistanceMeters>34008.591589747</DistanceMeters>
          </Trackpoint>
          <Trackpoint>
            <Time>2021-10-09T08:06:47.000Z</Time>
            <Position>
              <LatitudeDegrees>39.60115724243223667144775390625</LatitudeDegrees>
              <LongitudeDegrees>-0.63745153136551380157470703125</LongitudeDegrees>
            </Position>
            <AltitudeMeters>159.8000030517578125</AltitudeMeters>
            <DistanceMeters>34019.180567942</DistanceMeters>
          </Trackpoint>
          <Trackpoint>
            <Time>2021-10-09T08:06:48.000Z</Time>
            <Position>
              <LatitudeDegrees>39.60113913752138614654541015625</LatitudeDegrees>
              <LongitudeDegrees>-0.63757323659956455230712890625</LongitudeDegrees>
            </Position>
            <AltitudeMeters>159.600006103515625</AltitudeMeters>
            <DistanceMeters>34029.809976037</DistanceMeters>
          </Trackpoint>
          <Trackpoint>
            <Time>2021-10-09T08:06:49.000Z</Time>
            <Position>
              <LatitudeDegrees>39.60112924687564373016357421875</LatitudeDegrees>
              <LongitudeDegrees>-0.63769460655748844146728515625</LongitudeDegrees>
            </Position>
            <AltitudeMeters>159</AltitudeMeters>
            <DistanceMeters>34040.276727559</DistanceMeters>
          </Trackpoint>
          <Trackpoint>
            <Time>2021-10-09T08:06:50.000Z</Time>
            <Position>
              <LatitudeDegrees>39.601121284067630767822265625</LatitudeDegrees>
              <LongitudeDegrees>-0.63781530596315860748291015625</LongitudeDegrees>
            </Position>
            <AltitudeMeters>158.600006103515625</AltitudeMeters>
            <DistanceMeters>34050.665542393</DistanceMeters>
          </Trackpoint>
          <Trackpoint>
            <Time>2021-10-09T08:06:51.000Z</Time>
            <Position>
              <LatitudeDegrees>39.6011115610599517822265625</LatitudeDegrees>
              <LongitudeDegrees>-0.637933574616909027099609375</LongitudeDegrees>
            </Position>
            <AltitudeMeters>158.399993896484375</AltitudeMeters>
            <DistanceMeters>34060.865322328</DistanceMeters>
          </Trackpoint>
          <Trackpoint>
            <Time>2021-10-09T08:06:52.000Z</Time>
            <Position>
              <LatitudeDegrees>39.60109538398683071136474609375</LatitudeDegrees>
              <LongitudeDegrees>-0.6380470655858516693115234375</LongitudeDegrees>
            </Position>
            <AltitudeMeters>157.8000030517578125</AltitudeMeters>
            <DistanceMeters>34070.763165494</DistanceMeters>
          </Trackpoint>
          <Trackpoint>
            <Time>2021-10-09T08:06:53.000Z</Time>
            <Position>
              <LatitudeDegrees>39.6010713279247283935546875</LatitudeDegrees>
              <LongitudeDegrees>-0.6381550244987010955810546875</LongitudeDegrees>
            </Position>
            <AltitudeMeters>157.600006103515625</AltitudeMeters>
            <DistanceMeters>34080.400767182</DistanceMeters>
          </Trackpoint>
          <Trackpoint>
            <Time>2021-10-09T08:06:54.000Z</Time>
            <Position>
              <LatitudeDegrees>39.60104274563491344451904296875</LatitudeDegrees>
              <LongitudeDegrees>-0.63825686462223529815673828125</LongitudeDegrees>
            </Position>
            <AltitudeMeters>157.399993896484375</AltitudeMeters>
            <DistanceMeters>34089.695914917</DistanceMeters>
          </Trackpoint>
          <Trackpoint>
            <Time>2021-10-09T08:06:55.000Z</Time>
            <Position>
              <LatitudeDegrees>39.6010124869644641876220703125</LatitudeDegrees>
              <LongitudeDegrees>-0.63835610635578632354736328125</LongitudeDegrees>
            </Position>
            <AltitudeMeters>157.1999969482421875</AltitudeMeters>
            <DistanceMeters>34098.848127168</DistanceMeters>
          </Trackpoint>
          <Trackpoint>
            <Time>2021-10-09T08:06:56.000Z</Time>
            <Position>
              <LatitudeDegrees>39.6009870059788227081298828125</LatitudeDegrees>
              <LongitudeDegrees>-0.63846339471638202667236328125</LongitudeDegrees>
            </Position>
            <AltitudeMeters>157</AltitudeMeters>
            <DistanceMeters>34108.476354668</DistanceMeters>
          </Trackpoint>
          <Trackpoint>
            <Time>2021-10-09T08:06:57.000Z</Time>
            <Position>
              <LatitudeDegrees>39.60096864961087703704833984375</LatitudeDegrees>
              <LongitudeDegrees>-0.6385751254856586456298828125</LongitudeDegrees>
            </Position>
            <AltitudeMeters>156.8000030517578125</AltitudeMeters>
            <DistanceMeters>34118.273788648</DistanceMeters>
          </Trackpoint>
          <Trackpoint>
            <Time>2021-10-09T08:06:58.000Z</Time>
            <Position>
              <LatitudeDegrees>39.6009575016796588897705078125</LatitudeDegrees>
              <LongitudeDegrees>-0.638689287006855010986328125</LongitudeDegrees>
            </Position>
            <AltitudeMeters>156.600006103515625</AltitudeMeters>
            <DistanceMeters>34128.141936619</DistanceMeters>
          </Trackpoint>
          <Trackpoint>
            <Time>2021-10-09T08:06:59.000Z</Time>
            <Position>
              <LatitudeDegrees>39.6009548194706439971923828125</LatitudeDegrees>
              <LongitudeDegrees>-0.6388054601848125457763671875</LongitudeDegrees>
            </Position>
            <AltitudeMeters>156.1999969482421875</AltitudeMeters>
            <DistanceMeters>34138.109328506</DistanceMeters>
          </Trackpoint>
          <Trackpoint>
            <Time>2021-10-09T08:07:00.000Z</Time>
            <Position>
              <LatitudeDegrees>39.600958339869976043701171875</LatitudeDegrees>
              <LongitudeDegrees>-0.63892004080116748809814453125</LongitudeDegrees>
            </Position>
            <AltitudeMeters>156.1999969482421875</AltitudeMeters>
            <DistanceMeters>34147.94356049</DistanceMeters>
          </Trackpoint>
          <Trackpoint>
            <Time>2021-10-09T08:07:01.000Z</Time>
            <Position>
              <LatitudeDegrees>39.60096739232540130615234375</LatitudeDegrees>
              <LongitudeDegrees>-0.63903470523655414581298828125</LongitudeDegrees>
            </Position>
            <AltitudeMeters>155.600006103515625</AltitudeMeters>
            <DistanceMeters>34157.828166052</DistanceMeters>
          </Trackpoint>
          <Trackpoint>
            <Time>2021-10-09T08:07:02.000Z</Time>
            <Position>
              <LatitudeDegrees>39.60098239593207836151123046875</LatitudeDegrees>
              <LongitudeDegrees>-0.63914802856743335723876953125</LongitudeDegrees>
            </Position>
            <AltitudeMeters>155.399993896484375</AltitudeMeters>
            <DistanceMeters>34167.688532834</DistanceMeters>
          </Trackpoint>
          <Trackpoint>
            <Time>2021-10-09T08:07:03.000Z</Time>
            <Position>
              <LatitudeDegrees>39.60099983029067516326904296875</LatitudeDegrees>
              <LongitudeDegrees>-0.63926772214472293853759765625</LongitudeDegrees>
            </Position>
            <AltitudeMeters>155</AltitudeMeters>
            <DistanceMeters>34178.134558095</DistanceMeters>
          </Trackpoint>
          <Trackpoint>
            <Time>2021-10-09T08:07:04.000Z</Time>
            <Position>
              <LatitudeDegrees>39.6010185219347476959228515625</LatitudeDegrees>
              <LongitudeDegrees>-0.639386661350727081298828125</LongitudeDegrees>
            </Position>
            <AltitudeMeters>154.600006103515625</AltitudeMeters>
            <DistanceMeters>34188.5442131</DistanceMeters>
          </Trackpoint>
          <Trackpoint>
            <Time>2021-10-09T08:07:05.000Z</Time>
            <Position>
              <LatitudeDegrees>39.6010389737784862518310546875</LatitudeDegrees>
              <LongitudeDegrees>-0.639507360756397247314453125</LongitudeDegrees>
            </Position>
            <AltitudeMeters>154.399993896484375</AltitudeMeters>
            <DistanceMeters>34199.14214171</DistanceMeters>
          </Trackpoint>
          <Trackpoint>
            <Time>2021-10-09T08:07:06.000Z</Time>
            <Position>
              <LatitudeDegrees>39.60105950944125652313232421875</LatitudeDegrees>
              <LongitudeDegrees>-0.63963099382817745208740234375</LongitudeDegrees>
            </Position>
            <AltitudeMeters>153.8000030517578125</AltitudeMeters>
            <DistanceMeters>34209.987683455</DistanceMeters>
          </Trackpoint>
          <Trackpoint>
            <Time>2021-10-09T08:07:07.000Z</Time>
            <Position>
              <LatitudeDegrees>39.60108046419918537139892578125</LatitudeDegrees>
              <LongitudeDegrees>-0.63975672237575054168701171875</LongitudeDegrees>
            </Position>
            <AltitudeMeters>153.600006103515625</AltitudeMeters>
            <DistanceMeters>34221.018561937</DistanceMeters>
          </Trackpoint>
          <Trackpoint>
            <Time>2021-10-09T08:07:08.000Z</Time>
            <Position>
              <LatitudeDegrees>39.60110208950936794281005859375</LatitudeDegrees>
              <LongitudeDegrees>-0.63988479785621166229248046875</LongitudeDegrees>
            </Position>
            <AltitudeMeters>153.1999969482421875</AltitudeMeters>
            <DistanceMeters>34232.262274412</DistanceMeters>
          </Trackpoint>
          <Trackpoint>
            <Time>2021-10-09T08:07:09.000Z</Time>
            <Position>
              <LatitudeDegrees>39.6011244691908359527587890625</LatitudeDegrees>
              <LongitudeDegrees>-0.6400117836892604827880859375</LongitudeDegrees>
            </Position>
            <AltitudeMeters>152.8000030517578125</AltitudeMeters>
            <DistanceMeters>34243.43347204</DistanceMeters>
          </Trackpoint>
          <Trackpoint>
            <Time>2021-10-09T08:07:10.000Z</Time>
            <Position>
              <LatitudeDegrees>39.60114701651036739349365234375</LatitudeDegrees>
              <LongitudeDegrees>-0.6401368416845798492431640625</LongitudeDegrees>
            </Position>
            <AltitudeMeters>152.1999969482421875</AltitudeMeters>
            <DistanceMeters>34254.447556067</DistanceMeters>
          </Trackpoint>
          <Trackpoint>
            <Time>2021-10-09T08:07:11.000Z</Time>
            <Position>
              <LatitudeDegrees>39.60116579197347164154052734375</LatitudeDegrees>
              <LongitudeDegrees>-0.64026617445051670074462890625</LongitudeDegrees>
            </Position>
            <AltitudeMeters>151.8000030517578125</AltitudeMeters>
            <DistanceMeters>34265.733753758</DistanceMeters>
          </Trackpoint>
          <Trackpoint>
            <Time>2021-10-09T08:07:12.000Z</Time>
            <Position>
              <LatitudeDegrees>39.60118356160819530487060546875</LatitudeDegrees>
              <LongitudeDegrees>-0.64039961434900760650634765625</LongitudeDegrees>
            </Position>
            <AltitudeMeters>151.399993896484375</AltitudeMeters>
            <DistanceMeters>34277.346858067</DistanceMeters>
          </Trackpoint>
          <Trackpoint>
            <Time>2021-10-09T08:07:13.000Z</Time>
            <Position>
              <LatitudeDegrees>39.6012032590806484222412109375</LatitudeDegrees>
              <LongitudeDegrees>-0.6405361555516719818115234375</LongitudeDegrees>
            </Position>
            <AltitudeMeters>150.8000030517578125</AltitudeMeters>
            <DistanceMeters>34289.259736871</DistanceMeters>
          </Trackpoint>
          <Trackpoint>
            <Time>2021-10-09T08:07:14.000Z</Time>
            <Position>
              <LatitudeDegrees>39.60122362710535526275634765625</LatitudeDegrees>
              <LongitudeDegrees>-0.64067420549690723419189453125</LongitudeDegrees>
            </Position>
            <AltitudeMeters>150.600006103515625</AltitudeMeters>
            <DistanceMeters>34301.313904617</DistanceMeters>
          </Trackpoint>
          <Trackpoint>
            <Time>2021-10-09T08:07:15.000Z</Time>
            <Position>
              <LatitudeDegrees>39.60124458186328411102294921875</LatitudeDegrees>
              <LongitudeDegrees>-0.64080990850925445556640625</LongitudeDegrees>
            </Position>
            <AltitudeMeters>149.600006103515625</AltitudeMeters>
            <DistanceMeters>34313.182737438</DistanceMeters>
          </Trackpoint>
          <Trackpoint>
            <Time>2021-10-09T08:07:16.000Z</Time>
            <Position>
              <LatitudeDegrees>39.60126939229667186737060546875</LatitudeDegrees>
              <LongitudeDegrees>-0.64094577915966510772705078125</LongitudeDegrees>
            </Position>
            <AltitudeMeters>149.399993896484375</AltitudeMeters>
            <DistanceMeters>34325.157611714</DistanceMeters>
          </Trackpoint>
          <Trackpoint>
            <Time>2021-10-09T08:07:17.000Z</Time>
            <Position>
              <LatitudeDegrees>39.60130040533840656280517578125</LatitudeDegrees>
              <LongitudeDegrees>-0.641078464686870574951171875</LongitudeDegrees>
            </Position>
            <AltitudeMeters>148.8000030517578125</AltitudeMeters>
            <DistanceMeters>34337.048487921</DistanceMeters>
          </Trackpoint>
          <Trackpoint>
            <Time>2021-10-09T08:07:18.000Z</Time>
            <Position>
              <LatitudeDegrees>39.6013400517404079437255859375</LatitudeDegrees>
              <LongitudeDegrees>-0.64120595343410968780517578125</LongitudeDegrees>
            </Position>
            <AltitudeMeters>148.399993896484375</AltitudeMeters>
            <DistanceMeters>34348.838695585</DistanceMeters>
          </Trackpoint>
          <Trackpoint>
            <Time>2021-10-09T08:07:19.000Z</Time>
            <Position>
              <LatitudeDegrees>39.60138405673205852508544921875</LatitudeDegrees>
              <LongitudeDegrees>-0.6413297541439533233642578125</LongitudeDegrees>
            </Position>
            <AltitudeMeters>147.600006103515625</AltitudeMeters>
            <DistanceMeters>34360.530457523</DistanceMeters>
          </Trackpoint>
          <Trackpoint>
            <Time>2021-10-09T08:07:20.000Z</Time>
            <Position>
              <LatitudeDegrees>39.60143082775175571441650390625</LatitudeDegrees>
              <LongitudeDegrees>-0.64145389012992382049560546875</LongitudeDegrees>
            </Position>
            <AltitudeMeters>147.1999969482421875</AltitudeMeters>
            <DistanceMeters>34372.381016534</DistanceMeters>
          </Trackpoint>
          <Trackpoint>
            <Time>2021-10-09T08:07:21.000Z</Time>
            <Position>
              <LatitudeDegrees>39.60148145444691181182861328125</LatitudeDegrees>
              <LongitudeDegrees>-0.6415768526494503021240234375</LongitudeDegrees>
            </Position>
            <AltitudeMeters>147</AltitudeMeters>
            <DistanceMeters>34384.337023815</DistanceMeters>
          </Trackpoint>
          <Trackpoint>
            <Time>2021-10-09T08:07:22.000Z</Time>
            <Position>
              <LatitudeDegrees>39.60153459571301937103271484375</LatitudeDegrees>
              <LongitudeDegrees>-0.6416957080364227294921875</LongitudeDegrees>
            </Position>
            <AltitudeMeters>146.600006103515625</AltitudeMeters>
            <DistanceMeters>34396.121485857</DistanceMeters>
          </Trackpoint>
          <Trackpoint>
            <Time>2021-10-09T08:07:23.000Z</Time>
            <Position>
              <LatitudeDegrees>39.60158790461719036102294921875</LatitudeDegrees>
              <LongitudeDegrees>-0.6418125517666339874267578125</LongitudeDegrees>
            </Position>
            <AltitudeMeters>146.399993896484375</AltitudeMeters>
            <DistanceMeters>34407.766427161</DistanceMeters>
          </Trackpoint>
          <Trackpoint>
            <Time>2021-10-09T08:07:24.000Z</Time>
            <Position>
              <LatitudeDegrees>39.601641632616519927978515625</LatitudeDegrees>
              <LongitudeDegrees>-0.64192981459200382232666015625</LongitudeDegrees>
            </Position>
            <AltitudeMeters>145.600006103515625</AltitudeMeters>
            <DistanceMeters>34419.466681811</DistanceMeters>
          </Trackpoint>
          <Trackpoint>
            <Time>2021-10-09T08:07:25.000Z</Time>
            <Position>
              <LatitudeDegrees>39.601697623729705810546875</LatitudeDegrees>
              <LongitudeDegrees>-0.64204514957964420318603515625</LongitudeDegrees>
            </Position>
            <AltitudeMeters>145.399993896484375</AltitudeMeters>
            <DistanceMeters>34431.156898956</DistanceMeters>
          </Trackpoint>
          <Trackpoint>
            <Time>2021-10-09T08:07:26.000Z</Time>
            <Position>
              <LatitudeDegrees>39.60175889544188976287841796875</LatitudeDegrees>
              <LongitudeDegrees>-0.6421538628637790679931640625</LongitudeDegrees>
            </Position>
            <AltitudeMeters>144.600006103515625</AltitudeMeters>
            <DistanceMeters>34442.708020527</DistanceMeters>
          </Trackpoint>
          <Trackpoint>
            <Time>2021-10-09T08:07:27.000Z</Time>
            <Position>
              <LatitudeDegrees>39.60182704031467437744140625</LatitudeDegrees>
              <LongitudeDegrees>-0.6422536075115203857421875</LongitudeDegrees>
            </Position>
            <AltitudeMeters>144.1999969482421875</AltitudeMeters>
            <DistanceMeters>34454.140093671</DistanceMeters>
          </Trackpoint>
          <Trackpoint>
            <Time>2021-10-09T08:07:28.000Z</Time>
            <Position>
              <LatitudeDegrees>39.60190214216709136962890625</LatitudeDegrees>
              <LongitudeDegrees>-0.6423466466367244720458984375</LongitudeDegrees>
            </Position>
            <AltitudeMeters>144</AltitudeMeters>
            <DistanceMeters>34465.695904783</DistanceMeters>
          </Trackpoint>
          <Trackpoint>
            <Time>2021-10-09T08:07:29.000Z</Time>
            <Position>
              <LatitudeDegrees>39.60198126733303070068359375</LatitudeDegrees>
              <LongitudeDegrees>-0.64243541099131107330322265625</LongitudeDegrees>
            </Position>
            <AltitudeMeters>143.600006103515625</AltitudeMeters>
            <DistanceMeters>34477.336580327</DistanceMeters>
          </Trackpoint>
          <Trackpoint>
            <Time>2021-10-09T08:07:30.000Z</Time>
            <Position>
              <LatitudeDegrees>39.60206081159412860870361328125</LatitudeDegrees>
              <LongitudeDegrees>-0.64252610318362712860107421875</LongitudeDegrees>
            </Position>
            <AltitudeMeters>143.600006103515625</AltitudeMeters>
            <DistanceMeters>34489.121425498</DistanceMeters>
          </Trackpoint>
          <Trackpoint>
            <Time>2021-10-09T08:07:31.000Z</Time>
            <Position>
              <LatitudeDegrees>39.60213758982717990875244140625</LatitudeDegrees>
              <LongitudeDegrees>-0.642620734870433807373046875</LongitudeDegrees>
            </Position>
            <AltitudeMeters>143</AltitudeMeters>
            <DistanceMeters>34500.906653785</DistanceMeters>
          </Trackpoint>
          <Trackpoint>
            <Time>2021-10-09T08:07:32.000Z</Time>
            <Position>
              <LatitudeDegrees>39.60220749489963054656982421875</LatitudeDegrees>
              <LongitudeDegrees>-0.64272291027009487152099609375</LongitudeDegrees>
            </Position>
            <AltitudeMeters>142.8000030517578125</AltitudeMeters>
            <DistanceMeters>34512.624646037</DistanceMeters>
          </Trackpoint>
          <Trackpoint>
            <Time>2021-10-09T08:07:33.000Z</Time>
            <Position>
              <LatitudeDegrees>39.6022731252014636993408203125</LatitudeDegrees>
              <LongitudeDegrees>-0.64283221028745174407958984375</LongitudeDegrees>
            </Position>
            <AltitudeMeters>142.1999969482421875</AltitudeMeters>
            <DistanceMeters>34524.507925695</DistanceMeters>
          </Trackpoint>
          <Trackpoint>
            <Time>2021-10-09T08:07:34.000Z</Time>
            <Position>
              <LatitudeDegrees>39.60233758203685283660888671875</LatitudeDegrees>
              <LongitudeDegrees>-0.6429444439709186553955078125</LongitudeDegrees>
            </Position>
            <AltitudeMeters>141.8000030517578125</AltitudeMeters>
            <DistanceMeters>34536.512173272</DistanceMeters>
          </Trackpoint>
          <Trackpoint>
            <Time>2021-10-09T08:07:35.000Z</Time>
            <Position>
              <LatitudeDegrees>39.6024012006819248199462890625</LatitudeDegrees>
              <LongitudeDegrees>-0.6430564261972904205322265625</LongitudeDegrees>
            </Position>
            <AltitudeMeters>141.600006103515625</AltitudeMeters>
            <DistanceMeters>34548.443608858</DistanceMeters>
          </Trackpoint>
          <Trackpoint>
            <Time>2021-10-09T08:07:36.000Z</Time>
            <Position>
              <LatitudeDegrees>39.60246414877474308013916015625</LatitudeDegrees>
              <LongitudeDegrees>-0.6431670673191547393798828125</LongitudeDegrees>
            </Position>
            <AltitudeMeters>141.1999969482421875</AltitudeMeters>
            <DistanceMeters>34560.238411005</DistanceMeters>
          </Trackpoint>
          <Trackpoint>
            <Time>2021-10-09T08:07:37.000Z</Time>
            <Position>
              <LatitudeDegrees>39.60252667777240276336669921875</LatitudeDegrees>
              <LongitudeDegrees>-0.6432780437171459197998046875</LongitudeDegrees>
            </Position>
            <AltitudeMeters>141</AltitudeMeters>
            <DistanceMeters>34572.02861867</DistanceMeters>
          </Trackpoint>
          <Trackpoint>
            <Time>2021-10-09T08:07:38.000Z</Time>
            <Position>
              <LatitudeDegrees>39.60258803330361843109130859375</LatitudeDegrees>
              <LongitudeDegrees>-0.6433836556971073150634765625</LongitudeDegrees>
            </Position>
            <AltitudeMeters>140.399993896484375</AltitudeMeters>
            <DistanceMeters>34583.371481147</DistanceMeters>
          </Trackpoint>
          <Trackpoint>
            <Time>2021-10-09T08:07:39.000Z</Time>
            <Position>
              <LatitudeDegrees>39.602648802101612091064453125</LatitudeDegrees>
              <LongitudeDegrees>-0.6434875912964344024658203125</LongitudeDegrees>
            </Position>
            <AltitudeMeters>140.1999969482421875</AltitudeMeters>
            <DistanceMeters>34594.560448026</DistanceMeters>
          </Trackpoint>
          <Trackpoint>
            <Time>2021-10-09T08:07:40.000Z</Time>
            <Position>
              <LatitudeDegrees>39.60270688869059085845947265625</LatitudeDegrees>
              <LongitudeDegrees>-0.64359001815319061279296875</LongitudeDegrees>
            </Position>
            <AltitudeMeters>139.8000030517578125</AltitudeMeters>
            <DistanceMeters>34605.466600735</DistanceMeters>
          </Trackpoint>
          <Trackpoint>
            <Time>2021-10-09T08:07:41.000Z</Time>
            <Position>
              <LatitudeDegrees>39.602764137089252471923828125</LatitudeDegrees>
              <LongitudeDegrees>-0.64369018189609050750732421875</LongitudeDegrees>
            </Position>
            <AltitudeMeters>139.399993896484375</AltitudeMeters>
            <DistanceMeters>34616.161645304</DistanceMeters>
          </Trackpoint>
          <Trackpoint>
            <Time>2021-10-09T08:07:42.000Z</Time>
            <Position>
              <LatitudeDegrees>39.602821804583072662353515625</LatitudeDegrees>
              <LongitudeDegrees>-0.6437893398106098175048828125</LongitudeDegrees>
            </Position>
            <AltitudeMeters>139.1999969482421875</AltitudeMeters>
            <DistanceMeters>34626.81566149</DistanceMeters>
          </Trackpoint>
          <Trackpoint>
            <Time>2021-10-09T08:07:43.000Z</Time>
            <Position>
              <LatitudeDegrees>39.60287955589592456817626953125</LatitudeDegrees>
              <LongitudeDegrees>-0.643887408077716827392578125</LongitudeDegrees>
            </Position>
            <AltitudeMeters>139</AltitudeMeters>
            <DistanceMeters>34637.400801476</DistanceMeters>
          </Trackpoint>
          <Trackpoint>
            <Time>2021-10-09T08:07:44.000Z</Time>
            <Position>
              <LatitudeDegrees>39.60293672047555446624755859375</LatitudeDegrees>
              <LongitudeDegrees>-0.6439874880015850067138671875</LongitudeDegrees>
            </Position>
            <AltitudeMeters>138.8000030517578125</AltitudeMeters>
            <DistanceMeters>34648.084441597</DistanceMeters>
          </Trackpoint>
          <Trackpoint>
            <Time>2021-10-09T08:07:45.000Z</Time>
            <Position>
              <LatitudeDegrees>39.60299354977905750274658203125</LatitudeDegrees>
              <LongitudeDegrees>-0.6440890766680240631103515625</LongitudeDegrees>
            </Position>
            <AltitudeMeters>138.8000030517578125</AltitudeMeters>
            <DistanceMeters>34658.850175718</DistanceMeters>
          </Trackpoint>
          <Trackpoint>
            <Time>2021-10-09T08:07:46.000Z</Time>
            <Position>
              <LatitudeDegrees>39.603052474558353424072265625</LatitudeDegrees>
              <LongitudeDegrees>-0.6441910006105899810791015625</LongitudeDegrees>
            </Position>
            <AltitudeMeters>138.8000030517578125</AltitudeMeters>
            <DistanceMeters>34669.777834703</DistanceMeters>
          </Trackpoint>
          <Trackpoint>
            <Time>2021-10-09T08:07:47.000Z</Time>
            <Position>
              <LatitudeDegrees>39.60311072878539562225341796875</LatitudeDegrees>
              <LongitudeDegrees>-0.644293092191219329833984375</LongitudeDegrees>
            </Position>
            <AltitudeMeters>138.600006103515625</AltitudeMeters>
            <DistanceMeters>34680.672389526</DistanceMeters>
          </Trackpoint>
          <Trackpoint>
            <Time>2021-10-09T08:07:48.000Z</Time>
            <Position>
              <LatitudeDegrees>39.60316814482212066650390625</LatitudeDegrees>
              <LongitudeDegrees>-0.6443935073912143707275390625</LongitudeDegrees>
            </Position>
            <AltitudeMeters>138.600006103515625</AltitudeMeters>
            <DistanceMeters>34691.396523691</DistanceMeters>
          </Trackpoint>
          <Trackpoint>
            <Time>2021-10-09T08:07:49.000Z</Time>
            <Position>
              <LatitudeDegrees>39.60322371684014797210693359375</LatitudeDegrees>
              <LongitudeDegrees>-0.64449383877217769622802734375</LongitudeDegrees>
            </Position>
            <AltitudeMeters>138.399993896484375</AltitudeMeters>
            <DistanceMeters>34701.993174132</DistanceMeters>
          </Trackpoint>
          <Trackpoint>
            <Time>2021-10-09T08:07:50.000Z</Time>
            <Position>
              <LatitudeDegrees>39.6032774448394775390625</LatitudeDegrees>
              <LongitudeDegrees>-0.6445903144776821136474609375</LongitudeDegrees>
            </Position>
            <AltitudeMeters>138.1999969482421875</AltitudeMeters>
            <DistanceMeters>34712.201361149</DistanceMeters>
          </Trackpoint>
          <Trackpoint>
            <Time>2021-10-09T08:07:51.000Z</Time>
            <Position>
              <LatitudeDegrees>39.6033295802772045135498046875</LatitudeDegrees>
              <LongitudeDegrees>-0.644686035811901092529296875</LongitudeDegrees>
            </Position>
            <AltitudeMeters>138</AltitudeMeters>
            <DistanceMeters>34722.254451</DistanceMeters>
          </Trackpoint>
          <Trackpoint>
            <Time>2021-10-09T08:07:52.000Z</Time>
            <Position>
              <LatitudeDegrees>39.60338138043880462646484375</LatitudeDegrees>
              <LongitudeDegrees>-0.64477915875613689422607421875</LongitudeDegrees>
            </Position>
            <AltitudeMeters>137.8000030517578125</AltitudeMeters>
            <DistanceMeters>34732.103822109</DistanceMeters>
          </Trackpoint>
          <Trackpoint>
            <Time>2021-10-09T08:07:53.000Z</Time>
            <Position>
              <LatitudeDegrees>39.60343142040073871612548828125</LatitudeDegrees>
              <LongitudeDegrees>-0.64487337134778499603271484375</LongitudeDegrees>
            </Position>
            <AltitudeMeters>137.8000030517578125</AltitudeMeters>
            <DistanceMeters>34741.916912101</DistanceMeters>
          </Trackpoint>
          <Trackpoint>
            <Time>2021-10-09T08:07:54.000Z</Time>
            <Position>
              <LatitudeDegrees>39.60348171181976795196533203125</LatitudeDegrees>
              <LongitudeDegrees>-0.6449658237397670745849609375</LongitudeDegrees>
            </Position>
            <AltitudeMeters>137.399993896484375</AltitudeMeters>
            <DistanceMeters>34751.622671086</DistanceMeters>
          </Trackpoint>
          <Trackpoint>
            <Time>2021-10-09T08:07:55.000Z</Time>
            <Position>
              <LatitudeDegrees>39.60353334434330463409423828125</LatitudeDegrees>
              <LongitudeDegrees>-0.645058192312717437744140625</LongitudeDegrees>
            </Position>
            <AltitudeMeters>137.399993896484375</AltitudeMeters>
            <DistanceMeters>34761.409038684</DistanceMeters>
          </Trackpoint>
          <Trackpoint>
            <Time>2021-10-09T08:07:56.000Z</Time>
            <Position>
              <LatitudeDegrees>39.6035870723426342010498046875</LatitudeDegrees>
              <LongitudeDegrees>-0.64515030942857265472412109375</LongitudeDegrees>
            </Position>
            <AltitudeMeters>137.1999969482421875</AltitudeMeters>
            <DistanceMeters>34771.31645666</DistanceMeters>
          </Trackpoint>
          <Trackpoint>
            <Time>2021-10-09T08:07:57.000Z</Time>
            <Position>
              <LatitudeDegrees>39.60363979451358318328857421875</LatitudeDegrees>
              <LongitudeDegrees>-0.64523982815444469451904296875</LongitudeDegrees>
            </Position>
            <AltitudeMeters>137</AltitudeMeters>
            <DistanceMeters>34780.978855966</DistanceMeters>
          </Trackpoint>
          <Trackpoint>
            <Time>2021-10-09T08:07:58.000Z</Time>
            <Position>
              <LatitudeDegrees>39.603692851960659027099609375</LatitudeDegrees>
              <LongitudeDegrees>-0.64533018507063388824462890625</LongitudeDegrees>
            </Position>
            <AltitudeMeters>137</AltitudeMeters>
            <DistanceMeters>34790.721759208</DistanceMeters>
          </Trackpoint>
          <Trackpoint>
            <Time>2021-10-09T08:07:59.000Z</Time>
            <Position>
              <LatitudeDegrees>39.60375429131090641021728515625</LatitudeDegrees>
              <LongitudeDegrees>-0.64543898217380046844482421875</LongitudeDegrees>
            </Position>
            <AltitudeMeters>136.8000030517578125</AltitudeMeters>
            <DistanceMeters>34802.289285855</DistanceMeters>
          </Trackpoint>
          <Trackpoint>
            <Time>2021-10-09T08:08:00.000Z</Time>
            <Position>
              <LatitudeDegrees>39.60379553027451038360595703125</LatitudeDegrees>
              <LongitudeDegrees>-0.64551039598882198333740234375</LongitudeDegrees>
            </Position>
            <AltitudeMeters>136.8000030517578125</AltitudeMeters>
            <DistanceMeters>34809.942329421</DistanceMeters>
          </Trackpoint>
          <Trackpoint>
            <Time>2021-10-09T08:08:01.000Z</Time>
            <Position>
              <LatitudeDegrees>39.60384749807417392730712890625</LatitudeDegrees>
              <LongitudeDegrees>-0.64560125581920146942138671875</LongitudeDegrees>
            </Position>
            <AltitudeMeters>136.8000030517578125</AltitudeMeters>
            <DistanceMeters>34819.64622746</DistanceMeters>
          </Trackpoint>
          <Trackpoint>
            <Time>2021-10-09T08:08:02.000Z</Time>
            <Position>
              <LatitudeDegrees>39.603902064263820648193359375</LatitudeDegrees>
              <LongitudeDegrees>-0.645693205296993255615234375</LongitudeDegrees>
            </Position>
            <AltitudeMeters>136.8000030517578125</AltitudeMeters>
            <DistanceMeters>34829.599113403</DistanceMeters>
          </Trackpoint>
          <Trackpoint>
            <Time>2021-10-09T08:08:03.000Z</Time>
            <Position>
              <LatitudeDegrees>39.60395847447216510772705078125</LatitudeDegrees>
              <LongitudeDegrees>-0.64578196965157985687255859375</LongitudeDegrees>
            </Position>
            <AltitudeMeters>136.8000030517578125</AltitudeMeters>
            <DistanceMeters>34839.466346258</DistanceMeters>
          </Trackpoint>
          <Trackpoint>
            <Time>2021-10-09T08:08:04.000Z</Time>
            <Position>
              <LatitudeDegrees>39.60401798598468303680419921875</LatitudeDegrees>
              <LongitudeDegrees>-0.6458673812448978424072265625</LongitudeDegrees>
            </Position>
            <AltitudeMeters>136.600006103515625</AltitudeMeters>
            <DistanceMeters>34849.341354892</DistanceMeters>
          </Trackpoint>
          <Trackpoint>
            <Time>2021-10-09T08:08:05.000Z</Time>
            <Position>
              <LatitudeDegrees>39.6040805988013744354248046875</LatitudeDegrees>
              <LongitudeDegrees>-0.6459525413811206817626953125</LongitudeDegrees>
            </Position>
            <AltitudeMeters>136.600006103515625</AltitudeMeters>
            <DistanceMeters>34859.435231874</DistanceMeters>
          </Trackpoint>
          <Trackpoint>
            <Time>2021-10-09T08:08:06.000Z</Time>
            <Position>
              <LatitudeDegrees>39.6041459776461124420166015625</LatitudeDegrees>
              <LongitudeDegrees>-0.64603887498378753662109375</LongitudeDegrees>
            </Position>
            <AltitudeMeters>136.600006103515625</AltitudeMeters>
            <DistanceMeters>34869.816220857</DistanceMeters>
          </Trackpoint>
          <Trackpoint>
            <Time>2021-10-09T08:08:07.000Z</Time>
            <Position>
              <LatitudeDegrees>39.60421211086213588714599609375</LatitudeDegrees>
              <LongitudeDegrees>-0.646125376224517822265625</LongitudeDegrees>
            </Position>
            <AltitudeMeters>136.399993896484375</AltitudeMeters>
            <DistanceMeters>34880.266567479</DistanceMeters>
          </Trackpoint>
          <Trackpoint>
            <Time>2021-10-09T08:08:08.000Z</Time>
            <Position>
              <LatitudeDegrees>39.604279585182666778564453125</LatitudeDegrees>
              <LongitudeDegrees>-0.64621145837008953094482421875</LongitudeDegrees>
            </Position>
            <AltitudeMeters>136.1999969482421875</AltitudeMeters>
            <DistanceMeters>34890.796968171</DistanceMeters>
          </Trackpoint>
          <Trackpoint>
            <Time>2021-10-09T08:08:09.000Z</Time>
            <Position>
              <LatitudeDegrees>39.604347310960292816162109375</LatitudeDegrees>
              <LongitudeDegrees>-0.6463008932769298553466796875</LongitudeDegrees>
            </Position>
            <AltitudeMeters>136.1999969482421875</AltitudeMeters>
            <DistanceMeters>34901.550533112</DistanceMeters>
          </Trackpoint>
          <Trackpoint>
            <Time>2021-10-09T08:08:10.000Z</Time>
            <Position>
              <LatitudeDegrees>39.604414366185665130615234375</LatitudeDegrees>
              <LongitudeDegrees>-0.646388567984104156494140625</LongitudeDegrees>
            </Position>
            <AltitudeMeters>136</AltitudeMeters>
            <DistanceMeters>34912.144200562</DistanceMeters>
          </Trackpoint>
          <Trackpoint>
            <Time>2021-10-09T08:08:11.000Z</Time>
            <Position>
              <LatitudeDegrees>39.6044819243252277374267578125</LatitudeDegrees>
              <LongitudeDegrees>-0.64647649414837360382080078125</LongitudeDegrees>
            </Position>
            <AltitudeMeters>135.600006103515625</AltitudeMeters>
            <DistanceMeters>34922.793130085</DistanceMeters>
          </Trackpoint>
          <Trackpoint>
            <Time>2021-10-09T08:08:12.000Z</Time>
            <Position>
              <LatitudeDegrees>39.6045509912073612213134765625</LatitudeDegrees>
              <LongitudeDegrees>-0.64656433649361133575439453125</LongitudeDegrees>
            </Position>
            <AltitudeMeters>135.399993896484375</AltitudeMeters>
            <DistanceMeters>34933.555928077</DistanceMeters>
          </Trackpoint>
          <Trackpoint>
            <Time>2021-10-09T08:08:13.000Z</Time>
            <Position>
              <LatitudeDegrees>39.60462450049817562103271484375</LatitudeDegrees>
              <LongitudeDegrees>-0.6466482393443584442138671875</LongitudeDegrees>
            </Position>
            <AltitudeMeters>134.8000030517578125</AltitudeMeters>
            <DistanceMeters>34944.45131173</DistanceMeters>
          </Trackpoint>
          <Trackpoint>
            <Time>2021-10-09T08:08:14.000Z</Time>
            <Position>
              <LatitudeDegrees>39.60470261983573436737060546875</LatitudeDegrees>
              <LongitudeDegrees>-0.64672493375837802886962890625</LongitudeDegrees>
            </Position>
            <AltitudeMeters>134.399993896484375</AltitudeMeters>
            <DistanceMeters>34955.353323753</DistanceMeters>
          </Trackpoint>
          <Trackpoint>
            <Time>2021-10-09T08:08:15.000Z</Time>
            <Position>
              <LatitudeDegrees>39.60478710941970348358154296875</LatitudeDegrees>
              <LongitudeDegrees>-0.64679416827857494354248046875</LongitudeDegrees>
            </Position>
            <AltitudeMeters>133.8000030517578125</AltitudeMeters>
            <DistanceMeters>34966.475103607</DistanceMeters>
          </Trackpoint>
          <Trackpoint>
            <Time>2021-10-09T08:08:16.000Z</Time>
            <Position>
              <LatitudeDegrees>39.6048775501549243927001953125</LatitudeDegrees>
              <LongitudeDegrees>-0.64685426652431488037109375</LongitudeDegrees>
            </Position>
            <AltitudeMeters>133.600006103515625</AltitudeMeters>
            <DistanceMeters>34977.784081133</DistanceMeters>
          </Trackpoint>
          <Trackpoint>
            <Time>2021-10-09T08:08:17.000Z</Time>
            <Position>
              <LatitudeDegrees>39.6049712598323822021484375</LatitudeDegrees>
              <LongitudeDegrees>-0.6469057314097881317138671875</LongitudeDegrees>
            </Position>
            <AltitudeMeters>133.1999969482421875</AltitudeMeters>
            <DistanceMeters>34989.109415822</DistanceMeters>
          </Trackpoint>
          <Trackpoint>
            <Time>2021-10-09T08:08:18.000Z</Time>
            <Position>
              <LatitudeDegrees>39.60506916046142578125</LatitudeDegrees>
              <LongitudeDegrees>-0.64695174805819988250732421875</LongitudeDegrees>
            </Position>
            <AltitudeMeters>133</AltitudeMeters>
            <DistanceMeters>35000.698779783</DistanceMeters>
          </Trackpoint>
          <Trackpoint>
            <Time>2021-10-09T08:08:19.000Z</Time>
            <Position>
              <LatitudeDegrees>39.60516999475657939910888671875</LatitudeDegrees>
              <LongitudeDegrees>-0.64699315465986728668212890625</LongitudeDegrees>
            </Position>
            <AltitudeMeters>132.8000030517578125</AltitudeMeters>
            <DistanceMeters>35012.469824467</DistanceMeters>
          </Trackpoint>
          <Trackpoint>
            <Time>2021-10-09T08:08:20.000Z</Time>
            <Position>
              <LatitudeDegrees>39.60527208633720874786376953125</LatitudeDegrees>
              <LongitudeDegrees>-0.6470281071960926055908203125</LongitudeDegrees>
            </Position>
            <AltitudeMeters>131.8000030517578125</AltitudeMeters>
            <DistanceMeters>35024.221674923</DistanceMeters>
          </Trackpoint>
          <Trackpoint>
            <Time>2021-10-09T08:08:21.000Z</Time>
            <Position>
              <LatitudeDegrees>39.60537292063236236572265625</LatitudeDegrees>
              <LongitudeDegrees>-0.64705836586654186248779296875</LongitudeDegrees>
            </Position>
            <AltitudeMeters>131.399993896484375</AltitudeMeters>
            <DistanceMeters>35035.740700197</DistanceMeters>
          </Trackpoint>
          <Trackpoint>
            <Time>2021-10-09T08:08:22.000Z</Time>
            <Position>
              <LatitudeDegrees>39.6054756827652454376220703125</LatitudeDegrees>
              <LongitudeDegrees>-0.6470827572047710418701171875</LongitudeDegrees>
            </Position>
            <AltitudeMeters>130.8000030517578125</AltitudeMeters>
            <DistanceMeters>35047.367404131</DistanceMeters>
          </Trackpoint>
          <Trackpoint>
            <Time>2021-10-09T08:08:23.000Z</Time>
            <Position>
              <LatitudeDegrees>39.60557953454554080963134765625</LatitudeDegrees>
              <LongitudeDegrees>-0.6471048854291439056396484375</LongitudeDegrees>
            </Position>
            <AltitudeMeters>130.399993896484375</AltitudeMeters>
            <DistanceMeters>35059.080771772</DistanceMeters>
          </Trackpoint>
          <Trackpoint>
            <Time>2021-10-09T08:08:24.000Z</Time>
            <Position>
              <LatitudeDegrees>39.6056845597922801971435546875</LatitudeDegrees>
              <LongitudeDegrees>-0.6471323780715465545654296875</LongitudeDegrees>
            </Position>
            <AltitudeMeters>130</AltitudeMeters>
            <DistanceMeters>35071.005772562</DistanceMeters>
          </Trackpoint>
          <Trackpoint>
            <Time>2021-10-09T08:08:25.000Z</Time>
            <Position>
              <LatitudeDegrees>39.60578732192516326904296875</LatitudeDegrees>
              <LongitudeDegrees>-0.64715978689491748809814453125</LongitudeDegrees>
            </Position>
            <AltitudeMeters>129.399993896484375</AltitudeMeters>
            <DistanceMeters>35082.682850719</DistanceMeters>
          </Trackpoint>
          <Trackpoint>
            <Time>2021-10-09T08:08:26.000Z</Time>
            <Position>
              <LatitudeDegrees>39.6058887429535388946533203125</LatitudeDegrees>
              <LongitudeDegrees>-0.6471900455653667449951171875</LongitudeDegrees>
            </Position>
            <AltitudeMeters>129.1999969482421875</AltitudeMeters>
            <DistanceMeters>35094.265589848</DistanceMeters>
          </Trackpoint>
          <Trackpoint>
            <Time>2021-10-09T08:08:27.000Z</Time>
            <Position>
              <LatitudeDegrees>39.60598857142031192779541015625</LatitudeDegrees>
              <LongitudeDegrees>-0.64722700975835323333740234375</LongitudeDegrees>
            </Position>
            <AltitudeMeters>128.600006103515625</AltitudeMeters>
            <DistanceMeters>35105.819837991</DistanceMeters>
          </Trackpoint>
          <Trackpoint>
            <Time>2021-10-09T08:08:28.000Z</Time>
            <Position>
              <LatitudeDegrees>39.606085717678070068359375</LatitudeDegrees>
              <LongitudeDegrees>-0.6472738645970821380615234375</LongitudeDegrees>
            </Position>
            <AltitudeMeters>128.600006103515625</AltitudeMeters>
            <DistanceMeters>35117.354922577</DistanceMeters>
          </Trackpoint>
          <Trackpoint>
            <Time>2021-10-09T08:08:29.000Z</Time>
            <Position>
              <LatitudeDegrees>39.6061797626316547393798828125</LatitudeDegrees>
              <LongitudeDegrees>-0.64732926897704601287841796875</LongitudeDegrees>
            </Position>
            <AltitudeMeters>127.8000030517578125</AltitudeMeters>
            <DistanceMeters>35128.850405981</DistanceMeters>
          </Trackpoint>
          <Trackpoint>
            <Time>2021-10-09T08:08:30.000Z</Time>
            <Position>
              <LatitudeDegrees>39.606266431510448455810546875</LatitudeDegrees>
              <LongitudeDegrees>-0.64739649184048175811767578125</LongitudeDegrees>
            </Position>
            <AltitudeMeters>127.40000152587890625</AltitudeMeters>
            <DistanceMeters>35140.08769164</DistanceMeters>
          </Trackpoint>
          <Trackpoint>
            <Time>2021-10-09T08:08:31.000Z</Time>
            <Position>
              <LatitudeDegrees>39.60634564049541950225830078125</LatitudeDegrees>
              <LongitudeDegrees>-0.64747788012027740478515625</LongitudeDegrees>
            </Position>
            <AltitudeMeters>126.8000030517578125</AltitudeMeters>
            <DistanceMeters>35151.331404115</DistanceMeters>
          </Trackpoint>
          <Trackpoint>
            <Time>2021-10-09T08:08:32.000Z</Time>
            <Position>
              <LatitudeDegrees>39.60642023943364620208740234375</LatitudeDegrees>
              <LongitudeDegrees>-0.64756748266518115997314453125</LongitudeDegrees>
            </Position>
            <AltitudeMeters>126.8000030517578125</AltitudeMeters>
            <DistanceMeters>35162.643974263</DistanceMeters>
          </Trackpoint>
          <Trackpoint>
            <Time>2021-10-09T08:08:33.000Z</Time>
            <Position>
              <LatitudeDegrees>39.60648595355451107025146484375</LatitudeDegrees>
              <LongitudeDegrees>-0.6476624496281147003173828125</LongitudeDegrees>
            </Position>
            <AltitudeMeters>126.40000152587890625</AltitudeMeters>
            <DistanceMeters>35173.590210344</DistanceMeters>
          </Trackpoint>
          <Trackpoint>
            <Time>2021-10-09T08:08:34.000Z</Time>
            <Position>
              <LatitudeDegrees>39.60654295049607753753662109375</LatitudeDegrees>
              <LongitudeDegrees>-0.64776026643812656402587890625</LongitudeDegrees>
            </Position>
            <AltitudeMeters>126</AltitudeMeters>
            <DistanceMeters>35184.106881694</DistanceMeters>
          </Trackpoint>
          <Trackpoint>
            <Time>2021-10-09T08:08:35.000Z</Time>
            <Position>
              <LatitudeDegrees>39.60659625940024852752685546875</LatitudeDegrees>
              <LongitudeDegrees>-0.6478602625429630279541015625</LongitudeDegrees>
            </Position>
            <AltitudeMeters>125.59999847412109375</AltitudeMeters>
            <DistanceMeters>35194.534304696</DistanceMeters>
          </Trackpoint>
          <Trackpoint>
            <Time>2021-10-09T08:08:36.000Z</Time>
            <Position>
              <LatitudeDegrees>39.60664696991443634033203125</LatitudeDegrees>
              <LongitudeDegrees>-0.6479621864855289459228515625</LongitudeDegrees>
            </Position>
            <AltitudeMeters>125.1999969482421875</AltitudeMeters>
            <DistanceMeters>35204.938753572</DistanceMeters>
          </Trackpoint>
          <Trackpoint>
            <Time>2021-10-09T08:08:37.000Z</Time>
            <Position>
              <LatitudeDegrees>39.60669365711510181427001953125</LatitudeDegrees>
              <LongitudeDegrees>-0.6480677984654903411865234375</LongitudeDegrees>
            </Position>
            <AltitudeMeters>125.1999969482421875</AltitudeMeters>
            <DistanceMeters>35215.380455683</DistanceMeters>
          </Trackpoint>
          <Trackpoint>
            <Time>2021-10-09T08:08:38.000Z</Time>
            <Position>
              <LatitudeDegrees>39.60674109868705272674560546875</LatitudeDegrees>
              <LongitudeDegrees>-0.64817198552191257476806640625</LongitudeDegrees>
            </Position>
            <AltitudeMeters>125</AltitudeMeters>
            <DistanceMeters>35225.758834739</DistanceMeters>
          </Trackpoint>
          <Trackpoint>
            <Time>2021-10-09T08:08:39.000Z</Time>
            <Position>
              <LatitudeDegrees>39.60678686387836933135986328125</LatitudeDegrees>
              <LongitudeDegrees>-0.64827323891222476959228515625</LongitudeDegrees>
            </Position>
            <AltitudeMeters>124.8000030517578125</AltitudeMeters>
            <DistanceMeters>35235.825837666</DistanceMeters>
          </Trackpoint>
          <Trackpoint>
            <Time>2021-10-09T08:08:40.000Z</Time>
            <Position>
              <LatitudeDegrees>39.6068312041461467742919921875</LatitudeDegrees>
              <LongitudeDegrees>-0.64837248064577579498291015625</LongitudeDegrees>
            </Position>
            <AltitudeMeters>124.8000030517578125</AltitudeMeters>
            <DistanceMeters>35245.66374188</DistanceMeters>
          </Trackpoint>
          <Trackpoint>
            <Time>2021-10-09T08:08:41.000Z</Time>
            <Position>
              <LatitudeDegrees>39.6068757958710193634033203125</LatitudeDegrees>
              <LongitudeDegrees>-0.648467950522899627685546875</LongitudeDegrees>
            </Position>
            <AltitudeMeters>124.59999847412109375</AltitudeMeters>
            <DistanceMeters>35255.237418076</DistanceMeters>
          </Trackpoint>
          <Trackpoint>
            <Time>2021-10-09T08:08:42.000Z</Time>
            <Position>
              <LatitudeDegrees>39.60692130960524082183837890625</LatitudeDegrees>
              <LongitudeDegrees>-0.64856283366680145263671875</LongitudeDegrees>
            </Position>
            <AltitudeMeters>124.8000030517578125</AltitudeMeters>
            <DistanceMeters>35264.821464069</DistanceMeters>
          </Trackpoint>
          <Trackpoint>
            <Time>2021-10-09T08:08:43.000Z</Time>
            <Position>
              <LatitudeDegrees>39.6069649793207645416259765625</LatitudeDegrees>
              <LongitudeDegrees>-0.64865813590586185455322265625</LongitudeDegrees>
            </Position>
            <AltitudeMeters>124.8000030517578125</AltitudeMeters>
            <DistanceMeters>35274.329835399</DistanceMeters>
          </Trackpoint>
          <Trackpoint>
            <Time>2021-10-09T08:08:44.000Z</Time>
            <Position>
              <LatitudeDegrees>39.6070068888366222381591796875</LatitudeDegrees>
              <LongitudeDegrees>-0.648752935230731964111328125</LongitudeDegrees>
            </Position>
            <AltitudeMeters>124.8000030517578125</AltitudeMeters>
            <DistanceMeters>35283.702379539</DistanceMeters>
          </Trackpoint>
          <Trackpoint>
            <Time>2021-10-09T08:08:45.000Z</Time>
            <Position>
              <LatitudeDegrees>39.607048295438289642333984375</LatitudeDegrees>
              <LongitudeDegrees>-0.6488459743559360504150390625</LongitudeDegrees>
            </Position>
            <AltitudeMeters>124.8000030517578125</AltitudeMeters>
            <DistanceMeters>35292.916541396</DistanceMeters>
          </Trackpoint>
          <Trackpoint>
            <Time>2021-10-09T08:08:46.000Z</Time>
            <Position>
              <LatitudeDegrees>39.6070902049541473388671875</LatitudeDegrees>
              <LongitudeDegrees>-0.64893976785242557525634765625</LongitudeDegrees>
            </Position>
            <AltitudeMeters>124.8000030517578125</AltitudeMeters>
            <DistanceMeters>35302.21411752</DistanceMeters>
          </Trackpoint>
          <Trackpoint>
            <Time>2021-10-09T08:08:47.000Z</Time>
            <Position>
              <LatitudeDegrees>39.60713169537484645843505859375</LatitudeDegrees>
              <LongitudeDegrees>-0.64903247170150279998779296875</LongitudeDegrees>
            </Position>
            <AltitudeMeters>125</AltitudeMeters>
            <DistanceMeters>35311.407675891</DistanceMeters>
          </Trackpoint>
          <Trackpoint>
            <Time>2021-10-09T08:08:48.000Z</Time>
            <Position>
              <LatitudeDegrees>39.60717125795781612396240234375</LatitudeDegrees>
              <LongitudeDegrees>-0.64912366680800914764404296875</LongitudeDegrees>
            </Position>
            <AltitudeMeters>125</AltitudeMeters>
            <DistanceMeters>35320.382545354</DistanceMeters>
          </Trackpoint>
          <Trackpoint>
            <Time>2021-10-09T08:08:49.000Z</Time>
            <Position>
              <LatitudeDegrees>39.60721367038786411285400390625</LatitudeDegrees>
              <LongitudeDegrees>-0.64921201206743717193603515625</LongitudeDegrees>
            </Position>
            <AltitudeMeters>125</AltitudeMeters>
            <DistanceMeters>35329.30848309</DistanceMeters>
          </Trackpoint>
          <Trackpoint>
            <Time>2021-10-09T08:08:50.000Z</Time>
            <Position>
              <LatitudeDegrees>39.60725775919854640960693359375</LatitudeDegrees>
              <LongitudeDegrees>-0.649298764765262603759765625</LongitudeDegrees>
            </Position>
            <AltitudeMeters>125.40000152587890625</AltitudeMeters>
            <DistanceMeters>35338.220246234</DistanceMeters>
          </Trackpoint>
          <Trackpoint>
            <Time>2021-10-09T08:08:51.000Z</Time>
            <Position>
              <LatitudeDegrees>39.60730218328535556793212890625</LatitudeDegrees>
              <LongitudeDegrees>-0.64938032068312168121337890625</LongitudeDegrees>
            </Position>
            <AltitudeMeters>125.40000152587890625</AltitudeMeters>
            <DistanceMeters>35346.785311384</DistanceMeters>
          </Trackpoint>
          <Trackpoint>
            <Time>2021-10-09T08:08:52.000Z</Time>
            <Position>
              <LatitudeDegrees>39.60734392516314983367919921875</LatitudeDegrees>
              <LongitudeDegrees>-0.64945961348712444305419921875</LongitudeDegrees>
            </Position>
            <AltitudeMeters>125.59999847412109375</AltitudeMeters>
            <DistanceMeters>35355.020350795</DistanceMeters>
          </Trackpoint>
          <Trackpoint>
            <Time>2021-10-09T08:08:53.000Z</Time>
            <Position>
              <LatitudeDegrees>39.6073864214122295379638671875</LatitudeDegrees>
              <LongitudeDegrees>-0.64953706227242946624755859375</LongitudeDegrees>
            </Position>
            <AltitudeMeters>125.8000030517578125</AltitudeMeters>
            <DistanceMeters>35363.173842242</DistanceMeters>
          </Trackpoint>
          <Trackpoint>
            <Time>2021-10-09T08:08:54.000Z</Time>
            <Position>
              <LatitudeDegrees>39.6074283309280872344970703125</LatitudeDegrees>
              <LongitudeDegrees>-0.64961048774421215057373046875</LongitudeDegrees>
            </Position>
            <AltitudeMeters>125.8000030517578125</AltitudeMeters>
            <DistanceMeters>35371.009945854</DistanceMeters>
          </Trackpoint>
          <Trackpoint>
            <Time>2021-10-09T08:08:55.000Z</Time>
            <Position>
              <LatitudeDegrees>39.607470072805881500244140625</LatitudeDegrees>
              <LongitudeDegrees>-0.64968290738761425018310546875</LongitudeDegrees>
            </Position>
            <AltitudeMeters>126</AltitudeMeters>
            <DistanceMeters>35378.765546359</DistanceMeters>
          </Trackpoint>
          <Trackpoint>
            <Time>2021-10-09T08:08:56.000Z</Time>
            <Position>
              <LatitudeDegrees>39.60751022212207317352294921875</LatitudeDegrees>
              <LongitudeDegrees>-0.64975599758327007293701171875</LongitudeDegrees>
            </Position>
            <AltitudeMeters>126</AltitudeMeters>
            <DistanceMeters>35386.462710223</DistanceMeters>
          </Trackpoint>
          <Trackpoint>
            <Time>2021-10-09T08:08:57.000Z</Time>
            <Position>
              <LatitudeDegrees>39.60755095817148685455322265625</LatitudeDegrees>
              <LongitudeDegrees>-0.6498263217508792877197265625</LongitudeDegrees>
            </Position>
            <AltitudeMeters>126</AltitudeMeters>
            <DistanceMeters>35394.007017469</DistanceMeters>
          </Trackpoint>
          <Trackpoint>
            <Time>2021-10-09T08:08:58.000Z</Time>
            <Position>
              <LatitudeDegrees>39.6075922809541225433349609375</LatitudeDegrees>
              <LongitudeDegrees>-0.64989044331014156341552734375</LongitudeDegrees>
            </Position>
            <AltitudeMeters>126.1999969482421875</AltitudeMeters>
            <DistanceMeters>35401.175081013</DistanceMeters>
          </Trackpoint>
          <Trackpoint>
            <Time>2021-10-09T08:08:59.000Z</Time>
            <Position>
              <LatitudeDegrees>39.6076331846415996551513671875</LatitudeDegrees>
              <LongitudeDegrees>-0.64995263703167438507080078125</LongitudeDegrees>
            </Position>
            <AltitudeMeters>126.1999969482421875</AltitudeMeters>
            <DistanceMeters>35408.187125382</DistanceMeters>
          </Trackpoint>
          <Trackpoint>
            <Time>2021-10-09T08:09:00.000Z</Time>
            <Position>
              <LatitudeDegrees>39.60767115466296672821044921875</LatitudeDegrees>
              <LongitudeDegrees>-0.6500154174864292144775390625</LongitudeDegrees>
            </Position>
            <AltitudeMeters>126.40000152587890625</AltitudeMeters>
            <DistanceMeters>35415.031687939</DistanceMeters>
          </Trackpoint>
          <Trackpoint>
            <Time>2021-10-09T08:09:01.000Z</Time>
            <Position>
              <LatitudeDegrees>39.60770853795111179351806640625</LatitudeDegrees>
              <LongitudeDegrees>-0.65007702447474002838134765625</LongitudeDegrees>
            </Position>
            <AltitudeMeters>126.59999847412109375</AltitudeMeters>
            <DistanceMeters>35421.756464725</DistanceMeters>
          </Trackpoint>
          <Trackpoint>
            <Time>2021-10-09T08:09:02.000Z</Time>
            <Position>
              <LatitudeDegrees>39.607747010886669158935546875</LatitudeDegrees>
              <LongitudeDegrees>-0.65013787709176540374755859375</LongitudeDegrees>
            </Position>
            <AltitudeMeters>127</AltitudeMeters>
            <DistanceMeters>35428.506706627</DistanceMeters>
          </Trackpoint>
          <Trackpoint>
            <Time>2021-10-09T08:09:03.000Z</Time>
            <Position>
              <LatitudeDegrees>39.60778263397514820098876953125</LatitudeDegrees>
              <LongitudeDegrees>-0.6501981429755687713623046875</LongitudeDegrees>
            </Position>
            <AltitudeMeters>127.40000152587890625</AltitudeMeters>
            <DistanceMeters>35435.021409943</DistanceMeters>
          </Trackpoint>
          <Trackpoint>
            <Time>2021-10-09T08:09:04.000Z</Time>
            <Position>
              <LatitudeDegrees>39.6078197658061981201171875</LatitudeDegrees>
              <LongitudeDegrees>-0.6502611748874187469482421875</LongitudeDegrees>
            </Position>
            <AltitudeMeters>127.8000030517578125</AltitudeMeters>
            <DistanceMeters>35441.8262782</DistanceMeters>
          </Trackpoint>
          <Trackpoint>
            <Time>2021-10-09T08:09:05.000Z</Time>
            <Position>
              <LatitudeDegrees>39.60785538889467716217041015625</LatitudeDegrees>
              <LongitudeDegrees>-0.6503232009708881378173828125</LongitudeDegrees>
            </Position>
            <AltitudeMeters>128</AltitudeMeters>
            <DistanceMeters>35448.460476915</DistanceMeters>
          </Trackpoint>
          <Trackpoint>
            <Time>2021-10-09T08:09:06.000Z</Time>
            <Position>
              <LatitudeDegrees>39.6078908443450927734375</LatitudeDegrees>
              <LongitudeDegrees>-0.650384724140167236328125</LongitudeDegrees>
            </Position>
            <AltitudeMeters>128.399993896484375</AltitudeMeters>
            <DistanceMeters>35455.048234302</DistanceMeters>
          </Trackpoint>
          <Trackpoint>
            <Time>2021-10-09T08:09:07.000Z</Time>
            <Position>
              <LatitudeDegrees>39.6079292334616184234619140625</LatitudeDegrees>
              <LongitudeDegrees>-0.6504475884139537811279296875</LongitudeDegrees>
            </Position>
            <AltitudeMeters>128.399993896484375</AltitudeMeters>
            <DistanceMeters>35461.927013305</DistanceMeters>
          </Trackpoint>
          <Trackpoint>
            <Time>2021-10-09T08:09:08.000Z</Time>
            <Position>
              <LatitudeDegrees>39.607965946197509765625</LatitudeDegrees>
              <LongitudeDegrees>-0.6505102850496768951416015625</LongitudeDegrees>
            </Position>
            <AltitudeMeters>128.8000030517578125</AltitudeMeters>
            <DistanceMeters>35468.680598732</DistanceMeters>
          </Trackpoint>
          <Trackpoint>
            <Time>2021-10-09T08:09:09.000Z</Time>
            <Position>
              <LatitudeDegrees>39.6080029942095279693603515625</LatitudeDegrees>
              <LongitudeDegrees>-0.6505723111331462860107421875</LongitudeDegrees>
            </Position>
            <AltitudeMeters>129.1999969482421875</AltitudeMeters>
            <DistanceMeters>35475.411415437</DistanceMeters>
          </Trackpoint>
          <Trackpoint>
            <Time>2021-10-09T08:09:10.000Z</Time>
            <Position>
              <LatitudeDegrees>39.6080408804118633270263671875</LatitudeDegrees>
              <LongitudeDegrees>-0.6506329961121082305908203125</LongitudeDegrees>
            </Position>
            <AltitudeMeters>129.1999969482421875</AltitudeMeters>
            <DistanceMeters>35482.109282245</DistanceMeters>
          </Trackpoint>
          <Trackpoint>
            <Time>2021-10-09T08:09:11.000Z</Time>
            <Position>
              <LatitudeDegrees>39.60807750932872295379638671875</LatitudeDegrees>
              <LongitudeDegrees>-0.6506940163671970367431640625</LongitudeDegrees>
            </Position>
            <AltitudeMeters>129.399993896484375</AltitudeMeters>
            <DistanceMeters>35488.742119679</DistanceMeters>
          </Trackpoint>
          <Trackpoint>
            <Time>2021-10-09T08:09:12.000Z</Time>
            <Position>
              <LatitudeDegrees>39.6081139706075191497802734375</LatitudeDegrees>
              <LongitudeDegrees>-0.65075361169874668121337890625</LongitudeDegrees>
            </Position>
            <AltitudeMeters>129.600006103515625</AltitudeMeters>
            <DistanceMeters>35495.26790243</DistanceMeters>
          </Trackpoint>
          <Trackpoint>
            <Time>2021-10-09T08:09:13.000Z</Time>
            <Position>
              <LatitudeDegrees>39.60814942605793476104736328125</LatitudeDegrees>
              <LongitudeDegrees>-0.65081295557320117950439453125</LongitudeDegrees>
            </Position>
            <AltitudeMeters>129.600006103515625</AltitudeMeters>
            <DistanceMeters>35501.707320962</DistanceMeters>
          </Trackpoint>
          <Trackpoint>
            <Time>2021-10-09T08:09:14.000Z</Time>
            <Position>
              <LatitudeDegrees>39.60818521678447723388671875</LatitudeDegrees>
              <LongitudeDegrees>-0.650872886180877685546875</LongitudeDegrees>
            </Position>
            <AltitudeMeters>129.8000030517578125</AltitudeMeters>
            <DistanceMeters>35508.208842925</DistanceMeters>
          </Trackpoint>
          <Trackpoint>
            <Time>2021-10-09T08:09:15.000Z</Time>
            <Position>
              <LatitudeDegrees>39.6082220971584320068359375</LatitudeDegrees>
              <LongitudeDegrees>-0.650931559503078460693359375</LongitudeDegrees>
            </Position>
            <AltitudeMeters>130</AltitudeMeters>
            <DistanceMeters>35514.70272135</DistanceMeters>
          </Trackpoint>
          <Trackpoint>
            <Time>2021-10-09T08:09:16.000Z</Time>
            <Position>
              <LatitudeDegrees>39.60825637914240360260009765625</LatitudeDegrees>
              <LongitudeDegrees>-0.65098897553980350494384765625</LongitudeDegrees>
            </Position>
            <AltitudeMeters>130.1999969482421875</AltitudeMeters>
            <DistanceMeters>35520.932590414</DistanceMeters>
          </Trackpoint>
          <Trackpoint>
            <Time>2021-10-09T08:09:17.000Z</Time>
            <Position>
              <LatitudeDegrees>39.60828839801251888275146484375</LatitudeDegrees>
              <LongitudeDegrees>-0.65104513429105281829833984375</LongitudeDegrees>
            </Position>
            <AltitudeMeters>130.1999969482421875</AltitudeMeters>
            <DistanceMeters>35526.923796792</DistanceMeters>
          </Trackpoint>
          <Trackpoint>
            <Time>2021-10-09T08:09:18.000Z</Time>
            <Position>
              <LatitudeDegrees>39.6083221770823001861572265625</LatitudeDegrees>
              <LongitudeDegrees>-0.65110129304230213165283203125</LongitudeDegrees>
            </Position>
            <AltitudeMeters>130.399993896484375</AltitudeMeters>
            <DistanceMeters>35533.033652438</DistanceMeters>
          </Trackpoint>
          <Trackpoint>
            <Time>2021-10-09T08:09:19.000Z</Time>
            <Position>
              <LatitudeDegrees>39.6083546988666057586669921875</LatitudeDegrees>
              <LongitudeDegrees>-0.6511583738029003143310546875</LongitudeDegrees>
            </Position>
            <AltitudeMeters>130.600006103515625</AltitudeMeters>
            <DistanceMeters>35539.12129843</DistanceMeters>
          </Trackpoint>
          <Trackpoint>
            <Time>2021-10-09T08:09:20.000Z</Time>
            <Position>
              <LatitudeDegrees>39.60838814266026020050048828125</LatitudeDegrees>
              <LongitudeDegrees>-0.65121612511575222015380859375</LongitudeDegrees>
            </Position>
            <AltitudeMeters>130.8000030517578125</AltitudeMeters>
            <DistanceMeters>35545.316282279</DistanceMeters>
          </Trackpoint>
          <Trackpoint>
            <Time>2021-10-09T08:09:21.000Z</Time>
            <Position>
              <LatitudeDegrees>39.60842234082520008087158203125</LatitudeDegrees>
              <LongitudeDegrees>-0.65127463079988956451416015625</LongitudeDegrees>
            </Position>
            <AltitudeMeters>131</AltitudeMeters>
            <DistanceMeters>35551.613908478</DistanceMeters>
          </Trackpoint>
          <Trackpoint>
            <Time>2021-10-09T08:09:22.000Z</Time>
            <Position>
              <LatitudeDegrees>39.60845737718045711517333984375</LatitudeDegrees>
              <LongitudeDegrees>-0.6513323821127414703369140625</LongitudeDegrees>
            </Position>
            <AltitudeMeters>131.1999969482421875</AltitudeMeters>
            <DistanceMeters>35557.916551279</DistanceMeters>
          </Trackpoint>
          <Trackpoint>
            <Time>2021-10-09T08:09:23.000Z</Time>
            <Position>
              <LatitudeDegrees>39.608491994440555572509765625</LatitudeDegrees>
              <LongitudeDegrees>-0.6513897143304347991943359375</LongitudeDegrees>
            </Position>
            <AltitudeMeters>131.1999969482421875</AltitudeMeters>
            <DistanceMeters>35564.162344282</DistanceMeters>
          </Trackpoint>
          <Trackpoint>
            <Time>2021-10-09T08:09:24.000Z</Time>
            <Position>
              <LatitudeDegrees>39.60852426476776599884033203125</LatitudeDegrees>
              <LongitudeDegrees>-0.651446878910064697265625</LongitudeDegrees>
            </Position>
            <AltitudeMeters>131.399993896484375</AltitudeMeters>
            <DistanceMeters>35570.239597992</DistanceMeters>
          </Trackpoint>
          <Trackpoint>
            <Time>2021-10-09T08:09:25.000Z</Time>
            <Position>
              <LatitudeDegrees>39.60855410434305667877197265625</LatitudeDegrees>
              <LongitudeDegrees>-0.65150228329002857208251953125</LongitudeDegrees>
            </Position>
            <AltitudeMeters>131.600006103515625</AltitudeMeters>
            <DistanceMeters>35576.036227569</DistanceMeters>
          </Trackpoint>
          <Trackpoint>
            <Time>2021-10-09T08:09:26.000Z</Time>
            <Position>
              <LatitudeDegrees>39.60858620703220367431640625</LatitudeDegrees>
              <LongitudeDegrees>-0.65155961550772190093994140625</LongitudeDegrees>
            </Position>
            <AltitudeMeters>131.600006103515625</AltitudeMeters>
            <DistanceMeters>35582.113481279</DistanceMeters>
          </Trackpoint>
          <Trackpoint>
            <Time>2021-10-09T08:09:27.000Z</Time>
            <Position>
              <LatitudeDegrees>39.60861495696008205413818359375</LatitudeDegrees>
              <LongitudeDegrees>-0.6516177020967006683349609375</LongitudeDegrees>
            </Position>
            <AltitudeMeters>131.8000030517578125</AltitudeMeters>
            <DistanceMeters>35588.034187044</DistanceMeters>
          </Trackpoint>
          <Trackpoint>
            <Time>2021-10-09T08:09:28.000Z</Time>
            <Position>
              <LatitudeDegrees>39.60864043794572353363037109375</LatitudeDegrees>
              <LongitudeDegrees>-0.6516787223517894744873046875</LongitudeDegrees>
            </Position>
            <AltitudeMeters>132</AltitudeMeters>
            <DistanceMeters>35593.98607665</DistanceMeters>
          </Trackpoint>
          <Trackpoint>
            <Time>2021-10-09T08:09:29.000Z</Time>
            <Position>
              <LatitudeDegrees>39.6086598001420497894287109375</LatitudeDegrees>
              <LongitudeDegrees>-0.6517434306442737579345703125</LongitudeDegrees>
            </Position>
            <AltitudeMeters>132</AltitudeMeters>
            <DistanceMeters>35599.938724798</DistanceMeters>
          </Trackpoint>
          <Trackpoint>
            <Time>2021-10-09T08:09:30.000Z</Time>
            <Position>
              <LatitudeDegrees>39.60867379792034626007080078125</LatitudeDegrees>
              <LongitudeDegrees>-0.6518088094890117645263671875</LongitudeDegrees>
            </Position>
            <AltitudeMeters>132.1999969482421875</AltitudeMeters>
            <DistanceMeters>35605.757898851</DistanceMeters>
          </Trackpoint>
          <Trackpoint>
            <Time>2021-10-09T08:09:31.000Z</Time>
            <Position>
              <LatitudeDegrees>39.60868285037577152252197265625</LatitudeDegrees>
              <LongitudeDegrees>-0.6518746912479400634765625</LongitudeDegrees>
            </Position>
            <AltitudeMeters>132.1999969482421875</AltitudeMeters>
            <DistanceMeters>35611.497386535</DistanceMeters>
          </Trackpoint>
          <Trackpoint>
            <Time>2021-10-09T08:09:32.000Z</Time>
            <Position>
              <LatitudeDegrees>39.60868410766124725341796875</LatitudeDegrees>
              <LongitudeDegrees>-0.6519439257681369781494140625</LongitudeDegrees>
            </Position>
            <AltitudeMeters>132.399993896484375</AltitudeMeters>
            <DistanceMeters>35617.436366126</DistanceMeters>
          </Trackpoint>
          <Trackpoint>
            <Time>2021-10-09T08:09:33.000Z</Time>
            <Position>
              <LatitudeDegrees>39.60868008434772491455078125</LatitudeDegrees>
              <LongitudeDegrees>-0.65201140008866786956787109375</LongitudeDegrees>
            </Position>
            <AltitudeMeters>132.399993896484375</AltitudeMeters>
            <DistanceMeters>35623.240001637</DistanceMeters>
          </Trackpoint>
          <Trackpoint>
            <Time>2021-10-09T08:09:34.000Z</Time>
            <Position>
              <LatitudeDegrees>39.608677737414836883544921875</LatitudeDegrees>
              <LongitudeDegrees>-0.65207778476178646087646484375</LongitudeDegrees>
            </Position>
            <AltitudeMeters>132.600006103515625</AltitudeMeters>
            <DistanceMeters>35628.938436061</DistanceMeters>
          </Trackpoint>
          <Trackpoint>
            <Time>2021-10-09T08:09:35.000Z</Time>
            <Position>
              <LatitudeDegrees>39.608675055205821990966796875</LatitudeDegrees>
              <LongitudeDegrees>-0.65214366652071475982666015625</LongitudeDegrees>
            </Position>
            <AltitudeMeters>132.8000030517578125</AltitudeMeters>
            <DistanceMeters>35634.595519313</DistanceMeters>
          </Trackpoint>
          <Trackpoint>
            <Time>2021-10-09T08:09:36.000Z</Time>
            <Position>
              <LatitudeDegrees>39.6086728759109973907470703125</LatitudeDegrees>
              <LongitudeDegrees>-0.652208290994167327880859375</LongitudeDegrees>
            </Position>
            <AltitudeMeters>132.8000030517578125</AltitudeMeters>
            <DistanceMeters>35640.141368244</DistanceMeters>
          </Trackpoint>
          <Trackpoint>
            <Time>2021-10-09T08:09:37.000Z</Time>
            <Position>
              <LatitudeDegrees>39.608673714101314544677734375</LatitudeDegrees>
              <LongitudeDegrees>-0.65227073617279529571533203125</LongitudeDegrees>
            </Position>
            <AltitudeMeters>132.8000030517578125</AltitudeMeters>
            <DistanceMeters>35645.496694825</DistanceMeters>
          </Trackpoint>
          <Trackpoint>
            <Time>2021-10-09T08:09:38.000Z</Time>
            <Position>
              <LatitudeDegrees>39.6086762286722660064697265625</LatitudeDegrees>
              <LongitudeDegrees>-0.652332343161106109619140625</LongitudeDegrees>
            </Position>
            <AltitudeMeters>133</AltitudeMeters>
            <DistanceMeters>35650.787558363</DistanceMeters>
          </Trackpoint>
          <Trackpoint>
            <Time>2021-10-09T08:09:39.000Z</Time>
            <Position>
              <LatitudeDegrees>39.60868167690932750701904296875</LatitudeDegrees>
              <LongitudeDegrees>-0.65239227376878261566162109375</LongitudeDegrees>
            </Position>
            <AltitudeMeters>133.399993896484375</AltitudeMeters>
            <DistanceMeters>35655.961062647</DistanceMeters>
          </Trackpoint>
          <Trackpoint>
            <Time>2021-10-09T08:09:40.000Z</Time>
            <Position>
              <LatitudeDegrees>39.60868888534605503082275390625</LatitudeDegrees>
              <LongitudeDegrees>-0.652450360357761383056640625</LongitudeDegrees>
            </Position>
            <AltitudeMeters>133.399993896484375</AltitudeMeters>
            <DistanceMeters>35661.007330136</DistanceMeters>
          </Trackpoint>
          <Trackpoint>
            <Time>2021-10-09T08:09:41.000Z</Time>
            <Position>
              <LatitudeDegrees>39.60869844071567058563232421875</LatitudeDegrees>
              <LongitudeDegrees>-0.65250861458480358123779296875</LongitudeDegrees>
            </Position>
            <AltitudeMeters>133.600006103515625</AltitudeMeters>
            <DistanceMeters>35666.115844688</DistanceMeters>
          </Trackpoint>
          <Trackpoint>
            <Time>2021-10-09T08:09:42.000Z</Time>
            <Position>
              <LatitudeDegrees>39.60870883427560329437255859375</LatitudeDegrees>
              <LongitudeDegrees>-0.6525667011737823486328125</LongitudeDegrees>
            </Position>
            <AltitudeMeters>133.8000030517578125</AltitudeMeters>
            <DistanceMeters>35671.229659446</DistanceMeters>
          </Trackpoint>
          <Trackpoint>
            <Time>2021-10-09T08:09:43.000Z</Time>
            <Position>
              <LatitudeDegrees>39.60872526280581951141357421875</LatitudeDegrees>
              <LongitudeDegrees>-0.6526211835443973541259765625</LongitudeDegrees>
            </Position>
            <AltitudeMeters>134</AltitudeMeters>
            <DistanceMeters>35676.247213943</DistanceMeters>
          </Trackpoint>
          <Trackpoint>
            <Time>2021-10-09T08:09:44.000Z</Time>
            <Position>
              <LatitudeDegrees>39.60874688811600208282470703125</LatitudeDegrees>
              <LongitudeDegrees>-0.65267021767795085906982421875</LongitudeDegrees>
            </Position>
            <AltitudeMeters>134.1999969482421875</AltitudeMeters>
            <DistanceMeters>35681.090780666</DistanceMeters>
          </Trackpoint>
          <Trackpoint>
            <Time>2021-10-09T08:09:45.000Z</Time>
            <Position>
              <LatitudeDegrees>39.60877572186291217803955078125</LatitudeDegrees>
              <LongitudeDegrees>-0.6527241133153438568115234375</LongitudeDegrees>
            </Position>
            <AltitudeMeters>134.399993896484375</AltitudeMeters>
            <DistanceMeters>35686.717453574</DistanceMeters>
          </Trackpoint>
          <Trackpoint>
            <Time>2021-10-09T08:09:46.000Z</Time>
            <Position>
              <LatitudeDegrees>39.6087955869734287261962890625</LatitudeDegrees>
              <LongitudeDegrees>-0.65275873057544231414794921875</LongitudeDegrees>
            </Position>
            <AltitudeMeters>134.600006103515625</AltitudeMeters>
            <DistanceMeters>35690.418619061</DistanceMeters>
          </Trackpoint>
          <Trackpoint>
            <Time>2021-10-09T08:09:47.000Z</Time>
            <Position>
              <LatitudeDegrees>39.60882090032100677490234375</LatitudeDegrees>
              <LongitudeDegrees>-0.65279862843453884124755859375</LongitudeDegrees>
            </Position>
            <AltitudeMeters>134.600006103515625</AltitudeMeters>
            <DistanceMeters>35694.851388663</DistanceMeters>
          </Trackpoint>
          <Trackpoint>
            <Time>2021-10-09T08:09:48.000Z</Time>
            <Position>
              <LatitudeDegrees>39.608845375478267669677734375</LatitudeDegrees>
              <LongitudeDegrees>-0.6528354249894618988037109375</LongitudeDegrees>
            </Position>
            <AltitudeMeters>135</AltitudeMeters>
            <DistanceMeters>35699.019585764</DistanceMeters>
          </Trackpoint>
          <Trackpoint>
            <Time>2021-10-09T08:09:49.000Z</Time>
            <Position>
              <LatitudeDegrees>39.6088733710348606109619140625</LatitudeDegrees>
              <LongitudeDegrees>-0.65287448465824127197265625</LongitudeDegrees>
            </Position>
            <AltitudeMeters>135</AltitudeMeters>
            <DistanceMeters>35703.594705129</DistanceMeters>
          </Trackpoint>
          <Trackpoint>
            <Time>2021-10-09T08:09:50.000Z</Time>
            <Position>
              <LatitudeDegrees>39.60890161804854869842529296875</LatitudeDegrees>
              <LongitudeDegrees>-0.652914382517337799072265625</LongitudeDegrees>
            </Position>
            <AltitudeMeters>135.1999969482421875</AltitudeMeters>
            <DistanceMeters>35708.240335624</DistanceMeters>
          </Trackpoint>
          <Trackpoint>
            <Time>2021-10-09T08:09:51.000Z</Time>
            <Position>
              <LatitudeDegrees>39.6089293621480464935302734375</LatitudeDegrees>
              <LongitudeDegrees>-0.65295419655740261077880859375</LongitudeDegrees>
            </Position>
            <AltitudeMeters>135.399993896484375</AltitudeMeters>
            <DistanceMeters>35712.844965847</DistanceMeters>
          </Trackpoint>
          <Trackpoint>
            <Time>2021-10-09T08:09:52.000Z</Time>
            <Position>
              <LatitudeDegrees>39.60895459167659282684326171875</LatitudeDegrees>
              <LongitudeDegrees>-0.6529946811497211456298828125</LongitudeDegrees>
            </Position>
            <AltitudeMeters>135.600006103515625</AltitudeMeters>
            <DistanceMeters>35717.310210386</DistanceMeters>
          </Trackpoint>
          <Trackpoint>
            <Time>2021-10-09T08:09:53.000Z</Time>
            <Position>
              <LatitudeDegrees>39.6089776419103145599365234375</LatitudeDegrees>
              <LongitudeDegrees>-0.6530359201133251190185546875</LongitudeDegrees>
            </Position>
            <AltitudeMeters>136</AltitudeMeters>
            <DistanceMeters>35721.67937296</DistanceMeters>
          </Trackpoint>
          <Trackpoint>
            <Time>2021-10-09T08:09:54.000Z</Time>
            <Position>
              <LatitudeDegrees>39.6090021170675754547119140625</LatitudeDegrees>
              <LongitudeDegrees>-0.6530734710395336151123046875</LongitudeDegrees>
            </Position>
            <AltitudeMeters>136.1999969482421875</AltitudeMeters>
            <DistanceMeters>35725.897103463</DistanceMeters>
          </Trackpoint>
          <Trackpoint>
            <Time>2021-10-09T08:09:55.000Z</Time>
            <Position>
              <LatitudeDegrees>39.6090281009674072265625</LatitudeDegrees>
              <LongitudeDegrees>-0.65310825593769550323486328125</LongitudeDegrees>
            </Position>
            <AltitudeMeters>136.8000030517578125</AltitudeMeters>
            <DistanceMeters>35730.05119495</DistanceMeters>
          </Trackpoint>
          <Trackpoint>
            <Time>2021-10-09T08:09:56.000Z</Time>
            <Position>
              <LatitudeDegrees>39.6090534143149852752685546875</LatitudeDegrees>
              <LongitudeDegrees>-0.6531422026455402374267578125</LongitudeDegrees>
            </Position>
            <AltitudeMeters>137</AltitudeMeters>
            <DistanceMeters>35734.101830567</DistanceMeters>
          </Trackpoint>
          <Trackpoint>
            <Time>2021-10-09T08:09:57.000Z</Time>
            <Position>
              <LatitudeDegrees>39.60907897911965847015380859375</LatitudeDegrees>
              <LongitudeDegrees>-0.6531780771911144256591796875</LongitudeDegrees>
            </Position>
            <AltitudeMeters>137.1999969482421875</AltitudeMeters>
            <DistanceMeters>35738.291635885</DistanceMeters>
          </Trackpoint>
          <Trackpoint>
            <Time>2021-10-09T08:09:58.000Z</Time>
            <Position>
              <LatitudeDegrees>39.6091043762862682342529296875</LatitudeDegrees>
              <LongitudeDegrees>-0.65321705304086208343505859375</LongitudeDegrees>
            </Position>
            <AltitudeMeters>137.399993896484375</AltitudeMeters>
            <DistanceMeters>35742.669057754</DistanceMeters>
          </Trackpoint>
          <Trackpoint>
            <Time>2021-10-09T08:09:59.000Z</Time>
            <Position>
              <LatitudeDegrees>39.6091295219957828521728515625</LatitudeDegrees>
              <LongitudeDegrees>-0.65325410105288028717041015625</LongitudeDegrees>
            </Position>
            <AltitudeMeters>137.8000030517578125</AltitudeMeters>
            <DistanceMeters>35746.903881459</DistanceMeters>
          </Trackpoint>
          <Trackpoint>
            <Time>2021-10-09T08:10:00.000Z</Time>
            <Position>
              <LatitudeDegrees>39.60915592499077320098876953125</LatitudeDegrees>
              <LongitudeDegrees>-0.65328662283718585968017578125</LongitudeDegrees>
            </Position>
            <AltitudeMeters>138.1999969482421875</AltitudeMeters>
            <DistanceMeters>35750.955631572</DistanceMeters>
          </Trackpoint>
          <Trackpoint>
            <Time>2021-10-09T08:10:01.000Z</Time>
            <Position>
              <LatitudeDegrees>39.60918190889060497283935546875</LatitudeDegrees>
              <LongitudeDegrees>-0.6533229164779186248779296875</LongitudeDegrees>
            </Position>
            <AltitudeMeters>138.1999969482421875</AltitudeMeters>
            <DistanceMeters>35755.204292868</DistanceMeters>
          </Trackpoint>
          <Trackpoint>
            <Time>2021-10-09T08:10:02.000Z</Time>
            <Position>
              <LatitudeDegrees>39.60920956917107105255126953125</LatitudeDegrees>
              <LongitudeDegrees>-0.6533624790608882904052734375</LongitudeDegrees>
            </Position>
            <AltitudeMeters>138.600006103515625</AltitudeMeters>
            <DistanceMeters>35759.784343914</DistanceMeters>
          </Trackpoint>
          <Trackpoint>
            <Time>2021-10-09T08:10:03.000Z</Time>
            <Position>
              <LatitudeDegrees>39.6092388220131397247314453125</LatitudeDegrees>
              <LongitudeDegrees>-0.65340153872966766357421875</LongitudeDegrees>
            </Position>
            <AltitudeMeters>138.8000030517578125</AltitudeMeters>
            <DistanceMeters>35764.455175177</DistanceMeters>
          </Trackpoint>
          <Trackpoint>
            <Time>2021-10-09T08:10:04.000Z</Time>
            <Position>
              <LatitudeDegrees>39.60926841013133525848388671875</LatitudeDegrees>
              <LongitudeDegrees>-0.65344202332198619842529296875</LongitudeDegrees>
            </Position>
            <AltitudeMeters>139.399993896484375</AltitudeMeters>
            <DistanceMeters>35769.241541642</DistanceMeters>
          </Trackpoint>
          <Trackpoint>
            <Time>2021-10-09T08:10:05.000Z</Time>
            <Position>
              <LatitudeDegrees>39.6092958189547061920166015625</LatitudeDegrees>
              <LongitudeDegrees>-0.6534851901233196258544921875</LongitudeDegrees>
            </Position>
            <AltitudeMeters>139.600006103515625</AltitudeMeters>
            <DistanceMeters>35774.038273319</DistanceMeters>
          </Trackpoint>
          <Trackpoint>
            <Time>2021-10-09T08:10:06.000Z</Time>
            <Position>
              <LatitudeDegrees>39.60932155139744281768798828125</LatitudeDegrees>
              <LongitudeDegrees>-0.65353162586688995361328125</LongitudeDegrees>
            </Position>
            <AltitudeMeters>139.8000030517578125</AltitudeMeters>
            <DistanceMeters>35778.942977555</DistanceMeters>
          </Trackpoint>
          <Trackpoint>
            <Time>2021-10-09T08:10:07.000Z</Time>
            <Position>
              <LatitudeDegrees>39.60934585891664028167724609375</LatitudeDegrees>
              <LongitudeDegrees>-0.65358166582882404327392578125</LongitudeDegrees>
            </Position>
            <AltitudeMeters>140.1999969482421875</AltitudeMeters>
            <DistanceMeters>35784.016015882</DistanceMeters>
          </Trackpoint>
          <Trackpoint>
            <Time>2021-10-09T08:10:08.000Z</Time>
            <Position>
              <LatitudeDegrees>39.60936815477907657623291015625</LatitudeDegrees>
              <LongitudeDegrees>-0.6536343879997730255126953125</LongitudeDegrees>
            </Position>
            <AltitudeMeters>140.399993896484375</AltitudeMeters>
            <DistanceMeters>35789.172911763</DistanceMeters>
          </Trackpoint>
          <Trackpoint>
            <Time>2021-10-09T08:10:09.000Z</Time>
            <Position>
              <LatitudeDegrees>39.6093886904418468475341796875</LatitudeDegrees>
              <LongitudeDegrees>-0.65368853509426116943359375</LongitudeDegrees>
            </Position>
            <AltitudeMeters>140.600006103515625</AltitudeMeters>
            <DistanceMeters>35794.3481612</DistanceMeters>
          </Trackpoint>
          <Trackpoint>
            <Time>2021-10-09T08:10:10.000Z</Time>
            <Position>
              <LatitudeDegrees>39.60940956138074398040771484375</LatitudeDegrees>
              <LongitudeDegrees>-0.65374176017940044403076171875</LongitudeDegrees>
            </Position>
            <AltitudeMeters>140.600006103515625</AltitudeMeters>
            <DistanceMeters>35799.469034367</DistanceMeters>
          </Trackpoint>
          <Trackpoint>
            <Time>2021-10-09T08:10:11.000Z</Time>
            <Position>
              <LatitudeDegrees>39.60942707955837249755859375</LatitudeDegrees>
              <LongitudeDegrees>-0.65379657782614231109619140625</LongitudeDegrees>
            </Position>
            <AltitudeMeters>140.600006103515625</AltitudeMeters>
            <DistanceMeters>35804.558067599</DistanceMeters>
          </Trackpoint>
          <Trackpoint>
            <Time>2021-10-09T08:10:12.000Z</Time>
            <Position>
              <LatitudeDegrees>39.60944208316504955291748046875</LatitudeDegrees>
              <LongitudeDegrees>-0.653852485120296478271484375</LongitudeDegrees>
            </Position>
            <AltitudeMeters>140.600006103515625</AltitudeMeters>
            <DistanceMeters>35809.634664705</DistanceMeters>
          </Trackpoint>
          <Trackpoint>
            <Time>2021-10-09T08:10:13.000Z</Time>
            <Position>
              <LatitudeDegrees>39.60945515893399715423583984375</LatitudeDegrees>
              <LongitudeDegrees>-0.65390839241445064544677734375</LongitudeDegrees>
            </Position>
            <AltitudeMeters>140.8000030517578125</AltitudeMeters>
            <DistanceMeters>35814.645015243</DistanceMeters>
          </Trackpoint>
          <Trackpoint>
            <Time>2021-10-09T08:10:14.000Z</Time>
            <Position>
              <LatitudeDegrees>39.6094671450555324554443359375</LatitudeDegrees>
              <LongitudeDegrees>-0.6539659760892391204833984375</LongitudeDegrees>
            </Position>
            <AltitudeMeters>140.8000030517578125</AltitudeMeters>
            <DistanceMeters>35819.760595516</DistanceMeters>
          </Trackpoint>
          <Trackpoint>
            <Time>2021-10-09T08:10:15.000Z</Time>
            <Position>
              <LatitudeDegrees>39.6094798855483531951904296875</LatitudeDegrees>
              <LongitudeDegrees>-0.65402272157371044158935546875</LongitudeDegrees>
            </Position>
            <AltitudeMeters>140.8000030517578125</AltitudeMeters>
            <DistanceMeters>35824.828290989</DistanceMeters>
          </Trackpoint>
          <Trackpoint>
            <Time>2021-10-09T08:10:16.000Z</Time>
            <Position>
              <LatitudeDegrees>39.6094916202127933502197265625</LatitudeDegrees>
              <LongitudeDegrees>-0.65407988615334033966064453125</LongitudeDegrees>
            </Position>
            <AltitudeMeters>140.8000030517578125</AltitudeMeters>
            <DistanceMeters>35829.901329316</DistanceMeters>
          </Trackpoint>
          <Trackpoint>
            <Time>2021-10-09T08:10:17.000Z</Time>
            <Position>
              <LatitudeDegrees>39.609500505030155181884765625</LatitudeDegrees>
              <LongitudeDegrees>-0.65414006821811199188232421875</LongitudeDegrees>
            </Position>
            <AltitudeMeters>140.8000030517578125</AltitudeMeters>
            <DistanceMeters>35835.156229293</DistanceMeters>
          </Trackpoint>
          <Trackpoint>
            <Time>2021-10-09T08:10:18.000Z</Time>
            <Position>
              <LatitudeDegrees>39.609508216381072998046875</LatitudeDegrees>
              <LongitudeDegrees>-0.654200501739978790283203125</LongitudeDegrees>
            </Position>
            <AltitudeMeters>140.8000030517578125</AltitudeMeters>
            <DistanceMeters>35840.408551021</DistanceMeters>
          </Trackpoint>
          <Trackpoint>
            <Time>2021-10-09T08:10:19.000Z</Time>
            <Position>
              <LatitudeDegrees>39.6095181070268154144287109375</LatitudeDegrees>
              <LongitudeDegrees>-0.65426059998571872711181640625</LongitudeDegrees>
            </Position>
            <AltitudeMeters>140.8000030517578125</AltitudeMeters>
            <DistanceMeters>35845.678894003</DistanceMeters>
          </Trackpoint>
          <Trackpoint>
            <Time>2021-10-09T08:10:20.000Z</Time>
            <Position>
              <LatitudeDegrees>39.6095281653106212615966796875</LatitudeDegrees>
              <LongitudeDegrees>-0.65432111732661724090576171875</LongitudeDegrees>
            </Position>
            <AltitudeMeters>141</AltitudeMeters>
            <DistanceMeters>35850.98764796</DistanceMeters>
          </Trackpoint>
          <Trackpoint>
            <Time>2021-10-09T08:10:21.000Z</Time>
            <Position>
              <LatitudeDegrees>39.60953646339476108551025390625</LatitudeDegrees>
              <LongitudeDegrees>-0.6543807126581668853759765625</LongitudeDegrees>
            </Position>
            <AltitudeMeters>141</AltitudeMeters>
            <DistanceMeters>35856.180316663</DistanceMeters>
          </Trackpoint>
          <Trackpoint>
            <Time>2021-10-09T08:10:22.000Z</Time>
            <Position>
              <LatitudeDegrees>39.60954601876437664031982421875</LatitudeDegrees>
              <LongitudeDegrees>-0.65444181673228740692138671875</LongitudeDegrees>
            </Position>
            <AltitudeMeters>141</AltitudeMeters>
            <DistanceMeters>35861.527205667</DistanceMeters>
          </Trackpoint>
          <Trackpoint>
            <Time>2021-10-09T08:10:23.000Z</Time>
            <Position>
              <LatitudeDegrees>39.60955859161913394927978515625</LatitudeDegrees>
              <LongitudeDegrees>-0.6545017473399639129638671875</LongitudeDegrees>
            </Position>
            <AltitudeMeters>141</AltitudeMeters>
            <DistanceMeters>35866.852094402</DistanceMeters>
          </Trackpoint>
          <Trackpoint>
            <Time>2021-10-09T08:10:24.000Z</Time>
            <Position>
              <LatitudeDegrees>39.60957049392163753509521484375</LatitudeDegrees>
              <LongitudeDegrees>-0.65455966629087924957275390625</LongitudeDegrees>
            </Position>
            <AltitudeMeters>141</AltitudeMeters>
            <DistanceMeters>35871.992328217</DistanceMeters>
          </Trackpoint>
          <Trackpoint>
            <Time>2021-10-09T08:10:25.000Z</Time>
            <Position>
              <LatitudeDegrees>39.60957921110093593597412109375</LatitudeDegrees>
              <LongitudeDegrees>-0.65461926162242889404296875</LongitudeDegrees>
            </Position>
            <AltitudeMeters>141.1999969482421875</AltitudeMeters>
            <DistanceMeters>35877.194552655</DistanceMeters>
          </Trackpoint>
          <Trackpoint>
            <Time>2021-10-09T08:10:26.000Z</Time>
            <Position>
              <LatitudeDegrees>39.6095873415470123291015625</LatitudeDegrees>
              <LongitudeDegrees>-0.65468053333461284637451171875</LongitudeDegrees>
            </Position>
            <AltitudeMeters>141.1999969482421875</AltitudeMeters>
            <DistanceMeters>35882.526220372</DistanceMeters>
          </Trackpoint>
          <Trackpoint>
            <Time>2021-10-09T08:10:27.000Z</Time>
            <Position>
              <LatitudeDegrees>39.609596394002437591552734375</LatitudeDegrees>
              <LongitudeDegrees>-0.65474071539938449859619140625</LongitudeDegrees>
            </Position>
            <AltitudeMeters>141.399993896484375</AltitudeMeters>
            <DistanceMeters>35887.784556047</DistanceMeters>
          </Trackpoint>
          <Trackpoint>
            <Time>2021-10-09T08:10:28.000Z</Time>
            <Position>
              <LatitudeDegrees>39.60960670374333858489990234375</LatitudeDegrees>
              <LongitudeDegrees>-0.6548018194735050201416015625</LongitudeDegrees>
            </Position>
            <AltitudeMeters>141.1999969482421875</AltitudeMeters>
            <DistanceMeters>35893.148306932</DistanceMeters>
          </Trackpoint>
          <Trackpoint>
            <Time>2021-10-09T08:10:29.000Z</Time>
            <Position>
              <LatitudeDegrees>39.60961793549358844757080078125</LatitudeDegrees>
              <LongitudeDegrees>-0.6548638455569744110107421875</LongitudeDegrees>
            </Position>
            <AltitudeMeters>141.1999969482421875</AltitudeMeters>
            <DistanceMeters>35898.612136424</DistanceMeters>
          </Trackpoint>
          <Trackpoint>
            <Time>2021-10-09T08:10:30.000Z</Time>
            <Position>
              <LatitudeDegrees>39.60962967015802860260009765625</LatitudeDegrees>
              <LongitudeDegrees>-0.65492243506014347076416015625</LongitudeDegrees>
            </Position>
            <AltitudeMeters>141.399993896484375</AltitudeMeters>
            <DistanceMeters>35903.803065831</DistanceMeters>
          </Trackpoint>
          <Trackpoint>
            <Time>2021-10-09T08:10:31.000Z</Time>
            <Position>
              <LatitudeDegrees>39.60964106954634189605712890625</LatitudeDegrees>
              <LongitudeDegrees>-0.654985047876834869384765625</LongitudeDegrees>
            </Position>
            <AltitudeMeters>141.399993896484375</AltitudeMeters>
            <DistanceMeters>35909.31952825</DistanceMeters>
          </Trackpoint>
          <Trackpoint>
            <Time>2021-10-09T08:10:32.000Z</Time>
            <Position>
              <LatitudeDegrees>39.60965464822947978973388671875</LatitudeDegrees>
              <LongitudeDegrees>-0.65504782833158969879150390625</LongitudeDegrees>
            </Position>
            <AltitudeMeters>141.399993896484375</AltitudeMeters>
            <DistanceMeters>35914.91078255</DistanceMeters>
          </Trackpoint>
          <Trackpoint>
            <Time>2021-10-09T08:10:33.000Z</Time>
            <Position>
              <LatitudeDegrees>39.60967116057872772216796875</LatitudeDegrees>
              <LongitudeDegrees>-0.65511018969118595123291015625</LongitudeDegrees>
            </Position>
            <AltitudeMeters>141.399993896484375</AltitudeMeters>
            <DistanceMeters>35920.564672415</DistanceMeters>
          </Trackpoint>
          <Trackpoint>
            <Time>2021-10-09T08:10:34.000Z</Time>
            <Position>
              <LatitudeDegrees>39.60968784056603908538818359375</LatitudeDegrees>
              <LongitudeDegrees>-0.65517137758433818817138671875</LongitudeDegrees>
            </Position>
            <AltitudeMeters>141.399993896484375</AltitudeMeters>
            <DistanceMeters>35926.130026151</DistanceMeters>
          </Trackpoint>
          <Trackpoint>
            <Time>2021-10-09T08:10:35.000Z</Time>
            <Position>
              <LatitudeDegrees>39.60970477201044559478759765625</LatitudeDegrees>
              <LongitudeDegrees>-0.655234158039093017578125</LongitudeDegrees>
            </Position>
            <AltitudeMeters>141.399993896484375</AltitudeMeters>
            <DistanceMeters>35931.834795691</DistanceMeters>
          </Trackpoint>
          <Trackpoint>
            <Time>2021-10-09T08:10:36.000Z</Time>
            <Position>
              <LatitudeDegrees>39.60972287692129611968994140625</LatitudeDegrees>
              <LongitudeDegrees>-0.6552956812083721160888671875</LongitudeDegrees>
            </Position>
            <AltitudeMeters>141.399993896484375</AltitudeMeters>
            <DistanceMeters>35937.482293367</DistanceMeters>
          </Trackpoint>
          <Trackpoint>
            <Time>2021-10-09T08:10:37.000Z</Time>
            <Position>
              <LatitudeDegrees>39.609742574393749237060546875</LatitudeDegrees>
              <LongitudeDegrees>-0.65535812638700008392333984375</LongitudeDegrees>
            </Position>
            <AltitudeMeters>141.399993896484375</AltitudeMeters>
            <DistanceMeters>35943.268788287</DistanceMeters>
          </Trackpoint>
          <Trackpoint>
            <Time>2021-10-09T08:10:38.000Z</Time>
            <Position>
              <LatitudeDegrees>39.6097635291516780853271484375</LatitudeDegrees>
              <LongitudeDegrees>-0.65542350523173809051513671875</LongitudeDegrees>
            </Position>
            <AltitudeMeters>141.399993896484375</AltitudeMeters>
            <DistanceMeters>35949.340095563</DistanceMeters>
          </Trackpoint>
          <Trackpoint>
            <Time>2021-10-09T08:10:39.000Z</Time>
            <Position>
              <LatitudeDegrees>39.6097869984805583953857421875</LatitudeDegrees>
              <LongitudeDegrees>-0.65548829734325408935546875</LongitudeDegrees>
            </Position>
            <AltitudeMeters>141.600006103515625</AltitudeMeters>
            <DistanceMeters>35955.47870363</DistanceMeters>
          </Trackpoint>
          <Trackpoint>
            <Time>2021-10-09T08:10:40.000Z</Time>
            <Position>
              <LatitudeDegrees>39.60980904288589954376220703125</LatitudeDegrees>
              <LongitudeDegrees>-0.6555545143783092498779296875</LongitudeDegrees>
            </Position>
            <AltitudeMeters>141.600006103515625</AltitudeMeters>
            <DistanceMeters>35961.664205541</DistanceMeters>
          </Trackpoint>
          <Trackpoint>
            <Time>2021-10-09T08:10:41.000Z</Time>
            <Position>
              <LatitudeDegrees>39.609829746186733245849609375</LatitudeDegrees>
              <LongitudeDegrees>-0.65562332980334758758544921875</LongitudeDegrees>
            </Position>
            <AltitudeMeters>141.8000030517578125</AltitudeMeters>
            <DistanceMeters>35967.999003069</DistanceMeters>
          </Trackpoint>
          <Trackpoint>
            <Time>2021-10-09T08:10:42.000Z</Time>
            <Position>
              <LatitudeDegrees>39.60985195823013782501220703125</LatitudeDegrees>
              <LongitudeDegrees>-0.6556939892470836639404296875</LongitudeDegrees>
            </Position>
            <AltitudeMeters>141.8000030517578125</AltitudeMeters>
            <DistanceMeters>35974.542059879</DistanceMeters>
          </Trackpoint>
          <Trackpoint>
            <Time>2021-10-09T08:10:43.000Z</Time>
            <Position>
              <LatitudeDegrees>39.60987492464482784271240234375</LatitudeDegrees>
              <LongitudeDegrees>-0.6557692587375640869140625</LongitudeDegrees>
            </Position>
            <AltitudeMeters>142</AltitudeMeters>
            <DistanceMeters>35981.484215019</DistanceMeters>
          </Trackpoint>
          <Trackpoint>
            <Time>2021-10-09T08:10:44.000Z</Time>
            <Position>
              <LatitudeDegrees>39.6098976396024227142333984375</LatitudeDegrees>
              <LongitudeDegrees>-0.65584260039031505584716796875</LongitudeDegrees>
            </Position>
            <AltitudeMeters>142</AltitudeMeters>
            <DistanceMeters>35988.26249127</DistanceMeters>
          </Trackpoint>
          <Trackpoint>
            <Time>2021-10-09T08:10:45.000Z</Time>
            <Position>
              <LatitudeDegrees>39.60992152802646160125732421875</LatitudeDegrees>
              <LongitudeDegrees>-0.65591602586209774017333984375</LongitudeDegrees>
            </Position>
            <AltitudeMeters>142</AltitudeMeters>
            <DistanceMeters>35995.096491224</DistanceMeters>
          </Trackpoint>
          <Trackpoint>
            <Time>2021-10-09T08:10:46.000Z</Time>
            <Position>
              <LatitudeDegrees>39.60994617082178592681884765625</LatitudeDegrees>
              <LongitudeDegrees>-0.6559873558580875396728515625</LongitudeDegrees>
            </Position>
            <AltitudeMeters>142</AltitudeMeters>
            <DistanceMeters>36001.79974867</DistanceMeters>
          </Trackpoint>
          <Trackpoint>
            <Time>2021-10-09T08:10:47.000Z</Time>
            <Position>
              <LatitudeDegrees>39.60997014306485652923583984375</LatitudeDegrees>
              <LongitudeDegrees>-0.65605960786342620849609375</LongitudeDegrees>
            </Position>
            <AltitudeMeters>142</AltitudeMeters>
            <DistanceMeters>36008.545306853</DistanceMeters>
          </Trackpoint>
          <Trackpoint>
            <Time>2021-10-09T08:10:48.000Z</Time>
            <Position>
              <LatitudeDegrees>39.60999302566051483154296875</LatitudeDegrees>
              <LongitudeDegrees>-0.65613378770649433135986328125</LongitudeDegrees>
            </Position>
            <AltitudeMeters>142</AltitudeMeters>
            <DistanceMeters>36015.396462767</DistanceMeters>
          </Trackpoint>
          <Trackpoint>
            <Time>2021-10-09T08:10:49.000Z</Time>
            <Position>
              <LatitudeDegrees>39.6100153215229511260986328125</LatitudeDegrees>
              <LongitudeDegrees>-0.65620888955891132354736328125</LongitudeDegrees>
            </Position>
            <AltitudeMeters>142</AltitudeMeters>
            <DistanceMeters>36022.298830717</DistanceMeters>
          </Trackpoint>
          <Trackpoint>
            <Time>2021-10-09T08:10:50.000Z</Time>
            <Position>
              <LatitudeDegrees>39.61003870703279972076416015625</LatitudeDegrees>
              <LongitudeDegrees>-0.65628332085907459259033203125</LongitudeDegrees>
            </Position>
            <AltitudeMeters>141.8000030517578125</AltitudeMeters>
            <DistanceMeters>36029.19203478</DistanceMeters>
          </Trackpoint>
          <Trackpoint>
            <Time>2021-10-09T08:10:51.000Z</Time>
            <Position>
              <LatitudeDegrees>39.61006217636168003082275390625</LatitudeDegrees>
              <LongitudeDegrees>-0.65635758452117443084716796875</LongitudeDegrees>
            </Position>
            <AltitudeMeters>141.8000030517578125</AltitudeMeters>
            <DistanceMeters>36036.074750888</DistanceMeters>
          </Trackpoint>
          <Trackpoint>
            <Time>2021-10-09T08:10:52.000Z</Time>
            <Position>
              <LatitudeDegrees>39.61008531041443347930908203125</LatitudeDegrees>
              <LongitudeDegrees>-0.6564329378306865692138671875</LongitudeDegrees>
            </Position>
            <AltitudeMeters>141.600006103515625</AltitudeMeters>
            <DistanceMeters>36043.030550596</DistanceMeters>
          </Trackpoint>
          <Trackpoint>
            <Time>2021-10-09T08:10:53.000Z</Time>
            <Position>
              <LatitudeDegrees>39.6101075224578380584716796875</LatitudeDegrees>
              <LongitudeDegrees>-0.6565082073211669921875</LongitudeDegrees>
            </Position>
            <AltitudeMeters>141.600006103515625</AltitudeMeters>
            <DistanceMeters>36049.942070284</DistanceMeters>
          </Trackpoint>
          <Trackpoint>
            <Time>2021-10-09T08:10:54.000Z</Time>
            <Position>
              <LatitudeDegrees>39.6101293154060840606689453125</LatitudeDegrees>
              <LongitudeDegrees>-0.65658389590680599212646484375</LongitudeDegrees>
            </Position>
            <AltitudeMeters>141.600006103515625</AltitudeMeters>
            <DistanceMeters>36056.870553983</DistanceMeters>
          </Trackpoint>
          <Trackpoint>
            <Time>2021-10-09T08:10:55.000Z</Time>
            <Position>
              <LatitudeDegrees>39.610151611268520355224609375</LatitudeDegrees>
              <LongitudeDegrees>-0.65666050650179386138916015625</LongitudeDegrees>
            </Position>
            <AltitudeMeters>141.600006103515625</AltitudeMeters>
            <DistanceMeters>36063.892250173</DistanceMeters>
          </Trackpoint>
          <Trackpoint>
            <Time>2021-10-09T08:10:56.000Z</Time>
            <Position>
              <LatitudeDegrees>39.6101749129593372344970703125</LatitudeDegrees>
              <LongitudeDegrees>-0.65673594363033771514892578125</LongitudeDegrees>
            </Position>
            <AltitudeMeters>141.600006103515625</AltitudeMeters>
            <DistanceMeters>36070.861667738</DistanceMeters>
          </Trackpoint>
          <Trackpoint>
            <Time>2021-10-09T08:10:57.000Z</Time>
            <Position>
              <LatitudeDegrees>39.61019595153629779815673828125</LatitudeDegrees>
              <LongitudeDegrees>-0.656811632215976715087890625</LongitudeDegrees>
            </Position>
            <AltitudeMeters>141.600006103515625</AltitudeMeters>
            <DistanceMeters>36077.760764268</DistanceMeters>
          </Trackpoint>
          <Trackpoint>
            <Time>2021-10-09T08:10:58.000Z</Time>
            <Position>
              <LatitudeDegrees>39.6102158166468143463134765625</LatitudeDegrees>
              <LongitudeDegrees>-0.65688815899193286895751953125</LongitudeDegrees>
            </Position>
            <AltitudeMeters>141.600006103515625</AltitudeMeters>
            <DistanceMeters>36084.684684823</DistanceMeters>
          </Trackpoint>
          <Trackpoint>
            <Time>2021-10-09T08:10:59.000Z</Time>
            <Position>
              <LatitudeDegrees>39.61023651994764804840087890625</LatitudeDegrees>
              <LongitudeDegrees>-0.656964518129825592041015625</LongitudeDegrees>
            </Position>
            <AltitudeMeters>141.600006103515625</AltitudeMeters>
            <DistanceMeters>36091.626189552</DistanceMeters>
          </Trackpoint>
          <Trackpoint>
            <Time>2021-10-09T08:11:00.000Z</Time>
            <Position>
              <LatitudeDegrees>39.61025713942945003509521484375</LatitudeDegrees>
              <LongitudeDegrees>-0.657040961086750030517578125</LongitudeDegrees>
            </Position>
            <AltitudeMeters>141.8000030517578125</AltitudeMeters>
            <DistanceMeters>36098.57159583</DistanceMeters>
          </Trackpoint>
          <Trackpoint>
            <Time>2021-10-09T08:11:01.000Z</Time>
            <Position>
              <LatitudeDegrees>39.6102751605212688446044921875</LatitudeDegrees>
              <LongitudeDegrees>-0.6571182422339916229248046875</LongitudeDegrees>
            </Position>
            <AltitudeMeters>141.8000030517578125</AltitudeMeters>
            <DistanceMeters>36105.49486426</DistanceMeters>
          </Trackpoint>
          <Trackpoint>
            <Time>2021-10-09T08:11:02.000Z</Time>
            <Position>
              <LatitudeDegrees>39.6102902479469776153564453125</LatitudeDegrees>
              <LongitudeDegrees>-0.6571973673999309539794921875</LongitudeDegrees>
            </Position>
            <AltitudeMeters>142</AltitudeMeters>
            <DistanceMeters>36112.484335883</DistanceMeters>
          </Trackpoint>
          <Trackpoint>
            <Time>2021-10-09T08:11:03.000Z</Time>
            <Position>
              <LatitudeDegrees>39.61030525155365467071533203125</LatitudeDegrees>
              <LongitudeDegrees>-0.65727573819458484649658203125</LongitudeDegrees>
            </Position>
            <AltitudeMeters>142</AltitudeMeters>
            <DistanceMeters>36119.408908499</DistanceMeters>
          </Trackpoint>
          <Trackpoint>
            <Time>2021-10-09T08:11:04.000Z</Time>
            <Position>
              <LatitudeDegrees>39.61031933315098285675048828125</LatitudeDegrees>
              <LongitudeDegrees>-0.6573552824556827545166015625</LongitudeDegrees>
            </Position>
            <AltitudeMeters>142.1999969482421875</AltitudeMeters>
            <DistanceMeters>36126.407417957</DistanceMeters>
          </Trackpoint>
          <Trackpoint>
            <Time>2021-10-09T08:11:05.000Z</Time>
            <Position>
              <LatitudeDegrees>39.6103284694254398345947265625</LatitudeDegrees>
              <LongitudeDegrees>-0.657434575259685516357421875</LongitudeDegrees>
            </Position>
            <AltitudeMeters>142.399993896484375</AltitudeMeters>
            <DistanceMeters>36133.282257599</DistanceMeters>
          </Trackpoint>
          <Trackpoint>
            <Time>2021-10-09T08:11:06.000Z</Time>
            <Position>
              <LatitudeDegrees>39.61033207364380359649658203125</LatitudeDegrees>
              <LongitudeDegrees>-0.657516382634639739990234375</LongitudeDegrees>
            </Position>
            <AltitudeMeters>142.600006103515625</AltitudeMeters>
            <DistanceMeters>36140.307810805</DistanceMeters>
          </Trackpoint>
          <Trackpoint>
            <Time>2021-10-09T08:11:07.000Z</Time>
            <Position>
              <LatitudeDegrees>39.6103341691195964813232421875</LatitudeDegrees>
              <LongitudeDegrees>-0.65759810619056224822998046875</LongitudeDegrees>
            </Position>
            <AltitudeMeters>142.600006103515625</AltitudeMeters>
            <DistanceMeters>36147.319211247</DistanceMeters>
          </Trackpoint>
          <Trackpoint>
            <Time>2021-10-09T08:11:08.000Z</Time>
            <Position>
              <LatitudeDegrees>39.6103338338434696197509765625</LatitudeDegrees>
              <LongitudeDegrees>-0.65768058411777019500732421875</LongitudeDegrees>
            </Position>
            <AltitudeMeters>142.600006103515625</AltitudeMeters>
            <DistanceMeters>36154.392161374</DistanceMeters>
          </Trackpoint>
          <Trackpoint>
            <Time>2021-10-09T08:11:09.000Z</Time>
            <Position>
              <LatitudeDegrees>39.61033240891993045806884765625</LatitudeDegrees>
              <LongitudeDegrees>-0.65776188857853412628173828125</LongitudeDegrees>
            </Position>
            <AltitudeMeters>142.399993896484375</AltitudeMeters>
            <DistanceMeters>36161.366112315</DistanceMeters>
          </Trackpoint>
          <Trackpoint>
            <Time>2021-10-09T08:11:10.000Z</Time>
            <Position>
              <LatitudeDegrees>39.6103291399776935577392578125</LatitudeDegrees>
              <LongitudeDegrees>-0.65784453414380550384521484375</LongitudeDegrees>
            </Position>
            <AltitudeMeters>142.399993896484375</AltitudeMeters>
            <DistanceMeters>36168.462005934</DistanceMeters>
          </Trackpoint>
          <Trackpoint>
            <Time>2021-10-09T08:11:11.000Z</Time>
            <Position>
              <LatitudeDegrees>39.610327966511249542236328125</LatitudeDegrees>
              <LongitudeDegrees>-0.657929442822933197021484375</LongitudeDegrees>
            </Position>
            <AltitudeMeters>142.1999969482421875</AltitudeMeters>
            <DistanceMeters>36175.743185701</DistanceMeters>
          </Trackpoint>
          <Trackpoint>
            <Time>2021-10-09T08:11:12.000Z</Time>
            <Position>
              <LatitudeDegrees>39.6103261224925518035888671875</LatitudeDegrees>
              <LongitudeDegrees>-0.658013261854648590087890625</LongitudeDegrees>
            </Position>
            <AltitudeMeters>142</AltitudeMeters>
            <DistanceMeters>36182.932633355</DistanceMeters>
          </Trackpoint>
          <Trackpoint>
            <Time>2021-10-09T08:11:13.000Z</Time>
            <Position>
              <LatitudeDegrees>39.61032561957836151123046875</LatitudeDegrees>
              <LongitudeDegrees>-0.65809942781925201416015625</LongitudeDegrees>
            </Position>
            <AltitudeMeters>142</AltitudeMeters>
            <DistanceMeters>36190.321533285</DistanceMeters>
          </Trackpoint>
          <Trackpoint>
            <Time>2021-10-09T08:11:14.000Z</Time>
            <Position>
              <LatitudeDegrees>39.61032469756901264190673828125</LatitudeDegrees>
              <LongitudeDegrees>-0.65818685106933116912841796875</LongitudeDegrees>
            </Position>
            <AltitudeMeters>142</AltitudeMeters>
            <DistanceMeters>36197.818412355</DistanceMeters>
          </Trackpoint>
          <Trackpoint>
            <Time>2021-10-09T08:11:15.000Z</Time>
            <Position>
              <LatitudeDegrees>39.61032302118837833404541015625</LatitudeDegrees>
              <LongitudeDegrees>-0.6582746095955371856689453125</LongitudeDegrees>
            </Position>
            <AltitudeMeters>142.1999969482421875</AltitudeMeters>
            <DistanceMeters>36205.345343975</DistanceMeters>
          </Trackpoint>
          <Trackpoint>
            <Time>2021-10-09T08:11:16.000Z</Time>
            <Position>
              <LatitudeDegrees>39.61032067425549030303955078125</LatitudeDegrees>
              <LongitudeDegrees>-0.6583629548549652099609375</LongitudeDegrees>
            </Position>
            <AltitudeMeters>142.1999969482421875</AltitudeMeters>
            <DistanceMeters>36212.924878679</DistanceMeters>
          </Trackpoint>
          <Trackpoint>
            <Time>2021-10-09T08:11:17.000Z</Time>
            <Position>
              <LatitudeDegrees>39.61031799204647541046142578125</LatitudeDegrees>
              <LongitudeDegrees>-0.65845255739986896514892578125</LongitudeDegrees>
            </Position>
            <AltitudeMeters>142.1999969482421875</AltitudeMeters>
            <DistanceMeters>36220.613238739</DistanceMeters>
          </Trackpoint>
          <Trackpoint>
            <Time>2021-10-09T08:11:18.000Z</Time>
            <Position>
              <LatitudeDegrees>39.610315896570682525634765625</LatitudeDegrees>
              <LongitudeDegrees>-0.658541657030582427978515625</LongitudeDegrees>
            </Position>
            <AltitudeMeters>142.1999969482421875</AltitudeMeters>
            <DistanceMeters>36228.256837014</DistanceMeters>
          </Trackpoint>
          <Trackpoint>
            <Time>2021-10-09T08:11:19.000Z</Time>
            <Position>
              <LatitudeDegrees>39.61031346581876277923583984375</LatitudeDegrees>
              <LongitudeDegrees>-0.658629499375820159912109375</LongitudeDegrees>
            </Position>
            <AltitudeMeters>141.8000030517578125</AltitudeMeters>
            <DistanceMeters>36235.793959204</DistanceMeters>
          </Trackpoint>
          <Trackpoint>
            <Time>2021-10-09T08:11:20.000Z</Time>
            <Position>
              <LatitudeDegrees>39.6103100292384624481201171875</LatitudeDegrees>
              <LongitudeDegrees>-0.658713318407535552978515625</LongitudeDegrees>
            </Position>
            <AltitudeMeters>141.8000030517578125</AltitudeMeters>
            <DistanceMeters>36242.990939021</DistanceMeters>
          </Trackpoint>
          <Trackpoint>
            <Time>2021-10-09T08:11:21.000Z</Time>
            <Position>
              <LatitudeDegrees>39.61030776612460613250732421875</LatitudeDegrees>
              <LongitudeDegrees>-0.658797137439250946044921875</LongitudeDegrees>
            </Position>
            <AltitudeMeters>141.8000030517578125</AltitudeMeters>
            <DistanceMeters>36250.182270455</DistanceMeters>
          </Trackpoint>
          <Trackpoint>
            <Time>2021-10-09T08:11:22.000Z</Time>
            <Position>
              <LatitudeDegrees>39.6103070117533206939697265625</LatitudeDegrees>
              <LongitudeDegrees>-0.658880285918712615966796875</LongitudeDegrees>
            </Position>
            <AltitudeMeters>141.8000030517578125</AltitudeMeters>
            <DistanceMeters>36257.312440886</DistanceMeters>
          </Trackpoint>
          <Trackpoint>
            <Time>2021-10-09T08:11:23.000Z</Time>
            <Position>
              <LatitudeDegrees>39.6103063412010669708251953125</LatitudeDegrees>
              <LongitudeDegrees>-0.65896175801753997802734375</LongitudeDegrees>
            </Position>
            <AltitudeMeters>141.8000030517578125</AltitudeMeters>
            <DistanceMeters>36264.299328122</DistanceMeters>
          </Trackpoint>
          <Trackpoint>
            <Time>2021-10-09T08:11:24.000Z</Time>
            <Position>
              <LatitudeDegrees>39.61030642502009868621826171875</LatitudeDegrees>
              <LongitudeDegrees>-0.65904163755476474761962890625</LongitudeDegrees>
            </Position>
            <AltitudeMeters>141.8000030517578125</AltitudeMeters>
            <DistanceMeters>36271.149165873</DistanceMeters>
          </Trackpoint>
          <Trackpoint>
            <Time>2021-10-09T08:11:25.000Z</Time>
            <Position>
              <LatitudeDegrees>39.6103086881339550018310546875</LatitudeDegrees>
              <LongitudeDegrees>-0.65912327729165554046630859375</LongitudeDegrees>
            </Position>
            <AltitudeMeters>141.8000030517578125</AltitudeMeters>
            <DistanceMeters>36278.154123788</DistanceMeters>
          </Trackpoint>
          <Trackpoint>
            <Time>2021-10-09T08:11:26.000Z</Time>
            <Position>
              <LatitudeDegrees>39.6103133819997310638427734375</LatitudeDegrees>
              <LongitudeDegrees>-0.6592063419520854949951171875</LongitudeDegrees>
            </Position>
            <AltitudeMeters>141.600006103515625</AltitudeMeters>
            <DistanceMeters>36285.295683264</DistanceMeters>
          </Trackpoint>
          <Trackpoint>
            <Time>2021-10-09T08:11:27.000Z</Time>
            <Position>
              <LatitudeDegrees>39.610317237675189971923828125</LatitudeDegrees>
              <LongitudeDegrees>-0.6592884846031665802001953125</LongitudeDegrees>
            </Position>
            <AltitudeMeters>141.600006103515625</AltitudeMeters>
            <DistanceMeters>36292.352016697</DistanceMeters>
          </Trackpoint>
          <Trackpoint>
            <Time>2021-10-09T08:11:28.000Z</Time>
            <Position>
              <LatitudeDegrees>39.6103234402835369110107421875</LatitudeDegrees>
              <LongitudeDegrees>-0.65937356092035770416259765625</LongitudeDegrees>
            </Position>
            <AltitudeMeters>141.399993896484375</AltitudeMeters>
            <DistanceMeters>36299.680172305</DistanceMeters>
          </Trackpoint>
          <Trackpoint>
            <Time>2021-10-09T08:11:29.000Z</Time>
            <Position>
              <LatitudeDegrees>39.61033358238637447357177734375</LatitudeDegrees>
              <LongitudeDegrees>-0.65946190617978572845458984375</LongitudeDegrees>
            </Position>
            <AltitudeMeters>141.1999969482421875</AltitudeMeters>
            <DistanceMeters>36307.339113262</DistanceMeters>
          </Trackpoint>
          <Trackpoint>
            <Time>2021-10-09T08:11:30.000Z</Time>
            <Position>
              <LatitudeDegrees>39.61034984327852725982666015625</LatitudeDegrees>
              <LongitudeDegrees>-0.65955293364822864532470703125</LongitudeDegrees>
            </Position>
            <AltitudeMeters>141</AltitudeMeters>
            <DistanceMeters>36315.351843353</DistanceMeters>
          </Trackpoint>
          <Trackpoint>
            <Time>2021-10-09T08:11:31.000Z</Time>
            <Position>
              <LatitudeDegrees>39.61037389934062957763671875</LatitudeDegrees>
              <LongitudeDegrees>-0.65964614041149616241455078125</LongitudeDegrees>
            </Position>
            <AltitudeMeters>140.8000030517578125</AltitudeMeters>
            <DistanceMeters>36323.780878972</DistanceMeters>
          </Trackpoint>
          <Trackpoint>
            <Time>2021-10-09T08:11:32.000Z</Time>
            <Position>
              <LatitudeDegrees>39.610403068363666534423828125</LatitudeDegrees>
              <LongitudeDegrees>-0.65973884426057338714599609375</LongitudeDegrees>
            </Position>
            <AltitudeMeters>140.600006103515625</AltitudeMeters>
            <DistanceMeters>36332.368055705</DistanceMeters>
          </Trackpoint>
          <Trackpoint>
            <Time>2021-10-09T08:11:33.000Z</Time>
            <Position>
              <LatitudeDegrees>39.61043399758636951446533203125</LatitudeDegrees>
              <LongitudeDegrees>-0.65983121283352375030517578125</LongitudeDegrees>
            </Position>
            <AltitudeMeters>140.399993896484375</AltitudeMeters>
            <DistanceMeters>36341.003469492</DistanceMeters>
          </Trackpoint>
          <Trackpoint>
            <Time>2021-10-09T08:11:34.000Z</Time>
            <Position>
              <LatitudeDegrees>39.61046501062810420989990234375</LatitudeDegrees>
              <LongitudeDegrees>-0.65992467105388641357421875</LongitudeDegrees>
            </Position>
            <AltitudeMeters>140</AltitudeMeters>
            <DistanceMeters>36349.728867735</DistanceMeters>
          </Trackpoint>
          <Trackpoint>
            <Time>2021-10-09T08:11:35.000Z</Time>
            <Position>
              <LatitudeDegrees>39.61050222627818584442138671875</LatitudeDegrees>
              <LongitudeDegrees>-0.66003874875605106353759765625</LongitudeDegrees>
            </Position>
            <AltitudeMeters>139.8000030517578125</AltitudeMeters>
            <DistanceMeters>36360.35147736</DistanceMeters>
          </Trackpoint>
          <Trackpoint>
            <Time>2021-10-09T08:11:36.000Z</Time>
            <Position>
              <LatitudeDegrees>39.610526449978351593017578125</LatitudeDegrees>
              <LongitudeDegrees>-0.66011619754135608673095703125</LongitudeDegrees>
            </Position>
            <AltitudeMeters>139.600006103515625</AltitudeMeters>
            <DistanceMeters>36367.518281027</DistanceMeters>
          </Trackpoint>
          <Trackpoint>
            <Time>2021-10-09T08:11:37.000Z</Time>
            <Position>
              <LatitudeDegrees>39.61055654101073741912841796875</LatitudeDegrees>
              <LongitudeDegrees>-0.66021258942782878875732421875</LongitudeDegrees>
            </Position>
            <AltitudeMeters>139.1999969482421875</AltitudeMeters>
            <DistanceMeters>36376.436628033</DistanceMeters>
          </Trackpoint>
          <Trackpoint>
            <Time>2021-10-09T08:11:38.000Z</Time>
            <Position>
              <LatitudeDegrees>39.61058755405247211456298828125</LatitudeDegrees>
              <LongitudeDegrees>-0.660311244428157806396484375</LongitudeDegrees>
            </Position>
            <AltitudeMeters>139.1999969482421875</AltitudeMeters>
            <DistanceMeters>36385.573040165</DistanceMeters>
          </Trackpoint>
          <Trackpoint>
            <Time>2021-10-09T08:11:39.000Z</Time>
            <Position>
              <LatitudeDegrees>39.6106184832751750946044921875</LatitudeDegrees>
              <LongitudeDegrees>-0.66041073761880397796630859375</LongitudeDegrees>
            </Position>
            <AltitudeMeters>138.600006103515625</AltitudeMeters>
            <DistanceMeters>36394.772489955</DistanceMeters>
          </Trackpoint>
          <Trackpoint>
            <Time>2021-10-09T08:11:40.000Z</Time>
            <Position>
              <LatitudeDegrees>39.6106513403356075286865234375</LatitudeDegrees>
              <LongitudeDegrees>-0.660509057343006134033203125</LongitudeDegrees>
            </Position>
            <AltitudeMeters>138.1999969482421875</AltitudeMeters>
            <DistanceMeters>36403.962609921</DistanceMeters>
          </Trackpoint>
          <Trackpoint>
            <Time>2021-10-09T08:11:41.000Z</Time>
            <Position>
              <LatitudeDegrees>39.6106848679482936859130859375</LatitudeDegrees>
              <LongitudeDegrees>-0.66061056219041347503662109375</LongitudeDegrees>
            </Position>
            <AltitudeMeters>138</AltitudeMeters>
            <DistanceMeters>36413.432440392</DistanceMeters>
          </Trackpoint>
          <Trackpoint>
            <Time>2021-10-09T08:11:42.000Z</Time>
            <Position>
              <LatitudeDegrees>39.61071856319904327392578125</LatitudeDegrees>
              <LongitudeDegrees>-0.66071634180843830108642578125</LongitudeDegrees>
            </Position>
            <AltitudeMeters>137.600006103515625</AltitudeMeters>
            <DistanceMeters>36423.247370627</DistanceMeters>
          </Trackpoint>
          <Trackpoint>
            <Time>2021-10-09T08:11:43.000Z</Time>
            <Position>
              <LatitudeDegrees>39.6107542701065540313720703125</LatitudeDegrees>
              <LongitudeDegrees>-0.66081918776035308837890625</LongitudeDegrees>
            </Position>
            <AltitudeMeters>137.600006103515625</AltitudeMeters>
            <DistanceMeters>36432.920044613</DistanceMeters>
          </Trackpoint>
          <Trackpoint>
            <Time>2021-10-09T08:11:44.000Z</Time>
            <Position>
              <LatitudeDegrees>39.61079006083309650421142578125</LatitudeDegrees>
              <LongitudeDegrees>-0.6609253026545047760009765625</LongitudeDegrees>
            </Position>
            <AltitudeMeters>137.1999969482421875</AltitudeMeters>
            <DistanceMeters>36442.852950291</DistanceMeters>
          </Trackpoint>
          <Trackpoint>
            <Time>2021-10-09T08:11:45.000Z</Time>
            <Position>
              <LatitudeDegrees>39.61082844994962215423583984375</LatitudeDegrees>
              <LongitudeDegrees>-0.661034099757671356201171875</LongitudeDegrees>
            </Position>
            <AltitudeMeters>137</AltitudeMeters>
            <DistanceMeters>36453.114075539</DistanceMeters>
          </Trackpoint>
          <Trackpoint>
            <Time>2021-10-09T08:11:46.000Z</Time>
            <Position>
              <LatitudeDegrees>39.6108692698180675506591796875</LatitudeDegrees>
              <LongitudeDegrees>-0.6611430644989013671875</LongitudeDegrees>
            </Position>
            <AltitudeMeters>136.8000030517578125</AltitudeMeters>
            <DistanceMeters>36463.503759548</DistanceMeters>
          </Trackpoint>
          <Trackpoint>
            <Time>2021-10-09T08:11:47.000Z</Time>
            <Position>
              <LatitudeDegrees>39.610907994210720062255859375</LatitudeDegrees>
              <LongitudeDegrees>-0.66125571727752685546875</LongitudeDegrees>
            </Position>
            <AltitudeMeters>136.600006103515625</AltitudeMeters>
            <DistanceMeters>36474.081218937</DistanceMeters>
          </Trackpoint>
          <Trackpoint>
            <Time>2021-10-09T08:11:48.000Z</Time>
            <Position>
              <LatitudeDegrees>39.61094797588884830474853515625</LatitudeDegrees>
              <LongitudeDegrees>-0.6613705493509769439697265625</LongitudeDegrees>
            </Position>
            <AltitudeMeters>136.399993896484375</AltitudeMeters>
            <DistanceMeters>36484.886721629</DistanceMeters>
          </Trackpoint>
          <Trackpoint>
            <Time>2021-10-09T08:11:49.000Z</Time>
            <Position>
              <LatitudeDegrees>39.61098988540470600128173828125</LatitudeDegrees>
              <LongitudeDegrees>-0.6614825315773487091064453125</LongitudeDegrees>
            </Position>
            <AltitudeMeters>136.1999969482421875</AltitudeMeters>
            <DistanceMeters>36495.561906158</DistanceMeters>
          </Trackpoint>
          <Trackpoint>
            <Time>2021-10-09T08:11:50.000Z</Time>
            <Position>
              <LatitudeDegrees>39.611031375825405120849609375</LatitudeDegrees>
              <LongitudeDegrees>-0.6615948490798473358154296875</LongitudeDegrees>
            </Position>
            <AltitudeMeters>136.1999969482421875</AltitudeMeters>
            <DistanceMeters>36506.243010305</DistanceMeters>
          </Trackpoint>
          <Trackpoint>
            <Time>2021-10-09T08:11:51.000Z</Time>
            <Position>
              <LatitudeDegrees>39.6110744588077068328857421875</LatitudeDegrees>
              <LongitudeDegrees>-0.6617058254778385162353515625</LongitudeDegrees>
            </Position>
            <AltitudeMeters>135.8000030517578125</AltitudeMeters>
            <DistanceMeters>36516.898721506</DistanceMeters>
          </Trackpoint>
          <Trackpoint>
            <Time>2021-10-09T08:11:52.000Z</Time>
            <Position>
              <LatitudeDegrees>39.6111203916370868682861328125</LatitudeDegrees>
              <LongitudeDegrees>-0.6618114374577999114990234375</LongitudeDegrees>
            </Position>
            <AltitudeMeters>135.8000030517578125</AltitudeMeters>
            <DistanceMeters>36527.297961646</DistanceMeters>
          </Trackpoint>
          <Trackpoint>
            <Time>2021-10-09T08:11:53.000Z</Time>
            <Position>
              <LatitudeDegrees>39.61117210797965526580810546875</LatitudeDegrees>
              <LongitudeDegrees>-0.661906488239765167236328125</LongitudeDegrees>
            </Position>
            <AltitudeMeters>135.1999969482421875</AltitudeMeters>
            <DistanceMeters>36537.275766655</DistanceMeters>
          </Trackpoint>
          <Trackpoint>
            <Time>2021-10-09T08:11:54.000Z</Time>
            <Position>
              <LatitudeDegrees>39.61123178713023662567138671875</LatitudeDegrees>
              <LongitudeDegrees>-0.661991648375988006591796875</LongitudeDegrees>
            </Position>
            <AltitudeMeters>134.8000030517578125</AltitudeMeters>
            <DistanceMeters>36547.147574239</DistanceMeters>
          </Trackpoint>
          <Trackpoint>
            <Time>2021-10-09T08:11:55.000Z</Time>
            <Position>
              <LatitudeDegrees>39.611298255622386932373046875</LatitudeDegrees>
              <LongitudeDegrees>-0.66206716932356357574462890625</LongitudeDegrees>
            </Position>
            <AltitudeMeters>134.8000030517578125</AltitudeMeters>
            <DistanceMeters>36556.979969594</DistanceMeters>
          </Trackpoint>
          <Trackpoint>
            <Time>2021-10-09T08:11:56.000Z</Time>
            <Position>
              <LatitudeDegrees>39.61136841215193271636962890625</LatitudeDegrees>
              <LongitudeDegrees>-0.66213523037731647491455078125</LongitudeDegrees>
            </Position>
            <AltitudeMeters>134.600006103515625</AltitudeMeters>
            <DistanceMeters>36566.728432267</DistanceMeters>
          </Trackpoint>
          <Trackpoint>
            <Time>2021-10-09T08:11:57.000Z</Time>
            <Position>
              <LatitudeDegrees>39.6114402450621128082275390625</LatitudeDegrees>
              <LongitudeDegrees>-0.662198178470134735107421875</LongitudeDegrees>
            </Position>
            <AltitudeMeters>134.399993896484375</AltitudeMeters>
            <DistanceMeters>36576.374930998</DistanceMeters>
          </Trackpoint>
          <Trackpoint>
            <Time>2021-10-09T08:11:58.000Z</Time>
            <Position>
              <LatitudeDegrees>39.611514173448085784912109375</LatitudeDegrees>
              <LongitudeDegrees>-0.6622593663632869720458984375</LongitudeDegrees>
            </Position>
            <AltitudeMeters>134.399993896484375</AltitudeMeters>
            <DistanceMeters>36586.133577737</DistanceMeters>
          </Trackpoint>
          <Trackpoint>
            <Time>2021-10-09T08:11:59.000Z</Time>
            <Position>
              <LatitudeDegrees>39.61158600635826587677001953125</LatitudeDegrees>
              <LongitudeDegrees>-0.66231862641870975494384765625</LongitudeDegrees>
            </Position>
            <AltitudeMeters>134.1999969482421875</AltitudeMeters>
            <DistanceMeters>36595.60674509</DistanceMeters>
          </Trackpoint>
          <Trackpoint>
            <Time>2021-10-09T08:12:00.000Z</Time>
            <Position>
              <LatitudeDegrees>39.6116538159549236297607421875</LatitudeDegrees>
              <LongitudeDegrees>-0.66237696446478366851806640625</LongitudeDegrees>
            </Position>
            <AltitudeMeters>134.1999969482421875</AltitudeMeters>
            <DistanceMeters>36604.661250269</DistanceMeters>
          </Trackpoint>
          <Trackpoint>
            <Time>2021-10-09T08:12:01.000Z</Time>
            <Position>
              <LatitudeDegrees>39.61171877570450305938720703125</LatitudeDegrees>
              <LongitudeDegrees>-0.66243253648281097412109375</LongitudeDegrees>
            </Position>
            <AltitudeMeters>134</AltitudeMeters>
            <DistanceMeters>36613.32068182</DistanceMeters>
          </Trackpoint>
          <Trackpoint>
            <Time>2021-10-09T08:12:02.000Z</Time>
            <Position>
              <LatitudeDegrees>39.611784406006336212158203125</LatitudeDegrees>
              <LongitudeDegrees>-0.66249020397663116455078125</LongitudeDegrees>
            </Position>
            <AltitudeMeters>134</AltitudeMeters>
            <DistanceMeters>36622.141290566</DistanceMeters>
          </Trackpoint>
          <Trackpoint>
            <Time>2021-10-09T08:12:03.000Z</Time>
            <Position>
              <LatitudeDegrees>39.61185087449848651885986328125</LatitudeDegrees>
              <LongitudeDegrees>-0.66254795528948307037353515625</LongitudeDegrees>
            </Position>
            <AltitudeMeters>134</AltitudeMeters>
            <DistanceMeters>36631.043422382</DistanceMeters>
          </Trackpoint>
          <Trackpoint>
            <Time>2021-10-09T08:12:04.000Z</Time>
            <Position>
              <LatitudeDegrees>39.611916840076446533203125</LatitudeDegrees>
              <LongitudeDegrees>-0.662604868412017822265625</LongitudeDegrees>
            </Position>
            <AltitudeMeters>134</AltitudeMeters>
            <DistanceMeters>36639.85942306</DistanceMeters>
          </Trackpoint>
          <Trackpoint>
            <Time>2021-10-09T08:12:05.000Z</Time>
            <Position>
              <LatitudeDegrees>39.61198397912085056304931640625</LatitudeDegrees>
              <LongitudeDegrees>-0.662659518420696258544921875</LongitudeDegrees>
            </Position>
            <AltitudeMeters>134</AltitudeMeters>
            <DistanceMeters>36648.680031805</DistanceMeters>
          </Trackpoint>
          <Trackpoint>
            <Time>2021-10-09T08:12:06.000Z</Time>
            <Position>
              <LatitudeDegrees>39.6120504476130008697509765625</LatitudeDegrees>
              <LongitudeDegrees>-0.6627113185822963714599609375</LongitudeDegrees>
            </Position>
            <AltitudeMeters>134</AltitudeMeters>
            <DistanceMeters>36657.309169094</DistanceMeters>
          </Trackpoint>
          <Trackpoint>
            <Time>2021-10-09T08:12:07.000Z</Time>
            <Position>
              <LatitudeDegrees>39.61212730966508388519287109375</LatitudeDegrees>
              <LongitudeDegrees>-0.6627751886844635009765625</LongitudeDegrees>
            </Position>
            <AltitudeMeters>134</AltitudeMeters>
            <DistanceMeters>36667.466809246</DistanceMeters>
          </Trackpoint>
          <Trackpoint>
            <Time>2021-10-09T08:12:08.000Z</Time>
            <Position>
              <LatitudeDegrees>39.61217793636023998260498046875</LatitudeDegrees>
              <LongitudeDegrees>-0.66281718201935291290283203125</LongitudeDegrees>
            </Position>
            <AltitudeMeters>134</AltitudeMeters>
            <DistanceMeters>36674.153881741</DistanceMeters>
          </Trackpoint>
          <Trackpoint>
            <Time>2021-10-09T08:12:09.000Z</Time>
            <Position>
              <LatitudeDegrees>39.61224138736724853515625</LatitudeDegrees>
              <LongitudeDegrees>-0.6628685630857944488525390625</LongitudeDegrees>
            </Position>
            <AltitudeMeters>134</AltitudeMeters>
            <DistanceMeters>36682.478352092</DistanceMeters>
          </Trackpoint>
          <Trackpoint>
            <Time>2021-10-09T08:12:10.000Z</Time>
            <Position>
              <LatitudeDegrees>39.61230383254587650299072265625</LatitudeDegrees>
              <LongitudeDegrees>-0.66291877068579196929931640625</LongitudeDegrees>
            </Position>
            <AltitudeMeters>134</AltitudeMeters>
            <DistanceMeters>36690.653411466</DistanceMeters>
          </Trackpoint>
          <Trackpoint>
            <Time>2021-10-09T08:12:11.000Z</Time>
            <Position>
              <LatitudeDegrees>39.61236502043902873992919921875</LatitudeDegrees>
              <LongitudeDegrees>-0.66296738572418689727783203125</LongitudeDegrees>
            </Position>
            <AltitudeMeters>134.1999969482421875</AltitudeMeters>
            <DistanceMeters>36698.637917693</DistanceMeters>
          </Trackpoint>
          <Trackpoint>
            <Time>2021-10-09T08:12:12.000Z</Time>
            <Position>
              <LatitudeDegrees>39.61242537014186382293701171875</LatitudeDegrees>
              <LongitudeDegrees>-0.66301533021032810211181640625</LongitudeDegrees>
            </Position>
            <AltitudeMeters>134.1999969482421875</AltitudeMeters>
            <DistanceMeters>36706.513104359</DistanceMeters>
          </Trackpoint>
          <Trackpoint>
            <Time>2021-10-09T08:12:13.000Z</Time>
            <Position>
              <LatitudeDegrees>39.61248345673084259033203125</LatitudeDegrees>
              <LongitudeDegrees>-0.66306553781032562255859375</LongitudeDegrees>
            </Position>
            <AltitudeMeters>134.1999969482421875</AltitudeMeters>
            <DistanceMeters>36714.27975812</DistanceMeters>
          </Trackpoint>
          <Trackpoint>
            <Time>2021-10-09T08:12:14.000Z</Time>
            <Position>
              <LatitudeDegrees>39.61254271678626537322998046875</LatitudeDegrees>
              <LongitudeDegrees>-0.6631158292293548583984375</LongitudeDegrees>
            </Position>
            <AltitudeMeters>134.1999969482421875</AltitudeMeters>
            <DistanceMeters>36722.159530047</DistanceMeters>
          </Trackpoint>
          <Trackpoint>
            <Time>2021-10-09T08:12:15.000Z</Time>
            <Position>
              <LatitudeDegrees>39.61260281503200531005859375</LatitudeDegrees>
              <LongitudeDegrees>-0.6631615944206714630126953125</LongitudeDegrees>
            </Position>
            <AltitudeMeters>134.399993896484375</AltitudeMeters>
            <DistanceMeters>36729.913383861</DistanceMeters>
          </Trackpoint>
          <Trackpoint>
            <Time>2021-10-09T08:12:16.000Z</Time>
            <Position>
              <LatitudeDegrees>39.6126613207161426544189453125</LatitudeDegrees>
              <LongitudeDegrees>-0.6632097065448760986328125</LongitudeDegrees>
            </Position>
            <AltitudeMeters>134.399993896484375</AltitudeMeters>
            <DistanceMeters>36737.621684776</DistanceMeters>
          </Trackpoint>
          <Trackpoint>
            <Time>2021-10-09T08:12:17.000Z</Time>
            <Position>
              <LatitudeDegrees>39.61271856911480426788330078125</LatitudeDegrees>
              <LongitudeDegrees>-0.6632578186690807342529296875</LongitudeDegrees>
            </Position>
            <AltitudeMeters>134.8000030517578125</AltitudeMeters>
            <DistanceMeters>36745.213123893</DistanceMeters>
          </Trackpoint>
          <Trackpoint>
            <Time>2021-10-09T08:12:18.000Z</Time>
            <Position>
              <LatitudeDegrees>39.61277506314218044281005859375</LatitudeDegrees>
              <LongitudeDegrees>-0.66330685280263423919677734375</LongitudeDegrees>
            </Position>
            <AltitudeMeters>135</AltitudeMeters>
            <DistanceMeters>36752.777154852</DistanceMeters>
          </Trackpoint>
          <Trackpoint>
            <Time>2021-10-09T08:12:19.000Z</Time>
            <Position>
              <LatitudeDegrees>39.61282853968441486358642578125</LatitudeDegrees>
              <LongitudeDegrees>-0.66335680894553661346435546875</LongitudeDegrees>
            </Position>
            <AltitudeMeters>135.1999969482421875</AltitudeMeters>
            <DistanceMeters>36760.110853462</DistanceMeters>
          </Trackpoint>
          <Trackpoint>
            <Time>2021-10-09T08:12:20.000Z</Time>
            <Position>
              <LatitudeDegrees>39.61287614889442920684814453125</LatitudeDegrees>
              <LongitudeDegrees>-0.6634127162396907806396484375</LongitudeDegrees>
            </Position>
            <AltitudeMeters>135.1999969482421875</AltitudeMeters>
            <DistanceMeters>36767.256205253</DistanceMeters>
          </Trackpoint>
          <Trackpoint>
            <Time>2021-10-09T08:12:21.000Z</Time>
            <Position>
              <LatitudeDegrees>39.61291663348674774169921875</LatitudeDegrees>
              <LongitudeDegrees>-0.663474909961223602294921875</LongitudeDegrees>
            </Position>
            <AltitudeMeters>135.399993896484375</AltitudeMeters>
            <DistanceMeters>36774.237920847</DistanceMeters>
          </Trackpoint>
          <Trackpoint>
            <Time>2021-10-09T08:12:22.000Z</Time>
            <Position>
              <LatitudeDegrees>39.61295259185135364532470703125</LatitudeDegrees>
              <LongitudeDegrees>-0.66354221664369106292724609375</LongitudeDegrees>
            </Position>
            <AltitudeMeters>135.600006103515625</AltitudeMeters>
            <DistanceMeters>36781.260902945</DistanceMeters>
          </Trackpoint>
          <Trackpoint>
            <Time>2021-10-09T08:12:23.000Z</Time>
            <Position>
              <LatitudeDegrees>39.6129875443875789642333984375</LatitudeDegrees>
              <LongitudeDegrees>-0.6636111997067928314208984375</LongitudeDegrees>
            </Position>
            <AltitudeMeters>135.8000030517578125</AltitudeMeters>
            <DistanceMeters>36788.340233722</DistanceMeters>
          </Trackpoint>
          <Trackpoint>
            <Time>2021-10-09T08:12:24.000Z</Time>
            <Position>
              <LatitudeDegrees>39.61302098818123340606689453125</LatitudeDegrees>
              <LongitudeDegrees>-0.663681440055370330810546875</LongitudeDegrees>
            </Position>
            <AltitudeMeters>136</AltitudeMeters>
            <DistanceMeters>36795.420839941</DistanceMeters>
          </Trackpoint>
          <Trackpoint>
            <Time>2021-10-09T08:12:25.000Z</Time>
            <Position>
              <LatitudeDegrees>39.61305183358490467071533203125</LatitudeDegrees>
              <LongitudeDegrees>-0.66375075839459896087646484375</LongitudeDegrees>
            </Position>
            <AltitudeMeters>136</AltitudeMeters>
            <DistanceMeters>36802.284505784</DistanceMeters>
          </Trackpoint>
          <Trackpoint>
            <Time>2021-10-09T08:12:26.000Z</Time>
            <Position>
              <LatitudeDegrees>39.61308100260794162750244140625</LatitudeDegrees>
              <LongitudeDegrees>-0.6638204120099544525146484375</LongitudeDegrees>
            </Position>
            <AltitudeMeters>136.1999969482421875</AltitudeMeters>
            <DistanceMeters>36809.08207161</DistanceMeters>
          </Trackpoint>
          <Trackpoint>
            <Time>2021-10-09T08:12:27.000Z</Time>
            <Position>
              <LatitudeDegrees>39.6131102554500102996826171875</LatitudeDegrees>
              <LongitudeDegrees>-0.6638891436159610748291015625</LongitudeDegrees>
            </Position>
            <AltitudeMeters>136.399993896484375</AltitudeMeters>
            <DistanceMeters>36815.814900418</DistanceMeters>
          </Trackpoint>
          <Trackpoint>
            <Time>2021-10-09T08:12:28.000Z</Time>
            <Position>
              <LatitudeDegrees>39.6131387539207935333251953125</LatitudeDegrees>
              <LongitudeDegrees>-0.66395728848874568939208984375</LongitudeDegrees>
            </Position>
            <AltitudeMeters>136.600006103515625</AltitudeMeters>
            <DistanceMeters>36822.46405482</DistanceMeters>
          </Trackpoint>
          <Trackpoint>
            <Time>2021-10-09T08:12:29.000Z</Time>
            <Position>
              <LatitudeDegrees>39.613166749477386474609375</LatitudeDegrees>
              <LongitudeDegrees>-0.66402669064700603485107421875</LongitudeDegrees>
            </Position>
            <AltitudeMeters>136.8000030517578125</AltitudeMeters>
            <DistanceMeters>36829.181442109</DistanceMeters>
          </Trackpoint>
          <Trackpoint>
            <Time>2021-10-09T08:12:30.000Z</Time>
            <Position>
              <LatitudeDegrees>39.61319382302463054656982421875</LatitudeDegrees>
              <LongitudeDegrees>-0.664095170795917510986328125</LongitudeDegrees>
            </Position>
            <AltitudeMeters>137</AltitudeMeters>
            <DistanceMeters>36835.780840467</DistanceMeters>
          </Trackpoint>
          <Trackpoint>
            <Time>2021-10-09T08:12:31.000Z</Time>
            <Position>
              <LatitudeDegrees>39.61322114802896976470947265625</LatitudeDegrees>
              <LongitudeDegrees>-0.66416247747838497161865234375</LongitudeDegrees>
            </Position>
            <AltitudeMeters>137.1999969482421875</AltitudeMeters>
            <DistanceMeters>36842.303855123</DistanceMeters>
          </Trackpoint>
          <Trackpoint>
            <Time>2021-10-09T08:12:32.000Z</Time>
            <Position>
              <LatitudeDegrees>39.6132497303187847137451171875</LatitudeDegrees>
              <LongitudeDegrees>-0.6642281077802181243896484375</LongitudeDegrees>
            </Position>
            <AltitudeMeters>137.399993896484375</AltitudeMeters>
            <DistanceMeters>36848.768466</DistanceMeters>
          </Trackpoint>
          <Trackpoint>
            <Time>2021-10-09T08:12:33.000Z</Time>
            <Position>
              <LatitudeDegrees>39.61327864788472652435302734375</LatitudeDegrees>
              <LongitudeDegrees>-0.66429398953914642333984375</LongitudeDegrees>
            </Position>
            <AltitudeMeters>137.600006103515625</AltitudeMeters>
            <DistanceMeters>36855.269293467</DistanceMeters>
          </Trackpoint>
          <Trackpoint>
            <Time>2021-10-09T08:12:34.000Z</Time>
            <Position>
              <LatitudeDegrees>39.61330865509808063507080078125</LatitudeDegrees>
              <LongitudeDegrees>-0.6643603742122650146484375</LongitudeDegrees>
            </Position>
            <AltitudeMeters>137.600006103515625</AltitudeMeters>
            <DistanceMeters>36861.868007631</DistanceMeters>
          </Trackpoint>
          <Trackpoint>
            <Time>2021-10-09T08:12:35.000Z</Time>
            <Position>
              <LatitudeDegrees>39.613338075578212738037109375</LatitudeDegrees>
              <LongitudeDegrees>-0.66442809998989105224609375</LongitudeDegrees>
            </Position>
            <AltitudeMeters>137.8000030517578125</AltitudeMeters>
            <DistanceMeters>36868.534793682</DistanceMeters>
          </Trackpoint>
          <Trackpoint>
            <Time>2021-10-09T08:12:36.000Z</Time>
            <Position>
              <LatitudeDegrees>39.61336766369640827178955078125</LatitudeDegrees>
              <LongitudeDegrees>-0.66449674777686595916748046875</LongitudeDegrees>
            </Position>
            <AltitudeMeters>138</AltitudeMeters>
            <DistanceMeters>36875.279682497</DistanceMeters>
          </Trackpoint>
          <Trackpoint>
            <Time>2021-10-09T08:12:37.000Z</Time>
            <Position>
              <LatitudeDegrees>39.613397754728794097900390625</LatitudeDegrees>
              <LongitudeDegrees>-0.664565898478031158447265625</LongitudeDegrees>
            </Position>
            <AltitudeMeters>138.1999969482421875</AltitudeMeters>
            <DistanceMeters>36882.089856696</DistanceMeters>
          </Trackpoint>
          <Trackpoint>
            <Time>2021-10-09T08:12:38.000Z</Time>
            <Position>
              <LatitudeDegrees>39.61342633701860904693603515625</LatitudeDegrees>
              <LongitudeDegrees>-0.664634965360164642333984375</LongitudeDegrees>
            </Position>
            <AltitudeMeters>138.399993896484375</AltitudeMeters>
            <DistanceMeters>36888.811947332</DistanceMeters>
          </Trackpoint>
          <Trackpoint>
            <Time>2021-10-09T08:12:39.000Z</Time>
            <Position>
              <LatitudeDegrees>39.6134579367935657501220703125</LatitudeDegrees>
              <LongitudeDegrees>-0.6647186167538166046142578125</LongitudeDegrees>
            </Position>
            <AltitudeMeters>138.600006103515625</AltitudeMeters>
            <DistanceMeters>36896.800410903</DistanceMeters>
          </Trackpoint>
          <Trackpoint>
            <Time>2021-10-09T08:12:40.000Z</Time>
            <Position>
              <LatitudeDegrees>39.61347830481827259063720703125</LatitudeDegrees>
              <LongitudeDegrees>-0.66477276384830474853515625</LongitudeDegrees>
            </Position>
            <AltitudeMeters>138.8000030517578125</AltitudeMeters>
            <DistanceMeters>36901.967802513</DistanceMeters>
          </Trackpoint>
          <Trackpoint>
            <Time>2021-10-09T08:12:41.000Z</Time>
            <Position>
              <LatitudeDegrees>39.613501690328121185302734375</LatitudeDegrees>
              <LongitudeDegrees>-0.66484224982559680938720703125</LongitudeDegrees>
            </Position>
            <AltitudeMeters>139</AltitudeMeters>
            <DistanceMeters>36908.470018897</DistanceMeters>
          </Trackpoint>
          <Trackpoint>
            <Time>2021-10-09T08:12:42.000Z</Time>
            <Position>
              <LatitudeDegrees>39.61352281272411346435546875</LatitudeDegrees>
              <LongitudeDegrees>-0.66491425037384033203125</LongitudeDegrees>
            </Position>
            <AltitudeMeters>139.1999969482421875</AltitudeMeters>
            <DistanceMeters>36915.075571817</DistanceMeters>
          </Trackpoint>
          <Trackpoint>
            <Time>2021-10-09T08:12:43.000Z</Time>
            <Position>
              <LatitudeDegrees>39.61353999562561511993408203125</LatitudeDegrees>
              <LongitudeDegrees>-0.6649891845881938934326171875</LongitudeDegrees>
            </Position>
            <AltitudeMeters>139.1999969482421875</AltitudeMeters>
            <DistanceMeters>36921.778829263</DistanceMeters>
          </Trackpoint>
          <Trackpoint>
            <Time>2021-10-09T08:12:44.000Z</Time>
            <Position>
              <LatitudeDegrees>39.6135531552135944366455078125</LatitudeDegrees>
              <LongitudeDegrees>-0.66506537608802318572998046875</LongitudeDegrees>
            </Position>
            <AltitudeMeters>139.399993896484375</AltitudeMeters>
            <DistanceMeters>36928.473999124</DistanceMeters>
          </Trackpoint>
          <Trackpoint>
            <Time>2021-10-09T08:12:45.000Z</Time>
            <Position>
              <LatitudeDegrees>39.61356296204030513763427734375</LatitudeDegrees>
              <LongitudeDegrees>-0.66514600999653339385986328125</LongitudeDegrees>
            </Position>
            <AltitudeMeters>139.600006103515625</AltitudeMeters>
            <DistanceMeters>36935.473798749</DistanceMeters>
          </Trackpoint>
          <Trackpoint>
            <Time>2021-10-09T08:12:46.000Z</Time>
            <Position>
              <LatitudeDegrees>39.613570757210254669189453125</LatitudeDegrees>
              <LongitudeDegrees>-0.66522899083793163299560546875</LongitudeDegrees>
            </Position>
            <AltitudeMeters>139.600006103515625</AltitudeMeters>
            <DistanceMeters>36942.641232382</DistanceMeters>
          </Trackpoint>
          <Trackpoint>
            <Time>2021-10-09T08:12:47.000Z</Time>
            <Position>
              <LatitudeDegrees>39.61357318796217441558837890625</LatitudeDegrees>
              <LongitudeDegrees>-0.6653164140880107879638671875</LongitudeDegrees>
            </Position>
            <AltitudeMeters>139.600006103515625</AltitudeMeters>
            <DistanceMeters>36950.141724116</DistanceMeters>
          </Trackpoint>
          <Trackpoint>
            <Time>2021-10-09T08:12:48.000Z</Time>
            <Position>
              <LatitudeDegrees>39.61357184685766696929931640625</LatitudeDegrees>
              <LongitudeDegrees>-0.66540534608066082000732421875</LongitudeDegrees>
            </Position>
            <AltitudeMeters>139.600006103515625</AltitudeMeters>
            <DistanceMeters>36957.768764987</DistanceMeters>
          </Trackpoint>
          <Trackpoint>
            <Time>2021-10-09T08:12:49.000Z</Time>
            <Position>
              <LatitudeDegrees>39.6135648898780345916748046875</LatitudeDegrees>
              <LongitudeDegrees>-0.665492601692676544189453125</LongitudeDegrees>
            </Position>
            <AltitudeMeters>139.600006103515625</AltitudeMeters>
            <DistanceMeters>36965.290896267</DistanceMeters>
          </Trackpoint>
          <Trackpoint>
            <Time>2021-10-09T08:12:50.000Z</Time>
            <Position>
              <LatitudeDegrees>39.61355231702327728271484375</LatitudeDegrees>
              <LongitudeDegrees>-0.665579773485660552978515625</LongitudeDegrees>
            </Position>
            <AltitudeMeters>139.600006103515625</AltitudeMeters>
            <DistanceMeters>36972.895408714</DistanceMeters>
          </Trackpoint>
          <Trackpoint>
            <Time>2021-10-09T08:12:51.000Z</Time>
            <Position>
              <LatitudeDegrees>39.6135370619595050811767578125</LatitudeDegrees>
              <LongitudeDegrees>-0.66567289642989635467529296875</LongitudeDegrees>
            </Position>
            <AltitudeMeters>139.600006103515625</AltitudeMeters>
            <DistanceMeters>36981.058861669</DistanceMeters>
          </Trackpoint>
          <Trackpoint>
            <Time>2021-10-09T08:12:52.000Z</Time>
            <Position>
              <LatitudeDegrees>39.6135233156383037567138671875</LatitudeDegrees>
              <LongitudeDegrees>-0.66577163524925708770751953125</LongitudeDegrees>
            </Position>
            <AltitudeMeters>139.399993896484375</AltitudeMeters>
            <DistanceMeters>36989.662322404</DistanceMeters>
          </Trackpoint>
          <Trackpoint>
            <Time>2021-10-09T08:12:53.000Z</Time>
            <Position>
              <LatitudeDegrees>39.6135082282125949859619140625</LatitudeDegrees>
              <LongitudeDegrees>-0.6658753193914890289306640625</LongitudeDegrees>
            </Position>
            <AltitudeMeters>139.399993896484375</AltitudeMeters>
            <DistanceMeters>36998.709344725</DistanceMeters>
          </Trackpoint>
          <Trackpoint>
            <Time>2021-10-09T08:12:54.000Z</Time>
            <Position>
              <LatitudeDegrees>39.6134924702346324920654296875</LatitudeDegrees>
              <LongitudeDegrees>-0.66598512232303619384765625</LongitudeDegrees>
            </Position>
            <AltitudeMeters>139</AltitudeMeters>
            <DistanceMeters>37008.286793055</DistanceMeters>
          </Trackpoint>
          <Trackpoint>
            <Time>2021-10-09T08:12:55.000Z</Time>
            <Position>
              <LatitudeDegrees>39.61347696371376514434814453125</LatitudeDegrees>
              <LongitudeDegrees>-0.6661002896726131439208984375</LongitudeDegrees>
            </Position>
            <AltitudeMeters>138.8000030517578125</AltitudeMeters>
            <DistanceMeters>37018.31199883</DistanceMeters>
          </Trackpoint>
          <Trackpoint>
            <Time>2021-10-09T08:12:56.000Z</Time>
            <Position>
              <LatitudeDegrees>39.613460116088390350341796875</LatitudeDegrees>
              <LongitudeDegrees>-0.6662152893841266632080078125</LongitudeDegrees>
            </Position>
            <AltitudeMeters>138.399993896484375</AltitudeMeters>
            <DistanceMeters>37028.348907358</DistanceMeters>
          </Trackpoint>
          <Trackpoint>
            <Time>2021-10-09T08:12:57.000Z</Time>
            <Position>
              <LatitudeDegrees>39.61344301700592041015625</LatitudeDegrees>
              <LongitudeDegrees>-0.6663291156291961669921875</LongitudeDegrees>
            </Position>
            <AltitudeMeters>138</AltitudeMeters>
            <DistanceMeters>37038.29271634</DistanceMeters>
          </Trackpoint>
          <Trackpoint>
            <Time>2021-10-09T08:12:58.000Z</Time>
            <Position>
              <LatitudeDegrees>39.61342767812311649322509765625</LatitudeDegrees>
              <LongitudeDegrees>-0.66644109785556793212890625</LongitudeDegrees>
            </Position>
            <AltitudeMeters>137.399993896484375</AltitudeMeters>
            <DistanceMeters>37048.044883541</DistanceMeters>
          </Trackpoint>
          <Trackpoint>
            <Time>2021-10-09T08:12:59.000Z</Time>
            <Position>
              <LatitudeDegrees>39.61341292597353458404541015625</LatitudeDegrees>
              <LongitudeDegrees>-0.66654796712100505828857421875</LongitudeDegrees>
            </Position>
            <AltitudeMeters>136.8000030517578125</AltitudeMeters>
            <DistanceMeters>37057.354592113</DistanceMeters>
          </Trackpoint>
          <Trackpoint>
            <Time>2021-10-09T08:13:00.000Z</Time>
            <Position>
              <LatitudeDegrees>39.613399095833301544189453125</LatitudeDegrees>
              <LongitudeDegrees>-0.6666524894535541534423828125</LongitudeDegrees>
            </Position>
            <AltitudeMeters>136.399993896484375</AltitudeMeters>
            <DistanceMeters>37066.448405399</DistanceMeters>
          </Trackpoint>
          <Trackpoint>
            <Time>2021-10-09T08:13:01.000Z</Time>
            <Position>
              <LatitudeDegrees>39.613386690616607666015625</LatitudeDegrees>
              <LongitudeDegrees>-0.66675483249127864837646484375</LongitudeDegrees>
            </Position>
            <AltitudeMeters>136.1999969482421875</AltitudeMeters>
            <DistanceMeters>37075.331243232</DistanceMeters>
          </Trackpoint>
          <Trackpoint>
            <Time>2021-10-09T08:13:02.000Z</Time>
            <Position>
              <LatitudeDegrees>39.6133711002767086029052734375</LatitudeDegrees>
              <LongitudeDegrees>-0.666855834424495697021484375</LongitudeDegrees>
            </Position>
            <AltitudeMeters>136.1999969482421875</AltitudeMeters>
            <DistanceMeters>37084.163106021</DistanceMeters>
          </Trackpoint>
          <Trackpoint>
            <Time>2021-10-09T08:13:03.000Z</Time>
            <Position>
              <LatitudeDegrees>39.61335559375584125518798828125</LatitudeDegrees>
              <LongitudeDegrees>-0.6669549085199832916259765625</LongitudeDegrees>
            </Position>
            <AltitudeMeters>136</AltitudeMeters>
            <DistanceMeters>37092.831917714</DistanceMeters>
          </Trackpoint>
          <Trackpoint>
            <Time>2021-10-09T08:13:04.000Z</Time>
            <Position>
              <LatitudeDegrees>39.613341428339481353759765625</LatitudeDegrees>
              <LongitudeDegrees>-0.66705037839710712432861328125</LongitudeDegrees>
            </Position>
            <AltitudeMeters>136</AltitudeMeters>
            <DistanceMeters>37101.168311917</DistanceMeters>
          </Trackpoint>
          <Trackpoint>
            <Time>2021-10-09T08:13:05.000Z</Time>
            <Position>
              <LatitudeDegrees>39.6133268438279628753662109375</LatitudeDegrees>
              <LongitudeDegrees>-0.6671393103897571563720703125</LongitudeDegrees>
            </Position>
            <AltitudeMeters>136</AltitudeMeters>
            <DistanceMeters>37108.963978307</DistanceMeters>
          </Trackpoint>
          <Trackpoint>
            <Time>2021-10-09T08:13:06.000Z</Time>
            <Position>
              <LatitudeDegrees>39.61330764926970005035400390625</LatitudeDegrees>
              <LongitudeDegrees>-0.66722572781145572662353515625</LongitudeDegrees>
            </Position>
            <AltitudeMeters>136</AltitudeMeters>
            <DistanceMeters>37116.675207352</DistanceMeters>
          </Trackpoint>
          <Trackpoint>
            <Time>2021-10-09T08:13:07.000Z</Time>
            <Position>
              <LatitudeDegrees>39.61328233592212200164794921875</LatitudeDegrees>
              <LongitudeDegrees>-0.667307786643505096435546875</LongitudeDegrees>
            </Position>
            <AltitudeMeters>136</AltitudeMeters>
            <DistanceMeters>37124.253550587</DistanceMeters>
          </Trackpoint>
          <Trackpoint>
            <Time>2021-10-09T08:13:08.000Z</Time>
            <Position>
              <LatitudeDegrees>39.61325534619390964508056640625</LatitudeDegrees>
              <LongitudeDegrees>-0.66738766618072986602783203125</LongitudeDegrees>
            </Position>
            <AltitudeMeters>136</AltitudeMeters>
            <DistanceMeters>37131.732340161</DistanceMeters>
          </Trackpoint>
          <Trackpoint>
            <Time>2021-10-09T08:13:09.000Z</Time>
            <Position>
              <LatitudeDegrees>39.61322567425668239593505859375</LatitudeDegrees>
              <LongitudeDegrees>-0.66746226511895656585693359375</LongitudeDegrees>
            </Position>
            <AltitudeMeters>136</AltitudeMeters>
            <DistanceMeters>37138.930574572</DistanceMeters>
          </Trackpoint>
          <Trackpoint>
            <Time>2021-10-09T08:13:10.000Z</Time>
            <Position>
              <LatitudeDegrees>39.61319214664399623870849609375</LatitudeDegrees>
              <LongitudeDegrees>-0.66753208637237548828125</LongitudeDegrees>
            </Position>
            <AltitudeMeters>136.1999969482421875</AltitudeMeters>
            <DistanceMeters>37145.984988175</DistanceMeters>
          </Trackpoint>
          <Trackpoint>
            <Time>2021-10-09T08:13:11.000Z</Time>
            <Position>
              <LatitudeDegrees>39.61315476335585117340087890625</LatitudeDegrees>
              <LongitudeDegrees>-0.6675952859222888946533203125</LongitudeDegrees>
            </Position>
            <AltitudeMeters>136.399993896484375</AltitudeMeters>
            <DistanceMeters>37152.817005823</DistanceMeters>
          </Trackpoint>
          <Trackpoint>
            <Time>2021-10-09T08:13:12.000Z</Time>
            <Position>
              <LatitudeDegrees>39.61311670951545238494873046875</LatitudeDegrees>
              <LongitudeDegrees>-0.6676541268825531005859375</LongitudeDegrees>
            </Position>
            <AltitudeMeters>137</AltitudeMeters>
            <DistanceMeters>37159.404077806</DistanceMeters>
          </Trackpoint>
          <Trackpoint>
            <Time>2021-10-09T08:13:13.000Z</Time>
            <Position>
              <LatitudeDegrees>39.6130768954753875732421875</LatitudeDegrees>
              <LongitudeDegrees>-0.66771221347153186798095703125</LongitudeDegrees>
            </Position>
            <AltitudeMeters>137.399993896484375</AltitudeMeters>
            <DistanceMeters>37166.07018658</DistanceMeters>
          </Trackpoint>
          <Trackpoint>
            <Time>2021-10-09T08:13:14.000Z</Time>
            <Position>
              <LatitudeDegrees>39.61303523741662502288818359375</LatitudeDegrees>
              <LongitudeDegrees>-0.66776535473763942718505859375</LongitudeDegrees>
            </Position>
            <AltitudeMeters>137.399993896484375</AltitudeMeters>
            <DistanceMeters>37172.569624833</DistanceMeters>
          </Trackpoint>
          <Trackpoint>
            <Time>2021-10-09T08:13:15.000Z</Time>
            <Position>
              <LatitudeDegrees>39.61299500428140163421630859375</LatitudeDegrees>
              <LongitudeDegrees>-0.66781547851860523223876953125</LongitudeDegrees>
            </Position>
            <AltitudeMeters>137.8000030517578125</AltitudeMeters>
            <DistanceMeters>37178.776258873</DistanceMeters>
          </Trackpoint>
          <Trackpoint>
            <Time>2021-10-09T08:13:16.000Z</Time>
            <Position>
              <LatitudeDegrees>39.6129536814987659454345703125</LatitudeDegrees>
              <LongitudeDegrees>-0.6678668595850467681884765625</LongitudeDegrees>
            </Position>
            <AltitudeMeters>138</AltitudeMeters>
            <DistanceMeters>37185.145175844</DistanceMeters>
          </Trackpoint>
          <Trackpoint>
            <Time>2021-10-09T08:13:17.000Z</Time>
            <Position>
              <LatitudeDegrees>39.61291302926838397979736328125</LatitudeDegrees>
              <LongitudeDegrees>-0.6679171510040760040283203125</LongitudeDegrees>
            </Position>
            <AltitudeMeters>138.600006103515625</AltitudeMeters>
            <DistanceMeters>37191.395304699</DistanceMeters>
          </Trackpoint>
          <Trackpoint>
            <Time>2021-10-09T08:13:18.000Z</Time>
            <Position>
              <LatitudeDegrees>39.61287547834217548370361328125</LatitudeDegrees>
              <LongitudeDegrees>-0.66796920262277126312255859375</LongitudeDegrees>
            </Position>
            <AltitudeMeters>138.8000030517578125</AltitudeMeters>
            <DistanceMeters>37197.511069298</DistanceMeters>
          </Trackpoint>
          <Trackpoint>
            <Time>2021-10-09T08:13:19.000Z</Time>
            <Position>
              <LatitudeDegrees>39.61284094490110874176025390625</LatitudeDegrees>
              <LongitudeDegrees>-0.668022930622100830078125</LongitudeDegrees>
            </Position>
            <AltitudeMeters>139</AltitudeMeters>
            <DistanceMeters>37203.511312191</DistanceMeters>
          </Trackpoint>
          <Trackpoint>
            <Time>2021-10-09T08:13:20.000Z</Time>
            <Position>
              <LatitudeDegrees>39.612805657088756561279296875</LatitudeDegrees>
              <LongitudeDegrees>-0.66807732917368412017822265625</LongitudeDegrees>
            </Position>
            <AltitudeMeters>139.1999969482421875</AltitudeMeters>
            <DistanceMeters>37209.609332755</DistanceMeters>
          </Trackpoint>
          <Trackpoint>
            <Time>2021-10-09T08:13:21.000Z</Time>
            <Position>
              <LatitudeDegrees>39.61277187801897525787353515625</LatitudeDegrees>
              <LongitudeDegrees>-0.66813281737267971038818359375</LongitudeDegrees>
            </Position>
            <AltitudeMeters>139.399993896484375</AltitudeMeters>
            <DistanceMeters>37215.673198789</DistanceMeters>
          </Trackpoint>
          <Trackpoint>
            <Time>2021-10-09T08:13:22.000Z</Time>
            <Position>
              <LatitudeDegrees>39.612742960453033447265625</LatitudeDegrees>
              <LongitudeDegrees>-0.66819014959037303924560546875</LongitudeDegrees>
            </Position>
            <AltitudeMeters>139.8000030517578125</AltitudeMeters>
            <DistanceMeters>37221.549508202</DistanceMeters>
          </Trackpoint>
          <Trackpoint>
            <Time>2021-10-09T08:13:23.000Z</Time>
            <Position>
              <LatitudeDegrees>39.61271890439093112945556640625</LatitudeDegrees>
              <LongitudeDegrees>-0.66824890673160552978515625</LongitudeDegrees>
            </Position>
            <AltitudeMeters>140</AltitudeMeters>
            <DistanceMeters>37227.255069137</DistanceMeters>
          </Trackpoint>
          <Trackpoint>
            <Time>2021-10-09T08:13:24.000Z</Time>
            <Position>
              <LatitudeDegrees>39.61269979365170001983642578125</LatitudeDegrees>
              <LongitudeDegrees>-0.6683097593486309051513671875</LongitudeDegrees>
            </Position>
            <AltitudeMeters>140.399993896484375</AltitudeMeters>
            <DistanceMeters>37232.88976068</DistanceMeters>
          </Trackpoint>
          <Trackpoint>
            <Time>2021-10-09T08:13:25.000Z</Time>
            <Position>
              <LatitudeDegrees>39.61268571205437183380126953125</LatitudeDegrees>
              <LongitudeDegrees>-0.6683754734694957733154296875</LongitudeDegrees>
            </Position>
            <AltitudeMeters>140.600006103515625</AltitudeMeters>
            <DistanceMeters>37238.738344232</DistanceMeters>
          </Trackpoint>
          <Trackpoint>
            <Time>2021-10-09T08:13:26.000Z</Time>
            <Position>
              <LatitudeDegrees>39.61267833597958087921142578125</LatitudeDegrees>
              <LongitudeDegrees>-0.66844470798969268798828125</LongitudeDegrees>
            </Position>
            <AltitudeMeters>140.8000030517578125</AltitudeMeters>
            <DistanceMeters>37244.731811016</DistanceMeters>
          </Trackpoint>
          <Trackpoint>
            <Time>2021-10-09T08:13:27.000Z</Time>
            <Position>
              <LatitudeDegrees>39.6126767434179782867431640625</LatitudeDegrees>
              <LongitudeDegrees>-0.66851654089987277984619140625</LongitudeDegrees>
            </Position>
            <AltitudeMeters>141.1999969482421875</AltitudeMeters>
            <DistanceMeters>37250.893177859</DistanceMeters>
          </Trackpoint>
          <Trackpoint>
            <Time>2021-10-09T08:13:28.000Z</Time>
            <Position>
              <LatitudeDegrees>39.61268085055053234100341796875</LatitudeDegrees>
              <LongitudeDegrees>-0.6685848534107208251953125</LongitudeDegrees>
            </Position>
            <AltitudeMeters>141.1999969482421875</AltitudeMeters>
            <DistanceMeters>37256.767181782</DistanceMeters>
          </Trackpoint>
          <Trackpoint>
            <Time>2021-10-09T08:13:29.000Z</Time>
            <Position>
              <LatitudeDegrees>39.6126847900450229644775390625</LatitudeDegrees>
              <LongitudeDegrees>-0.66865065135061740875244140625</LongitudeDegrees>
            </Position>
            <AltitudeMeters>141.600006103515625</AltitudeMeters>
            <DistanceMeters>37262.425861051</DistanceMeters>
          </Trackpoint>
          <Trackpoint>
            <Time>2021-10-09T08:13:30.000Z</Time>
            <Position>
              <LatitudeDegrees>39.612689316272735595703125</LatitudeDegrees>
              <LongitudeDegrees>-0.66871485672891139984130859375</LongitudeDegrees>
            </Position>
            <AltitudeMeters>141.8000030517578125</AltitudeMeters>
            <DistanceMeters>37267.95295329</DistanceMeters>
          </Trackpoint>
          <Trackpoint>
            <Time>2021-10-09T08:13:31.000Z</Time>
            <Position>
              <LatitudeDegrees>39.612697027623653411865234375</LatitudeDegrees>
              <LongitudeDegrees>-0.66877738572657108306884765625</LongitudeDegrees>
            </Position>
            <AltitudeMeters>142.1999969482421875</AltitudeMeters>
            <DistanceMeters>37273.381965125</DistanceMeters>
          </Trackpoint>
          <Trackpoint>
            <Time>2021-10-09T08:13:32.000Z</Time>
            <Position>
              <LatitudeDegrees>39.61270834319293498992919921875</LatitudeDegrees>
              <LongitudeDegrees>-0.66883924417197704315185546875</LongitudeDegrees>
            </Position>
            <AltitudeMeters>142.1999969482421875</AltitudeMeters>
            <DistanceMeters>37278.832556974</DistanceMeters>
          </Trackpoint>
          <Trackpoint>
            <Time>2021-10-09T08:13:33.000Z</Time>
            <Position>
              <LatitudeDegrees>39.6127183176577091217041015625</LatitudeDegrees>
              <LongitudeDegrees>-0.66890194080770015716552734375</LongitudeDegrees>
            </Position>
            <AltitudeMeters>142.8000030517578125</AltitudeMeters>
            <DistanceMeters>37284.322766002</DistanceMeters>
          </Trackpoint>
          <Trackpoint>
            <Time>2021-10-09T08:13:34.000Z</Time>
            <Position>
              <LatitudeDegrees>39.61272753775119781494140625</LatitudeDegrees>
              <LongitudeDegrees>-0.6689657270908355712890625</LongitudeDegrees>
            </Position>
            <AltitudeMeters>143.1999969482421875</AltitudeMeters>
            <DistanceMeters>37289.888119738</DistanceMeters>
          </Trackpoint>
          <Trackpoint>
            <Time>2021-10-09T08:13:35.000Z</Time>
            <Position>
              <LatitudeDegrees>39.61273835040628910064697265625</LatitudeDegrees>
              <LongitudeDegrees>-0.66902783699333667755126953125</LongitudeDegrees>
            </Position>
            <AltitudeMeters>143.1999969482421875</AltitudeMeters>
            <DistanceMeters>37295.348642828</DistanceMeters>
          </Trackpoint>
          <Trackpoint>
            <Time>2021-10-09T08:13:36.000Z</Time>
            <Position>
              <LatitudeDegrees>39.6127498336136341094970703125</LatitudeDegrees>
              <LongitudeDegrees>-0.66908617503941059112548828125</LongitudeDegrees>
            </Position>
            <AltitudeMeters>143.399993896484375</AltitudeMeters>
            <DistanceMeters>37300.51166381</DistanceMeters>
          </Trackpoint>
          <Trackpoint>
            <Time>2021-10-09T08:13:37.000Z</Time>
            <Position>
              <LatitudeDegrees>39.6127605624496936798095703125</LatitudeDegrees>
              <LongitudeDegrees>-0.6691449321806430816650390625</LongitudeDegrees>
            </Position>
            <AltitudeMeters>143.399993896484375</AltitudeMeters>
            <DistanceMeters>37305.688657811</DistanceMeters>
          </Trackpoint>
          <Trackpoint>
            <Time>2021-10-09T08:13:38.000Z</Time>
            <Position>
              <LatitudeDegrees>39.61277003400027751922607421875</LatitudeDegrees>
              <LongitudeDegrees>-0.6692042760550975799560546875</LongitudeDegrees>
            </Position>
            <AltitudeMeters>143.600006103515625</AltitudeMeters>
            <DistanceMeters>37310.88480336</DistanceMeters>
          </Trackpoint>
          <Trackpoint>
            <Time>2021-10-09T08:13:39.000Z</Time>
            <Position>
              <LatitudeDegrees>39.612780511379241943359375</LatitudeDegrees>
              <LongitudeDegrees>-0.66926269792020320892333984375</LongitudeDegrees>
            </Position>
            <AltitudeMeters>144</AltitudeMeters>
            <DistanceMeters>37316.028549464</DistanceMeters>
          </Trackpoint>
          <Trackpoint>
            <Time>2021-10-09T08:13:40.000Z</Time>
            <Position>
              <LatitudeDegrees>39.61279392242431640625</LatitudeDegrees>
              <LongitudeDegrees>-0.66932103596627712249755859375</LongitudeDegrees>
            </Position>
            <AltitudeMeters>144.399993896484375</AltitudeMeters>
            <DistanceMeters>37321.248968097</DistanceMeters>
          </Trackpoint>
          <Trackpoint>
            <Time>2021-10-09T08:13:41.000Z</Time>
            <Position>
              <LatitudeDegrees>39.61280724965035915374755859375</LatitudeDegrees>
              <LongitudeDegrees>-0.66938322968780994415283203125</LongitudeDegrees>
            </Position>
            <AltitudeMeters>144.600006103515625</AltitudeMeters>
            <DistanceMeters>37326.783407481</DistanceMeters>
          </Trackpoint>
          <Trackpoint>
            <Time>2021-10-09T08:13:42.000Z</Time>
            <Position>
              <LatitudeDegrees>39.61281999014317989349365234375</LatitudeDegrees>
              <LongitudeDegrees>-0.66944651305675506591796875</LongitudeDegrees>
            </Position>
            <AltitudeMeters>145.399993896484375</AltitudeMeters>
            <DistanceMeters>37332.392399042</DistanceMeters>
          </Trackpoint>
          <Trackpoint>
            <Time>2021-10-09T08:13:43.000Z</Time>
            <Position>
              <LatitudeDegrees>39.6128328144550323486328125</LatitudeDegrees>
              <LongitudeDegrees>-0.66950828768312931060791015625</LongitudeDegrees>
            </Position>
            <AltitudeMeters>146.1999969482421875</AltitudeMeters>
            <DistanceMeters>37337.879317564</DistanceMeters>
          </Trackpoint>
          <Trackpoint>
            <Time>2021-10-09T08:13:44.000Z</Time>
            <Position>
              <LatitudeDegrees>39.61284563876688480377197265625</LatitudeDegrees>
              <LongitudeDegrees>-0.66957031376659870147705078125</LongitudeDegrees>
            </Position>
            <AltitudeMeters>146.399993896484375</AltitudeMeters>
            <DistanceMeters>37343.385949629</DistanceMeters>
          </Trackpoint>
          <Trackpoint>
            <Time>2021-10-09T08:13:45.000Z</Time>
            <Position>
              <LatitudeDegrees>39.61285896599292755126953125</LatitudeDegrees>
              <LongitudeDegrees>-0.669630579650402069091796875</LongitudeDegrees>
            </Position>
            <AltitudeMeters>146.8000030517578125</AltitudeMeters>
            <DistanceMeters>37348.761472359</DistanceMeters>
          </Trackpoint>
          <Trackpoint>
            <Time>2021-10-09T08:13:46.000Z</Time>
            <Position>
              <LatitudeDegrees>39.61287111975252628326416015625</LatitudeDegrees>
              <LongitudeDegrees>-0.66969193518161773681640625</LongitudeDegrees>
            </Position>
            <AltitudeMeters>146.8000030517578125</AltitudeMeters>
            <DistanceMeters>37354.192978572</DistanceMeters>
          </Trackpoint>
          <Trackpoint>
            <Time>2021-10-09T08:13:47.000Z</Time>
            <Position>
              <LatitudeDegrees>39.61288218386471271514892578125</LatitudeDegrees>
              <LongitudeDegrees>-0.66975354216992855072021484375</LongitudeDegrees>
            </Position>
            <AltitudeMeters>146.8000030517578125</AltitudeMeters>
            <DistanceMeters>37359.616998212</DistanceMeters>
          </Trackpoint>
          <Trackpoint>
            <Time>2021-10-09T08:13:48.000Z</Time>
            <Position>
              <LatitudeDegrees>39.61289517581462860107421875</LatitudeDegrees>
              <LongitudeDegrees>-0.66981338895857334136962890625</LongitudeDegrees>
            </Position>
            <AltitudeMeters>147</AltitudeMeters>
            <DistanceMeters>37364.946971992</DistanceMeters>
          </Trackpoint>
          <Trackpoint>
            <Time>2021-10-09T08:13:49.000Z</Time>
            <Position>
              <LatitudeDegrees>39.61290783248841762542724609375</LatitudeDegrees>
              <LongitudeDegrees>-0.66987172700464725494384765625</LongitudeDegrees>
            </Position>
            <AltitudeMeters>147</AltitudeMeters>
            <DistanceMeters>37370.143117541</DistanceMeters>
          </Trackpoint>
          <Trackpoint>
            <Time>2021-10-09T08:13:50.000Z</Time>
            <Position>
              <LatitudeDegrees>39.61292057298123836517333984375</LatitudeDegrees>
              <LongitudeDegrees>-0.6699294783174991607666015625</LongitudeDegrees>
            </Position>
            <AltitudeMeters>147</AltitudeMeters>
            <DistanceMeters>37375.293004386</DistanceMeters>
          </Trackpoint>
          <Trackpoint>
            <Time>2021-10-09T08:13:51.000Z</Time>
            <Position>
              <LatitudeDegrees>39.61293272674083709716796875</LatitudeDegrees>
              <LongitudeDegrees>-0.6699849665164947509765625</LongitudeDegrees>
            </Position>
            <AltitudeMeters>147</AltitudeMeters>
            <DistanceMeters>37380.239872806</DistanceMeters>
          </Trackpoint>
          <Trackpoint>
            <Time>2021-10-09T08:13:52.000Z</Time>
            <Position>
              <LatitudeDegrees>39.6129436232149600982666015625</LatitudeDegrees>
              <LongitudeDegrees>-0.67004422657191753387451171875</LongitudeDegrees>
            </Position>
            <AltitudeMeters>147</AltitudeMeters>
            <DistanceMeters>37385.463749815</DistanceMeters>
          </Trackpoint>
          <Trackpoint>
            <Time>2021-10-09T08:13:53.000Z</Time>
            <Position>
              <LatitudeDegrees>39.61295493878424167633056640625</LatitudeDegrees>
              <LongitudeDegrees>-0.67010541446506977081298828125</LongitudeDegrees>
            </Position>
            <AltitudeMeters>147</AltitudeMeters>
            <DistanceMeters>37390.8593931</DistanceMeters>
          </Trackpoint>
          <Trackpoint>
            <Time>2021-10-09T08:13:54.000Z</Time>
            <Position>
              <LatitudeDegrees>39.6129687689244747161865234375</LatitudeDegrees>
              <LongitudeDegrees>-0.67016576416790485382080078125</LongitudeDegrees>
            </Position>
            <AltitudeMeters>147</AltitudeMeters>
            <DistanceMeters>37396.25838252</DistanceMeters>
          </Trackpoint>
          <Trackpoint>
            <Time>2021-10-09T08:13:55.000Z</Time>
            <Position>
              <LatitudeDegrees>39.6129821799695491790771484375</LatitudeDegrees>
              <LongitudeDegrees>-0.67022745497524738311767578125</LongitudeDegrees>
            </Position>
            <AltitudeMeters>147.1999969482421875</AltitudeMeters>
            <DistanceMeters>37401.755166651</DistanceMeters>
          </Trackpoint>
          <Trackpoint>
            <Time>2021-10-09T08:13:56.000Z</Time>
            <Position>
              <LatitudeDegrees>39.61299466900527477264404296875</LatitudeDegrees>
              <LongitudeDegrees>-0.67029166035354137420654296875</LongitudeDegrees>
            </Position>
            <AltitudeMeters>147.600006103515625</AltitudeMeters>
            <DistanceMeters>37407.432963135</DistanceMeters>
          </Trackpoint>
          <Trackpoint>
            <Time>2021-10-09T08:13:57.000Z</Time>
            <Position>
              <LatitudeDegrees>39.61300942115485668182373046875</LatitudeDegrees>
              <LongitudeDegrees>-0.6703552789986133575439453125</LongitudeDegrees>
            </Position>
            <AltitudeMeters>147.8000030517578125</AltitudeMeters>
            <DistanceMeters>37413.129020075</DistanceMeters>
          </Trackpoint>
          <Trackpoint>
            <Time>2021-10-09T08:13:58.000Z</Time>
            <Position>
              <LatitudeDegrees>39.6130259335041046142578125</LatitudeDegrees>
              <LongitudeDegrees>-0.6704203225672245025634765625</LongitudeDegrees>
            </Position>
            <AltitudeMeters>147.8000030517578125</AltitudeMeters>
            <DistanceMeters>37419.001486502</DistanceMeters>
          </Trackpoint>
          <Trackpoint>
            <Time>2021-10-09T08:13:59.000Z</Time>
            <Position>
              <LatitudeDegrees>39.61304244585335254669189453125</LatitudeDegrees>
              <LongitudeDegrees>-0.6704865396022796630859375</LongitudeDegrees>
            </Position>
            <AltitudeMeters>148</AltitudeMeters>
            <DistanceMeters>37424.969285216</DistanceMeters>
          </Trackpoint>
          <Trackpoint>
            <Time>2021-10-09T08:14:00.000Z</Time>
            <Position>
              <LatitudeDegrees>39.6130616404116153717041015625</LatitudeDegrees>
              <LongitudeDegrees>-0.6705509126186370849609375</LongitudeDegrees>
            </Position>
            <AltitudeMeters>148.1999969482421875</AltitudeMeters>
            <DistanceMeters>37430.887702786</DistanceMeters>
          </Trackpoint>
          <Trackpoint>
            <Time>2021-10-09T08:14:01.000Z</Time>
            <Position>
              <LatitudeDegrees>39.61308452300727367401123046875</LatitudeDegrees>
              <LongitudeDegrees>-0.67061520181596279144287109375</LongitudeDegrees>
            </Position>
            <AltitudeMeters>148.399993896484375</AltitudeMeters>
            <DistanceMeters>37436.959753685</DistanceMeters>
          </Trackpoint>
          <Trackpoint>
            <Time>2021-10-09T08:14:02.000Z</Time>
            <Position>
              <LatitudeDegrees>39.6131075732409954071044921875</LatitudeDegrees>
              <LongitudeDegrees>-0.67068108357489109039306640625</LongitudeDegrees>
            </Position>
            <AltitudeMeters>148.399993896484375</AltitudeMeters>
            <DistanceMeters>37443.163477228</DistanceMeters>
          </Trackpoint>
          <Trackpoint>
            <Time>2021-10-09T08:14:03.000Z</Time>
            <Position>
              <LatitudeDegrees>39.613133557140827178955078125</LatitudeDegrees>
              <LongitudeDegrees>-0.67074378021061420440673828125</LongitudeDegrees>
            </Position>
            <AltitudeMeters>148.399993896484375</AltitudeMeters>
            <DistanceMeters>37449.268897407</DistanceMeters>
          </Trackpoint>
          <Trackpoint>
            <Time>2021-10-09T08:14:04.000Z</Time>
            <Position>
              <LatitudeDegrees>39.61316331289708614349365234375</LatitudeDegrees>
              <LongitudeDegrees>-0.67080480046570301055908203125</LongitudeDegrees>
            </Position>
            <AltitudeMeters>148.600006103515625</AltitudeMeters>
            <DistanceMeters>37455.460965283</DistanceMeters>
          </Trackpoint>
          <Trackpoint>
            <Time>2021-10-09T08:14:05.000Z</Time>
            <Position>
              <LatitudeDegrees>39.61319499649107456207275390625</LatitudeDegrees>
              <LongitudeDegrees>-0.67086481489241123199462890625</LongitudeDegrees>
            </Position>
            <AltitudeMeters>148.600006103515625</AltitudeMeters>
            <DistanceMeters>37461.699525171</DistanceMeters>
          </Trackpoint>
          <Trackpoint>
            <Time>2021-10-09T08:14:06.000Z</Time>
            <Position>
              <LatitudeDegrees>39.61322718299925327301025390625</LatitudeDegrees>
              <LongitudeDegrees>-0.67092700861394405364990234375</LongitudeDegrees>
            </Position>
            <AltitudeMeters>148.600006103515625</AltitudeMeters>
            <DistanceMeters>37468.123499746</DistanceMeters>
          </Trackpoint>
          <Trackpoint>
            <Time>2021-10-09T08:14:07.000Z</Time>
            <Position>
              <LatitudeDegrees>39.61325836367905139923095703125</LatitudeDegrees>
              <LongitudeDegrees>-0.6709896214306354522705078125</LongitudeDegrees>
            </Position>
            <AltitudeMeters>148.600006103515625</AltitudeMeters>
            <DistanceMeters>37474.516474483</DistanceMeters>
          </Trackpoint>
          <Trackpoint>
            <Time>2021-10-09T08:14:08.000Z</Time>
            <Position>
              <LatitudeDegrees>39.61328904144465923309326171875</LatitudeDegrees>
              <LongitudeDegrees>-0.67105307243764400482177734375</LongitudeDegrees>
            </Position>
            <AltitudeMeters>148.8000030517578125</AltitudeMeters>
            <DistanceMeters>37480.940449059</DistanceMeters>
          </Trackpoint>
          <Trackpoint>
            <Time>2021-10-09T08:14:09.000Z</Time>
            <Position>
              <LatitudeDegrees>39.613319970667362213134765625</LatitudeDegrees>
              <LongitudeDegrees>-0.6711190380156040191650390625</LongitudeDegrees>
            </Position>
            <AltitudeMeters>148.8000030517578125</AltitudeMeters>
            <DistanceMeters>37487.561704313</DistanceMeters>
          </Trackpoint>
          <Trackpoint>
            <Time>2021-10-09T08:14:10.000Z</Time>
            <Position>
              <LatitudeDegrees>39.61335374973714351654052734375</LatitudeDegrees>
              <LongitudeDegrees>-0.6711840815842151641845703125</LongitudeDegrees>
            </Position>
            <AltitudeMeters>148.8000030517578125</AltitudeMeters>
            <DistanceMeters>37494.287152469</DistanceMeters>
          </Trackpoint>
          <Trackpoint>
            <Time>2021-10-09T08:14:11.000Z</Time>
            <Position>
              <LatitudeDegrees>39.6133875288069248199462890625</LatitudeDegrees>
              <LongitudeDegrees>-0.67125105299055576324462890625</LongitudeDegrees>
            </Position>
            <AltitudeMeters>149</AltitudeMeters>
            <DistanceMeters>37501.150818313</DistanceMeters>
          </Trackpoint>
          <Trackpoint>
            <Time>2021-10-09T08:14:12.000Z</Time>
            <Position>
              <LatitudeDegrees>39.6134207211434841156005859375</LatitudeDegrees>
              <LongitudeDegrees>-0.67131861113011837005615234375</LongitudeDegrees>
            </Position>
            <AltitudeMeters>149</AltitudeMeters>
            <DistanceMeters>37508.02105918</DistanceMeters>
          </Trackpoint>
          <Trackpoint>
            <Time>2021-10-09T08:14:13.000Z</Time>
            <Position>
              <LatitudeDegrees>39.613455422222614288330078125</LatitudeDegrees>
              <LongitudeDegrees>-0.6713865883648395538330078125</LongitudeDegrees>
            </Position>
            <AltitudeMeters>149</AltitudeMeters>
            <DistanceMeters>37515.012468465</DistanceMeters>
          </Trackpoint>
          <Trackpoint>
            <Time>2021-10-09T08:14:14.000Z</Time>
            <Position>
              <LatitudeDegrees>39.61349003948271274566650390625</LatitudeDegrees>
              <LongitudeDegrees>-0.67145590670406818389892578125</LongitudeDegrees>
            </Position>
            <AltitudeMeters>149</AltitudeMeters>
            <DistanceMeters>37522.095624874</DistanceMeters>
          </Trackpoint>
          <Trackpoint>
            <Time>2021-10-09T08:14:15.000Z</Time>
            <Position>
              <LatitudeDegrees>39.61352557875216007232666015625</LatitudeDegrees>
              <LongitudeDegrees>-0.6715253926813602447509765625</LongitudeDegrees>
            </Position>
            <AltitudeMeters>149.1999969482421875</AltitudeMeters>
            <DistanceMeters>37529.24729272</DistanceMeters>
          </Trackpoint>
          <Trackpoint>
            <Time>2021-10-09T08:14:16.000Z</Time>
            <Position>
              <LatitudeDegrees>39.61356044746935367584228515625</LatitudeDegrees>
              <LongitudeDegrees>-0.6715942919254302978515625</LongitudeDegrees>
            </Position>
            <AltitudeMeters>149.1999969482421875</AltitudeMeters>
            <DistanceMeters>37536.316411692</DistanceMeters>
          </Trackpoint>
          <Trackpoint>
            <Time>2021-10-09T08:14:17.000Z</Time>
            <Position>
              <LatitudeDegrees>39.6135945618152618408203125</LatitudeDegrees>
              <LongitudeDegrees>-0.6716628558933734893798828125</LongitudeDegrees>
            </Position>
            <AltitudeMeters>149.1999969482421875</AltitudeMeters>
            <DistanceMeters>37543.31492115</DistanceMeters>
          </Trackpoint>
          <Trackpoint>
            <Time>2021-10-09T08:14:18.000Z</Time>
            <Position>
              <LatitudeDegrees>39.613629095256328582763671875</LatitudeDegrees>
              <LongitudeDegrees>-0.6717309169471263885498046875</LongitudeDegrees>
            </Position>
            <AltitudeMeters>149.1999969482421875</AltitudeMeters>
            <DistanceMeters>37550.303100699</DistanceMeters>
          </Trackpoint>
          <Trackpoint>
            <Time>2021-10-09T08:14:19.000Z</Time>
            <Position>
              <LatitudeDegrees>39.6136631257832050323486328125</LatitudeDegrees>
              <LongitudeDegrees>-0.67179922945797443389892578125</LongitudeDegrees>
            </Position>
            <AltitudeMeters>149.1999969482421875</AltitudeMeters>
            <DistanceMeters>37557.278346349</DistanceMeters>
          </Trackpoint>
          <Trackpoint>
            <Time>2021-10-09T08:14:20.000Z</Time>
            <Position>
              <LatitudeDegrees>39.613697826862335205078125</LatitudeDegrees>
              <LongitudeDegrees>-0.67186930216848850250244140625</LongitudeDegrees>
            </Position>
            <AltitudeMeters>149.1999969482421875</AltitudeMeters>
            <DistanceMeters>37564.421170154</DistanceMeters>
          </Trackpoint>
          <Trackpoint>
            <Time>2021-10-09T08:14:21.000Z</Time>
            <Position>
              <LatitudeDegrees>39.61373210884630680084228515625</LatitudeDegrees>
              <LongitudeDegrees>-0.67193694412708282470703125</LongitudeDegrees>
            </Position>
            <AltitudeMeters>149.399993896484375</AltitudeMeters>
            <DistanceMeters>37571.363975643</DistanceMeters>
          </Trackpoint>
          <Trackpoint>
            <Time>2021-10-09T08:14:22.000Z</Time>
            <Position>
              <LatitudeDegrees>39.61376429535448551177978515625</LatitudeDegrees>
              <LongitudeDegrees>-0.67200408317148685455322265625</LongitudeDegrees>
            </Position>
            <AltitudeMeters>149.399993896484375</AltitudeMeters>
            <DistanceMeters>37578.144915788</DistanceMeters>
          </Trackpoint>
          <Trackpoint>
            <Time>2021-10-09T08:14:23.000Z</Time>
            <Position>
              <LatitudeDegrees>39.61379664950072765350341796875</LatitudeDegrees>
              <LongitudeDegrees>-0.672072060406208038330078125</LongitudeDegrees>
            </Position>
            <AltitudeMeters>149.399993896484375</AltitudeMeters>
            <DistanceMeters>37584.996730689</DistanceMeters>
          </Trackpoint>
          <Trackpoint>
            <Time>2021-10-09T08:14:24.000Z</Time>
            <Position>
              <LatitudeDegrees>39.6138310991227626800537109375</LatitudeDegrees>
              <LongitudeDegrees>-0.672139786183834075927734375</LongitudeDegrees>
            </Position>
            <AltitudeMeters>149.399993896484375</AltitudeMeters>
            <DistanceMeters>37591.95512633</DistanceMeters>
          </Trackpoint>
          <Trackpoint>
            <Time>2021-10-09T08:14:25.000Z</Time>
            <Position>
              <LatitudeDegrees>39.61386688984930515289306640625</LatitudeDegrees>
              <LongitudeDegrees>-0.67220876924693584442138671875</LongitudeDegrees>
            </Position>
            <AltitudeMeters>149.399993896484375</AltitudeMeters>
            <DistanceMeters>37599.086563109</DistanceMeters>
          </Trackpoint>
          <Trackpoint>
            <Time>2021-10-09T08:14:26.000Z</Time>
            <Position>
              <LatitudeDegrees>39.6139035187661647796630859375</LatitudeDegrees>
              <LongitudeDegrees>-0.67227699793875217437744140625</LongitudeDegrees>
            </Position>
            <AltitudeMeters>149.399993896484375</AltitudeMeters>
            <DistanceMeters>37606.217366742</DistanceMeters>
          </Trackpoint>
          <Trackpoint>
            <Time>2021-10-09T08:14:27.000Z</Time>
            <Position>
              <LatitudeDegrees>39.61393998004496097564697265625</LatitudeDegrees>
              <LongitudeDegrees>-0.67234807647764682769775390625</LongitudeDegrees>
            </Position>
            <AltitudeMeters>149.600006103515625</AltitudeMeters>
            <DistanceMeters>37613.539975152</DistanceMeters>
          </Trackpoint>
          <Trackpoint>
            <Time>2021-10-09T08:14:28.000Z</Time>
            <Position>
              <LatitudeDegrees>39.61397635750472545623779296875</LatitudeDegrees>
              <LongitudeDegrees>-0.672418735921382904052734375</LongitudeDegrees>
            </Position>
            <AltitudeMeters>149.600006103515625</AltitudeMeters>
            <DistanceMeters>37620.826733656</DistanceMeters>
          </Trackpoint>
          <Trackpoint>
            <Time>2021-10-09T08:14:29.000Z</Time>
            <Position>
              <LatitudeDegrees>39.61401239968836307525634765625</LatitudeDegrees>
              <LongitudeDegrees>-0.67248889245092868804931640625</LongitudeDegrees>
            </Position>
            <AltitudeMeters>149.8000030517578125</AltitudeMeters>
            <DistanceMeters>37628.057511111</DistanceMeters>
          </Trackpoint>
          <Trackpoint>
            <Time>2021-10-09T08:14:30.000Z</Time>
            <Position>
              <LatitudeDegrees>39.61404718458652496337890625</LatitudeDegrees>
              <LongitudeDegrees>-0.6725590489804744720458984375</LongitudeDegrees>
            </Position>
            <AltitudeMeters>149.8000030517578125</AltitudeMeters>
            <DistanceMeters>37635.211072686</DistanceMeters>
          </Trackpoint>
          <Trackpoint>
            <Time>2021-10-09T08:14:31.000Z</Time>
            <Position>
              <LatitudeDegrees>39.61408180184662342071533203125</LatitudeDegrees>
              <LongitudeDegrees>-0.67262970842421054840087890625</LongitudeDegrees>
            </Position>
            <AltitudeMeters>149.8000030517578125</AltitudeMeters>
            <DistanceMeters>37642.391094024</DistanceMeters>
          </Trackpoint>
          <Trackpoint>
            <Time>2021-10-09T08:14:32.000Z</Time>
            <Position>
              <LatitudeDegrees>39.6141164191067218780517578125</LatitudeDegrees>
              <LongitudeDegrees>-0.6726988591253757476806640625</LongitudeDegrees>
            </Position>
            <AltitudeMeters>149.8000030517578125</AltitudeMeters>
            <DistanceMeters>37649.462128833</DistanceMeters>
          </Trackpoint>
          <Trackpoint>
            <Time>2021-10-09T08:14:33.000Z</Time>
            <Position>
              <LatitudeDegrees>39.61415220983326435089111328125</LatitudeDegrees>
              <LongitudeDegrees>-0.67276775836944580078125</LongitudeDegrees>
            </Position>
            <AltitudeMeters>150</AltitudeMeters>
            <DistanceMeters>37656.587865276</DistanceMeters>
          </Trackpoint>
          <Trackpoint>
            <Time>2021-10-09T08:14:34.000Z</Time>
            <Position>
              <LatitudeDegrees>39.6141871623694896697998046875</LatitudeDegrees>
              <LongitudeDegrees>-0.672836489975452423095703125</LongitudeDegrees>
            </Position>
            <AltitudeMeters>150</AltitudeMeters>
            <DistanceMeters>37663.649315702</DistanceMeters>
          </Trackpoint>
          <Trackpoint>
            <Time>2021-10-09T08:14:35.000Z</Time>
            <Position>
              <LatitudeDegrees>39.61422127671539783477783203125</LatitudeDegrees>
              <LongitudeDegrees>-0.672906227409839630126953125</LongitudeDegrees>
            </Position>
            <AltitudeMeters>150</AltitudeMeters>
            <DistanceMeters>37670.732472112</DistanceMeters>
          </Trackpoint>
          <Trackpoint>
            <Time>2021-10-09T08:14:36.000Z</Time>
            <Position>
              <LatitudeDegrees>39.614255391061305999755859375</LatitudeDegrees>
              <LongitudeDegrees>-0.67297621630132198333740234375</LongitudeDegrees>
            </Position>
            <AltitudeMeters>150.1999969482421875</AltitudeMeters>
            <DistanceMeters>37677.833454217</DistanceMeters>
          </Trackpoint>
          <Trackpoint>
            <Time>2021-10-09T08:14:37.000Z</Time>
            <Position>
              <LatitudeDegrees>39.61428992450237274169921875</LatitudeDegrees>
              <LongitudeDegrees>-0.67304595373570919036865234375</LongitudeDegrees>
            </Position>
            <AltitudeMeters>150.1999969482421875</AltitudeMeters>
            <DistanceMeters>37684.941427044</DistanceMeters>
          </Trackpoint>
          <Trackpoint>
            <Time>2021-10-09T08:14:38.000Z</Time>
            <Position>
              <LatitudeDegrees>39.614324457943439483642578125</LatitudeDegrees>
              <LongitudeDegrees>-0.6731164455413818359375</LongitudeDegrees>
            </Position>
            <AltitudeMeters>150.1999969482421875</AltitudeMeters>
            <DistanceMeters>37692.104449754</DistanceMeters>
          </Trackpoint>
          <Trackpoint>
            <Time>2021-10-09T08:14:39.000Z</Time>
            <Position>
              <LatitudeDegrees>39.614357315003871917724609375</LatitudeDegrees>
              <LongitudeDegrees>-0.6731880269944667816162109375</LongitudeDegrees>
            </Position>
            <AltitudeMeters>150.399993896484375</AltitudeMeters>
            <DistanceMeters>37699.248537664</DistanceMeters>
          </Trackpoint>
          <Trackpoint>
            <Time>2021-10-09T08:14:40.000Z</Time>
            <Position>
              <LatitudeDegrees>39.61439025588333606719970703125</LatitudeDegrees>
              <LongitudeDegrees>-0.673258937895298004150390625</LongitudeDegrees>
            </Position>
            <AltitudeMeters>150.600006103515625</AltitudeMeters>
            <DistanceMeters>37706.348883908</DistanceMeters>
          </Trackpoint>
          <Trackpoint>
            <Time>2021-10-09T08:14:41.000Z</Time>
            <Position>
              <LatitudeDegrees>39.61442495696246623992919921875</LatitudeDegrees>
              <LongitudeDegrees>-0.67333010025322437286376953125</LongitudeDegrees>
            </Position>
            <AltitudeMeters>150.600006103515625</AltitudeMeters>
            <DistanceMeters>37713.5709142</DistanceMeters>
          </Trackpoint>
          <Trackpoint>
            <Time>2021-10-09T08:14:42.000Z</Time>
            <Position>
              <LatitudeDegrees>39.61446225643157958984375</LatitudeDegrees>
              <LongitudeDegrees>-0.67339782603085041046142578125</LongitudeDegrees>
            </Position>
            <AltitudeMeters>150.600006103515625</AltitudeMeters>
            <DistanceMeters>37720.709311876</DistanceMeters>
          </Trackpoint>
          <Trackpoint>
            <Time>2021-10-09T08:14:43.000Z</Time>
            <Position>
              <LatitudeDegrees>39.61450047791004180908203125</LatitudeDegrees>
              <LongitudeDegrees>-0.673466138541698455810546875</LongitudeDegrees>
            </Position>
            <AltitudeMeters>150.8000030517578125</AltitudeMeters>
            <DistanceMeters>37727.948825926</DistanceMeters>
          </Trackpoint>
          <Trackpoint>
            <Time>2021-10-09T08:14:44.000Z</Time>
            <Position>
              <LatitudeDegrees>39.614537693560123443603515625</LatitudeDegrees>
              <LongitudeDegrees>-0.6735350377857685089111328125</LongitudeDegrees>
            </Position>
            <AltitudeMeters>150.8000030517578125</AltitudeMeters>
            <DistanceMeters>37735.163976007</DistanceMeters>
          </Trackpoint>
          <Trackpoint>
            <Time>2021-10-09T08:14:45.000Z</Time>
            <Position>
              <LatitudeDegrees>39.6145735681056976318359375</LatitudeDegrees>
              <LongitudeDegrees>-0.6736030988395214080810546875</LongitudeDegrees>
            </Position>
            <AltitudeMeters>151</AltitudeMeters>
            <DistanceMeters>37742.234372262</DistanceMeters>
          </Trackpoint>
          <Trackpoint>
            <Time>2021-10-09T08:14:46.000Z</Time>
            <Position>
              <LatitudeDegrees>39.61460868827998638153076171875</LatitudeDegrees>
              <LongitudeDegrees>-0.6736711598932743072509765625</LongitudeDegrees>
            </Position>
            <AltitudeMeters>151</AltitudeMeters>
            <DistanceMeters>37749.257997224</DistanceMeters>
          </Trackpoint>
          <Trackpoint>
            <Time>2021-10-09T08:14:47.000Z</Time>
            <Position>
              <LatitudeDegrees>39.61465043015778064727783203125</LatitudeDegrees>
              <LongitudeDegrees>-0.6737522967159748077392578125</LongitudeDegrees>
            </Position>
            <AltitudeMeters>151</AltitudeMeters>
            <DistanceMeters>37757.623047276</DistanceMeters>
          </Trackpoint>
          <Trackpoint>
            <Time>2021-10-09T08:14:48.000Z</Time>
            <Position>
              <LatitudeDegrees>39.614677838981151580810546875</LatitudeDegrees>
              <LongitudeDegrees>-0.67380778491497039794921875</LongitudeDegrees>
            </Position>
            <AltitudeMeters>151</AltitudeMeters>
            <DistanceMeters>37763.275339772</DistanceMeters>
          </Trackpoint>
          <Trackpoint>
            <Time>2021-10-09T08:14:49.000Z</Time>
            <Position>
              <LatitudeDegrees>39.61471237242221832275390625</LatitudeDegrees>
              <LongitudeDegrees>-0.67387559451162815093994140625</LongitudeDegrees>
            </Position>
            <AltitudeMeters>151.1999969482421875</AltitudeMeters>
            <DistanceMeters>37770.245405142</DistanceMeters>
          </Trackpoint>
          <Trackpoint>
            <Time>2021-10-09T08:14:50.000Z</Time>
            <Position>
              <LatitudeDegrees>39.61474732495844364166259765625</LatitudeDegrees>
              <LongitudeDegrees>-0.67394415847957134246826171875</LongitudeDegrees>
            </Position>
            <AltitudeMeters>151.1999969482421875</AltitudeMeters>
            <DistanceMeters>37777.294696643</DistanceMeters>
          </Trackpoint>
          <Trackpoint>
            <Time>2021-10-09T08:14:51.000Z</Time>
            <Position>
              <LatitudeDegrees>39.61478286422789096832275390625</LatitudeDegrees>
              <LongitudeDegrees>-0.674013309180736541748046875</LongitudeDegrees>
            </Position>
            <AltitudeMeters>151.399993896484375</AltitudeMeters>
            <DistanceMeters>37784.422333704</DistanceMeters>
          </Trackpoint>
          <Trackpoint>
            <Time>2021-10-09T08:14:52.000Z</Time>
            <Position>
              <LatitudeDegrees>39.61481723003089427947998046875</LatitudeDegrees>
              <LongitudeDegrees>-0.67408313043415546417236328125</LongitudeDegrees>
            </Position>
            <AltitudeMeters>151.600006103515625</AltitudeMeters>
            <DistanceMeters>37791.527129783</DistanceMeters>
          </Trackpoint>
          <Trackpoint>
            <Time>2021-10-09T08:14:53.000Z</Time>
            <Position>
              <LatitudeDegrees>39.61485025472939014434814453125</LatitudeDegrees>
              <LongitudeDegrees>-0.674152784049510955810546875</LongitudeDegrees>
            </Position>
            <AltitudeMeters>151.8000030517578125</AltitudeMeters>
            <DistanceMeters>37798.540461829</DistanceMeters>
          </Trackpoint>
          <Trackpoint>
            <Time>2021-10-09T08:14:54.000Z</Time>
            <Position>
              <LatitudeDegrees>39.61488269269466400146484375</LatitudeDegrees>
              <LongitudeDegrees>-0.67422109656035900115966796875</LongitudeDegrees>
            </Position>
            <AltitudeMeters>151.8000030517578125</AltitudeMeters>
            <DistanceMeters>37805.420553451</DistanceMeters>
          </Trackpoint>
          <Trackpoint>
            <Time>2021-10-09T08:14:55.000Z</Time>
            <Position>
              <LatitudeDegrees>39.614915214478969573974609375</LatitudeDegrees>
              <LongitudeDegrees>-0.67428831942379474639892578125</LongitudeDegrees>
            </Position>
            <AltitudeMeters>151.8000030517578125</AltitudeMeters>
            <DistanceMeters>37812.226748582</DistanceMeters>
          </Trackpoint>
          <Trackpoint>
            <Time>2021-10-09T08:14:56.000Z</Time>
            <Position>
              <LatitudeDegrees>39.61494580842554569244384765625</LatitudeDegrees>
              <LongitudeDegrees>-0.6743554584681987762451171875</LongitudeDegrees>
            </Position>
            <AltitudeMeters>152</AltitudeMeters>
            <DistanceMeters>37818.915171318</DistanceMeters>
          </Trackpoint>
          <Trackpoint>
            <Time>2021-10-09T08:14:57.000Z</Time>
            <Position>
              <LatitudeDegrees>39.614978246390819549560546875</LatitudeDegrees>
              <LongitudeDegrees>-0.6744211725890636444091796875</LongitudeDegrees>
            </Position>
            <AltitudeMeters>152</AltitudeMeters>
            <DistanceMeters>37825.607643146</DistanceMeters>
          </Trackpoint>
          <Trackpoint>
            <Time>2021-10-09T08:14:58.000Z</Time>
            <Position>
              <LatitudeDegrees>39.6150129474699497222900390625</LatitudeDegrees>
              <LongitudeDegrees>-0.67448495887219905853271484375</LongitudeDegrees>
            </Position>
            <AltitudeMeters>152</AltitudeMeters>
            <DistanceMeters>37832.304161616</DistanceMeters>
          </Trackpoint>
          <Trackpoint>
            <Time>2021-10-09T08:14:59.000Z</Time>
            <Position>
              <LatitudeDegrees>39.6150478161871433258056640625</LatitudeDegrees>
              <LongitudeDegrees>-0.6745500862598419189453125</LongitudeDegrees>
            </Position>
            <AltitudeMeters>152.1999969482421875</AltitudeMeters>
            <DistanceMeters>37839.105047701</DistanceMeters>
          </Trackpoint>
          <Trackpoint>
            <Time>2021-10-09T08:15:00.000Z</Time>
            <Position>
              <LatitudeDegrees>39.6150813437998294830322265625</LatitudeDegrees>
              <LongitudeDegrees>-0.67461605183780193328857421875</LongitudeDegrees>
            </Position>
            <AltitudeMeters>152.1999969482421875</AltitudeMeters>
            <DistanceMeters>37845.881991614</DistanceMeters>
          </Trackpoint>
          <Trackpoint>
            <Time>2021-10-09T08:15:01.000Z</Time>
            <Position>
              <LatitudeDegrees>39.61511579342186450958251953125</LatitudeDegrees>
              <LongitudeDegrees>-0.6746826879680156707763671875</LongitudeDegrees>
            </Position>
            <AltitudeMeters>152.399993896484375</AltitudeMeters>
            <DistanceMeters>37852.763395604</DistanceMeters>
          </Trackpoint>
          <Trackpoint>
            <Time>2021-10-09T08:15:02.000Z</Time>
            <Position>
              <LatitudeDegrees>39.61515150032937526702880859375</LatitudeDegrees>
              <LongitudeDegrees>-0.67474831826984882354736328125</LongitudeDegrees>
            </Position>
            <AltitudeMeters>152.600006103515625</AltitudeMeters>
            <DistanceMeters>37859.652668554</DistanceMeters>
          </Trackpoint>
          <Trackpoint>
            <Time>2021-10-09T08:15:03.000Z</Time>
            <Position>
              <LatitudeDegrees>39.615186788141727447509765625</LatitudeDegrees>
              <LongitudeDegrees>-0.6748154573142528533935546875</LongitudeDegrees>
            </Position>
            <AltitudeMeters>152.600006103515625</AltitudeMeters>
            <DistanceMeters>37866.621438253</DistanceMeters>
          </Trackpoint>
          <Trackpoint>
            <Time>2021-10-09T08:15:04.000Z</Time>
            <Position>
              <LatitudeDegrees>39.615219645202159881591796875</LatitudeDegrees>
              <LongitudeDegrees>-0.6748853623867034912109375</LongitudeDegrees>
            </Position>
            <AltitudeMeters>153</AltitudeMeters>
            <DistanceMeters>37873.642491401</DistanceMeters>
          </Trackpoint>
          <Trackpoint>
            <Time>2021-10-09T08:15:05.000Z</Time>
            <Position>
              <LatitudeDegrees>39.61525158025324344635009765625</LatitudeDegrees>
              <LongitudeDegrees>-0.6749542616307735443115234375</LongitudeDegrees>
            </Position>
            <AltitudeMeters>153</AltitudeMeters>
            <DistanceMeters>37880.537005336</DistanceMeters>
          </Trackpoint>
          <Trackpoint>
            <Time>2021-10-09T08:15:06.000Z</Time>
            <Position>
              <LatitudeDegrees>39.61528477258980274200439453125</LatitudeDegrees>
              <LongitudeDegrees>-0.6750206463038921356201171875</LongitudeDegrees>
            </Position>
            <AltitudeMeters>153.1999969482421875</AltitudeMeters>
            <DistanceMeters>37887.322604778</DistanceMeters>
          </Trackpoint>
          <Trackpoint>
            <Time>2021-10-09T08:15:07.000Z</Time>
            <Position>
              <LatitudeDegrees>39.6153177134692668914794921875</LatitudeDegrees>
              <LongitudeDegrees>-0.67508661188185214996337890625</LongitudeDegrees>
            </Position>
            <AltitudeMeters>153.399993896484375</AltitudeMeters>
            <DistanceMeters>37894.063475988</DistanceMeters>
          </Trackpoint>
          <Trackpoint>
            <Time>2021-10-09T08:15:08.000Z</Time>
            <Position>
              <LatitudeDegrees>39.61535082198679447174072265625</LatitudeDegrees>
              <LongitudeDegrees>-0.675151906907558441162109375</LongitudeDegrees>
            </Position>
            <AltitudeMeters>153.399993896484375</AltitudeMeters>
            <DistanceMeters>37900.766059841</DistanceMeters>
          </Trackpoint>
          <Trackpoint>
            <Time>2021-10-09T08:15:09.000Z</Time>
            <Position>
              <LatitudeDegrees>39.61538418196141719818115234375</LatitudeDegrees>
              <LongitudeDegrees>-0.67521586082875728607177734375</LongitudeDegrees>
            </Position>
            <AltitudeMeters>153.600006103515625</AltitudeMeters>
            <DistanceMeters>37907.388678756</DistanceMeters>
          </Trackpoint>
          <Trackpoint>
            <Time>2021-10-09T08:15:10.000Z</Time>
            <Position>
              <LatitudeDegrees>39.61541888304054737091064453125</LatitudeDegrees>
              <LongitudeDegrees>-0.6752784736454486846923828125</LongitudeDegrees>
            </Position>
            <AltitudeMeters>153.600006103515625</AltitudeMeters>
            <DistanceMeters>37914.001746139</DistanceMeters>
          </Trackpoint>
          <Trackpoint>
            <Time>2021-10-09T08:15:11.000Z</Time>
            <Position>
              <LatitudeDegrees>39.6154528297483921051025390625</LatitudeDegrees>
              <LongitudeDegrees>-0.67534276284277439117431640625</LongitudeDegrees>
            </Position>
            <AltitudeMeters>153.600006103515625</AltitudeMeters>
            <DistanceMeters>37920.684090639</DistanceMeters>
          </Trackpoint>
          <Trackpoint>
            <Time>2021-10-09T08:15:12.000Z</Time>
            <Position>
              <LatitudeDegrees>39.61548610590398311614990234375</LatitudeDegrees>
              <LongitudeDegrees>-0.6754045374691486358642578125</LongitudeDegrees>
            </Position>
            <AltitudeMeters>153.8000030517578125</AltitudeMeters>
            <DistanceMeters>37927.147304517</DistanceMeters>
          </Trackpoint>
          <Trackpoint>
            <Time>2021-10-09T08:15:13.000Z</Time>
            <Position>
              <LatitudeDegrees>39.6155182085931301116943359375</LatitudeDegrees>
              <LongitudeDegrees>-0.6754672341048717498779296875</LongitudeDegrees>
            </Position>
            <AltitudeMeters>154</AltitudeMeters>
            <DistanceMeters>37933.602130054</DistanceMeters>
          </Trackpoint>
          <Trackpoint>
            <Time>2021-10-09T08:15:14.000Z</Time>
            <Position>
              <LatitudeDegrees>39.6155517362058162689208984375</LatitudeDegrees>
              <LongitudeDegrees>-0.67552967928349971771240234375</LongitudeDegrees>
            </Position>
            <AltitudeMeters>154</AltitudeMeters>
            <DistanceMeters>37940.128604645</DistanceMeters>
          </Trackpoint>
          <Trackpoint>
            <Time>2021-10-09T08:15:15.000Z</Time>
            <Position>
              <LatitudeDegrees>39.6155834197998046875</LatitudeDegrees>
              <LongitudeDegrees>-0.67559421993792057037353515625</LongitudeDegrees>
            </Position>
            <AltitudeMeters>154</AltitudeMeters>
            <DistanceMeters>37946.690954419</DistanceMeters>
          </Trackpoint>
          <Trackpoint>
            <Time>2021-10-09T08:15:16.000Z</Time>
            <Position>
              <LatitudeDegrees>39.61561636067926883697509765625</LatitudeDegrees>
              <LongitudeDegrees>-0.67565892823040485382080078125</LongitudeDegrees>
            </Position>
            <AltitudeMeters>154.1999969482421875</AltitudeMeters>
            <DistanceMeters>37953.341466762</DistanceMeters>
          </Trackpoint>
          <Trackpoint>
            <Time>2021-10-09T08:15:17.000Z</Time>
            <Position>
              <LatitudeDegrees>39.615649469196796417236328125</LatitudeDegrees>
              <LongitudeDegrees>-0.6757207028567790985107421875</LongitudeDegrees>
            </Position>
            <AltitudeMeters>154.1999969482421875</AltitudeMeters>
            <DistanceMeters>37959.793493762</DistanceMeters>
          </Trackpoint>
          <Trackpoint>
            <Time>2021-10-09T08:15:18.000Z</Time>
            <Position>
              <LatitudeDegrees>39.615681655704975128173828125</LatitudeDegrees>
              <LongitudeDegrees>-0.6757817231118679046630859375</LongitudeDegrees>
            </Position>
            <AltitudeMeters>154.399993896484375</AltitudeMeters>
            <DistanceMeters>37966.133990614</DistanceMeters>
          </Trackpoint>
          <Trackpoint>
            <Time>2021-10-09T08:15:19.000Z</Time>
            <Position>
              <LatitudeDegrees>39.6157086454331874847412109375</LatitudeDegrees>
              <LongitudeDegrees>-0.67584366537630558013916015625</LongitudeDegrees>
            </Position>
            <AltitudeMeters>154.399993896484375</AltitudeMeters>
            <DistanceMeters>37972.236452023</DistanceMeters>
          </Trackpoint>
          <Trackpoint>
            <Time>2021-10-09T08:15:20.000Z</Time>
            <Position>
              <LatitudeDegrees>39.61573085747659206390380859375</LatitudeDegrees>
              <LongitudeDegrees>-0.6759067811071872711181640625</LongitudeDegrees>
            </Position>
            <AltitudeMeters>154.8000030517578125</AltitudeMeters>
            <DistanceMeters>37978.186065428</DistanceMeters>
          </Trackpoint>
          <Trackpoint>
            <Time>2021-10-09T08:15:21.000Z</Time>
            <Position>
              <LatitudeDegrees>39.61575114168226718902587890625</LatitudeDegrees>
              <LongitudeDegrees>-0.67597157321870326995849609375</LongitudeDegrees>
            </Position>
            <AltitudeMeters>155</AltitudeMeters>
            <DistanceMeters>37984.182544761</DistanceMeters>
          </Trackpoint>
          <Trackpoint>
            <Time>2021-10-09T08:15:22.000Z</Time>
            <Position>
              <LatitudeDegrees>39.61576907895505428314208984375</LatitudeDegrees>
              <LongitudeDegrees>-0.67603510804474353790283203125</LongitudeDegrees>
            </Position>
            <AltitudeMeters>155.1999969482421875</AltitudeMeters>
            <DistanceMeters>37989.9838459</DistanceMeters>
          </Trackpoint>
          <Trackpoint>
            <Time>2021-10-09T08:15:23.000Z</Time>
            <Position>
              <LatitudeDegrees>39.61578299291431903839111328125</LatitudeDegrees>
              <LongitudeDegrees>-0.6761009059846401214599609375</LongitudeDegrees>
            </Position>
            <AltitudeMeters>155.1999969482421875</AltitudeMeters>
            <DistanceMeters>37995.83320139</DistanceMeters>
          </Trackpoint>
          <Trackpoint>
            <Time>2021-10-09T08:15:24.000Z</Time>
            <Position>
              <LatitudeDegrees>39.61579523049294948577880859375</LatitudeDegrees>
              <LongitudeDegrees>-0.67616854794323444366455078125</LongitudeDegrees>
            </Position>
            <AltitudeMeters>155.399993896484375</AltitudeMeters>
            <DistanceMeters>38001.790398753</DistanceMeters>
          </Trackpoint>
          <Trackpoint>
            <Time>2021-10-09T08:15:25.000Z</Time>
            <Position>
              <LatitudeDegrees>39.61580679751932621002197265625</LatitudeDegrees>
              <LongitudeDegrees>-0.676236860454082489013671875</LongitudeDegrees>
            </Position>
            <AltitudeMeters>155.600006103515625</AltitudeMeters>
            <DistanceMeters>38007.786878087</DistanceMeters>
          </Trackpoint>
          <Trackpoint>
            <Time>2021-10-09T08:15:26.000Z</Time>
            <Position>
              <LatitudeDegrees>39.6158189512789249420166015625</LatitudeDegrees>
              <LongitudeDegrees>-0.67630433477461338043212890625</LongitudeDegrees>
            </Position>
            <AltitudeMeters>155.8000030517578125</AltitudeMeters>
            <DistanceMeters>38013.728897853</DistanceMeters>
          </Trackpoint>
          <Trackpoint>
            <Time>2021-10-09T08:15:27.000Z</Time>
            <Position>
              <LatitudeDegrees>39.61583294905722141265869140625</LatitudeDegrees>
              <LongitudeDegrees>-0.6763708032667636871337890625</LongitudeDegrees>
            </Position>
            <AltitudeMeters>156</AltitudeMeters>
            <DistanceMeters>38019.637389668</DistanceMeters>
          </Trackpoint>
          <Trackpoint>
            <Time>2021-10-09T08:15:28.000Z</Time>
            <Position>
              <LatitudeDegrees>39.61584636010229587554931640625</LatitudeDegrees>
              <LongitudeDegrees>-0.6764361821115016937255859375</LongitudeDegrees>
            </Position>
            <AltitudeMeters>156</AltitudeMeters>
            <DistanceMeters>38025.438690807</DistanceMeters>
          </Trackpoint>
          <Trackpoint>
            <Time>2021-10-09T08:15:29.000Z</Time>
            <Position>
              <LatitudeDegrees>39.6158585138618946075439453125</LatitudeDegrees>
              <LongitudeDegrees>-0.67650248296558856964111328125</LongitudeDegrees>
            </Position>
            <AltitudeMeters>156.1999969482421875</AltitudeMeters>
            <DistanceMeters>38031.281095189</DistanceMeters>
          </Trackpoint>
          <Trackpoint>
            <Time>2021-10-09T08:15:30.000Z</Time>
            <Position>
              <LatitudeDegrees>39.61586966179311275482177734375</LatitudeDegrees>
              <LongitudeDegrees>-0.67656853236258029937744140625</LongitudeDegrees>
            </Position>
            <AltitudeMeters>156.1999969482421875</AltitudeMeters>
            <DistanceMeters>38037.080061017</DistanceMeters>
          </Trackpoint>
          <Trackpoint>
            <Time>2021-10-09T08:15:31.000Z</Time>
            <Position>
              <LatitudeDegrees>39.61587921716272830963134765625</LatitudeDegrees>
              <LongitudeDegrees>-0.6766350008547306060791015625</LongitudeDegrees>
            </Position>
            <AltitudeMeters>156.1999969482421875</AltitudeMeters>
            <DistanceMeters>38042.879026845</DistanceMeters>
          </Trackpoint>
          <Trackpoint>
            <Time>2021-10-09T08:15:32.000Z</Time>
            <Position>
              <LatitudeDegrees>39.61588977836072444915771484375</LatitudeDegrees>
              <LongitudeDegrees>-0.67670054733753204345703125</LongitudeDegrees>
            </Position>
            <AltitudeMeters>156.399993896484375</AltitudeMeters>
            <DistanceMeters>38048.621660316</DistanceMeters>
          </Trackpoint>
          <Trackpoint>
            <Time>2021-10-09T08:15:33.000Z</Time>
            <Position>
              <LatitudeDegrees>39.6159004233777523040771484375</LatitudeDegrees>
              <LongitudeDegrees>-0.6767682731151580810546875</LongitudeDegrees>
            </Position>
            <AltitudeMeters>156.399993896484375</AltitudeMeters>
            <DistanceMeters>38054.547701768</DistanceMeters>
          </Trackpoint>
          <Trackpoint>
            <Time>2021-10-09T08:15:34.000Z</Time>
            <Position>
              <LatitudeDegrees>39.61591106839478015899658203125</LatitudeDegrees>
              <LongitudeDegrees>-0.67683842964470386505126953125</LongitudeDegrees>
            </Position>
            <AltitudeMeters>156.399993896484375</AltitudeMeters>
            <DistanceMeters>38060.678213831</DistanceMeters>
          </Trackpoint>
          <Trackpoint>
            <Time>2021-10-09T08:15:35.000Z</Time>
            <Position>
              <LatitudeDegrees>39.6159215457737445831298828125</LatitudeDegrees>
              <LongitudeDegrees>-0.67691017873585224151611328125</LongitudeDegrees>
            </Position>
            <AltitudeMeters>156.399993896484375</AltitudeMeters>
            <DistanceMeters>38066.939890278</DistanceMeters>
          </Trackpoint>
          <Trackpoint>
            <Time>2021-10-09T08:15:36.000Z</Time>
            <Position>
              <LatitudeDegrees>39.61593277752399444580078125</LatitudeDegrees>
              <LongitudeDegrees>-0.6769810058176517486572265625</LongitudeDegrees>
            </Position>
            <AltitudeMeters>156.600006103515625</AltitudeMeters>
            <DistanceMeters>38073.140701958</DistanceMeters>
          </Trackpoint>
          <Trackpoint>
            <Time>2021-10-09T08:15:37.000Z</Time>
            <Position>
              <LatitudeDegrees>39.61594543419778347015380859375</LatitudeDegrees>
              <LongitudeDegrees>-0.67705116234719753265380859375</LongitudeDegrees>
            </Position>
            <AltitudeMeters>156.600006103515625</AltitudeMeters>
            <DistanceMeters>38079.318169324</DistanceMeters>
          </Trackpoint>
          <Trackpoint>
            <Time>2021-10-09T08:15:38.000Z</Time>
            <Position>
              <LatitudeDegrees>39.6159590966999530792236328125</LatitudeDegrees>
              <LongitudeDegrees>-0.67712165415287017822265625</LongitudeDegrees>
            </Position>
            <AltitudeMeters>156.600006103515625</AltitudeMeters>
            <DistanceMeters>38085.5494877</DistanceMeters>
          </Trackpoint>
          <Trackpoint>
            <Time>2021-10-09T08:15:39.000Z</Time>
            <Position>
              <LatitudeDegrees>39.6159728430211544036865234375</LatitudeDegrees>
              <LongitudeDegrees>-0.677193067967891693115234375</LongitudeDegrees>
            </Position>
            <AltitudeMeters>156.600006103515625</AltitudeMeters>
            <DistanceMeters>38091.860721113</DistanceMeters>
          </Trackpoint>
          <Trackpoint>
            <Time>2021-10-09T08:15:40.000Z</Time>
            <Position>
              <LatitudeDegrees>39.6159845776855945587158203125</LatitudeDegrees>
              <LongitudeDegrees>-0.67726171575486660003662109375</LongitudeDegrees>
            </Position>
            <AltitudeMeters>156.8000030517578125</AltitudeMeters>
            <DistanceMeters>38097.88874132</DistanceMeters>
          </Trackpoint>
          <Trackpoint>
            <Time>2021-10-09T08:15:41.000Z</Time>
            <Position>
              <LatitudeDegrees>39.61599756963551044464111328125</LatitudeDegrees>
              <LongitudeDegrees>-0.67732994444668292999267578125</LongitudeDegrees>
            </Position>
            <AltitudeMeters>156.8000030517578125</AltitudeMeters>
            <DistanceMeters>38103.915263323</DistanceMeters>
          </Trackpoint>
          <Trackpoint>
            <Time>2021-10-09T08:15:42.000Z</Time>
            <Position>
              <LatitudeDegrees>39.61601131595671176910400390625</LatitudeDegrees>
              <LongitudeDegrees>-0.67739951424300670623779296875</LongitudeDegrees>
            </Position>
            <AltitudeMeters>156.8000030517578125</AltitudeMeters>
            <DistanceMeters>38110.073698276</DistanceMeters>
          </Trackpoint>
          <Trackpoint>
            <Time>2021-10-09T08:15:43.000Z</Time>
            <Position>
              <LatitudeDegrees>39.616022966802120208740234375</LatitudeDegrees>
              <LongitudeDegrees>-0.677470676600933074951171875</LongitudeDegrees>
            </Position>
            <AltitudeMeters>157</AltitudeMeters>
            <DistanceMeters>38116.310810534</DistanceMeters>
          </Trackpoint>
          <Trackpoint>
            <Time>2021-10-09T08:15:44.000Z</Time>
            <Position>
              <LatitudeDegrees>39.61603310890495777130126953125</LatitudeDegrees>
              <LongitudeDegrees>-0.67754267714917659759521484375</LongitudeDegrees>
            </Position>
            <AltitudeMeters>157.1999969482421875</AltitudeMeters>
            <DistanceMeters>38122.586172147</DistanceMeters>
          </Trackpoint>
          <Trackpoint>
            <Time>2021-10-09T08:15:45.000Z</Time>
            <Position>
              <LatitudeDegrees>39.61604283191263675689697265625</LatitudeDegrees>
              <LongitudeDegrees>-0.67761308513581752777099609375</LongitudeDegrees>
            </Position>
            <AltitudeMeters>157.399993896484375</AltitudeMeters>
            <DistanceMeters>38128.719629448</DistanceMeters>
          </Trackpoint>
          <Trackpoint>
            <Time>2021-10-09T08:15:46.000Z</Time>
            <Position>
              <LatitudeDegrees>39.61605406366288661956787109375</LatitudeDegrees>
              <LongitudeDegrees>-0.67768164910376071929931640625</LongitudeDegrees>
            </Position>
            <AltitudeMeters>157.600006103515625</AltitudeMeters>
            <DistanceMeters>38134.730397773</DistanceMeters>
          </Trackpoint>
          <Trackpoint>
            <Time>2021-10-09T08:15:47.000Z</Time>
            <Position>
              <LatitudeDegrees>39.61606613360345363616943359375</LatitudeDegrees>
              <LongitudeDegrees>-0.67775222472846508026123046875</LongitudeDegrees>
            </Position>
            <AltitudeMeters>157.8000030517578125</AltitudeMeters>
            <DistanceMeters>38140.929024658</DistanceMeters>
          </Trackpoint>
          <Trackpoint>
            <Time>2021-10-09T08:15:48.000Z</Time>
            <Position>
              <LatitudeDegrees>39.61607895791530609130859375</LatitudeDegrees>
              <LongitudeDegrees>-0.67782212980091571807861328125</LongitudeDegrees>
            </Position>
            <AltitudeMeters>158</AltitudeMeters>
            <DistanceMeters>38147.089658659</DistanceMeters>
          </Trackpoint>
          <Trackpoint>
            <Time>2021-10-09T08:15:49.000Z</Time>
            <Position>
              <LatitudeDegrees>39.6160928718745708465576171875</LatitudeDegrees>
              <LongitudeDegrees>-0.67789069376885890960693359375</LongitudeDegrees>
            </Position>
            <AltitudeMeters>158</AltitudeMeters>
            <DistanceMeters>38153.168398069</DistanceMeters>
          </Trackpoint>
          <Trackpoint>
            <Time>2021-10-09T08:15:50.000Z</Time>
            <Position>
              <LatitudeDegrees>39.61610569618642330169677734375</LatitudeDegrees>
              <LongitudeDegrees>-0.67795892246067523956298828125</LongitudeDegrees>
            </Position>
            <AltitudeMeters>158.1999969482421875</AltitudeMeters>
            <DistanceMeters>38159.189673426</DistanceMeters>
          </Trackpoint>
          <Trackpoint>
            <Time>2021-10-09T08:15:51.000Z</Time>
            <Position>
              <LatitudeDegrees>39.6161186881363391876220703125</LatitudeDegrees>
              <LongitudeDegrees>-0.67802664823830127716064453125</LongitudeDegrees>
            </Position>
            <AltitudeMeters>158.1999969482421875</AltitudeMeters>
            <DistanceMeters>38165.173338949</DistanceMeters>
          </Trackpoint>
          <Trackpoint>
            <Time>2021-10-09T08:15:52.000Z</Time>
            <Position>
              <LatitudeDegrees>39.61613436229526996612548828125</LatitudeDegrees>
              <LongitudeDegrees>-0.6780917756259441375732421875</LongitudeDegrees>
            </Position>
            <AltitudeMeters>158.399993896484375</AltitudeMeters>
            <DistanceMeters>38171.022694439</DistanceMeters>
          </Trackpoint>
          <Trackpoint>
            <Time>2021-10-09T08:15:53.000Z</Time>
            <Position>
              <LatitudeDegrees>39.61615514941513538360595703125</LatitudeDegrees>
              <LongitudeDegrees>-0.67815338261425495147705078125</LongitudeDegrees>
            </Position>
            <AltitudeMeters>158.399993896484375</AltitudeMeters>
            <DistanceMeters>38176.788866607</DistanceMeters>
          </Trackpoint>
          <Trackpoint>
            <Time>2021-10-09T08:15:54.000Z</Time>
            <Position>
              <LatitudeDegrees>39.6161800436675548553466796875</LatitudeDegrees>
              <LongitudeDegrees>-0.6782114692032337188720703125</LongitudeDegrees>
            </Position>
            <AltitudeMeters>158.399993896484375</AltitudeMeters>
            <DistanceMeters>38182.48888547</DistanceMeters>
          </Trackpoint>
          <Trackpoint>
            <Time>2021-10-09T08:15:55.000Z</Time>
            <Position>
              <LatitudeDegrees>39.61620845831930637359619140625</LatitudeDegrees>
              <LongitudeDegrees>-0.6782671250402927398681640625</LongitudeDegrees>
            </Position>
            <AltitudeMeters>158.600006103515625</AltitudeMeters>
            <DistanceMeters>38188.213407059</DistanceMeters>
          </Trackpoint>
          <Trackpoint>
            <Time>2021-10-09T08:15:56.000Z</Time>
            <Position>
              <LatitudeDegrees>39.6162373758852481842041015625</LatitudeDegrees>
              <LongitudeDegrees>-0.67832035012543201446533203125</LongitudeDegrees>
            </Position>
            <AltitudeMeters>158.600006103515625</AltitudeMeters>
            <DistanceMeters>38193.797388968</DistanceMeters>
          </Trackpoint>
          <Trackpoint>
            <Time>2021-10-09T08:15:57.000Z</Time>
            <Position>
              <LatitudeDegrees>39.6162702329456806182861328125</LatitudeDegrees>
              <LongitudeDegrees>-0.6783717311918735504150390625</LongitudeDegrees>
            </Position>
            <AltitudeMeters>158.600006103515625</AltitudeMeters>
            <DistanceMeters>38199.522699221</DistanceMeters>
          </Trackpoint>
          <Trackpoint>
            <Time>2021-10-09T08:15:58.000Z</Time>
            <Position>
              <LatitudeDegrees>39.6163035929203033447265625</LatitudeDegrees>
              <LongitudeDegrees>-0.67842244170606136322021484375</LongitudeDegrees>
            </Position>
            <AltitudeMeters>158.8000030517578125</AltitudeMeters>
            <DistanceMeters>38205.240117933</DistanceMeters>
          </Trackpoint>
          <Trackpoint>
            <Time>2021-10-09T08:15:59.000Z</Time>
            <Position>
              <LatitudeDegrees>39.61633686907589435577392578125</LatitudeDegrees>
              <LongitudeDegrees>-0.6784743256866931915283203125</LongitudeDegrees>
            </Position>
            <AltitudeMeters>158.8000030517578125</AltitudeMeters>
            <DistanceMeters>38211.028173185</DistanceMeters>
          </Trackpoint>
          <Trackpoint>
            <Time>2021-10-09T08:16:00.000Z</Time>
            <Position>
              <LatitudeDegrees>39.61636989377439022064208984375</LatitudeDegrees>
              <LongitudeDegrees>-0.6785259582102298736572265625</LongitudeDegrees>
            </Position>
            <AltitudeMeters>159.1999969482421875</AltitudeMeters>
            <DistanceMeters>38216.78258804</DistanceMeters>
          </Trackpoint>
          <Trackpoint>
            <Time>2021-10-09T08:16:01.000Z</Time>
            <Position>
              <LatitudeDegrees>39.61640258319675922393798828125</LatitudeDegrees>
              <LongitudeDegrees>-0.67857700400054454803466796875</LongitudeDegrees>
            </Position>
            <AltitudeMeters>159.1999969482421875</AltitudeMeters>
            <DistanceMeters>38222.474680298</DistanceMeters>
          </Trackpoint>
          <Trackpoint>
            <Time>2021-10-09T08:16:02.000Z</Time>
            <Position>
              <LatitudeDegrees>39.6164355240762233734130859375</LatitudeDegrees>
              <LongitudeDegrees>-0.67862930707633495330810546875</LongitudeDegrees>
            </Position>
            <AltitudeMeters>159.399993896484375</AltitudeMeters>
            <DistanceMeters>38228.265854956</DistanceMeters>
          </Trackpoint>
          <Trackpoint>
            <Time>2021-10-09T08:16:03.000Z</Time>
            <Position>
              <LatitudeDegrees>39.6164683811366558074951171875</LatitudeDegrees>
              <LongitudeDegrees>-0.67868295125663280487060546875</LongitudeDegrees>
            </Position>
            <AltitudeMeters>159.399993896484375</AltitudeMeters>
            <DistanceMeters>38234.142164369</DistanceMeters>
          </Trackpoint>
          <Trackpoint>
            <Time>2021-10-09T08:16:04.000Z</Time>
            <Position>
              <LatitudeDegrees>39.61650065146386623382568359375</LatitudeDegrees>
              <LongitudeDegrees>-0.6787361763417720794677734375</LongitudeDegrees>
            </Position>
            <AltitudeMeters>159.600006103515625</AltitudeMeters>
            <DistanceMeters>38239.949688413</DistanceMeters>
          </Trackpoint>
          <Trackpoint>
            <Time>2021-10-09T08:16:05.000Z</Time>
            <Position>
              <LatitudeDegrees>39.6165334247052669525146484375</LatitudeDegrees>
              <LongitudeDegrees>-0.67878730595111846923828125</LongitudeDegrees>
            </Position>
            <AltitudeMeters>159.8000030517578125</AltitudeMeters>
            <DistanceMeters>38245.652874834</DistanceMeters>
          </Trackpoint>
          <Trackpoint>
            <Time>2021-10-09T08:16:06.000Z</Time>
            <Position>
              <LatitudeDegrees>39.61656401865184307098388671875</LatitudeDegrees>
              <LongitudeDegrees>-0.67883784882724285125732421875</LongitudeDegrees>
            </Position>
            <AltitudeMeters>159.8000030517578125</AltitudeMeters>
            <DistanceMeters>38251.164424267</DistanceMeters>
          </Trackpoint>
          <Trackpoint>
            <Time>2021-10-09T08:16:07.000Z</Time>
            <Position>
              <LatitudeDegrees>39.61659486405551433563232421875</LatitudeDegrees>
              <LongitudeDegrees>-0.67888730205595493316650390625</LongitudeDegrees>
            </Position>
            <AltitudeMeters>160</AltitudeMeters>
            <DistanceMeters>38256.619983997</DistanceMeters>
          </Trackpoint>
          <Trackpoint>
            <Time>2021-10-09T08:16:08.000Z</Time>
            <Position>
              <LatitudeDegrees>39.6166252903640270233154296875</LatitudeDegrees>
              <LongitudeDegrees>-0.67893574945628643035888671875</LongitudeDegrees>
            </Position>
            <AltitudeMeters>160</AltitudeMeters>
            <DistanceMeters>38261.980366748</DistanceMeters>
          </Trackpoint>
          <Trackpoint>
            <Time>2021-10-09T08:16:09.000Z</Time>
            <Position>
              <LatitudeDegrees>39.6166544593870639801025390625</LatitudeDegrees>
              <LongitudeDegrees>-0.6789837777614593505859375</LongitudeDegrees>
            </Position>
            <AltitudeMeters>160.1999969482421875</AltitudeMeters>
            <DistanceMeters>38267.224946126</DistanceMeters>
          </Trackpoint>
          <Trackpoint>
            <Time>2021-10-09T08:16:10.000Z</Time>
            <Position>
              <LatitudeDegrees>39.6166802756488323211669921875</LatitudeDegrees>
              <LongitudeDegrees>-0.6790352426469326019287109375</LongitudeDegrees>
            </Position>
            <AltitudeMeters>160.399993896484375</AltitudeMeters>
            <DistanceMeters>38272.490146472</DistanceMeters>
          </Trackpoint>
          <Trackpoint>
            <Time>2021-10-09T08:16:11.000Z</Time>
            <Position>
              <LatitudeDegrees>39.6167067624628543853759765625</LatitudeDegrees>
              <LongitudeDegrees>-0.67908771336078643798828125</LongitudeDegrees>
            </Position>
            <AltitudeMeters>160.600006103515625</AltitudeMeters>
            <DistanceMeters>38277.868188388</DistanceMeters>
          </Trackpoint>
          <Trackpoint>
            <Time>2021-10-09T08:16:12.000Z</Time>
            <Position>
              <LatitudeDegrees>39.61672981269657611846923828125</LatitudeDegrees>
              <LongitudeDegrees>-0.679141022264957427978515625</LongitudeDegrees>
            </Position>
            <AltitudeMeters>160.8000030517578125</AltitudeMeters>
            <DistanceMeters>38283.10932305</DistanceMeters>
          </Trackpoint>
          <Trackpoint>
            <Time>2021-10-09T08:16:13.000Z</Time>
            <Position>
              <LatitudeDegrees>39.61674707941710948944091796875</LatitudeDegrees>
              <LongitudeDegrees>-0.6792005337774753570556640625</LongitudeDegrees>
            </Position>
            <AltitudeMeters>161</AltitudeMeters>
            <DistanceMeters>38288.561571361</DistanceMeters>
          </Trackpoint>
          <Trackpoint>
            <Time>2021-10-09T08:16:14.000Z</Time>
            <Position>
              <LatitudeDegrees>39.61675680242478847503662109375</LatitudeDegrees>
              <LongitudeDegrees>-0.67926297895610332489013671875</LongitudeDegrees>
            </Position>
            <AltitudeMeters>161.1999969482421875</AltitudeMeters>
            <DistanceMeters>38294.023747903</DistanceMeters>
          </Trackpoint>
          <Trackpoint>
            <Time>2021-10-09T08:16:15.000Z</Time>
            <Position>
              <LatitudeDegrees>39.6167607419192790985107421875</LatitudeDegrees>
              <LongitudeDegrees>-0.6793269328773021697998046875</LongitudeDegrees>
            </Position>
            <AltitudeMeters>161.399993896484375</AltitudeMeters>
            <DistanceMeters>38299.525458204</DistanceMeters>
          </Trackpoint>
          <Trackpoint>
            <Time>2021-10-09T08:16:16.000Z</Time>
            <Position>
              <LatitudeDegrees>39.616760909557342529296875</LatitudeDegrees>
              <LongitudeDegrees>-0.67939088679850101470947265625</LongitudeDegrees>
            </Position>
            <AltitudeMeters>161.600006103515625</AltitudeMeters>
            <DistanceMeters>38305.009084245</DistanceMeters>
          </Trackpoint>
          <Trackpoint>
            <Time>2021-10-09T08:16:17.000Z</Time>
            <Position>
              <LatitudeDegrees>39.61675831116735935211181640625</LatitudeDegrees>
              <LongitudeDegrees>-0.67945643328130245208740234375</LongitudeDegrees>
            </Position>
            <AltitudeMeters>161.600006103515625</AltitudeMeters>
            <DistanceMeters>38310.637361794</DistanceMeters>
          </Trackpoint>
          <Trackpoint>
            <Time>2021-10-09T08:16:18.000Z</Time>
            <Position>
              <LatitudeDegrees>39.61675277911126613616943359375</LatitudeDegrees>
              <LongitudeDegrees>-0.6795217283070087432861328125</LongitudeDegrees>
            </Position>
            <AltitudeMeters>161.8000030517578125</AltitudeMeters>
            <DistanceMeters>38316.269648945</DistanceMeters>
          </Trackpoint>
          <Trackpoint>
            <Time>2021-10-09T08:16:19.000Z</Time>
            <Position>
              <LatitudeDegrees>39.61674657650291919708251953125</LatitudeDegrees>
              <LongitudeDegrees>-0.6795874424278736114501953125</LongitudeDegrees>
            </Position>
            <AltitudeMeters>161.8000030517578125</AltitudeMeters>
            <DistanceMeters>38321.945854786</DistanceMeters>
          </Trackpoint>
          <Trackpoint>
            <Time>2021-10-09T08:16:20.000Z</Time>
            <Position>
              <LatitudeDegrees>39.6167409606277942657470703125</LatitudeDegrees>
              <LongitudeDegrees>-0.67965097725391387939453125</LongitudeDegrees>
            </Position>
            <AltitudeMeters>162</AltitudeMeters>
            <DistanceMeters>38327.428657398</DistanceMeters>
          </Trackpoint>
          <Trackpoint>
            <Time>2021-10-09T08:16:21.000Z</Time>
            <Position>
              <LatitudeDegrees>39.6167354285717010498046875</LatitudeDegrees>
              <LongitudeDegrees>-0.6797133386135101318359375</LongitudeDegrees>
            </Position>
            <AltitudeMeters>162.1999969482421875</AltitudeMeters>
            <DistanceMeters>38332.810895337</DistanceMeters>
          </Trackpoint>
          <Trackpoint>
            <Time>2021-10-09T08:16:22.000Z</Time>
            <Position>
              <LatitudeDegrees>39.61672914214432239532470703125</LatitudeDegrees>
              <LongitudeDegrees>-0.67977662198245525360107421875</LongitudeDegrees>
            </Position>
            <AltitudeMeters>162.399993896484375</AltitudeMeters>
            <DistanceMeters>38338.281331639</DistanceMeters>
          </Trackpoint>
          <Trackpoint>
            <Time>2021-10-09T08:16:23.000Z</Time>
            <Position>
              <LatitudeDegrees>39.61671958677470684051513671875</LatitudeDegrees>
              <LongitudeDegrees>-0.67985490895807743072509765625</LongitudeDegrees>
            </Position>
            <AltitudeMeters>163</AltitudeMeters>
            <DistanceMeters>38345.076904531</DistanceMeters>
          </Trackpoint>
          <Trackpoint>
            <Time>2021-10-09T08:16:24.000Z</Time>
            <Position>
              <LatitudeDegrees>39.6167124621570110321044921875</LatitudeDegrees>
              <LongitudeDegrees>-0.67990779876708984375</LongitudeDegrees>
            </Position>
            <AltitudeMeters>163</AltitudeMeters>
            <DistanceMeters>38349.67957325</DistanceMeters>
          </Trackpoint>
          <Trackpoint>
            <Time>2021-10-09T08:16:25.000Z</Time>
            <Position>
              <LatitudeDegrees>39.61670550517737865447998046875</LatitudeDegrees>
              <LongitudeDegrees>-0.67997275851666927337646484375</LongitudeDegrees>
            </Position>
            <AltitudeMeters>163.1999969482421875</AltitudeMeters>
            <DistanceMeters>38355.302232553</DistanceMeters>
          </Trackpoint>
          <Trackpoint>
            <Time>2021-10-09T08:16:26.000Z</Time>
            <Position>
              <LatitudeDegrees>39.616697542369365692138671875</LatitudeDegrees>
              <LongitudeDegrees>-0.68003629334270954132080078125</LongitudeDegrees>
            </Position>
            <AltitudeMeters>163.399993896484375</AltitudeMeters>
            <DistanceMeters>38360.820331661</DistanceMeters>
          </Trackpoint>
          <Trackpoint>
            <Time>2021-10-09T08:16:27.000Z</Time>
            <Position>
              <LatitudeDegrees>39.61668974719941616058349609375</LatitudeDegrees>
              <LongitudeDegrees>-0.68010116927325725555419921875</LongitudeDegrees>
            </Position>
            <AltitudeMeters>163.399993896484375</AltitudeMeters>
            <DistanceMeters>38366.450213393</DistanceMeters>
          </Trackpoint>
          <Trackpoint>
            <Time>2021-10-09T08:16:28.000Z</Time>
            <Position>
              <LatitudeDegrees>39.61668245494365692138671875</LatitudeDegrees>
              <LongitudeDegrees>-0.68016705103218555450439453125</LongitudeDegrees>
            </Position>
            <AltitudeMeters>163.600006103515625</AltitudeMeters>
            <DistanceMeters>38372.157356788</DistanceMeters>
          </Trackpoint>
          <Trackpoint>
            <Time>2021-10-09T08:16:29.000Z</Time>
            <Position>
              <LatitudeDegrees>39.61667348630726337432861328125</LatitudeDegrees>
              <LongitudeDegrees>-0.68023427389562129974365234375</LongitudeDegrees>
            </Position>
            <AltitudeMeters>163.600006103515625</AltitudeMeters>
            <DistanceMeters>38378.007484114</DistanceMeters>
          </Trackpoint>
          <Trackpoint>
            <Time>2021-10-09T08:16:30.000Z</Time>
            <Position>
              <LatitudeDegrees>39.61666678078472614288330078125</LatitudeDegrees>
              <LongitudeDegrees>-0.68030015565454959869384765625</LongitudeDegrees>
            </Position>
            <AltitudeMeters>163.8000030517578125</AltitudeMeters>
            <DistanceMeters>38383.704333659</DistanceMeters>
          </Trackpoint>
          <Trackpoint>
            <Time>2021-10-09T08:16:31.000Z</Time>
            <Position>
              <LatitudeDegrees>39.6166625060141086578369140625</LatitudeDegrees>
              <LongitudeDegrees>-0.6803677976131439208984375</LongitudeDegrees>
            </Position>
            <AltitudeMeters>164</AltitudeMeters>
            <DistanceMeters>38389.522731771</DistanceMeters>
          </Trackpoint>
          <Trackpoint>
            <Time>2021-10-09T08:16:32.000Z</Time>
            <Position>
              <LatitudeDegrees>39.61665906943380832672119140625</LatitudeDegrees>
              <LongitudeDegrees>-0.6804375350475311279296875</LongitudeDegrees>
            </Position>
            <AltitudeMeters>164.1999969482421875</AltitudeMeters>
            <DistanceMeters>38395.51318449</DistanceMeters>
          </Trackpoint>
          <Trackpoint>
            <Time>2021-10-09T08:16:33.000Z</Time>
            <Position>
              <LatitudeDegrees>39.6166571415960788726806640625</LatitudeDegrees>
              <LongitudeDegrees>-0.68050785921514034271240234375</LongitudeDegrees>
            </Position>
            <AltitudeMeters>164.1999969482421875</AltitudeMeters>
            <DistanceMeters>38401.545697074</DistanceMeters>
          </Trackpoint>
          <Trackpoint>
            <Time>2021-10-09T08:16:34.000Z</Time>
            <Position>
              <LatitudeDegrees>39.61665563285350799560546875</LatitudeDegrees>
              <LongitudeDegrees>-0.6805785186588764190673828125</LongitudeDegrees>
            </Position>
            <AltitudeMeters>164.399993896484375</AltitudeMeters>
            <DistanceMeters>38407.605093976</DistanceMeters>
          </Trackpoint>
          <Trackpoint>
            <Time>2021-10-09T08:16:35.000Z</Time>
            <Position>
              <LatitudeDegrees>39.61665588431060314178466796875</LatitudeDegrees>
              <LongitudeDegrees>-0.68065118975937366485595703125</LongitudeDegrees>
            </Position>
            <AltitudeMeters>164.399993896484375</AltitudeMeters>
            <DistanceMeters>38413.836412353</DistanceMeters>
          </Trackpoint>
          <Trackpoint>
            <Time>2021-10-09T08:16:36.000Z</Time>
            <Position>
              <LatitudeDegrees>39.6166576445102691650390625</LatitudeDegrees>
              <LongitudeDegrees>-0.6807260401546955108642578125</LongitudeDegrees>
            </Position>
            <AltitudeMeters>164.600006103515625</AltitudeMeters>
            <DistanceMeters>38420.257574946</DistanceMeters>
          </Trackpoint>
          <Trackpoint>
            <Time>2021-10-09T08:16:37.000Z</Time>
            <Position>
              <LatitudeDegrees>39.61666233837604522705078125</LatitudeDegrees>
              <LongitudeDegrees>-0.68080156110227108001708984375</LongitudeDegrees>
            </Position>
            <AltitudeMeters>164.600006103515625</AltitudeMeters>
            <DistanceMeters>38426.754233879</DistanceMeters>
          </Trackpoint>
          <Trackpoint>
            <Time>2021-10-09T08:16:38.000Z</Time>
            <Position>
              <LatitudeDegrees>39.6166688762605190277099609375</LatitudeDegrees>
              <LongitudeDegrees>-0.680875740945339202880859375</LongitudeDegrees>
            </Position>
            <AltitudeMeters>164.600006103515625</AltitudeMeters>
            <DistanceMeters>38433.155678006</DistanceMeters>
          </Trackpoint>
          <Trackpoint>
            <Time>2021-10-09T08:16:39.000Z</Time>
            <Position>
              <LatitudeDegrees>39.61667465977370738983154296875</LatitudeDegrees>
              <LongitudeDegrees>-0.6809500046074390411376953125</LongitudeDegrees>
            </Position>
            <AltitudeMeters>164.600006103515625</AltitudeMeters>
            <DistanceMeters>38439.555711345</DistanceMeters>
          </Trackpoint>
          <Trackpoint>
            <Time>2021-10-09T08:16:40.000Z</Time>
            <Position>
              <LatitudeDegrees>39.61667977273464202880859375</LatitudeDegrees>
              <LongitudeDegrees>-0.68102535791695117950439453125</LongitudeDegrees>
            </Position>
            <AltitudeMeters>164.600006103515625</AltitudeMeters>
            <DistanceMeters>38446.042633283</DistanceMeters>
          </Trackpoint>
          <Trackpoint>
            <Time>2021-10-09T08:16:41.000Z</Time>
            <Position>
              <LatitudeDegrees>39.61668287403881549835205078125</LatitudeDegrees>
              <LongitudeDegrees>-0.68110347725450992584228515625</LongitudeDegrees>
            </Position>
            <AltitudeMeters>164.600006103515625</AltitudeMeters>
            <DistanceMeters>38452.749257678</DistanceMeters>
          </Trackpoint>
          <Trackpoint>
            <Time>2021-10-09T08:16:42.000Z</Time>
            <Position>
              <LatitudeDegrees>39.6166898310184478759765625</LatitudeDegrees>
              <LongitudeDegrees>-0.681179501116275787353515625</LongitudeDegrees>
            </Position>
            <AltitudeMeters>164.600006103515625</AltitudeMeters>
            <DistanceMeters>38459.313671192</DistanceMeters>
          </Trackpoint>
          <Trackpoint>
            <Time>2021-10-09T08:16:43.000Z</Time>
            <Position>
              <LatitudeDegrees>39.6166970394551753997802734375</LatitudeDegrees>
              <LongitudeDegrees>-0.681253932416439056396484375</LongitudeDegrees>
            </Position>
            <AltitudeMeters>164.600006103515625</AltitudeMeters>
            <DistanceMeters>38465.746074341</DistanceMeters>
          </Trackpoint>
          <Trackpoint>
            <Time>2021-10-09T08:16:44.000Z</Time>
            <Position>
              <LatitudeDegrees>39.61670265533030033111572265625</LatitudeDegrees>
              <LongitudeDegrees>-0.681329034268856048583984375</LongitudeDegrees>
            </Position>
            <AltitudeMeters>164.600006103515625</AltitudeMeters>
            <DistanceMeters>38472.214874403</DistanceMeters>
          </Trackpoint>
          <Trackpoint>
            <Time>2021-10-09T08:16:45.000Z</Time>
            <Position>
              <LatitudeDegrees>39.6167077682912349700927734375</LatitudeDegrees>
              <LongitudeDegrees>-0.68140380084514617919921875</LongitudeDegrees>
            </Position>
            <AltitudeMeters>164.600006103515625</AltitudeMeters>
            <DistanceMeters>38478.650084622</DistanceMeters>
          </Trackpoint>
          <Trackpoint>
            <Time>2021-10-09T08:16:46.000Z</Time>
            <Position>
              <LatitudeDegrees>39.616714976727962493896484375</LatitudeDegrees>
              <LongitudeDegrees>-0.6814790703356266021728515625</LongitudeDegrees>
            </Position>
            <AltitudeMeters>164.600006103515625</AltitudeMeters>
            <DistanceMeters>38485.153689628</DistanceMeters>
          </Trackpoint>
          <Trackpoint>
            <Time>2021-10-09T08:16:47.000Z</Time>
            <Position>
              <LatitudeDegrees>39.616723023355007171630859375</LatitudeDegrees>
              <LongitudeDegrees>-0.68155777640640735626220703125</LongitudeDegrees>
            </Position>
            <AltitudeMeters>164.600006103515625</AltitudeMeters>
            <DistanceMeters>38491.961211373</DistanceMeters>
          </Trackpoint>
          <Trackpoint>
            <Time>2021-10-09T08:16:48.000Z</Time>
            <Position>
              <LatitudeDegrees>39.61672880686819553375244140625</LatitudeDegrees>
              <LongitudeDegrees>-0.68163723684847354888916015625</LongitudeDegrees>
            </Position>
            <AltitudeMeters>164.600006103515625</AltitudeMeters>
            <DistanceMeters>38498.804454496</DistanceMeters>
          </Trackpoint>
          <Trackpoint>
            <Time>2021-10-09T08:16:49.000Z</Time>
            <Position>
              <LatitudeDegrees>39.61673635058104991912841796875</LatitudeDegrees>
              <LongitudeDegrees>-0.6817142665386199951171875</LongitudeDegrees>
            </Position>
            <AltitudeMeters>164.600006103515625</AltitudeMeters>
            <DistanceMeters>38505.461752385</DistanceMeters>
          </Trackpoint>
          <Trackpoint>
            <Time>2021-10-09T08:16:50.000Z</Time>
            <Position>
              <LatitudeDegrees>39.616743139922618865966796875</LatitudeDegrees>
              <LongitudeDegrees>-0.6817932240664958953857421875</LongitudeDegrees>
            </Position>
            <AltitudeMeters>164.399993896484375</AltitudeMeters>
            <DistanceMeters>38512.273252423</DistanceMeters>
          </Trackpoint>
          <Trackpoint>
            <Time>2021-10-09T08:16:51.000Z</Time>
            <Position>
              <LatitudeDegrees>39.6167520247399806976318359375</LatitudeDegrees>
              <LongitudeDegrees>-0.68187109194695949554443359375</LongitudeDegrees>
            </Position>
            <AltitudeMeters>164.399993896484375</AltitudeMeters>
            <DistanceMeters>38519.022156451</DistanceMeters>
          </Trackpoint>
          <Trackpoint>
            <Time>2021-10-09T08:16:52.000Z</Time>
            <Position>
              <LatitudeDegrees>39.61675998754799365997314453125</LatitudeDegrees>
              <LongitudeDegrees>-0.6819521449506282806396484375</LongitudeDegrees>
            </Position>
            <AltitudeMeters>164.399993896484375</AltitudeMeters>
            <DistanceMeters>38526.027758886</DistanceMeters>
          </Trackpoint>
          <Trackpoint>
            <Time>2021-10-09T08:16:53.000Z</Time>
            <Position>
              <LatitudeDegrees>39.61676652543246746063232421875</LatitudeDegrees>
              <LongitudeDegrees>-0.68203370086848735809326171875</LongitudeDegrees>
            </Position>
            <AltitudeMeters>164.399993896484375</AltitudeMeters>
            <DistanceMeters>38533.057809268</DistanceMeters>
          </Trackpoint>
          <Trackpoint>
            <Time>2021-10-09T08:16:54.000Z</Time>
            <Position>
              <LatitudeDegrees>39.6167741529643535614013671875</LatitudeDegrees>
              <LongitudeDegrees>-0.6821160949766635894775390625</LongitudeDegrees>
            </Position>
            <AltitudeMeters>164.399993896484375</AltitudeMeters>
            <DistanceMeters>38540.172765947</DistanceMeters>
          </Trackpoint>
          <Trackpoint>
            <Time>2021-10-09T08:16:55.000Z</Time>
            <Position>
              <LatitudeDegrees>39.61678178049623966217041015625</LatitudeDegrees>
              <LongitudeDegrees>-0.6821968965232372283935546875</LongitudeDegrees>
            </Position>
            <AltitudeMeters>164.600006103515625</AltitudeMeters>
            <DistanceMeters>38547.151894284</DistanceMeters>
          </Trackpoint>
          <Trackpoint>
            <Time>2021-10-09T08:16:56.000Z</Time>
            <Position>
              <LatitudeDegrees>39.61679116822779178619384765625</LatitudeDegrees>
              <LongitudeDegrees>-0.68227820098400115966796875</LongitudeDegrees>
            </Position>
            <AltitudeMeters>164.600006103515625</AltitudeMeters>
            <DistanceMeters>38554.200545261</DistanceMeters>
          </Trackpoint>
          <Trackpoint>
            <Time>2021-10-09T08:16:57.000Z</Time>
            <Position>
              <LatitudeDegrees>39.61680139414966106414794921875</LatitudeDegrees>
              <LongitudeDegrees>-0.682357661426067352294921875</LongitudeDegrees>
            </Position>
            <AltitudeMeters>164.600006103515625</AltitudeMeters>
            <DistanceMeters>38561.106836869</DistanceMeters>
          </Trackpoint>
          <Trackpoint>
            <Time>2021-10-09T08:16:58.000Z</Time>
            <Position>
              <LatitudeDegrees>39.61681363172829151153564453125</LatitudeDegrees>
              <LongitudeDegrees>-0.68243536166846752166748046875</LongitudeDegrees>
            </Position>
            <AltitudeMeters>164.8000030517578125</AltitudeMeters>
            <DistanceMeters>38567.906395045</DistanceMeters>
          </Trackpoint>
          <Trackpoint>
            <Time>2021-10-09T08:16:59.000Z</Time>
            <Position>
              <LatitudeDegrees>39.61682838387787342071533203125</LatitudeDegrees>
              <LongitudeDegrees>-0.68251130171120166778564453125</LongitudeDegrees>
            </Position>
            <AltitudeMeters>164.8000030517578125</AltitudeMeters>
            <DistanceMeters>38574.620420783</DistanceMeters>
          </Trackpoint>
          <Trackpoint>
            <Time>2021-10-09T08:17:00.000Z</Time>
            <Position>
              <LatitudeDegrees>39.616847075521945953369140625</LatitudeDegrees>
              <LongitudeDegrees>-0.6825851462781429290771484375</LongitudeDegrees>
            </Position>
            <AltitudeMeters>164.8000030517578125</AltitudeMeters>
            <DistanceMeters>38581.28449731</DistanceMeters>
          </Trackpoint>
          <Trackpoint>
            <Time>2021-10-09T08:17:01.000Z</Time>
            <Position>
              <LatitudeDegrees>39.61686945520341396331787109375</LatitudeDegrees>
              <LongitudeDegrees>-0.68265664391219615936279296875</LongitudeDegrees>
            </Position>
            <AltitudeMeters>164.8000030517578125</AltitudeMeters>
            <DistanceMeters>38587.901659895</DistanceMeters>
          </Trackpoint>
          <Trackpoint>
            <Time>2021-10-09T08:17:02.000Z</Time>
            <Position>
              <LatitudeDegrees>39.616895020008087158203125</LatitudeDegrees>
              <LongitudeDegrees>-0.682727135717868804931640625</LongitudeDegrees>
            </Position>
            <AltitudeMeters>165</AltitudeMeters>
            <DistanceMeters>38594.581977087</DistanceMeters>
          </Trackpoint>
          <Trackpoint>
            <Time>2021-10-09T08:17:03.000Z</Time>
            <Position>
              <LatitudeDegrees>39.6169196628034114837646484375</LatitudeDegrees>
              <LongitudeDegrees>-0.6827963702380657196044921875</LongitudeDegrees>
            </Position>
            <AltitudeMeters>165</AltitudeMeters>
            <DistanceMeters>38601.120892284</DistanceMeters>
          </Trackpoint>
          <Trackpoint>
            <Time>2021-10-09T08:17:04.000Z</Time>
            <Position>
              <LatitudeDegrees>39.6169427968561649322509765625</LatitudeDegrees>
              <LongitudeDegrees>-0.682866610586643218994140625</LongitudeDegrees>
            </Position>
            <AltitudeMeters>165</AltitudeMeters>
            <DistanceMeters>38607.670156603</DistanceMeters>
          </Trackpoint>
          <Trackpoint>
            <Time>2021-10-09T08:17:05.000Z</Time>
            <Position>
              <LatitudeDegrees>39.6169655956327915191650390625</LatitudeDegrees>
              <LongitudeDegrees>-0.68293743766844272613525390625</LongitudeDegrees>
            </Position>
            <AltitudeMeters>165.1999969482421875</AltitudeMeters>
            <DistanceMeters>38614.251742787</DistanceMeters>
          </Trackpoint>
          <Trackpoint>
            <Time>2021-10-09T08:17:06.000Z</Time>
            <Position>
              <LatitudeDegrees>39.61698881350457668304443359375</LatitudeDegrees>
              <LongitudeDegrees>-0.6830070912837982177734375</LongitudeDegrees>
            </Position>
            <AltitudeMeters>165.1999969482421875</AltitudeMeters>
            <DistanceMeters>38620.759511876</DistanceMeters>
          </Trackpoint>
          <Trackpoint>
            <Time>2021-10-09T08:17:07.000Z</Time>
            <Position>
              <LatitudeDegrees>39.61701261810958385467529296875</LatitudeDegrees>
              <LongitudeDegrees>-0.68307615816593170166015625</LongitudeDegrees>
            </Position>
            <AltitudeMeters>165.399993896484375</AltitudeMeters>
            <DistanceMeters>38627.246433814</DistanceMeters>
          </Trackpoint>
          <Trackpoint>
            <Time>2021-10-09T08:17:08.000Z</Time>
            <Position>
              <LatitudeDegrees>39.617036171257495880126953125</LatitudeDegrees>
              <LongitudeDegrees>-0.683146230876445770263671875</LongitudeDegrees>
            </Position>
            <AltitudeMeters>165.399993896484375</AltitudeMeters>
            <DistanceMeters>38633.801210982</DistanceMeters>
          </Trackpoint>
          <Trackpoint>
            <Time>2021-10-09T08:17:09.000Z</Time>
            <Position>
              <LatitudeDegrees>39.61705972440540790557861328125</LatitudeDegrees>
              <LongitudeDegrees>-0.68321554921567440032958984375</LongitudeDegrees>
            </Position>
            <AltitudeMeters>165.600006103515625</AltitudeMeters>
            <DistanceMeters>38640.29647981</DistanceMeters>
          </Trackpoint>
          <Trackpoint>
            <Time>2021-10-09T08:17:10.000Z</Time>
            <Position>
              <LatitudeDegrees>39.61708419956266880035400390625</LatitudeDegrees>
              <LongitudeDegrees>-0.68328461609780788421630859375</LongitudeDegrees>
            </Position>
            <AltitudeMeters>165.8000030517578125</AltitudeMeters>
            <DistanceMeters>38646.81395475</DistanceMeters>
          </Trackpoint>
          <Trackpoint>
            <Time>2021-10-09T08:17:11.000Z</Time>
            <Position>
              <LatitudeDegrees>39.6171094290912151336669921875</LatitudeDegrees>
              <LongitudeDegrees>-0.6833542697131633758544921875</LongitudeDegrees>
            </Position>
            <AltitudeMeters>165.8000030517578125</AltitudeMeters>
            <DistanceMeters>38653.412668914</DistanceMeters>
          </Trackpoint>
          <Trackpoint>
            <Time>2021-10-09T08:17:12.000Z</Time>
            <Position>
              <LatitudeDegrees>39.61713398806750774383544921875</LatitudeDegrees>
              <LongitudeDegrees>-0.68342576734721660614013671875</LongitudeDegrees>
            </Position>
            <AltitudeMeters>166</AltitudeMeters>
            <DistanceMeters>38660.124004198</DistanceMeters>
          </Trackpoint>
          <Trackpoint>
            <Time>2021-10-09T08:17:13.000Z</Time>
            <Position>
              <LatitudeDegrees>39.61715854704380035400390625</LatitudeDegrees>
              <LongitudeDegrees>-0.68349768407642841339111328125</LongitudeDegrees>
            </Position>
            <AltitudeMeters>166</AltitudeMeters>
            <DistanceMeters>38666.868893013</DistanceMeters>
          </Trackpoint>
          <Trackpoint>
            <Time>2021-10-09T08:17:14.000Z</Time>
            <Position>
              <LatitudeDegrees>39.61718478240072727203369140625</LatitudeDegrees>
              <LongitudeDegrees>-0.68356909789144992828369140625</LongitudeDegrees>
            </Position>
            <AltitudeMeters>166</AltitudeMeters>
            <DistanceMeters>38673.651830392</DistanceMeters>
          </Trackpoint>
          <Trackpoint>
            <Time>2021-10-09T08:17:15.000Z</Time>
            <Position>
              <LatitudeDegrees>39.6172100119292736053466796875</LatitudeDegrees>
              <LongitudeDegrees>-0.68364344537258148193359375</LongitudeDegrees>
            </Position>
            <AltitudeMeters>166</AltitudeMeters>
            <DistanceMeters>38680.618008024</DistanceMeters>
          </Trackpoint>
          <Trackpoint>
            <Time>2021-10-09T08:17:16.000Z</Time>
            <Position>
              <LatitudeDegrees>39.6172351576387882232666015625</LatitudeDegrees>
              <LongitudeDegrees>-0.68371779285371303558349609375</LongitudeDegrees>
            </Position>
            <AltitudeMeters>166</AltitudeMeters>
            <DistanceMeters>38687.580295748</DistanceMeters>
          </Trackpoint>
          <Trackpoint>
            <Time>2021-10-09T08:17:17.000Z</Time>
            <Position>
              <LatitudeDegrees>39.61726315319538116455078125</LatitudeDegrees>
              <LongitudeDegrees>-0.68379322998225688934326171875</LongitudeDegrees>
            </Position>
            <AltitudeMeters>166.1999969482421875</AltitudeMeters>
            <DistanceMeters>38694.759688225</DistanceMeters>
          </Trackpoint>
          <Trackpoint>
            <Time>2021-10-09T08:17:18.000Z</Time>
            <Position>
              <LatitudeDegrees>39.61728955619037151336669921875</LatitudeDegrees>
              <LongitudeDegrees>-0.68386984057724475860595703125</LongitudeDegrees>
            </Position>
            <AltitudeMeters>166.1999969482421875</AltitudeMeters>
            <DistanceMeters>38701.955413229</DistanceMeters>
          </Trackpoint>
          <Trackpoint>
            <Time>2021-10-09T08:17:19.000Z</Time>
            <Position>
              <LatitudeDegrees>39.61731621064245700836181640625</LatitudeDegrees>
              <LongitudeDegrees>-0.68394678644835948944091796875</LongitudeDegrees>
            </Position>
            <AltitudeMeters>166.1999969482421875</AltitudeMeters>
            <DistanceMeters>38709.188687931</DistanceMeters>
          </Trackpoint>
          <Trackpoint>
            <Time>2021-10-09T08:17:20.000Z</Time>
            <Position>
              <LatitudeDegrees>39.6173427812755107879638671875</LatitudeDegrees>
              <LongitudeDegrees>-0.6840248219668865203857421875</LongitudeDegrees>
            </Position>
            <AltitudeMeters>166.1999969482421875</AltitudeMeters>
            <DistanceMeters>38716.503893534</DistanceMeters>
          </Trackpoint>
          <Trackpoint>
            <Time>2021-10-09T08:17:21.000Z</Time>
            <Position>
              <LatitudeDegrees>39.617368765175342559814453125</LatitudeDegrees>
              <LongitudeDegrees>-0.684101767838001251220703125</LongitudeDegrees>
            </Position>
            <AltitudeMeters>166.1999969482421875</AltitudeMeters>
            <DistanceMeters>38723.707144137</DistanceMeters>
          </Trackpoint>
          <Trackpoint>
            <Time>2021-10-09T08:17:22.000Z</Time>
            <Position>
              <LatitudeDegrees>39.61739248596131801605224609375</LatitudeDegrees>
              <LongitudeDegrees>-0.68418114446103572845458984375</LongitudeDegrees>
            </Position>
            <AltitudeMeters>166.1999969482421875</AltitudeMeters>
            <DistanceMeters>38731.006284567</DistanceMeters>
          </Trackpoint>
          <Trackpoint>
            <Time>2021-10-09T08:17:23.000Z</Time>
            <Position>
              <LatitudeDegrees>39.61741494946181774139404296875</LatitudeDegrees>
              <LongitudeDegrees>-0.684259347617626190185546875</LongitudeDegrees>
            </Position>
            <AltitudeMeters>166.1999969482421875</AltitudeMeters>
            <DistanceMeters>38738.16173937</DistanceMeters>
          </Trackpoint>
          <Trackpoint>
            <Time>2021-10-09T08:17:24.000Z</Time>
            <Position>
              <LatitudeDegrees>39.6174339763820171356201171875</LatitudeDegrees>
              <LongitudeDegrees>-0.6843376345932483673095703125</LongitudeDegrees>
            </Position>
            <AltitudeMeters>166.1999969482421875</AltitudeMeters>
            <DistanceMeters>38745.199492512</DistanceMeters>
          </Trackpoint>
          <Trackpoint>
            <Time>2021-10-09T08:17:25.000Z</Time>
            <Position>
              <LatitudeDegrees>39.61744763888418674468994140625</LatitudeDegrees>
              <LongitudeDegrees>-0.6844174303114414215087890625</LongitudeDegrees>
            </Position>
            <AltitudeMeters>166.1999969482421875</AltitudeMeters>
            <DistanceMeters>38752.208316654</DistanceMeters>
          </Trackpoint>
          <Trackpoint>
            <Time>2021-10-09T08:17:26.000Z</Time>
            <Position>
              <LatitudeDegrees>39.6174574457108974456787109375</LatitudeDegrees>
              <LongitudeDegrees>-0.68449948914349079132080078125</LongitudeDegrees>
            </Position>
            <AltitudeMeters>166.1999969482421875</AltitudeMeters>
            <DistanceMeters>38759.328348196</DistanceMeters>
          </Trackpoint>
          <Trackpoint>
            <Time>2021-10-09T08:17:27.000Z</Time>
            <Position>
              <LatitudeDegrees>39.617463648319244384765625</LatitudeDegrees>
              <LongitudeDegrees>-0.68458246998488903045654296875</LongitudeDegrees>
            </Position>
            <AltitudeMeters>166.1999969482421875</AltitudeMeters>
            <DistanceMeters>38766.476227079</DistanceMeters>
          </Trackpoint>
          <Trackpoint>
            <Time>2021-10-09T08:17:28.000Z</Time>
            <Position>
              <LatitudeDegrees>39.617468677461147308349609375</LatitudeDegrees>
              <LongitudeDegrees>-0.68466662429273128509521484375</LongitudeDegrees>
            </Position>
            <AltitudeMeters>166.1999969482421875</AltitudeMeters>
            <DistanceMeters>38773.713246035</DistanceMeters>
          </Trackpoint>
          <Trackpoint>
            <Time>2021-10-09T08:17:29.000Z</Time>
            <Position>
              <LatitudeDegrees>39.61747462861239910125732421875</LatitudeDegrees>
              <LongitudeDegrees>-0.6847527064383029937744140625</LongitudeDegrees>
            </Position>
            <AltitudeMeters>166.1999969482421875</AltitudeMeters>
            <DistanceMeters>38781.124111365</DistanceMeters>
          </Trackpoint>
          <Trackpoint>
            <Time>2021-10-09T08:17:30.000Z</Time>
            <Position>
              <LatitudeDegrees>39.61748133413493633270263671875</LatitudeDegrees>
              <LongitudeDegrees>-0.68483769893646240234375</LongitudeDegrees>
            </Position>
            <AltitudeMeters>166.1999969482421875</AltitudeMeters>
            <DistanceMeters>38788.449185714</DistanceMeters>
          </Trackpoint>
          <Trackpoint>
            <Time>2021-10-09T08:17:31.000Z</Time>
            <Position>
              <LatitudeDegrees>39.61748787201941013336181640625</LatitudeDegrees>
              <LongitudeDegrees>-0.68492311052978038787841796875</LongitudeDegrees>
            </Position>
            <AltitudeMeters>166.1999969482421875</AltitudeMeters>
            <DistanceMeters>38795.808082944</DistanceMeters>
          </Trackpoint>
          <Trackpoint>
            <Time>2021-10-09T08:17:32.000Z</Time>
            <Position>
              <LatitudeDegrees>39.6174944937229156494140625</LatitudeDegrees>
              <LongitudeDegrees>-0.68500944413244724273681640625</LongitudeDegrees>
            </Position>
            <AltitudeMeters>166.1999969482421875</AltitudeMeters>
            <DistanceMeters>38803.246920787</DistanceMeters>
          </Trackpoint>
          <Trackpoint>
            <Time>2021-10-09T08:17:33.000Z</Time>
            <Position>
              <LatitudeDegrees>39.6175006963312625885009765625</LatitudeDegrees>
              <LongitudeDegrees>-0.6850977055728435516357421875</LongitudeDegrees>
            </Position>
            <AltitudeMeters>166.1999969482421875</AltitudeMeters>
            <DistanceMeters>38810.845493599</DistanceMeters>
          </Trackpoint>
          <Trackpoint>
            <Time>2021-10-09T08:17:34.000Z</Time>
            <Position>
              <LatitudeDegrees>39.61750832386314868927001953125</LatitudeDegrees>
              <LongitudeDegrees>-0.685182698071002960205078125</LongitudeDegrees>
            </Position>
            <AltitudeMeters>166.1999969482421875</AltitudeMeters>
            <DistanceMeters>38818.181654421</DistanceMeters>
          </Trackpoint>
          <Trackpoint>
            <Time>2021-10-09T08:17:35.000Z</Time>
            <Position>
              <LatitudeDegrees>39.617516286671161651611328125</LatitudeDegrees>
              <LongitudeDegrees>-0.68526894785463809967041015625</LongitudeDegrees>
            </Position>
            <AltitudeMeters>166.1999969482421875</AltitudeMeters>
            <DistanceMeters>38825.629591021</DistanceMeters>
          </Trackpoint>
          <Trackpoint>
            <Time>2021-10-09T08:17:36.000Z</Time>
            <Position>
              <LatitudeDegrees>39.61752391420304775238037109375</LatitudeDegrees>
              <LongitudeDegrees>-0.6853588856756687164306640625</LongitudeDegrees>
            </Position>
            <AltitudeMeters>166.1999969482421875</AltitudeMeters>
            <DistanceMeters>38833.387519836</DistanceMeters>
          </Trackpoint>
          <Trackpoint>
            <Time>2021-10-09T08:17:37.000Z</Time>
            <Position>
              <LatitudeDegrees>39.6175312064588069915771484375</LatitudeDegrees>
              <LongitudeDegrees>-0.6854484044015407562255859375</LongitudeDegrees>
            </Position>
            <AltitudeMeters>166.399993896484375</AltitudeMeters>
            <DistanceMeters>38841.105771859</DistanceMeters>
          </Trackpoint>
          <Trackpoint>
            <Time>2021-10-09T08:17:38.000Z</Time>
            <Position>
              <LatitudeDegrees>39.6175375767052173614501953125</LatitudeDegrees>
              <LongitudeDegrees>-0.68553834222257137298583984375</LongitudeDegrees>
            </Position>
            <AltitudeMeters>166.399993896484375</AltitudeMeters>
            <DistanceMeters>38848.850303333</DistanceMeters>
          </Trackpoint>
          <Trackpoint>
            <Time>2021-10-09T08:17:39.000Z</Time>
            <Position>
              <LatitudeDegrees>39.61754419840872287750244140625</LatitudeDegrees>
              <LongitudeDegrees>-0.685628950595855712890625</LongitudeDegrees>
            </Position>
            <AltitudeMeters>166.399993896484375</AltitudeMeters>
            <DistanceMeters>38856.653495337</DistanceMeters>
          </Trackpoint>
          <Trackpoint>
            <Time>2021-10-09T08:17:40.000Z</Time>
            <Position>
              <LatitudeDegrees>39.61755207739770412445068359375</LatitudeDegrees>
              <LongitudeDegrees>-0.68572006188333034515380859375</LongitudeDegrees>
            </Position>
            <AltitudeMeters>166.399993896484375</AltitudeMeters>
            <DistanceMeters>38864.513761429</DistanceMeters>
          </Trackpoint>
          <Trackpoint>
            <Time>2021-10-09T08:17:41.000Z</Time>
            <Position>
              <LatitudeDegrees>39.61755895055830478668212890625</LatitudeDegrees>
              <LongitudeDegrees>-0.685811340808868408203125</LongitudeDegrees>
            </Position>
            <AltitudeMeters>166.399993896484375</AltitudeMeters>
            <DistanceMeters>38872.37689906</DistanceMeters>
          </Trackpoint>
          <Trackpoint>
            <Time>2021-10-09T08:17:42.000Z</Time>
            <Position>
              <LatitudeDegrees>39.6175660751760005950927734375</LatitudeDegrees>
              <LongitudeDegrees>-0.685902871191501617431640625</LongitudeDegrees>
            </Position>
            <AltitudeMeters>166.399993896484375</AltitudeMeters>
            <DistanceMeters>38880.264116353</DistanceMeters>
          </Trackpoint>
          <Trackpoint>
            <Time>2021-10-09T08:17:43.000Z</Time>
            <Position>
              <LatitudeDegrees>39.617572613060474395751953125</LatitudeDegrees>
              <LongitudeDegrees>-0.685992725193500518798828125</LongitudeDegrees>
            </Position>
            <AltitudeMeters>166.399993896484375</AltitudeMeters>
            <DistanceMeters>38888.0016487</DistanceMeters>
          </Trackpoint>
          <Trackpoint>
            <Time>2021-10-09T08:17:44.000Z</Time>
            <Position>
              <LatitudeDegrees>39.61757822893559932708740234375</LatitudeDegrees>
              <LongitudeDegrees>-0.68608283065259456634521484375</LongitudeDegrees>
            </Position>
            <AltitudeMeters>166.399993896484375</AltitudeMeters>
            <DistanceMeters>38895.75200795</DistanceMeters>
          </Trackpoint>
          <Trackpoint>
            <Time>2021-10-09T08:17:45.000Z</Time>
            <Position>
              <LatitudeDegrees>39.6175841800868511199951171875</LatitudeDegrees>
              <LongitudeDegrees>-0.6861732713878154754638671875</LongitudeDegrees>
            </Position>
            <AltitudeMeters>166.399993896484375</AltitudeMeters>
            <DistanceMeters>38903.533761778</DistanceMeters>
          </Trackpoint>
          <Trackpoint>
            <Time>2021-10-09T08:17:46.000Z</Time>
            <Position>
              <LatitudeDegrees>39.617590717971324920654296875</LatitudeDegrees>
              <LongitudeDegrees>-0.6862634606659412384033203125</LongitudeDegrees>
            </Position>
            <AltitudeMeters>166.399993896484375</AltitudeMeters>
            <DistanceMeters>38911.300415539</DistanceMeters>
          </Trackpoint>
          <Trackpoint>
            <Time>2021-10-09T08:17:47.000Z</Time>
            <Position>
              <LatitudeDegrees>39.61759516038000583648681640625</LatitudeDegrees>
              <LongitudeDegrees>-0.68635457195341587066650390625</LongitudeDegrees>
            </Position>
            <AltitudeMeters>166.399993896484375</AltitudeMeters>
            <DistanceMeters>38919.127871618</DistanceMeters>
          </Trackpoint>
          <Trackpoint>
            <Time>2021-10-09T08:17:48.000Z</Time>
            <Position>
              <LatitudeDegrees>39.61760153062641620635986328125</LatitudeDegrees>
              <LongitudeDegrees>-0.68644626997411251068115234375</LongitudeDegrees>
            </Position>
            <AltitudeMeters>166.600006103515625</AltitudeMeters>
            <DistanceMeters>38927.021955323</DistanceMeters>
          </Trackpoint>
          <Trackpoint>
            <Time>2021-10-09T08:17:49.000Z</Time>
            <Position>
              <LatitudeDegrees>39.61761008016765117645263671875</LatitudeDegrees>
              <LongitudeDegrees>-0.68653947673738002777099609375</LongitudeDegrees>
            </Position>
            <AltitudeMeters>166.600006103515625</AltitudeMeters>
            <DistanceMeters>38935.069545537</DistanceMeters>
          </Trackpoint>
          <Trackpoint>
            <Time>2021-10-09T08:17:50.000Z</Time>
            <Position>
              <LatitudeDegrees>39.61761946789920330047607421875</LatitudeDegrees>
              <LongitudeDegrees>-0.686633102595806121826171875</LongitudeDegrees>
            </Position>
            <AltitudeMeters>166.600006103515625</AltitudeMeters>
            <DistanceMeters>38943.164126112</DistanceMeters>
          </Trackpoint>
          <Trackpoint>
            <Time>2021-10-09T08:17:51.000Z</Time>
            <Position>
              <LatitudeDegrees>39.6176286041736602783203125</LatitudeDegrees>
              <LongitudeDegrees>-0.68672639317810535430908203125</LongitudeDegrees>
            </Position>
            <AltitudeMeters>166.600006103515625</AltitudeMeters>
            <DistanceMeters>38951.226850237</DistanceMeters>
          </Trackpoint>
          <Trackpoint>
            <Time>2021-10-09T08:17:52.000Z</Time>
            <Position>
              <LatitudeDegrees>39.617636986076831817626953125</LatitudeDegrees>
              <LongitudeDegrees>-0.686817169189453125</LongitudeDegrees>
            </Position>
            <AltitudeMeters>166.600006103515625</AltitudeMeters>
            <DistanceMeters>38959.065258247</DistanceMeters>
          </Trackpoint>
          <Trackpoint>
            <Time>2021-10-09T08:17:53.000Z</Time>
            <Position>
              <LatitudeDegrees>39.6176452003419399261474609375</LatitudeDegrees>
              <LongitudeDegrees>-0.686907358467578887939453125</LongitudeDegrees>
            </Position>
            <AltitudeMeters>166.8000030517578125</AltitudeMeters>
            <DistanceMeters>38966.851652357</DistanceMeters>
          </Trackpoint>
          <Trackpoint>
            <Time>2021-10-09T08:17:54.000Z</Time>
            <Position>
              <LatitudeDegrees>39.61765601299703121185302734375</LatitudeDegrees>
              <LongitudeDegrees>-0.68699511699378490447998046875</LongitudeDegrees>
            </Position>
            <AltitudeMeters>166.8000030517578125</AltitudeMeters>
            <DistanceMeters>38974.471586185</DistanceMeters>
          </Trackpoint>
          <Trackpoint>
            <Time>2021-10-09T08:17:55.000Z</Time>
            <Position>
              <LatitudeDegrees>39.6176706813275814056396484375</LatitudeDegrees>
              <LongitudeDegrees>-0.6870801933109760284423828125</LongitudeDegrees>
            </Position>
            <AltitudeMeters>166.8000030517578125</AltitudeMeters>
            <DistanceMeters>38981.946148577</DistanceMeters>
          </Trackpoint>
          <Trackpoint>
            <Time>2021-10-09T08:17:56.000Z</Time>
            <Position>
              <LatitudeDegrees>39.61768803186714649200439453125</LatitudeDegrees>
              <LongitudeDegrees>-0.68716359324753284454345703125</LongitudeDegrees>
            </Position>
            <AltitudeMeters>166.8000030517578125</AltitudeMeters>
            <DistanceMeters>38989.352747958</DistanceMeters>
          </Trackpoint>
          <Trackpoint>
            <Time>2021-10-09T08:17:57.000Z</Time>
            <Position>
              <LatitudeDegrees>39.6177063882350921630859375</LatitudeDegrees>
              <LongitudeDegrees>-0.6872448138892650604248046875</LongitudeDegrees>
            </Position>
            <AltitudeMeters>166.8000030517578125</AltitudeMeters>
            <DistanceMeters>38996.609703644</DistanceMeters>
          </Trackpoint>
          <Trackpoint>
            <Time>2021-10-09T08:17:58.000Z</Time>
            <Position>
              <LatitudeDegrees>39.617725498974323272705078125</LatitudeDegrees>
              <LongitudeDegrees>-0.68732402287423610687255859375</LongitudeDegrees>
            </Position>
            <AltitudeMeters>166.8000030517578125</AltitudeMeters>
            <DistanceMeters>39003.725929378</DistanceMeters>
          </Trackpoint>
          <Trackpoint>
            <Time>2021-10-09T08:17:59.000Z</Time>
            <Position>
              <LatitudeDegrees>39.61774863302707672119140625</LatitudeDegrees>
              <LongitudeDegrees>-0.68740122020244598388671875</LongitudeDegrees>
            </Position>
            <AltitudeMeters>167</AltitudeMeters>
            <DistanceMeters>39010.828183036</DistanceMeters>
          </Trackpoint>
          <Trackpoint>
            <Time>2021-10-09T08:18:00.000Z</Time>
            <Position>
              <LatitudeDegrees>39.6177734434604644775390625</LatitudeDegrees>
              <LongitudeDegrees>-0.6874774955213069915771484375</LongitudeDegrees>
            </Position>
            <AltitudeMeters>167</AltitudeMeters>
            <DistanceMeters>39017.927893361</DistanceMeters>
          </Trackpoint>
          <Trackpoint>
            <Time>2021-10-09T08:18:01.000Z</Time>
            <Position>
              <LatitudeDegrees>39.6177987568080425262451171875</LatitudeDegrees>
              <LongitudeDegrees>-0.6875534355640411376953125</LongitudeDegrees>
            </Position>
            <AltitudeMeters>167.1999969482421875</AltitudeMeters>
            <DistanceMeters>39025.022514288</DistanceMeters>
          </Trackpoint>
          <Trackpoint>
            <Time>2021-10-09T08:18:02.000Z</Time>
            <Position>
              <LatitudeDegrees>39.61782230995595455169677734375</LatitudeDegrees>
              <LongitudeDegrees>-0.6876287050545215606689453125</LongitudeDegrees>
            </Position>
            <AltitudeMeters>167.1999969482421875</AltitudeMeters>
            <DistanceMeters>39031.988043754</DistanceMeters>
          </Trackpoint>
          <Trackpoint>
            <Time>2021-10-09T08:18:03.000Z</Time>
            <Position>
              <LatitudeDegrees>39.617845527827739715576171875</LatitudeDegrees>
              <LongitudeDegrees>-0.6877024658024311065673828125</LongitudeDegrees>
            </Position>
            <AltitudeMeters>167.1999969482421875</AltitudeMeters>
            <DistanceMeters>39038.819400505</DistanceMeters>
          </Trackpoint>
          <Trackpoint>
            <Time>2021-10-09T08:18:04.000Z</Time>
            <Position>
              <LatitudeDegrees>39.617868997156620025634765625</LatitudeDegrees>
              <LongitudeDegrees>-0.68777496926486492156982421875</LongitudeDegrees>
            </Position>
            <AltitudeMeters>167.399993896484375</AltitudeMeters>
            <DistanceMeters>39045.562280816</DistanceMeters>
          </Trackpoint>
          <Trackpoint>
            <Time>2021-10-09T08:18:05.000Z</Time>
            <Position>
              <LatitudeDegrees>39.617892801761627197265625</LatitudeDegrees>
              <LongitudeDegrees>-0.6878462992608547210693359375</LongitudeDegrees>
            </Position>
            <AltitudeMeters>167.600006103515625</AltitudeMeters>
            <DistanceMeters>39052.227712243</DistanceMeters>
          </Trackpoint>
          <Trackpoint>
            <Time>2021-10-09T08:18:06.000Z</Time>
            <Position>
              <LatitudeDegrees>39.61791635490953922271728515625</LatitudeDegrees>
              <LongitudeDegrees>-0.68791897036135196685791015625</LongitudeDegrees>
            </Position>
            <AltitudeMeters>167.8000030517578125</AltitudeMeters>
            <DistanceMeters>39058.987311847</DistanceMeters>
          </Trackpoint>
          <Trackpoint>
            <Time>2021-10-09T08:18:07.000Z</Time>
            <Position>
              <LatitudeDegrees>39.61793881841003894805908203125</LatitudeDegrees>
              <LongitudeDegrees>-0.6879941560328006744384765625</LongitudeDegrees>
            </Position>
            <AltitudeMeters>168</AltitudeMeters>
            <DistanceMeters>39065.901444092</DistanceMeters>
          </Trackpoint>
          <Trackpoint>
            <Time>2021-10-09T08:18:08.000Z</Time>
            <Position>
              <LatitudeDegrees>39.61796027608215808868408203125</LatitudeDegrees>
              <LongitudeDegrees>-0.68807286210358142852783203125</LongitudeDegrees>
            </Position>
            <AltitudeMeters>168.1999969482421875</AltitudeMeters>
            <DistanceMeters>39073.060053162</DistanceMeters>
          </Trackpoint>
          <Trackpoint>
            <Time>2021-10-09T08:18:09.000Z</Time>
            <Position>
              <LatitudeDegrees>39.6179844997823238372802734375</LatitudeDegrees>
              <LongitudeDegrees>-0.68815198726952075958251953125</LongitudeDegrees>
            </Position>
            <AltitudeMeters>168.1999969482421875</AltitudeMeters>
            <DistanceMeters>39080.36043063</DistanceMeters>
          </Trackpoint>
          <Trackpoint>
            <Time>2021-10-09T08:18:10.000Z</Time>
            <Position>
              <LatitudeDegrees>39.6180094778537750244140625</LatitudeDegrees>
              <LongitudeDegrees>-0.68823010660707950592041015625</LongitudeDegrees>
            </Position>
            <AltitudeMeters>168.600006103515625</AltitudeMeters>
            <DistanceMeters>39087.612407271</DistanceMeters>
          </Trackpoint>
          <Trackpoint>
            <Time>2021-10-09T08:18:11.000Z</Time>
            <Position>
              <LatitudeDegrees>39.6180347912013530731201171875</LatitudeDegrees>
              <LongitudeDegrees>-0.6883069686591625213623046875</LongitudeDegrees>
            </Position>
            <AltitudeMeters>168.8000030517578125</AltitudeMeters>
            <DistanceMeters>39094.779840905</DistanceMeters>
          </Trackpoint>
          <Trackpoint>
            <Time>2021-10-09T08:18:12.000Z</Time>
            <Position>
              <LatitudeDegrees>39.6180585958063602447509765625</LatitudeDegrees>
              <LongitudeDegrees>-0.68838290870189666748046875</LongitudeDegrees>
            </Position>
            <AltitudeMeters>169</AltitudeMeters>
            <DistanceMeters>39101.809249009</DistanceMeters>
          </Trackpoint>
          <Trackpoint>
            <Time>2021-10-09T08:18:13.000Z</Time>
            <Position>
              <LatitudeDegrees>39.618082903325557708740234375</LatitudeDegrees>
              <LongitudeDegrees>-0.6884568370878696441650390625</LongitudeDegrees>
            </Position>
            <AltitudeMeters>169</AltitudeMeters>
            <DistanceMeters>39108.70114295</DistanceMeters>
          </Trackpoint>
          <Trackpoint>
            <Time>2021-10-09T08:18:14.000Z</Time>
            <Position>
              <LatitudeDegrees>39.6181075461208820343017578125</LatitudeDegrees>
              <LongitudeDegrees>-0.6885297596454620361328125</LongitudeDegrees>
            </Position>
            <AltitudeMeters>169.1999969482421875</AltitudeMeters>
            <DistanceMeters>39115.527871635</DistanceMeters>
          </Trackpoint>
          <Trackpoint>
            <Time>2021-10-09T08:18:15.000Z</Time>
            <Position>
              <LatitudeDegrees>39.61813160218298435211181640625</LatitudeDegrees>
              <LongitudeDegrees>-0.68860284984111785888671875</LongitudeDegrees>
            </Position>
            <AltitudeMeters>169.1999969482421875</AltitudeMeters>
            <DistanceMeters>39122.342685143</DistanceMeters>
          </Trackpoint>
          <Trackpoint>
            <Time>2021-10-09T08:18:16.000Z</Time>
            <Position>
              <LatitudeDegrees>39.61815373040735721588134765625</LatitudeDegrees>
              <LongitudeDegrees>-0.68867661058902740478515625</LongitudeDegrees>
            </Position>
            <AltitudeMeters>169.399993896484375</AltitudeMeters>
            <DistanceMeters>39129.129615225</DistanceMeters>
          </Trackpoint>
          <Trackpoint>
            <Time>2021-10-09T08:18:17.000Z</Time>
            <Position>
              <LatitudeDegrees>39.6181749366223812103271484375</LatitudeDegrees>
              <LongitudeDegrees>-0.688751377165317535400390625</LongitudeDegrees>
            </Position>
            <AltitudeMeters>169.399993896484375</AltitudeMeters>
            <DistanceMeters>39135.960971976</DistanceMeters>
          </Trackpoint>
          <Trackpoint>
            <Time>2021-10-09T08:18:18.000Z</Time>
            <Position>
              <LatitudeDegrees>39.618197567760944366455078125</LatitudeDegrees>
              <LongitudeDegrees>-0.68882455118000507354736328125</LongitudeDegrees>
            </Position>
            <AltitudeMeters>169.600006103515625</AltitudeMeters>
            <DistanceMeters>39142.721907337</DistanceMeters>
          </Trackpoint>
          <Trackpoint>
            <Time>2021-10-09T08:18:19.000Z</Time>
            <Position>
              <LatitudeDegrees>39.618221037089824676513671875</LatitudeDegrees>
              <LongitudeDegrees>-0.68889864720404148101806640625</LongitudeDegrees>
            </Position>
            <AltitudeMeters>169.8000030517578125</AltitudeMeters>
            <DistanceMeters>39149.590176358</DistanceMeters>
          </Trackpoint>
          <Trackpoint>
            <Time>2021-10-09T08:18:20.000Z</Time>
            <Position>
              <LatitudeDegrees>39.6182433329522609710693359375</LatitudeDegrees>
              <LongitudeDegrees>-0.68897089920938014984130859375</LongitudeDegrees>
            </Position>
            <AltitudeMeters>169.8000030517578125</AltitudeMeters>
            <DistanceMeters>39156.263731409</DistanceMeters>
          </Trackpoint>
          <Trackpoint>
            <Time>2021-10-09T08:18:21.000Z</Time>
            <Position>
              <LatitudeDegrees>39.61826571263372898101806640625</LatitudeDegrees>
              <LongitudeDegrees>-0.689041726291179656982421875</LongitudeDegrees>
            </Position>
            <AltitudeMeters>170</AltitudeMeters>
            <DistanceMeters>39162.827457083</DistanceMeters>
          </Trackpoint>
          <Trackpoint>
            <Time>2021-10-09T08:18:22.000Z</Time>
            <Position>
              <LatitudeDegrees>39.61828708648681640625</LatitudeDegrees>
              <LongitudeDegrees>-0.689113475382328033447265625</LongitudeDegrees>
            </Position>
            <AltitudeMeters>170.1999969482421875</AltitudeMeters>
            <DistanceMeters>39169.423433759</DistanceMeters>
          </Trackpoint>
          <Trackpoint>
            <Time>2021-10-09T08:18:23.000Z</Time>
            <Position>
              <LatitudeDegrees>39.61831047199666500091552734375</LatitudeDegrees>
              <LongitudeDegrees>-0.6891853921115398406982421875</LongitudeDegrees>
            </Position>
            <AltitudeMeters>170.1999969482421875</AltitudeMeters>
            <DistanceMeters>39176.115905586</DistanceMeters>
          </Trackpoint>
          <Trackpoint>
            <Time>2021-10-09T08:18:24.000Z</Time>
            <Position>
              <LatitudeDegrees>39.61833469569683074951171875</LatitudeDegrees>
              <LongitudeDegrees>-0.6892561353743076324462890625</LongitudeDegrees>
            </Position>
            <AltitudeMeters>170.399993896484375</AltitudeMeters>
            <DistanceMeters>39182.75350628</DistanceMeters>
          </Trackpoint>
          <Trackpoint>
            <Time>2021-10-09T08:18:25.000Z</Time>
            <Position>
              <LatitudeDegrees>39.61835774593055248260498046875</LatitudeDegrees>
              <LongitudeDegrees>-0.6893252022564411163330078125</LongitudeDegrees>
            </Position>
            <AltitudeMeters>170.399993896484375</AltitudeMeters>
            <DistanceMeters>39189.2069327</DistanceMeters>
          </Trackpoint>
          <Trackpoint>
            <Time>2021-10-09T08:18:26.000Z</Time>
            <Position>
              <LatitudeDegrees>39.61837870068848133087158203125</LatitudeDegrees>
              <LongitudeDegrees>-0.6893946044147014617919921875</LongitudeDegrees>
            </Position>
            <AltitudeMeters>170.600006103515625</AltitudeMeters>
            <DistanceMeters>39195.598494781</DistanceMeters>
          </Trackpoint>
          <Trackpoint>
            <Time>2021-10-09T08:18:27.000Z</Time>
            <Position>
              <LatitudeDegrees>39.61839864961802959442138671875</LatitudeDegrees>
              <LongitudeDegrees>-0.6894658505916595458984375</LongitudeDegrees>
            </Position>
            <AltitudeMeters>170.8000030517578125</AltitudeMeters>
            <DistanceMeters>39202.097933034</DistanceMeters>
          </Trackpoint>
          <Trackpoint>
            <Time>2021-10-09T08:18:28.000Z</Time>
            <Position>
              <LatitudeDegrees>39.6184210292994976043701171875</LatitudeDegrees>
              <LongitudeDegrees>-0.68953483365476131439208984375</LongitudeDegrees>
            </Position>
            <AltitudeMeters>170.8000030517578125</AltitudeMeters>
            <DistanceMeters>39208.516282412</DistanceMeters>
          </Trackpoint>
          <Trackpoint>
            <Time>2021-10-09T08:18:29.000Z</Time>
            <Position>
              <LatitudeDegrees>39.61844466626644134521484375</LatitudeDegrees>
              <LongitudeDegrees>-0.68960322998464107513427734375</LongitudeDegrees>
            </Position>
            <AltitudeMeters>171</AltitudeMeters>
            <DistanceMeters>39214.944472655</DistanceMeters>
          </Trackpoint>
          <Trackpoint>
            <Time>2021-10-09T08:18:30.000Z</Time>
            <Position>
              <LatitudeDegrees>39.61846704594790935516357421875</LatitudeDegrees>
              <LongitudeDegrees>-0.68967313505709171295166015625</LongitudeDegrees>
            </Position>
            <AltitudeMeters>171.1999969482421875</AltitudeMeters>
            <DistanceMeters>39221.43556938</DistanceMeters>
          </Trackpoint>
          <Trackpoint>
            <Time>2021-10-09T08:18:31.000Z</Time>
            <Position>
              <LatitudeDegrees>39.61848699487745761871337890625</LatitudeDegrees>
              <LongitudeDegrees>-0.68974304012954235076904296875</LongitudeDegrees>
            </Position>
            <AltitudeMeters>171.600006103515625</AltitudeMeters>
            <DistanceMeters>39227.827131461</DistanceMeters>
          </Trackpoint>
          <Trackpoint>
            <Time>2021-10-09T08:18:32.000Z</Time>
            <Position>
              <LatitudeDegrees>39.61850627325475215911865234375</LatitudeDegrees>
              <LongitudeDegrees>-0.6898123584687709808349609375</LongitudeDegrees>
            </Position>
            <AltitudeMeters>171.600006103515625</AltitudeMeters>
            <DistanceMeters>39234.145514795</DistanceMeters>
          </Trackpoint>
          <Trackpoint>
            <Time>2021-10-09T08:18:33.000Z</Time>
            <Position>
              <LatitudeDegrees>39.61852823384106159210205078125</LatitudeDegrees>
              <LongitudeDegrees>-0.689880587160587310791015625</LongitudeDegrees>
            </Position>
            <AltitudeMeters>171.8000030517578125</AltitudeMeters>
            <DistanceMeters>39240.484587296</DistanceMeters>
          </Trackpoint>
          <Trackpoint>
            <Time>2021-10-09T08:18:34.000Z</Time>
            <Position>
              <LatitudeDegrees>39.618549607694149017333984375</LatitudeDegrees>
              <LongitudeDegrees>-0.68994663655757904052734375</LongitudeDegrees>
            </Position>
            <AltitudeMeters>171.8000030517578125</AltitudeMeters>
            <DistanceMeters>39246.626871837</DistanceMeters>
          </Trackpoint>
          <Trackpoint>
            <Time>2021-10-09T08:18:35.000Z</Time>
            <Position>
              <LatitudeDegrees>39.61857081390917301177978515625</LatitudeDegrees>
              <LongitudeDegrees>-0.69001344032585620880126953125</LongitudeDegrees>
            </Position>
            <AltitudeMeters>171.8000030517578125</AltitudeMeters>
            <DistanceMeters>39252.821855686</DistanceMeters>
          </Trackpoint>
          <Trackpoint>
            <Time>2021-10-09T08:18:36.000Z</Time>
            <Position>
              <LatitudeDegrees>39.618590511381626129150390625</LatitudeDegrees>
              <LongitudeDegrees>-0.69007798098027706146240234375</LongitudeDegrees>
            </Position>
            <AltitudeMeters>172</AltitudeMeters>
            <DistanceMeters>39258.772986655</DistanceMeters>
          </Trackpoint>
          <Trackpoint>
            <Time>2021-10-09T08:18:37.000Z</Time>
            <Position>
              <LatitudeDegrees>39.61860828101634979248046875</LatitudeDegrees>
              <LongitudeDegrees>-0.69014470092952251434326171875</LongitudeDegrees>
            </Position>
            <AltitudeMeters>172</AltitudeMeters>
            <DistanceMeters>39264.826419583</DistanceMeters>
          </Trackpoint>
          <Trackpoint>
            <Time>2021-10-09T08:18:38.000Z</Time>
            <Position>
              <LatitudeDegrees>39.6186262182891368865966796875</LatitudeDegrees>
              <LongitudeDegrees>-0.6902088224887847900390625</LongitudeDegrees>
            </Position>
            <AltitudeMeters>172.1999969482421875</AltitudeMeters>
            <DistanceMeters>39270.675003135</DistanceMeters>
          </Trackpoint>
          <Trackpoint>
            <Time>2021-10-09T08:18:39.000Z</Time>
            <Position>
              <LatitudeDegrees>39.6186466701328754425048828125</LatitudeDegrees>
              <LongitudeDegrees>-0.6902710162103176116943359375</LongitudeDegrees>
            </Position>
            <AltitudeMeters>172.1999969482421875</AltitudeMeters>
            <DistanceMeters>39276.472411567</DistanceMeters>
          </Trackpoint>
          <Trackpoint>
            <Time>2021-10-09T08:18:40.000Z</Time>
            <Position>
              <LatitudeDegrees>39.6186671219766139984130859375</LatitudeDegrees>
              <LongitudeDegrees>-0.6903337128460407257080078125</LongitudeDegrees>
            </Position>
            <AltitudeMeters>172.600006103515625</AltitudeMeters>
            <DistanceMeters>39282.310177278</DistanceMeters>
          </Trackpoint>
          <Trackpoint>
            <Time>2021-10-09T08:18:41.000Z</Time>
            <Position>
              <LatitudeDegrees>39.6186882443726062774658203125</LatitudeDegrees>
              <LongitudeDegrees>-0.69039599038660526275634765625</LongitudeDegrees>
            </Position>
            <AltitudeMeters>172.8000030517578125</AltitudeMeters>
            <DistanceMeters>39288.144074613</DistanceMeters>
          </Trackpoint>
          <Trackpoint>
            <Time>2021-10-09T08:18:42.000Z</Time>
            <Position>
              <LatitudeDegrees>39.6187083609402179718017578125</LatitudeDegrees>
              <LongitudeDegrees>-0.69045625627040863037109375</LongitudeDegrees>
            </Position>
            <AltitudeMeters>173</AltitudeMeters>
            <DistanceMeters>39293.775560072</DistanceMeters>
          </Trackpoint>
          <Trackpoint>
            <Time>2021-10-09T08:18:43.000Z</Time>
            <Position>
              <LatitudeDegrees>39.6187261305749416351318359375</LatitudeDegrees>
              <LongitudeDegrees>-0.690515600144863128662109375</LongitudeDegrees>
            </Position>
            <AltitudeMeters>173.1999969482421875</AltitudeMeters>
            <DistanceMeters>39299.23442921</DistanceMeters>
          </Trackpoint>
          <Trackpoint>
            <Time>2021-10-09T08:18:44.000Z</Time>
            <Position>
              <LatitudeDegrees>39.6187432296574115753173828125</LatitudeDegrees>
              <LongitudeDegrees>-0.6905744411051273345947265625</LongitudeDegrees>
            </Position>
            <AltitudeMeters>173.1999969482421875</AltitudeMeters>
            <DistanceMeters>39304.625886905</DistanceMeters>
          </Trackpoint>
          <Trackpoint>
            <Time>2021-10-09T08:18:45.000Z</Time>
            <Position>
              <LatitudeDegrees>39.618761837482452392578125</LatitudeDegrees>
              <LongitudeDegrees>-0.69063453935086727142333984375</LongitudeDegrees>
            </Position>
            <AltitudeMeters>173.399993896484375</AltitudeMeters>
            <DistanceMeters>39310.17824505</DistanceMeters>
          </Trackpoint>
          <Trackpoint>
            <Time>2021-10-09T08:18:46.000Z</Time>
            <Position>
              <LatitudeDegrees>39.61878103204071521759033203125</LatitudeDegrees>
              <LongitudeDegrees>-0.69069254212081432342529296875</LongitudeDegrees>
            </Position>
            <AltitudeMeters>173.399993896484375</AltitudeMeters>
            <DistanceMeters>39315.589764052</DistanceMeters>
          </Trackpoint>
          <Trackpoint>
            <Time>2021-10-09T08:18:47.000Z</Time>
            <Position>
              <LatitudeDegrees>39.6187992207705974578857421875</LatitudeDegrees>
              <LongitudeDegrees>-0.69075171835720539093017578125</LongitudeDegrees>
            </Position>
            <AltitudeMeters>173.600006103515625</AltitudeMeters>
            <DistanceMeters>39321.052767132</DistanceMeters>
          </Trackpoint>
          <Trackpoint>
            <Time>2021-10-09T08:18:48.000Z</Time>
            <Position>
              <LatitudeDegrees>39.6188166551291942596435546875</LatitudeDegrees>
              <LongitudeDegrees>-0.69081089459359645843505859375</LongitudeDegrees>
            </Position>
            <AltitudeMeters>173.8000030517578125</AltitudeMeters>
            <DistanceMeters>39326.484273345</DistanceMeters>
          </Trackpoint>
          <Trackpoint>
            <Time>2021-10-09T08:18:49.000Z</Time>
            <Position>
              <LatitudeDegrees>39.6188342571258544921875</LatitudeDegrees>
              <LongitudeDegrees>-0.69086889736354351043701171875</LongitudeDegrees>
            </Position>
            <AltitudeMeters>174.1999969482421875</AltitudeMeters>
            <DistanceMeters>39331.827783588</DistanceMeters>
          </Trackpoint>
          <Trackpoint>
            <Time>2021-10-09T08:18:50.000Z</Time>
            <Position>
              <LatitudeDegrees>39.61885311640799045562744140625</LatitudeDegrees>
              <LongitudeDegrees>-0.6909251399338245391845703125</LongitudeDegrees>
            </Position>
            <AltitudeMeters>174.399993896484375</AltitudeMeters>
            <DistanceMeters>39337.086977837</DistanceMeters>
          </Trackpoint>
          <Trackpoint>
            <Time>2021-10-09T08:18:51.000Z</Time>
            <Position>
              <LatitudeDegrees>39.6188704669475555419921875</LatitudeDegrees>
              <LongitudeDegrees>-0.6909797899425029754638671875</LongitudeDegrees>
            </Position>
            <AltitudeMeters>174.8000030517578125</AltitudeMeters>
            <DistanceMeters>39342.15467331</DistanceMeters>
          </Trackpoint>
          <Trackpoint>
            <Time>2021-10-09T08:18:52.000Z</Time>
            <Position>
              <LatitudeDegrees>39.61888764984905719757080078125</LatitudeDegrees>
              <LongitudeDegrees>-0.69103184156119823455810546875</LongitudeDegrees>
            </Position>
            <AltitudeMeters>175</AltitudeMeters>
            <DistanceMeters>39347.011272909</DistanceMeters>
          </Trackpoint>
          <Trackpoint>
            <Time>2021-10-09T08:18:53.000Z</Time>
            <Position>
              <LatitudeDegrees>39.618904329836368560791015625</LatitudeDegrees>
              <LongitudeDegrees>-0.6910840608179569244384765625</LongitudeDegrees>
            </Position>
            <AltitudeMeters>175.1999969482421875</AltitudeMeters>
            <DistanceMeters>39351.858566887</DistanceMeters>
          </Trackpoint>
          <Trackpoint>
            <Time>2021-10-09T08:18:54.000Z</Time>
            <Position>
              <LatitudeDegrees>39.6189215965569019317626953125</LatitudeDegrees>
              <LongitudeDegrees>-0.69113845936954021453857421875</LongitudeDegrees>
            </Position>
            <AltitudeMeters>175.399993896484375</AltitudeMeters>
            <DistanceMeters>39356.902149477</DistanceMeters>
          </Trackpoint>
          <Trackpoint>
            <Time>2021-10-09T08:18:55.000Z</Time>
            <Position>
              <LatitudeDegrees>39.61894129402935504913330078125</LatitudeDegrees>
              <LongitudeDegrees>-0.6911923550069332122802734375</LongitudeDegrees>
            </Position>
            <AltitudeMeters>175.600006103515625</AltitudeMeters>
            <DistanceMeters>39362.016847069</DistanceMeters>
          </Trackpoint>
          <Trackpoint>
            <Time>2021-10-09T08:18:56.000Z</Time>
            <Position>
              <LatitudeDegrees>39.61896208114922046661376953125</LatitudeDegrees>
              <LongitudeDegrees>-0.69124775938689708709716796875</LongitudeDegrees>
            </Position>
            <AltitudeMeters>175.8000030517578125</AltitudeMeters>
            <DistanceMeters>39367.300879276</DistanceMeters>
          </Trackpoint>
          <Trackpoint>
            <Time>2021-10-09T08:18:57.000Z</Time>
            <Position>
              <LatitudeDegrees>39.61898244917392730712890625</LatitudeDegrees>
              <LongitudeDegrees>-0.69130676798522472381591796875</LongitudeDegrees>
            </Position>
            <AltitudeMeters>176</AltitudeMeters>
            <DistanceMeters>39372.84509971</DistanceMeters>
          </Trackpoint>
          <Trackpoint>
            <Time>2021-10-09T08:18:58.000Z</Time>
            <Position>
              <LatitudeDegrees>39.6190020628273487091064453125</LatitudeDegrees>
              <LongitudeDegrees>-0.69136577658355236053466796875</LongitudeDegrees>
            </Position>
            <AltitudeMeters>176.1999969482421875</AltitudeMeters>
            <DistanceMeters>39378.355010508</DistanceMeters>
          </Trackpoint>
          <Trackpoint>
            <Time>2021-10-09T08:18:59.000Z</Time>
            <Position>
              <LatitudeDegrees>39.61902528069913387298583984375</LatitudeDegrees>
              <LongitudeDegrees>-0.69142009131610393524169921875</LongitudeDegrees>
            </Position>
            <AltitudeMeters>176.399993896484375</AltitudeMeters>
            <DistanceMeters>39383.679899242</DistanceMeters>
          </Trackpoint>
          <Trackpoint>
            <Time>2021-10-09T08:19:00.000Z</Time>
            <Position>
              <LatitudeDegrees>39.61905025877058506011962890625</LatitudeDegrees>
              <LongitudeDegrees>-0.69147205911576747894287109375</LongitudeDegrees>
            </Position>
            <AltitudeMeters>176.600006103515625</AltitudeMeters>
            <DistanceMeters>39388.931361273</DistanceMeters>
          </Trackpoint>
          <Trackpoint>
            <Time>2021-10-09T08:19:01.000Z</Time>
            <Position>
              <LatitudeDegrees>39.61907590739428997039794921875</LatitudeDegrees>
              <LongitudeDegrees>-0.69152302108705043792724609375</LongitudeDegrees>
            </Position>
            <AltitudeMeters>176.8000030517578125</AltitudeMeters>
            <DistanceMeters>39394.150914954</DistanceMeters>
          </Trackpoint>
          <Trackpoint>
            <Time>2021-10-09T08:19:02.000Z</Time>
            <Position>
              <LatitudeDegrees>39.61909904144704341888427734375</LatitudeDegrees>
              <LongitudeDegrees>-0.69157649762928485870361328125</LongitudeDegrees>
            </Position>
            <AltitudeMeters>176.8000030517578125</AltitudeMeters>
            <DistanceMeters>39399.410109203</DistanceMeters>
          </Trackpoint>
          <Trackpoint>
            <Time>2021-10-09T08:19:03.000Z</Time>
            <Position>
              <LatitudeDegrees>39.619123935699462890625</LatitudeDegrees>
              <LongitudeDegrees>-0.69163047708570957183837890625</LongitudeDegrees>
            </Position>
            <AltitudeMeters>177</AltitudeMeters>
            <DistanceMeters>39404.804078642</DistanceMeters>
          </Trackpoint>
          <Trackpoint>
            <Time>2021-10-09T08:19:04.000Z</Time>
            <Position>
              <LatitudeDegrees>39.6191515959799289703369140625</LatitudeDegrees>
              <LongitudeDegrees>-0.69168328307569026947021484375</LongitudeDegrees>
            </Position>
            <AltitudeMeters>177</AltitudeMeters>
            <DistanceMeters>39410.279464819</DistanceMeters>
          </Trackpoint>
          <Trackpoint>
            <Time>2021-10-09T08:19:05.000Z</Time>
            <Position>
              <LatitudeDegrees>39.6191770769655704498291015625</LatitudeDegrees>
              <LongitudeDegrees>-0.69173575378954410552978515625</LongitudeDegrees>
            </Position>
            <AltitudeMeters>177.1999969482421875</AltitudeMeters>
            <DistanceMeters>39415.59756593</DistanceMeters>
          </Trackpoint>
          <Trackpoint>
            <Time>2021-10-09T08:19:06.000Z</Time>
            <Position>
              <LatitudeDegrees>39.619201384484767913818359375</LatitudeDegrees>
              <LongitudeDegrees>-0.69178889505565166473388671875</LongitudeDegrees>
            </Position>
            <AltitudeMeters>177.399993896484375</AltitudeMeters>
            <DistanceMeters>39420.89525199</DistanceMeters>
          </Trackpoint>
          <Trackpoint>
            <Time>2021-10-09T08:19:07.000Z</Time>
            <Position>
              <LatitudeDegrees>39.6192260272800922393798828125</LatitudeDegrees>
              <LongitudeDegrees>-0.69183985702693462371826171875</LongitudeDegrees>
            </Position>
            <AltitudeMeters>177.600006103515625</AltitudeMeters>
            <DistanceMeters>39426.05302333</DistanceMeters>
          </Trackpoint>
          <Trackpoint>
            <Time>2021-10-09T08:19:08.000Z</Time>
            <Position>
              <LatitudeDegrees>39.61925310082733631134033203125</LatitudeDegrees>
              <LongitudeDegrees>-0.69189165718853473663330078125</LongitudeDegrees>
            </Position>
            <AltitudeMeters>177.8000030517578125</AltitudeMeters>
            <DistanceMeters>39431.420140234</DistanceMeters>
          </Trackpoint>
          <Trackpoint>
            <Time>2021-10-09T08:19:09.000Z</Time>
            <Position>
              <LatitudeDegrees>39.6192800067365169525146484375</LatitudeDegrees>
              <LongitudeDegrees>-0.691945552825927734375</LongitudeDegrees>
            </Position>
            <AltitudeMeters>177.8000030517578125</AltitudeMeters>
            <DistanceMeters>39436.926772299</DistanceMeters>
          </Trackpoint>
          <Trackpoint>
            <Time>2021-10-09T08:19:10.000Z</Time>
            <Position>
              <LatitudeDegrees>39.61930640973150730133056640625</LatitudeDegrees>
              <LongitudeDegrees>-0.69200246594846248626708984375</LongitudeDegrees>
            </Position>
            <AltitudeMeters>178</AltitudeMeters>
            <DistanceMeters>39442.622829239</DistanceMeters>
          </Trackpoint>
          <Trackpoint>
            <Time>2021-10-09T08:19:11.000Z</Time>
            <Position>
              <LatitudeDegrees>39.61933407001197338104248046875</LatitudeDegrees>
              <LongitudeDegrees>-0.69206013344228267669677734375</LongitudeDegrees>
            </Position>
            <AltitudeMeters>178</AltitudeMeters>
            <DistanceMeters>39448.446656771</DistanceMeters>
          </Trackpoint>
          <Trackpoint>
            <Time>2021-10-09T08:19:12.000Z</Time>
            <Position>
              <LatitudeDegrees>39.61936156265437602996826171875</LatitudeDegrees>
              <LongitudeDegrees>-0.69211629219353199005126953125</LongitudeDegrees>
            </Position>
            <AltitudeMeters>178.1999969482421875</AltitudeMeters>
            <DistanceMeters>39454.151426311</DistanceMeters>
          </Trackpoint>
          <Trackpoint>
            <Time>2021-10-09T08:19:13.000Z</Time>
            <Position>
              <LatitudeDegrees>39.6193883009254932403564453125</LatitudeDegrees>
              <LongitudeDegrees>-0.6921727024018764495849609375</LongitudeDegrees>
            </Position>
            <AltitudeMeters>178.399993896484375</AltitudeMeters>
            <DistanceMeters>39459.830017948</DistanceMeters>
          </Trackpoint>
          <Trackpoint>
            <Time>2021-10-09T08:19:14.000Z</Time>
            <Position>
              <LatitudeDegrees>39.61941294372081756591796875</LatitudeDegrees>
              <LongitudeDegrees>-0.69222760386765003204345703125</LongitudeDegrees>
            </Position>
            <AltitudeMeters>178.399993896484375</AltitudeMeters>
            <DistanceMeters>39465.27895283</DistanceMeters>
          </Trackpoint>
          <Trackpoint>
            <Time>2021-10-09T08:19:15.000Z</Time>
            <Position>
              <LatitudeDegrees>39.61943767033517360687255859375</LatitudeDegrees>
              <LongitudeDegrees>-0.69228057749569416046142578125</LongitudeDegrees>
            </Position>
            <AltitudeMeters>178.600006103515625</AltitudeMeters>
            <DistanceMeters>39470.588557209</DistanceMeters>
          </Trackpoint>
          <Trackpoint>
            <Time>2021-10-09T08:19:16.000Z</Time>
            <Position>
              <LatitudeDegrees>39.61946365423500537872314453125</LatitudeDegrees>
              <LongitudeDegrees>-0.6923304498195648193359375</LongitudeDegrees>
            </Position>
            <AltitudeMeters>178.600006103515625</AltitudeMeters>
            <DistanceMeters>39475.750703621</DistanceMeters>
          </Trackpoint>
          <Trackpoint>
            <Time>2021-10-09T08:19:17.000Z</Time>
            <Position>
              <LatitudeDegrees>39.6194922365248203277587890625</LatitudeDegrees>
              <LongitudeDegrees>-0.69238007068634033203125</LongitudeDegrees>
            </Position>
            <AltitudeMeters>178.600006103515625</AltitudeMeters>
            <DistanceMeters>39481.062008434</DistanceMeters>
          </Trackpoint>
          <Trackpoint>
            <Time>2021-10-09T08:19:18.000Z</Time>
            <Position>
              <LatitudeDegrees>39.6195200644433498382568359375</LatitudeDegrees>
              <LongitudeDegrees>-0.69243413396179676055908203125</LongitudeDegrees>
            </Position>
            <AltitudeMeters>178.600006103515625</AltitudeMeters>
            <DistanceMeters>39486.637088982</DistanceMeters>
          </Trackpoint>
          <Trackpoint>
            <Time>2021-10-09T08:19:19.000Z</Time>
            <Position>
              <LatitudeDegrees>39.61954697035253047943115234375</LatitudeDegrees>
              <LongitudeDegrees>-0.6924913823604583740234375</LongitudeDegrees>
            </Position>
            <AltitudeMeters>178.8000030517578125</AltitudeMeters>
            <DistanceMeters>39492.387579391</DistanceMeters>
          </Trackpoint>
          <Trackpoint>
            <Time>2021-10-09T08:19:20.000Z</Time>
            <Position>
              <LatitudeDegrees>39.6195747144520282745361328125</LatitudeDegrees>
              <LongitudeDegrees>-0.6925515644252300262451171875</LongitudeDegrees>
            </Position>
            <AltitudeMeters>179</AltitudeMeters>
            <DistanceMeters>39498.400600768</DistanceMeters>
          </Trackpoint>
          <Trackpoint>
            <Time>2021-10-09T08:19:21.000Z</Time>
            <Position>
              <LatitudeDegrees>39.6196022070944309234619140625</LatitudeDegrees>
              <LongitudeDegrees>-0.69261266849935054779052734375</LongitudeDegrees>
            </Position>
            <AltitudeMeters>179</AltitudeMeters>
            <DistanceMeters>39504.468188564</DistanceMeters>
          </Trackpoint>
          <Trackpoint>
            <Time>2021-10-09T08:19:22.000Z</Time>
            <Position>
              <LatitudeDegrees>39.61963162757456302642822265625</LatitudeDegrees>
              <LongitudeDegrees>-0.69267385639250278472900390625</LongitudeDegrees>
            </Position>
            <AltitudeMeters>179.399993896484375</AltitudeMeters>
            <DistanceMeters>39510.65150027</DistanceMeters>
          </Trackpoint>
          <Trackpoint>
            <Time>2021-10-09T08:19:23.000Z</Time>
            <Position>
              <LatitudeDegrees>39.61966104805469512939453125</LatitudeDegrees>
              <LongitudeDegrees>-0.6927369721233844757080078125</LongitudeDegrees>
            </Position>
            <AltitudeMeters>179.399993896484375</AltitudeMeters>
            <DistanceMeters>39516.976311623</DistanceMeters>
          </Trackpoint>
          <Trackpoint>
            <Time>2021-10-09T08:19:24.000Z</Time>
            <Position>
              <LatitudeDegrees>39.6196893788874149322509765625</LatitudeDegrees>
              <LongitudeDegrees>-0.69280109368264675140380859375</LongitudeDegrees>
            </Position>
            <AltitudeMeters>179.600006103515625</AltitudeMeters>
            <DistanceMeters>39523.313959454</DistanceMeters>
          </Trackpoint>
          <Trackpoint>
            <Time>2021-10-09T08:19:25.000Z</Time>
            <Position>
              <LatitudeDegrees>39.6197175420820713043212890625</LatitudeDegrees>
              <LongitudeDegrees>-0.69286462850868701934814453125</LongitudeDegrees>
            </Position>
            <AltitudeMeters>179.600006103515625</AltitudeMeters>
            <DistanceMeters>39529.598667431</DistanceMeters>
          </Trackpoint>
          <Trackpoint>
            <Time>2021-10-09T08:19:26.000Z</Time>
            <Position>
              <LatitudeDegrees>39.6197446994483470916748046875</LatitudeDegrees>
              <LongitudeDegrees>-0.69292925298213958740234375</LongitudeDegrees>
            </Position>
            <AltitudeMeters>179.8000030517578125</AltitudeMeters>
            <DistanceMeters>39535.909185407</DistanceMeters>
          </Trackpoint>
          <Trackpoint>
            <Time>2021-10-09T08:19:27.000Z</Time>
            <Position>
              <LatitudeDegrees>39.6197725273668766021728515625</LatitudeDegrees>
              <LongitudeDegrees>-0.69299438036978244781494140625</LongitudeDegrees>
            </Position>
            <AltitudeMeters>179.8000030517578125</AltitudeMeters>
            <DistanceMeters>39542.294386668</DistanceMeters>
          </Trackpoint>
          <Trackpoint>
            <Time>2021-10-09T08:19:28.000Z</Time>
            <Position>
              <LatitudeDegrees>39.61979876272380352020263671875</LatitudeDegrees>
              <LongitudeDegrees>-0.69305975921452045440673828125</LongitudeDegrees>
            </Position>
            <AltitudeMeters>180</AltitudeMeters>
            <DistanceMeters>39548.614913401</DistanceMeters>
          </Trackpoint>
          <Trackpoint>
            <Time>2021-10-09T08:19:29.000Z</Time>
            <Position>
              <LatitudeDegrees>39.619824998080730438232421875</LatitudeDegrees>
              <LongitudeDegrees>-0.69312429986894130706787109375</LongitudeDegrees>
            </Position>
            <AltitudeMeters>180</AltitudeMeters>
            <DistanceMeters>39554.871540399</DistanceMeters>
          </Trackpoint>
          <Trackpoint>
            <Time>2021-10-09T08:19:30.000Z</Time>
            <Position>
              <LatitudeDegrees>39.619850814342498779296875</LatitudeDegrees>
              <LongitudeDegrees>-0.69319152273237705230712890625</LongitudeDegrees>
            </Position>
            <AltitudeMeters>180</AltitudeMeters>
            <DistanceMeters>39561.310257736</DistanceMeters>
          </Trackpoint>
          <Trackpoint>
            <Time>2021-10-09T08:19:31.000Z</Time>
            <Position>
              <LatitudeDegrees>39.6198751218616962432861328125</LatitudeDegrees>
              <LongitudeDegrees>-0.6932610087096691131591796875</LongitudeDegrees>
            </Position>
            <AltitudeMeters>180.1999969482421875</AltitudeMeters>
            <DistanceMeters>39567.85262446</DistanceMeters>
          </Trackpoint>
          <Trackpoint>
            <Time>2021-10-09T08:19:32.000Z</Time>
            <Position>
              <LatitudeDegrees>39.61990001611411571502685546875</LatitudeDegrees>
              <LongitudeDegrees>-0.69332613609731197357177734375</LongitudeDegrees>
            </Position>
            <AltitudeMeters>180.1999969482421875</AltitudeMeters>
            <DistanceMeters>39574.085391812</DistanceMeters>
          </Trackpoint>
          <Trackpoint>
            <Time>2021-10-09T08:19:33.000Z</Time>
            <Position>
              <LatitudeDegrees>39.61992549709975719451904296875</LatitudeDegrees>
              <LongitudeDegrees>-0.69339453242719173431396484375</LongitudeDegrees>
            </Position>
            <AltitudeMeters>180.399993896484375</AltitudeMeters>
            <DistanceMeters>39580.598708872</DistanceMeters>
          </Trackpoint>
          <Trackpoint>
            <Time>2021-10-09T08:19:34.000Z</Time>
            <Position>
              <LatitudeDegrees>39.619951061904430389404296875</LatitudeDegrees>
              <LongitudeDegrees>-0.69346326403319835662841796875</LongitudeDegrees>
            </Position>
            <AltitudeMeters>180.1999969482421875</AltitudeMeters>
            <DistanceMeters>39587.142455696</DistanceMeters>
          </Trackpoint>
          <Trackpoint>
            <Time>2021-10-09T08:19:35.000Z</Time>
            <Position>
              <LatitudeDegrees>39.6199777163565158843994140625</LatitudeDegrees>
              <LongitudeDegrees>-0.69353065453469753265380859375</LongitudeDegrees>
            </Position>
            <AltitudeMeters>180.1999969482421875</AltitudeMeters>
            <DistanceMeters>39593.636334121</DistanceMeters>
          </Trackpoint>
          <Trackpoint>
            <Time>2021-10-09T08:19:36.000Z</Time>
            <Position>
              <LatitudeDegrees>39.62000302970409393310546875</LatitudeDegrees>
              <LongitudeDegrees>-0.69359485991299152374267578125</LongitudeDegrees>
            </Position>
            <AltitudeMeters>180.399993896484375</AltitudeMeters>
            <DistanceMeters>39599.820375982</DistanceMeters>
          </Trackpoint>
          <Trackpoint>
            <Time>2021-10-09T08:19:37.000Z</Time>
            <Position>
              <LatitudeDegrees>39.62002582848072052001953125</LatitudeDegrees>
              <LongitudeDegrees>-0.69365772418677806854248046875</LongitudeDegrees>
            </Position>
            <AltitudeMeters>180.399993896484375</AltitudeMeters>
            <DistanceMeters>39605.77833121</DistanceMeters>
          </Trackpoint>
          <Trackpoint>
            <Time>2021-10-09T08:19:38.000Z</Time>
            <Position>
              <LatitudeDegrees>39.62004921399056911468505859375</LatitudeDegrees>
              <LongitudeDegrees>-0.6937210075557231903076171875</LongitudeDegrees>
            </Position>
            <AltitudeMeters>180.399993896484375</AltitudeMeters>
            <DistanceMeters>39611.795856162</DistanceMeters>
          </Trackpoint>
          <Trackpoint>
            <Time>2021-10-09T08:19:39.000Z</Time>
            <Position>
              <LatitudeDegrees>39.62007318623363971710205078125</LatitudeDegrees>
              <LongitudeDegrees>-0.69378160871565341949462890625</LongitudeDegrees>
            </Position>
            <AltitudeMeters>180.1999969482421875</AltitudeMeters>
            <DistanceMeters>39617.636714729</DistanceMeters>
          </Trackpoint>
          <Trackpoint>
            <Time>2021-10-09T08:19:40.000Z</Time>
            <Position>
              <LatitudeDegrees>39.62009690701961517333984375</LatitudeDegrees>
              <LongitudeDegrees>-0.69384120404720306396484375</LongitudeDegrees>
            </Position>
            <AltitudeMeters>180.399993896484375</AltitudeMeters>
            <DistanceMeters>39623.387205138</DistanceMeters>
          </Trackpoint>
          <Trackpoint>
            <Time>2021-10-09T08:19:41.000Z</Time>
            <Position>
              <LatitudeDegrees>39.6201205439865589141845703125</LatitudeDegrees>
              <LongitudeDegrees>-0.6939013861119747161865234375</LongitudeDegrees>
            </Position>
            <AltitudeMeters>180.1999969482421875</AltitudeMeters>
            <DistanceMeters>39629.178379795</DistanceMeters>
          </Trackpoint>
          <Trackpoint>
            <Time>2021-10-09T08:19:42.000Z</Time>
            <Position>
              <LatitudeDegrees>39.62014476768672466278076171875</LatitudeDegrees>
              <LongitudeDegrees>-0.69396500475704669952392578125</LongitudeDegrees>
            </Position>
            <AltitudeMeters>180.1999969482421875</AltitudeMeters>
            <DistanceMeters>39635.263058375</DistanceMeters>
          </Trackpoint>
          <Trackpoint>
            <Time>2021-10-09T08:19:43.000Z</Time>
            <Position>
              <LatitudeDegrees>39.62016932666301727294921875</LatitudeDegrees>
              <LongitudeDegrees>-0.6940294615924358367919921875</LongitudeDegrees>
            </Position>
            <AltitudeMeters>180.1999969482421875</AltitudeMeters>
            <DistanceMeters>39641.427355713</DistanceMeters>
          </Trackpoint>
          <Trackpoint>
            <Time>2021-10-09T08:19:44.000Z</Time>
            <Position>
              <LatitudeDegrees>39.620194137096405029296875</LatitudeDegrees>
              <LongitudeDegrees>-0.69409509189426898956298828125</LongitudeDegrees>
            </Position>
            <AltitudeMeters>180.1999969482421875</AltitudeMeters>
            <DistanceMeters>39647.694797977</DistanceMeters>
          </Trackpoint>
          <Trackpoint>
            <Time>2021-10-09T08:19:45.000Z</Time>
            <Position>
              <LatitudeDegrees>39.62022070772945880889892578125</LatitudeDegrees>
              <LongitudeDegrees>-0.694161392748355865478515625</LongitudeDegrees>
            </Position>
            <AltitudeMeters>180.1999969482421875</AltitudeMeters>
            <DistanceMeters>39654.101882143</DistanceMeters>
          </Trackpoint>
          <Trackpoint>
            <Time>2021-10-09T08:19:46.000Z</Time>
            <Position>
              <LatitudeDegrees>39.62024954147636890411376953125</LatitudeDegrees>
              <LongitudeDegrees>-0.69423104636371135711669921875</LongitudeDegrees>
            </Position>
            <AltitudeMeters>180.1999969482421875</AltitudeMeters>
            <DistanceMeters>39660.881490473</DistanceMeters>
          </Trackpoint>
          <Trackpoint>
            <Time>2021-10-09T08:19:47.000Z</Time>
            <Position>
              <LatitudeDegrees>39.6202761121094226837158203125</LatitudeDegrees>
              <LongitudeDegrees>-0.6943023763597011566162109375</LongitudeDegrees>
            </Position>
            <AltitudeMeters>180.1999969482421875</AltitudeMeters>
            <DistanceMeters>39667.675734418</DistanceMeters>
          </Trackpoint>
          <Trackpoint>
            <Time>2021-10-09T08:19:48.000Z</Time>
            <Position>
              <LatitudeDegrees>39.6203032694756984710693359375</LatitudeDegrees>
              <LongitudeDegrees>-0.6943737901747226715087890625</LongitudeDegrees>
            </Position>
            <AltitudeMeters>180.1999969482421875</AltitudeMeters>
            <DistanceMeters>39674.503124446</DistanceMeters>
          </Trackpoint>
          <Trackpoint>
            <Time>2021-10-09T08:19:49.000Z</Time>
            <Position>
              <LatitudeDegrees>39.62033051066100597381591796875</LatitudeDegrees>
              <LongitudeDegrees>-0.69444738328456878662109375</LongitudeDegrees>
            </Position>
            <AltitudeMeters>180.1999969482421875</AltitudeMeters>
            <DistanceMeters>39681.503569065</DistanceMeters>
          </Trackpoint>
          <Trackpoint>
            <Time>2021-10-09T08:19:50.000Z</Time>
            <Position>
              <LatitudeDegrees>39.620356075465679168701171875</LatitudeDegrees>
              <LongitudeDegrees>-0.69452173076570034027099609375</LongitudeDegrees>
            </Position>
            <AltitudeMeters>180.1999969482421875</AltitudeMeters>
            <DistanceMeters>39688.483991151</DistanceMeters>
          </Trackpoint>
          <Trackpoint>
            <Time>2021-10-09T08:19:51.000Z</Time>
            <Position>
              <LatitudeDegrees>39.6203813888132572174072265625</LatitudeDegrees>
              <LongitudeDegrees>-0.69459700025618076324462890625</LongitudeDegrees>
            </Position>
            <AltitudeMeters>180.1999969482421875</AltitudeMeters>
            <DistanceMeters>39695.52495129</DistanceMeters>
          </Trackpoint>
          <Trackpoint>
            <Time>2021-10-09T08:19:52.000Z</Time>
            <Position>
              <LatitudeDegrees>39.6204068697988986968994140625</LatitudeDegrees>
              <LongitudeDegrees>-0.69466941989958286285400390625</LongitudeDegrees>
            </Position>
            <AltitudeMeters>180.1999969482421875</AltitudeMeters>
            <DistanceMeters>39702.351018565</DistanceMeters>
          </Trackpoint>
          <Trackpoint>
            <Time>2021-10-09T08:19:53.000Z</Time>
            <Position>
              <LatitudeDegrees>39.620430171489715576171875</LatitudeDegrees>
              <LongitudeDegrees>-0.6947417557239532470703125</LongitudeDegrees>
            </Position>
            <AltitudeMeters>180.1999969482421875</AltitudeMeters>
            <DistanceMeters>39709.073109202</DistanceMeters>
          </Trackpoint>
          <Trackpoint>
            <Time>2021-10-09T08:19:54.000Z</Time>
            <Position>
              <LatitudeDegrees>39.62045288644731044769287109375</LatitudeDegrees>
              <LongitudeDegrees>-0.6948114931583404541015625</LongitudeDegrees>
            </Position>
            <AltitudeMeters>180.1999969482421875</AltitudeMeters>
            <DistanceMeters>39715.564901463</DistanceMeters>
          </Trackpoint>
          <Trackpoint>
            <Time>2021-10-09T08:19:55.000Z</Time>
            <Position>
              <LatitudeDegrees>39.62047736160457134246826171875</LatitudeDegrees>
              <LongitudeDegrees>-0.69487997330725193023681640625</LongitudeDegrees>
            </Position>
            <AltitudeMeters>180.1999969482421875</AltitudeMeters>
            <DistanceMeters>39722.037887999</DistanceMeters>
          </Trackpoint>
          <Trackpoint>
            <Time>2021-10-09T08:19:56.000Z</Time>
            <Position>
              <LatitudeDegrees>39.62050200439989566802978515625</LatitudeDegrees>
              <LongitudeDegrees>-0.6949454359710216522216796875</LongitudeDegrees>
            </Position>
            <AltitudeMeters>180.1999969482421875</AltitudeMeters>
            <DistanceMeters>39728.285126621</DistanceMeters>
          </Trackpoint>
          <Trackpoint>
            <Time>2021-10-09T08:19:57.000Z</Time>
            <Position>
              <LatitudeDegrees>39.6205258928239345550537109375</LatitudeDegrees>
              <LongitudeDegrees>-0.69500385783612728118896484375</LongitudeDegrees>
            </Position>
            <AltitudeMeters>180.1999969482421875</AltitudeMeters>
            <DistanceMeters>39733.955761701</DistanceMeters>
          </Trackpoint>
          <Trackpoint>
            <Time>2021-10-09T08:19:58.000Z</Time>
            <Position>
              <LatitudeDegrees>39.62054374627768993377685546875</LatitudeDegrees>
              <LongitudeDegrees>-0.695049874484539031982421875</LongitudeDegrees>
            </Position>
            <AltitudeMeters>180.1999969482421875</AltitudeMeters>
            <DistanceMeters>39738.374248464</DistanceMeters>
          </Trackpoint>
          <Trackpoint>
            <Time>2021-10-09T08:19:59.000Z</Time>
            <Position>
              <LatitudeDegrees>39.6205574087798595428466796875</LatitudeDegrees>
              <LongitudeDegrees>-0.6950850784778594970703125</LongitudeDegrees>
            </Position>
            <AltitudeMeters>180.1999969482421875</AltitudeMeters>
            <DistanceMeters>39741.755383891</DistanceMeters>
          </Trackpoint>
          <Trackpoint>
            <Time>2021-10-09T08:20:00.000Z</Time>
            <Position>
              <LatitudeDegrees>39.62057174183428287506103515625</LatitudeDegrees>
              <LongitudeDegrees>-0.69510946981608867645263671875</LongitudeDegrees>
            </Position>
            <AltitudeMeters>180.1999969482421875</AltitudeMeters>
            <DistanceMeters>39744.383692944</DistanceMeters>
          </Trackpoint>
          <Trackpoint>
            <Time>2021-10-09T08:20:01.000Z</Time>
            <Position>
              <LatitudeDegrees>39.62058314122259616851806640625</LatitudeDegrees>
              <LongitudeDegrees>-0.69512506015598773956298828125</LongitudeDegrees>
            </Position>
            <AltitudeMeters>180.1999969482421875</AltitudeMeters>
            <DistanceMeters>39746.226329301</DistanceMeters>
          </Trackpoint>
          <Trackpoint>
            <Time>2021-10-09T08:20:02.000Z</Time>
            <Position>
              <LatitudeDegrees>39.620596133172512054443359375</LatitudeDegrees>
              <LongitudeDegrees>-0.69514718838036060333251953125</LongitudeDegrees>
            </Position>
            <AltitudeMeters>180.1999969482421875</AltitudeMeters>
            <DistanceMeters>39748.613373129</DistanceMeters>
          </Trackpoint>
          <Trackpoint>
            <Time>2021-10-09T08:20:03.000Z</Time>
            <Position>
              <LatitudeDegrees>39.62060728110373020172119140625</LatitudeDegrees>
              <LongitudeDegrees>-0.695180632174015045166015625</LongitudeDegrees>
            </Position>
            <AltitudeMeters>180.1999969482421875</AltitudeMeters>
            <DistanceMeters>39751.73626963</DistanceMeters>
          </Trackpoint>
          <Trackpoint>
            <Time>2021-10-09T08:20:04.000Z</Time>
            <Position>
              <LatitudeDegrees>39.6206107176840305328369140625</LatitudeDegrees>
              <LongitudeDegrees>-0.69522463716566562652587890625</LongitudeDegrees>
            </Position>
            <AltitudeMeters>180.1999969482421875</AltitudeMeters>
            <DistanceMeters>39755.527823626</DistanceMeters>
          </Trackpoint>
          <Trackpoint>
            <Time>2021-10-09T08:20:05.000Z</Time>
            <Position>
              <LatitudeDegrees>39.62060518562793731689453125</LatitudeDegrees>
              <LongitudeDegrees>-0.695277862250804901123046875</LongitudeDegrees>
            </Position>
            <AltitudeMeters>180.1999969482421875</AltitudeMeters>
            <DistanceMeters>39760.132453849</DistanceMeters>
          </Trackpoint>
          <Trackpoint>
            <Time>2021-10-09T08:20:06.000Z</Time>
            <Position>
              <LatitudeDegrees>39.6205963008105754852294921875</LatitudeDegrees>
              <LongitudeDegrees>-0.69533653557300567626953125</LongitudeDegrees>
            </Position>
            <AltitudeMeters>180.399993896484375</AltitudeMeters>
            <DistanceMeters>39765.259495152</DistanceMeters>
          </Trackpoint>
          <Trackpoint>
            <Time>2021-10-09T08:20:07.000Z</Time>
            <Position>
              <LatitudeDegrees>39.62058314122259616851806640625</LatitudeDegrees>
              <LongitudeDegrees>-0.69539831019937992095947265625</LongitudeDegrees>
            </Position>
            <AltitudeMeters>180.399993896484375</AltitudeMeters>
            <DistanceMeters>39770.754636245</DistanceMeters>
          </Trackpoint>
          <Trackpoint>
            <Time>2021-10-09T08:20:08.000Z</Time>
            <Position>
              <LatitudeDegrees>39.62056755088269710540771484375</LatitudeDegrees>
              <LongitudeDegrees>-0.695461593568325042724609375</LongitudeDegrees>
            </Position>
            <AltitudeMeters>180.399993896484375</AltitudeMeters>
            <DistanceMeters>39776.45148579</DistanceMeters>
          </Trackpoint>
          <Trackpoint>
            <Time>2021-10-09T08:20:09.000Z</Time>
            <Position>
              <LatitudeDegrees>39.620550535619258880615234375</LatitudeDegrees>
              <LongitudeDegrees>-0.6955254636704921722412109375</LongitudeDegrees>
            </Position>
            <AltitudeMeters>180.399993896484375</AltitudeMeters>
            <DistanceMeters>39782.244998899</DistanceMeters>
          </Trackpoint>
          <Trackpoint>
            <Time>2021-10-09T08:20:10.000Z</Time>
            <Position>
              <LatitudeDegrees>39.62053402327001094818115234375</LatitudeDegrees>
              <LongitudeDegrees>-0.69559059105813503265380859375</LongitudeDegrees>
            </Position>
            <AltitudeMeters>180.399993896484375</AltitudeMeters>
            <DistanceMeters>39788.122844803</DistanceMeters>
          </Trackpoint>
          <Trackpoint>
            <Time>2021-10-09T08:20:11.000Z</Time>
            <Position>
              <LatitudeDegrees>39.620520360767841339111328125</LatitudeDegrees>
              <LongitudeDegrees>-0.6956558860838413238525390625</LongitudeDegrees>
            </Position>
            <AltitudeMeters>180.600006103515625</AltitudeMeters>
            <DistanceMeters>39793.92336761</DistanceMeters>
          </Trackpoint>
          <Trackpoint>
            <Time>2021-10-09T08:20:12.000Z</Time>
            <Position>
              <LatitudeDegrees>39.6205054409801959991455078125</LatitudeDegrees>
              <LongitudeDegrees>-0.6957226060330867767333984375</LongitudeDegrees>
            </Position>
            <AltitudeMeters>180.600006103515625</AltitudeMeters>
            <DistanceMeters>39799.880564973</DistanceMeters>
          </Trackpoint>
          <Trackpoint>
            <Time>2021-10-09T08:20:13.000Z</Time>
            <Position>
              <LatitudeDegrees>39.62049060501158237457275390625</LatitudeDegrees>
              <LongitudeDegrees>-0.695789158344268798828125</LongitudeDegrees>
            </Position>
            <AltitudeMeters>180.600006103515625</AltitudeMeters>
            <DistanceMeters>39805.820304754</DistanceMeters>
          </Trackpoint>
          <Trackpoint>
            <Time>2021-10-09T08:20:14.000Z</Time>
            <Position>
              <LatitudeDegrees>39.6204769425094127655029296875</LatitudeDegrees>
              <LongitudeDegrees>-0.69585629738867282867431640625</LongitudeDegrees>
            </Position>
            <AltitudeMeters>180.600006103515625</AltitudeMeters>
            <DistanceMeters>39811.774469693</DistanceMeters>
          </Trackpoint>
          <Trackpoint>
            <Time>2021-10-09T08:20:15.000Z</Time>
            <Position>
              <LatitudeDegrees>39.62046227417886257171630859375</LatitudeDegrees>
              <LongitudeDegrees>-0.69592251442372798919677734375</LongitudeDegrees>
            </Position>
            <AltitudeMeters>180.8000030517578125</AltitudeMeters>
            <DistanceMeters>39817.681432989</DistanceMeters>
          </Trackpoint>
          <Trackpoint>
            <Time>2021-10-09T08:20:16.000Z</Time>
            <Position>
              <LatitudeDegrees>39.62044752202928066253662109375</LatitudeDegrees>
              <LongitudeDegrees>-0.69598697125911712646484375</LongitudeDegrees>
            </Position>
            <AltitudeMeters>180.8000030517578125</AltitudeMeters>
            <DistanceMeters>39823.4460389</DistanceMeters>
          </Trackpoint>
          <Trackpoint>
            <Time>2021-10-09T08:20:17.000Z</Time>
            <Position>
              <LatitudeDegrees>39.62043276987969875335693359375</LatitudeDegrees>
              <LongitudeDegrees>-0.69604874588549137115478515625</LongitudeDegrees>
            </Position>
            <AltitudeMeters>181.1999969482421875</AltitudeMeters>
            <DistanceMeters>39828.990259334</DistanceMeters>
          </Trackpoint>
          <Trackpoint>
            <Time>2021-10-09T08:20:18.000Z</Time>
            <Position>
              <LatitudeDegrees>39.620416425168514251708984375</LatitudeDegrees>
              <LongitudeDegrees>-0.69611093960702419281005859375</LongitudeDegrees>
            </Position>
            <AltitudeMeters>181.399993896484375</AltitudeMeters>
            <DistanceMeters>39834.623348062</DistanceMeters>
          </Trackpoint>
          <Trackpoint>
            <Time>2021-10-09T08:20:19.000Z</Time>
            <Position>
              <LatitudeDegrees>39.620401673018932342529296875</LatitudeDegrees>
              <LongitudeDegrees>-0.69617330096662044525146484375</LongitudeDegrees>
            </Position>
            <AltitudeMeters>181.600006103515625</AltitudeMeters>
            <DistanceMeters>39840.216217165</DistanceMeters>
          </Trackpoint>
          <Trackpoint>
            <Time>2021-10-09T08:20:20.000Z</Time>
            <Position>
              <LatitudeDegrees>39.6203860826790332794189453125</LatitudeDegrees>
              <LongitudeDegrees>-0.69623666815459728240966796875</LongitudeDegrees>
            </Position>
            <AltitudeMeters>181.8000030517578125</AltitudeMeters>
            <DistanceMeters>39845.919403586</DistanceMeters>
          </Trackpoint>
          <Trackpoint>
            <Time>2021-10-09T08:20:21.000Z</Time>
            <Position>
              <LatitudeDegrees>39.62037124671041965484619140625</LatitudeDegrees>
              <LongitudeDegrees>-0.6962982751429080963134765625</LongitudeDegrees>
            </Position>
            <AltitudeMeters>181.8000030517578125</AltitudeMeters>
            <DistanceMeters>39851.45384297</DistanceMeters>
          </Trackpoint>
          <Trackpoint>
            <Time>2021-10-09T08:20:22.000Z</Time>
            <Position>
              <LatitudeDegrees>39.62035632692277431488037109375</LatitudeDegrees>
              <LongitudeDegrees>-0.69635854102671146392822265625</LongitudeDegrees>
            </Position>
            <AltitudeMeters>182</AltitudeMeters>
            <DistanceMeters>39856.881191251</DistanceMeters>
          </Trackpoint>
          <Trackpoint>
            <Time>2021-10-09T08:20:23.000Z</Time>
            <Position>
              <LatitudeDegrees>39.6203431673347949981689453125</LatitudeDegrees>
              <LongitudeDegrees>-0.6964193098247051239013671875</LongitudeDegrees>
            </Position>
            <AltitudeMeters>182.1999969482421875</AltitudeMeters>
            <DistanceMeters>39862.293544527</DistanceMeters>
          </Trackpoint>
          <Trackpoint>
            <Time>2021-10-09T08:20:24.000Z</Time>
            <Position>
              <LatitudeDegrees>39.620329923927783966064453125</LatitudeDegrees>
              <LongitudeDegrees>-0.69647848606109619140625</LongitudeDegrees>
            </Position>
            <AltitudeMeters>182.399993896484375</AltitudeMeters>
            <DistanceMeters>39867.576722197</DistanceMeters>
          </Trackpoint>
          <Trackpoint>
            <Time>2021-10-09T08:20:25.000Z</Time>
            <Position>
              <LatitudeDegrees>39.6203173510730266571044921875</LatitudeDegrees>
              <LongitudeDegrees>-0.69653690792620182037353515625</LongitudeDegrees>
            </Position>
            <AltitudeMeters>182.8000030517578125</AltitudeMeters>
            <DistanceMeters>39872.777210534</DistanceMeters>
          </Trackpoint>
          <Trackpoint>
            <Time>2021-10-09T08:20:26.000Z</Time>
            <Position>
              <LatitudeDegrees>39.62030318565666675567626953125</LatitudeDegrees>
              <LongitudeDegrees>-0.6965970061719417572021484375</LongitudeDegrees>
            </Position>
            <AltitudeMeters>182.8000030517578125</AltitudeMeters>
            <DistanceMeters>39878.164479387</DistanceMeters>
          </Trackpoint>
          <Trackpoint>
            <Time>2021-10-09T08:20:27.000Z</Time>
            <Position>
              <LatitudeDegrees>39.6202905289828777313232421875</LatitudeDegrees>
              <LongitudeDegrees>-0.6966568529605865478515625</LongitudeDegrees>
            </Position>
            <AltitudeMeters>183</AltitudeMeters>
            <DistanceMeters>39883.485975392</DistanceMeters>
          </Trackpoint>
          <Trackpoint>
            <Time>2021-10-09T08:20:28.000Z</Time>
            <Position>
              <LatitudeDegrees>39.62027636356651782989501953125</LatitudeDegrees>
              <LongitudeDegrees>-0.69671561010181903839111328125</LongitudeDegrees>
            </Position>
            <AltitudeMeters>183.1999969482421875</AltitudeMeters>
            <DistanceMeters>39888.764878299</DistanceMeters>
          </Trackpoint>
          <Trackpoint>
            <Time>2021-10-09T08:20:29.000Z</Time>
            <Position>
              <LatitudeDegrees>39.6202637068927288055419921875</LatitudeDegrees>
              <LongitudeDegrees>-0.69677310995757579803466796875</LongitudeDegrees>
            </Position>
            <AltitudeMeters>183.1999969482421875</AltitudeMeters>
            <DistanceMeters>39893.891919603</DistanceMeters>
          </Trackpoint>
          <Trackpoint>
            <Time>2021-10-09T08:20:30.000Z</Time>
            <Position>
              <LatitudeDegrees>39.62025239132344722747802734375</LatitudeDegrees>
              <LongitudeDegrees>-0.69682843051850795745849609375</LongitudeDegrees>
            </Position>
            <AltitudeMeters>183.1999969482421875</AltitudeMeters>
            <DistanceMeters>39898.798464599</DistanceMeters>
          </Trackpoint>
          <Trackpoint>
            <Time>2021-10-09T08:20:31.000Z</Time>
            <Position>
              <LatitudeDegrees>39.6202388964593410491943359375</LatitudeDegrees>
              <LongitudeDegrees>-0.69688618183135986328125</LongitudeDegrees>
            </Position>
            <AltitudeMeters>183.600006103515625</AltitudeMeters>
            <DistanceMeters>39903.972841533</DistanceMeters>
          </Trackpoint>
          <Trackpoint>
            <Time>2021-10-09T08:20:32.000Z</Time>
            <Position>
              <LatitudeDegrees>39.62022607214748859405517578125</LatitudeDegrees>
              <LongitudeDegrees>-0.69694451987743377685546875</LongitudeDegrees>
            </Position>
            <AltitudeMeters>183.8000030517578125</AltitudeMeters>
            <DistanceMeters>39909.174197993</DistanceMeters>
          </Trackpoint>
          <Trackpoint>
            <Time>2021-10-09T08:20:33.000Z</Time>
            <Position>
              <LatitudeDegrees>39.620212577283382415771484375</LatitudeDegrees>
              <LongitudeDegrees>-0.69700210355222225189208984375</LongitudeDegrees>
            </Position>
            <AltitudeMeters>184</AltitudeMeters>
            <DistanceMeters>39914.333719808</DistanceMeters>
          </Trackpoint>
          <Trackpoint>
            <Time>2021-10-09T08:20:34.000Z</Time>
            <Position>
              <LatitudeDegrees>39.62019874714314937591552734375</LatitudeDegrees>
              <LongitudeDegrees>-0.69706144742667675018310546875</LongitudeDegrees>
            </Position>
            <AltitudeMeters>184.1999969482421875</AltitudeMeters>
            <DistanceMeters>39919.648423856</DistanceMeters>
          </Trackpoint>
          <Trackpoint>
            <Time>2021-10-09T08:20:35.000Z</Time>
            <Position>
              <LatitudeDegrees>39.62018718011677265167236328125</LatitudeDegrees>
              <LongitudeDegrees>-0.69712230004370212554931640625</LongitudeDegrees>
            </Position>
            <AltitudeMeters>184.1999969482421875</AltitudeMeters>
            <DistanceMeters>39925.022266472</DistanceMeters>
          </Trackpoint>
          <Trackpoint>
            <Time>2021-10-09T08:20:36.000Z</Time>
            <Position>
              <LatitudeDegrees>39.62017360143363475799560546875</LatitudeDegrees>
              <LongitudeDegrees>-0.697182901203632354736328125</LongitudeDegrees>
            </Position>
            <AltitudeMeters>184.399993896484375</AltitudeMeters>
            <DistanceMeters>39930.432951071</DistanceMeters>
          </Trackpoint>
          <Trackpoint>
            <Time>2021-10-09T08:20:37.000Z</Time>
            <Position>
              <LatitudeDegrees>39.6201597712934017181396484375</LatitudeDegrees>
              <LongitudeDegrees>-0.69724316708743572235107421875</LongitudeDegrees>
            </Position>
            <AltitudeMeters>184.600006103515625</AltitudeMeters>
            <DistanceMeters>39935.824408766</DistanceMeters>
          </Trackpoint>
          <Trackpoint>
            <Time>2021-10-09T08:20:38.000Z</Time>
            <Position>
              <LatitudeDegrees>39.620146192610263824462890625</LatitudeDegrees>
              <LongitudeDegrees>-0.69730301387608051300048828125</LongitudeDegrees>
            </Position>
            <AltitudeMeters>185</AltitudeMeters>
            <DistanceMeters>39941.17298635</DistanceMeters>
          </Trackpoint>
          <Trackpoint>
            <Time>2021-10-09T08:20:39.000Z</Time>
            <Position>
              <LatitudeDegrees>39.62013286538422107696533203125</LatitudeDegrees>
              <LongitudeDegrees>-0.697361938655376434326171875</LongitudeDegrees>
            </Position>
            <AltitudeMeters>185.1999969482421875</AltitudeMeters>
            <DistanceMeters>39946.437329102</DistanceMeters>
          </Trackpoint>
          <Trackpoint>
            <Time>2021-10-09T08:20:40.000Z</Time>
            <Position>
              <LatitudeDegrees>39.62011962197721004486083984375</LatitudeDegrees>
              <LongitudeDegrees>-0.69742052815854549407958984375</LongitudeDegrees>
            </Position>
            <AltitudeMeters>185.399993896484375</AltitudeMeters>
            <DistanceMeters>39951.672430057</DistanceMeters>
          </Trackpoint>
          <Trackpoint>
            <Time>2021-10-09T08:20:41.000Z</Time>
            <Position>
              <LatitudeDegrees>39.62010738439857959747314453125</LatitudeDegrees>
              <LongitudeDegrees>-0.69747702218592166900634765625</LongitudeDegrees>
            </Position>
            <AltitudeMeters>185.8000030517578125</AltitudeMeters>
            <DistanceMeters>39956.70436153</DistanceMeters>
          </Trackpoint>
          <Trackpoint>
            <Time>2021-10-09T08:20:42.000Z</Time>
            <Position>
              <LatitudeDegrees>39.62009430862963199615478515625</LatitudeDegrees>
              <LongitudeDegrees>-0.69753200747072696685791015625</LongitudeDegrees>
            </Position>
            <AltitudeMeters>185.8000030517578125</AltitudeMeters>
            <DistanceMeters>39961.638435515</DistanceMeters>
          </Trackpoint>
          <Trackpoint>
            <Time>2021-10-09T08:20:43.000Z</Time>
            <Position>
              <LatitudeDegrees>39.62007955648005008697509765625</LatitudeDegrees>
              <LongitudeDegrees>-0.69758648984134197235107421875</LongitudeDegrees>
            </Position>
            <AltitudeMeters>186</AltitudeMeters>
            <DistanceMeters>39966.589865364</DistanceMeters>
          </Trackpoint>
          <Trackpoint>
            <Time>2021-10-09T08:20:44.000Z</Time>
            <Position>
              <LatitudeDegrees>39.6200665645301342010498046875</LatitudeDegrees>
              <LongitudeDegrees>-0.69764214567840099334716796875</LongitudeDegrees>
            </Position>
            <AltitudeMeters>186</AltitudeMeters>
            <DistanceMeters>39971.574920065</DistanceMeters>
          </Trackpoint>
          <Trackpoint>
            <Time>2021-10-09T08:20:45.000Z</Time>
            <Position>
              <LatitudeDegrees>39.62005206383764743804931640625</LatitudeDegrees>
              <LongitudeDegrees>-0.6976940296590328216552734375</LongitudeDegrees>
            </Position>
            <AltitudeMeters>186.399993896484375</AltitudeMeters>
            <DistanceMeters>39976.307212277</DistanceMeters>
          </Trackpoint>
          <Trackpoint>
            <Time>2021-10-09T08:20:46.000Z</Time>
            <Position>
              <LatitudeDegrees>39.62004133500158786773681640625</LatitudeDegrees>
              <LongitudeDegrees>-0.6977485120296478271484375</LongitudeDegrees>
            </Position>
            <AltitudeMeters>186.399993896484375</AltitudeMeters>
            <DistanceMeters>39981.12835496</DistanceMeters>
          </Trackpoint>
          <Trackpoint>
            <Time>2021-10-09T08:20:47.000Z</Time>
            <Position>
              <LatitudeDegrees>39.62002976797521114349365234375</LatitudeDegrees>
              <LongitudeDegrees>-0.6978043355047702789306640625</LongitudeDegrees>
            </Position>
            <AltitudeMeters>186.600006103515625</AltitudeMeters>
            <DistanceMeters>39986.084342039</DistanceMeters>
          </Trackpoint>
          <Trackpoint>
            <Time>2021-10-09T08:20:48.000Z</Time>
            <Position>
              <LatitudeDegrees>39.6200189553201198577880859375</LatitudeDegrees>
              <LongitudeDegrees>-0.69786108098924160003662109375</LongitudeDegrees>
            </Position>
            <AltitudeMeters>186.8000030517578125</AltitudeMeters>
            <DistanceMeters>39991.095593638</DistanceMeters>
          </Trackpoint>
          <Trackpoint>
            <Time>2021-10-09T08:20:49.000Z</Time>
            <Position>
              <LatitudeDegrees>39.6200082264840602874755859375</LatitudeDegrees>
              <LongitudeDegrees>-0.697917155921459197998046875</LongitudeDegrees>
            </Position>
            <AltitudeMeters>187</AltitudeMeters>
            <DistanceMeters>39996.049758328</DistanceMeters>
          </Trackpoint>
          <Trackpoint>
            <Time>2021-10-09T08:20:50.000Z</Time>
            <Position>
              <LatitudeDegrees>39.61999624036252498626708984375</LatitudeDegrees>
              <LongitudeDegrees>-0.697972811758518218994140625</LongitudeDegrees>
            </Position>
            <AltitudeMeters>187.1999969482421875</AltitudeMeters>
            <DistanceMeters>40001.003923018</DistanceMeters>
          </Trackpoint>
          <Trackpoint>
            <Time>2021-10-09T08:20:51.000Z</Time>
            <Position>
              <LatitudeDegrees>39.619983248412609100341796875</LatitudeDegrees>
              <LongitudeDegrees>-0.698029138147830963134765625</LongitudeDegrees>
            </Position>
            <AltitudeMeters>187.399993896484375</AltitudeMeters>
            <DistanceMeters>40006.044819279</DistanceMeters>
          </Trackpoint>
          <Trackpoint>
            <Time>2021-10-09T08:20:52.000Z</Time>
            <Position>
              <LatitudeDegrees>39.619972519576549530029296875</LatitudeDegrees>
              <LongitudeDegrees>-0.69808554835617542266845703125</LongitudeDegrees>
            </Position>
            <AltitudeMeters>187.600006103515625</AltitudeMeters>
            <DistanceMeters>40011.026249803</DistanceMeters>
          </Trackpoint>
          <Trackpoint>
            <Time>2021-10-09T08:20:53.000Z</Time>
            <Position>
              <LatitudeDegrees>39.61996522732079029083251953125</LatitudeDegrees>
              <LongitudeDegrees>-0.69814103655517101287841796875</LongitudeDegrees>
            </Position>
            <AltitudeMeters>187.8000030517578125</AltitudeMeters>
            <DistanceMeters>40015.851137063</DistanceMeters>
          </Trackpoint>
          <Trackpoint>
            <Time>2021-10-09T08:20:54.000Z</Time>
            <Position>
              <LatitudeDegrees>39.6199575997889041900634765625</LatitudeDegrees>
              <LongitudeDegrees>-0.698196776211261749267578125</LongitudeDegrees>
            </Position>
            <AltitudeMeters>188</AltitudeMeters>
            <DistanceMeters>40020.704016555</DistanceMeters>
          </Trackpoint>
          <Trackpoint>
            <Time>2021-10-09T08:20:55.000Z</Time>
            <Position>
              <LatitudeDegrees>39.619950391352176666259765625</LatitudeDegrees>
              <LongitudeDegrees>-0.69825469516217708587646484375</LongitudeDegrees>
            </Position>
            <AltitudeMeters>188.1999969482421875</AltitudeMeters>
            <DistanceMeters>40025.733255476</DistanceMeters>
          </Trackpoint>
          <Trackpoint>
            <Time>2021-10-09T08:20:56.000Z</Time>
            <Position>
              <LatitudeDegrees>39.61994494311511516571044921875</LatitudeDegrees>
              <LongitudeDegrees>-0.69831336848437786102294921875</LongitudeDegrees>
            </Position>
            <AltitudeMeters>188.399993896484375</AltitudeMeters>
            <DistanceMeters>40030.799168745</DistanceMeters>
          </Trackpoint>
          <Trackpoint>
            <Time>2021-10-09T08:20:57.000Z</Time>
            <Position>
              <LatitudeDegrees>39.61994058452546596527099609375</LatitudeDegrees>
              <LongitudeDegrees>-0.69837237708270549774169921875</LongitudeDegrees>
            </Position>
            <AltitudeMeters>188.8000030517578125</AltitudeMeters>
            <DistanceMeters>40035.881099346</DistanceMeters>
          </Trackpoint>
          <Trackpoint>
            <Time>2021-10-09T08:20:58.000Z</Time>
            <Position>
              <LatitudeDegrees>39.61993572302162647247314453125</LatitudeDegrees>
              <LongitudeDegrees>-0.69843105040490627288818359375</LongitudeDegrees>
            </Position>
            <AltitudeMeters>189</AltitudeMeters>
            <DistanceMeters>40040.939877523</DistanceMeters>
          </Trackpoint>
          <Trackpoint>
            <Time>2021-10-09T08:20:59.000Z</Time>
            <Position>
              <LatitudeDegrees>39.61992868222296237945556640625</LatitudeDegrees>
              <LongitudeDegrees>-0.69849223829805850982666015625</LongitudeDegrees>
            </Position>
            <AltitudeMeters>189.1999969482421875</AltitudeMeters>
            <DistanceMeters>40046.244377329</DistanceMeters>
          </Trackpoint>
          <Trackpoint>
            <Time>2021-10-09T08:21:00.000Z</Time>
            <Position>
              <LatitudeDegrees>39.61992532946169376373291015625</LatitudeDegrees>
              <LongitudeDegrees>-0.6985540129244327545166015625</LongitudeDegrees>
            </Position>
            <AltitudeMeters>189.1999969482421875</AltitudeMeters>
            <DistanceMeters>40051.553981708</DistanceMeters>
          </Trackpoint>
          <Trackpoint>
            <Time>2021-10-09T08:21:01.000Z</Time>
            <Position>
              <LatitudeDegrees>39.61992415599524974822998046875</LatitudeDegrees>
              <LongitudeDegrees>-0.69861310534179210662841796875</LongitudeDegrees>
            </Position>
            <AltitudeMeters>189.399993896484375</AltitudeMeters>
            <DistanceMeters>40056.621677181</DistanceMeters>
          </Trackpoint>
          <Trackpoint>
            <Time>2021-10-09T08:21:02.000Z</Time>
            <Position>
              <LatitudeDegrees>39.61992532946169376373291015625</LatitudeDegrees>
              <LongitudeDegrees>-0.69867311976850032806396484375</LongitudeDegrees>
            </Position>
            <AltitudeMeters>189.600006103515625</AltitudeMeters>
            <DistanceMeters>40061.768933177</DistanceMeters>
          </Trackpoint>
          <Trackpoint>
            <Time>2021-10-09T08:21:03.000Z</Time>
            <Position>
              <LatitudeDegrees>39.61992918513715267181396484375</LatitudeDegrees>
              <LongitudeDegrees>-0.6987320445477962493896484375</LongitudeDegrees>
            </Position>
            <AltitudeMeters>189.600006103515625</AltitudeMeters>
            <DistanceMeters>40066.838410227</DistanceMeters>
          </Trackpoint>
          <Trackpoint>
            <Time>2021-10-09T08:21:04.000Z</Time>
            <Position>
              <LatitudeDegrees>39.61993203498423099517822265625</LatitudeDegrees>
              <LongitudeDegrees>-0.698789544403553009033203125</LongitudeDegrees>
            </Position>
            <AltitudeMeters>189.8000030517578125</AltitudeMeters>
            <DistanceMeters>40071.777971599</DistanceMeters>
          </Trackpoint>
          <Trackpoint>
            <Time>2021-10-09T08:21:05.000Z</Time>
            <Position>
              <LatitudeDegrees>39.6199358068406581878662109375</LatitudeDegrees>
              <LongitudeDegrees>-0.69884662516415119171142578125</LongitudeDegrees>
            </Position>
            <AltitudeMeters>190</AltitudeMeters>
            <DistanceMeters>40076.690034736</DistanceMeters>
          </Trackpoint>
          <Trackpoint>
            <Time>2021-10-09T08:21:06.000Z</Time>
            <Position>
              <LatitudeDegrees>39.61994133889675140380859375</LatitudeDegrees>
              <LongitudeDegrees>-0.6989152729511260986328125</LongitudeDegrees>
            </Position>
            <AltitudeMeters>190.1999969482421875</AltitudeMeters>
            <DistanceMeters>40082.607689377</DistanceMeters>
          </Trackpoint>
          <Trackpoint>
            <Time>2021-10-09T08:21:07.000Z</Time>
            <Position>
              <LatitudeDegrees>39.61994343437254428863525390625</LatitudeDegrees>
              <LongitudeDegrees>-0.69896154105663299560546875</LongitudeDegrees>
            </Position>
            <AltitudeMeters>190.399993896484375</AltitudeMeters>
            <DistanceMeters>40086.582942045</DistanceMeters>
          </Trackpoint>
          <Trackpoint>
            <Time>2021-10-09T08:21:08.000Z</Time>
            <Position>
              <LatitudeDegrees>39.61994762532413005828857421875</LatitudeDegrees>
              <LongitudeDegrees>-0.69901744835078716278076171875</LongitudeDegrees>
            </Position>
            <AltitudeMeters>190.600006103515625</AltitudeMeters>
            <DistanceMeters>40091.398462402</DistanceMeters>
          </Trackpoint>
          <Trackpoint>
            <Time>2021-10-09T08:21:09.000Z</Time>
            <Position>
              <LatitudeDegrees>39.61995072662830352783203125</LatitudeDegrees>
              <LongitudeDegrees>-0.69907285273075103759765625</LongitudeDegrees>
            </Position>
            <AltitudeMeters>190.8000030517578125</AltitudeMeters>
            <DistanceMeters>40096.161187675</DistanceMeters>
          </Trackpoint>
          <Trackpoint>
            <Time>2021-10-09T08:21:10.000Z</Time>
            <Position>
              <LatitudeDegrees>39.61995567195117473602294921875</LatitudeDegrees>
              <LongitudeDegrees>-0.69913127459585666656494140625</LongitudeDegrees>
            </Position>
            <AltitudeMeters>191</AltitudeMeters>
            <DistanceMeters>40101.200292254</DistanceMeters>
          </Trackpoint>
          <Trackpoint>
            <Time>2021-10-09T08:21:11.000Z</Time>
            <Position>
              <LatitudeDegrees>39.61996070109307765960693359375</LatitudeDegrees>
              <LongitudeDegrees>-0.69918927736580371856689453125</LongitudeDegrees>
            </Position>
            <AltitudeMeters>191.1999969482421875</AltitudeMeters>
            <DistanceMeters>40106.205233019</DistanceMeters>
          </Trackpoint>
          <Trackpoint>
            <Time>2021-10-09T08:21:12.000Z</Time>
            <Position>
              <LatitudeDegrees>39.619965814054012298583984375</LatitudeDegrees>
              <LongitudeDegrees>-0.69924728013575077056884765625</LongitudeDegrees>
            </Position>
            <AltitudeMeters>191.1999969482421875</AltitudeMeters>
            <DistanceMeters>40111.210173783</DistanceMeters>
          </Trackpoint>
          <Trackpoint>
            <Time>2021-10-09T08:21:13.000Z</Time>
            <Position>
              <LatitudeDegrees>39.61997277103364467620849609375</LatitudeDegrees>
              <LongitudeDegrees>-0.699305199086666107177734375</LongitudeDegrees>
            </Position>
            <AltitudeMeters>191.399993896484375</AltitudeMeters>
            <DistanceMeters>40116.236718709</DistanceMeters>
          </Trackpoint>
          <Trackpoint>
            <Time>2021-10-09T08:21:14.000Z</Time>
            <Position>
              <LatitudeDegrees>39.6199793927371501922607421875</LatitudeDegrees>
              <LongitudeDegrees>-0.699364207684993743896484375</LongitudeDegrees>
            </Position>
            <AltitudeMeters>191.399993896484375</AltitudeMeters>
            <DistanceMeters>40121.349650481</DistanceMeters>
          </Trackpoint>
          <Trackpoint>
            <Time>2021-10-09T08:21:15.000Z</Time>
            <Position>
              <LatitudeDegrees>39.61998450569808483123779296875</LatitudeDegrees>
              <LongitudeDegrees>-0.6994235515594482421875</LongitudeDegrees>
            </Position>
            <AltitudeMeters>191.600006103515625</AltitudeMeters>
            <DistanceMeters>40126.468759958</DistanceMeters>
          </Trackpoint>
          <Trackpoint>
            <Time>2021-10-09T08:21:16.000Z</Time>
            <Position>
              <LatitudeDegrees>39.61998936720192432403564453125</LatitudeDegrees>
              <LongitudeDegrees>-0.6994810514152050018310546875</LongitudeDegrees>
            </Position>
            <AltitudeMeters>192</AltitudeMeters>
            <DistanceMeters>40131.428389806</DistanceMeters>
          </Trackpoint>
          <Trackpoint>
            <Time>2021-10-09T08:21:17.000Z</Time>
            <Position>
              <LatitudeDegrees>39.61999288760125637054443359375</LatitudeDegrees>
              <LongitudeDegrees>-0.69953964091837406158447265625</LongitudeDegrees>
            </Position>
            <AltitudeMeters>192</AltitudeMeters>
            <DistanceMeters>40136.467494386</DistanceMeters>
          </Trackpoint>
          <Trackpoint>
            <Time>2021-10-09T08:21:18.000Z</Time>
            <Position>
              <LatitudeDegrees>39.61999766528606414794921875</LatitudeDegrees>
              <LongitudeDegrees>-0.69959722459316253662109375</LongitudeDegrees>
            </Position>
            <AltitudeMeters>192.1999969482421875</AltitudeMeters>
            <DistanceMeters>40141.433492651</DistanceMeters>
          </Trackpoint>
          <Trackpoint>
            <Time>2021-10-09T08:21:19.000Z</Time>
            <Position>
              <LatitudeDegrees>39.620003364980220794677734375</LatitudeDegrees>
              <LongitudeDegrees>-0.699655227363109588623046875</LongitudeDegrees>
            </Position>
            <AltitudeMeters>192.399993896484375</AltitudeMeters>
            <DistanceMeters>40146.445645149</DistanceMeters>
          </Trackpoint>
          <Trackpoint>
            <Time>2021-10-09T08:21:20.000Z</Time>
            <Position>
              <LatitudeDegrees>39.62000814266502857208251953125</LatitudeDegrees>
              <LongitudeDegrees>-0.6997144035995006561279296875</LongitudeDegrees>
            </Position>
            <AltitudeMeters>192.399993896484375</AltitudeMeters>
            <DistanceMeters>40151.546199064</DistanceMeters>
          </Trackpoint>
          <Trackpoint>
            <Time>2021-10-09T08:21:21.000Z</Time>
            <Position>
              <LatitudeDegrees>39.62001384235918521881103515625</LatitudeDegrees>
              <LongitudeDegrees>-0.6997730769217014312744140625</LongitudeDegrees>
            </Position>
            <AltitudeMeters>192.600006103515625</AltitudeMeters>
            <DistanceMeters>40156.615676114</DistanceMeters>
          </Trackpoint>
          <Trackpoint>
            <Time>2021-10-09T08:21:22.000Z</Time>
            <Position>
              <LatitudeDegrees>39.62001920677721500396728515625</LatitudeDegrees>
              <LongitudeDegrees>-0.69982965476810932159423828125</LongitudeDegrees>
            </Position>
            <AltitudeMeters>192.8000030517578125</AltitudeMeters>
            <DistanceMeters>40161.501934612</DistanceMeters>
          </Trackpoint>
          <Trackpoint>
            <Time>2021-10-09T08:21:23.000Z</Time>
            <Position>
              <LatitudeDegrees>39.6200256608426570892333984375</LatitudeDegrees>
              <LongitudeDegrees>-0.69988422095775604248046875</LongitudeDegrees>
            </Position>
            <AltitudeMeters>193</AltitudeMeters>
            <DistanceMeters>40166.234226825</DistanceMeters>
          </Trackpoint>
          <Trackpoint>
            <Time>2021-10-09T08:21:24.000Z</Time>
            <Position>
              <LatitudeDegrees>39.62003144435584545135498046875</LatitudeDegrees>
              <LongitudeDegrees>-0.69994130171835422515869140625</LongitudeDegrees>
            </Position>
            <AltitudeMeters>193</AltitudeMeters>
            <DistanceMeters>40171.170130617</DistanceMeters>
          </Trackpoint>
          <Trackpoint>
            <Time>2021-10-09T08:21:25.000Z</Time>
            <Position>
              <LatitudeDegrees>39.6200370602309703826904296875</LatitudeDegrees>
              <LongitudeDegrees>-0.69999796338379383087158203125</LongitudeDegrees>
            </Position>
            <AltitudeMeters>193.600006103515625</AltitudeMeters>
            <DistanceMeters>40176.067464895</DistanceMeters>
          </Trackpoint>
          <Trackpoint>
            <Time>2021-10-09T08:21:26.000Z</Time>
            <Position>
              <LatitudeDegrees>39.62004301138222217559814453125</LatitudeDegrees>
              <LongitudeDegrees>-0.70005546323955059051513671875</LongitudeDegrees>
            </Position>
            <AltitudeMeters>193.600006103515625</AltitudeMeters>
            <DistanceMeters>40181.041639144</DistanceMeters>
          </Trackpoint>
          <Trackpoint>
            <Time>2021-10-09T08:21:27.000Z</Time>
            <Position>
              <LatitudeDegrees>39.6200481243431568145751953125</LatitudeDegrees>
              <LongitudeDegrees>-0.70011229254305362701416015625</LongitudeDegrees>
            </Position>
            <AltitudeMeters>194</AltitudeMeters>
            <DistanceMeters>40185.94818414</DistanceMeters>
          </Trackpoint>
          <Trackpoint>
            <Time>2021-10-09T08:21:28.000Z</Time>
            <Position>
              <LatitudeDegrees>39.6200531534850597381591796875</LatitudeDegrees>
              <LongitudeDegrees>-0.7001690380275249481201171875</LongitudeDegrees>
            </Position>
            <AltitudeMeters>194.1999969482421875</AltitudeMeters>
            <DistanceMeters>40190.845518419</DistanceMeters>
          </Trackpoint>
          <Trackpoint>
            <Time>2021-10-09T08:21:29.000Z</Time>
            <Position>
              <LatitudeDegrees>39.62005927227437496185302734375</LatitudeDegrees>
              <LongitudeDegrees>-0.70022595115005970001220703125</LongitudeDegrees>
            </Position>
            <AltitudeMeters>194.399993896484375</AltitudeMeters>
            <DistanceMeters>40195.772266381</DistanceMeters>
          </Trackpoint>
          <Trackpoint>
            <Time>2021-10-09T08:21:30.000Z</Time>
            <Position>
              <LatitudeDegrees>39.620065726339817047119140625</LatitudeDegrees>
              <LongitudeDegrees>-0.7002818584442138671875</LongitudeDegrees>
            </Position>
            <AltitudeMeters>194.399993896484375</AltitudeMeters>
            <DistanceMeters>40200.619560358</DistanceMeters>
          </Trackpoint>
          <Trackpoint>
            <Time>2021-10-09T08:21:31.000Z</Time>
            <Position>
              <LatitudeDegrees>39.620070420205593109130859375</LatitudeDegrees>
              <LongitudeDegrees>-0.70033625699579715728759765625</LongitudeDegrees>
            </Position>
            <AltitudeMeters>194.600006103515625</AltitudeMeters>
            <DistanceMeters>40205.313533784</DistanceMeters>
          </Trackpoint>
          <Trackpoint>
            <Time>2021-10-09T08:21:32.000Z</Time>
            <Position>
              <LatitudeDegrees>39.62007419206202030181884765625</LatitudeDegrees>
              <LongitudeDegrees>-0.70039593614637851715087890625</LongitudeDegrees>
            </Position>
            <AltitudeMeters>194.600006103515625</AltitudeMeters>
            <DistanceMeters>40210.447615313</DistanceMeters>
          </Trackpoint>
          <Trackpoint>
            <Time>2021-10-09T08:21:33.000Z</Time>
            <Position>
              <LatitudeDegrees>39.620079137384891510009765625</LatitudeDegrees>
              <LongitudeDegrees>-0.70045276544988155364990234375</LongitudeDegrees>
            </Position>
            <AltitudeMeters>194.600006103515625</AltitudeMeters>
            <DistanceMeters>40215.352319549</DistanceMeters>
          </Trackpoint>
          <Trackpoint>
            <Time>2021-10-09T08:21:34.000Z</Time>
            <Position>
              <LatitudeDegrees>39.6200850047171115875244140625</LatitudeDegrees>
              <LongitudeDegrees>-0.70050858892500400543212890625</LongitudeDegrees>
            </Position>
            <AltitudeMeters>194.8000030517578125</AltitudeMeters>
            <DistanceMeters>40220.182818233</DistanceMeters>
          </Trackpoint>
          <Trackpoint>
            <Time>2021-10-09T08:21:35.000Z</Time>
            <Position>
              <LatitudeDegrees>39.620091207325458526611328125</LatitudeDegrees>
              <LongitudeDegrees>-0.70056458003818988800048828125</LongitudeDegrees>
            </Position>
            <AltitudeMeters>194.8000030517578125</AltitudeMeters>
            <DistanceMeters>40225.031974763</DistanceMeters>
          </Trackpoint>
          <Trackpoint>
            <Time>2021-10-09T08:21:36.000Z</Time>
            <Position>
              <LatitudeDegrees>39.62009598501026630401611328125</LatitudeDegrees>
              <LongitudeDegrees>-0.70062140934169292449951171875</LongitudeDegrees>
            </Position>
            <AltitudeMeters>195.1999969482421875</AltitudeMeters>
            <DistanceMeters>40229.932995406</DistanceMeters>
          </Trackpoint>
          <Trackpoint>
            <Time>2021-10-09T08:21:37.000Z</Time>
            <Position>
              <LatitudeDegrees>39.62010235525667667388916015625</LatitudeDegrees>
              <LongitudeDegrees>-0.7006779871881008148193359375</LongitudeDegrees>
            </Position>
            <AltitudeMeters>195.600006103515625</AltitudeMeters>
            <DistanceMeters>40234.834016049</DistanceMeters>
          </Trackpoint>
          <Trackpoint>
            <Time>2021-10-09T08:21:38.000Z</Time>
            <Position>
              <LatitudeDegrees>39.62010671384632587432861328125</LatitudeDegrees>
              <LongitudeDegrees>-0.70073506794869899749755859375</LongitudeDegrees>
            </Position>
            <AltitudeMeters>195.8000030517578125</AltitudeMeters>
            <DistanceMeters>40239.751591134</DistanceMeters>
          </Trackpoint>
          <Trackpoint>
            <Time>2021-10-09T08:21:39.000Z</Time>
            <Position>
              <LatitudeDegrees>39.62010989896953105926513671875</LatitudeDegrees>
              <LongitudeDegrees>-0.70079139433801174163818359375</LongitudeDegrees>
            </Position>
            <AltitudeMeters>196</AltitudeMeters>
            <DistanceMeters>40244.593293154</DistanceMeters>
          </Trackpoint>
          <Trackpoint>
            <Time>2021-10-09T08:21:40.000Z</Time>
            <Position>
              <LatitudeDegrees>39.62011300027370452880859375</LatitudeDegrees>
              <LongitudeDegrees>-0.70084738545119762420654296875</LongitudeDegrees>
            </Position>
            <AltitudeMeters>196.1999969482421875</AltitudeMeters>
            <DistanceMeters>40249.405999885</DistanceMeters>
          </Trackpoint>
          <Trackpoint>
            <Time>2021-10-09T08:21:41.000Z</Time>
            <Position>
              <LatitudeDegrees>39.620116017758846282958984375</LatitudeDegrees>
              <LongitudeDegrees>-0.7009046338498592376708984375</LongitudeDegrees>
            </Position>
            <AltitudeMeters>196.399993896484375</AltitudeMeters>
            <DistanceMeters>40254.325410914</DistanceMeters>
          </Trackpoint>
          <Trackpoint>
            <Time>2021-10-09T08:21:42.000Z</Time>
            <Position>
              <LatitudeDegrees>39.62011702358722686767578125</LatitudeDegrees>
              <LongitudeDegrees>-0.700960457324981689453125</LongitudeDegrees>
            </Position>
            <AltitudeMeters>196.399993896484375</AltitudeMeters>
            <DistanceMeters>40259.112720598</DistanceMeters>
          </Trackpoint>
          <Trackpoint>
            <Time>2021-10-09T08:21:43.000Z</Time>
            <Position>
              <LatitudeDegrees>39.62011643685400485992431640625</LatitudeDegrees>
              <LongitudeDegrees>-0.7010156102478504180908203125</LongitudeDegrees>
            </Position>
            <AltitudeMeters>196.600006103515625</AltitudeMeters>
            <DistanceMeters>40263.841194905</DistanceMeters>
          </Trackpoint>
          <Trackpoint>
            <Time>2021-10-09T08:21:44.000Z</Time>
            <Position>
              <LatitudeDegrees>39.620116017758846282958984375</LatitudeDegrees>
              <LongitudeDegrees>-0.70106900297105312347412109375</LongitudeDegrees>
            </Position>
            <AltitudeMeters>197</AltitudeMeters>
            <DistanceMeters>40268.42026004</DistanceMeters>
          </Trackpoint>
          <Trackpoint>
            <Time>2021-10-09T08:21:45.000Z</Time>
            <Position>
              <LatitudeDegrees>39.620116017758846282958984375</LatitudeDegrees>
              <LongitudeDegrees>-0.70112197659909725189208984375</LongitudeDegrees>
            </Position>
            <AltitudeMeters>197</AltitudeMeters>
            <DistanceMeters>40272.961701947</DistanceMeters>
          </Trackpoint>
          <Trackpoint>
            <Time>2021-10-09T08:21:46.000Z</Time>
            <Position>
              <LatitudeDegrees>39.620115347206592559814453125</LatitudeDegrees>
              <LongitudeDegrees>-0.7011765427887439727783203125</LongitudeDegrees>
            </Position>
            <AltitudeMeters>197.1999969482421875</AltitudeMeters>
            <DistanceMeters>40277.640259983</DistanceMeters>
          </Trackpoint>
          <Trackpoint>
            <Time>2021-10-09T08:21:47.000Z</Time>
            <Position>
              <LatitudeDegrees>39.62011291645467281341552734375</LatitudeDegrees>
              <LongitudeDegrees>-0.70123203098773956298828125</LongitudeDegrees>
            </Position>
            <AltitudeMeters>197.399993896484375</AltitudeMeters>
            <DistanceMeters>40282.404880869</DistanceMeters>
          </Trackpoint>
          <Trackpoint>
            <Time>2021-10-09T08:21:48.000Z</Time>
            <Position>
              <LatitudeDegrees>39.62011040188372135162353515625</LatitudeDegrees>
              <LongitudeDegrees>-0.7012890279293060302734375</LongitudeDegrees>
            </Position>
            <AltitudeMeters>197.8000030517578125</AltitudeMeters>
            <DistanceMeters>40287.300370924</DistanceMeters>
          </Trackpoint>
          <Trackpoint>
            <Time>2021-10-09T08:21:49.000Z</Time>
            <Position>
              <LatitudeDegrees>39.620107300579547882080078125</LatitudeDegrees>
              <LongitudeDegrees>-0.7013455219566822052001953125</LongitudeDegrees>
            </Position>
            <AltitudeMeters>198</AltitudeMeters>
            <DistanceMeters>40292.156970524</DistanceMeters>
          </Trackpoint>
          <Trackpoint>
            <Time>2021-10-09T08:21:50.000Z</Time>
            <Position>
              <LatitudeDegrees>39.62010352872312068939208984375</LatitudeDegrees>
              <LongitudeDegrees>-0.70140360854566097259521484375</LongitudeDegrees>
            </Position>
            <AltitudeMeters>198.1999969482421875</AltitudeMeters>
            <DistanceMeters>40297.156495661</DistanceMeters>
          </Trackpoint>
          <Trackpoint>
            <Time>2021-10-09T08:21:51.000Z</Time>
            <Position>
              <LatitudeDegrees>39.62009766139090061187744140625</LatitudeDegrees>
              <LongitudeDegrees>-0.70146010257303714752197265625</LongitudeDegrees>
            </Position>
            <AltitudeMeters>198.399993896484375</AltitudeMeters>
            <DistanceMeters>40302.0436781</DistanceMeters>
          </Trackpoint>
          <Trackpoint>
            <Time>2021-10-09T08:21:52.000Z</Time>
            <Position>
              <LatitudeDegrees>39.62008827365934848785400390625</LatitudeDegrees>
              <LongitudeDegrees>-0.70151659660041332244873046875</LongitudeDegrees>
            </Position>
            <AltitudeMeters>198.600006103515625</AltitudeMeters>
            <DistanceMeters>40306.998754068</DistanceMeters>
          </Trackpoint>
          <Trackpoint>
            <Time>2021-10-09T08:21:53.000Z</Time>
            <Position>
              <LatitudeDegrees>39.62007788009941577911376953125</LatitudeDegrees>
              <LongitudeDegrees>-0.701573006808757781982421875</LongitudeDegrees>
            </Position>
            <AltitudeMeters>198.8000030517578125</AltitudeMeters>
            <DistanceMeters>40311.971112593</DistanceMeters>
          </Trackpoint>
          <Trackpoint>
            <Time>2021-10-09T08:21:54.000Z</Time>
            <Position>
              <LatitudeDegrees>39.62006933055818080902099609375</LatitudeDegrees>
              <LongitudeDegrees>-0.7016288302838802337646484375</LongitudeDegrees>
            </Position>
            <AltitudeMeters>199</AltitudeMeters>
            <DistanceMeters>40316.850898612</DistanceMeters>
          </Trackpoint>
          <Trackpoint>
            <Time>2021-10-09T08:21:55.000Z</Time>
            <Position>
              <LatitudeDegrees>39.62006044574081897735595703125</LatitudeDegrees>
              <LongitudeDegrees>-0.70168456993997097015380859375</LongitudeDegrees>
            </Position>
            <AltitudeMeters>199.1999969482421875</AltitudeMeters>
            <DistanceMeters>40321.731609795</DistanceMeters>
          </Trackpoint>
          <Trackpoint>
            <Time>2021-10-09T08:21:56.000Z</Time>
            <Position>
              <LatitudeDegrees>39.62005130946636199951171875</LatitudeDegrees>
              <LongitudeDegrees>-0.701740644872188568115234375</LongitudeDegrees>
            </Position>
            <AltitudeMeters>199.399993896484375</AltitudeMeters>
            <DistanceMeters>40326.645510935</DistanceMeters>
          </Trackpoint>
          <Trackpoint>
            <Time>2021-10-09T08:21:57.000Z</Time>
            <Position>
              <LatitudeDegrees>39.6200424246490001678466796875</LatitudeDegrees>
              <LongitudeDegrees>-0.70179537869989871978759765625</LongitudeDegrees>
            </Position>
            <AltitudeMeters>199.8000030517578125</AltitudeMeters>
            <DistanceMeters>40331.442242612</DistanceMeters>
          </Trackpoint>
          <Trackpoint>
            <Time>2021-10-09T08:21:58.000Z</Time>
            <Position>
              <LatitudeDegrees>39.6200340427458286285400390625</LatitudeDegrees>
              <LongitudeDegrees>-0.70184969343245029449462890625</LongitudeDegrees>
            </Position>
            <AltitudeMeters>200</AltitudeMeters>
            <DistanceMeters>40336.18977574</DistanceMeters>
          </Trackpoint>
          <Trackpoint>
            <Time>2021-10-09T08:21:59.000Z</Time>
            <Position>
              <LatitudeDegrees>39.62002574466168880462646484375</LatitudeDegrees>
              <LongitudeDegrees>-0.70190316997468471527099609375</LongitudeDegrees>
            </Position>
            <AltitudeMeters>200.1999969482421875</AltitudeMeters>
            <DistanceMeters>40340.86640328</DistanceMeters>
          </Trackpoint>
          <Trackpoint>
            <Time>2021-10-09T08:22:00.000Z</Time>
            <Position>
              <LatitudeDegrees>39.62001669220626354217529296875</LatitudeDegrees>
              <LongitudeDegrees>-0.70195580832660198211669921875</LongitudeDegrees>
            </Position>
            <AltitudeMeters>200.600006103515625</AltitudeMeters>
            <DistanceMeters>40345.49060278</DistanceMeters>
          </Trackpoint>
          <Trackpoint>
            <Time>2021-10-09T08:22:01.000Z</Time>
            <Position>
              <LatitudeDegrees>39.6200072206556797027587890625</LatitudeDegrees>
              <LongitudeDegrees>-0.702008865773677825927734375</LongitudeDegrees>
            </Position>
            <AltitudeMeters>200.8000030517578125</AltitudeMeters>
            <DistanceMeters>40350.161434044</DistanceMeters>
          </Trackpoint>
          <Trackpoint>
            <Time>2021-10-09T08:22:02.000Z</Time>
            <Position>
              <LatitudeDegrees>39.619998671114444732666015625</LatitudeDegrees>
              <LongitudeDegrees>-0.70206074975430965423583984375</LongitudeDegrees>
            </Position>
            <AltitudeMeters>201</AltitudeMeters>
            <DistanceMeters>40354.708837155</DistanceMeters>
          </Trackpoint>
          <Trackpoint>
            <Time>2021-10-09T08:22:03.000Z</Time>
            <Position>
              <LatitudeDegrees>39.61999003775417804718017578125</LatitudeDegrees>
              <LongitudeDegrees>-0.702112130820751190185546875</LongitudeDegrees>
            </Position>
            <AltitudeMeters>201</AltitudeMeters>
            <DistanceMeters>40359.218352889</DistanceMeters>
          </Trackpoint>
          <Trackpoint>
            <Time>2021-10-09T08:22:04.000Z</Time>
            <Position>
              <LatitudeDegrees>39.61998232640326023101806640625</LatitudeDegrees>
              <LongitudeDegrees>-0.702166445553302764892578125</LongitudeDegrees>
            </Position>
            <AltitudeMeters>201.399993896484375</AltitudeMeters>
            <DistanceMeters>40363.953506509</DistanceMeters>
          </Trackpoint>
          <Trackpoint>
            <Time>2021-10-09T08:22:05.000Z</Time>
            <Position>
              <LatitudeDegrees>39.61997763253748416900634765625</LatitudeDegrees>
              <LongitudeDegrees>-0.7022189162671566009521484375</LongitudeDegrees>
            </Position>
            <AltitudeMeters>201.8000030517578125</AltitudeMeters>
            <DistanceMeters>40368.483002472</DistanceMeters>
          </Trackpoint>
          <Trackpoint>
            <Time>2021-10-09T08:22:06.000Z</Time>
            <Position>
              <LatitudeDegrees>39.619973860681056976318359375</LatitudeDegrees>
              <LongitudeDegrees>-0.70226744748651981353759765625</LongitudeDegrees>
            </Position>
            <AltitudeMeters>202</AltitudeMeters>
            <DistanceMeters>40372.664177905</DistanceMeters>
          </Trackpoint>
          <Trackpoint>
            <Time>2021-10-09T08:22:07.000Z</Time>
            <Position>
              <LatitudeDegrees>39.61996388621628284454345703125</LatitudeDegrees>
              <LongitudeDegrees>-0.70232008583843708038330078125</LongitudeDegrees>
            </Position>
            <AltitudeMeters>202.1999969482421875</AltitudeMeters>
            <DistanceMeters>40377.311751772</DistanceMeters>
          </Trackpoint>
          <Trackpoint>
            <Time>2021-10-09T08:22:08.000Z</Time>
            <Position>
              <LatitudeDegrees>39.61995215155184268951416015625</LatitudeDegrees>
              <LongitudeDegrees>-0.702370963990688323974609375</LongitudeDegrees>
            </Position>
            <AltitudeMeters>202.399993896484375</AltitudeMeters>
            <DistanceMeters>40381.865108283</DistanceMeters>
          </Trackpoint>
          <Trackpoint>
            <Time>2021-10-09T08:22:09.000Z</Time>
            <Position>
              <LatitudeDegrees>39.61994360201060771942138671875</LatitudeDegrees>
              <LongitudeDegrees>-0.70242536254227161407470703125</LongitudeDegrees>
            </Position>
            <AltitudeMeters>202.600006103515625</AltitudeMeters>
            <DistanceMeters>40386.624988722</DistanceMeters>
          </Trackpoint>
          <Trackpoint>
            <Time>2021-10-09T08:22:10.000Z</Time>
            <Position>
              <LatitudeDegrees>39.61993605829775333404541015625</LatitudeDegrees>
              <LongitudeDegrees>-0.70248328149318695068359375</LongitudeDegrees>
            </Position>
            <AltitudeMeters>202.600006103515625</AltitudeMeters>
            <DistanceMeters>40391.660508026</DistanceMeters>
          </Trackpoint>
          <Trackpoint>
            <Time>2021-10-09T08:22:11.000Z</Time>
            <Position>
              <LatitudeDegrees>39.6199270896613597869873046875</LatitudeDegrees>
              <LongitudeDegrees>-0.70254103280603885650634765625</LongitudeDegrees>
            </Position>
            <AltitudeMeters>203</AltitudeMeters>
            <DistanceMeters>40396.711247175</DistanceMeters>
          </Trackpoint>
          <Trackpoint>
            <Time>2021-10-09T08:22:12.000Z</Time>
            <Position>
              <LatitudeDegrees>39.61991786956787109375</LatitudeDegrees>
              <LongitudeDegrees>-0.7025987841188907623291015625</LongitudeDegrees>
            </Position>
            <AltitudeMeters>203.399993896484375</AltitudeMeters>
            <DistanceMeters>40401.768240006</DistanceMeters>
          </Trackpoint>
          <Trackpoint>
            <Time>2021-10-09T08:22:13.000Z</Time>
            <Position>
              <LatitudeDegrees>39.6199057996273040771484375</LatitudeDegrees>
              <LongitudeDegrees>-0.7026557810604572296142578125</LongitudeDegrees>
            </Position>
            <AltitudeMeters>203.600006103515625</AltitudeMeters>
            <DistanceMeters>40406.836826345</DistanceMeters>
          </Trackpoint>
          <Trackpoint>
            <Time>2021-10-09T08:22:14.000Z</Time>
            <Position>
              <LatitudeDegrees>39.6198955737054347991943359375</LatitudeDegrees>
              <LongitudeDegrees>-0.70271017961204051971435546875</LongitudeDegrees>
            </Position>
            <AltitudeMeters>204</AltitudeMeters>
            <DistanceMeters>40411.638262085</DistanceMeters>
          </Trackpoint>
          <Trackpoint>
            <Time>2021-10-09T08:22:15.000Z</Time>
            <Position>
              <LatitudeDegrees>39.61988409049808979034423828125</LatitudeDegrees>
              <LongitudeDegrees>-0.7027617283165454864501953125</LongitudeDegrees>
            </Position>
            <AltitudeMeters>204</AltitudeMeters>
            <DistanceMeters>40416.238968464</DistanceMeters>
          </Trackpoint>
          <Trackpoint>
            <Time>2021-10-09T08:22:16.000Z</Time>
            <Position>
              <LatitudeDegrees>39.6198721043765544891357421875</LatitudeDegrees>
              <LongitudeDegrees>-0.70281059481203556060791015625</LongitudeDegrees>
            </Position>
            <AltitudeMeters>204.1999969482421875</AltitudeMeters>
            <DistanceMeters>40420.636970708</DistanceMeters>
          </Trackpoint>
          <Trackpoint>
            <Time>2021-10-09T08:22:17.000Z</Time>
            <Position>
              <LatitudeDegrees>39.6198596991598606109619140625</LatitudeDegrees>
              <LongitudeDegrees>-0.7028589583933353424072265625</LongitudeDegrees>
            </Position>
            <AltitudeMeters>204.399993896484375</AltitudeMeters>
            <DistanceMeters>40425.007166548</DistanceMeters>
          </Trackpoint>
          <Trackpoint>
            <Time>2021-10-09T08:22:18.000Z</Time>
            <Position>
              <LatitudeDegrees>39.6198482997715473175048828125</LatitudeDegrees>
              <LongitudeDegrees>-0.70290816016495227813720703125</LongitudeDegrees>
            </Position>
            <AltitudeMeters>204.8000030517578125</AltitudeMeters>
            <DistanceMeters>40429.412349209</DistanceMeters>
          </Trackpoint>
          <Trackpoint>
            <Time>2021-10-09T08:22:19.000Z</Time>
            <Position>
              <LatitudeDegrees>39.61983715184032917022705078125</LatitudeDegrees>
              <LongitudeDegrees>-0.702956020832061767578125</LongitudeDegrees>
            </Position>
            <AltitudeMeters>205</AltitudeMeters>
            <DistanceMeters>40433.698043492</DistanceMeters>
          </Trackpoint>
          <Trackpoint>
            <Time>2021-10-09T08:22:20.000Z</Time>
            <Position>
              <LatitudeDegrees>39.61982508189976215362548828125</LatitudeDegrees>
              <LongitudeDegrees>-0.7030034624040126800537109375</LongitudeDegrees>
            </Position>
            <AltitudeMeters>205.1999969482421875</AltitudeMeters>
            <DistanceMeters>40437.98163023</DistanceMeters>
          </Trackpoint>
          <Trackpoint>
            <Time>2021-10-09T08:22:21.000Z</Time>
            <Position>
              <LatitudeDegrees>39.6198137663304805755615234375</LatitudeDegrees>
              <LongitudeDegrees>-0.70305098779499530792236328125</LongitudeDegrees>
            </Position>
            <AltitudeMeters>205.399993896484375</AltitudeMeters>
            <DistanceMeters>40442.247260785</DistanceMeters>
          </Trackpoint>
          <Trackpoint>
            <Time>2021-10-09T08:22:22.000Z</Time>
            <Position>
              <LatitudeDegrees>39.61980178020894527435302734375</LatitudeDegrees>
              <LongitudeDegrees>-0.70309557951986789703369140625</LongitudeDegrees>
            </Position>
            <AltitudeMeters>205.600006103515625</AltitudeMeters>
            <DistanceMeters>40446.297896401</DistanceMeters>
          </Trackpoint>
          <Trackpoint>
            <Time>2021-10-09T08:22:23.000Z</Time>
            <Position>
              <LatitudeDegrees>39.619785435497760772705078125</LatitudeDegrees>
              <LongitudeDegrees>-0.70313908159732818603515625</LongitudeDegrees>
            </Position>
            <AltitudeMeters>206</AltitudeMeters>
            <DistanceMeters>40450.447638054</DistanceMeters>
          </Trackpoint>
          <Trackpoint>
            <Time>2021-10-09T08:22:24.000Z</Time>
            <Position>
              <LatitudeDegrees>39.6197681687772274017333984375</LatitudeDegrees>
              <LongitudeDegrees>-0.70318040437996387481689453125</LongitudeDegrees>
            </Position>
            <AltitudeMeters>206</AltitudeMeters>
            <DistanceMeters>40454.477039677</DistanceMeters>
          </Trackpoint>
          <Trackpoint>
            <Time>2021-10-09T08:22:25.000Z</Time>
            <Position>
              <LatitudeDegrees>39.61974780075252056121826171875</LatitudeDegrees>
              <LongitudeDegrees>-0.70322147570550441741943359375</LongitudeDegrees>
            </Position>
            <AltitudeMeters>206.1999969482421875</AltitudeMeters>
            <DistanceMeters>40458.663610873</DistanceMeters>
          </Trackpoint>
          <Trackpoint>
            <Time>2021-10-09T08:22:26.000Z</Time>
            <Position>
              <LatitudeDegrees>39.61972533725202083587646484375</LatitudeDegrees>
              <LongitudeDegrees>-0.7032606191933155059814453125</LongitudeDegrees>
            </Position>
            <AltitudeMeters>206.600006103515625</AltitudeMeters>
            <DistanceMeters>40462.849103473</DistanceMeters>
          </Trackpoint>
          <Trackpoint>
            <Time>2021-10-09T08:22:27.000Z</Time>
            <Position>
              <LatitudeDegrees>39.6197001077234745025634765625</LatitudeDegrees>
              <LongitudeDegrees>-0.70329942740499973297119140625</LongitudeDegrees>
            </Position>
            <AltitudeMeters>206.600006103515625</AltitudeMeters>
            <DistanceMeters>40467.203774589</DistanceMeters>
          </Trackpoint>
          <Trackpoint>
            <Time>2021-10-09T08:22:28.000Z</Time>
            <Position>
              <LatitudeDegrees>39.6196712739765644073486328125</LatitudeDegrees>
              <LongitudeDegrees>-0.703345946967601776123046875</LongitudeDegrees>
            </Position>
            <AltitudeMeters>207</AltitudeMeters>
            <DistanceMeters>40472.323765987</DistanceMeters>
          </Trackpoint>
          <Trackpoint>
            <Time>2021-10-09T08:22:29.000Z</Time>
            <Position>
              <LatitudeDegrees>39.61965207941830158233642578125</LatitudeDegrees>
              <LongitudeDegrees>-0.70337687619030475616455078125</LongitudeDegrees>
            </Position>
            <AltitudeMeters>207</AltitudeMeters>
            <DistanceMeters>40475.728853087</DistanceMeters>
          </Trackpoint>
          <Trackpoint>
            <Time>2021-10-09T08:22:30.000Z</Time>
            <Position>
              <LatitudeDegrees>39.61962659843266010284423828125</LatitudeDegrees>
              <LongitudeDegrees>-0.70341534912586212158203125</LongitudeDegrees>
            </Position>
            <AltitudeMeters>207.399993896484375</AltitudeMeters>
            <DistanceMeters>40480.07937492</DistanceMeters>
          </Trackpoint>
          <Trackpoint>
            <Time>2021-10-09T08:22:31.000Z</Time>
            <Position>
              <LatitudeDegrees>39.61960312910377979278564453125</LatitudeDegrees>
              <LongitudeDegrees>-0.70345155894756317138671875</LongitudeDegrees>
            </Position>
            <AltitudeMeters>207.600006103515625</AltitudeMeters>
            <DistanceMeters>40484.136692921</DistanceMeters>
          </Trackpoint>
          <Trackpoint>
            <Time>2021-10-09T08:22:32.000Z</Time>
            <Position>
              <LatitudeDegrees>39.61957999505102634429931640625</LatitudeDegrees>
              <LongitudeDegrees>-0.7034899480640888214111328125</LongitudeDegrees>
            </Position>
            <AltitudeMeters>208.399993896484375</AltitudeMeters>
            <DistanceMeters>40488.315708097</DistanceMeters>
          </Trackpoint>
          <Trackpoint>
            <Time>2021-10-09T08:22:33.000Z</Time>
            <Position>
              <LatitudeDegrees>39.61955786682665348052978515625</LatitudeDegrees>
              <LongitudeDegrees>-0.70353060029447078704833984375</LongitudeDegrees>
            </Position>
            <AltitudeMeters>208.600006103515625</AltitudeMeters>
            <DistanceMeters>40492.58239699</DistanceMeters>
          </Trackpoint>
          <Trackpoint>
            <Time>2021-10-09T08:22:34.000Z</Time>
            <Position>
              <LatitudeDegrees>39.61953691206872463226318359375</LatitudeDegrees>
              <LongitudeDegrees>-0.7035730965435504913330078125</LongitudeDegrees>
            </Position>
            <AltitudeMeters>209</AltitudeMeters>
            <DistanceMeters>40496.908983228</DistanceMeters>
          </Trackpoint>
          <Trackpoint>
            <Time>2021-10-09T08:22:35.000Z</Time>
            <Position>
              <LatitudeDegrees>39.61951629258692264556884765625</LatitudeDegrees>
              <LongitudeDegrees>-0.7036140002310276031494140625</LongitudeDegrees>
            </Position>
            <AltitudeMeters>209.399993896484375</AltitudeMeters>
            <DistanceMeters>40501.098788546</DistanceMeters>
          </Trackpoint>
          <Trackpoint>
            <Time>2021-10-09T08:22:36.000Z</Time>
            <Position>
              <LatitudeDegrees>39.619494415819644927978515625</LatitudeDegrees>
              <LongitudeDegrees>-0.703653395175933837890625</LongitudeDegrees>
            </Position>
            <AltitudeMeters>209.399993896484375</AltitudeMeters>
            <DistanceMeters>40505.261566068</DistanceMeters>
          </Trackpoint>
          <Trackpoint>
            <Time>2021-10-09T08:22:37.000Z</Time>
            <Position>
              <LatitudeDegrees>39.61947203613817691802978515625</LatitudeDegrees>
              <LongitudeDegrees>-0.703691951930522918701171875</LongitudeDegrees>
            </Position>
            <AltitudeMeters>209.8000030517578125</AltitudeMeters>
            <DistanceMeters>40509.400413131</DistanceMeters>
          </Trackpoint>
          <Trackpoint>
            <Time>2021-10-09T08:22:38.000Z</Time>
            <Position>
              <LatitudeDegrees>39.619448818266391754150390625</LatitudeDegrees>
              <LongitudeDegrees>-0.70373159833252429962158203125</LongitudeDegrees>
            </Position>
            <AltitudeMeters>210</AltitudeMeters>
            <DistanceMeters>40513.670275464</DistanceMeters>
          </Trackpoint>
          <Trackpoint>
            <Time>2021-10-09T08:22:39.000Z</Time>
            <Position>
              <LatitudeDegrees>39.619424007833003997802734375</LatitudeDegrees>
              <LongitudeDegrees>-0.7037682272493839263916015625</LongitudeDegrees>
            </Position>
            <AltitudeMeters>210.399993896484375</AltitudeMeters>
            <DistanceMeters>40517.852530606</DistanceMeters>
          </Trackpoint>
          <Trackpoint>
            <Time>2021-10-09T08:22:40.000Z</Time>
            <Position>
              <LatitudeDegrees>39.6193997003138065338134765625</LatitudeDegrees>
              <LongitudeDegrees>-0.70380963385105133056640625</LongitudeDegrees>
            </Position>
            <AltitudeMeters>210.600006103515625</AltitudeMeters>
            <DistanceMeters>40522.315752383</DistanceMeters>
          </Trackpoint>
          <Trackpoint>
            <Time>2021-10-09T08:22:41.000Z</Time>
            <Position>
              <LatitudeDegrees>39.6193762309849262237548828125</LatitudeDegrees>
              <LongitudeDegrees>-0.7038510404527187347412109375</LongitudeDegrees>
            </Position>
            <AltitudeMeters>211</AltitudeMeters>
            <DistanceMeters>40526.724008786</DistanceMeters>
          </Trackpoint>
          <Trackpoint>
            <Time>2021-10-09T08:22:42.000Z</Time>
            <Position>
              <LatitudeDegrees>39.619348905980587005615234375</LatitudeDegrees>
              <LongitudeDegrees>-0.703888423740863800048828125</LongitudeDegrees>
            </Position>
            <AltitudeMeters>211.399993896484375</AltitudeMeters>
            <DistanceMeters>40531.142495548</DistanceMeters>
          </Trackpoint>
          <Trackpoint>
            <Time>2021-10-09T08:22:43.000Z</Time>
            <Position>
              <LatitudeDegrees>39.6193183958530426025390625</LatitudeDegrees>
              <LongitudeDegrees>-0.70392622612416744232177734375</LongitudeDegrees>
            </Position>
            <AltitudeMeters>211.600006103515625</AltitudeMeters>
            <DistanceMeters>40535.836468974</DistanceMeters>
          </Trackpoint>
          <Trackpoint>
            <Time>2021-10-09T08:22:44.000Z</Time>
            <Position>
              <LatitudeDegrees>39.61929299868643283843994140625</LatitudeDegrees>
              <LongitudeDegrees>-0.70397048257291316986083984375</LongitudeDegrees>
            </Position>
            <AltitudeMeters>212.1999969482421875</AltitudeMeters>
            <DistanceMeters>40540.566852619</DistanceMeters>
          </Trackpoint>
          <Trackpoint>
            <Time>2021-10-09T08:22:45.000Z</Time>
            <Position>
              <LatitudeDegrees>39.619271121919155120849609375</LatitudeDegrees>
              <LongitudeDegrees>-0.7040190137922763824462890625</LongitudeDegrees>
            </Position>
            <AltitudeMeters>212.399993896484375</AltitudeMeters>
            <DistanceMeters>40545.387995302</DistanceMeters>
          </Trackpoint>
          <Trackpoint>
            <Time>2021-10-09T08:22:46.000Z</Time>
            <Position>
              <LatitudeDegrees>39.61924798786640167236328125</LatitudeDegrees>
              <LongitudeDegrees>-0.70406653918325901031494140625</LongitudeDegrees>
            </Position>
            <AltitudeMeters>212.600006103515625</AltitudeMeters>
            <DistanceMeters>40550.209137984</DistanceMeters>
          </Trackpoint>
          <Trackpoint>
            <Time>2021-10-09T08:22:47.000Z</Time>
            <Position>
              <LatitudeDegrees>39.61922527290880680084228515625</LatitudeDegrees>
              <LongitudeDegrees>-0.7041118852794170379638671875</LongitudeDegrees>
            </Position>
            <AltitudeMeters>212.8000030517578125</AltitudeMeters>
            <DistanceMeters>40554.846986849</DistanceMeters>
          </Trackpoint>
          <Trackpoint>
            <Time>2021-10-09T08:22:48.000Z</Time>
            <Position>
              <LatitudeDegrees>39.61920239031314849853515625</LatitudeDegrees>
              <LongitudeDegrees>-0.704155974090099334716796875</LongitudeDegrees>
            </Position>
            <AltitudeMeters>212.8000030517578125</AltitudeMeters>
            <DistanceMeters>40559.404307972</DistanceMeters>
          </Trackpoint>
          <Trackpoint>
            <Time>2021-10-09T08:22:49.000Z</Time>
            <Position>
              <LatitudeDegrees>39.619178585708141326904296875</LatitudeDegrees>
              <LongitudeDegrees>-0.70420618169009685516357421875</LongitudeDegrees>
            </Position>
            <AltitudeMeters>213</AltitudeMeters>
            <DistanceMeters>40564.459514826</DistanceMeters>
          </Trackpoint>
          <Trackpoint>
            <Time>2021-10-09T08:22:50.000Z</Time>
            <Position>
              <LatitudeDegrees>39.619157128036022186279296875</LatitudeDegrees>
              <LongitudeDegrees>-0.70425563491880893707275390625</LongitudeDegrees>
            </Position>
            <AltitudeMeters>213</AltitudeMeters>
            <DistanceMeters>40569.326330059</DistanceMeters>
          </Trackpoint>
          <Trackpoint>
            <Time>2021-10-09T08:22:51.000Z</Time>
            <Position>
              <LatitudeDegrees>39.61913743056356906890869140625</LatitudeDegrees>
              <LongitudeDegrees>-0.704304836690425872802734375</LongitudeDegrees>
            </Position>
            <AltitudeMeters>213.600006103515625</AltitudeMeters>
            <DistanceMeters>40574.080515724</DistanceMeters>
          </Trackpoint>
          <Trackpoint>
            <Time>2021-10-09T08:22:52.000Z</Time>
            <Position>
              <LatitudeDegrees>39.6191207505762577056884765625</LatitudeDegrees>
              <LongitudeDegrees>-0.7043526135385036468505859375</LongitudeDegrees>
            </Position>
            <AltitudeMeters>213.8000030517578125</AltitudeMeters>
            <DistanceMeters>40578.57599246</DistanceMeters>
          </Trackpoint>
          <Trackpoint>
            <Time>2021-10-09T08:22:53.000Z</Time>
            <Position>
              <LatitudeDegrees>39.61910574696958065032958984375</LatitudeDegrees>
              <LongitudeDegrees>-0.70439997129142284393310546875</LongitudeDegrees>
            </Position>
            <AltitudeMeters>214.1999969482421875</AltitudeMeters>
            <DistanceMeters>40582.965774133</DistanceMeters>
          </Trackpoint>
          <Trackpoint>
            <Time>2021-10-09T08:22:54.000Z</Time>
            <Position>
              <LatitudeDegrees>39.61909376084804534912109375</LatitudeDegrees>
              <LongitudeDegrees>-0.7044485025107860565185546875</LongitudeDegrees>
            </Position>
            <AltitudeMeters>214.399993896484375</AltitudeMeters>
            <DistanceMeters>40587.335969972</DistanceMeters>
          </Trackpoint>
          <Trackpoint>
            <Time>2021-10-09T08:22:55.000Z</Time>
            <Position>
              <LatitudeDegrees>39.6190831996500492095947265625</LatitudeDegrees>
              <LongitudeDegrees>-0.7044974528253078460693359375</LongitudeDegrees>
            </Position>
            <AltitudeMeters>214.600006103515625</AltitudeMeters>
            <DistanceMeters>40591.692714248</DistanceMeters>
          </Trackpoint>
          <Trackpoint>
            <Time>2021-10-09T08:22:56.000Z</Time>
            <Position>
              <LatitudeDegrees>39.61907356046140193939208984375</LatitudeDegrees>
              <LongitudeDegrees>-0.70454631932079792022705078125</LongitudeDegrees>
            </Position>
            <AltitudeMeters>215</AltitudeMeters>
            <DistanceMeters>40596.018256803</DistanceMeters>
          </Trackpoint>
          <Trackpoint>
            <Time>2021-10-09T08:22:57.000Z</Time>
            <Position>
              <LatitudeDegrees>39.61906417272984981536865234375</LatitudeDegrees>
              <LongitudeDegrees>-0.70459761656820774078369140625</LongitudeDegrees>
            </Position>
            <AltitudeMeters>215.1999969482421875</AltitudeMeters>
            <DistanceMeters>40600.539771269</DistanceMeters>
          </Trackpoint>
          <Trackpoint>
            <Time>2021-10-09T08:22:58.000Z</Time>
            <Position>
              <LatitudeDegrees>39.61905729956924915313720703125</LatitudeDegrees>
              <LongitudeDegrees>-0.7046496681869029998779296875</LongitudeDegrees>
            </Position>
            <AltitudeMeters>215.600006103515625</AltitudeMeters>
            <DistanceMeters>40605.069267232</DistanceMeters>
          </Trackpoint>
          <Trackpoint>
            <Time>2021-10-09T08:22:59.000Z</Time>
            <Position>
              <LatitudeDegrees>39.619053862988948822021484375</LatitudeDegrees>
              <LongitudeDegrees>-0.70470012724399566650390625</LongitudeDegrees>
            </Position>
            <AltitudeMeters>215.600006103515625</AltitudeMeters>
            <DistanceMeters>40609.413557712</DistanceMeters>
          </Trackpoint>
          <Trackpoint>
            <Time>2021-10-09T08:23:00.000Z</Time>
            <Position>
              <LatitudeDegrees>39.61905444972217082977294921875</LatitudeDegrees>
              <LongitudeDegrees>-0.704763829708099365234375</LongitudeDegrees>
            </Position>
            <AltitudeMeters>216.1999969482421875</AltitudeMeters>
            <DistanceMeters>40614.875734253</DistanceMeters>
          </Trackpoint>
          <Trackpoint>
            <Time>2021-10-09T08:23:01.000Z</Time>
            <Position>
              <LatitudeDegrees>39.6190557070076465606689453125</LatitudeDegrees>
              <LongitudeDegrees>-0.7048054039478302001953125</LongitudeDegrees>
            </Position>
            <AltitudeMeters>216.600006103515625</AltitudeMeters>
            <DistanceMeters>40618.443984214</DistanceMeters>
          </Trackpoint>
          <Trackpoint>
            <Time>2021-10-09T08:23:02.000Z</Time>
            <Position>
              <LatitudeDegrees>39.61905755102634429931640625</LatitudeDegrees>
              <LongitudeDegrees>-0.70485963486135005950927734375</LongitudeDegrees>
            </Position>
            <AltitudeMeters>217</AltitudeMeters>
            <DistanceMeters>40623.097383328</DistanceMeters>
          </Trackpoint>
          <Trackpoint>
            <Time>2021-10-09T08:23:03.000Z</Time>
            <Position>
              <LatitudeDegrees>39.61906023323535919189453125</LatitudeDegrees>
              <LongitudeDegrees>-0.70491470396518707275390625</LongitudeDegrees>
            </Position>
            <AltitudeMeters>217.399993896484375</AltitudeMeters>
            <DistanceMeters>40627.827766973</DistanceMeters>
          </Trackpoint>
          <Trackpoint>
            <Time>2021-10-09T08:23:04.000Z</Time>
            <Position>
              <LatitudeDegrees>39.6190640889108180999755859375</LatitudeDegrees>
              <LongitudeDegrees>-0.7049711979925632476806640625</LongitudeDegrees>
            </Position>
            <AltitudeMeters>217.600006103515625</AltitudeMeters>
            <DistanceMeters>40632.690869913</DistanceMeters>
          </Trackpoint>
          <Trackpoint>
            <Time>2021-10-09T08:23:05.000Z</Time>
            <Position>
              <LatitudeDegrees>39.61906936950981616973876953125</LatitudeDegrees>
              <LongitudeDegrees>-0.7050258480012416839599609375</LongitudeDegrees>
            </Position>
            <AltitudeMeters>217.8000030517578125</AltitudeMeters>
            <DistanceMeters>40637.413611577</DistanceMeters>
          </Trackpoint>
          <Trackpoint>
            <Time>2021-10-09T08:23:06.000Z</Time>
            <Position>
              <LatitudeDegrees>39.61907339282333850860595703125</LatitudeDegrees>
              <LongitudeDegrees>-0.70508209057152271270751953125</LongitudeDegrees>
            </Position>
            <AltitudeMeters>217.8000030517578125</AltitudeMeters>
            <DistanceMeters>40642.2571783</DistanceMeters>
          </Trackpoint>
          <Trackpoint>
            <Time>2021-10-09T08:23:07.000Z</Time>
            <Position>
              <LatitudeDegrees>39.61907490156590938568115234375</LatitudeDegrees>
              <LongitudeDegrees>-0.70513925515115261077880859375</LongitudeDegrees>
            </Position>
            <AltitudeMeters>218</AltitudeMeters>
            <DistanceMeters>40647.160961897</DistanceMeters>
          </Trackpoint>
          <Trackpoint>
            <Time>2021-10-09T08:23:08.000Z</Time>
            <Position>
              <LatitudeDegrees>39.61907842196524143218994140625</LatitudeDegrees>
              <LongitudeDegrees>-0.7051944918930530548095703125</LongitudeDegrees>
            </Position>
            <AltitudeMeters>218</AltitudeMeters>
            <DistanceMeters>40651.913247788</DistanceMeters>
          </Trackpoint>
          <Trackpoint>
            <Time>2021-10-09T08:23:09.000Z</Time>
            <Position>
              <LatitudeDegrees>39.6190831996500492095947265625</LatitudeDegrees>
              <LongitudeDegrees>-0.70526246912777423858642578125</LongitudeDegrees>
            </Position>
            <AltitudeMeters>218.1999969482421875</AltitudeMeters>
            <DistanceMeters>40657.764918479</DistanceMeters>
          </Trackpoint>
          <Trackpoint>
            <Time>2021-10-09T08:23:10.000Z</Time>
            <Position>
              <LatitudeDegrees>39.6190875582396984100341796875</LatitudeDegrees>
              <LongitudeDegrees>-0.705307982861995697021484375</LongitudeDegrees>
            </Position>
            <AltitudeMeters>218.1999969482421875</AltitudeMeters>
            <DistanceMeters>40661.696774385</DistanceMeters>
          </Trackpoint>
          <Trackpoint>
            <Time>2021-10-09T08:23:11.000Z</Time>
            <Position>
              <LatitudeDegrees>39.61909233592450618743896484375</LatitudeDegrees>
              <LongitudeDegrees>-0.70536439307034015655517578125</LongitudeDegrees>
            </Position>
            <AltitudeMeters>218.1999969482421875</AltitudeMeters>
            <DistanceMeters>40666.560805664</DistanceMeters>
          </Trackpoint>
          <Trackpoint>
            <Time>2021-10-09T08:23:12.000Z</Time>
            <Position>
              <LatitudeDegrees>39.61909585632383823394775390625</LatitudeDegrees>
              <LongitudeDegrees>-0.705420635640621185302734375</LongitudeDegrees>
            </Position>
            <AltitudeMeters>218.399993896484375</AltitudeMeters>
            <DistanceMeters>40671.398776121</DistanceMeters>
          </Trackpoint>
          <Trackpoint>
            <Time>2021-10-09T08:23:13.000Z</Time>
            <Position>
              <LatitudeDegrees>39.6191002987325191497802734375</LatitudeDegrees>
              <LongitudeDegrees>-0.70547453127801418304443359375</LongitudeDegrees>
            </Position>
            <AltitudeMeters>218.399993896484375</AltitudeMeters>
            <DistanceMeters>40676.046349989</DistanceMeters>
          </Trackpoint>
          <Trackpoint>
            <Time>2021-10-09T08:23:14.000Z</Time>
            <Position>
              <LatitudeDegrees>39.61910457350313663482666015625</LatitudeDegrees>
              <LongitudeDegrees>-0.705530941486358642578125</LongitudeDegrees>
            </Position>
            <AltitudeMeters>218.8000030517578125</AltitudeMeters>
            <DistanceMeters>40680.906666849</DistanceMeters>
          </Trackpoint>
          <Trackpoint>
            <Time>2021-10-09T08:23:15.000Z</Time>
            <Position>
              <LatitudeDegrees>39.6191120333969593048095703125</LatitudeDegrees>
              <LongitudeDegrees>-0.70558835752308368682861328125</LongitudeDegrees>
            </Position>
            <AltitudeMeters>219</AltitudeMeters>
            <DistanceMeters>40685.89986633</DistanceMeters>
          </Trackpoint>
          <Trackpoint>
            <Time>2021-10-09T08:23:16.000Z</Time>
            <Position>
              <LatitudeDegrees>39.61911731399595737457275390625</LatitudeDegrees>
              <LongitudeDegrees>-0.7056467793881893157958984375</LongitudeDegrees>
            </Position>
            <AltitudeMeters>219.399993896484375</AltitudeMeters>
            <DistanceMeters>40690.942553636</DistanceMeters>
          </Trackpoint>
          <Trackpoint>
            <Time>2021-10-09T08:23:17.000Z</Time>
            <Position>
              <LatitudeDegrees>39.619122929871082305908203125</LatitudeDegrees>
              <LongitudeDegrees>-0.70570721291005611419677734375</LongitudeDegrees>
            </Position>
            <AltitudeMeters>219.399993896484375</AltitudeMeters>
            <DistanceMeters>40696.161242222</DistanceMeters>
          </Trackpoint>
          <Trackpoint>
            <Time>2021-10-09T08:23:18.000Z</Time>
            <Position>
              <LatitudeDegrees>39.6191277913749217987060546875</LatitudeDegrees>
              <LongitudeDegrees>-0.7057683169841766357421875</LongitudeDegrees>
            </Position>
            <AltitudeMeters>219.600006103515625</AltitudeMeters>
            <DistanceMeters>40701.428157338</DistanceMeters>
          </Trackpoint>
          <Trackpoint>
            <Time>2021-10-09T08:23:19.000Z</Time>
            <Position>
              <LatitudeDegrees>39.61913290433585643768310546875</LatitudeDegrees>
              <LongitudeDegrees>-0.70582791231572628021240234375</LongitudeDegrees>
            </Position>
            <AltitudeMeters>219.600006103515625</AltitudeMeters>
            <DistanceMeters>40706.56926945</DistanceMeters>
          </Trackpoint>
          <Trackpoint>
            <Time>2021-10-09T08:23:20.000Z</Time>
            <Position>
              <LatitudeDegrees>39.61913726292550563812255859375</LatitudeDegrees>
              <LongitudeDegrees>-0.70588566362857818603515625</LongitudeDegrees>
            </Position>
            <AltitudeMeters>219.600006103515625</AltitudeMeters>
            <DistanceMeters>40711.543443699</DistanceMeters>
          </Trackpoint>
          <Trackpoint>
            <Time>2021-10-09T08:23:21.000Z</Time>
            <Position>
              <LatitudeDegrees>39.619142711162567138671875</LatitudeDegrees>
              <LongitudeDegrees>-0.70594467222690582275390625</LongitudeDegrees>
            </Position>
            <AltitudeMeters>219.600006103515625</AltitudeMeters>
            <DistanceMeters>40716.638683612</DistanceMeters>
          </Trackpoint>
          <Trackpoint>
            <Time>2021-10-09T08:23:22.000Z</Time>
            <Position>
              <LatitudeDegrees>39.61914740502834320068359375</LatitudeDegrees>
              <LongitudeDegrees>-0.7060045190155506134033203125</LongitudeDegrees>
            </Position>
            <AltitudeMeters>219.600006103515625</AltitudeMeters>
            <DistanceMeters>40721.797330264</DistanceMeters>
          </Trackpoint>
          <Trackpoint>
            <Time>2021-10-09T08:23:23.000Z</Time>
            <Position>
              <LatitudeDegrees>39.619151763617992401123046875</LatitudeDegrees>
              <LongitudeDegrees>-0.70606444962322711944580078125</LongitudeDegrees>
            </Position>
            <AltitudeMeters>219.600006103515625</AltitudeMeters>
            <DistanceMeters>40726.956852079</DistanceMeters>
          </Trackpoint>
          <Trackpoint>
            <Time>2021-10-09T08:23:24.000Z</Time>
            <Position>
              <LatitudeDegrees>39.61915553547441959381103515625</LatitudeDegrees>
              <LongitudeDegrees>-0.70612563751637935638427734375</LongitudeDegrees>
            </Position>
            <AltitudeMeters>219.600006103515625</AltitudeMeters>
            <DistanceMeters>40732.219479223</DistanceMeters>
          </Trackpoint>
          <Trackpoint>
            <Time>2021-10-09T08:23:25.000Z</Time>
            <Position>
              <LatitudeDegrees>39.6191601455211639404296875</LatitudeDegrees>
              <LongitudeDegrees>-0.70618732832372188568115234375</LongitudeDegrees>
            </Position>
            <AltitudeMeters>219.600006103515625</AltitudeMeters>
            <DistanceMeters>40737.533333666</DistanceMeters>
          </Trackpoint>
          <Trackpoint>
            <Time>2021-10-09T08:23:26.000Z</Time>
            <Position>
              <LatitudeDegrees>39.61916509084403514862060546875</LatitudeDegrees>
              <LongitudeDegrees>-0.70624683983623981475830078125</LongitudeDegrees>
            </Position>
            <AltitudeMeters>219.8000030517578125</AltitudeMeters>
            <DistanceMeters>40742.664776242</DistanceMeters>
          </Trackpoint>
          <Trackpoint>
            <Time>2021-10-09T08:23:27.000Z</Time>
            <Position>
              <LatitudeDegrees>39.61917020380496978759765625</LatitudeDegrees>
              <LongitudeDegrees>-0.70631054230034351348876953125</LongitudeDegrees>
            </Position>
            <AltitudeMeters>219.8000030517578125</AltitudeMeters>
            <DistanceMeters>40748.155807588</DistanceMeters>
          </Trackpoint>
          <Trackpoint>
            <Time>2021-10-09T08:23:28.000Z</Time>
            <Position>
              <LatitudeDegrees>39.61917431093752384185791015625</LatitudeDegrees>
              <LongitudeDegrees>-0.706372819840908050537109375</LongitudeDegrees>
            </Position>
            <AltitudeMeters>220</AltitudeMeters>
            <DistanceMeters>40753.515347976</DistanceMeters>
          </Trackpoint>
          <Trackpoint>
            <Time>2021-10-09T08:23:29.000Z</Time>
            <Position>
              <LatitudeDegrees>39.61917866952717304229736328125</LatitudeDegrees>
              <LongitudeDegrees>-0.7064336724579334259033203125</LongitudeDegrees>
            </Position>
            <AltitudeMeters>220</AltitudeMeters>
            <DistanceMeters>40758.75475943</DistanceMeters>
          </Trackpoint>
          <Trackpoint>
            <Time>2021-10-09T08:23:30.000Z</Time>
            <Position>
              <LatitudeDegrees>39.61918361485004425048828125</LatitudeDegrees>
              <LongitudeDegrees>-0.70649326778948307037353515625</LongitudeDegrees>
            </Position>
            <AltitudeMeters>220.1999969482421875</AltitudeMeters>
            <DistanceMeters>40763.893236201</DistanceMeters>
          </Trackpoint>
          <Trackpoint>
            <Time>2021-10-09T08:23:31.000Z</Time>
            <Position>
              <LatitudeDegrees>39.6191888116300106048583984375</LatitudeDegrees>
              <LongitudeDegrees>-0.706552527844905853271484375</LongitudeDegrees>
            </Position>
            <AltitudeMeters>220.1999969482421875</AltitudeMeters>
            <DistanceMeters>40769.007050959</DistanceMeters>
          </Trackpoint>
          <Trackpoint>
            <Time>2021-10-09T08:23:32.000Z</Time>
            <Position>
              <LatitudeDegrees>39.61919325403869152069091796875</LatitudeDegrees>
              <LongitudeDegrees>-0.70661245845258235931396484375</LongitudeDegrees>
            </Position>
            <AltitudeMeters>220.399993896484375</AltitudeMeters>
            <DistanceMeters>40774.168322654</DistanceMeters>
          </Trackpoint>
          <Trackpoint>
            <Time>2021-10-09T08:23:33.000Z</Time>
            <Position>
              <LatitudeDegrees>39.61919710971415042877197265625</LatitudeDegrees>
              <LongitudeDegrees>-0.7066730596125125885009765625</LongitudeDegrees>
            </Position>
            <AltitudeMeters>220.600006103515625</AltitudeMeters>
            <DistanceMeters>40779.380951551</DistanceMeters>
          </Trackpoint>
          <Trackpoint>
            <Time>2021-10-09T08:23:34.000Z</Time>
            <Position>
              <LatitudeDegrees>39.61919979192316532135009765625</LatitudeDegrees>
              <LongitudeDegrees>-0.70673299022018909454345703125</LongitudeDegrees>
            </Position>
            <AltitudeMeters>220.600006103515625</AltitudeMeters>
            <DistanceMeters>40784.527330298</DistanceMeters>
          </Trackpoint>
          <Trackpoint>
            <Time>2021-10-09T08:23:35.000Z</Time>
            <Position>
              <LatitudeDegrees>39.61920347996056079864501953125</LatitudeDegrees>
              <LongitudeDegrees>-0.70679149590432643890380859375</LongitudeDegrees>
            </Position>
            <AltitudeMeters>220.600006103515625</AltitudeMeters>
            <DistanceMeters>40789.559261771</DistanceMeters>
          </Trackpoint>
          <Trackpoint>
            <Time>2021-10-09T08:23:36.000Z</Time>
            <Position>
              <LatitudeDegrees>39.61920867674052715301513671875</LatitudeDegrees>
              <LongitudeDegrees>-0.7068517617881298065185546875</LongitudeDegrees>
            </Position>
            <AltitudeMeters>221</AltitudeMeters>
            <DistanceMeters>40794.758881842</DistanceMeters>
          </Trackpoint>
          <Trackpoint>
            <Time>2021-10-09T08:23:37.000Z</Time>
            <Position>
              <LatitudeDegrees>39.61921052075922489166259765625</LatitudeDegrees>
              <LongitudeDegrees>-0.7069127820432186126708984375</LongitudeDegrees>
            </Position>
            <AltitudeMeters>221.1999969482421875</AltitudeMeters>
            <DistanceMeters>40799.99484518</DistanceMeters>
          </Trackpoint>
          <Trackpoint>
            <Time>2021-10-09T08:23:38.000Z</Time>
            <Position>
              <LatitudeDegrees>39.61921135894954204559326171875</LatitudeDegrees>
              <LongitudeDegrees>-0.7069731317460536956787109375</LongitudeDegrees>
            </Position>
            <AltitudeMeters>221.1999969482421875</AltitudeMeters>
            <DistanceMeters>40805.169222114</DistanceMeters>
          </Trackpoint>
          <Trackpoint>
            <Time>2021-10-09T08:23:39.000Z</Time>
            <Position>
              <LatitudeDegrees>39.61921320296823978424072265625</LatitudeDegrees>
              <LongitudeDegrees>-0.70703272707760334014892578125</LongitudeDegrees>
            </Position>
            <AltitudeMeters>221.399993896484375</AltitudeMeters>
            <DistanceMeters>40810.283036873</DistanceMeters>
          </Trackpoint>
          <Trackpoint>
            <Time>2021-10-09T08:23:40.000Z</Time>
            <Position>
              <LatitudeDegrees>39.61921387352049350738525390625</LatitudeDegrees>
              <LongitudeDegrees>-0.707093663513660430908203125</LongitudeDegrees>
            </Position>
            <AltitudeMeters>221.600006103515625</AltitudeMeters>
            <DistanceMeters>40815.508642212</DistanceMeters>
          </Trackpoint>
          <Trackpoint>
            <Time>2021-10-09T08:23:41.000Z</Time>
            <Position>
              <LatitudeDegrees>39.6192137897014617919921875</LatitudeDegrees>
              <LongitudeDegrees>-0.7071571983397006988525390625</LongitudeDegrees>
            </Position>
            <AltitudeMeters>221.8000030517578125</AltitudeMeters>
            <DistanceMeters>40820.955919623</DistanceMeters>
          </Trackpoint>
          <Trackpoint>
            <Time>2021-10-09T08:23:42.000Z</Time>
            <Position>
              <LatitudeDegrees>39.6192129515111446380615234375</LatitudeDegrees>
              <LongitudeDegrees>-0.70721847005188465118408203125</LongitudeDegrees>
            </Position>
            <AltitudeMeters>221.8000030517578125</AltitudeMeters>
            <DistanceMeters>40826.209100908</DistanceMeters>
          </Trackpoint>
          <Trackpoint>
            <Time>2021-10-09T08:23:43.000Z</Time>
            <Position>
              <LatitudeDegrees>39.619209766387939453125</LatitudeDegrees>
              <LongitudeDegrees>-0.70727907121181488037109375</LongitudeDegrees>
            </Position>
            <AltitudeMeters>221.8000030517578125</AltitudeMeters>
            <DistanceMeters>40831.415663064</DistanceMeters>
          </Trackpoint>
          <Trackpoint>
            <Time>2021-10-09T08:23:44.000Z</Time>
            <Position>
              <LatitudeDegrees>39.6192057430744171142578125</LatitudeDegrees>
              <LongitudeDegrees>-0.7073419354856014251708984375</LongitudeDegrees>
            </Position>
            <AltitudeMeters>222</AltitudeMeters>
            <DistanceMeters>40836.823843683</DistanceMeters>
          </Trackpoint>
          <Trackpoint>
            <Time>2021-10-09T08:23:45.000Z</Time>
            <Position>
              <LatitudeDegrees>39.61920230649411678314208984375</LatitudeDegrees>
              <LongitudeDegrees>-0.70740421302616596221923828125</LongitudeDegrees>
            </Position>
            <AltitudeMeters>222.1999969482421875</AltitudeMeters>
            <DistanceMeters>40842.175796829</DistanceMeters>
          </Trackpoint>
          <Trackpoint>
            <Time>2021-10-09T08:23:46.000Z</Time>
            <Position>
              <LatitudeDegrees>39.6191990375518798828125</LatitudeDegrees>
              <LongitudeDegrees>-0.7074629701673984527587890625</LongitudeDegrees>
            </Position>
            <AltitudeMeters>222.600006103515625</AltitudeMeters>
            <DistanceMeters>40847.225641963</DistanceMeters>
          </Trackpoint>
          <Trackpoint>
            <Time>2021-10-09T08:23:47.000Z</Time>
            <Position>
              <LatitudeDegrees>39.61919367313385009765625</LatitudeDegrees>
              <LongitudeDegrees>-0.707522816956043243408203125</LongitudeDegrees>
            </Position>
            <AltitudeMeters>223.1999969482421875</AltitudeMeters>
            <DistanceMeters>40852.392159743</DistanceMeters>
          </Trackpoint>
          <Trackpoint>
            <Time>2021-10-09T08:23:48.000Z</Time>
            <Position>
              <LatitudeDegrees>39.619189314544200897216796875</LatitudeDegrees>
              <LongitudeDegrees>-0.70758459158241748809814453125</LongitudeDegrees>
            </Position>
            <AltitudeMeters>223</AltitudeMeters>
            <DistanceMeters>40857.710260854</DistanceMeters>
          </Trackpoint>
          <Trackpoint>
            <Time>2021-10-09T08:23:49.000Z</Time>
            <Position>
              <LatitudeDegrees>39.6191824413836002349853515625</LatitudeDegrees>
              <LongitudeDegrees>-0.7076467014849185943603515625</LongitudeDegrees>
            </Position>
            <AltitudeMeters>223.399993896484375</AltitudeMeters>
            <DistanceMeters>40863.089142236</DistanceMeters>
          </Trackpoint>
          <Trackpoint>
            <Time>2021-10-09T08:23:50.000Z</Time>
            <Position>
              <LatitudeDegrees>39.61917556822299957275390625</LatitudeDegrees>
              <LongitudeDegrees>-0.7077073864638805389404296875</LongitudeDegrees>
            </Position>
            <AltitudeMeters>223.399993896484375</AltitudeMeters>
            <DistanceMeters>40868.347477911</DistanceMeters>
          </Trackpoint>
          <Trackpoint>
            <Time>2021-10-09T08:23:51.000Z</Time>
            <Position>
              <LatitudeDegrees>39.61917062290012836456298828125</LatitudeDegrees>
              <LongitudeDegrees>-0.7077647186815738677978515625</LongitudeDegrees>
            </Position>
            <AltitudeMeters>223.8000030517578125</AltitudeMeters>
            <DistanceMeters>40873.292520581</DistanceMeters>
          </Trackpoint>
          <Trackpoint>
            <Time>2021-10-09T08:23:52.000Z</Time>
            <Position>
              <LatitudeDegrees>39.61916509084403514862060546875</LatitudeDegrees>
              <LongitudeDegrees>-0.7078213803470134735107421875</LongitudeDegrees>
            </Position>
            <AltitudeMeters>223.8000030517578125</AltitudeMeters>
            <DistanceMeters>40878.188010637</DistanceMeters>
          </Trackpoint>
          <Trackpoint>
            <Time>2021-10-09T08:23:53.000Z</Time>
            <Position>
              <LatitudeDegrees>39.61915821768343448638916015625</LatitudeDegrees>
              <LongitudeDegrees>-0.70787678472697734832763671875</LongitudeDegrees>
            </Position>
            <AltitudeMeters>224.1999969482421875</AltitudeMeters>
            <DistanceMeters>40882.999779127</DistanceMeters>
          </Trackpoint>
          <Trackpoint>
            <Time>2021-10-09T08:23:54.000Z</Time>
            <Position>
              <LatitudeDegrees>39.61915075778961181640625</LatitudeDegrees>
              <LongitudeDegrees>-0.7079320214688777923583984375</LongitudeDegrees>
            </Position>
            <AltitudeMeters>224.399993896484375</AltitudeMeters>
            <DistanceMeters>40887.807792822</DistanceMeters>
          </Trackpoint>
          <Trackpoint>
            <Time>2021-10-09T08:23:55.000Z</Time>
            <Position>
              <LatitudeDegrees>39.6191452257335186004638671875</LatitudeDegrees>
              <LongitudeDegrees>-0.70798574946820735931396484375</LongitudeDegrees>
            </Position>
            <AltitudeMeters>224.600006103515625</AltitudeMeters>
            <DistanceMeters>40892.45536669</DistanceMeters>
          </Trackpoint>
          <Trackpoint>
            <Time>2021-10-09T08:23:56.000Z</Time>
            <Position>
              <LatitudeDegrees>39.619140364229679107666015625</LatitudeDegrees>
              <LongitudeDegrees>-0.708041489124298095703125</LongitudeDegrees>
            </Position>
            <AltitudeMeters>225</AltitudeMeters>
            <DistanceMeters>40897.265258149</DistanceMeters>
          </Trackpoint>
          <Trackpoint>
            <Time>2021-10-09T08:23:57.000Z</Time>
            <Position>
              <LatitudeDegrees>39.61913391016423702239990234375</LatitudeDegrees>
              <LongitudeDegrees>-0.70809689350426197052001953125</LongitudeDegrees>
            </Position>
            <AltitudeMeters>225.1999969482421875</AltitudeMeters>
            <DistanceMeters>40902.069514115</DistanceMeters>
          </Trackpoint>
          <Trackpoint>
            <Time>2021-10-09T08:23:58.000Z</Time>
            <Position>
              <LatitudeDegrees>39.6191279590129852294921875</LatitudeDegrees>
              <LongitudeDegrees>-0.70815213024616241455078125</LongitudeDegrees>
            </Position>
            <AltitudeMeters>225.399993896484375</AltitudeMeters>
            <DistanceMeters>40906.851161693</DistanceMeters>
          </Trackpoint>
          <Trackpoint>
            <Time>2021-10-09T08:23:59.000Z</Time>
            <Position>
              <LatitudeDegrees>39.61912100203335285186767578125</LatitudeDegrees>
              <LongitudeDegrees>-0.70820736698806285858154296875</LongitudeDegrees>
            </Position>
            <AltitudeMeters>225.600006103515625</AltitudeMeters>
            <DistanceMeters>40911.649775548</DistanceMeters>
          </Trackpoint>
          <Trackpoint>
            <Time>2021-10-09T08:24:00.000Z</Time>
            <Position>
              <LatitudeDegrees>39.6191163919866085052490234375</LatitudeDegrees>
              <LongitudeDegrees>-0.70826352573931217193603515625</LongitudeDegrees>
            </Position>
            <AltitudeMeters>225.600006103515625</AltitudeMeters>
            <DistanceMeters>40916.491477568</DistanceMeters>
          </Trackpoint>
          <Trackpoint>
            <Time>2021-10-09T08:24:01.000Z</Time>
            <Position>
              <LatitudeDegrees>39.6191090159118175506591796875</LatitudeDegrees>
              <LongitudeDegrees>-0.70831775665283203125</LongitudeDegrees>
            </Position>
            <AltitudeMeters>225.8000030517578125</AltitudeMeters>
            <DistanceMeters>40921.214219231</DistanceMeters>
          </Trackpoint>
          <Trackpoint>
            <Time>2021-10-09T08:24:02.000Z</Time>
            <Position>
              <LatitudeDegrees>39.61910004727542400360107421875</LatitudeDegrees>
              <LongitudeDegrees>-0.7083727419376373291015625</LongitudeDegrees>
            </Position>
            <AltitudeMeters>226</AltitudeMeters>
            <DistanceMeters>40926.033488534</DistanceMeters>
          </Trackpoint>
          <Trackpoint>
            <Time>2021-10-09T08:24:03.000Z</Time>
            <Position>
              <LatitudeDegrees>39.6190912462770938873291015625</LatitudeDegrees>
              <LongitudeDegrees>-0.70842814631760120391845703125</LongitudeDegrees>
            </Position>
            <AltitudeMeters>226.1999969482421875</AltitudeMeters>
            <DistanceMeters>40930.883576073</DistanceMeters>
          </Trackpoint>
          <Trackpoint>
            <Time>2021-10-09T08:24:04.000Z</Time>
            <Position>
              <LatitudeDegrees>39.619084037840366363525390625</LatitudeDegrees>
              <LongitudeDegrees>-0.7084853947162628173828125</LongitudeDegrees>
            </Position>
            <AltitudeMeters>226.399993896484375</AltitudeMeters>
            <DistanceMeters>40935.856842543</DistanceMeters>
          </Trackpoint>
          <Trackpoint>
            <Time>2021-10-09T08:24:05.000Z</Time>
            <Position>
              <LatitudeDegrees>39.61907741613686084747314453125</LatitudeDegrees>
              <LongitudeDegrees>-0.70854113437235355377197265625</LongitudeDegrees>
            </Position>
            <AltitudeMeters>226.600006103515625</AltitudeMeters>
            <DistanceMeters>40940.692012438</DistanceMeters>
          </Trackpoint>
          <Trackpoint>
            <Time>2021-10-09T08:24:06.000Z</Time>
            <Position>
              <LatitudeDegrees>39.6190701238811016082763671875</LatitudeDegrees>
              <LongitudeDegrees>-0.70859729312360286712646484375</LongitudeDegrees>
            </Position>
            <AltitudeMeters>226.8000030517578125</AltitudeMeters>
            <DistanceMeters>40945.575498067</DistanceMeters>
          </Trackpoint>
          <Trackpoint>
            <Time>2021-10-09T08:24:07.000Z</Time>
            <Position>
              <LatitudeDegrees>39.61906014941632747650146484375</LatitudeDegrees>
              <LongitudeDegrees>-0.70865378715097904205322265625</LongitudeDegrees>
            </Position>
            <AltitudeMeters>227</AltitudeMeters>
            <DistanceMeters>40950.545131763</DistanceMeters>
          </Trackpoint>
          <Trackpoint>
            <Time>2021-10-09T08:24:08.000Z</Time>
            <Position>
              <LatitudeDegrees>39.6190530247986316680908203125</LatitudeDegrees>
              <LongitudeDegrees>-0.70871011354029178619384765625</LongitudeDegrees>
            </Position>
            <AltitudeMeters>227</AltitudeMeters>
            <DistanceMeters>40955.4387769</DistanceMeters>
          </Trackpoint>
          <Trackpoint>
            <Time>2021-10-09T08:24:09.000Z</Time>
            <Position>
              <LatitudeDegrees>39.61904757656157016754150390625</LatitudeDegrees>
              <LongitudeDegrees>-0.7087665237486362457275390625</LongitudeDegrees>
            </Position>
            <AltitudeMeters>227.1999969482421875</AltitudeMeters>
            <DistanceMeters>40960.312081841</DistanceMeters>
          </Trackpoint>
          <Trackpoint>
            <Time>2021-10-09T08:24:10.000Z</Time>
            <Position>
              <LatitudeDegrees>39.619039781391620635986328125</LatitudeDegrees>
              <LongitudeDegrees>-0.70882737636566162109375</LongitudeDegrees>
            </Position>
            <AltitudeMeters>227.399993896484375</AltitudeMeters>
            <DistanceMeters>40965.599530817</DistanceMeters>
          </Trackpoint>
          <Trackpoint>
            <Time>2021-10-09T08:24:11.000Z</Time>
            <Position>
              <LatitudeDegrees>39.61903064511716365814208984375</LatitudeDegrees>
              <LongitudeDegrees>-0.70889166556298732757568359375</LongitudeDegrees>
            </Position>
            <AltitudeMeters>227.399993896484375</AltitudeMeters>
            <DistanceMeters>40971.203690511</DistanceMeters>
          </Trackpoint>
          <Trackpoint>
            <Time>2021-10-09T08:24:12.000Z</Time>
            <Position>
              <LatitudeDegrees>39.61902360431849956512451171875</LatitudeDegrees>
              <LongitudeDegrees>-0.7089599780738353729248046875</LongitudeDegrees>
            </Position>
            <AltitudeMeters>227.600006103515625</AltitudeMeters>
            <DistanceMeters>40977.112946438</DistanceMeters>
          </Trackpoint>
          <Trackpoint>
            <Time>2021-10-09T08:24:13.000Z</Time>
            <Position>
              <LatitudeDegrees>39.61901555769145488739013671875</LatitudeDegrees>
              <LongitudeDegrees>-0.70903055369853973388671875</LongitudeDegrees>
            </Position>
            <AltitudeMeters>227.600006103515625</AltitudeMeters>
            <DistanceMeters>40983.229449254</DistanceMeters>
          </Trackpoint>
          <Trackpoint>
            <Time>2021-10-09T08:24:14.000Z</Time>
            <Position>
              <LatitudeDegrees>39.619007594883441925048828125</LatitudeDegrees>
              <LongitudeDegrees>-0.709098614752292633056640625</LongitudeDegrees>
            </Position>
            <AltitudeMeters>227.600006103515625</AltitudeMeters>
            <DistanceMeters>40989.131824617</DistanceMeters>
          </Trackpoint>
          <Trackpoint>
            <Time>2021-10-09T08:24:15.000Z</Time>
            <Position>
              <LatitudeDegrees>39.61900047026574611663818359375</LatitudeDegrees>
              <LongitudeDegrees>-0.70916592143476009368896484375</LongitudeDegrees>
            </Position>
            <AltitudeMeters>227.600006103515625</AltitudeMeters>
            <DistanceMeters>40994.956427367</DistanceMeters>
          </Trackpoint>
          <Trackpoint>
            <Time>2021-10-09T08:24:16.000Z</Time>
            <Position>
              <LatitudeDegrees>39.6189938485622406005859375</LatitudeDegrees>
              <LongitudeDegrees>-0.70923306047916412353515625</LongitudeDegrees>
            </Position>
            <AltitudeMeters>227.8000030517578125</AltitudeMeters>
            <DistanceMeters>41000.759284858</DistanceMeters>
          </Trackpoint>
          <Trackpoint>
            <Time>2021-10-09T08:24:17.000Z</Time>
            <Position>
              <LatitudeDegrees>39.61898513138294219970703125</LatitudeDegrees>
              <LongitudeDegrees>-0.70930137299001216888427734375</LongitudeDegrees>
            </Position>
            <AltitudeMeters>227.8000030517578125</AltitudeMeters>
            <DistanceMeters>41006.695983298</DistanceMeters>
          </Trackpoint>
          <Trackpoint>
            <Time>2021-10-09T08:24:18.000Z</Time>
            <Position>
              <LatitudeDegrees>39.61897767148911952972412109375</LatitudeDegrees>
              <LongitudeDegrees>-0.709369182586669921875</LongitudeDegrees>
            </Position>
            <AltitudeMeters>227.8000030517578125</AltitudeMeters>
            <DistanceMeters>41012.568449725</DistanceMeters>
          </Trackpoint>
          <Trackpoint>
            <Time>2021-10-09T08:24:19.000Z</Time>
            <Position>
              <LatitudeDegrees>39.6189681999385356903076171875</LatitudeDegrees>
              <LongitudeDegrees>-0.70943598635494709014892578125</LongitudeDegrees>
            </Position>
            <AltitudeMeters>228</AltitudeMeters>
            <DistanceMeters>41018.393052475</DistanceMeters>
          </Trackpoint>
          <Trackpoint>
            <Time>2021-10-09T08:24:20.000Z</Time>
            <Position>
              <LatitudeDegrees>39.618959985673427581787109375</LatitudeDegrees>
              <LongitudeDegrees>-0.709503628313541412353515625</LongitudeDegrees>
            </Position>
            <AltitudeMeters>228</AltitudeMeters>
            <DistanceMeters>41024.264750004</DistanceMeters>
          </Trackpoint>
          <Trackpoint>
            <Time>2021-10-09T08:24:21.000Z</Time>
            <Position>
              <LatitudeDegrees>39.61895160377025604248046875</LatitudeDegrees>
              <LongitudeDegrees>-0.709575712680816650390625</LongitudeDegrees>
            </Position>
            <AltitudeMeters>228</AltitudeMeters>
            <DistanceMeters>41030.514878858</DistanceMeters>
          </Trackpoint>
          <Trackpoint>
            <Time>2021-10-09T08:24:22.000Z</Time>
            <Position>
              <LatitudeDegrees>39.61894380860030651092529296875</LatitudeDegrees>
              <LongitudeDegrees>-0.70964788086712360382080078125</LongitudeDegrees>
            </Position>
            <AltitudeMeters>228.1999969482421875</AltitudeMeters>
            <DistanceMeters>41036.763562763</DistanceMeters>
          </Trackpoint>
          <Trackpoint>
            <Time>2021-10-09T08:24:23.000Z</Time>
            <Position>
              <LatitudeDegrees>39.6189356781542301177978515625</LatitudeDegrees>
              <LongitudeDegrees>-0.7097232341766357421875</LongitudeDegrees>
            </Position>
            <AltitudeMeters>228.1999969482421875</AltitudeMeters>
            <DistanceMeters>41043.286577419</DistanceMeters>
          </Trackpoint>
          <Trackpoint>
            <Time>2021-10-09T08:24:24.000Z</Time>
            <Position>
              <LatitudeDegrees>39.61892503313720226287841796875</LatitudeDegrees>
              <LongitudeDegrees>-0.7097988389432430267333984375</LongitudeDegrees>
            </Position>
            <AltitudeMeters>228.1999969482421875</AltitudeMeters>
            <DistanceMeters>41049.875705399</DistanceMeters>
          </Trackpoint>
          <Trackpoint>
            <Time>2021-10-09T08:24:25.000Z</Time>
            <Position>
              <LatitudeDegrees>39.61891463957726955413818359375</LatitudeDegrees>
              <LongitudeDegrees>-0.7098786346614360809326171875</LongitudeDegrees>
            </Position>
            <AltitudeMeters>228.1999969482421875</AltitudeMeters>
            <DistanceMeters>41056.813957162</DistanceMeters>
          </Trackpoint>
          <Trackpoint>
            <Time>2021-10-09T08:24:26.000Z</Time>
            <Position>
              <LatitudeDegrees>39.6189053356647491455078125</LatitudeDegrees>
              <LongitudeDegrees>-0.70996236987411975860595703125</LongitudeDegrees>
            </Position>
            <AltitudeMeters>228.1999969482421875</AltitudeMeters>
            <DistanceMeters>41064.067801346</DistanceMeters>
          </Trackpoint>
          <Trackpoint>
            <Time>2021-10-09T08:24:27.000Z</Time>
            <Position>
              <LatitudeDegrees>39.618896283209323883056640625</LatitudeDegrees>
              <LongitudeDegrees>-0.71004954166710376739501953125</LongitudeDegrees>
            </Position>
            <AltitudeMeters>228.1999969482421875</AltitudeMeters>
            <DistanceMeters>41071.60911565</DistanceMeters>
          </Trackpoint>
          <Trackpoint>
            <Time>2021-10-09T08:24:28.000Z</Time>
            <Position>
              <LatitudeDegrees>39.6188867278397083282470703125</LatitudeDegrees>
              <LongitudeDegrees>-0.7101384736597537994384765625</LongitudeDegrees>
            </Position>
            <AltitudeMeters>228.1999969482421875</AltitudeMeters>
            <DistanceMeters>41079.308039067</DistanceMeters>
          </Trackpoint>
          <Trackpoint>
            <Time>2021-10-09T08:24:29.000Z</Time>
            <Position>
              <LatitudeDegrees>39.6188766695559024810791015625</LatitudeDegrees>
              <LongitudeDegrees>-0.710228495299816131591796875</LongitudeDegrees>
            </Position>
            <AltitudeMeters>228</AltitudeMeters>
            <DistanceMeters>41087.10717972</DistanceMeters>
          </Trackpoint>
          <Trackpoint>
            <Time>2021-10-09T08:24:30.000Z</Time>
            <Position>
              <LatitudeDegrees>39.61886820383369922637939453125</LatitudeDegrees>
              <LongitudeDegrees>-0.71032128296792507171630859375</LongitudeDegrees>
            </Position>
            <AltitudeMeters>227.8000030517578125</AltitudeMeters>
            <DistanceMeters>41095.117655562</DistanceMeters>
          </Trackpoint>
          <Trackpoint>
            <Time>2021-10-09T08:24:31.000Z</Time>
            <Position>
              <LatitudeDegrees>39.61885680444538593292236328125</LatitudeDegrees>
              <LongitudeDegrees>-0.710420273244380950927734375</LongitudeDegrees>
            </Position>
            <AltitudeMeters>227.8000030517578125</AltitudeMeters>
            <DistanceMeters>41103.6995728</DistanceMeters>
          </Trackpoint>
          <Trackpoint>
            <Time>2021-10-09T08:24:32.000Z</Time>
            <Position>
              <LatitudeDegrees>39.6188434772193431854248046875</LatitudeDegrees>
              <LongitudeDegrees>-0.7105206884443759918212890625</LongitudeDegrees>
            </Position>
            <AltitudeMeters>227.8000030517578125</AltitudeMeters>
            <DistanceMeters>41112.435830929</DistanceMeters>
          </Trackpoint>
          <Trackpoint>
            <Time>2021-10-09T08:24:33.000Z</Time>
            <Position>
              <LatitudeDegrees>39.61882947944104671478271484375</LatitudeDegrees>
              <LongitudeDegrees>-0.7106202654540538787841796875</LongitudeDegrees>
            </Position>
            <AltitudeMeters>227.600006103515625</AltitudeMeters>
            <DistanceMeters>41121.114532884</DistanceMeters>
          </Trackpoint>
          <Trackpoint>
            <Time>2021-10-09T08:24:34.000Z</Time>
            <Position>
              <LatitudeDegrees>39.6188141405582427978515625</LatitudeDegrees>
              <LongitudeDegrees>-0.710721351206302642822265625</LongitudeDegrees>
            </Position>
            <AltitudeMeters>227.600006103515625</AltitudeMeters>
            <DistanceMeters>41129.947418057</DistanceMeters>
          </Trackpoint>
          <Trackpoint>
            <Time>2021-10-09T08:24:35.000Z</Time>
            <Position>
              <LatitudeDegrees>39.618795029819011688232421875</LatitudeDegrees>
              <LongitudeDegrees>-0.7108215987682342529296875</LongitudeDegrees>
            </Position>
            <AltitudeMeters>227.399993896484375</AltitudeMeters>
            <DistanceMeters>41138.801236081</DistanceMeters>
          </Trackpoint>
          <Trackpoint>
            <Time>2021-10-09T08:24:36.000Z</Time>
            <Position>
              <LatitudeDegrees>39.61877382360398769378662109375</LatitudeDegrees>
              <LongitudeDegrees>-0.7109223492443561553955078125</LongitudeDegrees>
            </Position>
            <AltitudeMeters>227.1999969482421875</AltitudeMeters>
            <DistanceMeters>41147.755959909</DistanceMeters>
          </Trackpoint>
          <Trackpoint>
            <Time>2021-10-09T08:24:37.000Z</Time>
            <Position>
              <LatitudeDegrees>39.61874951608479022979736328125</LatitudeDegrees>
              <LongitudeDegrees>-0.71102142333984375</LongitudeDegrees>
            </Position>
            <AltitudeMeters>226.8000030517578125</AltitudeMeters>
            <DistanceMeters>41156.670762362</DistanceMeters>
          </Trackpoint>
          <Trackpoint>
            <Time>2021-10-09T08:24:38.000Z</Time>
            <Position>
              <LatitudeDegrees>39.61872252635657787322998046875</LatitudeDegrees>
              <LongitudeDegrees>-0.71111806668341159820556640625</LongitudeDegrees>
            </Position>
            <AltitudeMeters>226.600006103515625</AltitudeMeters>
            <DistanceMeters>41165.484201961</DistanceMeters>
          </Trackpoint>
          <Trackpoint>
            <Time>2021-10-09T08:24:39.000Z</Time>
            <Position>
              <LatitudeDegrees>39.6186946146190166473388671875</LatitudeDegrees>
              <LongitudeDegrees>-0.711214542388916015625</LongitudeDegrees>
            </Position>
            <AltitudeMeters>226.399993896484375</AltitudeMeters>
            <DistanceMeters>41174.320153576</DistanceMeters>
          </Trackpoint>
          <Trackpoint>
            <Time>2021-10-09T08:24:40.000Z</Time>
            <Position>
              <LatitudeDegrees>39.61866854690015316009521484375</LatitudeDegrees>
              <LongitudeDegrees>-0.7113089226186275482177734375</LongitudeDegrees>
            </Position>
            <AltitudeMeters>226</AltitudeMeters>
            <DistanceMeters>41182.916264065</DistanceMeters>
          </Trackpoint>
          <Trackpoint>
            <Time>2021-10-09T08:24:41.000Z</Time>
            <Position>
              <LatitudeDegrees>39.618640802800655364990234375</LatitudeDegrees>
              <LongitudeDegrees>-0.71140238083899021148681640625</LongitudeDegrees>
            </Position>
            <AltitudeMeters>225.8000030517578125</AltitudeMeters>
            <DistanceMeters>41191.503440798</DistanceMeters>
          </Trackpoint>
          <Trackpoint>
            <Time>2021-10-09T08:24:42.000Z</Time>
            <Position>
              <LatitudeDegrees>39.6186111308634281158447265625</LatitudeDegrees>
              <LongitudeDegrees>-0.7114966772496700286865234375</LongitudeDegrees>
            </Position>
            <AltitudeMeters>225.600006103515625</AltitudeMeters>
            <DistanceMeters>41200.236597481</DistanceMeters>
          </Trackpoint>
          <Trackpoint>
            <Time>2021-10-09T08:24:43.000Z</Time>
            <Position>
              <LatitudeDegrees>39.61857919581234455108642578125</LatitudeDegrees>
              <LongitudeDegrees>-0.71159164421260356903076171875</LongitudeDegrees>
            </Position>
            <AltitudeMeters>225.399993896484375</AltitudeMeters>
            <DistanceMeters>41209.120960046</DistanceMeters>
          </Trackpoint>
          <Trackpoint>
            <Time>2021-10-09T08:24:44.000Z</Time>
            <Position>
              <LatitudeDegrees>39.61854617111384868621826171875</LatitudeDegrees>
              <LongitudeDegrees>-0.711686946451663970947265625</LongitudeDegrees>
            </Position>
            <AltitudeMeters>225.399993896484375</AltitudeMeters>
            <DistanceMeters>41218.080724529</DistanceMeters>
          </Trackpoint>
          <Trackpoint>
            <Time>2021-10-09T08:24:45.000Z</Time>
            <Position>
              <LatitudeDegrees>39.61851147003471851348876953125</LatitudeDegrees>
              <LongitudeDegrees>-0.71178375743329524993896484375</LongitudeDegrees>
            </Position>
            <AltitudeMeters>225.1999969482421875</AltitudeMeters>
            <DistanceMeters>41227.235896267</DistanceMeters>
          </Trackpoint>
          <Trackpoint>
            <Time>2021-10-09T08:24:46.000Z</Time>
            <Position>
              <LatitudeDegrees>39.6184740029275417327880859375</LatitudeDegrees>
              <LongitudeDegrees>-0.7118839211761951446533203125</LongitudeDegrees>
            </Position>
            <AltitudeMeters>225.1999969482421875</AltitudeMeters>
            <DistanceMeters>41236.783125793</DistanceMeters>
          </Trackpoint>
          <Trackpoint>
            <Time>2021-10-09T08:24:47.000Z</Time>
            <Position>
              <LatitudeDegrees>39.6184320934116840362548828125</LatitudeDegrees>
              <LongitudeDegrees>-0.71198509074747562408447265625</LongitudeDegrees>
            </Position>
            <AltitudeMeters>224.8000030517578125</AltitudeMeters>
            <DistanceMeters>41246.631580042</DistanceMeters>
          </Trackpoint>
          <Trackpoint>
            <Time>2021-10-09T08:24:48.000Z</Time>
            <Position>
              <LatitudeDegrees>39.61838674731552600860595703125</LatitudeDegrees>
              <LongitudeDegrees>-0.712087936699390411376953125</LongitudeDegrees>
            </Position>
            <AltitudeMeters>224.399993896484375</AltitudeMeters>
            <DistanceMeters>41256.790998025</DistanceMeters>
          </Trackpoint>
          <Trackpoint>
            <Time>2021-10-09T08:24:49.000Z</Time>
            <Position>
              <LatitudeDegrees>39.618338383734226226806640625</LatitudeDegrees>
              <LongitudeDegrees>-0.71218960918486118316650390625</LongitudeDegrees>
            </Position>
            <AltitudeMeters>224</AltitudeMeters>
            <DistanceMeters>41267.036270524</DistanceMeters>
          </Trackpoint>
          <Trackpoint>
            <Time>2021-10-09T08:24:50.000Z</Time>
            <Position>
              <LatitudeDegrees>39.61829018779098987579345703125</LatitudeDegrees>
              <LongitudeDegrees>-0.71229136548936367034912109375</LongitudeDegrees>
            </Position>
            <AltitudeMeters>223.8000030517578125</AltitudeMeters>
            <DistanceMeters>41277.278016858</DistanceMeters>
          </Trackpoint>
          <Trackpoint>
            <Time>2021-10-09T08:24:51.000Z</Time>
            <Position>
              <LatitudeDegrees>39.6182389743626117706298828125</LatitudeDegrees>
              <LongitudeDegrees>-0.71239412762224674224853515625</LongitudeDegrees>
            </Position>
            <AltitudeMeters>223.399993896484375</AltitudeMeters>
            <DistanceMeters>41287.771479211</DistanceMeters>
          </Trackpoint>
          <Trackpoint>
            <Time>2021-10-09T08:24:52.000Z</Time>
            <Position>
              <LatitudeDegrees>39.61818759329617023468017578125</LatitudeDegrees>
              <LongitudeDegrees>-0.71249772794544696807861328125</LongitudeDegrees>
            </Position>
            <AltitudeMeters>223</AltitudeMeters>
            <DistanceMeters>41298.33527042</DistanceMeters>
          </Trackpoint>
          <Trackpoint>
            <Time>2021-10-09T08:24:53.000Z</Time>
            <Position>
              <LatitudeDegrees>39.6181383915245532989501953125</LatitudeDegrees>
              <LongitudeDegrees>-0.7126000709831714630126953125</LongitudeDegrees>
            </Position>
            <AltitudeMeters>222.8000030517578125</AltitudeMeters>
            <DistanceMeters>41308.677914451</DistanceMeters>
          </Trackpoint>
          <Trackpoint>
            <Time>2021-10-09T08:24:54.000Z</Time>
            <Position>
              <LatitudeDegrees>39.61808868683874607086181640625</LatitudeDegrees>
              <LongitudeDegrees>-0.71270115673542022705078125</LongitudeDegrees>
            </Position>
            <AltitudeMeters>222</AltitudeMeters>
            <DistanceMeters>41318.959260416</DistanceMeters>
          </Trackpoint>
          <Trackpoint>
            <Time>2021-10-09T08:24:55.000Z</Time>
            <Position>
              <LatitudeDegrees>39.6180425025522708892822265625</LatitudeDegrees>
              <LongitudeDegrees>-0.71280551142990589141845703125</LongitudeDegrees>
            </Position>
            <AltitudeMeters>221.600006103515625</AltitudeMeters>
            <DistanceMeters>41329.277866492</DistanceMeters>
          </Trackpoint>
          <Trackpoint>
            <Time>2021-10-09T08:24:56.000Z</Time>
            <Position>
              <LatitudeDegrees>39.6179979108273983001708984375</LatitudeDegrees>
              <LongitudeDegrees>-0.71291347034275531768798828125</LongitudeDegrees>
            </Position>
            <AltitudeMeters>221</AltitudeMeters>
            <DistanceMeters>41339.780790553</DistanceMeters>
          </Trackpoint>
          <Trackpoint>
            <Time>2021-10-09T08:24:57.000Z</Time>
            <Position>
              <LatitudeDegrees>39.61795658804476261138916015625</LatitudeDegrees>
              <LongitudeDegrees>-0.71302562020719051361083984375</LongitudeDegrees>
            </Position>
            <AltitudeMeters>220.8000030517578125</AltitudeMeters>
            <DistanceMeters>41350.439467382</DistanceMeters>
          </Trackpoint>
          <Trackpoint>
            <Time>2021-10-09T08:24:58.000Z</Time>
            <Position>
              <LatitudeDegrees>39.617917947471141815185546875</LatitudeDegrees>
              <LongitudeDegrees>-0.71314162574708461761474609375</LongitudeDegrees>
            </Position>
            <AltitudeMeters>220.600006103515625</AltitudeMeters>
            <DistanceMeters>41361.275846578</DistanceMeters>
          </Trackpoint>
          <Trackpoint>
            <Time>2021-10-09T08:24:59.000Z</Time>
            <Position>
              <LatitudeDegrees>39.617881067097187042236328125</LatitudeDegrees>
              <LongitudeDegrees>-0.71326064877212047576904296875</LongitudeDegrees>
            </Position>
            <AltitudeMeters>220.1999969482421875</AltitudeMeters>
            <DistanceMeters>41372.275163111</DistanceMeters>
          </Trackpoint>
          <Trackpoint>
            <Time>2021-10-09T08:25:00.000Z</Time>
            <Position>
              <LatitudeDegrees>39.617844186723232269287109375</LatitudeDegrees>
              <LongitudeDegrees>-0.71338235400617122650146484375</LongitudeDegrees>
            </Position>
            <AltitudeMeters>219.8000030517578125</AltitudeMeters>
            <DistanceMeters>41383.488315407</DistanceMeters>
          </Trackpoint>
          <Trackpoint>
            <Time>2021-10-09T08:25:01.000Z</Time>
            <Position>
              <LatitudeDegrees>39.61781032383441925048828125</LatitudeDegrees>
              <LongitudeDegrees>-0.71350858546793460845947265625</LongitudeDegrees>
            </Position>
            <AltitudeMeters>219</AltitudeMeters>
            <DistanceMeters>41394.948395328</DistanceMeters>
          </Trackpoint>
          <Trackpoint>
            <Time>2021-10-09T08:25:02.000Z</Time>
            <Position>
              <LatitudeDegrees>39.61777872405946254730224609375</LatitudeDegrees>
              <LongitudeDegrees>-0.71363389492034912109375</LongitudeDegrees>
            </Position>
            <AltitudeMeters>218.8000030517578125</AltitudeMeters>
            <DistanceMeters>41406.253379711</DistanceMeters>
          </Trackpoint>
          <Trackpoint>
            <Time>2021-10-09T08:25:03.000Z</Time>
            <Position>
              <LatitudeDegrees>39.61774720810353755950927734375</LatitudeDegrees>
              <LongitudeDegrees>-0.71375736035406589508056640625</LongitudeDegrees>
            </Position>
            <AltitudeMeters>218.1999969482421875</AltitudeMeters>
            <DistanceMeters>41417.405160412</DistanceMeters>
          </Trackpoint>
          <Trackpoint>
            <Time>2021-10-09T08:25:04.000Z</Time>
            <Position>
              <LatitudeDegrees>39.61771376430988311767578125</LatitudeDegrees>
              <LongitudeDegrees>-0.71388158015906810760498046875</LongitudeDegrees>
            </Position>
            <AltitudeMeters>218</AltitudeMeters>
            <DistanceMeters>41428.687356898</DistanceMeters>
          </Trackpoint>
          <Trackpoint>
            <Time>2021-10-09T08:25:05.000Z</Time>
            <Position>
              <LatitudeDegrees>39.61767830885946750640869140625</LatitudeDegrees>
              <LongitudeDegrees>-0.7140052132308483123779296875</LongitudeDegrees>
            </Position>
            <AltitudeMeters>217.399993896484375</AltitudeMeters>
            <DistanceMeters>41439.998330466</DistanceMeters>
          </Trackpoint>
          <Trackpoint>
            <Time>2021-10-09T08:25:06.000Z</Time>
            <Position>
              <LatitudeDegrees>39.6176428534090518951416015625</LatitudeDegrees>
              <LongitudeDegrees>-0.714130103588104248046875</LongitudeDegrees>
            </Position>
            <AltitudeMeters>217.1999969482421875</AltitudeMeters>
            <DistanceMeters>41451.410243648</DistanceMeters>
          </Trackpoint>
          <Trackpoint>
            <Time>2021-10-09T08:25:07.000Z</Time>
            <Position>
              <LatitudeDegrees>39.61760781705379486083984375</LatitudeDegrees>
              <LongitudeDegrees>-0.714256502687931060791015625</LongitudeDegrees>
            </Position>
            <AltitudeMeters>216.600006103515625</AltitudeMeters>
            <DistanceMeters>41462.927700961</DistanceMeters>
          </Trackpoint>
          <Trackpoint>
            <Time>2021-10-09T08:25:08.000Z</Time>
            <Position>
              <LatitudeDegrees>39.61757361888885498046875</LatitudeDegrees>
              <LongitudeDegrees>-0.71438298560678958892822265625</LongitudeDegrees>
            </Position>
            <AltitudeMeters>216</AltitudeMeters>
            <DistanceMeters>41474.420827525</DistanceMeters>
          </Trackpoint>
          <Trackpoint>
            <Time>2021-10-09T08:25:09.000Z</Time>
            <Position>
              <LatitudeDegrees>39.61754076182842254638671875</LatitudeDegrees>
              <LongitudeDegrees>-0.7145098038017749786376953125</LongitudeDegrees>
            </Position>
            <AltitudeMeters>215.8000030517578125</AltitudeMeters>
            <DistanceMeters>41485.892327167</DistanceMeters>
          </Trackpoint>
          <Trackpoint>
            <Time>2021-10-09T08:25:10.000Z</Time>
            <Position>
              <LatitudeDegrees>39.617507569491863250732421875</LatitudeDegrees>
              <LongitudeDegrees>-0.71463796310126781463623046875</LongitudeDegrees>
            </Position>
            <AltitudeMeters>215.399993896484375</AltitudeMeters>
            <DistanceMeters>41497.484807386</DistanceMeters>
          </Trackpoint>
          <Trackpoint>
            <Time>2021-10-09T08:25:11.000Z</Time>
            <Position>
              <LatitudeDegrees>39.6174718625843524932861328125</LatitudeDegrees>
              <LongitudeDegrees>-0.71476704441010951995849609375</LongitudeDegrees>
            </Position>
            <AltitudeMeters>215.1999969482421875</AltitudeMeters>
            <DistanceMeters>41509.244339293</DistanceMeters>
          </Trackpoint>
          <Trackpoint>
            <Time>2021-10-09T08:25:12.000Z</Time>
            <Position>
              <LatitudeDegrees>39.61743674241006374359130859375</LatitudeDegrees>
              <LongitudeDegrees>-0.71489520370960235595703125</LongitudeDegrees>
            </Position>
            <AltitudeMeters>214.8000030517578125</AltitudeMeters>
            <DistanceMeters>41520.907489448</DistanceMeters>
          </Trackpoint>
          <Trackpoint>
            <Time>2021-10-09T08:25:13.000Z</Time>
            <Position>
              <LatitudeDegrees>39.61740262806415557861328125</LatitudeDegrees>
              <LongitudeDegrees>-0.715025626122951507568359375</LongitudeDegrees>
            </Position>
            <AltitudeMeters>214.600006103515625</AltitudeMeters>
            <DistanceMeters>41532.716828998</DistanceMeters>
          </Trackpoint>
          <Trackpoint>
            <Time>2021-10-09T08:25:14.000Z</Time>
            <Position>
              <LatitudeDegrees>39.6173685975372791290283203125</LatitudeDegrees>
              <LongitudeDegrees>-0.715156383812427520751953125</LongitudeDegrees>
            </Position>
            <AltitudeMeters>214.1999969482421875</AltitudeMeters>
            <DistanceMeters>41544.550612226</DistanceMeters>
          </Trackpoint>
          <Trackpoint>
            <Time>2021-10-09T08:25:15.000Z</Time>
            <Position>
              <LatitudeDegrees>39.617333225905895233154296875</LatitudeDegrees>
              <LongitudeDegrees>-0.7152852974832057952880859375</LongitudeDegrees>
            </Position>
            <AltitudeMeters>213.8000030517578125</AltitudeMeters>
            <DistanceMeters>41556.284006683</DistanceMeters>
          </Trackpoint>
          <Trackpoint>
            <Time>2021-10-09T08:25:16.000Z</Time>
            <Position>
              <LatitudeDegrees>39.6172960102558135986328125</LatitudeDegrees>
              <LongitudeDegrees>-0.71541228331625461578369140625</LongitudeDegrees>
            </Position>
            <AltitudeMeters>213.600006103515625</AltitudeMeters>
            <DistanceMeters>41567.933212183</DistanceMeters>
          </Trackpoint>
          <Trackpoint>
            <Time>2021-10-09T08:25:17.000Z</Time>
            <Position>
              <LatitudeDegrees>39.61725586093962192535400390625</LatitudeDegrees>
              <LongitudeDegrees>-0.71553683839738368988037109375</LongitudeDegrees>
            </Position>
            <AltitudeMeters>213</AltitudeMeters>
            <DistanceMeters>41579.509322688</DistanceMeters>
          </Trackpoint>
          <Trackpoint>
            <Time>2021-10-09T08:25:18.000Z</Time>
            <Position>
              <LatitudeDegrees>39.61721277795732021331787109375</LatitudeDegrees>
              <LongitudeDegrees>-0.71566038765013217926025390625</LongitudeDegrees>
            </Position>
            <AltitudeMeters>212.399993896484375</AltitudeMeters>
            <DistanceMeters>41591.136803263</DistanceMeters>
          </Trackpoint>
          <Trackpoint>
            <Time>2021-10-09T08:25:19.000Z</Time>
            <Position>
              <LatitudeDegrees>39.6171647496521472930908203125</LatitudeDegrees>
              <LongitudeDegrees>-0.71578192524611949920654296875</LongitudeDegrees>
            </Position>
            <AltitudeMeters>211.8000030517578125</AltitudeMeters>
            <DistanceMeters>41602.848243444</DistanceMeters>
          </Trackpoint>
          <Trackpoint>
            <Time>2021-10-09T08:25:20.000Z</Time>
            <Position>
              <LatitudeDegrees>39.61711169220507144927978515625</LatitudeDegrees>
              <LongitudeDegrees>-0.715902037918567657470703125</LongitudeDegrees>
            </Position>
            <AltitudeMeters>211.600006103515625</AltitudeMeters>
            <DistanceMeters>41614.719358513</DistanceMeters>
          </Trackpoint>
          <Trackpoint>
            <Time>2021-10-09T08:25:21.000Z</Time>
            <Position>
              <LatitudeDegrees>39.61705016903579235076904296875</LatitudeDegrees>
              <LongitudeDegrees>-0.7160198874771595001220703125</LongitudeDegrees>
            </Position>
            <AltitudeMeters>211</AltitudeMeters>
            <DistanceMeters>41626.925021182</DistanceMeters>
          </Trackpoint>
          <Trackpoint>
            <Time>2021-10-09T08:25:22.000Z</Time>
            <Position>
              <LatitudeDegrees>39.6169880591332912445068359375</LatitudeDegrees>
              <LongitudeDegrees>-0.71613765321671962738037109375</LongitudeDegrees>
            </Position>
            <AltitudeMeters>210.600006103515625</AltitudeMeters>
            <DistanceMeters>41639.161717124</DistanceMeters>
          </Trackpoint>
          <Trackpoint>
            <Time>2021-10-09T08:25:23.000Z</Time>
            <Position>
              <LatitudeDegrees>39.61692276410758495330810546875</LatitudeDegrees>
              <LongitudeDegrees>-0.71625466458499431610107421875</LongitudeDegrees>
            </Position>
            <AltitudeMeters>210.399993896484375</AltitudeMeters>
            <DistanceMeters>41651.550227093</DistanceMeters>
          </Trackpoint>
          <Trackpoint>
            <Time>2021-10-09T08:25:24.000Z</Time>
            <Position>
              <LatitudeDegrees>39.61685671471059322357177734375</LatitudeDegrees>
              <LongitudeDegrees>-0.71636932902038097381591796875</LongitudeDegrees>
            </Position>
            <AltitudeMeters>210.1999969482421875</AltitudeMeters>
            <DistanceMeters>41663.825972109</DistanceMeters>
          </Trackpoint>
          <Trackpoint>
            <Time>2021-10-09T08:25:25.000Z</Time>
            <Position>
              <LatitudeDegrees>39.61679250933229923248291015625</LatitudeDegrees>
              <LongitudeDegrees>-0.71648131124675273895263671875</LongitudeDegrees>
            </Position>
            <AltitudeMeters>210</AltitudeMeters>
            <DistanceMeters>41675.794434944</DistanceMeters>
          </Trackpoint>
          <Trackpoint>
            <Time>2021-10-09T08:25:26.000Z</Time>
            <Position>
              <LatitudeDegrees>39.6167292259633541107177734375</LatitudeDegrees>
              <LongitudeDegrees>-0.7165932096540927886962890625</LongitudeDegrees>
            </Position>
            <AltitudeMeters>209.399993896484375</AltitudeMeters>
            <DistanceMeters>41687.696317533</DistanceMeters>
          </Trackpoint>
          <Trackpoint>
            <Time>2021-10-09T08:25:27.000Z</Time>
            <Position>
              <LatitudeDegrees>39.61666560731828212738037109375</LatitudeDegrees>
              <LongitudeDegrees>-0.7167055271565914154052734375</LongitudeDegrees>
            </Position>
            <AltitudeMeters>209.1999969482421875</AltitudeMeters>
            <DistanceMeters>41699.649303332</DistanceMeters>
          </Trackpoint>
          <Trackpoint>
            <Time>2021-10-09T08:25:28.000Z</Time>
            <Position>
              <LatitudeDegrees>39.616602994501590728759765625</LatitudeDegrees>
              <LongitudeDegrees>-0.7168158330023288726806640625</LongitudeDegrees>
            </Position>
            <AltitudeMeters>208.8000030517578125</AltitudeMeters>
            <DistanceMeters>41711.396926848</DistanceMeters>
          </Trackpoint>
          <Trackpoint>
            <Time>2021-10-09T08:25:29.000Z</Time>
            <Position>
              <LatitudeDegrees>39.616541974246501922607421875</LatitudeDegrees>
              <LongitudeDegrees>-0.71692404337227344512939453125</LongitudeDegrees>
            </Position>
            <AltitudeMeters>208.399993896484375</AltitudeMeters>
            <DistanceMeters>41722.894766608</DistanceMeters>
          </Trackpoint>
          <Trackpoint>
            <Time>2021-10-09T08:25:30.000Z</Time>
            <Position>
              <LatitudeDegrees>39.61647969670593738555908203125</LatitudeDegrees>
              <LongitudeDegrees>-0.717031247913837432861328125</LongitudeDegrees>
            </Position>
            <AltitudeMeters>208</AltitudeMeters>
            <DistanceMeters>41734.407126573</DistanceMeters>
          </Trackpoint>
          <Trackpoint>
            <Time>2021-10-09T08:25:31.000Z</Time>
            <Position>
              <LatitudeDegrees>39.6164180897176265716552734375</LatitudeDegrees>
              <LongitudeDegrees>-0.71713677607476711273193359375</LongitudeDegrees>
            </Position>
            <AltitudeMeters>207.600006103515625</AltitudeMeters>
            <DistanceMeters>41745.759935965</DistanceMeters>
          </Trackpoint>
          <Trackpoint>
            <Time>2021-10-09T08:25:32.000Z</Time>
            <Position>
              <LatitudeDegrees>39.61635698564350605010986328125</LatitudeDegrees>
              <LongitudeDegrees>-0.717240460216999053955078125</LongitudeDegrees>
            </Position>
            <AltitudeMeters>207.399993896484375</AltitudeMeters>
            <DistanceMeters>41756.952937376</DistanceMeters>
          </Trackpoint>
          <Trackpoint>
            <Time>2021-10-09T08:25:33.000Z</Time>
            <Position>
              <LatitudeDegrees>39.61629361845552921295166015625</LatitudeDegrees>
              <LongitudeDegrees>-0.7173428870737552642822265625</LongitudeDegrees>
            </Position>
            <AltitudeMeters>207.399993896484375</AltitudeMeters>
            <DistanceMeters>41768.216309161</DistanceMeters>
          </Trackpoint>
          <Trackpoint>
            <Time>2021-10-09T08:25:34.000Z</Time>
            <Position>
              <LatitudeDegrees>39.616229832172393798828125</LatitudeDegrees>
              <LongitudeDegrees>-0.71744338609278202056884765625</LongitudeDegrees>
            </Position>
            <AltitudeMeters>207.1999969482421875</AltitudeMeters>
            <DistanceMeters>41779.381038232</DistanceMeters>
          </Trackpoint>
          <Trackpoint>
            <Time>2021-10-09T08:25:35.000Z</Time>
            <Position>
              <LatitudeDegrees>39.6161512099206447601318359375</LatitudeDegrees>
              <LongitudeDegrees>-0.71756190620362758636474609375</LongitudeDegrees>
            </Position>
            <AltitudeMeters>207</AltitudeMeters>
            <DistanceMeters>41792.791930541</DistanceMeters>
          </Trackpoint>
          <Trackpoint>
            <Time>2021-10-09T08:25:36.000Z</Time>
            <Position>
              <LatitudeDegrees>39.61609865538775920867919921875</LatitudeDegrees>
              <LongitudeDegrees>-0.717640779912471771240234375</LongitudeDegrees>
            </Position>
            <AltitudeMeters>206.399993896484375</AltitudeMeters>
            <DistanceMeters>41801.733535366</DistanceMeters>
          </Trackpoint>
          <Trackpoint>
            <Time>2021-10-09T08:25:37.000Z</Time>
            <Position>
              <LatitudeDegrees>39.61603377945721149444580078125</LatitudeDegrees>
              <LongitudeDegrees>-0.7177398540079593658447265625</LongitudeDegrees>
            </Position>
            <AltitudeMeters>206.399993896484375</AltitudeMeters>
            <DistanceMeters>41812.882481605</DistanceMeters>
          </Trackpoint>
          <Trackpoint>
            <Time>2021-10-09T08:25:38.000Z</Time>
            <Position>
              <LatitudeDegrees>39.61596789769828319549560546875</LatitudeDegrees>
              <LongitudeDegrees>-0.71783758699893951416015625</LongitudeDegrees>
            </Position>
            <AltitudeMeters>206.1999969482421875</AltitudeMeters>
            <DistanceMeters>41824.017650201</DistanceMeters>
          </Trackpoint>
          <Trackpoint>
            <Time>2021-10-09T08:25:39.000Z</Time>
            <Position>
              <LatitudeDegrees>39.61590201593935489654541015625</LatitudeDegrees>
              <LongitudeDegrees>-0.7179373316466808319091796875</LongitudeDegrees>
            </Position>
            <AltitudeMeters>206</AltitudeMeters>
            <DistanceMeters>41835.28342689</DistanceMeters>
          </Trackpoint>
          <Trackpoint>
            <Time>2021-10-09T08:25:40.000Z</Time>
            <Position>
              <LatitudeDegrees>39.61583621799945831298828125</LatitudeDegrees>
              <LongitudeDegrees>-0.718039087951183319091796875</LongitudeDegrees>
            </Position>
            <AltitudeMeters>205.8000030517578125</AltitudeMeters>
            <DistanceMeters>41846.674748082</DistanceMeters>
          </Trackpoint>
          <Trackpoint>
            <Time>2021-10-09T08:25:41.000Z</Time>
            <Position>
              <LatitudeDegrees>39.6157679893076419830322265625</LatitudeDegrees>
              <LongitudeDegrees>-0.71814076043665409088134765625</LongitudeDegrees>
            </Position>
            <AltitudeMeters>205.8000030517578125</AltitudeMeters>
            <DistanceMeters>41858.236027922</DistanceMeters>
          </Trackpoint>
          <Trackpoint>
            <Time>2021-10-09T08:25:42.000Z</Time>
            <Position>
              <LatitudeDegrees>39.615700431168079376220703125</LatitudeDegrees>
              <LongitudeDegrees>-0.7182420976459980010986328125</LongitudeDegrees>
            </Position>
            <AltitudeMeters>205.600006103515625</AltitudeMeters>
            <DistanceMeters>41869.726797163</DistanceMeters>
          </Trackpoint>
          <Trackpoint>
            <Time>2021-10-09T08:25:43.000Z</Time>
            <Position>
              <LatitudeDegrees>39.61563211865723133087158203125</LatitudeDegrees>
              <LongitudeDegrees>-0.71834796108305454254150390625</LongitudeDegrees>
            </Position>
            <AltitudeMeters>205.600006103515625</AltitudeMeters>
            <DistanceMeters>41881.567446084</DistanceMeters>
          </Trackpoint>
          <Trackpoint>
            <Time>2021-10-09T08:25:44.000Z</Time>
            <Position>
              <LatitudeDegrees>39.61556506343185901641845703125</LatitudeDegrees>
              <LongitudeDegrees>-0.718454830348491668701171875</LongitudeDegrees>
            </Position>
            <AltitudeMeters>205</AltitudeMeters>
            <DistanceMeters>41893.385193851</DistanceMeters>
          </Trackpoint>
          <Trackpoint>
            <Time>2021-10-09T08:25:45.000Z</Time>
            <Position>
              <LatitudeDegrees>39.61549666710197925567626953125</LatitudeDegrees>
              <LongitudeDegrees>-0.718561448156833648681640625</LongitudeDegrees>
            </Position>
            <AltitudeMeters>204.399993896484375</AltitudeMeters>
            <DistanceMeters>41905.281005213</DistanceMeters>
          </Trackpoint>
          <Trackpoint>
            <Time>2021-10-09T08:25:46.000Z</Time>
            <Position>
              <LatitudeDegrees>39.61542625911533832550048828125</LatitudeDegrees>
              <LongitudeDegrees>-0.7186678983271121978759765625</LongitudeDegrees>
            </Position>
            <AltitudeMeters>204</AltitudeMeters>
            <DistanceMeters>41917.310801765</DistanceMeters>
          </Trackpoint>
          <Trackpoint>
            <Time>2021-10-09T08:25:47.000Z</Time>
            <Position>
              <LatitudeDegrees>39.6153559349477291107177734375</LatitudeDegrees>
              <LongitudeDegrees>-0.71877426467835903167724609375</LongitudeDegrees>
            </Position>
            <AltitudeMeters>203</AltitudeMeters>
            <DistanceMeters>41929.329333406</DistanceMeters>
          </Trackpoint>
          <Trackpoint>
            <Time>2021-10-09T08:25:48.000Z</Time>
            <Position>
              <LatitudeDegrees>39.615286700427532196044921875</LatitudeDegrees>
              <LongitudeDegrees>-0.7188787870109081268310546875</LongitudeDegrees>
            </Position>
            <AltitudeMeters>202.600006103515625</AltitudeMeters>
            <DistanceMeters>41941.148609297</DistanceMeters>
          </Trackpoint>
          <Trackpoint>
            <Time>2021-10-09T08:25:49.000Z</Time>
            <Position>
              <LatitudeDegrees>39.61521587334573268890380859375</LatitudeDegrees>
              <LongitudeDegrees>-0.7189807109534740447998046875</LongitudeDegrees>
            </Position>
            <AltitudeMeters>202</AltitudeMeters>
            <DistanceMeters>41952.918119595</DistanceMeters>
          </Trackpoint>
          <Trackpoint>
            <Time>2021-10-09T08:25:50.000Z</Time>
            <Position>
              <LatitudeDegrees>39.61514043621718883514404296875</LatitudeDegrees>
              <LongitudeDegrees>-0.71907584555447101593017578125</LongitudeDegrees>
            </Position>
            <AltitudeMeters>202</AltitudeMeters>
            <DistanceMeters>41964.624161199</DistanceMeters>
          </Trackpoint>
          <Trackpoint>
            <Time>2021-10-09T08:25:51.000Z</Time>
            <Position>
              <LatitudeDegrees>39.61505971848964691162109375</LatitudeDegrees>
              <LongitudeDegrees>-0.71916402317583560943603515625</LongitudeDegrees>
            </Position>
            <AltitudeMeters>201.600006103515625</AltitudeMeters>
            <DistanceMeters>41976.366018256</DistanceMeters>
          </Trackpoint>
          <Trackpoint>
            <Time>2021-10-09T08:25:52.000Z</Time>
            <Position>
              <LatitudeDegrees>39.61497397162020206451416015625</LatitudeDegrees>
              <LongitudeDegrees>-0.71924306452274322509765625</LongitudeDegrees>
            </Position>
            <AltitudeMeters>201.1999969482421875</AltitudeMeters>
            <DistanceMeters>41988.071288431</DistanceMeters>
          </Trackpoint>
          <Trackpoint>
            <Time>2021-10-09T08:25:53.000Z</Time>
            <Position>
              <LatitudeDegrees>39.6148820221424102783203125</LatitudeDegrees>
              <LongitudeDegrees>-0.7193148136138916015625</LongitudeDegrees>
            </Position>
            <AltitudeMeters>200.8000030517578125</AltitudeMeters>
            <DistanceMeters>42000.012180653</DistanceMeters>
          </Trackpoint>
          <Trackpoint>
            <Time>2021-10-09T08:25:54.000Z</Time>
            <Position>
              <LatitudeDegrees>39.614785127341747283935546875</LatitudeDegrees>
              <LongitudeDegrees>-0.7193793542683124542236328125</LongitudeDegrees>
            </Position>
            <AltitudeMeters>200.8000030517578125</AltitudeMeters>
            <DistanceMeters>42012.133954611</DistanceMeters>
          </Trackpoint>
          <Trackpoint>
            <Time>2021-10-09T08:25:55.000Z</Time>
            <Position>
              <LatitudeDegrees>39.614684879779815673828125</LatitudeDegrees>
              <LongitudeDegrees>-0.71944213472306728363037109375</LongitudeDegrees>
            </Position>
            <AltitudeMeters>200.600006103515625</AltitudeMeters>
            <DistanceMeters>42024.522829028</DistanceMeters>
          </Trackpoint>
          <Trackpoint>
            <Time>2021-10-09T08:25:56.000Z</Time>
            <Position>
              <LatitudeDegrees>39.6145837940275669097900390625</LatitudeDegrees>
              <LongitudeDegrees>-0.71950298734009265899658203125</LongitudeDegrees>
            </Position>
            <AltitudeMeters>199.8000030517578125</AltitudeMeters>
            <DistanceMeters>42036.925180505</DistanceMeters>
          </Trackpoint>
          <Trackpoint>
            <Time>2021-10-09T08:25:57.000Z</Time>
            <Position>
              <LatitudeDegrees>39.61448312737047672271728515625</LatitudeDegrees>
              <LongitudeDegrees>-0.71956451050937175750732421875</LongitudeDegrees>
            </Position>
            <AltitudeMeters>199.399993896484375</AltitudeMeters>
            <DistanceMeters>42049.309316257</DistanceMeters>
          </Trackpoint>
          <Trackpoint>
            <Time>2021-10-09T08:25:58.000Z</Time>
            <Position>
              <LatitudeDegrees>39.61438271217048168182373046875</LatitudeDegrees>
              <LongitudeDegrees>-0.71962486021220684051513671875</LongitudeDegrees>
            </Position>
            <AltitudeMeters>198.600006103515625</AltitudeMeters>
            <DistanceMeters>42061.625452993</DistanceMeters>
          </Trackpoint>
          <Trackpoint>
            <Time>2021-10-09T08:25:59.000Z</Time>
            <Position>
              <LatitudeDegrees>39.614282213151454925537109375</LatitudeDegrees>
              <LongitudeDegrees>-0.7196868024766445159912109375</LongitudeDegrees>
            </Position>
            <AltitudeMeters>198</AltitudeMeters>
            <DistanceMeters>42074.008130329</DistanceMeters>
          </Trackpoint>
          <Trackpoint>
            <Time>2021-10-09T08:26:00.000Z</Time>
            <Position>
              <LatitudeDegrees>39.61418104358017444610595703125</LatitudeDegrees>
              <LongitudeDegrees>-0.719748996198177337646484375</LongitudeDegrees>
            </Position>
            <AltitudeMeters>197.600006103515625</AltitudeMeters>
            <DistanceMeters>42086.467506082</DistanceMeters>
          </Trackpoint>
          <Trackpoint>
            <Time>2021-10-09T08:26:01.000Z</Time>
            <Position>
              <LatitudeDegrees>39.61408012546598911285400390625</LatitudeDegrees>
              <LongitudeDegrees>-0.71981144137680530548095703125</LongitudeDegrees>
            </Position>
            <AltitudeMeters>197</AltitudeMeters>
            <DistanceMeters>42098.910564014</DistanceMeters>
          </Trackpoint>
          <Trackpoint>
            <Time>2021-10-09T08:26:02.000Z</Time>
            <Position>
              <LatitudeDegrees>39.6139786206185817718505859375</LatitudeDegrees>
              <LongitudeDegrees>-0.7198738865554332733154296875</LongitudeDegrees>
            </Position>
            <AltitudeMeters>196.8000030517578125</AltitudeMeters>
            <DistanceMeters>42111.412266422</DistanceMeters>
          </Trackpoint>
          <Trackpoint>
            <Time>2021-10-09T08:26:03.000Z</Time>
            <Position>
              <LatitudeDegrees>39.61387711577117443084716796875</LatitudeDegrees>
              <LongitudeDegrees>-0.71993599645793437957763671875</LongitudeDegrees>
            </Position>
            <AltitudeMeters>196</AltitudeMeters>
            <DistanceMeters>42123.902406559</DistanceMeters>
          </Trackpoint>
          <Trackpoint>
            <Time>2021-10-09T08:26:04.000Z</Time>
            <Position>
              <LatitudeDegrees>39.61377569474279880523681640625</LatitudeDegrees>
              <LongitudeDegrees>-0.719998441636562347412109375</LongitudeDegrees>
            </Position>
            <AltitudeMeters>195.8000030517578125</AltitudeMeters>
            <DistanceMeters>42136.395438267</DistanceMeters>
          </Trackpoint>
          <Trackpoint>
            <Time>2021-10-09T08:26:05.000Z</Time>
            <Position>
              <LatitudeDegrees>39.6136530674993991851806640625</LatitudeDegrees>
              <LongitudeDegrees>-0.72007178328931331634521484375</LongitudeDegrees>
            </Position>
            <AltitudeMeters>194.8000030517578125</AltitudeMeters>
            <DistanceMeters>42151.42288488</DistanceMeters>
          </Trackpoint>
          <Trackpoint>
            <Time>2021-10-09T08:26:06.000Z</Time>
            <Position>
              <LatitudeDegrees>39.6135709248483180999755859375</LatitudeDegrees>
              <LongitudeDegrees>-0.72011922486126422882080078125</LongitudeDegrees>
            </Position>
            <AltitudeMeters>194</AltitudeMeters>
            <DistanceMeters>42161.429608504</DistanceMeters>
          </Trackpoint>
          <Trackpoint>
            <Time>2021-10-09T08:26:07.000Z</Time>
            <Position>
              <LatitudeDegrees>39.6134683303534984588623046875</LatitudeDegrees>
              <LongitudeDegrees>-0.720181167125701904296875</LongitudeDegrees>
            </Position>
            <AltitudeMeters>193.600006103515625</AltitudeMeters>
            <DistanceMeters>42174.023426935</DistanceMeters>
          </Trackpoint>
          <Trackpoint>
            <Time>2021-10-09T08:26:08.000Z</Time>
            <Position>
              <LatitudeDegrees>39.613367579877376556396484375</LatitudeDegrees>
              <LongitudeDegrees>-0.72024143300950527191162109375</LongitudeDegrees>
            </Position>
            <AltitudeMeters>193.1999969482421875</AltitudeMeters>
            <DistanceMeters>42186.370684955</DistanceMeters>
          </Trackpoint>
          <Trackpoint>
            <Time>2021-10-09T08:26:09.000Z</Time>
            <Position>
              <LatitudeDegrees>39.61326506920158863067626953125</LatitudeDegrees>
              <LongitudeDegrees>-0.7203027047216892242431640625</LongitudeDegrees>
            </Position>
            <AltitudeMeters>193</AltitudeMeters>
            <DistanceMeters>42198.931476953</DistanceMeters>
          </Trackpoint>
          <Trackpoint>
            <Time>2021-10-09T08:26:10.000Z</Time>
            <Position>
              <LatitudeDegrees>39.61316230706870555877685546875</LatitudeDegrees>
              <LongitudeDegrees>-0.7203643955290317535400390625</LongitudeDegrees>
            </Position>
            <AltitudeMeters>192.600006103515625</AltitudeMeters>
            <DistanceMeters>42211.532821892</DistanceMeters>
          </Trackpoint>
          <Trackpoint>
            <Time>2021-10-09T08:26:11.000Z</Time>
            <Position>
              <LatitudeDegrees>39.61305988021194934844970703125</LatitudeDegrees>
              <LongitudeDegrees>-0.7204247452318668365478515625</LongitudeDegrees>
            </Position>
            <AltitudeMeters>192.600006103515625</AltitudeMeters>
            <DistanceMeters>42224.052568971</DistanceMeters>
          </Trackpoint>
          <Trackpoint>
            <Time>2021-10-09T08:26:12.000Z</Time>
            <Position>
              <LatitudeDegrees>39.6129580400884151458740234375</LatitudeDegrees>
              <LongitudeDegrees>-0.7204844243824481964111328125</LongitudeDegrees>
            </Position>
            <AltitudeMeters>192</AltitudeMeters>
            <DistanceMeters>42236.48909378</DistanceMeters>
          </Trackpoint>
          <Trackpoint>
            <Time>2021-10-09T08:26:13.000Z</Time>
            <Position>
              <LatitudeDegrees>39.61285502649843692779541015625</LatitudeDegrees>
              <LongitudeDegrees>-0.72054670192301273345947265625</LongitudeDegrees>
            </Position>
            <AltitudeMeters>191.399993896484375</AltitudeMeters>
            <DistanceMeters>42249.137288682</DistanceMeters>
          </Trackpoint>
          <Trackpoint>
            <Time>2021-10-09T08:26:14.000Z</Time>
            <Position>
              <LatitudeDegrees>39.6127327345311641693115234375</LatitudeDegrees>
              <LongitudeDegrees>-0.72062012739479541778564453125</LongitudeDegrees>
            </Position>
            <AltitudeMeters>191</AltitudeMeters>
            <DistanceMeters>42264.134057798</DistanceMeters>
          </Trackpoint>
          <Trackpoint>
            <Time>2021-10-09T08:26:15.000Z</Time>
            <Position>
              <LatitudeDegrees>39.6126526035368442535400390625</LatitudeDegrees>
              <LongitudeDegrees>-0.72066589258611202239990234375</LongitudeDegrees>
            </Position>
            <AltitudeMeters>190.1999969482421875</AltitudeMeters>
            <DistanceMeters>42273.877887832</DistanceMeters>
          </Trackpoint>
          <Trackpoint>
            <Time>2021-10-09T08:26:16.000Z</Time>
            <Position>
              <LatitudeDegrees>39.61255260743200778961181640625</LatitudeDegrees>
              <LongitudeDegrees>-0.72072322480380535125732421875</LongitudeDegrees>
            </Position>
            <AltitudeMeters>190</AltitudeMeters>
            <DistanceMeters>42286.045018686</DistanceMeters>
          </Trackpoint>
          <Trackpoint>
            <Time>2021-10-09T08:26:17.000Z</Time>
            <Position>
              <LatitudeDegrees>39.61245353333652019500732421875</LatitudeDegrees>
              <LongitudeDegrees>-0.72078055702149868011474609375</LongitudeDegrees>
            </Position>
            <AltitudeMeters>189.1999969482421875</AltitudeMeters>
            <DistanceMeters>42298.118274003</DistanceMeters>
          </Trackpoint>
          <Trackpoint>
            <Time>2021-10-09T08:26:18.000Z</Time>
            <Position>
              <LatitudeDegrees>39.61235605180263519287109375</LatitudeDegrees>
              <LongitudeDegrees>-0.720837973058223724365234375</LongitudeDegrees>
            </Position>
            <AltitudeMeters>188.8000030517578125</AltitudeMeters>
            <DistanceMeters>42310.033426619</DistanceMeters>
          </Trackpoint>
          <Trackpoint>
            <Time>2021-10-09T08:26:19.000Z</Time>
            <Position>
              <LatitudeDegrees>39.61225823499262332916259765625</LatitudeDegrees>
              <LongitudeDegrees>-0.72089656256139278411865234375</LongitudeDegrees>
            </Position>
            <AltitudeMeters>188</AltitudeMeters>
            <DistanceMeters>42322.024126229</DistanceMeters>
          </Trackpoint>
          <Trackpoint>
            <Time>2021-10-09T08:26:20.000Z</Time>
            <Position>
              <LatitudeDegrees>39.6121609210968017578125</LatitudeDegrees>
              <LongitudeDegrees>-0.72095624171197414398193359375</LongitudeDegrees>
            </Position>
            <AltitudeMeters>187.600006103515625</AltitudeMeters>
            <DistanceMeters>42334.003524162</DistanceMeters>
          </Trackpoint>
          <Trackpoint>
            <Time>2021-10-09T08:26:21.000Z</Time>
            <Position>
              <LatitudeDegrees>39.61206679232418537139892578125</LatitudeDegrees>
              <LongitudeDegrees>-0.7210168428719043731689453125</LongitudeDegrees>
            </Position>
            <AltitudeMeters>187.600006103515625</AltitudeMeters>
            <DistanceMeters>42345.698375073</DistanceMeters>
          </Trackpoint>
          <Trackpoint>
            <Time>2021-10-09T08:26:22.000Z</Time>
            <Position>
              <LatitudeDegrees>39.611975848674774169921875</LatitudeDegrees>
              <LongitudeDegrees>-0.72108699940145015716552734375</LongitudeDegrees>
            </Position>
            <AltitudeMeters>187.399993896484375</AltitudeMeters>
            <DistanceMeters>42357.473254848</DistanceMeters>
          </Trackpoint>
          <Trackpoint>
            <Time>2021-10-09T08:26:23.000Z</Time>
            <Position>
              <LatitudeDegrees>39.6118921972811222076416015625</LatitudeDegrees>
              <LongitudeDegrees>-0.72117132134735584259033203125</LongitudeDegrees>
            </Position>
            <AltitudeMeters>187.399993896484375</AltitudeMeters>
            <DistanceMeters>42369.2611646</DistanceMeters>
          </Trackpoint>
          <Trackpoint>
            <Time>2021-10-09T08:26:24.000Z</Time>
            <Position>
              <LatitudeDegrees>39.6118207834661006927490234375</LatitudeDegrees>
              <LongitudeDegrees>-0.72127282619476318359375</LongitudeDegrees>
            </Position>
            <AltitudeMeters>187</AltitudeMeters>
            <DistanceMeters>42381.047925228</DistanceMeters>
          </Trackpoint>
          <Trackpoint>
            <Time>2021-10-09T08:26:25.000Z</Time>
            <Position>
              <LatitudeDegrees>39.6117661334574222564697265625</LatitudeDegrees>
              <LongitudeDegrees>-0.72138790972530841827392578125</LongitudeDegrees>
            </Position>
            <AltitudeMeters>186.8000030517578125</AltitudeMeters>
            <DistanceMeters>42392.639626461</DistanceMeters>
          </Trackpoint>
          <Trackpoint>
            <Time>2021-10-09T08:26:26.000Z</Time>
            <Position>
              <LatitudeDegrees>39.6117269061505794525146484375</LatitudeDegrees>
              <LongitudeDegrees>-0.72151129133999347686767578125</LongitudeDegrees>
            </Position>
            <AltitudeMeters>186.399993896484375</AltitudeMeters>
            <DistanceMeters>42404.084330862</DistanceMeters>
          </Trackpoint>
          <Trackpoint>
            <Time>2021-10-09T08:26:27.000Z</Time>
            <Position>
              <LatitudeDegrees>39.61169756948947906494140625</LatitudeDegrees>
              <LongitudeDegrees>-0.7216354273259639739990234375</LongitudeDegrees>
            </Position>
            <AltitudeMeters>185.600006103515625</AltitudeMeters>
            <DistanceMeters>42415.217471895</DistanceMeters>
          </Trackpoint>
          <Trackpoint>
            <Time>2021-10-09T08:26:28.000Z</Time>
            <Position>
              <LatitudeDegrees>39.61167602799832820892333984375</LatitudeDegrees>
              <LongitudeDegrees>-0.72175721637904644012451171875</LongitudeDegrees>
            </Position>
            <AltitudeMeters>185.399993896484375</AltitudeMeters>
            <DistanceMeters>42425.931918303</DistanceMeters>
          </Trackpoint>
          <Trackpoint>
            <Time>2021-10-09T08:26:29.000Z</Time>
            <Position>
              <LatitudeDegrees>39.61165867745876312255859375</LatitudeDegrees>
              <LongitudeDegrees>-0.72188126854598522186279296875</LongitudeDegrees>
            </Position>
            <AltitudeMeters>185</AltitudeMeters>
            <DistanceMeters>42436.742433987</DistanceMeters>
          </Trackpoint>
          <Trackpoint>
            <Time>2021-10-09T08:26:30.000Z</Time>
            <Position>
              <LatitudeDegrees>39.6116419136524200439453125</LatitudeDegrees>
              <LongitudeDegrees>-0.7220012135803699493408203125</LongitudeDegrees>
            </Position>
            <AltitudeMeters>184.8000030517578125</AltitudeMeters>
            <DistanceMeters>42447.194940619</DistanceMeters>
          </Trackpoint>
          <Trackpoint>
            <Time>2021-10-09T08:26:31.000Z</Time>
            <Position>
              <LatitudeDegrees>39.6116243116557598114013671875</LatitudeDegrees>
              <LongitudeDegrees>-0.72211436927318572998046875</LongitudeDegrees>
            </Position>
            <AltitudeMeters>184.600006103515625</AltitudeMeters>
            <DistanceMeters>42457.092783785</DistanceMeters>
          </Trackpoint>
          <Trackpoint>
            <Time>2021-10-09T08:26:32.000Z</Time>
            <Position>
              <LatitudeDegrees>39.61160461418330669403076171875</LatitudeDegrees>
              <LongitudeDegrees>-0.72222358547151088714599609375</LongitudeDegrees>
            </Position>
            <AltitudeMeters>184.600006103515625</AltitudeMeters>
            <DistanceMeters>42466.710689123</DistanceMeters>
          </Trackpoint>
          <Trackpoint>
            <Time>2021-10-09T08:26:33.000Z</Time>
            <Position>
              <LatitudeDegrees>39.6115847490727901458740234375</LatitudeDegrees>
              <LongitudeDegrees>-0.7223328016698360443115234375</LongitudeDegrees>
            </Position>
            <AltitudeMeters>184.600006103515625</AltitudeMeters>
            <DistanceMeters>42476.333287725</DistanceMeters>
          </Trackpoint>
          <Trackpoint>
            <Time>2021-10-09T08:26:34.000Z</Time>
            <Position>
              <LatitudeDegrees>39.61156538687646389007568359375</LatitudeDegrees>
              <LongitudeDegrees>-0.72244084440171718597412109375</LongitudeDegrees>
            </Position>
            <AltitudeMeters>184.600006103515625</AltitudeMeters>
            <DistanceMeters>42485.844507721</DistanceMeters>
          </Trackpoint>
          <Trackpoint>
            <Time>2021-10-09T08:26:35.000Z</Time>
            <Position>
              <LatitudeDegrees>39.61154627613723278045654296875</LatitudeDegrees>
              <LongitudeDegrees>-0.7225453667342662811279296875</LongitudeDegrees>
            </Position>
            <AltitudeMeters>184.600006103515625</AltitudeMeters>
            <DistanceMeters>42495.055238864</DistanceMeters>
          </Trackpoint>
          <Trackpoint>
            <Time>2021-10-09T08:26:36.000Z</Time>
            <Position>
              <LatitudeDegrees>39.6115294285118579864501953125</LatitudeDegrees>
              <LongitudeDegrees>-0.72264938615262508392333984375</LongitudeDegrees>
            </Position>
            <AltitudeMeters>184.399993896484375</AltitudeMeters>
            <DistanceMeters>42504.169385736</DistanceMeters>
          </Trackpoint>
          <Trackpoint>
            <Time>2021-10-09T08:26:37.000Z</Time>
            <Position>
              <LatitudeDegrees>39.6115171909332275390625</LatitudeDegrees>
              <LongitudeDegrees>-0.72275298647582530975341796875</LongitudeDegrees>
            </Position>
            <AltitudeMeters>184.399993896484375</AltitudeMeters>
            <DistanceMeters>42513.156320904</DistanceMeters>
          </Trackpoint>
          <Trackpoint>
            <Time>2021-10-09T08:26:38.000Z</Time>
            <Position>
              <LatitudeDegrees>39.6115116588771343231201171875</LatitudeDegrees>
              <LongitudeDegrees>-0.72285491041839122772216796875</LongitudeDegrees>
            </Position>
            <AltitudeMeters>184.399993896484375</AltitudeMeters>
            <DistanceMeters>42521.917351082</DistanceMeters>
          </Trackpoint>
          <Trackpoint>
            <Time>2021-10-09T08:26:39.000Z</Time>
            <Position>
              <LatitudeDegrees>39.61151425726711750030517578125</LatitudeDegrees>
              <LongitudeDegrees>-0.72295733727514743804931640625</LongitudeDegrees>
            </Position>
            <AltitudeMeters>184.399993896484375</AltitudeMeters>
            <DistanceMeters>42530.705138844</DistanceMeters>
          </Trackpoint>
          <Trackpoint>
            <Time>2021-10-09T08:26:40.000Z</Time>
            <Position>
              <LatitudeDegrees>39.611526913940906524658203125</LatitudeDegrees>
              <LongitudeDegrees>-0.72305381298065185546875</LongitudeDegrees>
            </Position>
            <AltitudeMeters>184.600006103515625</AltitudeMeters>
            <DistanceMeters>42539.096594982</DistanceMeters>
          </Trackpoint>
          <Trackpoint>
            <Time>2021-10-09T08:26:41.000Z</Time>
            <Position>
              <LatitudeDegrees>39.6115480363368988037109375</LatitudeDegrees>
              <LongitudeDegrees>-0.7231458462774753570556640625</LongitudeDegrees>
            </Position>
            <AltitudeMeters>184.600006103515625</AltitudeMeters>
            <DistanceMeters>42547.330537776</DistanceMeters>
          </Trackpoint>
          <Trackpoint>
            <Time>2021-10-09T08:26:42.000Z</Time>
            <Position>
              <LatitudeDegrees>39.6115649677813053131103515625</LatitudeDegrees>
              <LongitudeDegrees>-0.7232360355556011199951171875</LongitudeDegrees>
            </Position>
            <AltitudeMeters>184.600006103515625</AltitudeMeters>
            <DistanceMeters>42555.290124218</DistanceMeters>
          </Trackpoint>
          <Trackpoint>
            <Time>2021-10-09T08:26:43.000Z</Time>
            <Position>
              <LatitudeDegrees>39.61157016456127166748046875</LatitudeDegrees>
              <LongitudeDegrees>-0.72332580573856830596923828125</LongitudeDegrees>
            </Position>
            <AltitudeMeters>184.600006103515625</AltitudeMeters>
            <DistanceMeters>42563.010130988</DistanceMeters>
          </Trackpoint>
          <Trackpoint>
            <Time>2021-10-09T08:26:44.000Z</Time>
            <Position>
              <LatitudeDegrees>39.61155951954424381256103515625</LatitudeDegrees>
              <LongitudeDegrees>-0.723414234817028045654296875</LongitudeDegrees>
            </Position>
            <AltitudeMeters>184.600006103515625</AltitudeMeters>
            <DistanceMeters>42570.684383953</DistanceMeters>
          </Trackpoint>
          <Trackpoint>
            <Time>2021-10-09T08:26:45.000Z</Time>
            <Position>
              <LatitudeDegrees>39.611532278358936309814453125</LatitudeDegrees>
              <LongitudeDegrees>-0.72349579073488712310791015625</LongitudeDegrees>
            </Position>
            <AltitudeMeters>184.600006103515625</AltitudeMeters>
            <DistanceMeters>42578.306687531</DistanceMeters>
          </Trackpoint>
          <Trackpoint>
            <Time>2021-10-09T08:26:46.000Z</Time>
            <Position>
              <LatitudeDegrees>39.61148944683372974395751953125</LatitudeDegrees>
              <LongitudeDegrees>-0.72356670163571834564208984375</LongitudeDegrees>
            </Position>
            <AltitudeMeters>184.8000030517578125</AltitudeMeters>
            <DistanceMeters>42586.032540578</DistanceMeters>
          </Trackpoint>
          <Trackpoint>
            <Time>2021-10-09T08:26:47.000Z</Time>
            <Position>
              <LatitudeDegrees>39.611433036625385284423828125</LatitudeDegrees>
              <LongitudeDegrees>-0.72361984290182590484619140625</LongitudeDegrees>
            </Position>
            <AltitudeMeters>184.8000030517578125</AltitudeMeters>
            <DistanceMeters>42593.789305325</DistanceMeters>
          </Trackpoint>
          <Trackpoint>
            <Time>2021-10-09T08:26:48.000Z</Time>
            <Position>
              <LatitudeDegrees>39.61136899888515472412109375</LatitudeDegrees>
              <LongitudeDegrees>-0.7236490957438945770263671875</LongitudeDegrees>
            </Position>
            <AltitudeMeters>184.8000030517578125</AltitudeMeters>
            <DistanceMeters>42601.344974937</DistanceMeters>
          </Trackpoint>
          <Trackpoint>
            <Time>2021-10-09T08:26:49.000Z</Time>
            <Position>
              <LatitudeDegrees>39.6112985908985137939453125</LatitudeDegrees>
              <LongitudeDegrees>-0.7236591540277004241943359375</LongitudeDegrees>
            </Position>
            <AltitudeMeters>185</AltitudeMeters>
            <DistanceMeters>42609.22932946</DistanceMeters>
          </Trackpoint>
          <Trackpoint>
            <Time>2021-10-09T08:26:50.000Z</Time>
            <Position>
              <LatitudeDegrees>39.61122591979801654815673828125</LatitudeDegrees>
              <LongitudeDegrees>-0.72365253232419490814208984375</LongitudeDegrees>
            </Position>
            <AltitudeMeters>185</AltitudeMeters>
            <DistanceMeters>42617.338399484</DistanceMeters>
          </Trackpoint>
          <Trackpoint>
            <Time>2021-10-09T08:26:51.000Z</Time>
            <Position>
              <LatitudeDegrees>39.61115333251655101776123046875</LatitudeDegrees>
              <LongitudeDegrees>-0.723638199269771575927734375</LongitudeDegrees>
            </Position>
            <AltitudeMeters>185.1999969482421875</AltitudeMeters>
            <DistanceMeters>42625.51069692</DistanceMeters>
          </Trackpoint>
          <Trackpoint>
            <Time>2021-10-09T08:26:52.000Z</Time>
            <Position>
              <LatitudeDegrees>39.61107839830219745635986328125</LatitudeDegrees>
              <LongitudeDegrees>-0.723630152642726898193359375</LongitudeDegrees>
            </Position>
            <AltitudeMeters>185.1999969482421875</AltitudeMeters>
            <DistanceMeters>42633.879524371</DistanceMeters>
          </Trackpoint>
          <Trackpoint>
            <Time>2021-10-09T08:26:53.000Z</Time>
            <Position>
              <LatitudeDegrees>39.611002542078495025634765625</LatitudeDegrees>
              <LongitudeDegrees>-0.7236291468143463134765625</LongitudeDegrees>
            </Position>
            <AltitudeMeters>185.1999969482421875</AltitudeMeters>
            <DistanceMeters>42642.322475481</DistanceMeters>
          </Trackpoint>
          <Trackpoint>
            <Time>2021-10-09T08:26:54.000Z</Time>
            <Position>
              <LatitudeDegrees>39.610926769673824310302734375</LatitudeDegrees>
              <LongitudeDegrees>-0.7236259616911411285400390625</LongitudeDegrees>
            </Position>
            <AltitudeMeters>185.1999969482421875</AltitudeMeters>
            <DistanceMeters>42650.760077195</DistanceMeters>
          </Trackpoint>
          <Trackpoint>
            <Time>2021-10-09T08:26:55.000Z</Time>
            <Position>
              <LatitudeDegrees>39.61085091345012187957763671875</LatitudeDegrees>
              <LongitudeDegrees>-0.7236155681312084197998046875</LongitudeDegrees>
            </Position>
            <AltitudeMeters>185.1999969482421875</AltitudeMeters>
            <DistanceMeters>42659.249957652</DistanceMeters>
          </Trackpoint>
          <Trackpoint>
            <Time>2021-10-09T08:26:56.000Z</Time>
            <Position>
              <LatitudeDegrees>39.610775224864482879638671875</LatitudeDegrees>
              <LongitudeDegrees>-0.72360324673354625701904296875</LongitudeDegrees>
            </Position>
            <AltitudeMeters>185</AltitudeMeters>
            <DistanceMeters>42667.739838109</DistanceMeters>
          </Trackpoint>
          <Trackpoint>
            <Time>2021-10-09T08:26:57.000Z</Time>
            <Position>
              <LatitudeDegrees>39.61069869808852672576904296875</LatitudeDegrees>
              <LongitudeDegrees>-0.723591260612010955810546875</LongitudeDegrees>
            </Position>
            <AltitudeMeters>185</AltitudeMeters>
            <DistanceMeters>42676.318598102</DistanceMeters>
          </Trackpoint>
          <Trackpoint>
            <Time>2021-10-09T08:26:58.000Z</Time>
            <Position>
              <LatitudeDegrees>39.61062342859804630279541015625</LatitudeDegrees>
              <LongitudeDegrees>-0.7235817052423954010009765625</LongitudeDegrees>
            </Position>
            <AltitudeMeters>184.8000030517578125</AltitudeMeters>
            <DistanceMeters>42684.735841106</DistanceMeters>
          </Trackpoint>
          <Trackpoint>
            <Time>2021-10-09T08:26:59.000Z</Time>
            <Position>
              <LatitudeDegrees>39.6105480752885341644287109375</LatitudeDegrees>
              <LongitudeDegrees>-0.72357374243438243865966796875</LongitudeDegrees>
            </Position>
            <AltitudeMeters>184.8000030517578125</AltitudeMeters>
            <DistanceMeters>42693.150938222</DistanceMeters>
          </Trackpoint>
          <Trackpoint>
            <Time>2021-10-09T08:27:00.000Z</Time>
            <Position>
              <LatitudeDegrees>39.61047171615064144134521484375</LatitudeDegrees>
              <LongitudeDegrees>-0.72356904856860637664794921875</LongitudeDegrees>
            </Position>
            <AltitudeMeters>184.600006103515625</AltitudeMeters>
            <DistanceMeters>42701.659942448</DistanceMeters>
          </Trackpoint>
          <Trackpoint>
            <Time>2021-10-09T08:27:01.000Z</Time>
            <Position>
              <LatitudeDegrees>39.6103938482701778411865234375</LatitudeDegrees>
              <LongitudeDegrees>-0.7235693000257015228271484375</LongitudeDegrees>
            </Position>
            <AltitudeMeters>184.600006103515625</AltitudeMeters>
            <DistanceMeters>42710.327191489</DistanceMeters>
          </Trackpoint>
          <Trackpoint>
            <Time>2021-10-09T08:27:02.000Z</Time>
            <Position>
              <LatitudeDegrees>39.6103167347609996795654296875</LatitudeDegrees>
              <LongitudeDegrees>-0.72357374243438243865966796875</LongitudeDegrees>
            </Position>
            <AltitudeMeters>184.399993896484375</AltitudeMeters>
            <DistanceMeters>42718.9185735</DistanceMeters>
          </Trackpoint>
          <Trackpoint>
            <Time>2021-10-09T08:27:03.000Z</Time>
            <Position>
              <LatitudeDegrees>39.61023584939539432525634765625</LatitudeDegrees>
              <LongitudeDegrees>-0.7235827110707759857177734375</LongitudeDegrees>
            </Position>
            <AltitudeMeters>184.399993896484375</AltitudeMeters>
            <DistanceMeters>42727.954110071</DistanceMeters>
          </Trackpoint>
          <Trackpoint>
            <Time>2021-10-09T08:27:04.000Z</Time>
            <Position>
              <LatitudeDegrees>39.610154628753662109375</LatitudeDegrees>
              <LongitudeDegrees>-0.7235941104590892791748046875</LongitudeDegrees>
            </Position>
            <AltitudeMeters>184.399993896484375</AltitudeMeters>
            <DistanceMeters>42737.046930311</DistanceMeters>
          </Trackpoint>
          <Trackpoint>
            <Time>2021-10-09T08:27:05.000Z</Time>
            <Position>
              <LatitudeDegrees>39.61007173173129558563232421875</LatitudeDegrees>
              <LongitudeDegrees>-0.7236075215041637420654296875</LongitudeDegrees>
            </Position>
            <AltitudeMeters>184.1999969482421875</AltitudeMeters>
            <DistanceMeters>42746.344992038</DistanceMeters>
          </Trackpoint>
          <Trackpoint>
            <Time>2021-10-09T08:27:06.000Z</Time>
            <Position>
              <LatitudeDegrees>39.60998606868088245391845703125</LatitudeDegrees>
              <LongitudeDegrees>-0.7236219383776187896728515625</LongitudeDegrees>
            </Position>
            <AltitudeMeters>183.8000030517578125</AltitudeMeters>
            <DistanceMeters>42755.959141115</DistanceMeters>
          </Trackpoint>
          <Trackpoint>
            <Time>2021-10-09T08:27:07.000Z</Time>
            <Position>
              <LatitudeDegrees>39.60989906452596187591552734375</LatitudeDegrees>
              <LongitudeDegrees>-0.7236370258033275604248046875</LongitudeDegrees>
            </Position>
            <AltitudeMeters>183.600006103515625</AltitudeMeters>
            <DistanceMeters>42765.728885637</DistanceMeters>
          </Trackpoint>
          <Trackpoint>
            <Time>2021-10-09T08:27:08.000Z</Time>
            <Position>
              <LatitudeDegrees>39.6098101325333118438720703125</LatitudeDegrees>
              <LongitudeDegrees>-0.72365437634289264678955078125</LongitudeDegrees>
            </Position>
            <AltitudeMeters>183.399993896484375</AltitudeMeters>
            <DistanceMeters>42775.738316097</DistanceMeters>
          </Trackpoint>
          <Trackpoint>
            <Time>2021-10-09T08:27:09.000Z</Time>
            <Position>
              <LatitudeDegrees>39.6097206138074398040771484375</LatitudeDegrees>
              <LongitudeDegrees>-0.72367264889180660247802734375</LongitudeDegrees>
            </Position>
            <AltitudeMeters>183.399993896484375</AltitudeMeters>
            <DistanceMeters>42785.824138381</DistanceMeters>
          </Trackpoint>
          <Trackpoint>
            <Time>2021-10-09T08:27:10.000Z</Time>
            <Position>
              <LatitudeDegrees>39.60962832905352115631103515625</LatitudeDegrees>
              <LongitudeDegrees>-0.72368941269814968109130859375</LongitudeDegrees>
            </Position>
            <AltitudeMeters>183</AltitudeMeters>
            <DistanceMeters>42796.195989743</DistanceMeters>
          </Trackpoint>
          <Trackpoint>
            <Time>2021-10-09T08:27:11.000Z</Time>
            <Position>
              <LatitudeDegrees>39.60953461937606334686279296875</LatitudeDegrees>
              <LongitudeDegrees>-0.72370450012385845184326171875</LongitudeDegrees>
            </Position>
            <AltitudeMeters>182.600006103515625</AltitudeMeters>
            <DistanceMeters>42806.706219291</DistanceMeters>
          </Trackpoint>
          <Trackpoint>
            <Time>2021-10-09T08:27:12.000Z</Time>
            <Position>
              <LatitudeDegrees>39.60943873040378093719482421875</LatitudeDegrees>
              <LongitudeDegrees>-0.72371975518763065338134765625</LongitudeDegrees>
            </Position>
            <AltitudeMeters>182.1999969482421875</AltitudeMeters>
            <DistanceMeters>42817.458524565</DistanceMeters>
          </Trackpoint>
          <Trackpoint>
            <Time>2021-10-09T08:27:13.000Z</Time>
            <Position>
              <LatitudeDegrees>39.60934166796505451202392578125</LatitudeDegrees>
              <LongitudeDegrees>-0.72373685427010059356689453125</LongitudeDegrees>
            </Position>
            <AltitudeMeters>181.600006103515625</AltitudeMeters>
            <DistanceMeters>42828.360950727</DistanceMeters>
          </Trackpoint>
          <Trackpoint>
            <Time>2021-10-09T08:27:14.000Z</Time>
            <Position>
              <LatitudeDegrees>39.609243683516979217529296875</LatitudeDegrees>
              <LongitudeDegrees>-0.72375630028545856475830078125</LongitudeDegrees>
            </Position>
            <AltitudeMeters>181.1999969482421875</AltitudeMeters>
            <DistanceMeters>42839.393875565</DistanceMeters>
          </Trackpoint>
          <Trackpoint>
            <Time>2021-10-09T08:27:15.000Z</Time>
            <Position>
              <LatitudeDegrees>39.60914318449795246124267578125</LatitudeDegrees>
              <LongitudeDegrees>-0.72377809323370456695556640625</LongitudeDegrees>
            </Position>
            <AltitudeMeters>180.600006103515625</AltitudeMeters>
            <DistanceMeters>42850.735145726</DistanceMeters>
          </Trackpoint>
          <Trackpoint>
            <Time>2021-10-09T08:27:16.000Z</Time>
            <Position>
              <LatitudeDegrees>39.60904193110764026641845703125</LatitudeDegrees>
              <LongitudeDegrees>-0.72379871271550655364990234375</LongitudeDegrees>
            </Position>
            <AltitudeMeters>180.1999969482421875</AltitudeMeters>
            <DistanceMeters>42862.143101797</DistanceMeters>
          </Trackpoint>
          <Trackpoint>
            <Time>2021-10-09T08:27:17.000Z</Time>
            <Position>
              <LatitudeDegrees>39.60893983952701091766357421875</LatitudeDegrees>
              <LongitudeDegrees>-0.72381933219730854034423828125</LongitudeDegrees>
            </Position>
            <AltitudeMeters>179.600006103515625</AltitudeMeters>
            <DistanceMeters>42873.642512192</DistanceMeters>
          </Trackpoint>
          <Trackpoint>
            <Time>2021-10-09T08:27:18.000Z</Time>
            <Position>
              <LatitudeDegrees>39.60883724503219127655029296875</LatitudeDegrees>
              <LongitudeDegrees>-0.7238405384123325347900390625</LongitudeDegrees>
            </Position>
            <AltitudeMeters>179</AltitudeMeters>
            <DistanceMeters>42885.204573067</DistanceMeters>
          </Trackpoint>
          <Trackpoint>
            <Time>2021-10-09T08:27:19.000Z</Time>
            <Position>
              <LatitudeDegrees>39.60873515345156192779541015625</LatitudeDegrees>
              <LongitudeDegrees>-0.7238609902560710906982421875</LongitudeDegrees>
            </Position>
            <AltitudeMeters>178.600006103515625</AltitudeMeters>
            <DistanceMeters>42896.702020134</DistanceMeters>
          </Trackpoint>
          <Trackpoint>
            <Time>2021-10-09T08:27:20.000Z</Time>
            <Position>
              <LatitudeDegrees>39.6086313016712665557861328125</LatitudeDegrees>
              <LongitudeDegrees>-0.7238866388797760009765625</LongitudeDegrees>
            </Position>
            <AltitudeMeters>177.8000030517578125</AltitudeMeters>
            <DistanceMeters>42908.468077331</DistanceMeters>
          </Trackpoint>
          <Trackpoint>
            <Time>2021-10-09T08:27:21.000Z</Time>
            <Position>
              <LatitudeDegrees>39.60852585732936859130859375</LatitudeDegrees>
              <LongitudeDegrees>-0.7239126227796077728271484375</LongitudeDegrees>
            </Position>
            <AltitudeMeters>177.399993896484375</AltitudeMeters>
            <DistanceMeters>42920.413884045</DistanceMeters>
          </Trackpoint>
          <Trackpoint>
            <Time>2021-10-09T08:27:22.000Z</Time>
            <Position>
              <LatitudeDegrees>39.60842016153037548065185546875</LatitudeDegrees>
              <LongitudeDegrees>-0.72393600828945636749267578125</LongitudeDegrees>
            </Position>
            <AltitudeMeters>176.8000030517578125</AltitudeMeters>
            <DistanceMeters>42932.347968244</DistanceMeters>
          </Trackpoint>
          <Trackpoint>
            <Time>2021-10-09T08:27:23.000Z</Time>
            <Position>
              <LatitudeDegrees>39.608312956988811492919921875</LatitudeDegrees>
              <LongitudeDegrees>-0.7239535264670848846435546875</LongitudeDegrees>
            </Position>
            <AltitudeMeters>176.399993896484375</AltitudeMeters>
            <DistanceMeters>42944.374010998</DistanceMeters>
          </Trackpoint>
          <Trackpoint>
            <Time>2021-10-09T08:27:24.000Z</Time>
            <Position>
              <LatitudeDegrees>39.60820575244724750518798828125</LatitudeDegrees>
              <LongitudeDegrees>-0.7239632494747638702392578125</LongitudeDegrees>
            </Position>
            <AltitudeMeters>175.600006103515625</AltitudeMeters>
            <DistanceMeters>42956.334926561</DistanceMeters>
          </Trackpoint>
          <Trackpoint>
            <Time>2021-10-09T08:27:25.000Z</Time>
            <Position>
              <LatitudeDegrees>39.60809804499149322509765625</LatitudeDegrees>
              <LongitudeDegrees>-0.7239609025418758392333984375</LongitudeDegrees>
            </Position>
            <AltitudeMeters>174.600006103515625</AltitudeMeters>
            <DistanceMeters>42968.324873058</DistanceMeters>
          </Trackpoint>
          <Trackpoint>
            <Time>2021-10-09T08:27:26.000Z</Time>
            <Position>
              <LatitudeDegrees>39.6079895831644535064697265625</LatitudeDegrees>
              <LongitudeDegrees>-0.72394489310681819915771484375</LongitudeDegrees>
            </Position>
            <AltitudeMeters>174.1999969482421875</AltitudeMeters>
            <DistanceMeters>42980.474922017</DistanceMeters>
          </Trackpoint>
          <Trackpoint>
            <Time>2021-10-09T08:27:27.000Z</Time>
            <Position>
              <LatitudeDegrees>39.60788086988031864166259765625</LatitudeDegrees>
              <LongitudeDegrees>-0.72392041794955730438232421875</LongitudeDegrees>
            </Position>
            <AltitudeMeters>173.1999969482421875</AltitudeMeters>
            <DistanceMeters>42992.755815175</DistanceMeters>
          </Trackpoint>
          <Trackpoint>
            <Time>2021-10-09T08:27:28.000Z</Time>
            <Position>
              <LatitudeDegrees>39.6077719889581203460693359375</LatitudeDegrees>
              <LongitudeDegrees>-0.7238904945552349090576171875</LongitudeDegrees>
            </Position>
            <AltitudeMeters>172.8000030517578125</AltitudeMeters>
            <DistanceMeters>43005.142867243</DistanceMeters>
          </Trackpoint>
          <Trackpoint>
            <Time>2021-10-09T08:27:29.000Z</Time>
            <Position>
              <LatitudeDegrees>39.60766294039785861968994140625</LatitudeDegrees>
              <LongitudeDegrees>-0.7238598167896270751953125</LongitudeDegrees>
            </Position>
            <AltitudeMeters>172.399993896484375</AltitudeMeters>
            <DistanceMeters>43017.561953589</DistanceMeters>
          </Trackpoint>
          <Trackpoint>
            <Time>2021-10-09T08:27:30.000Z</Time>
            <Position>
              <LatitudeDegrees>39.60755263455212116241455078125</LatitudeDegrees>
              <LongitudeDegrees>-0.723828971385955810546875</LongitudeDegrees>
            </Position>
            <AltitudeMeters>172</AltitudeMeters>
            <DistanceMeters>43030.121307685</DistanceMeters>
          </Trackpoint>
          <Trackpoint>
            <Time>2021-10-09T08:27:31.000Z</Time>
            <Position>
              <LatitudeDegrees>39.60744266398251056671142578125</LatitudeDegrees>
              <LongitudeDegrees>-0.72379787452518939971923828125</LongitudeDegrees>
            </Position>
            <AltitudeMeters>171</AltitudeMeters>
            <DistanceMeters>43042.648625775</DistanceMeters>
          </Trackpoint>
          <Trackpoint>
            <Time>2021-10-09T08:27:32.000Z</Time>
            <Position>
              <LatitudeDegrees>39.6073334477841854095458984375</LatitudeDegrees>
              <LongitudeDegrees>-0.72376753203570842742919921875</LongitudeDegrees>
            </Position>
            <AltitudeMeters>170.1999969482421875</AltitudeMeters>
            <DistanceMeters>43055.080066893</DistanceMeters>
          </Trackpoint>
          <Trackpoint>
            <Time>2021-10-09T08:27:33.000Z</Time>
            <Position>
              <LatitudeDegrees>39.6072295121848583221435546875</LatitudeDegrees>
              <LongitudeDegrees>-0.7237359322607517242431640625</LongitudeDegrees>
            </Position>
            <AltitudeMeters>169.600006103515625</AltitudeMeters>
            <DistanceMeters>43066.961066639</DistanceMeters>
          </Trackpoint>
          <Trackpoint>
            <Time>2021-10-09T08:27:34.000Z</Time>
            <Position>
              <LatitudeDegrees>39.607130773365497589111328125</LatitudeDegrees>
              <LongitudeDegrees>-0.72370818816125392913818359375</LongitudeDegrees>
            </Position>
            <AltitudeMeters>168.600006103515625</AltitudeMeters>
            <DistanceMeters>43078.205983733</DistanceMeters>
          </Trackpoint>
          <Trackpoint>
            <Time>2021-10-09T08:27:35.000Z</Time>
            <Position>
              <LatitudeDegrees>39.60703580640256404876708984375</LatitudeDegrees>
              <LongitudeDegrees>-0.72368622757494449615478515625</LongitudeDegrees>
            </Position>
            <AltitudeMeters>168.1999969482421875</AltitudeMeters>
            <DistanceMeters>43088.942740966</DistanceMeters>
          </Trackpoint>
          <Trackpoint>
            <Time>2021-10-09T08:27:36.000Z</Time>
            <Position>
              <LatitudeDegrees>39.6069431863725185394287109375</LatitudeDegrees>
              <LongitudeDegrees>-0.723671726882457733154296875</LongitudeDegrees>
            </Position>
            <AltitudeMeters>167.600006103515625</AltitudeMeters>
            <DistanceMeters>43099.325904389</DistanceMeters>
          </Trackpoint>
          <Trackpoint>
            <Time>2021-10-09T08:27:37.000Z</Time>
            <Position>
              <LatitudeDegrees>39.60685157217085361480712890625</LatitudeDegrees>
              <LongitudeDegrees>-0.72367315180599689483642578125</LongitudeDegrees>
            </Position>
            <AltitudeMeters>166.600006103515625</AltitudeMeters>
            <DistanceMeters>43109.523470781</DistanceMeters>
          </Trackpoint>
          <Trackpoint>
            <Time>2021-10-09T08:27:38.000Z</Time>
            <Position>
              <LatitudeDegrees>39.606761299073696136474609375</LatitudeDegrees>
              <LongitudeDegrees>-0.72368974797427654266357421875</LongitudeDegrees>
            </Position>
            <AltitudeMeters>165.8000030517578125</AltitudeMeters>
            <DistanceMeters>43119.670882357</DistanceMeters>
          </Trackpoint>
          <Trackpoint>
            <Time>2021-10-09T08:27:39.000Z</Time>
            <Position>
              <LatitudeDegrees>39.60667672567069530487060546875</LatitudeDegrees>
              <LongitudeDegrees>-0.723723359405994415283203125</LongitudeDegrees>
            </Position>
            <AltitudeMeters>165.1999969482421875</AltitudeMeters>
            <DistanceMeters>43129.515209678</DistanceMeters>
          </Trackpoint>
          <Trackpoint>
            <Time>2021-10-09T08:27:40.000Z</Time>
            <Position>
              <LatitudeDegrees>39.60659860633313655853271484375</LatitudeDegrees>
              <LongitudeDegrees>-0.72376619093120098114013671875</LongitudeDegrees>
            </Position>
            <AltitudeMeters>164.8000030517578125</AltitudeMeters>
            <DistanceMeters>43138.953998488</DistanceMeters>
          </Trackpoint>
          <Trackpoint>
            <Time>2021-10-09T08:27:41.000Z</Time>
            <Position>
              <LatitudeDegrees>39.60652434267103672027587890625</LatitudeDegrees>
              <LongitudeDegrees>-0.72381497360765933990478515625</LongitudeDegrees>
            </Position>
            <AltitudeMeters>163.8000030517578125</AltitudeMeters>
            <DistanceMeters>43148.218006612</DistanceMeters>
          </Trackpoint>
          <Trackpoint>
            <Time>2021-10-09T08:27:42.000Z</Time>
            <Position>
              <LatitudeDegrees>39.60645494051277637481689453125</LatitudeDegrees>
              <LongitudeDegrees>-0.7238633371889591217041015625</LongitudeDegrees>
            </Position>
            <AltitudeMeters>163.1999969482421875</AltitudeMeters>
            <DistanceMeters>43156.985218865</DistanceMeters>
          </Trackpoint>
          <Trackpoint>
            <Time>2021-10-09T08:27:43.000Z</Time>
            <Position>
              <LatitudeDegrees>39.60639006458222866058349609375</LatitudeDegrees>
              <LongitudeDegrees>-0.723910443484783172607421875</LongitudeDegrees>
            </Position>
            <AltitudeMeters>162.1999969482421875</AltitudeMeters>
            <DistanceMeters>43165.259093986</DistanceMeters>
          </Trackpoint>
          <Trackpoint>
            <Time>2021-10-09T08:27:44.000Z</Time>
            <Position>
              <LatitudeDegrees>39.60632317699491977691650390625</LatitudeDegrees>
              <LongitudeDegrees>-0.7239565439522266387939453125</LongitudeDegrees>
            </Position>
            <AltitudeMeters>161.8000030517578125</AltitudeMeters>
            <DistanceMeters>43173.688129605</DistanceMeters>
          </Trackpoint>
          <Trackpoint>
            <Time>2021-10-09T08:27:45.000Z</Time>
            <Position>
              <LatitudeDegrees>39.606251679360866546630859375</LatitudeDegrees>
              <LongitudeDegrees>-0.72400264441967010498046875</LongitudeDegrees>
            </Position>
            <AltitudeMeters>161.399993896484375</AltitudeMeters>
            <DistanceMeters>43182.574016641</DistanceMeters>
          </Trackpoint>
          <Trackpoint>
            <Time>2021-10-09T08:27:46.000Z</Time>
            <Position>
              <LatitudeDegrees>39.6061767451465129852294921875</LatitudeDegrees>
              <LongitudeDegrees>-0.7240527682006359100341796875</LongitudeDegrees>
            </Position>
            <AltitudeMeters>160.600006103515625</AltitudeMeters>
            <DistanceMeters>43191.956671663</DistanceMeters>
          </Trackpoint>
          <Trackpoint>
            <Time>2021-10-09T08:27:47.000Z</Time>
            <Position>
              <LatitudeDegrees>39.6061033196747303009033203125</LatitudeDegrees>
              <LongitudeDegrees>-0.72410515509545803070068359375</LongitudeDegrees>
            </Position>
            <AltitudeMeters>159.8000030517578125</AltitudeMeters>
            <DistanceMeters>43201.281886736</DistanceMeters>
          </Trackpoint>
          <Trackpoint>
            <Time>2021-10-09T08:27:48.000Z</Time>
            <Position>
              <LatitudeDegrees>39.60602335631847381591796875</LatitudeDegrees>
              <LongitudeDegrees>-0.72415611706674098968505859375</LongitudeDegrees>
            </Position>
            <AltitudeMeters>158.8000030517578125</AltitudeMeters>
            <DistanceMeters>43211.197048976</DistanceMeters>
          </Trackpoint>
          <Trackpoint>
            <Time>2021-10-09T08:27:49.000Z</Time>
            <Position>
              <LatitudeDegrees>39.6059390343725681304931640625</LatitudeDegrees>
              <LongitudeDegrees>-0.72420322336256504058837890625</LongitudeDegrees>
            </Position>
            <AltitudeMeters>158.399993896484375</AltitudeMeters>
            <DistanceMeters>43221.414961866</DistanceMeters>
          </Trackpoint>
          <Trackpoint>
            <Time>2021-10-09T08:27:50.000Z</Time>
            <Position>
              <LatitudeDegrees>39.60585479624569416046142578125</LatitudeDegrees>
              <LongitudeDegrees>-0.72424312122166156768798828125</LongitudeDegrees>
            </Position>
            <AltitudeMeters>158</AltitudeMeters>
            <DistanceMeters>43231.39502916</DistanceMeters>
          </Trackpoint>
          <Trackpoint>
            <Time>2021-10-09T08:27:51.000Z</Time>
            <Position>
              <LatitudeDegrees>39.605767540633678436279296875</LatitudeDegrees>
              <LongitudeDegrees>-0.72428100742399692535400390625</LongitudeDegrees>
            </Position>
            <AltitudeMeters>157.600006103515625</AltitudeMeters>
            <DistanceMeters>43241.635893763</DistanceMeters>
          </Trackpoint>
          <Trackpoint>
            <Time>2021-10-09T08:27:52.000Z</Time>
            <Position>
              <LatitudeDegrees>39.6056808717548847198486328125</LatitudeDegrees>
              <LongitudeDegrees>-0.7243142835795879364013671875</LongitudeDegrees>
            </Position>
            <AltitudeMeters>156.8000030517578125</AltitudeMeters>
            <DistanceMeters>43251.695269321</DistanceMeters>
          </Trackpoint>
          <Trackpoint>
            <Time>2021-10-09T08:27:53.000Z</Time>
            <Position>
              <LatitudeDegrees>39.60559126920998096466064453125</LatitudeDegrees>
              <LongitudeDegrees>-0.7243404351174831390380859375</LongitudeDegrees>
            </Position>
            <AltitudeMeters>156.600006103515625</AltitudeMeters>
            <DistanceMeters>43261.917158312</DistanceMeters>
          </Trackpoint>
          <Trackpoint>
            <Time>2021-10-09T08:27:54.000Z</Time>
            <Position>
              <LatitudeDegrees>39.6055035106837749481201171875</LatitudeDegrees>
              <LongitudeDegrees>-0.72436164133250713348388671875</LongitudeDegrees>
            </Position>
            <AltitudeMeters>155.8000030517578125</AltitudeMeters>
            <DistanceMeters>43271.852790938</DistanceMeters>
          </Trackpoint>
          <Trackpoint>
            <Time>2021-10-09T08:27:55.000Z</Time>
            <Position>
              <LatitudeDegrees>39.60542262531816959381103515625</LatitudeDegrees>
              <LongitudeDegrees>-0.724380500614643096923828125</LongitudeDegrees>
            </Position>
            <AltitudeMeters>155.399993896484375</AltitudeMeters>
            <DistanceMeters>43280.999574977</DistanceMeters>
          </Trackpoint>
          <Trackpoint>
            <Time>2021-10-09T08:27:56.000Z</Time>
            <Position>
              <LatitudeDegrees>39.6053489483892917633056640625</LatitudeDegrees>
              <LongitudeDegrees>-0.7244001142680644989013671875</LongitudeDegrees>
            </Position>
            <AltitudeMeters>155</AltitudeMeters>
            <DistanceMeters>43289.370560176</DistanceMeters>
          </Trackpoint>
          <Trackpoint>
            <Time>2021-10-09T08:27:57.000Z</Time>
            <Position>
              <LatitudeDegrees>39.6052837371826171875</LatitudeDegrees>
              <LongitudeDegrees>-0.724409334361553192138671875</LongitudeDegrees>
            </Position>
            <AltitudeMeters>154.399993896484375</AltitudeMeters>
            <DistanceMeters>43296.672174472</DistanceMeters>
          </Trackpoint>
          <Trackpoint>
            <Time>2021-10-09T08:27:58.000Z</Time>
            <Position>
              <LatitudeDegrees>39.6052275784313678741455078125</LatitudeDegrees>
              <LongitudeDegrees>-0.7244108431041240692138671875</LongitudeDegrees>
            </Position>
            <AltitudeMeters>154.1999969482421875</AltitudeMeters>
            <DistanceMeters>43302.924470125</DistanceMeters>
          </Trackpoint>
          <Trackpoint>
            <Time>2021-10-09T08:27:59.000Z</Time>
            <Position>
              <LatitudeDegrees>39.605173431336879730224609375</LatitudeDegrees>
              <LongitudeDegrees>-0.72439785115420818328857421875</LongitudeDegrees>
            </Position>
            <AltitudeMeters>153.8000030517578125</AltitudeMeters>
            <DistanceMeters>43309.053509038</DistanceMeters>
          </Trackpoint>
          <Trackpoint>
            <Time>2021-10-09T08:28:00.000Z</Time>
            <Position>
              <LatitudeDegrees>39.60511852987110614776611328125</LatitudeDegrees>
              <LongitudeDegrees>-0.72438058443367481231689453125</LongitudeDegrees>
            </Position>
            <AltitudeMeters>153.600006103515625</AltitudeMeters>
            <DistanceMeters>43315.341090026</DistanceMeters>
          </Trackpoint>
          <Trackpoint>
            <Time>2021-10-09T08:28:01.000Z</Time>
            <Position>
              <LatitudeDegrees>39.6050616167485713958740234375</LatitudeDegrees>
              <LongitudeDegrees>-0.72437153197824954986572265625</LongitudeDegrees>
            </Position>
            <AltitudeMeters>153.399993896484375</AltitudeMeters>
            <DistanceMeters>43321.722754758</DistanceMeters>
          </Trackpoint>
          <Trackpoint>
            <Time>2021-10-09T08:28:02.000Z</Time>
            <Position>
              <LatitudeDegrees>39.6050029434263706207275390625</LatitudeDegrees>
              <LongitudeDegrees>-0.724375806748867034912109375</LongitudeDegrees>
            </Position>
            <AltitudeMeters>153.1999969482421875</AltitudeMeters>
            <DistanceMeters>43328.26374109</DistanceMeters>
          </Trackpoint>
          <Trackpoint>
            <Time>2021-10-09T08:28:03.000Z</Time>
            <Position>
              <LatitudeDegrees>39.60494234226644039154052734375</LatitudeDegrees>
              <LongitudeDegrees>-0.72439349256455898284912109375</LongitudeDegrees>
            </Position>
            <AltitudeMeters>153</AltitudeMeters>
            <DistanceMeters>43335.177220288</DistanceMeters>
          </Trackpoint>
          <Trackpoint>
            <Time>2021-10-09T08:28:04.000Z</Time>
            <Position>
              <LatitudeDegrees>39.6048812381923198699951171875</LatitudeDegrees>
              <LongitudeDegrees>-0.72441972792148590087890625</LongitudeDegrees>
            </Position>
            <AltitudeMeters>153</AltitudeMeters>
            <DistanceMeters>43342.341503539</DistanceMeters>
          </Trackpoint>
          <Trackpoint>
            <Time>2021-10-09T08:28:05.000Z</Time>
            <Position>
              <LatitudeDegrees>39.6048198826611042022705078125</LatitudeDegrees>
              <LongitudeDegrees>-0.72445669211447238922119140625</LongitudeDegrees>
            </Position>
            <AltitudeMeters>152.8000030517578125</AltitudeMeters>
            <DistanceMeters>43349.870234497</DistanceMeters>
          </Trackpoint>
          <Trackpoint>
            <Time>2021-10-09T08:28:06.000Z</Time>
            <Position>
              <LatitudeDegrees>39.604757018387317657470703125</LatitudeDegrees>
              <LongitudeDegrees>-0.72450279258191585540771484375</LongitudeDegrees>
            </Position>
            <AltitudeMeters>152.8000030517578125</AltitudeMeters>
            <DistanceMeters>43357.907719607</DistanceMeters>
          </Trackpoint>
          <Trackpoint>
            <Time>2021-10-09T08:28:07.000Z</Time>
            <Position>
              <LatitudeDegrees>39.6046975068747997283935546875</LatitudeDegrees>
              <LongitudeDegrees>-0.72455056942999362945556640625</LongitudeDegrees>
            </Position>
            <AltitudeMeters>152.600006103515625</AltitudeMeters>
            <DistanceMeters>43365.696432822</DistanceMeters>
          </Trackpoint>
          <Trackpoint>
            <Time>2021-10-09T08:28:08.000Z</Time>
            <Position>
              <LatitudeDegrees>39.6046364866197109222412109375</LatitudeDegrees>
              <LongitudeDegrees>-0.7245969213545322418212890625</LongitudeDegrees>
            </Position>
            <AltitudeMeters>152.399993896484375</AltitudeMeters>
            <DistanceMeters>43373.565884153</DistanceMeters>
          </Trackpoint>
          <Trackpoint>
            <Time>2021-10-09T08:28:09.000Z</Time>
            <Position>
              <LatitudeDegrees>39.60457638837397098541259765625</LatitudeDegrees>
              <LongitudeDegrees>-0.72464327327907085418701171875</LongitudeDegrees>
            </Position>
            <AltitudeMeters>152.1999969482421875</AltitudeMeters>
            <DistanceMeters>43381.346477477</DistanceMeters>
          </Trackpoint>
          <Trackpoint>
            <Time>2021-10-09T08:28:10.000Z</Time>
            <Position>
              <LatitudeDegrees>39.604518972337245941162109375</LatitudeDegrees>
              <LongitudeDegrees>-0.72469188831746578216552734375</LongitudeDegrees>
            </Position>
            <AltitudeMeters>152.1999969482421875</AltitudeMeters>
            <DistanceMeters>43388.975885892</DistanceMeters>
          </Trackpoint>
          <Trackpoint>
            <Time>2021-10-09T08:28:11.000Z</Time>
            <Position>
              <LatitudeDegrees>39.604459293186664581298828125</LatitudeDegrees>
              <LongitudeDegrees>-0.72473916225135326385498046875</LongitudeDegrees>
            </Position>
            <AltitudeMeters>152</AltitudeMeters>
            <DistanceMeters>43396.758219906</DistanceMeters>
          </Trackpoint>
          <Trackpoint>
            <Time>2021-10-09T08:28:12.000Z</Time>
            <Position>
              <LatitudeDegrees>39.6043984405696392059326171875</LatitudeDegrees>
              <LongitudeDegrees>-0.7247793115675449371337890625</LongitudeDegrees>
            </Position>
            <AltitudeMeters>152</AltitudeMeters>
            <DistanceMeters>43404.355604235</DistanceMeters>
          </Trackpoint>
          <Trackpoint>
            <Time>2021-10-09T08:28:13.000Z</Time>
            <Position>
              <LatitudeDegrees>39.6043397672474384307861328125</LatitudeDegrees>
              <LongitudeDegrees>-0.724820382893085479736328125</LongitudeDegrees>
            </Position>
            <AltitudeMeters>151.8000030517578125</AltitudeMeters>
            <DistanceMeters>43411.774994102</DistanceMeters>
          </Trackpoint>
          <Trackpoint>
            <Time>2021-10-09T08:28:14.000Z</Time>
            <Position>
              <LatitudeDegrees>39.60427732206881046295166015625</LatitudeDegrees>
              <LongitudeDegrees>-0.72486170567572116851806640625</LongitudeDegrees>
            </Position>
            <AltitudeMeters>151.8000030517578125</AltitudeMeters>
            <DistanceMeters>43419.576450071</DistanceMeters>
          </Trackpoint>
          <Trackpoint>
            <Time>2021-10-09T08:28:15.000Z</Time>
            <Position>
              <LatitudeDegrees>39.604219906032085418701171875</LatitudeDegrees>
              <LongitudeDegrees>-0.72490059770643711090087890625</LongitudeDegrees>
            </Position>
            <AltitudeMeters>151.8000030517578125</AltitudeMeters>
            <DistanceMeters>43426.784713374</DistanceMeters>
          </Trackpoint>
          <Trackpoint>
            <Time>2021-10-09T08:56:59.000Z</Time>
            <Position>
              <LatitudeDegrees>39.603907763957977294921875</LatitudeDegrees>
              <LongitudeDegrees>-0.72502565570175647735595703125</LongitudeDegrees>
            </Position>
            <AltitudeMeters>156.1999969482421875</AltitudeMeters>
            <DistanceMeters>43463.144323542</DistanceMeters>
          </Trackpoint>
          <Trackpoint>
            <Time>2021-10-09T08:57:00.000Z</Time>
            <Position>
              <LatitudeDegrees>39.60389477200806140899658203125</LatitudeDegrees>
              <LongitudeDegrees>-0.72503001429140567779541015625</LongitudeDegrees>
            </Position>
            <AltitudeMeters>158.8000030517578125</AltitudeMeters>
            <DistanceMeters>43464.637785588</DistanceMeters>
          </Trackpoint>
          <Trackpoint>
            <Time>2021-10-09T08:57:01.000Z</Time>
            <Position>
              <LatitudeDegrees>39.60386929102241992950439453125</LatitudeDegrees>
              <LongitudeDegrees>-0.72504711337387561798095703125</LongitudeDegrees>
            </Position>
            <AltitudeMeters>164</AltitudeMeters>
            <DistanceMeters>43467.830739754</DistanceMeters>
          </Trackpoint>
          <Trackpoint>
            <Time>2021-10-09T08:57:03.000Z</Time>
            <Position>
              <LatitudeDegrees>39.60381380282342433929443359375</LatitudeDegrees>
              <LongitudeDegrees>-0.725084580481052398681640625</LongitudeDegrees>
            </Position>
            <AltitudeMeters>165.600006103515625</AltitudeMeters>
            <DistanceMeters>43474.792378948</DistanceMeters>
          </Trackpoint>
          <Trackpoint>
            <Time>2021-10-09T08:57:08.000Z</Time>
            <Position>
              <LatitudeDegrees>39.60361607372760772705078125</LatitudeDegrees>
              <LongitudeDegrees>-0.72520016692578792572021484375</LongitudeDegrees>
            </Position>
            <AltitudeMeters>166.600006103515625</AltitudeMeters>
            <DistanceMeters>43498.929538516</DistanceMeters>
          </Trackpoint>
          <Trackpoint>
            <Time>2021-10-09T08:57:10.000Z</Time>
            <Position>
              <LatitudeDegrees>39.60352831520140171051025390625</LatitudeDegrees>
              <LongitudeDegrees>-0.72525766678154468536376953125</LongitudeDegrees>
            </Position>
            <AltitudeMeters>166.8000030517578125</AltitudeMeters>
            <DistanceMeters>43509.871649079</DistanceMeters>
          </Trackpoint>
          <Trackpoint>
            <Time>2021-10-09T08:57:14.000Z</Time>
            <Position>
              <LatitudeDegrees>39.60333938710391521453857421875</LatitudeDegrees>
              <LongitudeDegrees>-0.725342743098735809326171875</LongitudeDegrees>
            </Position>
            <AltitudeMeters>166.600006103515625</AltitudeMeters>
            <DistanceMeters>43532.12941298</DistanceMeters>
          </Trackpoint>
          <Trackpoint>
            <Time>2021-10-09T08:57:21.000Z</Time>
            <Position>
              <LatitudeDegrees>39.603051133453845977783203125</LatitudeDegrees>
              <LongitudeDegrees>-0.72541826404631137847900390625</LongitudeDegrees>
            </Position>
            <AltitudeMeters>167.8000030517578125</AltitudeMeters>
            <DistanceMeters>43564.85973667</DistanceMeters>
          </Trackpoint>
          <Trackpoint>
            <Time>2021-10-09T08:57:22.000Z</Time>
            <Position>
              <LatitudeDegrees>39.6030103974044322967529296875</LatitudeDegrees>
              <LongitudeDegrees>-0.725420527160167694091796875</LongitudeDegrees>
            </Position>
            <AltitudeMeters>168</AltitudeMeters>
            <DistanceMeters>43569.397200091</DistanceMeters>
          </Trackpoint>
          <Trackpoint>
            <Time>2021-10-09T08:57:29.000Z</Time>
            <Position>
              <LatitudeDegrees>39.602683670818805694580078125</LatitudeDegrees>
              <LongitudeDegrees>-0.72545011527836322784423828125</LongitudeDegrees>
            </Position>
            <AltitudeMeters>168.399993896484375</AltitudeMeters>
            <DistanceMeters>43605.850938988</DistanceMeters>
          </Trackpoint>
          <Trackpoint>
            <Time>2021-10-09T08:57:34.000Z</Time>
            <Position>
              <LatitudeDegrees>39.60238485597074031829833984375</LatitudeDegrees>
              <LongitudeDegrees>-0.72543536312878131866455078125</LongitudeDegrees>
            </Position>
            <AltitudeMeters>168.1999969482421875</AltitudeMeters>
            <DistanceMeters>43639.133765905</DistanceMeters>
          </Trackpoint>
          <Trackpoint>
            <Time>2021-10-09T08:57:35.000Z</Time>
            <Position>
              <LatitudeDegrees>39.602318219840526580810546875</LatitudeDegrees>
              <LongitudeDegrees>-0.725424550473690032958984375</LongitudeDegrees>
            </Position>
            <AltitudeMeters>168</AltitudeMeters>
            <DistanceMeters>43646.607724219</DistanceMeters>
          </Trackpoint>
          <Trackpoint>
            <Time>2021-10-09T08:57:38.000Z</Time>
            <Position>
              <LatitudeDegrees>39.6021831035614013671875</LatitudeDegrees>
              <LongitudeDegrees>-0.72537593543529510498046875</LongitudeDegrees>
            </Position>
            <AltitudeMeters>167</AltitudeMeters>
            <DistanceMeters>43662.213529603</DistanceMeters>
          </Trackpoint>
          <Trackpoint>
            <Time>2021-10-09T08:57:39.000Z</Time>
            <Position>
              <LatitudeDegrees>39.60214781574904918670654296875</LatitudeDegrees>
              <LongitudeDegrees>-0.72536730207502841949462890625</LongitudeDegrees>
            </Position>
            <AltitudeMeters>166.8000030517578125</AltitudeMeters>
            <DistanceMeters>43666.211433467</DistanceMeters>
          </Trackpoint>
          <Trackpoint>
            <Time>2021-10-09T08:57:41.000Z</Time>
            <Position>
              <LatitudeDegrees>39.60212367586791515350341796875</LatitudeDegrees>
              <LongitudeDegrees>-0.7253650389611721038818359375</LongitudeDegrees>
            </Position>
            <AltitudeMeters>166</AltitudeMeters>
            <DistanceMeters>43668.905905858</DistanceMeters>
          </Trackpoint>
          <Trackpoint>
            <Time>2021-10-09T08:57:42.000Z</Time>
            <Position>
              <LatitudeDegrees>39.60212367586791515350341796875</LatitudeDegrees>
              <LongitudeDegrees>-0.7253650389611721038818359375</LongitudeDegrees>
            </Position>
            <AltitudeMeters>165.600006103515625</AltitudeMeters>
            <DistanceMeters>43668.905905858</DistanceMeters>
          </Trackpoint>
          <Trackpoint>
            <Time>2021-10-09T08:57:45.000Z</Time>
            <Position>
              <LatitudeDegrees>39.60208662785589694976806640625</LatitudeDegrees>
              <LongitudeDegrees>-0.7253717444837093353271484375</LongitudeDegrees>
            </Position>
            <AltitudeMeters>165.399993896484375</AltitudeMeters>
            <DistanceMeters>43673.06976786</DistanceMeters>
          </Trackpoint>
          <Trackpoint>
            <Time>2021-10-09T08:57:49.000Z</Time>
            <Position>
              <LatitudeDegrees>39.601929299533367156982421875</LatitudeDegrees>
              <LongitudeDegrees>-0.7253070361912250518798828125</LongitudeDegrees>
            </Position>
            <AltitudeMeters>165</AltitudeMeters>
            <DistanceMeters>43691.438704585</DistanceMeters>
          </Trackpoint>
          <Trackpoint>
            <Time>2021-10-09T08:57:51.000Z</Time>
            <Position>
              <LatitudeDegrees>39.60181958042085170745849609375</LatitudeDegrees>
              <LongitudeDegrees>-0.7252255640923976898193359375</LongitudeDegrees>
            </Position>
            <AltitudeMeters>164.600006103515625</AltitudeMeters>
            <DistanceMeters>43705.507793953</DistanceMeters>
          </Trackpoint>
          <Trackpoint>
            <Time>2021-10-09T08:57:54.000Z</Time>
            <Position>
              <LatitudeDegrees>39.6016464941203594207763671875</LatitudeDegrees>
              <LongitudeDegrees>-0.72509564459323883056640625</LongitudeDegrees>
            </Position>
            <AltitudeMeters>164.1999969482421875</AltitudeMeters>
            <DistanceMeters>43727.762514861</DistanceMeters>
          </Trackpoint>
          <Trackpoint>
            <Time>2021-10-09T08:57:58.000Z</Time>
            <Position>
              <LatitudeDegrees>39.60139528848230838775634765625</LatitudeDegrees>
              <LongitudeDegrees>-0.72489137761294841766357421875</LongitudeDegrees>
            </Position>
            <AltitudeMeters>163.399993896484375</AltitudeMeters>
            <DistanceMeters>43760.75635937</DistanceMeters>
          </Trackpoint>
          <Trackpoint>
            <Time>2021-10-09T08:58:01.000Z</Time>
            <Position>
              <LatitudeDegrees>39.60119764320552349090576171875</LatitudeDegrees>
              <LongitudeDegrees>-0.72471971623599529266357421875</LongitudeDegrees>
            </Position>
            <AltitudeMeters>163</AltitudeMeters>
            <DistanceMeters>43787.226033174</DistanceMeters>
          </Trackpoint>
          <Trackpoint>
            <Time>2021-10-09T08:58:04.000Z</Time>
            <Position>
              <LatitudeDegrees>39.60099597461521625518798828125</LatitudeDegrees>
              <LongitudeDegrees>-0.72456565685570240020751953125</LongitudeDegrees>
            </Position>
            <AltitudeMeters>162</AltitudeMeters>
            <DistanceMeters>43813.271675089</DistanceMeters>
          </Trackpoint>
          <Trackpoint>
            <Time>2021-10-09T08:58:07.000Z</Time>
            <Position>
              <LatitudeDegrees>39.600806124508380889892578125</LatitudeDegrees>
              <LongitudeDegrees>-0.7244205661118030548095703125</LongitudeDegrees>
            </Position>
            <AltitudeMeters>161.399993896484375</AltitudeMeters>
            <DistanceMeters>43837.793539221</DistanceMeters>
          </Trackpoint>
          <Trackpoint>
            <Time>2021-10-09T08:58:11.000Z</Time>
            <Position>
              <LatitudeDegrees>39.60053212009370326995849609375</LatitudeDegrees>
              <LongitudeDegrees>-0.72422652505338191986083984375</LongitudeDegrees>
            </Position>
            <AltitudeMeters>161</AltitudeMeters>
            <DistanceMeters>43872.535389169</DistanceMeters>
          </Trackpoint>
          <Trackpoint>
            <Time>2021-10-09T08:58:12.000Z</Time>
            <Position>
              <LatitudeDegrees>39.6004569344222545623779296875</LatitudeDegrees>
              <LongitudeDegrees>-0.7241801731288433074951171875</LongitudeDegrees>
            </Position>
            <AltitudeMeters>160.8000030517578125</AltitudeMeters>
            <DistanceMeters>43881.80037199</DistanceMeters>
          </Trackpoint>
          <Trackpoint>
            <Time>2021-10-09T08:58:19.000Z</Time>
            <Position>
              <LatitudeDegrees>39.59998193196952342987060546875</LatitudeDegrees>
              <LongitudeDegrees>-0.72393290698528289794921875</LongitudeDegrees>
            </Position>
            <AltitudeMeters>160.600006103515625</AltitudeMeters>
            <DistanceMeters>43938.763319321</DistanceMeters>
          </Trackpoint>
          <Trackpoint>
            <Time>2021-10-09T08:58:21.000Z</Time>
            <Position>
              <LatitudeDegrees>39.5998541079461574554443359375</LatitudeDegrees>
              <LongitudeDegrees>-0.72387414984405040740966796875</LongitudeDegrees>
            </Position>
            <AltitudeMeters>160.8000030517578125</AltitudeMeters>
            <DistanceMeters>43953.856421668</DistanceMeters>
          </Trackpoint>
          <Trackpoint>
            <Time>2021-10-09T08:58:25.000Z</Time>
            <Position>
              <LatitudeDegrees>39.59961296059191226959228515625</LatitudeDegrees>
              <LongitudeDegrees>-0.72375680319964885711669921875</LongitudeDegrees>
            </Position>
            <AltitudeMeters>161.1999969482421875</AltitudeMeters>
            <DistanceMeters>43982.521116255</DistanceMeters>
          </Trackpoint>
          <Trackpoint>
            <Time>2021-10-09T08:58:31.000Z</Time>
            <Position>
              <LatitudeDegrees>39.59928296506404876708984375</LatitudeDegrees>
              <LongitudeDegrees>-0.7235833816230297088623046875</LongitudeDegrees>
            </Position>
            <AltitudeMeters>161.8000030517578125</AltitudeMeters>
            <DistanceMeters>44022.147142206</DistanceMeters>
          </Trackpoint>
          <Trackpoint>
            <Time>2021-10-09T08:58:35.000Z</Time>
            <Position>
              <LatitudeDegrees>39.5990843139588832855224609375</LatitudeDegrees>
              <LongitudeDegrees>-0.72342999279499053955078125</LongitudeDegrees>
            </Position>
            <AltitudeMeters>162.399993896484375</AltitudeMeters>
            <DistanceMeters>44047.874999939</DistanceMeters>
          </Trackpoint>
          <Trackpoint>
            <Time>2021-10-09T08:58:36.000Z</Time>
            <Position>
              <LatitudeDegrees>39.59904022514820098876953125</LatitudeDegrees>
              <LongitudeDegrees>-0.72338313795626163482666015625</LongitudeDegrees>
            </Position>
            <AltitudeMeters>162.399993896484375</AltitudeMeters>
            <DistanceMeters>44054.217632717</DistanceMeters>
          </Trackpoint>
          <Trackpoint>
            <Time>2021-10-09T08:58:37.000Z</Time>
            <Position>
              <LatitudeDegrees>39.59899974055588245391845703125</LatitudeDegrees>
              <LongitudeDegrees>-0.72333200834691524505615234375</LongitudeDegrees>
            </Position>
            <AltitudeMeters>162.600006103515625</AltitudeMeters>
            <DistanceMeters>44060.505213704</DistanceMeters>
          </Trackpoint>
          <Trackpoint>
            <Time>2021-10-09T08:58:39.000Z</Time>
            <Position>
              <LatitudeDegrees>39.59892530925571918487548828125</LatitudeDegrees>
              <LongitudeDegrees>-0.72323410771787166595458984375</LongitudeDegrees>
            </Position>
            <AltitudeMeters>162.8000030517578125</AltitudeMeters>
            <DistanceMeters>44072.300781425</DistanceMeters>
          </Trackpoint>
          <Trackpoint>
            <Time>2021-10-09T08:58:41.000Z</Time>
            <Position>
              <LatitudeDegrees>39.598860181868076324462890625</LatitudeDegrees>
              <LongitudeDegrees>-0.72312464006245136260986328125</LongitudeDegrees>
            </Position>
            <AltitudeMeters>163.1999969482421875</AltitudeMeters>
            <DistanceMeters>44084.161242244</DistanceMeters>
          </Trackpoint>
          <Trackpoint>
            <Time>2021-10-09T08:58:43.000Z</Time>
            <Position>
              <LatitudeDegrees>39.59880284965038299560546875</LatitudeDegrees>
              <LongitudeDegrees>-0.72300394065678119659423828125</LongitudeDegrees>
            </Position>
            <AltitudeMeters>163.399993896484375</AltitudeMeters>
            <DistanceMeters>44096.320949136</DistanceMeters>
          </Trackpoint>
          <Trackpoint>
            <Time>2021-10-09T08:58:45.000Z</Time>
            <Position>
              <LatitudeDegrees>39.5987373031675815582275390625</LatitudeDegrees>
              <LongitudeDegrees>-0.72288994677364826202392578125</LongitudeDegrees>
            </Position>
            <AltitudeMeters>163.399993896484375</AltitudeMeters>
            <DistanceMeters>44108.518841149</DistanceMeters>
          </Trackpoint>
          <Trackpoint>
            <Time>2021-10-09T08:58:46.000Z</Time>
            <Position>
              <LatitudeDegrees>39.59869463928043842315673828125</LatitudeDegrees>
              <LongitudeDegrees>-0.72284183464944362640380859375</LongitudeDegrees>
            </Position>
            <AltitudeMeters>163.399993896484375</AltitudeMeters>
            <DistanceMeters>44114.809293834</DistanceMeters>
          </Trackpoint>
          <Trackpoint>
            <Time>2021-10-09T08:58:47.000Z</Time>
            <Position>
              <LatitudeDegrees>39.59865172393620014190673828125</LatitudeDegrees>
              <LongitudeDegrees>-0.7227976620197296142578125</LongitudeDegrees>
            </Position>
            <AltitudeMeters>163.399993896484375</AltitudeMeters>
            <DistanceMeters>44120.905833397</DistanceMeters>
          </Trackpoint>
          <Trackpoint>
            <Time>2021-10-09T08:58:48.000Z</Time>
            <Position>
              <LatitudeDegrees>39.59860629402101039886474609375</LatitudeDegrees>
              <LongitudeDegrees>-0.72275700978934764862060546875</LongitudeDegrees>
            </Position>
            <AltitudeMeters>163.600006103515625</AltitudeMeters>
            <DistanceMeters>44127.048117938</DistanceMeters>
          </Trackpoint>
          <Trackpoint>
            <Time>2021-10-09T08:58:49.000Z</Time>
            <Position>
              <LatitudeDegrees>39.59856337867677211761474609375</LatitudeDegrees>
              <LongitudeDegrees>-0.7227190397679805755615234375</LongitudeDegrees>
            </Position>
            <AltitudeMeters>163.600006103515625</AltitudeMeters>
            <DistanceMeters>44132.828367313</DistanceMeters>
          </Trackpoint>
          <Trackpoint>
            <Time>2021-10-09T08:58:51.000Z</Time>
            <Position>
              <LatitudeDegrees>39.5984923839569091796875</LatitudeDegrees>
              <LongitudeDegrees>-0.72260580025613307952880859375</LongitudeDegrees>
            </Position>
            <AltitudeMeters>163.8000030517578125</AltitudeMeters>
            <DistanceMeters>44145.348835638</DistanceMeters>
          </Trackpoint>
          <Trackpoint>
            <Time>2021-10-09T08:58:52.000Z</Time>
            <Position>
              <LatitudeDegrees>39.5984637178480625152587890625</LatitudeDegrees>
              <LongitudeDegrees>-0.72253824211657047271728515625</LongitudeDegrees>
            </Position>
            <AltitudeMeters>163.8000030517578125</AltitudeMeters>
            <DistanceMeters>44151.962585731</DistanceMeters>
          </Trackpoint>
          <Trackpoint>
            <Time>2021-10-09T08:58:53.000Z</Time>
            <Position>
              <LatitudeDegrees>39.59843127988278865814208984375</LatitudeDegrees>
              <LongitudeDegrees>-0.72247512638568878173828125</LongitudeDegrees>
            </Position>
            <AltitudeMeters>164</AltitudeMeters>
            <DistanceMeters>44158.468967088</DistanceMeters>
          </Trackpoint>
          <Trackpoint>
            <Time>2021-10-09T08:58:55.000Z</Time>
            <Position>
              <LatitudeDegrees>39.59833480417728424072265625</LatitudeDegrees>
              <LongitudeDegrees>-0.7223887927830219268798828125</LongitudeDegrees>
            </Position>
            <AltitudeMeters>164</AltitudeMeters>
            <DistanceMeters>44171.512227425</DistanceMeters>
          </Trackpoint>
          <Trackpoint>
            <Time>2021-10-09T08:59:01.000Z</Time>
            <Position>
              <LatitudeDegrees>39.597964324057102203369140625</LatitudeDegrees>
              <LongitudeDegrees>-0.7222731225192546844482421875</LongitudeDegrees>
            </Position>
            <AltitudeMeters>163.600006103515625</AltitudeMeters>
            <DistanceMeters>44213.923960558</DistanceMeters>
          </Trackpoint>
          <Trackpoint>
            <Time>2021-10-09T08:59:08.000Z</Time>
            <Position>
              <LatitudeDegrees>39.597537852823734283447265625</LatitudeDegrees>
              <LongitudeDegrees>-0.72212819941341876983642578125</LongitudeDegrees>
            </Position>
            <AltitudeMeters>163.399993896484375</AltitudeMeters>
            <DistanceMeters>44262.9912509</DistanceMeters>
          </Trackpoint>
          <Trackpoint>
            <Time>2021-10-09T08:59:12.000Z</Time>
            <Position>
              <LatitudeDegrees>39.59731983952224254608154296875</LatitudeDegrees>
              <LongitudeDegrees>-0.721991993486881256103515625</LongitudeDegrees>
            </Position>
            <AltitudeMeters>163.399993896484375</AltitudeMeters>
            <DistanceMeters>44289.921727865</DistanceMeters>
          </Trackpoint>
          <Trackpoint>
            <Time>2021-10-09T08:59:13.000Z</Time>
            <Position>
              <LatitudeDegrees>39.5972708053886890411376953125</LatitudeDegrees>
              <LongitudeDegrees>-0.72194614447653293609619140625</LongitudeDegrees>
            </Position>
            <AltitudeMeters>163.399993896484375</AltitudeMeters>
            <DistanceMeters>44296.647847325</DistanceMeters>
          </Trackpoint>
          <Trackpoint>
            <Time>2021-10-09T08:59:16.000Z</Time>
            <Position>
              <LatitudeDegrees>39.59714524447917938232421875</LatitudeDegrees>
              <LongitudeDegrees>-0.721784122288227081298828125</LongitudeDegrees>
            </Position>
            <AltitudeMeters>163.600006103515625</AltitudeMeters>
            <DistanceMeters>44316.355297384</DistanceMeters>
          </Trackpoint>
          <Trackpoint>
            <Time>2021-10-09T08:59:20.000Z</Time>
            <Position>
              <LatitudeDegrees>39.59699227474629878997802734375</LatitudeDegrees>
              <LongitudeDegrees>-0.72155001573264598846435546875</LongitudeDegrees>
            </Position>
            <AltitudeMeters>164</AltitudeMeters>
            <DistanceMeters>44342.680098552</DistanceMeters>
          </Trackpoint>
          <Trackpoint>
            <Time>2021-10-09T08:59:28.000Z</Time>
            <Position>
              <LatitudeDegrees>39.5966859161853790283203125</LatitudeDegrees>
              <LongitudeDegrees>-0.72105146013200283050537109375</LongitudeDegrees>
            </Position>
            <AltitudeMeters>164.1999969482421875</AltitudeMeters>
            <DistanceMeters>44397.369520653</DistanceMeters>
          </Trackpoint>
          <Trackpoint>
            <Time>2021-10-09T08:59:37.000Z</Time>
            <Position>
              <LatitudeDegrees>39.596338905394077301025390625</LatitudeDegrees>
              <LongitudeDegrees>-0.7204991765320301055908203125</LongitudeDegrees>
            </Position>
            <AltitudeMeters>164.1999969482421875</AltitudeMeters>
            <DistanceMeters>44458.486474856</DistanceMeters>
          </Trackpoint>
          <Trackpoint>
            <Time>2021-10-09T08:59:39.000Z</Time>
            <Position>
              <LatitudeDegrees>39.59626288153231143951416015625</LatitudeDegrees>
              <LongitudeDegrees>-0.7203757949173450469970703125</LongitudeDegrees>
            </Position>
            <AltitudeMeters>164.399993896484375</AltitudeMeters>
            <DistanceMeters>44472.035698232</DistanceMeters>
          </Trackpoint>
          <Trackpoint>
            <Time>2021-10-09T08:59:48.000Z</Time>
            <Position>
              <LatitudeDegrees>39.5959350652992725372314453125</LatitudeDegrees>
              <LongitudeDegrees>-0.7198204100131988525390625</LongitudeDegrees>
            </Position>
            <AltitudeMeters>164.8000030517578125</AltitudeMeters>
            <DistanceMeters>44532.036622198</DistanceMeters>
          </Trackpoint>
          <Trackpoint>
            <Time>2021-10-09T08:59:49.000Z</Time>
            <Position>
              <LatitudeDegrees>39.59589659236371517181396484375</LatitudeDegrees>
              <LongitudeDegrees>-0.7197575457394123077392578125</LongitudeDegrees>
            </Position>
            <AltitudeMeters>164.8000030517578125</AltitudeMeters>
            <DistanceMeters>44538.921961792</DistanceMeters>
          </Trackpoint>
          <Trackpoint>
            <Time>2021-10-09T08:59:50.000Z</Time>
            <Position>
              <LatitudeDegrees>39.59585619159042835235595703125</LatitudeDegrees>
              <LongitudeDegrees>-0.71969593875110149383544921875</LongitudeDegrees>
            </Position>
            <AltitudeMeters>164.8000030517578125</AltitudeMeters>
            <DistanceMeters>44545.860213555</DistanceMeters>
          </Trackpoint>
          <Trackpoint>
            <Time>2021-10-09T08:59:57.000Z</Time>
            <Position>
              <LatitudeDegrees>39.5955961011350154876708984375</LatitudeDegrees>
              <LongitudeDegrees>-0.71928304620087146759033203125</LongitudeDegrees>
            </Position>
            <AltitudeMeters>165.1999969482421875</AltitudeMeters>
            <DistanceMeters>44591.59867483</DistanceMeters>
          </Trackpoint>
          <Trackpoint>
            <Time>2021-10-09T08:59:58.000Z</Time>
            <Position>
              <LatitudeDegrees>39.59555394016206264495849609375</LatitudeDegrees>
              <LongitudeDegrees>-0.7192383706569671630859375</LongitudeDegrees>
            </Position>
            <AltitudeMeters>165.1999969482421875</AltitudeMeters>
            <DistanceMeters>44597.656581289</DistanceMeters>
          </Trackpoint>
          <Trackpoint>
            <Time>2021-10-09T08:59:59.000Z</Time>
            <Position>
              <LatitudeDegrees>39.595492668449878692626953125</LatitudeDegrees>
              <LongitudeDegrees>-0.71920794434845447540283203125</LongitudeDegrees>
            </Position>
            <AltitudeMeters>165.1999969482421875</AltitudeMeters>
            <DistanceMeters>44604.958813921</DistanceMeters>
          </Trackpoint>
          <Trackpoint>
            <Time>2021-10-09T09:00:01.000Z</Time>
            <Position>
              <LatitudeDegrees>39.59538529627025127410888671875</LatitudeDegrees>
              <LongitudeDegrees>-0.7192224450409412384033203125</LongitudeDegrees>
            </Position>
            <AltitudeMeters>165.399993896484375</AltitudeMeters>
            <DistanceMeters>44616.973964028</DistanceMeters>
          </Trackpoint>
          <Trackpoint>
            <Time>2021-10-09T09:00:07.000Z</Time>
            <Position>
              <LatitudeDegrees>39.5950465835630893707275390625</LatitudeDegrees>
              <LongitudeDegrees>-0.71942386217415332794189453125</LongitudeDegrees>
            </Position>
            <AltitudeMeters>165.600006103515625</AltitudeMeters>
            <DistanceMeters>44658.442646642</DistanceMeters>
          </Trackpoint>
          <Trackpoint>
            <Time>2021-10-09T09:00:16.000Z</Time>
            <Position>
              <LatitudeDegrees>39.59456973709166049957275390625</LatitudeDegrees>
              <LongitudeDegrees>-0.71971823461353778839111328125</LongitudeDegrees>
            </Position>
            <AltitudeMeters>165.8000030517578125</AltitudeMeters>
            <DistanceMeters>44717.21557478</DistanceMeters>
          </Trackpoint>
          <Trackpoint>
            <Time>2021-10-09T09:00:17.000Z</Time>
            <Position>
              <LatitudeDegrees>39.594520032405853271484375</LatitudeDegrees>
              <LongitudeDegrees>-0.7197511754930019378662109375</LongitudeDegrees>
            </Position>
            <AltitudeMeters>165.8000030517578125</AltitudeMeters>
            <DistanceMeters>44723.428025724</DistanceMeters>
          </Trackpoint>
          <Trackpoint>
            <Time>2021-10-09T09:00:21.000Z</Time>
            <Position>
              <LatitudeDegrees>39.5943227224051952362060546875</LatitudeDegrees>
              <LongitudeDegrees>-0.71987514384090900421142578125</LongitudeDegrees>
            </Position>
            <AltitudeMeters>167</AltitudeMeters>
            <DistanceMeters>44747.82751096</DistanceMeters>
          </Trackpoint>
          <Trackpoint>
            <Time>2021-10-09T09:00:25.000Z</Time>
            <Position>
              <LatitudeDegrees>39.59413488395512104034423828125</LatitudeDegrees>
              <LongitudeDegrees>-0.71998813189566135406494140625</LongitudeDegrees>
            </Position>
            <AltitudeMeters>167.8000030517578125</AltitudeMeters>
            <DistanceMeters>44770.871048345</DistanceMeters>
          </Trackpoint>
          <Trackpoint>
            <Time>2021-10-09T09:00:31.000Z</Time>
            <Position>
              <LatitudeDegrees>39.59388342685997486114501953125</LatitudeDegrees>
              <LongitudeDegrees>-0.72013699449598789215087890625</LongitudeDegrees>
            </Position>
            <AltitudeMeters>168.399993896484375</AltitudeMeters>
            <DistanceMeters>44801.633296166</DistanceMeters>
          </Trackpoint>
          <Trackpoint>
            <Time>2021-10-09T09:00:38.000Z</Time>
            <Position>
              <LatitudeDegrees>39.5935948379337787628173828125</LatitudeDegrees>
              <LongitudeDegrees>-0.720310248434543609619140625</LongitudeDegrees>
            </Position>
            <AltitudeMeters>169.1999969482421875</AltitudeMeters>
            <DistanceMeters>44837.024337169</DistanceMeters>
          </Trackpoint>
          <Trackpoint>
            <Time>2021-10-09T09:00:39.000Z</Time>
            <Position>
              <LatitudeDegrees>39.59355242550373077392578125</LatitudeDegrees>
              <LongitudeDegrees>-0.72033564560115337371826171875</LongitudeDegrees>
            </Position>
            <AltitudeMeters>169.399993896484375</AltitudeMeters>
            <DistanceMeters>44842.223088826</DistanceMeters>
          </Trackpoint>
          <Trackpoint>
            <Time>2021-10-09T09:00:43.000Z</Time>
            <Position>
              <LatitudeDegrees>39.5933849550783634185791015625</LatitudeDegrees>
              <LongitudeDegrees>-0.72042834945023059844970703125</LongitudeDegrees>
            </Position>
            <AltitudeMeters>170.600006103515625</AltitudeMeters>
            <DistanceMeters>44862.487633143</DistanceMeters>
          </Trackpoint>
          <Trackpoint>
            <Time>2021-10-09T09:00:46.000Z</Time>
            <Position>
              <LatitudeDegrees>39.59326501004397869110107421875</LatitudeDegrees>
              <LongitudeDegrees>-0.7204710133373737335205078125</LongitudeDegrees>
            </Position>
            <AltitudeMeters>171.399993896484375</AltitudeMeters>
            <DistanceMeters>44876.330256527</DistanceMeters>
          </Trackpoint>
          <Trackpoint>
            <Time>2021-10-09T09:00:49.000Z</Time>
            <Position>
              <LatitudeDegrees>39.5931418798863887786865234375</LatitudeDegrees>
              <LongitudeDegrees>-0.72049691341817378997802734375</LongitudeDegrees>
            </Position>
            <AltitudeMeters>171.600006103515625</AltitudeMeters>
            <DistanceMeters>44890.213265985</DistanceMeters>
          </Trackpoint>
          <Trackpoint>
            <Time>2021-10-09T09:00:53.000Z</Time>
            <Position>
              <LatitudeDegrees>39.5929522812366485595703125</LatitudeDegrees>
              <LongitudeDegrees>-0.72054049931466579437255859375</LongitudeDegrees>
            </Position>
            <AltitudeMeters>172.8000030517578125</AltitudeMeters>
            <DistanceMeters>44911.644687035</DistanceMeters>
          </Trackpoint>
          <Trackpoint>
            <Time>2021-10-09T09:00:55.000Z</Time>
            <Position>
              <LatitudeDegrees>39.59286309778690338134765625</LatitudeDegrees>
              <LongitudeDegrees>-0.72056002914905548095703125</LongitudeDegrees>
            </Position>
            <AltitudeMeters>173.1999969482421875</AltitudeMeters>
            <DistanceMeters>44921.711241454</DistanceMeters>
          </Trackpoint>
          <Trackpoint>
            <Time>2021-10-09T09:01:02.000Z</Time>
            <Position>
              <LatitudeDegrees>39.592550955712795257568359375</LatitudeDegrees>
              <LongitudeDegrees>-0.720623396337032318115234375</LongitudeDegrees>
            </Position>
            <AltitudeMeters>174</AltitudeMeters>
            <DistanceMeters>44956.875748388</DistanceMeters>
          </Trackpoint>
          <Trackpoint>
            <Time>2021-10-09T09:01:03.000Z</Time>
            <Position>
              <LatitudeDegrees>39.59251600317656993865966796875</LatitudeDegrees>
              <LongitudeDegrees>-0.72062934748828411102294921875</LongitudeDegrees>
            </Position>
            <AltitudeMeters>174.1999969482421875</AltitudeMeters>
            <DistanceMeters>44960.799557804</DistanceMeters>
          </Trackpoint>
          <Trackpoint>
            <Time>2021-10-09T09:01:08.000Z</Time>
            <Position>
              <LatitudeDegrees>39.59228332154452800750732421875</LatitudeDegrees>
              <LongitudeDegrees>-0.7206825725734233856201171875</LongitudeDegrees>
            </Position>
            <AltitudeMeters>175.1999969482421875</AltitudeMeters>
            <DistanceMeters>44987.096730927</DistanceMeters>
          </Trackpoint>
          <Trackpoint>
            <Time>2021-10-09T09:01:12.000Z</Time>
            <Position>
              <LatitudeDegrees>39.59210730157792568206787109375</LatitudeDegrees>
              <LongitudeDegrees>-0.72073143906891345977783203125</LongitudeDegrees>
            </Position>
            <AltitudeMeters>176.1999969482421875</AltitudeMeters>
            <DistanceMeters>45007.131373373</DistanceMeters>
          </Trackpoint>
          <Trackpoint>
            <Time>2021-10-09T09:01:22.000Z</Time>
            <Position>
              <LatitudeDegrees>39.59167026914656162261962890625</LatitudeDegrees>
              <LongitudeDegrees>-0.72086420841515064239501953125</LongitudeDegrees>
            </Position>
            <AltitudeMeters>177.399993896484375</AltitudeMeters>
            <DistanceMeters>45057.089222686</DistanceMeters>
          </Trackpoint>
          <Trackpoint>
            <Time>2021-10-09T09:01:29.000Z</Time>
            <Position>
              <LatitudeDegrees>39.59136097691953182220458984375</LatitudeDegrees>
              <LongitudeDegrees>-0.720960013568401336669921875</LongitudeDegrees>
            </Position>
            <AltitudeMeters>178.8000030517578125</AltitudeMeters>
            <DistanceMeters>45092.48128428</DistanceMeters>
          </Trackpoint>
          <Trackpoint>
            <Time>2021-10-09T09:01:33.000Z</Time>
            <Position>
              <LatitudeDegrees>39.59118311293423175811767578125</LatitudeDegrees>
              <LongitudeDegrees>-0.7210098020732402801513671875</LongitudeDegrees>
            </Position>
            <AltitudeMeters>179</AltitudeMeters>
            <DistanceMeters>45112.733347683</DistanceMeters>
          </Trackpoint>
          <Trackpoint>
            <Time>2021-10-09T09:01:39.000Z</Time>
            <Position>
              <LatitudeDegrees>39.590908102691173553466796875</LatitudeDegrees>
              <LongitudeDegrees>-0.72109219618141651153564453125</LongitudeDegrees>
            </Position>
            <AltitudeMeters>179.8000030517578125</AltitudeMeters>
            <DistanceMeters>45144.147690494</DistanceMeters>
          </Trackpoint>
          <Trackpoint>
            <Time>2021-10-09T09:01:42.000Z</Time>
            <Position>
              <LatitudeDegrees>39.59077558480203151702880859375</LatitudeDegrees>
              <LongitudeDegrees>-0.721135698258876800537109375</LongitudeDegrees>
            </Position>
            <AltitudeMeters>180</AltitudeMeters>
            <DistanceMeters>45159.362058032</DistanceMeters>
          </Trackpoint>
          <Trackpoint>
            <Time>2021-10-09T09:01:46.000Z</Time>
            <Position>
              <LatitudeDegrees>39.59059319458901882171630859375</LatitudeDegrees>
              <LongitudeDegrees>-0.72118909098207950592041015625</LongitudeDegrees>
            </Position>
            <AltitudeMeters>180.8000030517578125</AltitudeMeters>
            <DistanceMeters>45180.172691522</DistanceMeters>
          </Trackpoint>
          <Trackpoint>
            <Time>2021-10-09T09:01:53.000Z</Time>
            <Position>
              <LatitudeDegrees>39.59024769254028797149658203125</LatitudeDegrees>
              <LongitudeDegrees>-0.72129118256270885467529296875</LongitudeDegrees>
            </Position>
            <AltitudeMeters>181.600006103515625</AltitudeMeters>
            <DistanceMeters>45219.612327016</DistanceMeters>
          </Trackpoint>
          <Trackpoint>
            <Time>2021-10-09T09:01:56.000Z</Time>
            <Position>
              <LatitudeDegrees>39.5900958962738513946533203125</LatitudeDegrees>
              <LongitudeDegrees>-0.7213303260505199432373046875</LongitudeDegrees>
            </Position>
            <AltitudeMeters>182</AltitudeMeters>
            <DistanceMeters>45236.837606456</DistanceMeters>
          </Trackpoint>
          <Trackpoint>
            <Time>2021-10-09T09:02:01.000Z</Time>
            <Position>
              <LatitudeDegrees>39.58984561264514923095703125</LatitudeDegrees>
              <LongitudeDegrees>-0.72137583978474140167236328125</LongitudeDegrees>
            </Position>
            <AltitudeMeters>182.399993896484375</AltitudeMeters>
            <DistanceMeters>45264.966798025</DistanceMeters>
          </Trackpoint>
          <Trackpoint>
            <Time>2021-10-09T09:02:06.000Z</Time>
            <Position>
              <LatitudeDegrees>39.58961066789925098419189453125</LatitudeDegrees>
              <LongitudeDegrees>-0.7213926874101161956787109375</LongitudeDegrees>
            </Position>
            <AltitudeMeters>183.1999969482421875</AltitudeMeters>
            <DistanceMeters>45291.156615637</DistanceMeters>
          </Trackpoint>
          <Trackpoint>
            <Time>2021-10-09T09:02:08.000Z</Time>
            <Position>
              <LatitudeDegrees>39.58951310254633426666259765625</LatitudeDegrees>
              <LongitudeDegrees>-0.72140350006520748138427734375</LongitudeDegrees>
            </Position>
            <AltitudeMeters>183.399993896484375</AltitudeMeters>
            <DistanceMeters>45302.055313979</DistanceMeters>
          </Trackpoint>
          <Trackpoint>
            <Time>2021-10-09T09:02:10.000Z</Time>
            <Position>
              <LatitudeDegrees>39.58941067568957805633544921875</LatitudeDegrees>
              <LongitudeDegrees>-0.72141238488256931304931640625</LongitudeDegrees>
            </Position>
            <AltitudeMeters>184</AltitudeMeters>
            <DistanceMeters>45313.481066258</DistanceMeters>
          </Trackpoint>
          <Trackpoint>
            <Time>2021-10-09T09:02:11.000Z</Time>
            <Position>
              <LatitudeDegrees>39.589359126985073089599609375</LatitudeDegrees>
              <LongitudeDegrees>-0.72140987031161785125732421875</LongitudeDegrees>
            </Position>
            <AltitudeMeters>184.1999969482421875</AltitudeMeters>
            <DistanceMeters>45319.22212705</DistanceMeters>
          </Trackpoint>
          <Trackpoint>
            <Time>2021-10-09T09:02:12.000Z</Time>
            <Position>
              <LatitudeDegrees>39.58930648863315582275390625</LatitudeDegrees>
              <LongitudeDegrees>-0.721413977444171905517578125</LongitudeDegrees>
            </Position>
            <AltitudeMeters>184.600006103515625</AltitudeMeters>
            <DistanceMeters>45325.091517277</DistanceMeters>
          </Trackpoint>
          <Trackpoint>
            <Time>2021-10-09T09:02:13.000Z</Time>
            <Position>
              <LatitudeDegrees>39.5892533473670482635498046875</LatitudeDegrees>
              <LongitudeDegrees>-0.72142210789024829864501953125</LongitudeDegrees>
            </Position>
            <AltitudeMeters>184.8000030517578125</AltitudeMeters>
            <DistanceMeters>45331.047956679</DistanceMeters>
          </Trackpoint>
          <Trackpoint>
            <Time>2021-10-09T09:02:15.000Z</Time>
            <Position>
              <LatitudeDegrees>39.58914555609226226806640625</LatitudeDegrees>
              <LongitudeDegrees>-0.721435435116291046142578125</LongitudeDegrees>
            </Position>
            <AltitudeMeters>185.600006103515625</AltitudeMeters>
            <DistanceMeters>45343.099876841</DistanceMeters>
          </Trackpoint>
          <Trackpoint>
            <Time>2021-10-09T09:02:19.000Z</Time>
            <Position>
              <LatitudeDegrees>39.58889870904386043548583984375</LatitudeDegrees>
              <LongitudeDegrees>-0.721465609967708587646484375</LongitudeDegrees>
            </Position>
            <AltitudeMeters>186.1999969482421875</AltitudeMeters>
            <DistanceMeters>45370.696262963</DistanceMeters>
          </Trackpoint>
          <Trackpoint>
            <Time>2021-10-09T09:02:25.000Z</Time>
            <Position>
              <LatitudeDegrees>39.58844625391066074371337890625</LatitudeDegrees>
              <LongitudeDegrees>-0.72153207845985889434814453125</LongitudeDegrees>
            </Position>
            <AltitudeMeters>185.399993896484375</AltitudeMeters>
            <DistanceMeters>45421.377226787</DistanceMeters>
          </Trackpoint>
          <Trackpoint>
            <Time>2021-10-09T09:02:28.000Z</Time>
            <Position>
              <LatitudeDegrees>39.5881975628435611724853515625</LatitudeDegrees>
              <LongitudeDegrees>-0.72157382033765316009521484375</LongitudeDegrees>
            </Position>
            <AltitudeMeters>184.1999969482421875</AltitudeMeters>
            <DistanceMeters>45449.28759358</DistanceMeters>
          </Trackpoint>
          <Trackpoint>
            <Time>2021-10-09T09:02:30.000Z</Time>
            <Position>
              <LatitudeDegrees>39.58802565000951290130615234375</LatitudeDegrees>
              <LongitudeDegrees>-0.72159645147621631622314453125</LongitudeDegrees>
            </Position>
            <AltitudeMeters>183.600006103515625</AltitudeMeters>
            <DistanceMeters>45468.520117889</DistanceMeters>
          </Trackpoint>
          <Trackpoint>
            <Time>2021-10-09T09:02:31.000Z</Time>
            <Position>
              <LatitudeDegrees>39.58793998695909976959228515625</LatitudeDegrees>
              <LongitudeDegrees>-0.7215874828398227691650390625</LongitudeDegrees>
            </Position>
            <AltitudeMeters>183.1999969482421875</AltitudeMeters>
            <DistanceMeters>45478.085301344</DistanceMeters>
          </Trackpoint>
          <Trackpoint>
            <Time>2021-10-09T09:02:32.000Z</Time>
            <Position>
              <LatitudeDegrees>39.58785465918481349945068359375</LatitudeDegrees>
              <LongitudeDegrees>-0.721562169492244720458984375</LongitudeDegrees>
            </Position>
            <AltitudeMeters>182.8000030517578125</AltitudeMeters>
            <DistanceMeters>45487.827277706</DistanceMeters>
          </Trackpoint>
          <Trackpoint>
            <Time>2021-10-09T09:02:34.000Z</Time>
            <Position>
              <LatitudeDegrees>39.58768735639750957489013671875</LatitudeDegrees>
              <LongitudeDegrees>-0.7214885763823986053466796875</LongitudeDegrees>
            </Position>
            <AltitudeMeters>181.8000030517578125</AltitudeMeters>
            <DistanceMeters>45507.48931302</DistanceMeters>
          </Trackpoint>
          <Trackpoint>
            <Time>2021-10-09T09:02:35.000Z</Time>
            <Position>
              <LatitudeDegrees>39.58760672248899936676025390625</LatitudeDegrees>
              <LongitudeDegrees>-0.721448846161365509033203125</LongitudeDegrees>
            </Position>
            <AltitudeMeters>181.399993896484375</AltitudeMeters>
            <DistanceMeters>45517.088892704</DistanceMeters>
          </Trackpoint>
          <Trackpoint>
            <Time>2021-10-09T09:02:38.000Z</Time>
            <Position>
              <LatitudeDegrees>39.58737370558083057403564453125</LatitudeDegrees>
              <LongitudeDegrees>-0.7213460840284824371337890625</LongitudeDegrees>
            </Position>
            <AltitudeMeters>180.600006103515625</AltitudeMeters>
            <DistanceMeters>45544.480992147</DistanceMeters>
          </Trackpoint>
          <Trackpoint>
            <Time>2021-10-09T09:02:39.000Z</Time>
            <Position>
              <LatitudeDegrees>39.58729214966297149658203125</LatitudeDegrees>
              <LongitudeDegrees>-0.72132186032831668853759765625</LongitudeDegrees>
            </Position>
            <AltitudeMeters>180.600006103515625</AltitudeMeters>
            <DistanceMeters>45553.793125313</DistanceMeters>
          </Trackpoint>
          <Trackpoint>
            <Time>2021-10-09T09:02:40.000Z</Time>
            <Position>
              <LatitudeDegrees>39.5872098393738269805908203125</LatitudeDegrees>
              <LongitudeDegrees>-0.721306018531322479248046875</LongitudeDegrees>
            </Position>
            <AltitudeMeters>180.399993896484375</AltitudeMeters>
            <DistanceMeters>45563.054696245</DistanceMeters>
          </Trackpoint>
          <Trackpoint>
            <Time>2021-10-09T09:02:45.000Z</Time>
            <Position>
              <LatitudeDegrees>39.58680222742259502410888671875</LatitudeDegrees>
              <LongitudeDegrees>-0.7213276438415050506591796875</LongitudeDegrees>
            </Position>
            <AltitudeMeters>179.8000030517578125</AltitudeMeters>
            <DistanceMeters>45608.460663951</DistanceMeters>
          </Trackpoint>
          <Trackpoint>
            <Time>2021-10-09T09:02:50.000Z</Time>
            <Position>
              <LatitudeDegrees>39.58645387552678585052490234375</LatitudeDegrees>
              <LongitudeDegrees>-0.721389837563037872314453125</LongitudeDegrees>
            </Position>
            <AltitudeMeters>180.1999969482421875</AltitudeMeters>
            <DistanceMeters>45647.598290438</DistanceMeters>
          </Trackpoint>
          <Trackpoint>
            <Time>2021-10-09T09:02:56.000Z</Time>
            <Position>
              <LatitudeDegrees>39.5860739238560199737548828125</LatitudeDegrees>
              <LongitudeDegrees>-0.7214550487697124481201171875</LongitudeDegrees>
            </Position>
            <AltitudeMeters>181.8000030517578125</AltitudeMeters>
            <DistanceMeters>45690.255971979</DistanceMeters>
          </Trackpoint>
          <Trackpoint>
            <Time>2021-10-09T09:02:57.000Z</Time>
            <Position>
              <LatitudeDegrees>39.5860236324369907379150390625</LatitudeDegrees>
              <LongitudeDegrees>-0.7214651070535182952880859375</LongitudeDegrees>
            </Position>
            <AltitudeMeters>181.8000030517578125</AltitudeMeters>
            <DistanceMeters>45695.919436602</DistanceMeters>
          </Trackpoint>
          <Trackpoint>
            <Time>2021-10-09T09:03:01.000Z</Time>
            <Position>
              <LatitudeDegrees>39.5857550762593746185302734375</LatitudeDegrees>
              <LongitudeDegrees>-0.7215234450995922088623046875</LongitudeDegrees>
            </Position>
            <AltitudeMeters>183</AltitudeMeters>
            <DistanceMeters>45726.226255233</DistanceMeters>
          </Trackpoint>
          <Trackpoint>
            <Time>2021-10-09T09:03:04.000Z</Time>
            <Position>
              <LatitudeDegrees>39.58558492362499237060546875</LatitudeDegrees>
              <LongitudeDegrees>-0.721563510596752166748046875</LongitudeDegrees>
            </Position>
            <AltitudeMeters>183.1999969482421875</AltitudeMeters>
            <DistanceMeters>45745.474267503</DistanceMeters>
          </Trackpoint>
          <Trackpoint>
            <Time>2021-10-09T09:03:13.000Z</Time>
            <Position>
              <LatitudeDegrees>39.5850634016096591949462890625</LatitudeDegrees>
              <LongitudeDegrees>-0.7216615788638591766357421875</LongitudeDegrees>
            </Position>
            <AltitudeMeters>183.600006103515625</AltitudeMeters>
            <DistanceMeters>45804.127077347</DistanceMeters>
          </Trackpoint>
          <Trackpoint>
            <Time>2021-10-09T09:03:21.000Z</Time>
            <Position>
              <LatitudeDegrees>39.58458571694791316986083984375</LatitudeDegrees>
              <LongitudeDegrees>-0.72176392190158367156982421875</LongitudeDegrees>
            </Position>
            <AltitudeMeters>184</AltitudeMeters>
            <DistanceMeters>45858.014179164</DistanceMeters>
          </Trackpoint>
          <Trackpoint>
            <Time>2021-10-09T09:03:23.000Z</Time>
            <Position>
              <LatitudeDegrees>39.5844884030520915985107421875</LatitudeDegrees>
              <LongitudeDegrees>-0.72178781032562255859375</LongitudeDegrees>
            </Position>
            <AltitudeMeters>184.1999969482421875</AltitudeMeters>
            <DistanceMeters>45869.038097196</DistanceMeters>
          </Trackpoint>
          <Trackpoint>
            <Time>2021-10-09T09:03:28.000Z</Time>
            <Position>
              <LatitudeDegrees>39.58422361873090267181396484375</LatitudeDegrees>
              <LongitudeDegrees>-0.7218721322715282440185546875</LongitudeDegrees>
            </Position>
            <AltitudeMeters>185</AltitudeMeters>
            <DistanceMeters>45899.383625293</DistanceMeters>
          </Trackpoint>
          <Trackpoint>
            <Time>2021-10-09T09:03:32.000Z</Time>
            <Position>
              <LatitudeDegrees>39.584008790552616119384765625</LatitudeDegrees>
              <LongitudeDegrees>-0.721943043172359466552734375</LongitudeDegrees>
            </Position>
            <AltitudeMeters>185.8000030517578125</AltitudeMeters>
            <DistanceMeters>45924.056008298</DistanceMeters>
          </Trackpoint>
          <Trackpoint>
            <Time>2021-10-09T09:03:35.000Z</Time>
            <Position>
              <LatitudeDegrees>39.58384039811789989471435546875</LatitudeDegrees>
              <LongitudeDegrees>-0.72200171649456024169921875</LongitudeDegrees>
            </Position>
            <AltitudeMeters>186.1999969482421875</AltitudeMeters>
            <DistanceMeters>45943.462408484</DistanceMeters>
          </Trackpoint>
          <Trackpoint>
            <Time>2021-10-09T09:03:40.000Z</Time>
            <Position>
              <LatitudeDegrees>39.5835798047482967376708984375</LatitudeDegrees>
              <LongitudeDegrees>-0.72208578698337078094482421875</LongitudeDegrees>
            </Position>
            <AltitudeMeters>187.1999969482421875</AltitudeMeters>
            <DistanceMeters>45973.350085242</DistanceMeters>
          </Trackpoint>
          <Trackpoint>
            <Time>2021-10-09T09:03:41.000Z</Time>
            <Position>
              <LatitudeDegrees>39.5835358835756778717041015625</LatitudeDegrees>
              <LongitudeDegrees>-0.72209425270557403564453125</LongitudeDegrees>
            </Position>
            <AltitudeMeters>187.399993896484375</AltitudeMeters>
            <DistanceMeters>45978.293301488</DistanceMeters>
          </Trackpoint>
          <Trackpoint>
            <Time>2021-10-09T09:03:49.000Z</Time>
            <Position>
              <LatitudeDegrees>39.5831097476184368133544921875</LatitudeDegrees>
              <LongitudeDegrees>-0.72215653024613857269287109375</LongitudeDegrees>
            </Position>
            <AltitudeMeters>188.399993896484375</AltitudeMeters>
            <DistanceMeters>46026.023017027</DistanceMeters>
          </Trackpoint>
          <Trackpoint>
            <Time>2021-10-09T09:03:56.000Z</Time>
            <Position>
              <LatitudeDegrees>39.582756198942661285400390625</LatitudeDegrees>
              <LongitudeDegrees>-0.72220430709421634674072265625</LongitudeDegrees>
            </Position>
            <AltitudeMeters>189.1999969482421875</AltitudeMeters>
            <DistanceMeters>46065.586553912</DistanceMeters>
          </Trackpoint>
          <Trackpoint>
            <Time>2021-10-09T09:03:59.000Z</Time>
            <Position>
              <LatitudeDegrees>39.58259099163115024566650390625</LatitudeDegrees>
              <LongitudeDegrees>-0.72222459129989147186279296875</LongitudeDegrees>
            </Position>
            <AltitudeMeters>189.399993896484375</AltitudeMeters>
            <DistanceMeters>46084.056481575</DistanceMeters>
          </Trackpoint>
          <Trackpoint>
            <Time>2021-10-09T09:04:03.000Z</Time>
            <Position>
              <LatitudeDegrees>39.58239485509693622589111328125</LatitudeDegrees>
              <LongitudeDegrees>-0.7222546823322772979736328125</LongitudeDegrees>
            </Position>
            <AltitudeMeters>190.8000030517578125</AltitudeMeters>
            <DistanceMeters>46106.039099955</DistanceMeters>
          </Trackpoint>
          <Trackpoint>
            <Time>2021-10-09T09:04:06.000Z</Time>
            <Position>
              <LatitudeDegrees>39.58222973160445690155029296875</LatitudeDegrees>
              <LongitudeDegrees>-0.72227857075631618499755859375</LongitudeDegrees>
            </Position>
            <AltitudeMeters>191.399993896484375</AltitudeMeters>
            <DistanceMeters>46124.531503664</DistanceMeters>
          </Trackpoint>
          <Trackpoint>
            <Time>2021-10-09T09:04:10.000Z</Time>
            <Position>
              <LatitudeDegrees>39.58200761117041110992431640625</LatitudeDegrees>
              <LongitudeDegrees>-0.7223167084157466888427734375</LongitudeDegrees>
            </Position>
            <AltitudeMeters>191.8000030517578125</AltitudeMeters>
            <DistanceMeters>46149.469453955</DistanceMeters>
          </Trackpoint>
          <Trackpoint>
            <Time>2021-10-09T09:04:16.000Z</Time>
            <Position>
              <LatitudeDegrees>39.58170200698077678680419921875</LatitudeDegrees>
              <LongitudeDegrees>-0.7223713584244251251220703125</LongitudeDegrees>
            </Position>
            <AltitudeMeters>191.399993896484375</AltitudeMeters>
            <DistanceMeters>46183.805539645</DistanceMeters>
          </Trackpoint>
          <Trackpoint>
            <Time>2021-10-09T09:04:26.000Z</Time>
            <Position>
              <LatitudeDegrees>39.58115047775208950042724609375</LatitudeDegrees>
              <LongitudeDegrees>-0.72247923351824283599853515625</LongitudeDegrees>
            </Position>
            <AltitudeMeters>191.8000030517578125</AltitudeMeters>
            <DistanceMeters>46245.885481939</DistanceMeters>
          </Trackpoint>
          <Trackpoint>
            <Time>2021-10-09T09:04:29.000Z</Time>
            <Position>
              <LatitudeDegrees>39.58097529597580432891845703125</LatitudeDegrees>
              <LongitudeDegrees>-0.72251510806381702423095703125</LongitudeDegrees>
            </Position>
            <AltitudeMeters>191.8000030517578125</AltitudeMeters>
            <DistanceMeters>46265.624980377</DistanceMeters>
          </Trackpoint>
          <Trackpoint>
            <Time>2021-10-09T09:04:38.000Z</Time>
            <Position>
              <LatitudeDegrees>39.5804952643811702728271484375</LatitudeDegrees>
              <LongitudeDegrees>-0.7226045429706573486328125</LongitudeDegrees>
            </Position>
            <AltitudeMeters>192.8000030517578125</AltitudeMeters>
            <DistanceMeters>46319.601492527</DistanceMeters>
          </Trackpoint>
          <Trackpoint>
            <Time>2021-10-09T09:04:39.000Z</Time>
            <Position>
              <LatitudeDegrees>39.5804453082382678985595703125</LatitudeDegrees>
              <LongitudeDegrees>-0.72261468507349491119384765625</LongitudeDegrees>
            </Position>
            <AltitudeMeters>192.8000030517578125</AltitudeMeters>
            <DistanceMeters>46325.229770076</DistanceMeters>
          </Trackpoint>
          <Trackpoint>
            <Time>2021-10-09T09:04:48.000Z</Time>
            <Position>
              <LatitudeDegrees>39.57997374236583709716796875</LatitudeDegrees>
              <LongitudeDegrees>-0.7227036170661449432373046875</LongitudeDegrees>
            </Position>
            <AltitudeMeters>193</AltitudeMeters>
            <DistanceMeters>46378.267532693</DistanceMeters>
          </Trackpoint>
          <Trackpoint>
            <Time>2021-10-09T09:04:53.000Z</Time>
            <Position>
              <LatitudeDegrees>39.5797134004533290863037109375</LatitudeDegrees>
              <LongitudeDegrees>-0.7227559201419353485107421875</LongitudeDegrees>
            </Position>
            <AltitudeMeters>193.8000030517578125</AltitudeMeters>
            <DistanceMeters>46407.589395498</DistanceMeters>
          </Trackpoint>
          <Trackpoint>
            <Time>2021-10-09T09:04:57.000Z</Time>
            <Position>
              <LatitudeDegrees>39.57950142212212085723876953125</LatitudeDegrees>
              <LongitudeDegrees>-0.7228286750614643096923828125</LongitudeDegrees>
            </Position>
            <AltitudeMeters>194.1999969482421875</AltitudeMeters>
            <DistanceMeters>46431.994801503</DistanceMeters>
          </Trackpoint>
          <Trackpoint>
            <Time>2021-10-09T09:04:58.000Z</Time>
            <Position>
              <LatitudeDegrees>39.57945263944566249847412109375</LatitudeDegrees>
              <LongitudeDegrees>-0.7228538207709789276123046875</LongitudeDegrees>
            </Position>
            <AltitudeMeters>194.1999969482421875</AltitudeMeters>
            <DistanceMeters>46437.837205885</DistanceMeters>
          </Trackpoint>
          <Trackpoint>
            <Time>2021-10-09T09:05:03.000Z</Time>
            <Position>
              <LatitudeDegrees>39.57922548986971378326416015625</LatitudeDegrees>
              <LongitudeDegrees>-0.72301114909350872039794921875</LongitudeDegrees>
            </Position>
            <AltitudeMeters>194.399993896484375</AltitudeMeters>
            <DistanceMeters>46466.496387016</DistanceMeters>
          </Trackpoint>
          <Trackpoint>
            <Time>2021-10-09T09:05:08.000Z</Time>
            <Position>
              <LatitudeDegrees>39.57899582572281360626220703125</LatitudeDegrees>
              <LongitudeDegrees>-0.72317945770919322967529296875</LongitudeDegrees>
            </Position>
            <AltitudeMeters>194.8000030517578125</AltitudeMeters>
            <DistanceMeters>46495.854413284</DistanceMeters>
          </Trackpoint>
          <Trackpoint>
            <Time>2021-10-09T09:05:11.000Z</Time>
            <Position>
              <LatitudeDegrees>39.578844867646694183349609375</LatitudeDegrees>
              <LongitudeDegrees>-0.72328540496528148651123046875</LongitudeDegrees>
            </Position>
            <AltitudeMeters>195.1999969482421875</AltitudeMeters>
            <DistanceMeters>46514.956910217</DistanceMeters>
          </Trackpoint>
          <Trackpoint>
            <Time>2021-10-09T09:05:19.000Z</Time>
            <Position>
              <LatitudeDegrees>39.57843105308711528778076171875</LatitudeDegrees>
              <LongitudeDegrees>-0.72358296252787113189697265625</LongitudeDegrees>
            </Position>
            <AltitudeMeters>195.8000030517578125</AltitudeMeters>
            <DistanceMeters>46567.615944908</DistanceMeters>
          </Trackpoint>
          <Trackpoint>
            <Time>2021-10-09T09:05:20.000Z</Time>
            <Position>
              <LatitudeDegrees>39.5783877186477184295654296875</LatitudeDegrees>
              <LongitudeDegrees>-0.723613388836383819580078125</LongitudeDegrees>
            </Position>
            <AltitudeMeters>196</AltitudeMeters>
            <DistanceMeters>46573.099570949</DistanceMeters>
          </Trackpoint>
          <Trackpoint>
            <Time>2021-10-09T09:05:29.000Z</Time>
            <Position>
              <LatitudeDegrees>39.57789662294089794158935546875</LatitudeDegrees>
              <LongitudeDegrees>-0.72394154034554958343505859375</LongitudeDegrees>
            </Position>
            <AltitudeMeters>197</AltitudeMeters>
            <DistanceMeters>46634.582809813</DistanceMeters>
          </Trackpoint>
          <Trackpoint>
            <Time>2021-10-09T09:05:30.000Z</Time>
            <Position>
              <LatitudeDegrees>39.57785169593989849090576171875</LatitudeDegrees>
              <LongitudeDegrees>-0.72396333329379558563232421875</LongitudeDegrees>
            </Position>
            <AltitudeMeters>197</AltitudeMeters>
            <DistanceMeters>46639.922093598</DistanceMeters>
          </Trackpoint>
          <Trackpoint>
            <Time>2021-10-09T09:05:31.000Z</Time>
            <Position>
              <LatitudeDegrees>39.57778212614357471466064453125</LatitudeDegrees>
              <LongitudeDegrees>-0.72398898191750049591064453125</LongitudeDegrees>
            </Position>
            <AltitudeMeters>197</AltitudeMeters>
            <DistanceMeters>46647.971927668</DistanceMeters>
          </Trackpoint>
          <Trackpoint>
            <Time>2021-10-09T09:05:34.000Z</Time>
            <Position>
              <LatitudeDegrees>39.5775874145328998565673828125</LatitudeDegrees>
              <LongitudeDegrees>-0.7240111939609050750732421875</LongitudeDegrees>
            </Position>
            <AltitudeMeters>197</AltitudeMeters>
            <DistanceMeters>46669.727027451</DistanceMeters>
          </Trackpoint>
          <Trackpoint>
            <Time>2021-10-09T09:05:41.000Z</Time>
            <Position>
              <LatitudeDegrees>39.57709665410220623016357421875</LatitudeDegrees>
              <LongitudeDegrees>-0.72400641627609729766845703125</LongitudeDegrees>
            </Position>
            <AltitudeMeters>196.399993896484375</AltitudeMeters>
            <DistanceMeters>46724.351107299</DistanceMeters>
          </Trackpoint>
          <Trackpoint>
            <Time>2021-10-09T09:05:49.000Z</Time>
            <Position>
              <LatitudeDegrees>39.57656155340373516082763671875</LatitudeDegrees>
              <LongitudeDegrees>-0.7240088470280170440673828125</LongitudeDegrees>
            </Position>
            <AltitudeMeters>196.1999969482421875</AltitudeMeters>
            <DistanceMeters>46783.909209506</DistanceMeters>
          </Trackpoint>
          <Trackpoint>
            <Time>2021-10-09T09:05:56.000Z</Time>
            <Position>
              <LatitudeDegrees>39.5760951004922389984130859375</LatitudeDegrees>
              <LongitudeDegrees>-0.72401060722768306732177734375</LongitudeDegrees>
            </Position>
            <AltitudeMeters>196.600006103515625</AltitudeMeters>
            <DistanceMeters>46835.826505063</DistanceMeters>
          </Trackpoint>
          <Trackpoint>
            <Time>2021-10-09T09:06:02.000Z</Time>
            <Position>
              <LatitudeDegrees>39.5757058449089527130126953125</LatitudeDegrees>
              <LongitudeDegrees>-0.7240261137485504150390625</LongitudeDegrees>
            </Position>
            <AltitudeMeters>197.1999969482421875</AltitudeMeters>
            <DistanceMeters>46879.171813519</DistanceMeters>
          </Trackpoint>
          <Trackpoint>
            <Time>2021-10-09T09:06:03.000Z</Time>
            <Position>
              <LatitudeDegrees>39.5756451599299907684326171875</LatitudeDegrees>
              <LongitudeDegrees>-0.7240524329245090484619140625</LongitudeDegrees>
            </Position>
            <AltitudeMeters>197.399993896484375</AltitudeMeters>
            <DistanceMeters>46886.293113211</DistanceMeters>
          </Trackpoint>
          <Trackpoint>
            <Time>2021-10-09T09:06:04.000Z</Time>
            <Position>
              <LatitudeDegrees>39.575594365596771240234375</LatitudeDegrees>
              <LongitudeDegrees>-0.724100880324840545654296875</LongitudeDegrees>
            </Position>
            <AltitudeMeters>197.399993896484375</AltitudeMeters>
            <DistanceMeters>46893.31030687</DistanceMeters>
          </Trackpoint>
          <Trackpoint>
            <Time>2021-10-09T09:06:06.000Z</Time>
            <Position>
              <LatitudeDegrees>39.57554407417774200439453125</LatitudeDegrees>
              <LongitudeDegrees>-0.7242465578019618988037109375</LongitudeDegrees>
            </Position>
            <AltitudeMeters>197.600006103515625</AltitudeMeters>
            <DistanceMeters>46907.004048778</DistanceMeters>
          </Trackpoint>
          <Trackpoint>
            <Time>2021-10-09T09:06:08.000Z</Time>
            <Position>
              <LatitudeDegrees>39.57554633729159832000732421875</LatitudeDegrees>
              <LongitudeDegrees>-0.72441092692315578460693359375</LongitudeDegrees>
            </Position>
            <AltitudeMeters>197.600006103515625</AltitudeMeters>
            <DistanceMeters>46921.107114535</DistanceMeters>
          </Trackpoint>
          <Trackpoint>
            <Time>2021-10-09T09:06:10.000Z</Time>
            <Position>
              <LatitudeDegrees>39.5755382068455219268798828125</LatitudeDegrees>
              <LongitudeDegrees>-0.72457303293049335479736328125</LongitudeDegrees>
            </Position>
            <AltitudeMeters>197.8000030517578125</AltitudeMeters>
            <DistanceMeters>46935.04335808</DistanceMeters>
          </Trackpoint>
          <Trackpoint>
            <Time>2021-10-09T09:06:11.000Z</Time>
            <Position>
              <LatitudeDegrees>39.575524628162384033203125</LatitudeDegrees>
              <LongitudeDegrees>-0.7246468774974346160888671875</LongitudeDegrees>
            </Position>
            <AltitudeMeters>197.8000030517578125</AltitudeMeters>
            <DistanceMeters>46941.556675141</DistanceMeters>
          </Trackpoint>
          <Trackpoint>
            <Time>2021-10-09T09:06:13.000Z</Time>
            <Position>
              <LatitudeDegrees>39.575470983982086181640625</LatitudeDegrees>
              <LongitudeDegrees>-0.72477512061595916748046875</LongitudeDegrees>
            </Position>
            <AltitudeMeters>198</AltitudeMeters>
            <DistanceMeters>46954.074258233</DistanceMeters>
          </Trackpoint>
          <Trackpoint>
            <Time>2021-10-09T09:06:15.000Z</Time>
            <Position>
              <LatitudeDegrees>39.57538448274135589599609375</LatitudeDegrees>
              <LongitudeDegrees>-0.7248698361217975616455078125</LongitudeDegrees>
            </Position>
            <AltitudeMeters>198.1999969482421875</AltitudeMeters>
            <DistanceMeters>46966.673094835</DistanceMeters>
          </Trackpoint>
          <Trackpoint>
            <Time>2021-10-09T09:06:17.000Z</Time>
            <Position>
              <LatitudeDegrees>39.57528415136039257049560546875</LatitudeDegrees>
              <LongitudeDegrees>-0.7249466143548488616943359375</LongitudeDegrees>
            </Position>
            <AltitudeMeters>198.600006103515625</AltitudeMeters>
            <DistanceMeters>46979.637887272</DistanceMeters>
          </Trackpoint>
          <Trackpoint>
            <Time>2021-10-09T09:06:18.000Z</Time>
            <Position>
              <LatitudeDegrees>39.57523235119879245758056640625</LatitudeDegrees>
              <LongitudeDegrees>-0.724983997642993927001953125</LongitudeDegrees>
            </Position>
            <AltitudeMeters>199.1999969482421875</AltitudeMeters>
            <DistanceMeters>46986.235232834</DistanceMeters>
          </Trackpoint>
          <Trackpoint>
            <Time>2021-10-09T09:06:24.000Z</Time>
            <Position>
              <LatitudeDegrees>39.57493118941783905029296875</LatitudeDegrees>
              <LongitudeDegrees>-0.72521408088505268096923828125</LongitudeDegrees>
            </Position>
            <AltitudeMeters>200.1999969482421875</AltitudeMeters>
            <DistanceMeters>47025.135413941</DistanceMeters>
          </Trackpoint>
          <Trackpoint>
            <Time>2021-10-09T09:06:27.000Z</Time>
            <Position>
              <LatitudeDegrees>39.57478090189397335052490234375</LatitudeDegrees>
              <LongitudeDegrees>-0.72532120160758495330810546875</LongitudeDegrees>
            </Position>
            <AltitudeMeters>200.8000030517578125</AltitudeMeters>
            <DistanceMeters>47044.220885473</DistanceMeters>
          </Trackpoint>
          <Trackpoint>
            <Time>2021-10-09T09:06:32.000Z</Time>
            <Position>
              <LatitudeDegrees>39.5745362341403961181640625</LatitudeDegrees>
              <LongitudeDegrees>-0.7255147397518157958984375</LongitudeDegrees>
            </Position>
            <AltitudeMeters>201.1999969482421875</AltitudeMeters>
            <DistanceMeters>47076.115622213</DistanceMeters>
          </Trackpoint>
          <Trackpoint>
            <Time>2021-10-09T09:06:34.000Z</Time>
            <Position>
              <LatitudeDegrees>39.5744364894926548004150390625</LatitudeDegrees>
              <LongitudeDegrees>-0.72559545747935771942138671875</LongitudeDegrees>
            </Position>
            <AltitudeMeters>201.399993896484375</AltitudeMeters>
            <DistanceMeters>47089.200010594</DistanceMeters>
          </Trackpoint>
          <Trackpoint>
            <Time>2021-10-09T09:06:40.000Z</Time>
            <Position>
              <LatitudeDegrees>39.57410330884158611297607421875</LatitudeDegrees>
              <LongitudeDegrees>-0.7257626764476299285888671875</LongitudeDegrees>
            </Position>
            <AltitudeMeters>201.8000030517578125</AltitudeMeters>
            <DistanceMeters>47128.961849635</DistanceMeters>
          </Trackpoint>
          <Trackpoint>
            <Time>2021-10-09T09:06:49.000Z</Time>
            <Position>
              <LatitudeDegrees>39.57358832471072673797607421875</LatitudeDegrees>
              <LongitudeDegrees>-0.725950263440608978271484375</LongitudeDegrees>
            </Position>
            <AltitudeMeters>202</AltitudeMeters>
            <DistanceMeters>47188.496977294</DistanceMeters>
          </Trackpoint>
          <Trackpoint>
            <Time>2021-10-09T09:06:53.000Z</Time>
            <Position>
              <LatitudeDegrees>39.57335673272609710693359375</LatitudeDegrees>
              <LongitudeDegrees>-0.72597683407366275787353515625</LongitudeDegrees>
            </Position>
            <AltitudeMeters>202.399993896484375</AltitudeMeters>
            <DistanceMeters>47214.374271372</DistanceMeters>
          </Trackpoint>
          <Trackpoint>
            <Time>2021-10-09T09:06:56.000Z</Time>
            <Position>
              <LatitudeDegrees>39.5731812156736850738525390625</LatitudeDegrees>
              <LongitudeDegrees>-0.725969038903713226318359375</LongitudeDegrees>
            </Position>
            <AltitudeMeters>202.600006103515625</AltitudeMeters>
            <DistanceMeters>47233.921153335</DistanceMeters>
          </Trackpoint>
          <Trackpoint>
            <Time>2021-10-09T09:07:04.000Z</Time>
            <Position>
              <LatitudeDegrees>39.57270654849708080291748046875</LatitudeDegrees>
              <LongitudeDegrees>-0.72594163008034229278564453125</LongitudeDegrees>
            </Position>
            <AltitudeMeters>203.399993896484375</AltitudeMeters>
            <DistanceMeters>47286.804949959</DistanceMeters>
          </Trackpoint>
          <Trackpoint>
            <Time>2021-10-09T09:07:05.000Z</Time>
            <Position>
              <LatitudeDegrees>39.57264569588005542755126953125</LatitudeDegrees>
              <LongitudeDegrees>-0.7259386964142322540283203125</LongitudeDegrees>
            </Position>
            <AltitudeMeters>203.399993896484375</AltitudeMeters>
            <DistanceMeters>47293.583226211</DistanceMeters>
          </Trackpoint>
          <Trackpoint>
            <Time>2021-10-09T09:07:12.000Z</Time>
            <Position>
              <LatitudeDegrees>39.57221503369510173797607421875</LatitudeDegrees>
              <LongitudeDegrees>-0.72591732256114482879638671875</LongitudeDegrees>
            </Position>
            <AltitudeMeters>204.1999969482421875</AltitudeMeters>
            <DistanceMeters>47341.551860745</DistanceMeters>
          </Trackpoint>
          <Trackpoint>
            <Time>2021-10-09T09:07:15.000Z</Time>
            <Position>
              <LatitudeDegrees>39.57203549332916736602783203125</LatitudeDegrees>
              <LongitudeDegrees>-0.72590676136314868927001953125</LongitudeDegrees>
            </Position>
            <AltitudeMeters>204.399993896484375</AltitudeMeters>
            <DistanceMeters>47361.555830539</DistanceMeters>
          </Trackpoint>
          <Trackpoint>
            <Time>2021-10-09T09:07:20.000Z</Time>
            <Position>
              <LatitudeDegrees>39.57173223607242107391357421875</LatitudeDegrees>
              <LongitudeDegrees>-0.7258951105177402496337890625</LongitudeDegrees>
            </Position>
            <AltitudeMeters>205</AltitudeMeters>
            <DistanceMeters>47395.323891381</DistanceMeters>
          </Trackpoint>
          <Trackpoint>
            <Time>2021-10-09T09:07:23.000Z</Time>
            <Position>
              <LatitudeDegrees>39.571551941335201263427734375</LatitudeDegrees>
              <LongitudeDegrees>-0.725892595946788787841796875</LongitudeDegrees>
            </Position>
            <AltitudeMeters>205.1999969482421875</AltitudeMeters>
            <DistanceMeters>47415.392084607</DistanceMeters>
          </Trackpoint>
          <Trackpoint>
            <Time>2021-10-09T09:07:26.000Z</Time>
            <Position>
              <LatitudeDegrees>39.57137499935925006866455078125</LatitudeDegrees>
              <LongitudeDegrees>-0.7259286381304264068603515625</LongitudeDegrees>
            </Position>
            <AltitudeMeters>205.399993896484375</AltitudeMeters>
            <DistanceMeters>47435.327321357</DistanceMeters>
          </Trackpoint>
          <Trackpoint>
            <Time>2021-10-09T09:07:35.000Z</Time>
            <Position>
              <LatitudeDegrees>39.5708259008824825286865234375</LatitudeDegrees>
              <LongitudeDegrees>-0.726052857935428619384765625</LongitudeDegrees>
            </Position>
            <AltitudeMeters>206</AltitudeMeters>
            <DistanceMeters>47497.365357361</DistanceMeters>
          </Trackpoint>
          <Trackpoint>
            <Time>2021-10-09T09:07:42.000Z</Time>
            <Position>
              <LatitudeDegrees>39.57041158340871334075927734375</LatitudeDegrees>
              <LongitudeDegrees>-0.72614572942256927490234375</LongitudeDegrees>
            </Position>
            <AltitudeMeters>206.1999969482421875</AltitudeMeters>
            <DistanceMeters>47544.163095765</DistanceMeters>
          </Trackpoint>
          <Trackpoint>
            <Time>2021-10-09T09:07:43.000Z</Time>
            <Position>
              <LatitudeDegrees>39.57034997642040252685546875</LatitudeDegrees>
              <LongitudeDegrees>-0.72616140358150005340576171875</LongitudeDegrees>
            </Position>
            <AltitudeMeters>206.600006103515625</AltitudeMeters>
            <DistanceMeters>47551.150629187</DistanceMeters>
          </Trackpoint>
          <Trackpoint>
            <Time>2021-10-09T09:07:52.000Z</Time>
            <Position>
              <LatitudeDegrees>39.5698066614568233489990234375</LatitudeDegrees>
              <LongitudeDegrees>-0.7262930832803249359130859375</LongitudeDegrees>
            </Position>
            <AltitudeMeters>207.399993896484375</AltitudeMeters>
            <DistanceMeters>47612.668960095</DistanceMeters>
          </Trackpoint>
          <Trackpoint>
            <Time>2021-10-09T09:08:00.000Z</Time>
            <Position>
              <LatitudeDegrees>39.56932813860476016998291015625</LatitudeDegrees>
              <LongitudeDegrees>-0.72632887400686740875244140625</LongitudeDegrees>
            </Position>
            <AltitudeMeters>208</AltitudeMeters>
            <DistanceMeters>47666.017976523</DistanceMeters>
          </Trackpoint>
          <Trackpoint>
            <Time>2021-10-09T09:08:08.000Z</Time>
            <Position>
              <LatitudeDegrees>39.5688685588538646697998046875</LatitudeDegrees>
              <LongitudeDegrees>-0.72633155621588230133056640625</LongitudeDegrees>
            </Position>
            <AltitudeMeters>208.600006103515625</AltitudeMeters>
            <DistanceMeters>47717.17060178</DistanceMeters>
          </Trackpoint>
          <Trackpoint>
            <Time>2021-10-09T09:08:11.000Z</Time>
            <Position>
              <LatitudeDegrees>39.56868541426956653594970703125</LatitudeDegrees>
              <LongitudeDegrees>-0.72632786817848682403564453125</LongitudeDegrees>
            </Position>
            <AltitudeMeters>209.1999969482421875</AltitudeMeters>
            <DistanceMeters>47737.557320457</DistanceMeters>
          </Trackpoint>
          <Trackpoint>
            <Time>2021-10-09T09:08:13.000Z</Time>
            <Position>
              <LatitudeDegrees>39.568580053746700286865234375</LatitudeDegrees>
              <LongitudeDegrees>-0.726334154605865478515625</LongitudeDegrees>
            </Position>
            <AltitudeMeters>209.8000030517578125</AltitudeMeters>
            <DistanceMeters>47749.29610091</DistanceMeters>
          </Trackpoint>
          <Trackpoint>
            <Time>2021-10-09T09:08:15.000Z</Time>
            <Position>
              <LatitudeDegrees>39.568464718759059906005859375</LatitudeDegrees>
              <LongitudeDegrees>-0.72635670192539691925048828125</LongitudeDegrees>
            </Position>
            <AltitudeMeters>211</AltitudeMeters>
            <DistanceMeters>47762.277598767</DistanceMeters>
          </Trackpoint>
          <Trackpoint>
            <Time>2021-10-09T09:08:17.000Z</Time>
            <Position>
              <LatitudeDegrees>39.568351395428180694580078125</LatitudeDegrees>
              <LongitudeDegrees>-0.72639877907931804656982421875</LongitudeDegrees>
            </Position>
            <AltitudeMeters>211.1999969482421875</AltitudeMeters>
            <DistanceMeters>47775.397137139</DistanceMeters>
          </Trackpoint>
          <Trackpoint>
            <Time>2021-10-09T09:08:26.000Z</Time>
            <Position>
              <LatitudeDegrees>39.567805230617523193359375</LatitudeDegrees>
              <LongitudeDegrees>-0.72662651538848876953125</LongitudeDegrees>
            </Position>
            <AltitudeMeters>210.399993896484375</AltitudeMeters>
            <DistanceMeters>47839.249503304</DistanceMeters>
          </Trackpoint>
          <Trackpoint>
            <Time>2021-10-09T09:08:35.000Z</Time>
            <Position>
              <LatitudeDegrees>39.5672810263931751251220703125</LatitudeDegrees>
              <LongitudeDegrees>-0.72684301994740962982177734375</LongitudeDegrees>
            </Position>
            <AltitudeMeters>211.1999969482421875</AltitudeMeters>
            <DistanceMeters>47900.480341114</DistanceMeters>
          </Trackpoint>
          <Trackpoint>
            <Time>2021-10-09T09:08:36.000Z</Time>
            <Position>
              <LatitudeDegrees>39.5672223530709743499755859375</LatitudeDegrees>
              <LongitudeDegrees>-0.72686430998146533966064453125</LongitudeDegrees>
            </Position>
            <AltitudeMeters>211.1999969482421875</AltitudeMeters>
            <DistanceMeters>47907.261947069</DistanceMeters>
          </Trackpoint>
          <Trackpoint>
            <Time>2021-10-09T09:08:43.000Z</Time>
            <Position>
              <LatitudeDegrees>39.56681658513844013214111328125</LatitudeDegrees>
              <LongitudeDegrees>-0.72694947011768817901611328125</LongitudeDegrees>
            </Position>
            <AltitudeMeters>211.399993896484375</AltitudeMeters>
            <DistanceMeters>47953.011857765</DistanceMeters>
          </Trackpoint>
          <Trackpoint>
            <Time>2021-10-09T09:08:49.000Z</Time>
            <Position>
              <LatitudeDegrees>39.5664619468152523040771484375</LatitudeDegrees>
              <LongitudeDegrees>-0.7269736938178539276123046875</LongitudeDegrees>
            </Position>
            <AltitudeMeters>212</AltitudeMeters>
            <DistanceMeters>47992.538402087</DistanceMeters>
          </Trackpoint>
          <Trackpoint>
            <Time>2021-10-09T09:08:53.000Z</Time>
            <Position>
              <LatitudeDegrees>39.5662296004593372344970703125</LatitudeDegrees>
              <LongitudeDegrees>-0.7269814051687717437744140625</LongitudeDegrees>
            </Position>
            <AltitudeMeters>212.8000030517578125</AltitudeMeters>
            <DistanceMeters>48018.407494363</DistanceMeters>
          </Trackpoint>
          <Trackpoint>
            <Time>2021-10-09T09:08:56.000Z</Time>
            <Position>
              <LatitudeDegrees>39.56605307757854461669921875</LatitudeDegrees>
              <LongitudeDegrees>-0.72698970325291156768798828125</LongitudeDegrees>
            </Position>
            <AltitudeMeters>213.399993896484375</AltitudeMeters>
            <DistanceMeters>48038.067692534</DistanceMeters>
          </Trackpoint>
          <Trackpoint>
            <Time>2021-10-09T09:08:59.000Z</Time>
            <Position>
              <LatitudeDegrees>39.565885104238986968994140625</LatitudeDegrees>
              <LongitudeDegrees>-0.72698668576776981353759765625</LongitudeDegrees>
            </Position>
            <AltitudeMeters>213.600006103515625</AltitudeMeters>
            <DistanceMeters>48056.765270172</DistanceMeters>
          </Trackpoint>
          <Trackpoint>
            <Time>2021-10-09T09:09:00.000Z</Time>
            <Position>
              <LatitudeDegrees>39.5658279396593570709228515625</LatitudeDegrees>
              <LongitudeDegrees>-0.726974196732044219970703125</LongitudeDegrees>
            </Position>
            <AltitudeMeters>213.8000030517578125</AltitudeMeters>
            <DistanceMeters>48063.21799692</DistanceMeters>
          </Trackpoint>
          <Trackpoint>
            <Time>2021-10-09T09:09:01.000Z</Time>
            <Position>
              <LatitudeDegrees>39.56577136181294918060302734375</LatitudeDegrees>
              <LongitudeDegrees>-0.72695449925959110260009765625</LongitudeDegrees>
            </Position>
            <AltitudeMeters>214</AltitudeMeters>
            <DistanceMeters>48069.738242306</DistanceMeters>
          </Trackpoint>
          <Trackpoint>
            <Time>2021-10-09T09:09:03.000Z</Time>
            <Position>
              <LatitudeDegrees>39.56566122360527515411376953125</LatitudeDegrees>
              <LongitudeDegrees>-0.7268985919654369354248046875</LongitudeDegrees>
            </Position>
            <AltitudeMeters>214.399993896484375</AltitudeMeters>
            <DistanceMeters>48082.902100668</DistanceMeters>
          </Trackpoint>
          <Trackpoint>
            <Time>2021-10-09T09:09:06.000Z</Time>
            <Position>
              <LatitudeDegrees>39.565490819513797760009765625</LatitudeDegrees>
              <LongitudeDegrees>-0.726810581982135772705078125</LongitudeDegrees>
            </Position>
            <AltitudeMeters>214.399993896484375</AltitudeMeters>
            <DistanceMeters>48103.316705441</DistanceMeters>
          </Trackpoint>
          <Trackpoint>
            <Time>2021-10-09T09:09:13.000Z</Time>
            <Position>
              <LatitudeDegrees>39.56508203409612178802490234375</LatitudeDegrees>
              <LongitudeDegrees>-0.7265904732048511505126953125</LongitudeDegrees>
            </Position>
            <AltitudeMeters>214.1999969482421875</AltitudeMeters>
            <DistanceMeters>48152.579327723</DistanceMeters>
          </Trackpoint>
          <Trackpoint>
            <Time>2021-10-09T09:09:14.000Z</Time>
            <Position>
              <LatitudeDegrees>39.5650209300220012664794921875</LatitudeDegrees>
              <LongitudeDegrees>-0.72655904106795787811279296875</LongitudeDegrees>
            </Position>
            <AltitudeMeters>214.1999969482421875</AltitudeMeters>
            <DistanceMeters>48159.894533325</DistanceMeters>
          </Trackpoint>
          <Trackpoint>
            <Time>2021-10-09T09:09:16.000Z</Time>
            <Position>
              <LatitudeDegrees>39.56490240991115570068359375</LatitudeDegrees>
              <LongitudeDegrees>-0.726500786840915679931640625</LongitudeDegrees>
            </Position>
            <AltitudeMeters>214.1999969482421875</AltitudeMeters>
            <DistanceMeters>48174.00144031</DistanceMeters>
          </Trackpoint>
          <Trackpoint>
            <Time>2021-10-09T09:09:20.000Z</Time>
            <Position>
              <LatitudeDegrees>39.5646568201482295989990234375</LatitudeDegrees>
              <LongitudeDegrees>-0.72641638107597827911376953125</LongitudeDegrees>
            </Position>
            <AltitudeMeters>214.1999969482421875</AltitudeMeters>
            <DistanceMeters>48202.279193567</DistanceMeters>
          </Trackpoint>
          <Trackpoint>
            <Time>2021-10-09T09:09:21.000Z</Time>
            <Position>
              <LatitudeDegrees>39.56459529697895050048828125</LatitudeDegrees>
              <LongitudeDegrees>-0.72642660699784755706787109375</LongitudeDegrees>
            </Position>
            <AltitudeMeters>214.1999969482421875</AltitudeMeters>
            <DistanceMeters>48209.182869651</DistanceMeters>
          </Trackpoint>
          <Trackpoint>
            <Time>2021-10-09T09:09:29.000Z</Time>
            <Position>
              <LatitudeDegrees>39.564133621752262115478515625</LatitudeDegrees>
              <LongitudeDegrees>-0.72657731361687183380126953125</LongitudeDegrees>
            </Position>
            <AltitudeMeters>215</AltitudeMeters>
            <DistanceMeters>48262.170297294</DistanceMeters>
          </Trackpoint>
          <Trackpoint>
            <Time>2021-10-09T09:09:31.000Z</Time>
            <Position>
              <LatitudeDegrees>39.5640335418283939361572265625</LatitudeDegrees>
              <LongitudeDegrees>-0.72660631500184535980224609375</LongitudeDegrees>
            </Position>
            <AltitudeMeters>215.8000030517578125</AltitudeMeters>
            <DistanceMeters>48273.584584085</DistanceMeters>
          </Trackpoint>
          <Trackpoint>
            <Time>2021-10-09T09:09:34.000Z</Time>
            <Position>
              <LatitudeDegrees>39.5638927258551120758056640625</LatitudeDegrees>
              <LongitudeDegrees>-0.72664705105125904083251953125</LongitudeDegrees>
            </Position>
            <AltitudeMeters>216.399993896484375</AltitudeMeters>
            <DistanceMeters>48289.642693031</DistanceMeters>
          </Trackpoint>
          <Trackpoint>
            <Time>2021-10-09T09:09:35.000Z</Time>
            <Position>
              <LatitudeDegrees>39.56384620629251003265380859375</LatitudeDegrees>
              <LongitudeDegrees>-0.72665794752538204193115234375</LongitudeDegrees>
            </Position>
            <AltitudeMeters>216.8000030517578125</AltitudeMeters>
            <DistanceMeters>48294.904462161</DistanceMeters>
          </Trackpoint>
          <Trackpoint>
            <Time>2021-10-09T09:09:36.000Z</Time>
            <Position>
              <LatitudeDegrees>39.56379977054893970489501953125</LatitudeDegrees>
              <LongitudeDegrees>-0.72667303495109081268310546875</LongitudeDegrees>
            </Position>
            <AltitudeMeters>217</AltitudeMeters>
            <DistanceMeters>48300.232741465</DistanceMeters>
          </Trackpoint>
          <Trackpoint>
            <Time>2021-10-09T09:09:38.000Z</Time>
            <Position>
              <LatitudeDegrees>39.5637054741382598876953125</LatitudeDegrees>
              <LongitudeDegrees>-0.72671377100050449371337890625</LongitudeDegrees>
            </Position>
            <AltitudeMeters>217.8000030517578125</AltitudeMeters>
            <DistanceMeters>48311.295091847</DistanceMeters>
          </Trackpoint>
          <Trackpoint>
            <Time>2021-10-09T09:09:40.000Z</Time>
            <Position>
              <LatitudeDegrees>39.5636134408414363861083984375</LatitudeDegrees>
              <LongitudeDegrees>-0.72673992253839969635009765625</LongitudeDegrees>
            </Position>
            <AltitudeMeters>218.1999969482421875</AltitudeMeters>
            <DistanceMeters>48321.781667595</DistanceMeters>
          </Trackpoint>
          <Trackpoint>
            <Time>2021-10-09T09:09:44.000Z</Time>
            <Position>
              <LatitudeDegrees>39.56343591213226318359375</LatitudeDegrees>
              <LongitudeDegrees>-0.72679172269999980926513671875</LongitudeDegrees>
            </Position>
            <AltitudeMeters>218.8000030517578125</AltitudeMeters>
            <DistanceMeters>48342.034622747</DistanceMeters>
          </Trackpoint>
          <Trackpoint>
            <Time>2021-10-09T09:09:49.000Z</Time>
            <Position>
              <LatitudeDegrees>39.563216306269168853759765625</LatitudeDegrees>
              <LongitudeDegrees>-0.72689800523221492767333984375</LongitudeDegrees>
            </Position>
            <AltitudeMeters>219.8000030517578125</AltitudeMeters>
            <DistanceMeters>48368.123047224</DistanceMeters>
          </Trackpoint>
          <Trackpoint>
            <Time>2021-10-09T09:09:50.000Z</Time>
            <Position>
              <LatitudeDegrees>39.563175737857818603515625</LatitudeDegrees>
              <LongitudeDegrees>-0.72692625224590301513671875</LongitudeDegrees>
            </Position>
            <AltitudeMeters>220</AltitudeMeters>
            <DistanceMeters>48373.24832696</DistanceMeters>
          </Trackpoint>
          <Trackpoint>
            <Time>2021-10-09T09:09:55.000Z</Time>
            <Position>
              <LatitudeDegrees>39.56297046504914760589599609375</LatitudeDegrees>
              <LongitudeDegrees>-0.72706304490566253662109375</LongitudeDegrees>
            </Position>
            <AltitudeMeters>220.600006103515625</AltitudeMeters>
            <DistanceMeters>48398.934207814</DistanceMeters>
          </Trackpoint>
          <Trackpoint>
            <Time>2021-10-09T09:09:56.000Z</Time>
            <Position>
              <LatitudeDegrees>39.56292922608554363250732421875</LatitudeDegrees>
              <LongitudeDegrees>-0.727090537548065185546875</LongitudeDegrees>
            </Position>
            <AltitudeMeters>221</AltitudeMeters>
            <DistanceMeters>48404.093729628</DistanceMeters>
          </Trackpoint>
          <Trackpoint>
            <Time>2021-10-09T09:10:01.000Z</Time>
            <Position>
              <LatitudeDegrees>39.56271682865917682647705078125</LatitudeDegrees>
              <LongitudeDegrees>-0.7272352091968059539794921875</LongitudeDegrees>
            </Position>
            <AltitudeMeters>222.1999969482421875</AltitudeMeters>
            <DistanceMeters>48430.795052733</DistanceMeters>
          </Trackpoint>
          <Trackpoint>
            <Time>2021-10-09T09:10:05.000Z</Time>
            <Position>
              <LatitudeDegrees>39.5625197701156139373779296875</LatitudeDegrees>
              <LongitudeDegrees>-0.72736018337309360504150390625</LongitudeDegrees>
            </Position>
            <AltitudeMeters>222.399993896484375</AltitudeMeters>
            <DistanceMeters>48455.209337198</DistanceMeters>
          </Trackpoint>
          <Trackpoint>
            <Time>2021-10-09T09:10:09.000Z</Time>
            <Position>
              <LatitudeDegrees>39.56230024807155132293701171875</LatitudeDegrees>
              <LongitudeDegrees>-0.7274601794779300689697265625</LongitudeDegrees>
            </Position>
            <AltitudeMeters>222.399993896484375</AltitudeMeters>
            <DistanceMeters>48481.105468126</DistanceMeters>
          </Trackpoint>
          <Trackpoint>
            <Time>2021-10-09T09:10:13.000Z</Time>
            <Position>
              <LatitudeDegrees>39.56207075156271457672119140625</LatitudeDegrees>
              <LongitudeDegrees>-0.72755254805088043212890625</LongitudeDegrees>
            </Position>
            <AltitudeMeters>222.399993896484375</AltitudeMeters>
            <DistanceMeters>48507.850381947</DistanceMeters>
          </Trackpoint>
          <Trackpoint>
            <Time>2021-10-09T09:10:18.000Z</Time>
            <Position>
              <LatitudeDegrees>39.561792723834514617919921875</LatitudeDegrees>
              <LongitudeDegrees>-0.72766863740980625152587890625</LongitudeDegrees>
            </Position>
            <AltitudeMeters>222.600006103515625</AltitudeMeters>
            <DistanceMeters>48540.359241763</DistanceMeters>
          </Trackpoint>
          <Trackpoint>
            <Time>2021-10-09T09:10:24.000Z</Time>
            <Position>
              <LatitudeDegrees>39.5614478923380374908447265625</LatitudeDegrees>
              <LongitudeDegrees>-0.7278152368962764739990234375</LongitudeDegrees>
            </Position>
            <AltitudeMeters>223</AltitudeMeters>
            <DistanceMeters>48580.748613753</DistanceMeters>
          </Trackpoint>
          <Trackpoint>
            <Time>2021-10-09T09:10:28.000Z</Time>
            <Position>
              <LatitudeDegrees>39.56121034920215606689453125</LatitudeDegrees>
              <LongitudeDegrees>-0.727910287678241729736328125</LongitudeDegrees>
            </Position>
            <AltitudeMeters>223.1999969482421875</AltitudeMeters>
            <DistanceMeters>48608.417057704</DistanceMeters>
          </Trackpoint>
          <Trackpoint>
            <Time>2021-10-09T09:10:34.000Z</Time>
            <Position>
              <LatitudeDegrees>39.56085319630801677703857421875</LatitudeDegrees>
              <LongitudeDegrees>-0.72805412113666534423828125</LongitudeDegrees>
            </Position>
            <AltitudeMeters>224</AltitudeMeters>
            <DistanceMeters>48650.040711156</DistanceMeters>
          </Trackpoint>
          <Trackpoint>
            <Time>2021-10-09T09:10:36.000Z</Time>
            <Position>
              <LatitudeDegrees>39.560740627348423004150390625</LatitudeDegrees>
              <LongitudeDegrees>-0.72810365818440914154052734375</LongitudeDegrees>
            </Position>
            <AltitudeMeters>224.399993896484375</AltitudeMeters>
            <DistanceMeters>48663.271624274</DistanceMeters>
          </Trackpoint>
          <Trackpoint>
            <Time>2021-10-09T09:10:42.000Z</Time>
            <Position>
              <LatitudeDegrees>39.5603988133370876312255859375</LatitudeDegrees>
              <LongitudeDegrees>-0.7282256148755550384521484375</LongitudeDegrees>
            </Position>
            <AltitudeMeters>225.600006103515625</AltitudeMeters>
            <DistanceMeters>48702.729343418</DistanceMeters>
          </Trackpoint>
          <Trackpoint>
            <Time>2021-10-09T09:10:43.000Z</Time>
            <Position>
              <LatitudeDegrees>39.56034122966229915618896484375</LatitudeDegrees>
              <LongitudeDegrees>-0.72822519578039646148681640625</LongitudeDegrees>
            </Position>
            <AltitudeMeters>225.600006103515625</AltitudeMeters>
            <DistanceMeters>48709.139245743</DistanceMeters>
          </Trackpoint>
          <Trackpoint>
            <Time>2021-10-09T09:10:45.000Z</Time>
            <Position>
              <LatitudeDegrees>39.56023679114878177642822265625</LatitudeDegrees>
              <LongitudeDegrees>-0.72818529792129993438720703125</LongitudeDegrees>
            </Position>
            <AltitudeMeters>226</AltitudeMeters>
            <DistanceMeters>48721.257294395</DistanceMeters>
          </Trackpoint>
          <Trackpoint>
            <Time>2021-10-09T09:10:47.000Z</Time>
            <Position>
              <LatitudeDegrees>39.560151882469654083251953125</LatitudeDegrees>
              <LongitudeDegrees>-0.72810709476470947265625</LongitudeDegrees>
            </Position>
            <AltitudeMeters>226.8000030517578125</AltitudeMeters>
            <DistanceMeters>48732.84821659</DistanceMeters>
          </Trackpoint>
          <Trackpoint>
            <Time>2021-10-09T09:10:50.000Z</Time>
            <Position>
              <LatitudeDegrees>39.56002590246498584747314453125</LatitudeDegrees>
              <LongitudeDegrees>-0.7279765047132968902587890625</LongitudeDegrees>
            </Position>
            <AltitudeMeters>227.399993896484375</AltitudeMeters>
            <DistanceMeters>48750.797703977</DistanceMeters>
          </Trackpoint>
          <Trackpoint>
            <Time>2021-10-09T09:10:53.000Z</Time>
            <Position>
              <LatitudeDegrees>39.55990436486899852752685546875</LatitudeDegrees>
              <LongitudeDegrees>-0.7278507761657238006591796875</LongitudeDegrees>
            </Position>
            <AltitudeMeters>228.1999969482421875</AltitudeMeters>
            <DistanceMeters>48768.100396092</DistanceMeters>
          </Trackpoint>
          <Trackpoint>
            <Time>2021-10-09T09:10:56.000Z</Time>
            <Position>
              <LatitudeDegrees>39.55978685058653354644775390625</LatitudeDegrees>
              <LongitudeDegrees>-0.7277248799800872802734375</LongitudeDegrees>
            </Position>
            <AltitudeMeters>229</AltitudeMeters>
            <DistanceMeters>48785.06419508</DistanceMeters>
          </Trackpoint>
          <Trackpoint>
            <Time>2021-10-09T09:10:57.000Z</Time>
            <Position>
              <LatitudeDegrees>39.559746198356151580810546875</LatitudeDegrees>
              <LongitudeDegrees>-0.72768523357808589935302734375</LongitudeDegrees>
            </Position>
            <AltitudeMeters>229.399993896484375</AltitudeMeters>
            <DistanceMeters>48790.724469917</DistanceMeters>
          </Trackpoint>
          <Trackpoint>
            <Time>2021-10-09T09:10:59.000Z</Time>
            <Position>
              <LatitudeDegrees>39.5596632175147533416748046875</LatitudeDegrees>
              <LongitudeDegrees>-0.72760174982249736785888671875</LongitudeDegrees>
            </Position>
            <AltitudeMeters>230.399993896484375</AltitudeMeters>
            <DistanceMeters>48802.413142065</DistanceMeters>
          </Trackpoint>
          <Trackpoint>
            <Time>2021-10-09T09:11:00.000Z</Time>
            <Position>
              <LatitudeDegrees>39.55961845815181732177734375</LatitudeDegrees>
              <LongitudeDegrees>-0.72756889276206493377685546875</LongitudeDegrees>
            </Position>
            <AltitudeMeters>230.8000030517578125</AltitudeMeters>
            <DistanceMeters>48808.137663654</DistanceMeters>
          </Trackpoint>
          <Trackpoint>
            <Time>2021-10-09T09:11:02.000Z</Time>
            <Position>
              <LatitudeDegrees>39.5595227368175983428955078125</LatitudeDegrees>
              <LongitudeDegrees>-0.7275225408375263214111328125</LongitudeDegrees>
            </Position>
            <AltitudeMeters>231.1999969482421875</AltitudeMeters>
            <DistanceMeters>48819.50994376</DistanceMeters>
          </Trackpoint>
          <Trackpoint>
            <Time>2021-10-09T09:11:03.000Z</Time>
            <Position>
              <LatitudeDegrees>39.55947319976985454559326171875</LatitudeDegrees>
              <LongitudeDegrees>-0.72751223109662532806396484375</LongitudeDegrees>
            </Position>
            <AltitudeMeters>231.399993896484375</AltitudeMeters>
            <DistanceMeters>48825.094734181</DistanceMeters>
          </Trackpoint>
          <Trackpoint>
            <Time>2021-10-09T09:11:04.000Z</Time>
            <Position>
              <LatitudeDegrees>39.55942307598888874053955078125</LatitudeDegrees>
              <LongitudeDegrees>-0.7275104708969593048095703125</LongitudeDegrees>
            </Position>
            <AltitudeMeters>231.600006103515625</AltitudeMeters>
            <DistanceMeters>48830.674671777</DistanceMeters>
          </Trackpoint>
          <Trackpoint>
            <Time>2021-10-09T09:11:05.000Z</Time>
            <Position>
              <LatitudeDegrees>39.55937379039824008941650390625</LatitudeDegrees>
              <LongitudeDegrees>-0.727513320744037628173828125</LongitudeDegrees>
            </Position>
            <AltitudeMeters>231.8000030517578125</AltitudeMeters>
            <DistanceMeters>48836.166525319</DistanceMeters>
          </Trackpoint>
          <Trackpoint>
            <Time>2021-10-09T09:11:09.000Z</Time>
            <Position>
              <LatitudeDegrees>39.55918989144265651702880859375</LatitudeDegrees>
              <LongitudeDegrees>-0.72753687389194965362548828125</LongitudeDegrees>
            </Position>
            <AltitudeMeters>232.8000030517578125</AltitudeMeters>
            <DistanceMeters>48856.734486356</DistanceMeters>
          </Trackpoint>
          <Trackpoint>
            <Time>2021-10-09T09:11:10.000Z</Time>
            <Position>
              <LatitudeDegrees>39.5591452158987522125244140625</LatitudeDegrees>
              <LongitudeDegrees>-0.72754475288093090057373046875</LongitudeDegrees>
            </Position>
            <AltitudeMeters>233</AltitudeMeters>
            <DistanceMeters>48861.753840227</DistanceMeters>
          </Trackpoint>
          <Trackpoint>
            <Time>2021-10-09T09:11:15.000Z</Time>
            <Position>
              <LatitudeDegrees>39.55890172161161899566650390625</LatitudeDegrees>
              <LongitudeDegrees>-0.7275775261223316192626953125</LongitudeDegrees>
            </Position>
            <AltitudeMeters>234.1999969482421875</AltitudeMeters>
            <DistanceMeters>48889.000834644</DistanceMeters>
          </Trackpoint>
          <Trackpoint>
            <Time>2021-10-09T09:11:18.000Z</Time>
            <Position>
              <LatitudeDegrees>39.5587633363902568817138671875</LatitudeDegrees>
              <LongitudeDegrees>-0.72759169153869152069091796875</LongitudeDegrees>
            </Position>
            <AltitudeMeters>235.600006103515625</AltitudeMeters>
            <DistanceMeters>48904.451079652</DistanceMeters>
          </Trackpoint>
          <Trackpoint>
            <Time>2021-10-09T09:11:21.000Z</Time>
            <Position>
              <LatitudeDegrees>39.5586265437304973602294921875</LatitudeDegrees>
              <LongitudeDegrees>-0.72761516086757183074951171875</LongitudeDegrees>
            </Position>
            <AltitudeMeters>236.8000030517578125</AltitudeMeters>
            <DistanceMeters>48919.80899607</DistanceMeters>
          </Trackpoint>
          <Trackpoint>
            <Time>2021-10-09T09:11:23.000Z</Time>
            <Position>
              <LatitudeDegrees>39.55854021012783050537109375</LatitudeDegrees>
              <LongitudeDegrees>-0.72763946838676929473876953125</LongitudeDegrees>
            </Position>
            <AltitudeMeters>237</AltitudeMeters>
            <DistanceMeters>48929.641850614</DistanceMeters>
          </Trackpoint>
          <Trackpoint>
            <Time>2021-10-09T09:11:24.000Z</Time>
            <Position>
              <LatitudeDegrees>39.55849905498325824737548828125</LatitudeDegrees>
              <LongitudeDegrees>-0.72766142897307872772216796875</LongitudeDegrees>
            </Position>
            <AltitudeMeters>237.1999969482421875</AltitudeMeters>
            <DistanceMeters>48934.594192244</DistanceMeters>
          </Trackpoint>
          <Trackpoint>
            <Time>2021-10-09T09:11:25.000Z</Time>
            <Position>
              <LatitudeDegrees>39.55845764838159084320068359375</LatitudeDegrees>
              <LongitudeDegrees>-0.72768531739711761474609375</LongitudeDegrees>
            </Position>
            <AltitudeMeters>237.399993896484375</AltitudeMeters>
            <DistanceMeters>48939.63687955</DistanceMeters>
          </Trackpoint>
          <Trackpoint>
            <Time>2021-10-09T09:11:27.000Z</Time>
            <Position>
              <LatitudeDegrees>39.55838690511882305145263671875</LatitudeDegrees>
              <LongitudeDegrees>-0.7277170009911060333251953125</LongitudeDegrees>
            </Position>
            <AltitudeMeters>237.600006103515625</AltitudeMeters>
            <DistanceMeters>48947.96677195</DistanceMeters>
          </Trackpoint>
          <Trackpoint>
            <Time>2021-10-09T09:11:29.000Z</Time>
            <Position>
              <LatitudeDegrees>39.5583061873912811279296875</LatitudeDegrees>
              <LongitudeDegrees>-0.7277662865817546844482421875</LongitudeDegrees>
            </Position>
            <AltitudeMeters>238</AltitudeMeters>
            <DistanceMeters>48957.896949933</DistanceMeters>
          </Trackpoint>
          <Trackpoint>
            <Time>2021-10-09T09:11:30.000Z</Time>
            <Position>
              <LatitudeDegrees>39.5582634396851062774658203125</LatitudeDegrees>
              <LongitudeDegrees>-0.7277946174144744873046875</LongitudeDegrees>
            </Position>
            <AltitudeMeters>238.1999969482421875</AltitudeMeters>
            <DistanceMeters>48963.239615152</DistanceMeters>
          </Trackpoint>
          <Trackpoint>
            <Time>2021-10-09T09:11:34.000Z</Time>
            <Position>
              <LatitudeDegrees>39.558096639811992645263671875</LatitudeDegrees>
              <LongitudeDegrees>-0.727900564670562744140625</LongitudeDegrees>
            </Position>
            <AltitudeMeters>239</AltitudeMeters>
            <DistanceMeters>48983.911365863</DistanceMeters>
          </Trackpoint>
          <Trackpoint>
            <Time>2021-10-09T09:11:35.000Z</Time>
            <Position>
              <LatitudeDegrees>39.55805481411516666412353515625</LatitudeDegrees>
              <LongitudeDegrees>-0.727924369275569915771484375</LongitudeDegrees>
            </Position>
            <AltitudeMeters>239.399993896484375</AltitudeMeters>
            <DistanceMeters>48988.995073052</DistanceMeters>
          </Trackpoint>
          <Trackpoint>
            <Time>2021-10-09T09:11:38.000Z</Time>
            <Position>
              <LatitudeDegrees>39.55791701562702655792236328125</LatitudeDegrees>
              <LongitudeDegrees>-0.72800491936504840850830078125</LongitudeDegrees>
            </Position>
            <AltitudeMeters>240.1999969482421875</AltitudeMeters>
            <DistanceMeters>49005.818022432</DistanceMeters>
          </Trackpoint>
          <Trackpoint>
            <Time>2021-10-09T09:11:42.000Z</Time>
            <Position>
              <LatitudeDegrees>39.55774283967912197113037109375</LatitudeDegrees>
              <LongitudeDegrees>-0.72811606340110301971435546875</LongitudeDegrees>
            </Position>
            <AltitudeMeters>241</AltitudeMeters>
            <DistanceMeters>49027.423177177</DistanceMeters>
          </Trackpoint>
          <Trackpoint>
            <Time>2021-10-09T09:11:43.000Z</Time>
            <Position>
              <LatitudeDegrees>39.5576971583068370819091796875</LatitudeDegrees>
              <LongitudeDegrees>-0.7281444780528545379638671875</LongitudeDegrees>
            </Position>
            <AltitudeMeters>241.1999969482421875</AltitudeMeters>
            <DistanceMeters>49033.062674427</DistanceMeters>
          </Trackpoint>
          <Trackpoint>
            <Time>2021-10-09T09:11:48.000Z</Time>
            <Position>
              <LatitudeDegrees>39.5574815757572650909423828125</LatitudeDegrees>
              <LongitudeDegrees>-0.72826995514333248138427734375</LongitudeDegrees>
            </Position>
            <AltitudeMeters>242.1999969482421875</AltitudeMeters>
            <DistanceMeters>49059.362594492</DistanceMeters>
          </Trackpoint>
          <Trackpoint>
            <Time>2021-10-09T09:11:51.000Z</Time>
            <Position>
              <LatitudeDegrees>39.5573484711349010467529296875</LatitudeDegrees>
              <LongitudeDegrees>-0.728324018418788909912109375</LongitudeDegrees>
            </Position>
            <AltitudeMeters>242.8000030517578125</AltitudeMeters>
            <DistanceMeters>49074.88717952</DistanceMeters>
          </Trackpoint>
          <Trackpoint>
            <Time>2021-10-09T09:11:53.000Z</Time>
            <Position>
              <LatitudeDegrees>39.5572669990360736846923828125</LatitudeDegrees>
              <LongitudeDegrees>-0.7283453084528446197509765625</LongitudeDegrees>
            </Position>
            <AltitudeMeters>243.399993896484375</AltitudeMeters>
            <DistanceMeters>49084.137042995</DistanceMeters>
          </Trackpoint>
          <Trackpoint>
            <Time>2021-10-09T09:11:58.000Z</Time>
            <Position>
              <LatitudeDegrees>39.5570701919496059417724609375</LatitudeDegrees>
              <LongitudeDegrees>-0.7283905707299709320068359375</LongitudeDegrees>
            </Position>
            <AltitudeMeters>244.600006103515625</AltitudeMeters>
            <DistanceMeters>49106.383850176</DistanceMeters>
          </Trackpoint>
          <Trackpoint>
            <Time>2021-10-09T09:12:02.000Z</Time>
            <Position>
              <LatitudeDegrees>39.556926190853118896484375</LatitudeDegrees>
              <LongitudeDegrees>-0.7284053228795528411865234375</LongitudeDegrees>
            </Position>
            <AltitudeMeters>245.600006103515625</AltitudeMeters>
            <DistanceMeters>49122.461628887</DistanceMeters>
          </Trackpoint>
          <Trackpoint>
            <Time>2021-10-09T09:12:03.000Z</Time>
            <Position>
              <LatitudeDegrees>39.55688503570854663848876953125</LatitudeDegrees>
              <LongitudeDegrees>-0.72841714136302471160888671875</LongitudeDegrees>
            </Position>
            <AltitudeMeters>245.8000030517578125</AltitudeMeters>
            <DistanceMeters>49127.153678159</DistanceMeters>
          </Trackpoint>
          <Trackpoint>
            <Time>2021-10-09T09:12:05.000Z</Time>
            <Position>
              <LatitudeDegrees>39.5568013004958629608154296875</LatitudeDegrees>
              <LongitudeDegrees>-0.7284358330070972442626953125</LongitudeDegrees>
            </Position>
            <AltitudeMeters>246.600006103515625</AltitudeMeters>
            <DistanceMeters>49136.610626774</DistanceMeters>
          </Trackpoint>
          <Trackpoint>
            <Time>2021-10-09T09:12:06.000Z</Time>
            <Position>
              <LatitudeDegrees>39.55675478093326091766357421875</LatitudeDegrees>
              <LongitudeDegrees>-0.72844396345317363739013671875</LongitudeDegrees>
            </Position>
            <AltitudeMeters>247</AltitudeMeters>
            <DistanceMeters>49141.834503784</DistanceMeters>
          </Trackpoint>
          <Trackpoint>
            <Time>2021-10-09T09:12:09.000Z</Time>
            <Position>
              <LatitudeDegrees>39.55661077983677387237548828125</LatitudeDegrees>
              <LongitudeDegrees>-0.72847547940909862518310546875</LongitudeDegrees>
            </Position>
            <AltitudeMeters>247.8000030517578125</AltitudeMeters>
            <DistanceMeters>49158.088517027</DistanceMeters>
          </Trackpoint>
          <Trackpoint>
            <Time>2021-10-09T09:12:10.000Z</Time>
            <Position>
              <LatitudeDegrees>39.5565654337406158447265625</LatitudeDegrees>
              <LongitudeDegrees>-0.72848537005484104156494140625</LongitudeDegrees>
            </Position>
            <AltitudeMeters>248</AltitudeMeters>
            <DistanceMeters>49163.205862207</DistanceMeters>
          </Trackpoint>
          <Trackpoint>
            <Time>2021-10-09T09:12:14.000Z</Time>
            <Position>
              <LatitudeDegrees>39.556377343833446502685546875</LatitudeDegrees>
              <LongitudeDegrees>-0.7285317219793796539306640625</LongitudeDegrees>
            </Position>
            <AltitudeMeters>249</AltitudeMeters>
            <DistanceMeters>49184.514742138</DistanceMeters>
          </Trackpoint>
          <Trackpoint>
            <Time>2021-10-09T09:12:16.000Z</Time>
            <Position>
              <LatitudeDegrees>39.55628019757568836212158203125</LatitudeDegrees>
              <LongitudeDegrees>-0.72855024598538875579833984375</LongitudeDegrees>
            </Position>
            <AltitudeMeters>249.399993896484375</AltitudeMeters>
            <DistanceMeters>49195.443227442</DistanceMeters>
          </Trackpoint>
          <Trackpoint>
            <Time>2021-10-09T09:12:18.000Z</Time>
            <Position>
              <LatitudeDegrees>39.5561756752431392669677734375</LatitudeDegrees>
              <LongitudeDegrees>-0.728572122752666473388671875</LongitudeDegrees>
            </Position>
            <AltitudeMeters>250</AltitudeMeters>
            <DistanceMeters>49207.227689485</DistanceMeters>
          </Trackpoint>
          <Trackpoint>
            <Time>2021-10-09T09:12:23.000Z</Time>
            <Position>
              <LatitudeDegrees>39.555902592837810516357421875</LatitudeDegrees>
              <LongitudeDegrees>-0.72863372974097728729248046875</LongitudeDegrees>
            </Position>
            <AltitudeMeters>250.600006103515625</AltitudeMeters>
            <DistanceMeters>49238.078606607</DistanceMeters>
          </Trackpoint>
          <Trackpoint>
            <Time>2021-10-09T09:12:32.000Z</Time>
            <Position>
              <LatitudeDegrees>39.55537746660411357879638671875</LatitudeDegrees>
              <LongitudeDegrees>-0.728747136890888214111328125</LongitudeDegrees>
            </Position>
            <AltitudeMeters>250.600006103515625</AltitudeMeters>
            <DistanceMeters>49297.330792059</DistanceMeters>
          </Trackpoint>
          <Trackpoint>
            <Time>2021-10-09T09:12:33.000Z</Time>
            <Position>
              <LatitudeDegrees>39.5553180389106273651123046875</LatitudeDegrees>
              <LongitudeDegrees>-0.72875954210758209228515625</LongitudeDegrees>
            </Position>
            <AltitudeMeters>250.8000030517578125</AltitudeMeters>
            <DistanceMeters>49304.030006932</DistanceMeters>
          </Trackpoint>
          <Trackpoint>
            <Time>2021-10-09T09:12:37.000Z</Time>
            <Position>
              <LatitudeDegrees>39.55509449355304241180419921875</LatitudeDegrees>
              <LongitudeDegrees>-0.72880245745182037353515625</LongitudeDegrees>
            </Position>
            <AltitudeMeters>251.1999969482421875</AltitudeMeters>
            <DistanceMeters>49329.182126038</DistanceMeters>
          </Trackpoint>
          <Trackpoint>
            <Time>2021-10-09T09:12:42.000Z</Time>
            <Position>
              <LatitudeDegrees>39.554807245731353759765625</LatitudeDegrees>
              <LongitudeDegrees>-0.72885920293629169464111328125</LongitudeDegrees>
            </Position>
            <AltitudeMeters>251.600006103515625</AltitudeMeters>
            <DistanceMeters>49361.522217471</DistanceMeters>
          </Trackpoint>
          <Trackpoint>
            <Time>2021-10-09T09:12:48.000Z</Time>
            <Position>
              <LatitudeDegrees>39.55446459352970123291015625</LatitudeDegrees>
              <LongitudeDegrees>-0.72893849574029445648193359375</LongitudeDegrees>
            </Position>
            <AltitudeMeters>252.1999969482421875</AltitudeMeters>
            <DistanceMeters>49400.262360798</DistanceMeters>
          </Trackpoint>
          <Trackpoint>
            <Time>2021-10-09T09:12:53.000Z</Time>
            <Position>
              <LatitudeDegrees>39.554160498082637786865234375</LatitudeDegrees>
              <LongitudeDegrees>-0.7289873622357845306396484375</LongitudeDegrees>
            </Position>
            <AltitudeMeters>252.8000030517578125</AltitudeMeters>
            <DistanceMeters>49434.36755317</DistanceMeters>
          </Trackpoint>
          <Trackpoint>
            <Time>2021-10-09T09:12:57.000Z</Time>
            <Position>
              <LatitudeDegrees>39.55394181422889232635498046875</LatitudeDegrees>
              <LongitudeDegrees>-0.72894637472927570343017578125</LongitudeDegrees>
            </Position>
            <AltitudeMeters>253.1999969482421875</AltitudeMeters>
            <DistanceMeters>49458.960202477</DistanceMeters>
          </Trackpoint>
          <Trackpoint>
            <Time>2021-10-09T09:12:59.000Z</Time>
            <Position>
              <LatitudeDegrees>39.55382488667964935302734375</LatitudeDegrees>
              <LongitudeDegrees>-0.72890731506049633026123046875</LongitudeDegrees>
            </Position>
            <AltitudeMeters>253.399993896484375</AltitudeMeters>
            <DistanceMeters>49472.399009302</DistanceMeters>
          </Trackpoint>
          <Trackpoint>
            <Time>2021-10-09T09:13:03.000Z</Time>
            <Position>
              <LatitudeDegrees>39.5535908639430999755859375</LatitudeDegrees>
              <LongitudeDegrees>-0.72881829924881458282470703125</LongitudeDegrees>
            </Position>
            <AltitudeMeters>253.600006103515625</AltitudeMeters>
            <DistanceMeters>49499.543403153</DistanceMeters>
          </Trackpoint>
          <Trackpoint>
            <Time>2021-10-09T09:13:08.000Z</Time>
            <Position>
              <LatitudeDegrees>39.55328903160989284515380859375</LatitudeDegrees>
              <LongitudeDegrees>-0.7287104241549968719482421875</LongitudeDegrees>
            </Position>
            <AltitudeMeters>253.399993896484375</AltitudeMeters>
            <DistanceMeters>49534.390361409</DistanceMeters>
          </Trackpoint>
          <Trackpoint>
            <Time>2021-10-09T09:13:10.000Z</Time>
            <Position>
              <LatitudeDegrees>39.55316564999520778656005859375</LatitudeDegrees>
              <LongitudeDegrees>-0.7286621443927288055419921875</LongitudeDegrees>
            </Position>
            <AltitudeMeters>253.399993896484375</AltitudeMeters>
            <DistanceMeters>49548.734674632</DistanceMeters>
          </Trackpoint>
          <Trackpoint>
            <Time>2021-10-09T09:13:16.000Z</Time>
            <Position>
              <LatitudeDegrees>39.552863650023937225341796875</LatitudeDegrees>
              <LongitudeDegrees>-0.7285561971366405487060546875</LongitudeDegrees>
            </Position>
            <AltitudeMeters>254</AltitudeMeters>
            <DistanceMeters>49583.555969045</DistanceMeters>
          </Trackpoint>
          <Trackpoint>
            <Time>2021-10-09T09:13:17.000Z</Time>
            <Position>
              <LatitudeDegrees>39.5528141967952251434326171875</LatitudeDegrees>
              <LongitudeDegrees>-0.72853918187320232391357421875</LongitudeDegrees>
            </Position>
            <AltitudeMeters>254.399993896484375</AltitudeMeters>
            <DistanceMeters>49589.250440444</DistanceMeters>
          </Trackpoint>
          <Trackpoint>
            <Time>2021-10-09T09:13:20.000Z</Time>
            <Position>
              <LatitudeDegrees>39.55266558565199375152587890625</LatitudeDegrees>
              <LongitudeDegrees>-0.7284893095493316650390625</LongitudeDegrees>
            </Position>
            <AltitudeMeters>255.1999969482421875</AltitudeMeters>
            <DistanceMeters>49606.335704596</DistanceMeters>
          </Trackpoint>
          <Trackpoint>
            <Time>2021-10-09T09:13:22.000Z</Time>
            <Position>
              <LatitudeDegrees>39.552564583718776702880859375</LatitudeDegrees>
              <LongitudeDegrees>-0.728453099727630615234375</LongitudeDegrees>
            </Position>
            <AltitudeMeters>255.8000030517578125</AltitudeMeters>
            <DistanceMeters>49617.998854751</DistanceMeters>
          </Trackpoint>
          <Trackpoint>
            <Time>2021-10-09T09:13:24.000Z</Time>
            <Position>
              <LatitudeDegrees>39.5524584688246250152587890625</LatitudeDegrees>
              <LongitudeDegrees>-0.72841781191527843475341796875</LongitudeDegrees>
            </Position>
            <AltitudeMeters>256.399993896484375</AltitudeMeters>
            <DistanceMeters>49630.191193264</DistanceMeters>
          </Trackpoint>
          <Trackpoint>
            <Time>2021-10-09T09:13:27.000Z</Time>
            <Position>
              <LatitudeDegrees>39.5522940158843994140625</LatitudeDegrees>
              <LongitudeDegrees>-0.7283573783934116363525390625</LongitudeDegrees>
            </Position>
            <AltitudeMeters>257.20001220703125</AltitudeMeters>
            <DistanceMeters>49649.215531988</DistanceMeters>
          </Trackpoint>
          <Trackpoint>
            <Time>2021-10-09T09:13:28.000Z</Time>
            <Position>
              <LatitudeDegrees>39.55223576165735721588134765625</LatitudeDegrees>
              <LongitudeDegrees>-0.7283386029303073883056640625</LongitudeDegrees>
            </Position>
            <AltitudeMeters>257.399993896484375</AltitudeMeters>
            <DistanceMeters>49655.896525018</DistanceMeters>
          </Trackpoint>
          <Trackpoint>
            <Time>2021-10-09T09:13:32.000Z</Time>
            <Position>
              <LatitudeDegrees>39.55199972726404666900634765625</LatitudeDegrees>
              <LongitudeDegrees>-0.728278420865535736083984375</LongitudeDegrees>
            </Position>
            <AltitudeMeters>258.399993896484375</AltitudeMeters>
            <DistanceMeters>49682.670459888</DistanceMeters>
          </Trackpoint>
          <Trackpoint>
            <Time>2021-10-09T09:13:33.000Z</Time>
            <Position>
              <LatitudeDegrees>39.55194105394184589385986328125</LatitudeDegrees>
              <LongitudeDegrees>-0.72827381081879138946533203125</LongitudeDegrees>
            </Position>
            <AltitudeMeters>258.600006103515625</AltitudeMeters>
            <DistanceMeters>49689.212826611</DistanceMeters>
          </Trackpoint>
          <Trackpoint>
            <Time>2021-10-09T09:13:34.000Z</Time>
            <Position>
              <LatitudeDegrees>39.55188204534351825714111328125</LatitudeDegrees>
              <LongitudeDegrees>-0.72827498428523540496826171875</LongitudeDegrees>
            </Position>
            <AltitudeMeters>258.600006103515625</AltitudeMeters>
            <DistanceMeters>49695.781365661</DistanceMeters>
          </Trackpoint>
          <Trackpoint>
            <Time>2021-10-09T09:13:41.000Z</Time>
            <Position>
              <LatitudeDegrees>39.55141760408878326416015625</LatitudeDegrees>
              <LongitudeDegrees>-0.7283261977136135101318359375</LongitudeDegrees>
            </Position>
            <AltitudeMeters>258.600006103515625</AltitudeMeters>
            <DistanceMeters>49747.661078314</DistanceMeters>
          </Trackpoint>
          <Trackpoint>
            <Time>2021-10-09T09:13:43.000Z</Time>
            <Position>
              <LatitudeDegrees>39.5512752793729305267333984375</LatitudeDegrees>
              <LongitudeDegrees>-0.72834539227187633514404296875</LongitudeDegrees>
            </Position>
            <AltitudeMeters>258.399993896484375</AltitudeMeters>
            <DistanceMeters>49763.58762368</DistanceMeters>
          </Trackpoint>
          <Trackpoint>
            <Time>2021-10-09T09:13:47.000Z</Time>
            <Position>
              <LatitudeDegrees>39.55099473707377910614013671875</LatitudeDegrees>
              <LongitudeDegrees>-0.72837598621845245361328125</LongitudeDegrees>
            </Position>
            <AltitudeMeters>257.79998779296875</AltitudeMeters>
            <DistanceMeters>49794.922817827</DistanceMeters>
          </Trackpoint>
          <Trackpoint>
            <Time>2021-10-09T09:13:48.000Z</Time>
            <Position>
              <LatitudeDegrees>39.5509262569248676300048828125</LatitudeDegrees>
              <LongitudeDegrees>-0.72838344611227512359619140625</LongitudeDegrees>
            </Position>
            <AltitudeMeters>257.79998779296875</AltitudeMeters>
            <DistanceMeters>49802.571140205</DistanceMeters>
          </Trackpoint>
          <Trackpoint>
            <Time>2021-10-09T09:13:50.000Z</Time>
            <Position>
              <LatitudeDegrees>39.55078971572220325469970703125</LatitudeDegrees>
              <LongitudeDegrees>-0.72840146720409393310546875</LongitudeDegrees>
            </Position>
            <AltitudeMeters>257.600006103515625</AltitudeMeters>
            <DistanceMeters>49817.84710942</DistanceMeters>
          </Trackpoint>
          <Trackpoint>
            <Time>2021-10-09T09:13:52.000Z</Time>
            <Position>
              <LatitudeDegrees>39.55065728165209293365478515625</LatitudeDegrees>
              <LongitudeDegrees>-0.72842703200876712799072265625</LongitudeDegrees>
            </Position>
            <AltitudeMeters>257.399993896484375</AltitudeMeters>
            <DistanceMeters>49832.749649474</DistanceMeters>
          </Trackpoint>
          <Trackpoint>
            <Time>2021-10-09T09:13:54.000Z</Time>
            <Position>
              <LatitudeDegrees>39.550530128180980682373046875</LatitudeDegrees>
              <LongitudeDegrees>-0.72849660180509090423583984375</LongitudeDegrees>
            </Position>
            <AltitudeMeters>257.399993896484375</AltitudeMeters>
            <DistanceMeters>49848.109917614</DistanceMeters>
          </Trackpoint>
          <Trackpoint>
            <Time>2021-10-09T09:13:56.000Z</Time>
            <Position>
              <LatitudeDegrees>39.55044932663440704345703125</LatitudeDegrees>
              <LongitudeDegrees>-0.72858897037804126739501953125</LongitudeDegrees>
            </Position>
            <AltitudeMeters>257.600006103515625</AltitudeMeters>
            <DistanceMeters>49860.097981119</DistanceMeters>
          </Trackpoint>
          <Trackpoint>
            <Time>2021-10-09T09:13:58.000Z</Time>
            <Position>
              <LatitudeDegrees>39.55038235522806644439697265625</LatitudeDegrees>
              <LongitudeDegrees>-0.7287146151065826416015625</LongitudeDegrees>
            </Position>
            <AltitudeMeters>257.79998779296875</AltitudeMeters>
            <DistanceMeters>49873.20650219</DistanceMeters>
          </Trackpoint>
          <Trackpoint>
            <Time>2021-10-09T09:14:02.000Z</Time>
            <Position>
              <LatitudeDegrees>39.55027389340102672576904296875</LatitudeDegrees>
              <LongitudeDegrees>-0.72894520126283168792724609375</LongitudeDegrees>
            </Position>
            <AltitudeMeters>258.79998779296875</AltitudeMeters>
            <DistanceMeters>49896.387177954</DistanceMeters>
          </Trackpoint>
          <Trackpoint>
            <Time>2021-10-09T09:14:04.000Z</Time>
            <Position>
              <LatitudeDegrees>39.55022041685879230499267578125</LatitudeDegrees>
              <LongitudeDegrees>-0.72905668057501316070556640625</LongitudeDegrees>
            </Position>
            <AltitudeMeters>259.600006103515625</AltitudeMeters>
            <DistanceMeters>49907.654958339</DistanceMeters>
          </Trackpoint>
          <Trackpoint>
            <Time>2021-10-09T09:14:05.000Z</Time>
            <Position>
              <LatitudeDegrees>39.5502034015953540802001953125</LatitudeDegrees>
              <LongitudeDegrees>-0.72909641079604625701904296875</LongitudeDegrees>
            </Position>
            <AltitudeMeters>259.79998779296875</AltitudeMeters>
            <DistanceMeters>49911.554528665</DistanceMeters>
          </Trackpoint>
          <Trackpoint>
            <Time>2021-10-09T09:14:09.000Z</Time>
            <Position>
              <LatitudeDegrees>39.55011731944978237152099609375</LatitudeDegrees>
              <LongitudeDegrees>-0.72928802110254764556884765625</LongitudeDegrees>
            </Position>
            <AltitudeMeters>261</AltitudeMeters>
            <DistanceMeters>49930.58646042</DistanceMeters>
          </Trackpoint>
          <Trackpoint>
            <Time>2021-10-09T09:14:10.000Z</Time>
            <Position>
              <LatitudeDegrees>39.55009854398667812347412109375</LatitudeDegrees>
              <LongitudeDegrees>-0.7293303497135639190673828125</LongitudeDegrees>
            </Position>
            <AltitudeMeters>261.399993896484375</AltitudeMeters>
            <DistanceMeters>49934.776265739</DistanceMeters>
          </Trackpoint>
          <Trackpoint>
            <Time>2021-10-09T09:14:12.000Z</Time>
            <Position>
              <LatitudeDegrees>39.5500555448234081268310546875</LatitudeDegrees>
              <LongitudeDegrees>-0.7294171862304210662841796875</LongitudeDegrees>
            </Position>
            <AltitudeMeters>262</AltitudeMeters>
            <DistanceMeters>49943.633142957</DistanceMeters>
          </Trackpoint>
          <Trackpoint>
            <Time>2021-10-09T09:14:13.000Z</Time>
            <Position>
              <LatitudeDegrees>39.5500267110764980316162109375</LatitudeDegrees>
              <LongitudeDegrees>-0.72946052066981792449951171875</LongitudeDegrees>
            </Position>
            <AltitudeMeters>262.399993896484375</AltitudeMeters>
            <DistanceMeters>49948.545206094</DistanceMeters>
          </Trackpoint>
          <Trackpoint>
            <Time>2021-10-09T09:14:15.000Z</Time>
            <Position>
              <LatitudeDegrees>39.549950771033763885498046875</LatitudeDegrees>
              <LongitudeDegrees>-0.72952087037265300750732421875</LongitudeDegrees>
            </Position>
            <AltitudeMeters>263</AltitudeMeters>
            <DistanceMeters>49958.458091237</DistanceMeters>
          </Trackpoint>
          <Trackpoint>
            <Time>2021-10-09T09:14:16.000Z</Time>
            <Position>
              <LatitudeDegrees>39.549905173480510711669921875</LatitudeDegrees>
              <LongitudeDegrees>-0.72953813709318637847900390625</LongitudeDegrees>
            </Position>
            <AltitudeMeters>263.20001220703125</AltitudeMeters>
            <DistanceMeters>49963.745540213</DistanceMeters>
          </Trackpoint>
          <Trackpoint>
            <Time>2021-10-09T09:14:17.000Z</Time>
            <Position>
              <LatitudeDegrees>39.5498590730130672454833984375</LatitudeDegrees>
              <LongitudeDegrees>-0.72954584844410419464111328125</LongitudeDegrees>
            </Position>
            <AltitudeMeters>264</AltitudeMeters>
            <DistanceMeters>49968.919917147</DistanceMeters>
          </Trackpoint>
          <Trackpoint>
            <Time>2021-10-09T09:14:18.000Z</Time>
            <Position>
              <LatitudeDegrees>39.5498143136501312255859375</LatitudeDegrees>
              <LongitudeDegrees>-0.7295459322631359100341796875</LongitudeDegrees>
            </Position>
            <AltitudeMeters>264.399993896484375</AltitudeMeters>
            <DistanceMeters>49973.902253963</DistanceMeters>
          </Trackpoint>
          <Trackpoint>
            <Time>2021-10-09T09:14:19.000Z</Time>
            <Position>
              <LatitudeDegrees>39.5497715659439563751220703125</LatitudeDegrees>
              <LongitudeDegrees>-0.729541070759296417236328125</LongitudeDegrees>
            </Position>
            <AltitudeMeters>264.600006103515625</AltitudeMeters>
            <DistanceMeters>49978.678232721</DistanceMeters>
          </Trackpoint>
          <Trackpoint>
            <Time>2021-10-09T09:14:24.000Z</Time>
            <Position>
              <LatitudeDegrees>39.54955304972827434539794921875</LatitudeDegrees>
              <LongitudeDegrees>-0.72949874214828014373779296875</LongitudeDegrees>
            </Position>
            <AltitudeMeters>265.600006103515625</AltitudeMeters>
            <DistanceMeters>50003.269229635</DistanceMeters>
          </Trackpoint>
          <Trackpoint>
            <Time>2021-10-09T09:14:26.000Z</Time>
            <Position>
              <LatitudeDegrees>39.54947694204747676849365234375</LatitudeDegrees>
              <LongitudeDegrees>-0.729485414922237396240234375</LongitudeDegrees>
            </Position>
            <AltitudeMeters>266</AltitudeMeters>
            <DistanceMeters>50011.817409475</DistanceMeters>
          </Trackpoint>
          <Trackpoint>
            <Time>2021-10-09T09:14:29.000Z</Time>
            <Position>
              <LatitudeDegrees>39.54934316687285900115966796875</LatitudeDegrees>
              <LongitudeDegrees>-0.729453898966312408447265625</LongitudeDegrees>
            </Position>
            <AltitudeMeters>266.600006103515625</AltitudeMeters>
            <DistanceMeters>50026.950245912</DistanceMeters>
          </Trackpoint>
          <Trackpoint>
            <Time>2021-10-09T09:14:33.000Z</Time>
            <Position>
              <LatitudeDegrees>39.5491935499012470245361328125</LatitudeDegrees>
              <LongitudeDegrees>-0.72941802442073822021484375</LongitudeDegrees>
            </Position>
            <AltitudeMeters>267.79998779296875</AltitudeMeters>
            <DistanceMeters>50043.885275521</DistanceMeters>
          </Trackpoint>
          <Trackpoint>
            <Time>2021-10-09T09:14:35.000Z</Time>
            <Position>
              <LatitudeDegrees>39.5491191186010837554931640625</LatitudeDegrees>
              <LongitudeDegrees>-0.729398913681507110595703125</LongitudeDegrees>
            </Position>
            <AltitudeMeters>268</AltitudeMeters>
            <DistanceMeters>50052.330365441</DistanceMeters>
          </Trackpoint>
          <Trackpoint>
            <Time>2021-10-09T09:14:38.000Z</Time>
            <Position>
              <LatitudeDegrees>39.54900068230926990509033203125</LatitudeDegrees>
              <LongitudeDegrees>-0.7293652184307575225830078125</LongitudeDegrees>
            </Position>
            <AltitudeMeters>269</AltitudeMeters>
            <DistanceMeters>50065.825831783</DistanceMeters>
          </Trackpoint>
          <Trackpoint>
            <Time>2021-10-09T09:14:42.000Z</Time>
            <Position>
              <LatitudeDegrees>39.54884159378707408905029296875</LatitudeDegrees>
              <LongitudeDegrees>-0.729333870112895965576171875</LongitudeDegrees>
            </Position>
            <AltitudeMeters>270.20001220703125</AltitudeMeters>
            <DistanceMeters>50083.735783638</DistanceMeters>
          </Trackpoint>
          <Trackpoint>
            <Time>2021-10-09T09:14:43.000Z</Time>
            <Position>
              <LatitudeDegrees>39.5487989298999309539794921875</LatitudeDegrees>
              <LongitudeDegrees>-0.7293261587619781494140625</LongitudeDegrees>
            </Position>
            <AltitudeMeters>270.20001220703125</AltitudeMeters>
            <DistanceMeters>50088.530632397</DistanceMeters>
          </Trackpoint>
          <Trackpoint>
            <Time>2021-10-09T09:14:46.000Z</Time>
            <Position>
              <LatitudeDegrees>39.5486799068748950958251953125</LatitudeDegrees>
              <LongitudeDegrees>-0.72930025868117809295654296875</LongitudeDegrees>
            </Position>
            <AltitudeMeters>271.20001220703125</AltitudeMeters>
            <DistanceMeters>50101.963390398</DistanceMeters>
          </Trackpoint>
          <Trackpoint>
            <Time>2021-10-09T09:14:50.000Z</Time>
            <Position>
              <LatitudeDegrees>39.5484918169677257537841796875</LatitudeDegrees>
              <LongitudeDegrees>-0.729258768260478973388671875</LongitudeDegrees>
            </Position>
            <AltitudeMeters>271.79998779296875</AltitudeMeters>
            <DistanceMeters>50123.198831469</DistanceMeters>
          </Trackpoint>
          <Trackpoint>
            <Time>2021-10-09T09:14:54.000Z</Time>
            <Position>
              <LatitudeDegrees>39.548294506967067718505859375</LatitudeDegrees>
              <LongitudeDegrees>-0.72921694256365299224853515625</LongitudeDegrees>
            </Position>
            <AltitudeMeters>272.20001220703125</AltitudeMeters>
            <DistanceMeters>50145.451320585</DistanceMeters>
          </Trackpoint>
          <Trackpoint>
            <Time>2021-10-09T09:14:58.000Z</Time>
            <Position>
              <LatitudeDegrees>39.54811538569629192352294921875</LatitudeDegrees>
              <LongitudeDegrees>-0.729174949228763580322265625</LongitudeDegrees>
            </Position>
            <AltitudeMeters>272.399993896484375</AltitudeMeters>
            <DistanceMeters>50165.710962603</DistanceMeters>
          </Trackpoint>
          <Trackpoint>
            <Time>2021-10-09T09:15:02.000Z</Time>
            <Position>
              <LatitudeDegrees>39.5479268766939640045166015625</LatitudeDegrees>
              <LongitudeDegrees>-0.72913630865514278411865234375</LongitudeDegrees>
            </Position>
            <AltitudeMeters>272.399993896484375</AltitudeMeters>
            <DistanceMeters>50186.952781257</DistanceMeters>
          </Trackpoint>
          <Trackpoint>
            <Time>2021-10-09T09:15:05.000Z</Time>
            <Position>
              <LatitudeDegrees>39.54778455197811126708984375</LatitudeDegrees>
              <LongitudeDegrees>-0.72911518625915050506591796875</LongitudeDegrees>
            </Position>
            <AltitudeMeters>272.79998779296875</AltitudeMeters>
            <DistanceMeters>50202.897176577</DistanceMeters>
          </Trackpoint>
          <Trackpoint>
            <Time>2021-10-09T09:15:07.000Z</Time>
            <Position>
              <LatitudeDegrees>39.54768924973905086517333984375</LatitudeDegrees>
              <LongitudeDegrees>-0.72912566363811492919921875</LongitudeDegrees>
            </Position>
            <AltitudeMeters>273</AltitudeMeters>
            <DistanceMeters>50213.542713641</DistanceMeters>
          </Trackpoint>
          <Trackpoint>
            <Time>2021-10-09T09:15:08.000Z</Time>
            <Position>
              <LatitudeDegrees>39.5476395450532436370849609375</LatitudeDegrees>
              <LongitudeDegrees>-0.7291424274444580078125</LongitudeDegrees>
            </Position>
            <AltitudeMeters>273.20001220703125</AltitudeMeters>
            <DistanceMeters>50219.258552737</DistanceMeters>
          </Trackpoint>
          <Trackpoint>
            <Time>2021-10-09T09:15:10.000Z</Time>
            <Position>
              <LatitudeDegrees>39.54754524864256381988525390625</LatitudeDegrees>
              <LongitudeDegrees>-0.7291813194751739501953125</LongitudeDegrees>
            </Position>
            <AltitudeMeters>273.399993896484375</AltitudeMeters>
            <DistanceMeters>50230.271816867</DistanceMeters>
          </Trackpoint>
          <Trackpoint>
            <Time>2021-10-09T09:15:16.000Z</Time>
            <Position>
              <LatitudeDegrees>39.547271244227886199951171875</LatitudeDegrees>
              <LongitudeDegrees>-0.729331187903881072998046875</LongitudeDegrees>
            </Position>
            <AltitudeMeters>274.20001220703125</AltitudeMeters>
            <DistanceMeters>50263.370591379</DistanceMeters>
          </Trackpoint>
          <Trackpoint>
            <Time>2021-10-09T09:15:17.000Z</Time>
            <Position>
              <LatitudeDegrees>39.54722338356077671051025390625</LatitudeDegrees>
              <LongitudeDegrees>-0.7293588481843471527099609375</LongitudeDegrees>
            </Position>
            <AltitudeMeters>274.399993896484375</AltitudeMeters>
            <DistanceMeters>50269.202166457</DistanceMeters>
          </Trackpoint>
          <Trackpoint>
            <Time>2021-10-09T09:15:24.000Z</Time>
            <Position>
              <LatitudeDegrees>39.5468799769878387451171875</LatitudeDegrees>
              <LongitudeDegrees>-0.72954031638801097869873046875</LongitudeDegrees>
            </Position>
            <AltitudeMeters>275.79998779296875</AltitudeMeters>
            <DistanceMeters>50310.475278051</DistanceMeters>
          </Trackpoint>
          <Trackpoint>
            <Time>2021-10-09T09:15:25.000Z</Time>
            <Position>
              <LatitudeDegrees>39.54683178104460239410400390625</LatitudeDegrees>
              <LongitudeDegrees>-0.729565210640430450439453125</LongitudeDegrees>
            </Position>
            <AltitudeMeters>275.79998779296875</AltitudeMeters>
            <DistanceMeters>50316.247710994</DistanceMeters>
          </Trackpoint>
          <Trackpoint>
            <Time>2021-10-09T09:15:32.000Z</Time>
            <Position>
              <LatitudeDegrees>39.54648577608168125152587890625</LatitudeDegrees>
              <LongitudeDegrees>-0.72974860668182373046875</LongitudeDegrees>
            </Position>
            <AltitudeMeters>276.79998779296875</AltitudeMeters>
            <DistanceMeters>50357.851183595</DistanceMeters>
          </Trackpoint>
          <Trackpoint>
            <Time>2021-10-09T09:15:33.000Z</Time>
            <Position>
              <LatitudeDegrees>39.5464352332055568695068359375</LatitudeDegrees>
              <LongitudeDegrees>-0.72977685369551181793212890625</LongitudeDegrees>
            </Position>
            <AltitudeMeters>276.79998779296875</AltitudeMeters>
            <DistanceMeters>50363.977275147</DistanceMeters>
          </Trackpoint>
          <Trackpoint>
            <Time>2021-10-09T09:15:35.000Z</Time>
            <Position>
              <LatitudeDegrees>39.54633657820522785186767578125</LatitudeDegrees>
              <LongitudeDegrees>-0.7298396341502666473388671875</LongitudeDegrees>
            </Position>
            <AltitudeMeters>277</AltitudeMeters>
            <DistanceMeters>50376.208804345</DistanceMeters>
          </Trackpoint>
          <Trackpoint>
            <Time>2021-10-09T09:15:39.000Z</Time>
            <Position>
              <LatitudeDegrees>39.54614060930907726287841796875</LatitudeDegrees>
              <LongitudeDegrees>-0.73001724667847156524658203125</LongitudeDegrees>
            </Position>
            <AltitudeMeters>277.20001220703125</AltitudeMeters>
            <DistanceMeters>50402.819338624</DistanceMeters>
          </Trackpoint>
          <Trackpoint>
            <Time>2021-10-09T09:15:44.000Z</Time>
            <Position>
              <LatitudeDegrees>39.5458642579615116119384765625</LatitudeDegrees>
              <LongitudeDegrees>-0.73028731159865856170654296875</LongitudeDegrees>
            </Position>
            <AltitudeMeters>277.20001220703125</AltitudeMeters>
            <DistanceMeters>50441.333420946</DistanceMeters>
          </Trackpoint>
          <Trackpoint>
            <Time>2021-10-09T09:15:45.000Z</Time>
            <Position>
              <LatitudeDegrees>39.54579980112612247467041015625</LatitudeDegrees>
              <LongitudeDegrees>-0.73033089749515056610107421875</LongitudeDegrees>
            </Position>
            <AltitudeMeters>277.20001220703125</AltitudeMeters>
            <DistanceMeters>50449.424654117</DistanceMeters>
          </Trackpoint>
          <Trackpoint>
            <Time>2021-10-09T09:15:46.000Z</Time>
            <Position>
              <LatitudeDegrees>39.54572595655918121337890625</LatitudeDegrees>
              <LongitudeDegrees>-0.7303566299378871917724609375</LongitudeDegrees>
            </Position>
            <AltitudeMeters>277.20001220703125</AltitudeMeters>
            <DistanceMeters>50457.935250051</DistanceMeters>
          </Trackpoint>
          <Trackpoint>
            <Time>2021-10-09T09:15:48.000Z</Time>
            <Position>
              <LatitudeDegrees>39.54556309618055820465087890625</LatitudeDegrees>
              <LongitudeDegrees>-0.730340369045734405517578125</LongitudeDegrees>
            </Position>
            <AltitudeMeters>277</AltitudeMeters>
            <DistanceMeters>50476.115676011</DistanceMeters>
          </Trackpoint>
          <Trackpoint>
            <Time>2021-10-09T09:15:51.000Z</Time>
            <Position>
              <LatitudeDegrees>39.5453335158526897430419921875</LatitudeDegrees>
              <LongitudeDegrees>-0.7302490063011646270751953125</LongitudeDegrees>
            </Position>
            <AltitudeMeters>276.399993896484375</AltitudeMeters>
            <DistanceMeters>50502.844378335</DistanceMeters>
          </Trackpoint>
          <Trackpoint>
            <Time>2021-10-09T09:15:53.000Z</Time>
            <Position>
              <LatitudeDegrees>39.54519311897456645965576171875</LatitudeDegrees>
              <LongitudeDegrees>-0.7301910035312175750732421875</LongitudeDegrees>
            </Position>
            <AltitudeMeters>276</AltitudeMeters>
            <DistanceMeters>50519.244403545</DistanceMeters>
          </Trackpoint>
          <Trackpoint>
            <Time>2021-10-09T09:15:59.000Z</Time>
            <Position>
              <LatitudeDegrees>39.5448285900056362152099609375</LatitudeDegrees>
              <LongitudeDegrees>-0.73004457168281078338623046875</LongitudeDegrees>
            </Position>
            <AltitudeMeters>275.79998779296875</AltitudeMeters>
            <DistanceMeters>50561.719112638</DistanceMeters>
          </Trackpoint>
          <Trackpoint>
            <Time>2021-10-09T09:16:01.000Z</Time>
            <Position>
              <LatitudeDegrees>39.5447234809398651123046875</LatitudeDegrees>
              <LongitudeDegrees>-0.7299988903105258941650390625</LongitudeDegrees>
            </Position>
            <AltitudeMeters>276.20001220703125</AltitudeMeters>
            <DistanceMeters>50574.057225488</DistanceMeters>
          </Trackpoint>
          <Trackpoint>
            <Time>2021-10-09T09:16:03.000Z</Time>
            <Position>
              <LatitudeDegrees>39.54462348483502864837646484375</LatitudeDegrees>
              <LongitudeDegrees>-0.729960501194000244140625</LongitudeDegrees>
            </Position>
            <AltitudeMeters>277.399993896484375</AltitudeMeters>
            <DistanceMeters>50585.664885486</DistanceMeters>
          </Trackpoint>
          <Trackpoint>
            <Time>2021-10-09T09:16:04.000Z</Time>
            <Position>
              <LatitudeDegrees>39.54457269050180912017822265625</LatitudeDegrees>
              <LongitudeDegrees>-0.72994985617697238922119140625</LongitudeDegrees>
            </Position>
            <AltitudeMeters>277.600006103515625</AltitudeMeters>
            <DistanceMeters>50591.391772742</DistanceMeters>
          </Trackpoint>
          <Trackpoint>
            <Time>2021-10-09T09:16:05.000Z</Time>
            <Position>
              <LatitudeDegrees>39.54452156089246273040771484375</LatitudeDegrees>
              <LongitudeDegrees>-0.72994298301637172698974609375</LongitudeDegrees>
            </Position>
            <AltitudeMeters>278</AltitudeMeters>
            <DistanceMeters>50597.113927684</DistanceMeters>
          </Trackpoint>
          <Trackpoint>
            <Time>2021-10-09T09:16:08.000Z</Time>
            <Position>
              <LatitudeDegrees>39.54436079598963260650634765625</LatitudeDegrees>
              <LongitudeDegrees>-0.72996326722204685211181640625</LongitudeDegrees>
            </Position>
            <AltitudeMeters>278.79998779296875</AltitudeMeters>
            <DistanceMeters>50615.091816773</DistanceMeters>
          </Trackpoint>
          <Trackpoint>
            <Time>2021-10-09T09:16:11.000Z</Time>
            <Position>
              <LatitudeDegrees>39.5441999472677707672119140625</LatitudeDegrees>
              <LongitudeDegrees>-0.73000450618565082550048828125</LongitudeDegrees>
            </Position>
            <AltitudeMeters>279.600006103515625</AltitudeMeters>
            <DistanceMeters>50633.340904949</DistanceMeters>
          </Trackpoint>
          <Trackpoint>
            <Time>2021-10-09T09:16:12.000Z</Time>
            <Position>
              <LatitudeDegrees>39.54414403997361660003662109375</LatitudeDegrees>
              <LongitudeDegrees>-0.73002018034458160400390625</LongitudeDegrees>
            </Position>
            <AltitudeMeters>279.79998779296875</AltitudeMeters>
            <DistanceMeters>50639.706985618</DistanceMeters>
          </Trackpoint>
          <Trackpoint>
            <Time>2021-10-09T09:16:15.000Z</Time>
            <Position>
              <LatitudeDegrees>39.54398696310818195343017578125</LatitudeDegrees>
              <LongitudeDegrees>-0.7300733216106891632080078125</LongitudeDegrees>
            </Position>
            <AltitudeMeters>280.79998779296875</AltitudeMeters>
            <DistanceMeters>50657.775310213</DistanceMeters>
          </Trackpoint>
          <Trackpoint>
            <Time>2021-10-09T09:16:16.000Z</Time>
            <Position>
              <LatitudeDegrees>39.54393650405108928680419921875</LatitudeDegrees>
              <LongitudeDegrees>-0.73009134270250797271728515625</LongitudeDegrees>
            </Position>
            <AltitudeMeters>281.20001220703125</AltitudeMeters>
            <DistanceMeters>50663.600688078</DistanceMeters>
          </Trackpoint>
          <Trackpoint>
            <Time>2021-10-09T09:16:22.000Z</Time>
            <Position>
              <LatitudeDegrees>39.543624781072139739990234375</LatitudeDegrees>
              <LongitudeDegrees>-0.73019326664507389068603515625</LongitudeDegrees>
            </Position>
            <AltitudeMeters>282.399993896484375</AltitudeMeters>
            <DistanceMeters>50699.382000217</DistanceMeters>
          </Trackpoint>
          <Trackpoint>
            <Time>2021-10-09T09:16:25.000Z</Time>
            <Position>
              <LatitudeDegrees>39.54347818158566951751708984375</LatitudeDegrees>
              <LongitudeDegrees>-0.730249173939228057861328125</LongitudeDegrees>
            </Position>
            <AltitudeMeters>283</AltitudeMeters>
            <DistanceMeters>50716.389658455</DistanceMeters>
          </Trackpoint>
          <Trackpoint>
            <Time>2021-10-09T09:16:31.000Z</Time>
            <Position>
              <LatitudeDegrees>39.54316050745546817779541015625</LatitudeDegrees>
              <LongitudeDegrees>-0.73036618530750274658203125</LongitudeDegrees>
            </Position>
            <AltitudeMeters>283.399993896484375</AltitudeMeters>
            <DistanceMeters>50753.146207766</DistanceMeters>
          </Trackpoint>
          <Trackpoint>
            <Time>2021-10-09T09:16:33.000Z</Time>
            <Position>
              <LatitudeDegrees>39.54305053688585758209228515625</LatitudeDegrees>
              <LongitudeDegrees>-0.73040834628045558929443359375</LongitudeDegrees>
            </Position>
            <AltitudeMeters>283.600006103515625</AltitudeMeters>
            <DistanceMeters>50765.909537231</DistanceMeters>
          </Trackpoint>
          <Trackpoint>
            <Time>2021-10-09T09:16:43.000Z</Time>
            <Position>
              <LatitudeDegrees>39.54249364323914051055908203125</LatitudeDegrees>
              <LongitudeDegrees>-0.73062099516391754150390625</LongitudeDegrees>
            </Position>
            <AltitudeMeters>284.20001220703125</AltitudeMeters>
            <DistanceMeters>50830.524349032</DistanceMeters>
          </Trackpoint>
          <Trackpoint>
            <Time>2021-10-09T09:16:45.000Z</Time>
            <Position>
              <LatitudeDegrees>39.54238258302211761474609375</LatitudeDegrees>
              <LongitudeDegrees>-0.73066064156591892242431640625</LongitudeDegrees>
            </Position>
            <AltitudeMeters>284.399993896484375</AltitudeMeters>
            <DistanceMeters>50843.345210217</DistanceMeters>
          </Trackpoint>
          <Trackpoint>
            <Time>2021-10-09T09:16:51.000Z</Time>
            <Position>
              <LatitudeDegrees>39.54205267131328582763671875</LatitudeDegrees>
              <LongitudeDegrees>-0.73076658882200717926025390625</LongitudeDegrees>
            </Position>
            <AltitudeMeters>284.600006103515625</AltitudeMeters>
            <DistanceMeters>50881.174198234</DistanceMeters>
          </Trackpoint>
          <Trackpoint>
            <Time>2021-10-09T09:16:53.000Z</Time>
            <Position>
              <LatitudeDegrees>39.54194345511496067047119140625</LatitudeDegrees>
              <LongitudeDegrees>-0.73079978115856647491455078125</LongitudeDegrees>
            </Position>
            <AltitudeMeters>284.79998779296875</AltitudeMeters>
            <DistanceMeters>50893.65927651</DistanceMeters>
          </Trackpoint>
          <Trackpoint>
            <Time>2021-10-09T09:16:58.000Z</Time>
            <Position>
              <LatitudeDegrees>39.54169317148625850677490234375</LatitudeDegrees>
              <LongitudeDegrees>-0.730866082012653350830078125</LongitudeDegrees>
            </Position>
            <AltitudeMeters>285.79998779296875</AltitudeMeters>
            <DistanceMeters>50922.091485419</DistanceMeters>
          </Trackpoint>
          <Trackpoint>
            <Time>2021-10-09T09:17:01.000Z</Time>
            <Position>
              <LatitudeDegrees>39.54154648818075656890869140625</LatitudeDegrees>
              <LongitudeDegrees>-0.730899274349212646484375</LongitudeDegrees>
            </Position>
            <AltitudeMeters>286.20001220703125</AltitudeMeters>
            <DistanceMeters>50938.664318765</DistanceMeters>
          </Trackpoint>
          <Trackpoint>
            <Time>2021-10-09T09:17:04.000Z</Time>
            <Position>
              <LatitudeDegrees>39.54139418900012969970703125</LatitudeDegrees>
              <LongitudeDegrees>-0.73093925602734088897705078125</LongitudeDegrees>
            </Position>
            <AltitudeMeters>286.79998779296875</AltitudeMeters>
            <DistanceMeters>50955.959441841</DistanceMeters>
          </Trackpoint>
          <Trackpoint>
            <Time>2021-10-09T09:17:11.000Z</Time>
            <Position>
              <LatitudeDegrees>39.54101406969130039215087890625</LatitudeDegrees>
              <LongitudeDegrees>-0.73102827183902263641357421875</LongitudeDegrees>
            </Position>
            <AltitudeMeters>287.399993896484375</AltitudeMeters>
            <DistanceMeters>50998.951653077</DistanceMeters>
          </Trackpoint>
          <Trackpoint>
            <Time>2021-10-09T09:17:20.000Z</Time>
            <Position>
              <LatitudeDegrees>39.5405383966863155364990234375</LatitudeDegrees>
              <LongitudeDegrees>-0.73116816580295562744140625</LongitudeDegrees>
            </Position>
            <AltitudeMeters>288</AltitudeMeters>
            <DistanceMeters>51053.239609102</DistanceMeters>
          </Trackpoint>
          <Trackpoint>
            <Time>2021-10-09T09:17:23.000Z</Time>
            <Position>
              <LatitudeDegrees>39.5404022745788097381591796875</LatitudeDegrees>
              <LongitudeDegrees>-0.73122457601130008697509765625</LongitudeDegrees>
            </Position>
            <AltitudeMeters>288.399993896484375</AltitudeMeters>
            <DistanceMeters>51069.145162272</DistanceMeters>
          </Trackpoint>
          <Trackpoint>
            <Time>2021-10-09T09:17:25.000Z</Time>
            <Position>
              <LatitudeDegrees>39.540308229625225067138671875</LatitudeDegrees>
              <LongitudeDegrees>-0.73127679526805877685546875</LongitudeDegrees>
            </Position>
            <AltitudeMeters>288.79998779296875</AltitudeMeters>
            <DistanceMeters>51080.531726178</DistanceMeters>
          </Trackpoint>
          <Trackpoint>
            <Time>2021-10-09T09:17:26.000Z</Time>
            <Position>
              <LatitudeDegrees>39.54025617800652980804443359375</LatitudeDegrees>
              <LongitudeDegrees>-0.73130227625370025634765625</LongitudeDegrees>
            </Position>
            <AltitudeMeters>289</AltitudeMeters>
            <DistanceMeters>51086.724523176</DistanceMeters>
          </Trackpoint>
          <Trackpoint>
            <Time>2021-10-09T09:17:30.000Z</Time>
            <Position>
              <LatitudeDegrees>39.54004026018083095550537109375</LatitudeDegrees>
              <LongitudeDegrees>-0.7314209640026092529296875</LongitudeDegrees>
            </Position>
            <AltitudeMeters>290</AltitudeMeters>
            <DistanceMeters>51112.826616343</DistanceMeters>
          </Trackpoint>
          <Trackpoint>
            <Time>2021-10-09T09:17:35.000Z</Time>
            <Position>
              <LatitudeDegrees>39.5397810079157352447509765625</LatitudeDegrees>
              <LongitudeDegrees>-0.7315579243004322052001953125</LongitudeDegrees>
            </Position>
            <AltitudeMeters>290.600006103515625</AltitudeMeters>
            <DistanceMeters>51143.98494715</DistanceMeters>
          </Trackpoint>
          <Trackpoint>
            <Time>2021-10-09T09:17:38.000Z</Time>
            <Position>
              <LatitudeDegrees>39.53961395658552646636962890625</LatitudeDegrees>
              <LongitudeDegrees>-0.73162154294550418853759765625</LongitudeDegrees>
            </Position>
            <AltitudeMeters>291</AltitudeMeters>
            <DistanceMeters>51163.363408363</DistanceMeters>
          </Trackpoint>
          <Trackpoint>
            <Time>2021-10-09T09:17:41.000Z</Time>
            <Position>
              <LatitudeDegrees>39.53944933600723743438720703125</LatitudeDegrees>
              <LongitudeDegrees>-0.73165775276720523834228515625</LongitudeDegrees>
            </Position>
            <AltitudeMeters>291.600006103515625</AltitudeMeters>
            <DistanceMeters>51181.947874022</DistanceMeters>
          </Trackpoint>
          <Trackpoint>
            <Time>2021-10-09T09:17:46.000Z</Time>
            <Position>
              <LatitudeDegrees>39.53917977400124073028564453125</LatitudeDegrees>
              <LongitudeDegrees>-0.73170184157788753509521484375</LongitudeDegrees>
            </Position>
            <AltitudeMeters>292.20001220703125</AltitudeMeters>
            <DistanceMeters>51212.188474241</DistanceMeters>
          </Trackpoint>
          <Trackpoint>
            <Time>2021-10-09T09:17:51.000Z</Time>
            <Position>
              <LatitudeDegrees>39.5389216952025890350341796875</LatitudeDegrees>
              <LongitudeDegrees>-0.73173805139958858489990234375</LongitudeDegrees>
            </Position>
            <AltitudeMeters>293</AltitudeMeters>
            <DistanceMeters>51241.080971309</DistanceMeters>
          </Trackpoint>
          <Trackpoint>
            <Time>2021-10-09T09:17:52.000Z</Time>
            <Position>
              <LatitudeDegrees>39.53887157142162322998046875</LatitudeDegrees>
              <LongitudeDegrees>-0.73174609802663326263427734375</LongitudeDegrees>
            </Position>
            <AltitudeMeters>293.20001220703125</AltitudeMeters>
            <DistanceMeters>51246.702827546</DistanceMeters>
          </Trackpoint>
          <Trackpoint>
            <Time>2021-10-09T09:18:01.000Z</Time>
            <Position>
              <LatitudeDegrees>39.5384137518703937530517578125</LatitudeDegrees>
              <LongitudeDegrees>-0.73182388208806514739990234375</LongitudeDegrees>
            </Position>
            <AltitudeMeters>294.600006103515625</AltitudeMeters>
            <DistanceMeters>51298.094536296</DistanceMeters>
          </Trackpoint>
          <Trackpoint>
            <Time>2021-10-09T09:18:06.000Z</Time>
            <Position>
              <LatitudeDegrees>39.53816405497491359710693359375</LatitudeDegrees>
              <LongitudeDegrees>-0.73186998255550861358642578125</LongitudeDegrees>
            </Position>
            <AltitudeMeters>295.79998779296875</AltitudeMeters>
            <DistanceMeters>51326.166527874</DistanceMeters>
          </Trackpoint>
          <Trackpoint>
            <Time>2021-10-09T09:18:09.000Z</Time>
            <Position>
              <LatitudeDegrees>39.53801971860229969024658203125</LatitudeDegrees>
              <LongitudeDegrees>-0.7318968884646892547607421875</LongitudeDegrees>
            </Position>
            <AltitudeMeters>296.399993896484375</AltitudeMeters>
            <DistanceMeters>51342.396912651</DistanceMeters>
          </Trackpoint>
          <Trackpoint>
            <Time>2021-10-09T09:18:11.000Z</Time>
            <Position>
              <LatitudeDegrees>39.53792651183903217315673828125</LatitudeDegrees>
              <LongitudeDegrees>-0.731908120214939117431640625</LongitudeDegrees>
            </Position>
            <AltitudeMeters>296.79998779296875</AltitudeMeters>
            <DistanceMeters>51352.81610547</DistanceMeters>
          </Trackpoint>
          <Trackpoint>
            <Time>2021-10-09T09:18:15.000Z</Time>
            <Position>
              <LatitudeDegrees>39.53775367699563503265380859375</LatitudeDegrees>
              <LongitudeDegrees>-0.7319351099431514739990234375</LongitudeDegrees>
            </Position>
            <AltitudeMeters>297.79998779296875</AltitudeMeters>
            <DistanceMeters>51372.191770571</DistanceMeters>
          </Trackpoint>
          <Trackpoint>
            <Time>2021-10-09T09:18:18.000Z</Time>
            <Position>
              <LatitudeDegrees>39.53762576915323734283447265625</LatitudeDegrees>
              <LongitudeDegrees>-0.73195648379623889923095703125</LongitudeDegrees>
            </Position>
            <AltitudeMeters>298.79998779296875</AltitudeMeters>
            <DistanceMeters>51386.54615263</DistanceMeters>
          </Trackpoint>
          <Trackpoint>
            <Time>2021-10-09T09:18:20.000Z</Time>
            <Position>
              <LatitudeDegrees>39.53753641806542873382568359375</LatitudeDegrees>
              <LongitudeDegrees>-0.7319659553468227386474609375</LongitudeDegrees>
            </Position>
            <AltitudeMeters>299.20001220703125</AltitudeMeters>
            <DistanceMeters>51396.524410137</DistanceMeters>
          </Trackpoint>
          <Trackpoint>
            <Time>2021-10-09T09:18:21.000Z</Time>
            <Position>
              <LatitudeDegrees>39.53749484382569789886474609375</LatitudeDegrees>
              <LongitudeDegrees>-0.7319734990596771240234375</LongitudeDegrees>
            </Position>
            <AltitudeMeters>299.20001220703125</AltitudeMeters>
            <DistanceMeters>51401.196207945</DistanceMeters>
          </Trackpoint>
          <Trackpoint>
            <Time>2021-10-09T09:18:23.000Z</Time>
            <Position>
              <LatitudeDegrees>39.53740934841334819793701171875</LatitudeDegrees>
              <LongitudeDegrees>-0.73199571110308170318603515625</LongitudeDegrees>
            </Position>
            <AltitudeMeters>299.600006103515625</AltitudeMeters>
            <DistanceMeters>51410.901036502</DistanceMeters>
          </Trackpoint>
          <Trackpoint>
            <Time>2021-10-09T09:18:25.000Z</Time>
            <Position>
              <LatitudeDegrees>39.5373153872787952423095703125</LatitudeDegrees>
              <LongitudeDegrees>-0.7320236228406429290771484375</LongitudeDegrees>
            </Position>
            <AltitudeMeters>300.399993896484375</AltitudeMeters>
            <DistanceMeters>51421.630221676</DistanceMeters>
          </Trackpoint>
          <Trackpoint>
            <Time>2021-10-09T09:18:26.000Z</Time>
            <Position>
              <LatitudeDegrees>39.5372681133449077606201171875</LatitudeDegrees>
              <LongitudeDegrees>-0.73203854262828826904296875</LongitudeDegrees>
            </Position>
            <AltitudeMeters>300.600006103515625</AltitudeMeters>
            <DistanceMeters>51427.045910763</DistanceMeters>
          </Trackpoint>
          <Trackpoint>
            <Time>2021-10-09T09:18:27.000Z</Time>
            <Position>
              <LatitudeDegrees>39.5372235216200351715087890625</LatitudeDegrees>
              <LongitudeDegrees>-0.73206176050007343292236328125</LongitudeDegrees>
            </Position>
            <AltitudeMeters>301.20001220703125</AltitudeMeters>
            <DistanceMeters>51432.394488348</DistanceMeters>
          </Trackpoint>
          <Trackpoint>
            <Time>2021-10-09T09:18:28.000Z</Time>
            <Position>
              <LatitudeDegrees>39.53718102537095546722412109375</LatitudeDegrees>
              <LongitudeDegrees>-0.732093863189220428466796875</LongitudeDegrees>
            </Position>
            <AltitudeMeters>301.399993896484375</AltitudeMeters>
            <DistanceMeters>51437.869049857</DistanceMeters>
          </Trackpoint>
          <Trackpoint>
            <Time>2021-10-09T09:18:29.000Z</Time>
            <Position>
              <LatitudeDegrees>39.53714280389249324798583984375</LatitudeDegrees>
              <LongitudeDegrees>-0.73212864808738231658935546875</LongitudeDegrees>
            </Position>
            <AltitudeMeters>301.600006103515625</AltitudeMeters>
            <DistanceMeters>51443.066932957</DistanceMeters>
          </Trackpoint>
          <Trackpoint>
            <Time>2021-10-09T09:18:30.000Z</Time>
            <Position>
              <LatitudeDegrees>39.53710759989917278289794921875</LatitudeDegrees>
              <LongitudeDegrees>-0.732163600623607635498046875</LongitudeDegrees>
            </Position>
            <AltitudeMeters>301.79998779296875</AltitudeMeters>
            <DistanceMeters>51448.002836749</DistanceMeters>
          </Trackpoint>
          <Trackpoint>
            <Time>2021-10-09T09:18:32.000Z</Time>
            <Position>
              <LatitudeDegrees>39.53703333623707294464111328125</LatitudeDegrees>
              <LongitudeDegrees>-0.7322402112185955047607421875</LongitudeDegrees>
            </Position>
            <AltitudeMeters>302</AltitudeMeters>
            <DistanceMeters>51458.565773109</DistanceMeters>
          </Trackpoint>
          <Trackpoint>
            <Time>2021-10-09T09:18:36.000Z</Time>
            <Position>
              <LatitudeDegrees>39.53687734901905059814453125</LatitudeDegrees>
              <LongitudeDegrees>-0.7323967851698398590087890625</LongitudeDegrees>
            </Position>
            <AltitudeMeters>302.600006103515625</AltitudeMeters>
            <DistanceMeters>51480.521674386</DistanceMeters>
          </Trackpoint>
          <Trackpoint>
            <Time>2021-10-09T09:18:37.000Z</Time>
            <Position>
              <LatitudeDegrees>39.5368285663425922393798828125</LatitudeDegrees>
              <LongitudeDegrees>-0.73243525810539722442626953125</LongitudeDegrees>
            </Position>
            <AltitudeMeters>302.79998779296875</AltitudeMeters>
            <DistanceMeters>51486.877107647</DistanceMeters>
          </Trackpoint>
          <Trackpoint>
            <Time>2021-10-09T09:18:38.000Z</Time>
            <Position>
              <LatitudeDegrees>39.53677685000002384185791015625</LatitudeDegrees>
              <LongitudeDegrees>-0.73246442712843418121337890625</LongitudeDegrees>
            </Position>
            <AltitudeMeters>303</AltitudeMeters>
            <DistanceMeters>51493.154627348</DistanceMeters>
          </Trackpoint>
          <Trackpoint>
            <Time>2021-10-09T09:18:39.000Z</Time>
            <Position>
              <LatitudeDegrees>39.5367212779819965362548828125</LatitudeDegrees>
              <LongitudeDegrees>-0.73248320259153842926025390625</LongitudeDegrees>
            </Position>
            <AltitudeMeters>303</AltitudeMeters>
            <DistanceMeters>51499.546895796</DistanceMeters>
          </Trackpoint>
          <Trackpoint>
            <Time>2021-10-09T09:18:43.000Z</Time>
            <Position>
              <LatitudeDegrees>39.536482393741607666015625</LatitudeDegrees>
              <LongitudeDegrees>-0.7325251959264278411865234375</LongitudeDegrees>
            </Position>
            <AltitudeMeters>303</AltitudeMeters>
            <DistanceMeters>51526.378273779</DistanceMeters>
          </Trackpoint>
          <Trackpoint>
            <Time>2021-10-09T09:18:49.000Z</Time>
            <Position>
              <LatitudeDegrees>39.5361618697643280029296875</LatitudeDegrees>
              <LongitudeDegrees>-0.73255620896816253662109375</LongitudeDegrees>
            </Position>
            <AltitudeMeters>303.20001220703125</AltitudeMeters>
            <DistanceMeters>51562.152266483</DistanceMeters>
          </Trackpoint>
          <Trackpoint>
            <Time>2021-10-09T09:18:50.000Z</Time>
            <Position>
              <LatitudeDegrees>39.5361174456775188446044921875</LatitudeDegrees>
              <LongitudeDegrees>-0.73256182484328746795654296875</LongitudeDegrees>
            </Position>
            <AltitudeMeters>303.399993896484375</AltitudeMeters>
            <DistanceMeters>51567.120991571</DistanceMeters>
          </Trackpoint>
          <Trackpoint>
            <Time>2021-10-09T09:18:54.000Z</Time>
            <Position>
              <LatitudeDegrees>39.53593413345515727996826171875</LatitudeDegrees>
              <LongitudeDegrees>-0.732581354677677154541015625</LongitudeDegrees>
            </Position>
            <AltitudeMeters>303.79998779296875</AltitudeMeters>
            <DistanceMeters>51587.592577923</DistanceMeters>
          </Trackpoint>
          <Trackpoint>
            <Time>2021-10-09T09:18:57.000Z</Time>
            <Position>
              <LatitudeDegrees>39.53579130582511425018310546875</LatitudeDegrees>
              <LongitudeDegrees>-0.732599794864654541015625</LongitudeDegrees>
            </Position>
            <AltitudeMeters>304.399993896484375</AltitudeMeters>
            <DistanceMeters>51603.568092016</DistanceMeters>
          </Trackpoint>
          <Trackpoint>
            <Time>2021-10-09T09:19:01.000Z</Time>
            <Position>
              <LatitudeDegrees>39.53559525310993194580078125</LatitudeDegrees>
              <LongitudeDegrees>-0.73262468911707401275634765625</LongitudeDegrees>
            </Position>
            <AltitudeMeters>304.79998779296875</AltitudeMeters>
            <DistanceMeters>51625.493537269</DistanceMeters>
          </Trackpoint>
          <Trackpoint>
            <Time>2021-10-09T09:19:05.000Z</Time>
            <Position>
              <LatitudeDegrees>39.53540624119341373443603515625</LatitudeDegrees>
              <LongitudeDegrees>-0.73264279402792453765869140625</LongitudeDegrees>
            </Position>
            <AltitudeMeters>305.399993896484375</AltitudeMeters>
            <DistanceMeters>51646.588397712</DistanceMeters>
          </Trackpoint>
          <Trackpoint>
            <Time>2021-10-09T09:19:08.000Z</Time>
            <Position>
              <LatitudeDegrees>39.53526492230594158172607421875</LatitudeDegrees>
              <LongitudeDegrees>-0.73265989311039447784423828125</LongitudeDegrees>
            </Position>
            <AltitudeMeters>306</AltitudeMeters>
            <DistanceMeters>51662.385999513</DistanceMeters>
          </Trackpoint>
          <Trackpoint>
            <Time>2021-10-09T09:19:11.000Z</Time>
            <Position>
              <LatitudeDegrees>39.53513349406421184539794921875</LatitudeDegrees>
              <LongitudeDegrees>-0.73268436826765537261962890625</LongitudeDegrees>
            </Position>
            <AltitudeMeters>306.399993896484375</AltitudeMeters>
            <DistanceMeters>51677.164410418</DistanceMeters>
          </Trackpoint>
          <Trackpoint>
            <Time>2021-10-09T09:19:13.000Z</Time>
            <Position>
              <LatitudeDegrees>39.5350505970418453216552734375</LatitudeDegrees>
              <LongitudeDegrees>-0.7326985336840152740478515625</LongitudeDegrees>
            </Position>
            <AltitudeMeters>307</AltitudeMeters>
            <DistanceMeters>51686.471208646</DistanceMeters>
          </Trackpoint>
          <Trackpoint>
            <Time>2021-10-09T09:19:17.000Z</Time>
            <Position>
              <LatitudeDegrees>39.53490190207958221435546875</LatitudeDegrees>
              <LongitudeDegrees>-0.73276332579553127288818359375</LongitudeDegrees>
            </Position>
            <AltitudeMeters>308</AltitudeMeters>
            <DistanceMeters>51703.930799723</DistanceMeters>
          </Trackpoint>
          <Trackpoint>
            <Time>2021-10-09T09:19:18.000Z</Time>
            <Position>
              <LatitudeDegrees>39.53486929647624492645263671875</LatitudeDegrees>
              <LongitudeDegrees>-0.7327917404472827911376953125</LongitudeDegrees>
            </Position>
            <AltitudeMeters>308.20001220703125</AltitudeMeters>
            <DistanceMeters>51708.304093894</DistanceMeters>
          </Trackpoint>
          <Trackpoint>
            <Time>2021-10-09T09:19:20.000Z</Time>
            <Position>
              <LatitudeDegrees>39.53480693511664867401123046875</LatitudeDegrees>
              <LongitudeDegrees>-0.73285636492073535919189453125</LongitudeDegrees>
            </Position>
            <AltitudeMeters>309.20001220703125</AltitudeMeters>
            <DistanceMeters>51717.189980931</DistanceMeters>
          </Trackpoint>
          <Trackpoint>
            <Time>2021-10-09T09:19:21.000Z</Time>
            <Position>
              <LatitudeDegrees>39.53477583825588226318359375</LatitudeDegrees>
              <LongitudeDegrees>-0.73288871906697750091552734375</LongitudeDegrees>
            </Position>
            <AltitudeMeters>309.399993896484375</AltitudeMeters>
            <DistanceMeters>51721.626822899</DistanceMeters>
          </Trackpoint>
          <Trackpoint>
            <Time>2021-10-09T09:19:25.000Z</Time>
            <Position>
              <LatitudeDegrees>39.534646086394786834716796875</LatitudeDegrees>
              <LongitudeDegrees>-0.7330190576612949371337890625</LongitudeDegrees>
            </Position>
            <AltitudeMeters>310.399993896484375</AltitudeMeters>
            <DistanceMeters>51739.89569329</DistanceMeters>
          </Trackpoint>
          <Trackpoint>
            <Time>2021-10-09T09:19:28.000Z</Time>
            <Position>
              <LatitudeDegrees>39.53453687019646167755126953125</LatitudeDegrees>
              <LongitudeDegrees>-0.73309005238115787506103515625</LongitudeDegrees>
            </Position>
            <AltitudeMeters>311.79998779296875</AltitudeMeters>
            <DistanceMeters>51753.494145607</DistanceMeters>
          </Trackpoint>
          <Trackpoint>
            <Time>2021-10-09T09:19:30.000Z</Time>
            <Position>
              <LatitudeDegrees>39.53445154242217540740966796875</LatitudeDegrees>
              <LongitudeDegrees>-0.7331065647304058074951171875</LongitudeDegrees>
            </Position>
            <AltitudeMeters>312.399993896484375</AltitudeMeters>
            <DistanceMeters>51763.097017086</DistanceMeters>
          </Trackpoint>
          <Trackpoint>
            <Time>2021-10-09T09:19:32.000Z</Time>
            <Position>
              <LatitudeDegrees>39.5343632809817790985107421875</LatitudeDegrees>
              <LongitudeDegrees>-0.7331176288425922393798828125</LongitudeDegrees>
            </Position>
            <AltitudeMeters>312.79998779296875</AltitudeMeters>
            <DistanceMeters>51772.966537571</DistanceMeters>
          </Trackpoint>
          <Trackpoint>
            <Time>2021-10-09T09:19:36.000Z</Time>
            <Position>
              <LatitudeDegrees>39.53418600372970104217529296875</LatitudeDegrees>
              <LongitudeDegrees>-0.73312827385962009429931640625</LongitudeDegrees>
            </Position>
            <AltitudeMeters>313.600006103515625</AltitudeMeters>
            <DistanceMeters>51792.7188408</DistanceMeters>
          </Trackpoint>
          <Trackpoint>
            <Time>2021-10-09T09:19:37.000Z</Time>
            <Position>
              <LatitudeDegrees>39.53414342366158962249755859375</LatitudeDegrees>
              <LongitudeDegrees>-0.7331286929547786712646484375</LongitudeDegrees>
            </Position>
            <AltitudeMeters>313.79998779296875</AltitudeMeters>
            <DistanceMeters>51797.456854101</DistanceMeters>
          </Trackpoint>
          <Trackpoint>
            <Time>2021-10-09T09:19:43.000Z</Time>
            <Position>
              <LatitudeDegrees>39.53389297239482402801513671875</LatitudeDegrees>
              <LongitudeDegrees>-0.7331407628953456878662109375</LongitudeDegrees>
            </Position>
            <AltitudeMeters>314.79998779296875</AltitudeMeters>
            <DistanceMeters>51825.351686726</DistanceMeters>
          </Trackpoint>
          <Trackpoint>
            <Time>2021-10-09T09:19:44.000Z</Time>
            <Position>
              <LatitudeDegrees>39.53385257162153720855712890625</LatitudeDegrees>
              <LongitudeDegrees>-0.73314067907631397247314453125</LongitudeDegrees>
            </Position>
            <AltitudeMeters>315</AltitudeMeters>
            <DistanceMeters>51829.847163461</DistanceMeters>
          </Trackpoint>
          <Trackpoint>
            <Time>2021-10-09T09:19:49.000Z</Time>
            <Position>
              <LatitudeDegrees>39.53365157358348369598388671875</LatitudeDegrees>
              <LongitudeDegrees>-0.73313984088599681854248046875</LongitudeDegrees>
            </Position>
            <AltitudeMeters>315.79998779296875</AltitudeMeters>
            <DistanceMeters>51852.218639873</DistanceMeters>
          </Trackpoint>
          <Trackpoint>
            <Time>2021-10-09T09:19:52.000Z</Time>
            <Position>
              <LatitudeDegrees>39.53354009427130222320556640625</LatitudeDegrees>
              <LongitudeDegrees>-0.7331360690295696258544921875</LongitudeDegrees>
            </Position>
            <AltitudeMeters>316.399993896484375</AltitudeMeters>
            <DistanceMeters>51864.630452961</DistanceMeters>
          </Trackpoint>
          <Trackpoint>
            <Time>2021-10-09T09:19:54.000Z</Time>
            <Position>
              <LatitudeDegrees>39.53345392830669879913330078125</LatitudeDegrees>
              <LongitudeDegrees>-0.7331320457160472869873046875</LongitudeDegrees>
            </Position>
            <AltitudeMeters>317</AltitudeMeters>
            <DistanceMeters>51874.226739721</DistanceMeters>
          </Trackpoint>
          <Trackpoint>
            <Time>2021-10-09T09:19:58.000Z</Time>
            <Position>
              <LatitudeDegrees>39.53329752199351787567138671875</LatitudeDegrees>
              <LongitudeDegrees>-0.73312140069901943206787109375</LongitudeDegrees>
            </Position>
            <AltitudeMeters>318</AltitudeMeters>
            <DistanceMeters>51891.65889772</DistanceMeters>
          </Trackpoint>
          <Trackpoint>
            <Time>2021-10-09T09:19:59.000Z</Time>
            <Position>
              <LatitudeDegrees>39.53324832022190093994140625</LatitudeDegrees>
              <LongitudeDegrees>-0.7331189699470996856689453125</LongitudeDegrees>
            </Position>
            <AltitudeMeters>318.399993896484375</AltitudeMeters>
            <DistanceMeters>51897.139229302</DistanceMeters>
          </Trackpoint>
          <Trackpoint>
            <Time>2021-10-09T09:20:00.000Z</Time>
            <Position>
              <LatitudeDegrees>39.53320716507732868194580078125</LatitudeDegrees>
              <LongitudeDegrees>-0.73311888612806797027587890625</LongitudeDegrees>
            </Position>
            <AltitudeMeters>318.600006103515625</AltitudeMeters>
            <DistanceMeters>51901.720266047</DistanceMeters>
          </Trackpoint>
          <Trackpoint>
            <Time>2021-10-09T09:20:03.000Z</Time>
            <Position>
              <LatitudeDegrees>39.5330872200429439544677734375</LatitudeDegrees>
              <LongitudeDegrees>-0.73311804793775081634521484375</LongitudeDegrees>
            </Position>
            <AltitudeMeters>319.20001220703125</AltitudeMeters>
            <DistanceMeters>51915.070758504</DistanceMeters>
          </Trackpoint>
          <Trackpoint>
            <Time>2021-10-09T09:20:07.000Z</Time>
            <Position>
              <LatitudeDegrees>39.532924108207225799560546875</LatitudeDegrees>
              <LongitudeDegrees>-0.7331206463277339935302734375</LongitudeDegrees>
            </Position>
            <AltitudeMeters>320</AltitudeMeters>
            <DistanceMeters>51933.226581551</DistanceMeters>
          </Trackpoint>
          <Trackpoint>
            <Time>2021-10-09T09:20:09.000Z</Time>
            <Position>
              <LatitudeDegrees>39.53283467330038547515869140625</LatitudeDegrees>
              <LongitudeDegrees>-0.7331293635070323944091796875</LongitudeDegrees>
            </Position>
            <AltitudeMeters>320.20001220703125</AltitudeMeters>
            <DistanceMeters>51943.208458302</DistanceMeters>
          </Trackpoint>
          <Trackpoint>
            <Time>2021-10-09T09:20:10.000Z</Time>
            <Position>
              <LatitudeDegrees>39.5327915064990520477294921875</LatitudeDegrees>
              <LongitudeDegrees>-0.73313028551638126373291015625</LongitudeDegrees>
            </Position>
            <AltitudeMeters>320.399993896484375</AltitudeMeters>
            <DistanceMeters>51948.012714269</DistanceMeters>
          </Trackpoint>
          <Trackpoint>
            <Time>2021-10-09T09:20:11.000Z</Time>
            <Position>
              <LatitudeDegrees>39.5327489264309406280517578125</LatitudeDegrees>
              <LongitudeDegrees>-0.73313581757247447967529296875</LongitudeDegrees>
            </Position>
            <AltitudeMeters>320.399993896484375</AltitudeMeters>
            <DistanceMeters>51952.775439542</DistanceMeters>
          </Trackpoint>
          <Trackpoint>
            <Time>2021-10-09T09:20:15.000Z</Time>
            <Position>
              <LatitudeDegrees>39.5325812883675098419189453125</LatitudeDegrees>
              <LongitudeDegrees>-0.73315836489200592041015625</LongitudeDegrees>
            </Position>
            <AltitudeMeters>321.20001220703125</AltitudeMeters>
            <DistanceMeters>51971.534011419</DistanceMeters>
          </Trackpoint>
          <Trackpoint>
            <Time>2021-10-09T09:20:17.000Z</Time>
            <Position>
              <LatitudeDegrees>39.532497636973857879638671875</LatitudeDegrees>
              <LongitudeDegrees>-0.73317253030836582183837890625</LongitudeDegrees>
            </Position>
            <AltitudeMeters>321.399993896484375</AltitudeMeters>
            <DistanceMeters>51980.923881833</DistanceMeters>
          </Trackpoint>
          <Trackpoint>
            <Time>2021-10-09T09:20:20.000Z</Time>
            <Position>
              <LatitudeDegrees>39.5323640294373035430908203125</LatitudeDegrees>
              <LongitudeDegrees>-0.73318074457347393035888671875</LongitudeDegrees>
            </Position>
            <AltitudeMeters>322.399993896484375</AltitudeMeters>
            <DistanceMeters>51995.811265628</DistanceMeters>
          </Trackpoint>
          <Trackpoint>
            <Time>2021-10-09T09:20:21.000Z</Time>
            <Position>
              <LatitudeDegrees>39.53230912797152996063232421875</LatitudeDegrees>
              <LongitudeDegrees>-0.73318761773407459259033203125</LongitudeDegrees>
            </Position>
            <AltitudeMeters>323</AltitudeMeters>
            <DistanceMeters>52001.950609165</DistanceMeters>
          </Trackpoint>
          <Trackpoint>
            <Time>2021-10-09T09:20:24.000Z</Time>
            <Position>
              <LatitudeDegrees>39.53218080103397369384765625</LatitudeDegrees>
              <LongitudeDegrees>-0.7331670820713043212890625</LongitudeDegrees>
            </Position>
            <AltitudeMeters>323.600006103515625</AltitudeMeters>
            <DistanceMeters>52016.342059173</DistanceMeters>
          </Trackpoint>
          <Trackpoint>
            <Time>2021-10-09T09:20:27.000Z</Time>
            <Position>
              <LatitudeDegrees>39.53203537501394748687744140625</LatitudeDegrees>
              <LongitudeDegrees>-0.7331162877380847930908203125</LongitudeDegrees>
            </Position>
            <AltitudeMeters>323.600006103515625</AltitudeMeters>
            <DistanceMeters>52033.105321053</DistanceMeters>
          </Trackpoint>
          <Trackpoint>
            <Time>2021-10-09T09:20:35.000Z</Time>
            <Position>
              <LatitudeDegrees>39.53169129788875579833984375</LatitudeDegrees>
              <LongitudeDegrees>-0.7330036349594593048095703125</LongitudeDegrees>
            </Position>
            <AltitudeMeters>324.20001220703125</AltitudeMeters>
            <DistanceMeters>52072.6038696</DistanceMeters>
          </Trackpoint>
          <Trackpoint>
            <Time>2021-10-09T09:20:39.000Z</Time>
            <Position>
              <LatitudeDegrees>39.5315657369792461395263671875</LatitudeDegrees>
              <LongitudeDegrees>-0.73295627720654010772705078125</LongitudeDegrees>
            </Position>
            <AltitudeMeters>324.600006103515625</AltitudeMeters>
            <DistanceMeters>52087.15816564</DistanceMeters>
          </Trackpoint>
          <Trackpoint>
            <Time>2021-10-09T09:20:41.000Z</Time>
            <Position>
              <LatitudeDegrees>39.53149809502065181732177734375</LatitudeDegrees>
              <LongitudeDegrees>-0.73292727582156658172607421875</LongitudeDegrees>
            </Position>
            <AltitudeMeters>325.20001220703125</AltitudeMeters>
            <DistanceMeters>52095.087061667</DistanceMeters>
          </Trackpoint>
          <Trackpoint>
            <Time>2021-10-09T09:20:43.000Z</Time>
            <Position>
              <LatitudeDegrees>39.5314376614987850189208984375</LatitudeDegrees>
              <LongitudeDegrees>-0.73290464468300342559814453125</LongitudeDegrees>
            </Position>
            <AltitudeMeters>325.600006103515625</AltitudeMeters>
            <DistanceMeters>52102.08815122</DistanceMeters>
          </Trackpoint>
          <Trackpoint>
            <Time>2021-10-09T09:20:46.000Z</Time>
            <Position>
              <LatitudeDegrees>39.53133582137525081634521484375</LatitudeDegrees>
              <LongitudeDegrees>-0.7328648306429386138916015625</LongitudeDegrees>
            </Position>
            <AltitudeMeters>326.79998779296875</AltitudeMeters>
            <DistanceMeters>52113.927274776</DistanceMeters>
          </Trackpoint>
          <Trackpoint>
            <Time>2021-10-09T09:20:48.000Z</Time>
            <Position>
              <LatitudeDegrees>39.531263150274753570556640625</LatitudeDegrees>
              <LongitudeDegrees>-0.73283675126731395721435546875</LongitudeDegrees>
            </Position>
            <AltitudeMeters>327.399993896484375</AltitudeMeters>
            <DistanceMeters>52122.367016655</DistanceMeters>
          </Trackpoint>
          <Trackpoint>
            <Time>2021-10-09T09:20:50.000Z</Time>
            <Position>
              <LatitudeDegrees>39.531192071735858917236328125</LatitudeDegrees>
              <LongitudeDegrees>-0.73281814344227313995361328125</LongitudeDegrees>
            </Position>
            <AltitudeMeters>327.79998779296875</AltitudeMeters>
            <DistanceMeters>52130.438136247</DistanceMeters>
          </Trackpoint>
          <Trackpoint>
            <Time>2021-10-09T09:20:53.000Z</Time>
            <Position>
              <LatitudeDegrees>39.5310790836811065673828125</LatitudeDegrees>
              <LongitudeDegrees>-0.73278461582958698272705078125</LongitudeDegrees>
            </Position>
            <AltitudeMeters>328.79998779296875</AltitudeMeters>
            <DistanceMeters>52143.338690842</DistanceMeters>
          </Trackpoint>
          <Trackpoint>
            <Time>2021-10-09T09:20:56.000Z</Time>
            <Position>
              <LatitudeDegrees>39.530971460044384002685546875</LatitudeDegrees>
              <LongitudeDegrees>-0.7327652536332607269287109375</LongitudeDegrees>
            </Position>
            <AltitudeMeters>330</AltitudeMeters>
            <DistanceMeters>52155.432123692</DistanceMeters>
          </Trackpoint>
          <Trackpoint>
            <Time>2021-10-09T09:20:58.000Z</Time>
            <Position>
              <LatitudeDegrees>39.53089510090649127960205078125</LatitudeDegrees>
              <LongitudeDegrees>-0.7327733002603054046630859375</LongitudeDegrees>
            </Position>
            <AltitudeMeters>330.79998779296875</AltitudeMeters>
            <DistanceMeters>52163.959149875</DistanceMeters>
          </Trackpoint>
          <Trackpoint>
            <Time>2021-10-09T09:21:00.000Z</Time>
            <Position>
              <LatitudeDegrees>39.53084061853587627410888671875</LatitudeDegrees>
              <LongitudeDegrees>-0.73281663469970226287841796875</LongitudeDegrees>
            </Position>
            <AltitudeMeters>331.20001220703125</AltitudeMeters>
            <DistanceMeters>52171.072837272</DistanceMeters>
          </Trackpoint>
          <Trackpoint>
            <Time>2021-10-09T09:21:01.000Z</Time>
            <Position>
              <LatitudeDegrees>39.5308207534253597259521484375</LatitudeDegrees>
              <LongitudeDegrees>-0.7328601367771625518798828125</LongitudeDegrees>
            </Position>
            <AltitudeMeters>331.399993896484375</AltitudeMeters>
            <DistanceMeters>52175.41192812</DistanceMeters>
          </Trackpoint>
          <Trackpoint>
            <Time>2021-10-09T09:21:03.000Z</Time>
            <Position>
              <LatitudeDegrees>39.53080482780933380126953125</LatitudeDegrees>
              <LongitudeDegrees>-0.7329701073467731475830078125</LongitudeDegrees>
            </Position>
            <AltitudeMeters>332.399993896484375</AltitudeMeters>
            <DistanceMeters>52185.01762024</DistanceMeters>
          </Trackpoint>
          <Trackpoint>
            <Time>2021-10-09T09:21:06.000Z</Time>
            <Position>
              <LatitudeDegrees>39.5308189094066619873046875</LatitudeDegrees>
              <LongitudeDegrees>-0.7331290282309055328369140625</LongitudeDegrees>
            </Position>
            <AltitudeMeters>333.20001220703125</AltitudeMeters>
            <DistanceMeters>52198.74988467</DistanceMeters>
          </Trackpoint>
          <Trackpoint>
            <Time>2021-10-09T09:21:07.000Z</Time>
            <Position>
              <LatitudeDegrees>39.53082888387143611907958984375</LatitudeDegrees>
              <LongitudeDegrees>-0.733181498944759368896484375</LongitudeDegrees>
            </Position>
            <AltitudeMeters>333.600006103515625</AltitudeMeters>
            <DistanceMeters>52203.389680166</DistanceMeters>
          </Trackpoint>
          <Trackpoint>
            <Time>2021-10-09T09:21:10.000Z</Time>
            <Position>
              <LatitudeDegrees>39.53085805289447307586669921875</LatitudeDegrees>
              <LongitudeDegrees>-0.73334670625627040863037109375</LongitudeDegrees>
            </Position>
            <AltitudeMeters>334.79998779296875</AltitudeMeters>
            <DistanceMeters>52217.938391169</DistanceMeters>
          </Trackpoint>
          <Trackpoint>
            <Time>2021-10-09T09:21:12.000Z</Time>
            <Position>
              <LatitudeDegrees>39.530881606042385101318359375</LatitudeDegrees>
              <LongitudeDegrees>-0.73345382697880268096923828125</LongitudeDegrees>
            </Position>
            <AltitudeMeters>335.20001220703125</AltitudeMeters>
            <DistanceMeters>52227.500742034</DistanceMeters>
          </Trackpoint>
          <Trackpoint>
            <Time>2021-10-09T09:21:13.000Z</Time>
            <Position>
              <LatitudeDegrees>39.53088772483170032501220703125</LatitudeDegrees>
              <LongitudeDegrees>-0.73349825106561183929443359375</LongitudeDegrees>
            </Position>
            <AltitudeMeters>335.399993896484375</AltitudeMeters>
            <DistanceMeters>52231.373590724</DistanceMeters>
          </Trackpoint>
          <Trackpoint>
            <Time>2021-10-09T09:21:15.000Z</Time>
            <Position>
              <LatitudeDegrees>39.5309116132557392120361328125</LatitudeDegrees>
              <LongitudeDegrees>-0.73362163268029689788818359375</LongitudeDegrees>
            </Position>
            <AltitudeMeters>335.79998779296875</AltitudeMeters>
            <DistanceMeters>52242.293810022</DistanceMeters>
          </Trackpoint>
          <Trackpoint>
            <Time>2021-10-09T09:21:16.000Z</Time>
            <Position>
              <LatitudeDegrees>39.53092594631016254425048828125</LatitudeDegrees>
              <LongitudeDegrees>-0.73367561213672161102294921875</LongitudeDegrees>
            </Position>
            <AltitudeMeters>335.79998779296875</AltitudeMeters>
            <DistanceMeters>52247.194830665</DistanceMeters>
          </Trackpoint>
          <Trackpoint>
            <Time>2021-10-09T09:21:18.000Z</Time>
            <Position>
              <LatitudeDegrees>39.53094321303069591522216796875</LatitudeDegrees>
              <LongitudeDegrees>-0.73377133347094058990478515625</LongitudeDegrees>
            </Position>
            <AltitudeMeters>336.20001220703125</AltitudeMeters>
            <DistanceMeters>52255.634037554</DistanceMeters>
          </Trackpoint>
          <Trackpoint>
            <Time>2021-10-09T09:21:19.000Z</Time>
            <Position>
              <LatitudeDegrees>39.53094639815390110015869140625</LatitudeDegrees>
              <LongitudeDegrees>-0.73382196016609668731689453125</LongitudeDegrees>
            </Position>
            <AltitudeMeters>336.20001220703125</AltitudeMeters>
            <DistanceMeters>52259.994925192</DistanceMeters>
          </Trackpoint>
          <Trackpoint>
            <Time>2021-10-09T09:21:22.000Z</Time>
            <Position>
              <LatitudeDegrees>39.5309334062039852142333984375</LatitudeDegrees>
              <LongitudeDegrees>-0.7339735887944698333740234375</LongitudeDegrees>
            </Position>
            <AltitudeMeters>336.79998779296875</AltitudeMeters>
            <DistanceMeters>52273.091385476</DistanceMeters>
          </Trackpoint>
          <Trackpoint>
            <Time>2021-10-09T09:21:23.000Z</Time>
            <Position>
              <LatitudeDegrees>39.53092041425406932830810546875</LatitudeDegrees>
              <LongitudeDegrees>-0.73402203619480133056640625</LongitudeDegrees>
            </Position>
            <AltitudeMeters>337</AltitudeMeters>
            <DistanceMeters>52277.49349225</DistanceMeters>
          </Trackpoint>
          <Trackpoint>
            <Time>2021-10-09T09:21:24.000Z</Time>
            <Position>
              <LatitudeDegrees>39.53089644201099872589111328125</LatitudeDegrees>
              <LongitudeDegrees>-0.7340741716325283050537109375</LongitudeDegrees>
            </Position>
            <AltitudeMeters>337.20001220703125</AltitudeMeters>
            <DistanceMeters>52282.70352198</DistanceMeters>
          </Trackpoint>
          <Trackpoint>
            <Time>2021-10-09T09:21:25.000Z</Time>
            <Position>
              <LatitudeDegrees>39.53086693771183490753173828125</LatitudeDegrees>
              <LongitudeDegrees>-0.73411314748227596282958984375</LongitudeDegrees>
            </Position>
            <AltitudeMeters>337.399993896484375</AltitudeMeters>
            <DistanceMeters>52287.391720575</DistanceMeters>
          </Trackpoint>
          <Trackpoint>
            <Time>2021-10-09T09:21:28.000Z</Time>
            <Position>
              <LatitudeDegrees>39.53075587749481201171875</LatitudeDegrees>
              <LongitudeDegrees>-0.7341885007917881011962890625</LongitudeDegrees>
            </Position>
            <AltitudeMeters>338.399993896484375</AltitudeMeters>
            <DistanceMeters>52301.343506404</DistanceMeters>
          </Trackpoint>
          <Trackpoint>
            <Time>2021-10-09T09:21:31.000Z</Time>
            <Position>
              <LatitudeDegrees>39.53065839596092700958251953125</LatitudeDegrees>
              <LongitudeDegrees>-0.734251029789447784423828125</LongitudeDegrees>
            </Position>
            <AltitudeMeters>339.399993896484375</AltitudeMeters>
            <DistanceMeters>52313.44888044</DistanceMeters>
          </Trackpoint>
          <Trackpoint>
            <Time>2021-10-09T09:21:36.000Z</Time>
            <Position>
              <LatitudeDegrees>39.5305049233138561248779296875</LatitudeDegrees>
              <LongitudeDegrees>-0.73438907973468303680419921875</LongitudeDegrees>
            </Position>
            <AltitudeMeters>340.20001220703125</AltitudeMeters>
            <DistanceMeters>52334.239109853</DistanceMeters>
          </Trackpoint>
          <Trackpoint>
            <Time>2021-10-09T09:21:37.000Z</Time>
            <Position>
              <LatitudeDegrees>39.53047751449048519134521484375</LatitudeDegrees>
              <LongitudeDegrees>-0.73443920351564884185791015625</LongitudeDegrees>
            </Position>
            <AltitudeMeters>340.399993896484375</AltitudeMeters>
            <DistanceMeters>52339.514590457</DistanceMeters>
          </Trackpoint>
          <Trackpoint>
            <Time>2021-10-09T09:21:41.000Z</Time>
            <Position>
              <LatitudeDegrees>39.53040274791419506072998046875</LatitudeDegrees>
              <LongitudeDegrees>-0.7346262037754058837890625</LongitudeDegrees>
            </Position>
            <AltitudeMeters>341.600006103515625</AltitudeMeters>
            <DistanceMeters>52357.596154209</DistanceMeters>
          </Trackpoint>
          <Trackpoint>
            <Time>2021-10-09T09:21:43.000Z</Time>
            <Position>
              <LatitudeDegrees>39.5303677953779697418212890625</LatitudeDegrees>
              <LongitudeDegrees>-0.7347182370722293853759765625</LongitudeDegrees>
            </Position>
            <AltitudeMeters>341.79998779296875</AltitudeMeters>
            <DistanceMeters>52366.402418826</DistanceMeters>
          </Trackpoint>
          <Trackpoint>
            <Time>2021-10-09T09:21:49.000Z</Time>
            <Position>
              <LatitudeDegrees>39.5302816294133663177490234375</LatitudeDegrees>
              <LongitudeDegrees>-0.7350038923323154449462890625</LongitudeDegrees>
            </Position>
            <AltitudeMeters>342.600006103515625</AltitudeMeters>
            <DistanceMeters>52392.733222255</DistanceMeters>
          </Trackpoint>
          <Trackpoint>
            <Time>2021-10-09T09:21:51.000Z</Time>
            <Position>
              <LatitudeDegrees>39.5302631892263889312744140625</LatitudeDegrees>
              <LongitudeDegrees>-0.7350987754762172698974609375</LongitudeDegrees>
            </Position>
            <AltitudeMeters>343.20001220703125</AltitudeMeters>
            <DistanceMeters>52401.132745292</DistanceMeters>
          </Trackpoint>
          <Trackpoint>
            <Time>2021-10-09T09:21:53.000Z</Time>
            <Position>
              <LatitudeDegrees>39.53025489114224910736083984375</LatitudeDegrees>
              <LongitudeDegrees>-0.7351949997246265411376953125</LongitudeDegrees>
            </Position>
            <AltitudeMeters>343.79998779296875</AltitudeMeters>
            <DistanceMeters>52409.444188296</DistanceMeters>
          </Trackpoint>
          <Trackpoint>
            <Time>2021-10-09T09:21:56.000Z</Time>
            <Position>
              <LatitudeDegrees>39.53025841154158115386962890625</LatitudeDegrees>
              <LongitudeDegrees>-0.73534679599106311798095703125</LongitudeDegrees>
            </Position>
            <AltitudeMeters>344.79998779296875</AltitudeMeters>
            <DistanceMeters>52422.481216286</DistanceMeters>
          </Trackpoint>
          <Trackpoint>
            <Time>2021-10-09T09:21:58.000Z</Time>
            <Position>
              <LatitudeDegrees>39.53026025556027889251708984375</LatitudeDegrees>
              <LongitudeDegrees>-0.73543882928788661956787109375</LongitudeDegrees>
            </Position>
            <AltitudeMeters>345.399993896484375</AltitudeMeters>
            <DistanceMeters>52430.385017197</DistanceMeters>
          </Trackpoint>
          <Trackpoint>
            <Time>2021-10-09T09:22:00.000Z</Time>
            <Position>
              <LatitudeDegrees>39.530261345207691192626953125</LatitudeDegrees>
              <LongitudeDegrees>-0.7355262525379657745361328125</LongitudeDegrees>
            </Position>
            <AltitudeMeters>345.79998779296875</AltitudeMeters>
            <DistanceMeters>52437.891526173</DistanceMeters>
          </Trackpoint>
          <Trackpoint>
            <Time>2021-10-09T09:22:04.000Z</Time>
            <Position>
              <LatitudeDegrees>39.53025841154158115386962890625</LatitudeDegrees>
              <LongitudeDegrees>-0.73570520617067813873291015625</LongitudeDegrees>
            </Position>
            <AltitudeMeters>347</AltitudeMeters>
            <DistanceMeters>52453.25708437</DistanceMeters>
          </Trackpoint>
          <Trackpoint>
            <Time>2021-10-09T09:22:06.000Z</Time>
            <Position>
              <LatitudeDegrees>39.53025690279901027679443359375</LatitudeDegrees>
              <LongitudeDegrees>-0.73579338379204273223876953125</LongitudeDegrees>
            </Position>
            <AltitudeMeters>347.600006103515625</AltitudeMeters>
            <DistanceMeters>52460.82887117</DistanceMeters>
          </Trackpoint>
          <Trackpoint>
            <Time>2021-10-09T09:22:08.000Z</Time>
            <Position>
              <LatitudeDegrees>39.53026436269283294677734375</LatitudeDegrees>
              <LongitudeDegrees>-0.7358752749860286712646484375</LongitudeDegrees>
            </Position>
            <AltitudeMeters>348.20001220703125</AltitudeMeters>
            <DistanceMeters>52467.907564142</DistanceMeters>
          </Trackpoint>
          <Trackpoint>
            <Time>2021-10-09T09:22:11.000Z</Time>
            <Position>
              <LatitudeDegrees>39.53027014620602130889892578125</LatitudeDegrees>
              <LongitudeDegrees>-0.73600309900939464569091796875</LongitudeDegrees>
            </Position>
            <AltitudeMeters>349.20001220703125</AltitudeMeters>
            <DistanceMeters>52478.899489488</DistanceMeters>
          </Trackpoint>
          <Trackpoint>
            <Time>2021-10-09T09:22:12.000Z</Time>
            <Position>
              <LatitudeDegrees>39.53027567826211452484130859375</LatitudeDegrees>
              <LongitudeDegrees>-0.73604576289653778076171875</LongitudeDegrees>
            </Position>
            <AltitudeMeters>349.399993896484375</AltitudeMeters>
            <DistanceMeters>52482.612833901</DistanceMeters>
          </Trackpoint>
          <Trackpoint>
            <Time>2021-10-09T09:22:15.000Z</Time>
            <Position>
              <LatitudeDegrees>39.53033116646111011505126953125</LatitudeDegrees>
              <LongitudeDegrees>-0.73616914451122283935546875</LongitudeDegrees>
            </Position>
            <AltitudeMeters>350.20001220703125</AltitudeMeters>
            <DistanceMeters>52494.87348978</DistanceMeters>
          </Trackpoint>
          <Trackpoint>
            <Time>2021-10-09T09:22:16.000Z</Time>
            <Position>
              <LatitudeDegrees>39.53036628663539886474609375</LatitudeDegrees>
              <LongitudeDegrees>-0.73619730770587921142578125</LongitudeDegrees>
            </Position>
            <AltitudeMeters>350.399993896484375</AltitudeMeters>
            <DistanceMeters>52499.468304109</DistanceMeters>
          </Trackpoint>
          <Trackpoint>
            <Time>2021-10-09T09:22:17.000Z</Time>
            <Position>
              <LatitudeDegrees>39.53040677122771739959716796875</LatitudeDegrees>
              <LongitudeDegrees>-0.7362155802547931671142578125</LongitudeDegrees>
            </Position>
            <AltitudeMeters>350.600006103515625</AltitudeMeters>
            <DistanceMeters>52504.238607311</DistanceMeters>
          </Trackpoint>
          <Trackpoint>
            <Time>2021-10-09T09:22:20.000Z</Time>
            <Position>
              <LatitudeDegrees>39.53053032048046588897705078125</LatitudeDegrees>
              <LongitudeDegrees>-0.736272744834423065185546875</LongitudeDegrees>
            </Position>
            <AltitudeMeters>351.20001220703125</AltitudeMeters>
            <DistanceMeters>52518.839362247</DistanceMeters>
          </Trackpoint>
          <Trackpoint>
            <Time>2021-10-09T09:22:21.000Z</Time>
            <Position>
              <LatitudeDegrees>39.53057273291051387786865234375</LatitudeDegrees>
              <LongitudeDegrees>-0.73628942482173442840576171875</LongitudeDegrees>
            </Position>
            <AltitudeMeters>351.399993896484375</AltitudeMeters>
            <DistanceMeters>52523.771605747</DistanceMeters>
          </Trackpoint>
          <Trackpoint>
            <Time>2021-10-09T09:22:25.000Z</Time>
            <Position>
              <LatitudeDegrees>39.53073835931718349456787109375</LatitudeDegrees>
              <LongitudeDegrees>-0.73635421693325042724609375</LongitudeDegrees>
            </Position>
            <AltitudeMeters>352.399993896484375</AltitudeMeters>
            <DistanceMeters>52543.027122847</DistanceMeters>
          </Trackpoint>
          <Trackpoint>
            <Time>2021-10-09T09:22:30.000Z</Time>
            <Position>
              <LatitudeDegrees>39.53093164600431919097900390625</LatitudeDegrees>
              <LongitudeDegrees>-0.7364724017679691314697265625</LongitudeDegrees>
            </Position>
            <AltitudeMeters>353.600006103515625</AltitudeMeters>
            <DistanceMeters>52566.812672018</DistanceMeters>
          </Trackpoint>
          <Trackpoint>
            <Time>2021-10-09T09:22:32.000Z</Time>
            <Position>
              <LatitudeDegrees>39.5309873856604099273681640625</LatitudeDegrees>
              <LongitudeDegrees>-0.736548341810703277587890625</LongitudeDegrees>
            </Position>
            <AltitudeMeters>354</AltitudeMeters>
            <DistanceMeters>52575.812158427</DistanceMeters>
          </Trackpoint>
          <Trackpoint>
            <Time>2021-10-09T09:22:35.000Z</Time>
            <Position>
              <LatitudeDegrees>39.5310628227889537811279296875</LatitudeDegrees>
              <LongitudeDegrees>-0.7366708852350711822509765625</LongitudeDegrees>
            </Position>
            <AltitudeMeters>354.399993896484375</AltitudeMeters>
            <DistanceMeters>52589.271779284</DistanceMeters>
          </Trackpoint>
          <Trackpoint>
            <Time>2021-10-09T09:22:36.000Z</Time>
            <Position>
              <LatitudeDegrees>39.53108989633619785308837890625</LatitudeDegrees>
              <LongitudeDegrees>-0.7367060892283916473388671875</LongitudeDegrees>
            </Position>
            <AltitudeMeters>354.600006103515625</AltitudeMeters>
            <DistanceMeters>52593.538468177</DistanceMeters>
          </Trackpoint>
          <Trackpoint>
            <Time>2021-10-09T09:22:40.000Z</Time>
            <Position>
              <LatitudeDegrees>39.5311895571649074554443359375</LatitudeDegrees>
              <LongitudeDegrees>-0.736860148608684539794921875</LongitudeDegrees>
            </Position>
            <AltitudeMeters>356</AltitudeMeters>
            <DistanceMeters>52610.799358716</DistanceMeters>
          </Trackpoint>
          <Trackpoint>
            <Time>2021-10-09T09:22:41.000Z</Time>
            <Position>
              <LatitudeDegrees>39.53121428377926349639892578125</LatitudeDegrees>
              <LongitudeDegrees>-0.7368980348110198974609375</LongitudeDegrees>
            </Position>
            <AltitudeMeters>357.20001220703125</AltitudeMeters>
            <DistanceMeters>52615.059693638</DistanceMeters>
          </Trackpoint>
          <Trackpoint>
            <Time>2021-10-09T09:22:42.000Z</Time>
            <Position>
              <LatitudeDegrees>39.53123423270881175994873046875</LatitudeDegrees>
              <LongitudeDegrees>-0.73693835176527500152587890625</LongitudeDegrees>
            </Position>
            <AltitudeMeters>357.79998779296875</AltitudeMeters>
            <DistanceMeters>52619.172275939</DistanceMeters>
          </Trackpoint>
          <Trackpoint>
            <Time>2021-10-09T09:22:44.000Z</Time>
            <Position>
              <LatitudeDegrees>39.53125678002834320068359375</LatitudeDegrees>
              <LongitudeDegrees>-0.7370309717953205108642578125</LongitudeDegrees>
            </Position>
            <AltitudeMeters>358.399993896484375</AltitudeMeters>
            <DistanceMeters>52627.509753283</DistanceMeters>
          </Trackpoint>
          <Trackpoint>
            <Time>2021-10-09T09:22:45.000Z</Time>
            <Position>
              <LatitudeDegrees>39.53125032596290111541748046875</LatitudeDegrees>
              <LongitudeDegrees>-0.7370826043188571929931640625</LongitudeDegrees>
            </Position>
            <AltitudeMeters>358.600006103515625</AltitudeMeters>
            <DistanceMeters>52631.999199866</DistanceMeters>
          </Trackpoint>
          <Trackpoint>
            <Time>2021-10-09T09:22:50.000Z</Time>
            <Position>
              <LatitudeDegrees>39.53114957548677921295166015625</LatitudeDegrees>
              <LongitudeDegrees>-0.737301371991634368896484375</LongitudeDegrees>
            </Position>
            <AltitudeMeters>358.79998779296875</AltitudeMeters>
            <DistanceMeters>52653.872483576</DistanceMeters>
          </Trackpoint>
          <Trackpoint>
            <Time>2021-10-09T09:22:53.000Z</Time>
            <Position>
              <LatitudeDegrees>39.5310748927295207977294921875</LatitudeDegrees>
              <LongitudeDegrees>-0.737428776919841766357421875</LongitudeDegrees>
            </Position>
            <AltitudeMeters>359</AltitudeMeters>
            <DistanceMeters>52667.610007647</DistanceMeters>
          </Trackpoint>
          <Trackpoint>
            <Time>2021-10-09T09:22:56.000Z</Time>
            <Position>
              <LatitudeDegrees>39.53097288496792316436767578125</LatitudeDegrees>
              <LongitudeDegrees>-0.73749792762100696563720703125</LongitudeDegrees>
            </Position>
            <AltitudeMeters>359.20001220703125</AltitudeMeters>
            <DistanceMeters>52680.422061721</DistanceMeters>
          </Trackpoint>
          <Trackpoint>
            <Time>2021-10-09T09:22:57.000Z</Time>
            <Position>
              <LatitudeDegrees>39.5309369266033172607421875</LatitudeDegrees>
              <LongitudeDegrees>-0.73750446550548076629638671875</LongitudeDegrees>
            </Position>
            <AltitudeMeters>359.600006103515625</AltitudeMeters>
            <DistanceMeters>52684.46265304</DistanceMeters>
          </Trackpoint>
          <Trackpoint>
            <Time>2021-10-09T09:23:01.000Z</Time>
            <Position>
              <LatitudeDegrees>39.53078605234622955322265625</LatitudeDegrees>
              <LongitudeDegrees>-0.73748267255723476409912109375</LongitudeDegrees>
            </Position>
            <AltitudeMeters>360.399993896484375</AltitudeMeters>
            <DistanceMeters>52701.359247279</DistanceMeters>
          </Trackpoint>
          <Trackpoint>
            <Time>2021-10-09T09:23:02.000Z</Time>
            <Position>
              <LatitudeDegrees>39.53074640594422817230224609375</LatitudeDegrees>
              <LongitudeDegrees>-0.73746875859797000885009765625</LongitudeDegrees>
            </Position>
            <AltitudeMeters>361</AltitudeMeters>
            <DistanceMeters>52705.930417467</DistanceMeters>
          </Trackpoint>
          <Trackpoint>
            <Time>2021-10-09T09:23:05.000Z</Time>
            <Position>
              <LatitudeDegrees>39.53061045147478580474853515625</LatitudeDegrees>
              <LongitudeDegrees>-0.73743405751883983612060546875</LongitudeDegrees>
            </Position>
            <AltitudeMeters>361.600006103515625</AltitudeMeters>
            <DistanceMeters>52721.352875557</DistanceMeters>
          </Trackpoint>
          <Trackpoint>
            <Time>2021-10-09T09:23:07.000Z</Time>
            <Position>
              <LatitudeDegrees>39.530516825616359710693359375</LatitudeDegrees>
              <LongitudeDegrees>-0.73741075582802295684814453125</LongitudeDegrees>
            </Position>
            <AltitudeMeters>361.79998779296875</AltitudeMeters>
            <DistanceMeters>52731.964002885</DistanceMeters>
          </Trackpoint>
          <Trackpoint>
            <Time>2021-10-09T09:23:08.000Z</Time>
            <Position>
              <LatitudeDegrees>39.5304715633392333984375</LatitudeDegrees>
              <LongitudeDegrees>-0.73740002699196338653564453125</LongitudeDegrees>
            </Position>
            <AltitudeMeters>362</AltitudeMeters>
            <DistanceMeters>52737.084876052</DistanceMeters>
          </Trackpoint>
          <Trackpoint>
            <Time>2021-10-09T09:23:13.000Z</Time>
            <Position>
              <LatitudeDegrees>39.5302474312484264373779296875</LatitudeDegrees>
              <LongitudeDegrees>-0.73734353296458721160888671875</LongitudeDegrees>
            </Position>
            <AltitudeMeters>362.600006103515625</AltitudeMeters>
            <DistanceMeters>52762.498260269</DistanceMeters>
          </Trackpoint>
          <Trackpoint>
            <Time>2021-10-09T09:23:15.000Z</Time>
            <Position>
              <LatitudeDegrees>39.530160091817378997802734375</LatitudeDegrees>
              <LongitudeDegrees>-0.7373193092644214630126953125</LongitudeDegrees>
            </Position>
            <AltitudeMeters>362.79998779296875</AltitudeMeters>
            <DistanceMeters>52772.439344546</DistanceMeters>
          </Trackpoint>
          <Trackpoint>
            <Time>2021-10-09T09:23:17.000Z</Time>
            <Position>
              <LatitudeDegrees>39.53007149510085582733154296875</LatitudeDegrees>
              <LongitudeDegrees>-0.73729709722101688385009765625</LongitudeDegrees>
            </Position>
            <AltitudeMeters>362.79998779296875</AltitudeMeters>
            <DistanceMeters>52782.482548909</DistanceMeters>
          </Trackpoint>
          <Trackpoint>
            <Time>2021-10-09T09:23:23.000Z</Time>
            <Position>
              <LatitudeDegrees>39.529789276421070098876953125</LatitudeDegrees>
              <LongitudeDegrees>-0.73726625181734561920166015625</LongitudeDegrees>
            </Position>
            <AltitudeMeters>363.600006103515625</AltitudeMeters>
            <DistanceMeters>52814.00536084</DistanceMeters>
          </Trackpoint>
          <Trackpoint>
            <Time>2021-10-09T09:23:27.000Z</Time>
            <Position>
              <LatitudeDegrees>39.52957771718502044677734375</LatitudeDegrees>
              <LongitudeDegrees>-0.73731168173253536224365234375</LongitudeDegrees>
            </Position>
            <AltitudeMeters>364.399993896484375</AltitudeMeters>
            <DistanceMeters>52837.872961735</DistanceMeters>
          </Trackpoint>
          <Trackpoint>
            <Time>2021-10-09T09:23:29.000Z</Time>
            <Position>
              <LatitudeDegrees>39.52945609577000141143798828125</LatitudeDegrees>
              <LongitudeDegrees>-0.737334229052066802978515625</LongitudeDegrees>
            </Position>
            <AltitudeMeters>365</AltitudeMeters>
            <DistanceMeters>52851.547566775</DistanceMeters>
          </Trackpoint>
          <Trackpoint>
            <Time>2021-10-09T09:23:34.000Z</Time>
            <Position>
              <LatitudeDegrees>39.52910573221743106842041015625</LatitudeDegrees>
              <LongitudeDegrees>-0.7374061457812786102294921875</LongitudeDegrees>
            </Position>
            <AltitudeMeters>364.399993896484375</AltitudeMeters>
            <DistanceMeters>52891.029422686</DistanceMeters>
          </Trackpoint>
          <Trackpoint>
            <Time>2021-10-09T09:23:35.000Z</Time>
            <Position>
              <LatitudeDegrees>39.52903188765048980712890625</LatitudeDegrees>
              <LongitudeDegrees>-0.73742047883570194244384765625</LongitudeDegrees>
            </Position>
            <AltitudeMeters>364</AltitudeMeters>
            <DistanceMeters>52899.339779155</DistanceMeters>
          </Trackpoint>
          <Trackpoint>
            <Time>2021-10-09T09:23:37.000Z</Time>
            <Position>
              <LatitudeDegrees>39.528883360326290130615234375</LatitudeDegrees>
              <LongitudeDegrees>-0.7374487258493900299072265625</LongitudeDegrees>
            </Position>
            <AltitudeMeters>363.399993896484375</AltitudeMeters>
            <DistanceMeters>52916.048275297</DistanceMeters>
          </Trackpoint>
          <Trackpoint>
            <Time>2021-10-09T09:23:40.000Z</Time>
            <Position>
              <LatitudeDegrees>39.52865302562713623046875</LatitudeDegrees>
              <LongitudeDegrees>-0.73748879134654998779296875</LongitudeDegrees>
            </Position>
            <AltitudeMeters>362.20001220703125</AltitudeMeters>
            <DistanceMeters>52941.91474943</DistanceMeters>
          </Trackpoint>
          <Trackpoint>
            <Time>2021-10-09T09:23:41.000Z</Time>
            <Position>
              <LatitudeDegrees>39.52855571173131465911865234375</LatitudeDegrees>
              <LongitudeDegrees>-0.7375060580670833587646484375</LongitudeDegrees>
            </Position>
            <AltitudeMeters>361.79998779296875</AltitudeMeters>
            <DistanceMeters>52952.846952398</DistanceMeters>
          </Trackpoint>
          <Trackpoint>
            <Time>2021-10-09T09:23:44.000Z</Time>
            <Position>
              <LatitudeDegrees>39.52832437120378017425537109375</LatitudeDegrees>
              <LongitudeDegrees>-0.7375573553144931793212890625</LongitudeDegrees>
            </Position>
            <AltitudeMeters>361.399993896484375</AltitudeMeters>
            <DistanceMeters>52978.96944877</DistanceMeters>
          </Trackpoint>
          <Trackpoint>
            <Time>2021-10-09T09:23:46.000Z</Time>
            <Position>
              <LatitudeDegrees>39.5281576551496982574462890625</LatitudeDegrees>
              <LongitudeDegrees>-0.7376136817038059234619140625</LongitudeDegrees>
            </Position>
            <AltitudeMeters>361</AltitudeMeters>
            <DistanceMeters>52998.144841405</DistanceMeters>
          </Trackpoint>
          <Trackpoint>
            <Time>2021-10-09T09:23:47.000Z</Time>
            <Position>
              <LatitudeDegrees>39.52808163128793239593505859375</LatitudeDegrees>
              <LongitudeDegrees>-0.73766238056123256683349609375</LongitudeDegrees>
            </Position>
            <AltitudeMeters>360.600006103515625</AltitudeMeters>
            <DistanceMeters>53007.582673468</DistanceMeters>
          </Trackpoint>
          <Trackpoint>
            <Time>2021-10-09T09:23:49.000Z</Time>
            <Position>
              <LatitudeDegrees>39.527948610484600067138671875</LatitudeDegrees>
              <LongitudeDegrees>-0.737791545689105987548828125</LongitudeDegrees>
            </Position>
            <AltitudeMeters>360</AltitudeMeters>
            <DistanceMeters>53026.080447837</DistanceMeters>
          </Trackpoint>
          <Trackpoint>
            <Time>2021-10-09T09:23:52.000Z</Time>
            <Position>
              <LatitudeDegrees>39.52775138430297374725341796875</LatitudeDegrees>
              <LongitudeDegrees>-0.73797427117824554443359375</LongitudeDegrees>
            </Position>
            <AltitudeMeters>359.20001220703125</AltitudeMeters>
            <DistanceMeters>53053.061174524</DistanceMeters>
          </Trackpoint>
          <Trackpoint>
            <Time>2021-10-09T09:23:53.000Z</Time>
            <Position>
              <LatitudeDegrees>39.52767712064087390899658203125</LatitudeDegrees>
              <LongitudeDegrees>-0.7380096428096294403076171875</LongitudeDegrees>
            </Position>
            <AltitudeMeters>358.79998779296875</AltitudeMeters>
            <DistanceMeters>53061.866413666</DistanceMeters>
          </Trackpoint>
          <Trackpoint>
            <Time>2021-10-09T09:23:54.000Z</Time>
            <Position>
              <LatitudeDegrees>39.5276014320552349090576171875</LatitudeDegrees>
              <LongitudeDegrees>-0.73802615515887737274169921875</LongitudeDegrees>
            </Position>
            <AltitudeMeters>358.600006103515625</AltitudeMeters>
            <DistanceMeters>53070.409310002</DistanceMeters>
          </Trackpoint>
          <Trackpoint>
            <Time>2021-10-09T09:23:55.000Z</Time>
            <Position>
              <LatitudeDegrees>39.52752457000315189361572265625</LatitudeDegrees>
              <LongitudeDegrees>-0.73802581988275051116943359375</LongitudeDegrees>
            </Position>
            <AltitudeMeters>358.399993896484375</AltitudeMeters>
            <DistanceMeters>53078.96382574</DistanceMeters>
          </Trackpoint>
          <Trackpoint>
            <Time>2021-10-09T09:24:02.000Z</Time>
            <Position>
              <LatitudeDegrees>39.52699382789433002471923828125</LatitudeDegrees>
              <LongitudeDegrees>-0.73794770054519176483154296875</LongitudeDegrees>
            </Position>
            <AltitudeMeters>358.20001220703125</AltitudeMeters>
            <DistanceMeters>53138.415928492</DistanceMeters>
          </Trackpoint>
          <Trackpoint>
            <Time>2021-10-09T09:24:04.000Z</Time>
            <Position>
              <LatitudeDegrees>39.52684546820819377899169921875</LatitudeDegrees>
              <LongitudeDegrees>-0.7379305176436901092529296875</LongitudeDegrees>
            </Position>
            <AltitudeMeters>358.399993896484375</AltitudeMeters>
            <DistanceMeters>53154.994209665</DistanceMeters>
          </Trackpoint>
          <Trackpoint>
            <Time>2021-10-09T09:24:06.000Z</Time>
            <Position>
              <LatitudeDegrees>39.526701383292675018310546875</LatitudeDegrees>
              <LongitudeDegrees>-0.73795708827674388885498046875</LongitudeDegrees>
            </Position>
            <AltitudeMeters>358.399993896484375</AltitudeMeters>
            <DistanceMeters>53171.19285039</DistanceMeters>
          </Trackpoint>
          <Trackpoint>
            <Time>2021-10-09T09:24:12.000Z</Time>
            <Position>
              <LatitudeDegrees>39.52631615102291107177734375</LatitudeDegrees>
              <LongitudeDegrees>-0.73815959505736827850341796875</LongitudeDegrees>
            </Position>
            <AltitudeMeters>358.79998779296875</AltitudeMeters>
            <DistanceMeters>53217.46041983</DistanceMeters>
          </Trackpoint>
          <Trackpoint>
            <Time>2021-10-09T09:24:19.000Z</Time>
            <Position>
              <LatitudeDegrees>39.52587492763996124267578125</LatitudeDegrees>
              <LongitudeDegrees>-0.73840686120092868804931640625</LongitudeDegrees>
            </Position>
            <AltitudeMeters>359.399993896484375</AltitudeMeters>
            <DistanceMeters>53270.961219554</DistanceMeters>
          </Trackpoint>
          <Trackpoint>
            <Time>2021-10-09T09:24:20.000Z</Time>
            <Position>
              <LatitudeDegrees>39.5258093811571598052978515625</LatitudeDegrees>
              <LongitudeDegrees>-0.7384267263114452362060546875</LongitudeDegrees>
            </Position>
            <AltitudeMeters>359.399993896484375</AltitudeMeters>
            <DistanceMeters>53278.453279029</DistanceMeters>
          </Trackpoint>
          <Trackpoint>
            <Time>2021-10-09T09:24:26.000Z</Time>
            <Position>
              <LatitudeDegrees>39.52538399957120418548583984375</LatitudeDegrees>
              <LongitudeDegrees>-0.73846285231411457061767578125</LongitudeDegrees>
            </Position>
            <AltitudeMeters>359.20001220703125</AltitudeMeters>
            <DistanceMeters>53325.900546683</DistanceMeters>
          </Trackpoint>
          <Trackpoint>
            <Time>2021-10-09T09:24:30.000Z</Time>
            <Position>
              <LatitudeDegrees>39.52510387636721134185791015625</LatitudeDegrees>
              <LongitudeDegrees>-0.73845296166837215423583984375</LongitudeDegrees>
            </Position>
            <AltitudeMeters>359.399993896484375</AltitudeMeters>
            <DistanceMeters>53357.090451065</DistanceMeters>
          </Trackpoint>
          <Trackpoint>
            <Time>2021-10-09T09:24:31.000Z</Time>
            <Position>
              <LatitudeDegrees>39.52503413893282413482666015625</LatitudeDegrees>
              <LongitudeDegrees>-0.73843167163431644439697265625</LongitudeDegrees>
            </Position>
            <AltitudeMeters>359.399993896484375</AltitudeMeters>
            <DistanceMeters>53365.064772247</DistanceMeters>
          </Trackpoint>
          <Trackpoint>
            <Time>2021-10-09T09:24:32.000Z</Time>
            <Position>
              <LatitudeDegrees>39.52496641315519809722900390625</LatitudeDegrees>
              <LongitudeDegrees>-0.73839604854583740234375</LongitudeDegrees>
            </Position>
            <AltitudeMeters>359.399993896484375</AltitudeMeters>
            <DistanceMeters>53373.199969249</DistanceMeters>
          </Trackpoint>
          <Trackpoint>
            <Time>2021-10-09T09:24:35.000Z</Time>
            <Position>
              <LatitudeDegrees>39.52476222999393939971923828125</LatitudeDegrees>
              <LongitudeDegrees>-0.73824190534651279449462890625</LongitudeDegrees>
            </Position>
            <AltitudeMeters>359.20001220703125</AltitudeMeters>
            <DistanceMeters>53399.498515878</DistanceMeters>
          </Trackpoint>
          <Trackpoint>
            <Time>2021-10-09T09:24:38.000Z</Time>
            <Position>
              <LatitudeDegrees>39.52455285005271434783935546875</LatitudeDegrees>
              <LongitudeDegrees>-0.73808365501463413238525390625</LongitudeDegrees>
            </Position>
            <AltitudeMeters>359</AltitudeMeters>
            <DistanceMeters>53426.47405443</DistanceMeters>
          </Trackpoint>
          <Trackpoint>
            <Time>2021-10-09T09:24:40.000Z</Time>
            <Position>
              <LatitudeDegrees>39.524390995502471923828125</LatitudeDegrees>
              <LongitudeDegrees>-0.7380473613739013671875</LongitudeDegrees>
            </Position>
            <AltitudeMeters>358.79998779296875</AltitudeMeters>
            <DistanceMeters>53444.756265716</DistanceMeters>
          </Trackpoint>
          <Trackpoint>
            <Time>2021-10-09T09:24:42.000Z</Time>
            <Position>
              <LatitudeDegrees>39.52423819340765476226806640625</LatitudeDegrees>
              <LongitudeDegrees>-0.7381165958940982818603515625</LongitudeDegrees>
            </Position>
            <AltitudeMeters>358.399993896484375</AltitudeMeters>
            <DistanceMeters>53462.772288243</DistanceMeters>
          </Trackpoint>
          <Trackpoint>
            <Time>2021-10-09T09:24:43.000Z</Time>
            <Position>
              <LatitudeDegrees>39.52418320812284946441650390625</LatitudeDegrees>
              <LongitudeDegrees>-0.73819295503199100494384765625</LongitudeDegrees>
            </Position>
            <AltitudeMeters>358.20001220703125</AltitudeMeters>
            <DistanceMeters>53471.740615338</DistanceMeters>
          </Trackpoint>
          <Trackpoint>
            <Time>2021-10-09T09:24:44.000Z</Time>
            <Position>
              <LatitudeDegrees>39.52416057698428630828857421875</LatitudeDegrees>
              <LongitudeDegrees>-0.73828649707138538360595703125</LongitudeDegrees>
            </Position>
            <AltitudeMeters>358</AltitudeMeters>
            <DistanceMeters>53480.156785467</DistanceMeters>
          </Trackpoint>
          <Trackpoint>
            <Time>2021-10-09T09:24:45.000Z</Time>
            <Position>
              <LatitudeDegrees>39.5241598226130008697509765625</LatitudeDegrees>
              <LongitudeDegrees>-0.73839831165969371795654296875</LongitudeDegrees>
            </Position>
            <AltitudeMeters>357.600006103515625</AltitudeMeters>
            <DistanceMeters>53489.756835476</DistanceMeters>
          </Trackpoint>
          <Trackpoint>
            <Time>2021-10-09T09:24:49.000Z</Time>
            <Position>
              <LatitudeDegrees>39.52420257031917572021484375</LatitudeDegrees>
              <LongitudeDegrees>-0.738879181444644927978515625</LongitudeDegrees>
            </Position>
            <AltitudeMeters>356.399993896484375</AltitudeMeters>
            <DistanceMeters>53531.314267785</DistanceMeters>
          </Trackpoint>
          <Trackpoint>
            <Time>2021-10-09T09:24:50.000Z</Time>
            <Position>
              <LatitudeDegrees>39.524216316640377044677734375</LatitudeDegrees>
              <LongitudeDegrees>-0.73900180868804454803466796875</LongitudeDegrees>
            </Position>
            <AltitudeMeters>356</AltitudeMeters>
            <DistanceMeters>53541.952167859</DistanceMeters>
          </Trackpoint>
          <Trackpoint>
            <Time>2021-10-09T09:24:52.000Z</Time>
            <Position>
              <LatitudeDegrees>39.5242386125028133392333984375</LatitudeDegrees>
              <LongitudeDegrees>-0.73924488388001918792724609375</LongitudeDegrees>
            </Position>
            <AltitudeMeters>355</AltitudeMeters>
            <DistanceMeters>53562.967900986</DistanceMeters>
          </Trackpoint>
          <Trackpoint>
            <Time>2021-10-09T09:24:55.000Z</Time>
            <Position>
              <LatitudeDegrees>39.524263255298137664794921875</LatitudeDegrees>
              <LongitudeDegrees>-0.73959290049970149993896484375</LongitudeDegrees>
            </Position>
            <AltitudeMeters>354.20001220703125</AltitudeMeters>
            <DistanceMeters>53592.971673763</DistanceMeters>
          </Trackpoint>
          <Trackpoint>
            <Time>2021-10-09T09:24:56.000Z</Time>
            <Position>
              <LatitudeDegrees>39.5242488384246826171875</LatitudeDegrees>
              <LongitudeDegrees>-0.739707648754119873046875</LongitudeDegrees>
            </Position>
            <AltitudeMeters>354</AltitudeMeters>
            <DistanceMeters>53602.953098181</DistanceMeters>
          </Trackpoint>
          <Trackpoint>
            <Time>2021-10-09T09:24:57.000Z</Time>
            <Position>
              <LatitudeDegrees>39.5242235250771045684814453125</LatitudeDegrees>
              <LongitudeDegrees>-0.73981803841888904571533203125</LongitudeDegrees>
            </Position>
            <AltitudeMeters>353.600006103515625</AltitudeMeters>
            <DistanceMeters>53612.839987353</DistanceMeters>
          </Trackpoint>
          <Trackpoint>
            <Time>2021-10-09T09:25:00.000Z</Time>
            <Position>
              <LatitudeDegrees>39.52411732636392116546630859375</LatitudeDegrees>
              <LongitudeDegrees>-0.7401305995881557464599609375</LongitudeDegrees>
            </Position>
            <AltitudeMeters>353</AltitudeMeters>
            <DistanceMeters>53642.16246608</DistanceMeters>
          </Trackpoint>
          <Trackpoint>
            <Time>2021-10-09T09:25:07.000Z</Time>
            <Position>
              <LatitudeDegrees>39.52385631389915943145751953125</LatitudeDegrees>
              <LongitudeDegrees>-0.74083141051232814788818359375</LongitudeDegrees>
            </Position>
            <AltitudeMeters>352.79998779296875</AltitudeMeters>
            <DistanceMeters>53708.976180769</DistanceMeters>
          </Trackpoint>
          <Trackpoint>
            <Time>2021-10-09T09:25:09.000Z</Time>
            <Position>
              <LatitudeDegrees>39.52376545406877994537353515625</LatitudeDegrees>
              <LongitudeDegrees>-0.7410133816301822662353515625</LongitudeDegrees>
            </Position>
            <AltitudeMeters>352.79998779296875</AltitudeMeters>
            <DistanceMeters>53727.586866197</DistanceMeters>
          </Trackpoint>
          <Trackpoint>
            <Time>2021-10-09T09:25:11.000Z</Time>
            <Position>
              <LatitudeDegrees>39.523643665015697479248046875</LatitudeDegrees>
              <LongitudeDegrees>-0.74115796945989131927490234375</LongitudeDegrees>
            </Position>
            <AltitudeMeters>352.79998779296875</AltitudeMeters>
            <DistanceMeters>53745.967597414</DistanceMeters>
          </Trackpoint>
          <Trackpoint>
            <Time>2021-10-09T09:25:17.000Z</Time>
            <Position>
              <LatitudeDegrees>39.523191712796688079833984375</LatitudeDegrees>
              <LongitudeDegrees>-0.741545297205448150634765625</LongitudeDegrees>
            </Position>
            <AltitudeMeters>352.20001220703125</AltitudeMeters>
            <DistanceMeters>53806.26876807</DistanceMeters>
          </Trackpoint>
          <Trackpoint>
            <Time>2021-10-09T09:25:18.000Z</Time>
            <Position>
              <LatitudeDegrees>39.52311317436397075653076171875</LatitudeDegrees>
              <LongitudeDegrees>-0.74161293916404247283935546875</LongitudeDegrees>
            </Position>
            <AltitudeMeters>352</AltitudeMeters>
            <DistanceMeters>53816.763090931</DistanceMeters>
          </Trackpoint>
          <Trackpoint>
            <Time>2021-10-09T09:25:21.000Z</Time>
            <Position>
              <LatitudeDegrees>39.522883258759975433349609375</LatitudeDegrees>
              <LongitudeDegrees>-0.74181058444082736968994140625</LongitudeDegrees>
            </Position>
            <AltitudeMeters>351.20001220703125</AltitudeMeters>
            <DistanceMeters>53847.467897251</DistanceMeters>
          </Trackpoint>
          <Trackpoint>
            <Time>2021-10-09T09:25:24.000Z</Time>
            <Position>
              <LatitudeDegrees>39.522655941545963287353515625</LatitudeDegrees>
              <LongitudeDegrees>-0.7420114986598491668701171875</LongitudeDegrees>
            </Position>
            <AltitudeMeters>350</AltitudeMeters>
            <DistanceMeters>53878.08950952</DistanceMeters>
          </Trackpoint>
          <Trackpoint>
            <Time>2021-10-09T09:25:25.000Z</Time>
            <Position>
              <LatitudeDegrees>39.522582851350307464599609375</LatitudeDegrees>
              <LongitudeDegrees>-0.74208685196936130523681640625</LongitudeDegrees>
            </Position>
            <AltitudeMeters>350</AltitudeMeters>
            <DistanceMeters>53888.483538314</DistanceMeters>
          </Trackpoint>
          <Trackpoint>
            <Time>2021-10-09T09:25:27.000Z</Time>
            <Position>
              <LatitudeDegrees>39.52246994711458683013916015625</LatitudeDegrees>
              <LongitudeDegrees>-0.74228650890290737152099609375</LongitudeDegrees>
            </Position>
            <AltitudeMeters>349.399993896484375</AltitudeMeters>
            <DistanceMeters>53909.738318821</DistanceMeters>
          </Trackpoint>
          <Trackpoint>
            <Time>2021-10-09T09:25:28.000Z</Time>
            <Position>
              <LatitudeDegrees>39.52242292463779449462890625</LatitudeDegrees>
              <LongitudeDegrees>-0.7424010895192623138427734375</LongitudeDegrees>
            </Position>
            <AltitudeMeters>348.79998779296875</AltitudeMeters>
            <DistanceMeters>53920.881593976</DistanceMeters>
          </Trackpoint>
          <Trackpoint>
            <Time>2021-10-09T09:25:31.000Z</Time>
            <Position>
              <LatitudeDegrees>39.52228889800608158111572265625</LatitudeDegrees>
              <LongitudeDegrees>-0.7427712343633174896240234375</LongitudeDegrees>
            </Position>
            <AltitudeMeters>347.399993896484375</AltitudeMeters>
            <DistanceMeters>53955.987760005</DistanceMeters>
          </Trackpoint>
          <Trackpoint>
            <Time>2021-10-09T09:25:33.000Z</Time>
            <Position>
              <LatitudeDegrees>39.5221875607967376708984375</LatitudeDegrees>
              <LongitudeDegrees>-0.7430161535739898681640625</LongitudeDegrees>
            </Position>
            <AltitudeMeters>346.79998779296875</AltitudeMeters>
            <DistanceMeters>53979.849495903</DistanceMeters>
          </Trackpoint>
          <Trackpoint>
            <Time>2021-10-09T09:25:34.000Z</Time>
            <Position>
              <LatitudeDegrees>39.52212729491293430328369140625</LatitudeDegrees>
              <LongitudeDegrees>-0.74313291348516941070556640625</LongitudeDegrees>
            </Position>
            <AltitudeMeters>346.399993896484375</AltitudeMeters>
            <DistanceMeters>53991.911526896</DistanceMeters>
          </Trackpoint>
          <Trackpoint>
            <Time>2021-10-09T09:25:36.000Z</Time>
            <Position>
              <LatitudeDegrees>39.52198346145451068878173828125</LatitudeDegrees>
              <LongitudeDegrees>-0.7433433830738067626953125</LongitudeDegrees>
            </Position>
            <AltitudeMeters>345</AltitudeMeters>
            <DistanceMeters>54016.053175428</DistanceMeters>
          </Trackpoint>
          <Trackpoint>
            <Time>2021-10-09T09:25:37.000Z</Time>
            <Position>
              <LatitudeDegrees>39.52191020362079143524169921875</LatitudeDegrees>
              <LongitudeDegrees>-0.74344329535961151123046875</LongitudeDegrees>
            </Position>
            <AltitudeMeters>344.600006103515625</AltitudeMeters>
            <DistanceMeters>54027.88848471</DistanceMeters>
          </Trackpoint>
          <Trackpoint>
            <Time>2021-10-09T09:25:39.000Z</Time>
            <Position>
              <LatitudeDegrees>39.5217636041343212127685546875</LatitudeDegrees>
              <LongitudeDegrees>-0.74362861923873424530029296875</LongitudeDegrees>
            </Position>
            <AltitudeMeters>343.79998779296875</AltitudeMeters>
            <DistanceMeters>54050.67905287</DistanceMeters>
          </Trackpoint>
          <Trackpoint>
            <Time>2021-10-09T09:25:40.000Z</Time>
            <Position>
              <LatitudeDegrees>39.52169160358607769012451171875</LatitudeDegrees>
              <LongitudeDegrees>-0.7437170483171939849853515625</LongitudeDegrees>
            </Position>
            <AltitudeMeters>343.600006103515625</AltitudeMeters>
            <DistanceMeters>54061.718523495</DistanceMeters>
          </Trackpoint>
          <Trackpoint>
            <Time>2021-10-09T09:25:41.000Z</Time>
            <Position>
              <LatitudeDegrees>39.5216261409223079681396484375</LatitudeDegrees>
              <LongitudeDegrees>-0.7438132725656032562255859375</LongitudeDegrees>
            </Position>
            <AltitudeMeters>343.399993896484375</AltitudeMeters>
            <DistanceMeters>54072.733837253</DistanceMeters>
          </Trackpoint>
          <Trackpoint>
            <Time>2021-10-09T09:25:42.000Z</Time>
            <Position>
              <LatitudeDegrees>39.52157191000878810882568359375</LatitudeDegrees>
              <LongitudeDegrees>-0.74391947127878665924072265625</LongitudeDegrees>
            </Position>
            <AltitudeMeters>343</AltitudeMeters>
            <DistanceMeters>54083.668105044</DistanceMeters>
          </Trackpoint>
          <Trackpoint>
            <Time>2021-10-09T09:25:43.000Z</Time>
            <Position>
              <LatitudeDegrees>39.5215245522558689117431640625</LatitudeDegrees>
              <LongitudeDegrees>-0.74403296224772930145263671875</LongitudeDegrees>
            </Position>
            <AltitudeMeters>342.79998779296875</AltitudeMeters>
            <DistanceMeters>54094.746769179</DistanceMeters>
          </Trackpoint>
          <Trackpoint>
            <Time>2021-10-09T09:25:47.000Z</Time>
            <Position>
              <LatitudeDegrees>39.52133755199611186981201171875</LatitudeDegrees>
              <LongitudeDegrees>-0.7445076294243335723876953125</LongitudeDegrees>
            </Position>
            <AltitudeMeters>342</AltitudeMeters>
            <DistanceMeters>54140.507633105</DistanceMeters>
          </Trackpoint>
          <Trackpoint>
            <Time>2021-10-09T09:25:48.000Z</Time>
            <Position>
              <LatitudeDegrees>39.521279633045196533203125</LatitudeDegrees>
              <LongitudeDegrees>-0.744651295244693756103515625</LongitudeDegrees>
            </Position>
            <AltitudeMeters>342</AltitudeMeters>
            <DistanceMeters>54154.425722049</DistanceMeters>
          </Trackpoint>
          <Trackpoint>
            <Time>2021-10-09T09:25:49.000Z</Time>
            <Position>
              <LatitudeDegrees>39.521229676902294158935546875</LatitudeDegrees>
              <LongitudeDegrees>-0.74473804794251918792724609375</LongitudeDegrees>
            </Position>
            <AltitudeMeters>341.600006103515625</AltitudeMeters>
            <DistanceMeters>54163.720869784</DistanceMeters>
          </Trackpoint>
          <Trackpoint>
            <Time>2021-10-09T09:25:50.000Z</Time>
            <Position>
              <LatitudeDegrees>39.521155245602130889892578125</LatitudeDegrees>
              <LongitudeDegrees>-0.7448321767151355743408203125</LongitudeDegrees>
            </Position>
            <AltitudeMeters>341.600006103515625</AltitudeMeters>
            <DistanceMeters>54175.293859624</DistanceMeters>
          </Trackpoint>
          <Trackpoint>
            <Time>2021-10-09T09:25:52.000Z</Time>
            <Position>
              <LatitudeDegrees>39.52098299749195575714111328125</LatitudeDegrees>
              <LongitudeDegrees>-0.744991600513458251953125</LongitudeDegrees>
            </Position>
            <AltitudeMeters>340.399993896484375</AltitudeMeters>
            <DistanceMeters>54198.850136865</DistanceMeters>
          </Trackpoint>
          <Trackpoint>
            <Time>2021-10-09T09:25:55.000Z</Time>
            <Position>
              <LatitudeDegrees>39.52072399668395519256591796875</LatitudeDegrees>
              <LongitudeDegrees>-0.74521514587104320526123046875</LongitudeDegrees>
            </Position>
            <AltitudeMeters>339.399993896484375</AltitudeMeters>
            <DistanceMeters>54233.482387925</DistanceMeters>
          </Trackpoint>
          <Trackpoint>
            <Time>2021-10-09T09:25:58.000Z</Time>
            <Position>
              <LatitudeDegrees>39.5204674266278743743896484375</LatitudeDegrees>
              <LongitudeDegrees>-0.745435170829296112060546875</LongitudeDegrees>
            </Position>
            <AltitudeMeters>338.399993896484375</AltitudeMeters>
            <DistanceMeters>54267.722215533</DistanceMeters>
          </Trackpoint>
          <Trackpoint>
            <Time>2021-10-09T09:26:03.000Z</Time>
            <Position>
              <LatitudeDegrees>39.520052187144756317138671875</LatitudeDegrees>
              <LongitudeDegrees>-0.74578084051609039306640625</LongitudeDegrees>
            </Position>
            <AltitudeMeters>337.20001220703125</AltitudeMeters>
            <DistanceMeters>54322.64798525</DistanceMeters>
          </Trackpoint>
          <Trackpoint>
            <Time>2021-10-09T09:26:06.000Z</Time>
            <Position>
              <LatitudeDegrees>39.51981338672339916229248046875</LatitudeDegrees>
              <LongitudeDegrees>-0.74595040641725063323974609375</LongitudeDegrees>
            </Position>
            <AltitudeMeters>337</AltitudeMeters>
            <DistanceMeters>54352.953016097</DistanceMeters>
          </Trackpoint>
          <Trackpoint>
            <Time>2021-10-09T09:26:07.000Z</Time>
            <Position>
              <LatitudeDegrees>39.519729316234588623046875</LatitudeDegrees>
              <LongitudeDegrees>-0.74597789905965328216552734375</LongitudeDegrees>
            </Position>
            <AltitudeMeters>337</AltitudeMeters>
            <DistanceMeters>54362.602790617</DistanceMeters>
          </Trackpoint>
          <Trackpoint>
            <Time>2021-10-09T09:26:11.000Z</Time>
            <Position>
              <LatitudeDegrees>39.51940284110605716705322265625</LatitudeDegrees>
              <LongitudeDegrees>-0.74610807001590728759765625</LongitudeDegrees>
            </Position>
            <AltitudeMeters>337</AltitudeMeters>
            <DistanceMeters>54400.620127654</DistanceMeters>
          </Trackpoint>
          <Trackpoint>
            <Time>2021-10-09T09:26:12.000Z</Time>
            <Position>
              <LatitudeDegrees>39.51932824216783046722412109375</LatitudeDegrees>
              <LongitudeDegrees>-0.746156014502048492431640625</LongitudeDegrees>
            </Position>
            <AltitudeMeters>337</AltitudeMeters>
            <DistanceMeters>54409.887059561</DistanceMeters>
          </Trackpoint>
          <Trackpoint>
            <Time>2021-10-09T09:26:17.000Z</Time>
            <Position>
              <LatitudeDegrees>39.518989026546478271484375</LatitudeDegrees>
              <LongitudeDegrees>-0.7464505545794963836669921875</LongitudeDegrees>
            </Position>
            <AltitudeMeters>337</AltitudeMeters>
            <DistanceMeters>54455.329307318</DistanceMeters>
          </Trackpoint>
          <Trackpoint>
            <Time>2021-10-09T09:26:19.000Z</Time>
            <Position>
              <LatitudeDegrees>39.5188775472342967987060546875</LatitudeDegrees>
              <LongitudeDegrees>-0.746592544019222259521484375</LongitudeDegrees>
            </Position>
            <AltitudeMeters>337.20001220703125</AltitudeMeters>
            <DistanceMeters>54472.724128429</DistanceMeters>
          </Trackpoint>
          <Trackpoint>
            <Time>2021-10-09T09:26:22.000Z</Time>
            <Position>
              <LatitudeDegrees>39.51873262412846088409423828125</LatitudeDegrees>
              <LongitudeDegrees>-0.7468280754983425140380859375</LongitudeDegrees>
            </Position>
            <AltitudeMeters>337.20001220703125</AltitudeMeters>
            <DistanceMeters>54498.591998938</DistanceMeters>
          </Trackpoint>
          <Trackpoint>
            <Time>2021-10-09T09:26:29.000Z</Time>
            <Position>
              <LatitudeDegrees>39.51836499385535717010498046875</LatitudeDegrees>
              <LongitudeDegrees>-0.74736476875841617584228515625</LongitudeDegrees>
            </Position>
            <AltitudeMeters>337.399993896484375</AltitudeMeters>
            <DistanceMeters>54560.217610818</DistanceMeters>
          </Trackpoint>
          <Trackpoint>
            <Time>2021-10-09T09:26:30.000Z</Time>
            <Position>
              <LatitudeDegrees>39.51830036938190460205078125</LatitudeDegrees>
              <LongitudeDegrees>-0.74743718840181827545166015625</LongitudeDegrees>
            </Position>
            <AltitudeMeters>337.399993896484375</AltitudeMeters>
            <DistanceMeters>54569.725507287</DistanceMeters>
          </Trackpoint>
          <Trackpoint>
            <Time>2021-10-09T09:26:34.000Z</Time>
            <Position>
              <LatitudeDegrees>39.5180494152009487152099609375</LatitudeDegrees>
              <LongitudeDegrees>-0.7477339915931224822998046875</LongitudeDegrees>
            </Position>
            <AltitudeMeters>336.79998779296875</AltitudeMeters>
            <DistanceMeters>54607.535632681</DistanceMeters>
          </Trackpoint>
          <Trackpoint>
            <Time>2021-10-09T09:26:35.000Z</Time>
            <Position>
              <LatitudeDegrees>39.517996273934841156005859375</LatitudeDegrees>
              <LongitudeDegrees>-0.74782024137675762176513671875</LongitudeDegrees>
            </Position>
            <AltitudeMeters>336.600006103515625</AltitudeMeters>
            <DistanceMeters>54617.01356497</DistanceMeters>
          </Trackpoint>
          <Trackpoint>
            <Time>2021-10-09T09:26:40.000Z</Time>
            <Position>
              <LatitudeDegrees>39.51778010465204715728759765625</LatitudeDegrees>
              <LongitudeDegrees>-0.74826749972999095916748046875</LongitudeDegrees>
            </Position>
            <AltitudeMeters>336.20001220703125</AltitudeMeters>
            <DistanceMeters>54662.330449074</DistanceMeters>
          </Trackpoint>
          <Trackpoint>
            <Time>2021-10-09T09:26:44.000Z</Time>
            <Position>
              <LatitudeDegrees>39.5176085270941257476806640625</LatitudeDegrees>
              <LongitudeDegrees>-0.7486127503216266632080078125</LongitudeDegrees>
            </Position>
            <AltitudeMeters>336.20001220703125</AltitudeMeters>
            <DistanceMeters>54697.593043369</DistanceMeters>
          </Trackpoint>
          <Trackpoint>
            <Time>2021-10-09T09:26:46.000Z</Time>
            <Position>
              <LatitudeDegrees>39.517493359744548797607421875</LatitudeDegrees>
              <LongitudeDegrees>-0.7487587630748748779296875</LongitudeDegrees>
            </Position>
            <AltitudeMeters>336.20001220703125</AltitudeMeters>
            <DistanceMeters>54715.52315161</DistanceMeters>
          </Trackpoint>
          <Trackpoint>
            <Time>2021-10-09T09:26:52.000Z</Time>
            <Position>
              <LatitudeDegrees>39.517068564891815185546875</LatitudeDegrees>
              <LongitudeDegrees>-0.74912379495799541473388671875</LongitudeDegrees>
            </Position>
            <AltitudeMeters>336</AltitudeMeters>
            <DistanceMeters>54772.248767519</DistanceMeters>
          </Trackpoint>
          <Trackpoint>
            <Time>2021-10-09T09:26:54.000Z</Time>
            <Position>
              <LatitudeDegrees>39.51692766509950160980224609375</LatitudeDegrees>
              <LongitudeDegrees>-0.749244578182697296142578125</LongitudeDegrees>
            </Position>
            <AltitudeMeters>335.79998779296875</AltitudeMeters>
            <DistanceMeters>54791.050373901</DistanceMeters>
          </Trackpoint>
          <Trackpoint>
            <Time>2021-10-09T09:27:00.000Z</Time>
            <Position>
              <LatitudeDegrees>39.51648007147014141082763671875</LatitudeDegrees>
              <LongitudeDegrees>-0.7495806924998760223388671875</LongitudeDegrees>
            </Position>
            <AltitudeMeters>337.20001220703125</AltitudeMeters>
            <DistanceMeters>54848.624016662</DistanceMeters>
          </Trackpoint>
          <Trackpoint>
            <Time>2021-10-09T09:27:03.000Z</Time>
            <Position>
              <LatitudeDegrees>39.5162473060190677642822265625</LatitudeDegrees>
              <LongitudeDegrees>-0.749745480716228485107421875</LongitudeDegrees>
            </Position>
            <AltitudeMeters>334.600006103515625</AltitudeMeters>
            <DistanceMeters>54878.143236108</DistanceMeters>
          </Trackpoint>
          <Trackpoint>
            <Time>2021-10-09T09:27:09.000Z</Time>
            <Position>
              <LatitudeDegrees>39.51578739099204540252685546875</LatitudeDegrees>
              <LongitudeDegrees>-0.75008000247180461883544921875</LongitudeDegrees>
            </Position>
            <AltitudeMeters>333.79998779296875</AltitudeMeters>
            <DistanceMeters>54936.840676826</DistanceMeters>
          </Trackpoint>
          <Trackpoint>
            <Time>2021-10-09T09:27:10.000Z</Time>
            <Position>
              <LatitudeDegrees>39.5157125405967235565185546875</LatitudeDegrees>
              <LongitudeDegrees>-0.75013381429016590118408203125</LongitudeDegrees>
            </Position>
            <AltitudeMeters>333.79998779296875</AltitudeMeters>
            <DistanceMeters>54946.36707532</DistanceMeters>
          </Trackpoint>
          <Trackpoint>
            <Time>2021-10-09T09:27:16.000Z</Time>
            <Position>
              <LatitudeDegrees>39.5153045095503330230712890625</LatitudeDegrees>
              <LongitudeDegrees>-0.750425420701503753662109375</LongitudeDegrees>
            </Position>
            <AltitudeMeters>333.79998779296875</AltitudeMeters>
            <DistanceMeters>54998.226767445</DistanceMeters>
          </Trackpoint>
          <Trackpoint>
            <Time>2021-10-09T09:27:22.000Z</Time>
            <Position>
              <LatitudeDegrees>39.51493612490594387054443359375</LatitudeDegrees>
              <LongitudeDegrees>-0.75068953447043895721435546875</LongitudeDegrees>
            </Position>
            <AltitudeMeters>334.399993896484375</AltitudeMeters>
            <DistanceMeters>55045.082550714</DistanceMeters>
          </Trackpoint>
          <Trackpoint>
            <Time>2021-10-09T09:27:24.000Z</Time>
            <Position>
              <LatitudeDegrees>39.51481559313833713531494140625</LatitudeDegrees>
              <LongitudeDegrees>-0.75075860135257244110107421875</LongitudeDegrees>
            </Position>
            <AltitudeMeters>334.600006103515625</AltitudeMeters>
            <DistanceMeters>55059.750255758</DistanceMeters>
          </Trackpoint>
          <Trackpoint>
            <Time>2021-10-09T09:27:26.000Z</Time>
            <Position>
              <LatitudeDegrees>39.51468919403851032257080078125</LatitudeDegrees>
              <LongitudeDegrees>-0.75080730020999908447265625</LongitudeDegrees>
            </Position>
            <AltitudeMeters>334.79998779296875</AltitudeMeters>
            <DistanceMeters>55074.427192549</DistanceMeters>
          </Trackpoint>
          <Trackpoint>
            <Time>2021-10-09T09:27:32.000Z</Time>
            <Position>
              <LatitudeDegrees>39.51431619934737682342529296875</LatitudeDegrees>
              <LongitudeDegrees>-0.75097485445439815521240234375</LongitudeDegrees>
            </Position>
            <AltitudeMeters>335</AltitudeMeters>
            <DistanceMeters>55118.364487215</DistanceMeters>
          </Trackpoint>
          <Trackpoint>
            <Time>2021-10-09T09:27:40.000Z</Time>
            <Position>
              <LatitudeDegrees>39.5138500817120075225830078125</LatitudeDegrees>
              <LongitudeDegrees>-0.75117736123502254486083984375</LongitudeDegrees>
            </Position>
            <AltitudeMeters>335.399993896484375</AltitudeMeters>
            <DistanceMeters>55173.080734021</DistanceMeters>
          </Trackpoint>
          <Trackpoint>
            <Time>2021-10-09T09:27:43.000Z</Time>
            <Position>
              <LatitudeDegrees>39.51367381028831005096435546875</LatitudeDegrees>
              <LongitudeDegrees>-0.751211978495121002197265625</LongitudeDegrees>
            </Position>
            <AltitudeMeters>335.600006103515625</AltitudeMeters>
            <DistanceMeters>55192.924032218</DistanceMeters>
          </Trackpoint>
          <Trackpoint>
            <Time>2021-10-09T09:27:48.000Z</Time>
            <Position>
              <LatitudeDegrees>39.51339905150234699249267578125</LatitudeDegrees>
              <LongitudeDegrees>-0.7512641139328479766845703125</LongitudeDegrees>
            </Position>
            <AltitudeMeters>336.20001220703125</AltitudeMeters>
            <DistanceMeters>55223.830950643</DistanceMeters>
          </Trackpoint>
          <Trackpoint>
            <Time>2021-10-09T09:27:50.000Z</Time>
            <Position>
              <LatitudeDegrees>39.51329427771270275115966796875</LatitudeDegrees>
              <LongitudeDegrees>-0.7512949593365192413330078125</LongitudeDegrees>
            </Position>
            <AltitudeMeters>336.399993896484375</AltitudeMeters>
            <DistanceMeters>55235.789601096</DistanceMeters>
          </Trackpoint>
          <Trackpoint>
            <Time>2021-10-09T09:27:52.000Z</Time>
            <Position>
              <LatitudeDegrees>39.51319134794175624847412109375</LatitudeDegrees>
              <LongitudeDegrees>-0.7513444125652313232421875</LongitudeDegrees>
            </Position>
            <AltitudeMeters>336.600006103515625</AltitudeMeters>
            <DistanceMeters>55248.007464808</DistanceMeters>
          </Trackpoint>
          <Trackpoint>
            <Time>2021-10-09T09:27:54.000Z</Time>
            <Position>
              <LatitudeDegrees>39.513091184198856353759765625</LatitudeDegrees>
              <LongitudeDegrees>-0.7513988949358463287353515625</LongitudeDegrees>
            </Position>
            <AltitudeMeters>337</AltitudeMeters>
            <DistanceMeters>55260.097537074</DistanceMeters>
          </Trackpoint>
          <Trackpoint>
            <Time>2021-10-09T09:27:59.000Z</Time>
            <Position>
              <LatitudeDegrees>39.51286478899419307708740234375</LatitudeDegrees>
              <LongitudeDegrees>-0.75153761543333530426025390625</LongitudeDegrees>
            </Position>
            <AltitudeMeters>337.79998779296875</AltitudeMeters>
            <DistanceMeters>55287.969214208</DistanceMeters>
          </Trackpoint>
          <Trackpoint>
            <Time>2021-10-09T09:28:00.000Z</Time>
            <Position>
              <LatitudeDegrees>39.51282220892608165740966796875</LatitudeDegrees>
              <LongitudeDegrees>-0.7515725679695606231689453125</LongitudeDegrees>
            </Position>
            <AltitudeMeters>338</AltitudeMeters>
            <DistanceMeters>55293.579010675</DistanceMeters>
          </Trackpoint>
          <Trackpoint>
            <Time>2021-10-09T09:28:01.000Z</Time>
            <Position>
              <LatitudeDegrees>39.512782059609889984130859375</LatitudeDegrees>
              <LongitudeDegrees>-0.75161087326705455780029296875</LongitudeDegrees>
            </Position>
            <AltitudeMeters>338.399993896484375</AltitudeMeters>
            <DistanceMeters>55299.126487626</DistanceMeters>
          </Trackpoint>
          <Trackpoint>
            <Time>2021-10-09T09:28:03.000Z</Time>
            <Position>
              <LatitudeDegrees>39.51270637102425098419189453125</LatitudeDegrees>
              <LongitudeDegrees>-0.751694776117801666259765625</LongitudeDegrees>
            </Position>
            <AltitudeMeters>338.79998779296875</AltitudeMeters>
            <DistanceMeters>55310.211263229</DistanceMeters>
          </Trackpoint>
          <Trackpoint>
            <Time>2021-10-09T09:28:08.000Z</Time>
            <Position>
              <LatitudeDegrees>39.512522555887699127197265625</LatitudeDegrees>
              <LongitudeDegrees>-0.75192100368440151214599609375</LongitudeDegrees>
            </Position>
            <AltitudeMeters>339</AltitudeMeters>
            <DistanceMeters>55338.42347686</DistanceMeters>
          </Trackpoint>
          <Trackpoint>
            <Time>2021-10-09T09:28:09.000Z</Time>
            <Position>
              <LatitudeDegrees>39.512485004961490631103515625</LatitudeDegrees>
              <LongitudeDegrees>-0.7519715465605258941650390625</LongitudeDegrees>
            </Position>
            <AltitudeMeters>339.20001220703125</AltitudeMeters>
            <DistanceMeters>55344.448500288</DistanceMeters>
          </Trackpoint>
          <Trackpoint>
            <Time>2021-10-09T09:28:11.000Z</Time>
            <Position>
              <LatitudeDegrees>39.512401521205902099609375</LatitudeDegrees>
              <LongitudeDegrees>-0.75207254849374294281005859375</LongitudeDegrees>
            </Position>
            <AltitudeMeters>339.399993896484375</AltitudeMeters>
            <DistanceMeters>55357.159366809</DistanceMeters>
          </Trackpoint>
          <Trackpoint>
            <Time>2021-10-09T09:28:12.000Z</Time>
            <Position>
              <LatitudeDegrees>39.51235818676650524139404296875</LatitudeDegrees>
              <LongitudeDegrees>-0.75212418101727962493896484375</LongitudeDegrees>
            </Position>
            <AltitudeMeters>339.79998779296875</AltitudeMeters>
            <DistanceMeters>55363.710009775</DistanceMeters>
          </Trackpoint>
          <Trackpoint>
            <Time>2021-10-09T09:28:13.000Z</Time>
            <Position>
              <LatitudeDegrees>39.51231409795582294464111328125</LatitudeDegrees>
              <LongitudeDegrees>-0.752174556255340576171875</LongitudeDegrees>
            </Position>
            <AltitudeMeters>339.79998779296875</AltitudeMeters>
            <DistanceMeters>55370.250996107</DistanceMeters>
          </Trackpoint>
          <Trackpoint>
            <Time>2021-10-09T09:28:14.000Z</Time>
            <Position>
              <LatitudeDegrees>39.51226984150707721710205078125</LatitudeDegrees>
              <LongitudeDegrees>-0.75222459621727466583251953125</LongitudeDegrees>
            </Position>
            <AltitudeMeters>340</AltitudeMeters>
            <DistanceMeters>55376.786457956</DistanceMeters>
          </Trackpoint>
          <Trackpoint>
            <Time>2021-10-09T09:28:16.000Z</Time>
            <Position>
              <LatitudeDegrees>39.51217018067836761474609375</LatitudeDegrees>
              <LongitudeDegrees>-0.7523054815828800201416015625</LongitudeDegrees>
            </Position>
            <AltitudeMeters>340.20001220703125</AltitudeMeters>
            <DistanceMeters>55389.87360661</DistanceMeters>
          </Trackpoint>
          <Trackpoint>
            <Time>2021-10-09T09:28:17.000Z</Time>
            <Position>
              <LatitudeDegrees>39.51211796142160892486572265625</LatitudeDegrees>
              <LongitudeDegrees>-0.75233339332044124603271484375</LongitudeDegrees>
            </Position>
            <AltitudeMeters>340.399993896484375</AltitudeMeters>
            <DistanceMeters>55396.159751257</DistanceMeters>
          </Trackpoint>
          <Trackpoint>
            <Time>2021-10-09T09:28:19.000Z</Time>
            <Position>
              <LatitudeDegrees>39.5120037160813808441162109375</LatitudeDegrees>
              <LongitudeDegrees>-0.75237312354147434234619140625</LongitudeDegrees>
            </Position>
            <AltitudeMeters>340.79998779296875</AltitudeMeters>
            <DistanceMeters>55409.324981497</DistanceMeters>
          </Trackpoint>
          <Trackpoint>
            <Time>2021-10-09T09:28:24.000Z</Time>
            <Position>
              <LatitudeDegrees>39.51171747408807277679443359375</LatitudeDegrees>
              <LongitudeDegrees>-0.75245258398354053497314453125</LongitudeDegrees>
            </Position>
            <AltitudeMeters>341.399993896484375</AltitudeMeters>
            <DistanceMeters>55441.906813654</DistanceMeters>
          </Trackpoint>
          <Trackpoint>
            <Time>2021-10-09T09:28:26.000Z</Time>
            <Position>
              <LatitudeDegrees>39.51160834170877933502197265625</LatitudeDegrees>
              <LongitudeDegrees>-0.752484686672687530517578125</LongitudeDegrees>
            </Position>
            <AltitudeMeters>341.79998779296875</AltitudeMeters>
            <DistanceMeters>55454.362565072</DistanceMeters>
          </Trackpoint>
          <Trackpoint>
            <Time>2021-10-09T09:28:32.000Z</Time>
            <Position>
              <LatitudeDegrees>39.51126501895487308502197265625</LatitudeDegrees>
              <LongitudeDegrees>-0.75255811214447021484375</LongitudeDegrees>
            </Position>
            <AltitudeMeters>342.20001220703125</AltitudeMeters>
            <DistanceMeters>55493.091751454</DistanceMeters>
          </Trackpoint>
          <Trackpoint>
            <Time>2021-10-09T09:28:41.000Z</Time>
            <Position>
              <LatitudeDegrees>39.51071374118328094482421875</LatitudeDegrees>
              <LongitudeDegrees>-0.75265659950673580169677734375</LongitudeDegrees>
            </Position>
            <AltitudeMeters>342.79998779296875</AltitudeMeters>
            <DistanceMeters>55555.030219281</DistanceMeters>
          </Trackpoint>
          <Trackpoint>
            <Time>2021-10-09T09:28:42.000Z</Time>
            <Position>
              <LatitudeDegrees>39.51064878143370151519775390625</LatitudeDegrees>
              <LongitudeDegrees>-0.75266984291374683380126953125</LongitudeDegrees>
            </Position>
            <AltitudeMeters>343</AltitudeMeters>
            <DistanceMeters>55562.349127224</DistanceMeters>
          </Trackpoint>
          <Trackpoint>
            <Time>2021-10-09T09:28:46.000Z</Time>
            <Position>
              <LatitudeDegrees>39.51040796935558319091796875</LatitudeDegrees>
              <LongitudeDegrees>-0.75271627865731716156005859375</LongitudeDegrees>
            </Position>
            <AltitudeMeters>343</AltitudeMeters>
            <DistanceMeters>55589.446907504</DistanceMeters>
          </Trackpoint>
          <Trackpoint>
            <Time>2021-10-09T09:28:48.000Z</Time>
            <Position>
              <LatitudeDegrees>39.51033177785575389862060546875</LatitudeDegrees>
              <LongitudeDegrees>-0.75275114737451076507568359375</LongitudeDegrees>
            </Position>
            <AltitudeMeters>343.20001220703125</AltitudeMeters>
            <DistanceMeters>55598.439869454</DistanceMeters>
          </Trackpoint>
          <Trackpoint>
            <Time>2021-10-09T09:28:49.000Z</Time>
            <Position>
              <LatitudeDegrees>39.5102921314537525177001953125</LatitudeDegrees>
              <LongitudeDegrees>-0.75276539660990238189697265625</LongitudeDegrees>
            </Position>
            <AltitudeMeters>343.20001220703125</AltitudeMeters>
            <DistanceMeters>55603.018934588</DistanceMeters>
          </Trackpoint>
          <Trackpoint>
            <Time>2021-10-09T09:28:52.000Z</Time>
            <Position>
              <LatitudeDegrees>39.51013815589249134063720703125</LatitudeDegrees>
              <LongitudeDegrees>-0.75273580849170684814453125</LongitudeDegrees>
            </Position>
            <AltitudeMeters>343.20001220703125</AltitudeMeters>
            <DistanceMeters>55620.344053375</DistanceMeters>
          </Trackpoint>
          <Trackpoint>
            <Time>2021-10-09T09:28:59.000Z</Time>
            <Position>
              <LatitudeDegrees>39.50969877652823925018310546875</LatitudeDegrees>
              <LongitudeDegrees>-0.75260102748870849609375</LongitudeDegrees>
            </Position>
            <AltitudeMeters>342.600006103515625</AltitudeMeters>
            <DistanceMeters>55670.59872261</DistanceMeters>
          </Trackpoint>
          <Trackpoint>
            <Time>2021-10-09T09:29:03.000Z</Time>
            <Position>
              <LatitudeDegrees>39.5094284601509571075439453125</LatitudeDegrees>
              <LongitudeDegrees>-0.752506144344806671142578125</LongitudeDegrees>
            </Position>
            <AltitudeMeters>342.399993896484375</AltitudeMeters>
            <DistanceMeters>55701.769368018</DistanceMeters>
          </Trackpoint>
          <Trackpoint>
            <Time>2021-10-09T09:29:06.000Z</Time>
            <Position>
              <LatitudeDegrees>39.50923022814095020294189453125</LatitudeDegrees>
              <LongitudeDegrees>-0.7523862831294536590576171875</LongitudeDegrees>
            </Position>
            <AltitudeMeters>342.20001220703125</AltitudeMeters>
            <DistanceMeters>55726.115501546</DistanceMeters>
          </Trackpoint>
          <Trackpoint>
            <Time>2021-10-09T09:29:11.000Z</Time>
            <Position>
              <LatitudeDegrees>39.50890786014497280120849609375</LatitudeDegrees>
              <LongitudeDegrees>-0.75213457457721233367919921875</LongitudeDegrees>
            </Position>
            <AltitudeMeters>341.600006103515625</AltitudeMeters>
            <DistanceMeters>55768.003316044</DistanceMeters>
          </Trackpoint>
          <Trackpoint>
            <Time>2021-10-09T09:29:14.000Z</Time>
            <Position>
              <LatitudeDegrees>39.50871423818171024322509765625</LatitudeDegrees>
              <LongitudeDegrees>-0.75198453851044178009033203125</LongitudeDegrees>
            </Position>
            <AltitudeMeters>341.399993896484375</AltitudeMeters>
            <DistanceMeters>55793.111596687</DistanceMeters>
          </Trackpoint>
          <Trackpoint>
            <Time>2021-10-09T09:29:22.000Z</Time>
            <Position>
              <LatitudeDegrees>39.50819036923348903656005859375</LatitudeDegrees>
              <LongitudeDegrees>-0.7515832968056201934814453125</LongitudeDegrees>
            </Position>
            <AltitudeMeters>341.20001220703125</AltitudeMeters>
            <DistanceMeters>55860.838916663</DistanceMeters>
          </Trackpoint>
          <Trackpoint>
            <Time>2021-10-09T09:29:24.000Z</Time>
            <Position>
              <LatitudeDegrees>39.50806749053299427032470703125</LatitudeDegrees>
              <LongitudeDegrees>-0.75148832984268665313720703125</LongitudeDegrees>
            </Position>
            <AltitudeMeters>341</AltitudeMeters>
            <DistanceMeters>55876.762626864</DistanceMeters>
          </Trackpoint>
          <Trackpoint>
            <Time>2021-10-09T09:29:32.000Z</Time>
            <Position>
              <LatitudeDegrees>39.5076043903827667236328125</LatitudeDegrees>
              <LongitudeDegrees>-0.7510931231081485748291015625</LongitudeDegrees>
            </Position>
            <AltitudeMeters>340.79998779296875</AltitudeMeters>
            <DistanceMeters>55938.476021692</DistanceMeters>
          </Trackpoint>
          <Trackpoint>
            <Time>2021-10-09T09:29:37.000Z</Time>
            <Position>
              <LatitudeDegrees>39.50733541510999202728271484375</LatitudeDegrees>
              <LongitudeDegrees>-0.750815682113170623779296875</LongitudeDegrees>
            </Position>
            <AltitudeMeters>340.79998779296875</AltitudeMeters>
            <DistanceMeters>55976.736755512</DistanceMeters>
          </Trackpoint>
          <Trackpoint>
            <Time>2021-10-09T09:29:39.000Z</Time>
            <Position>
              <LatitudeDegrees>39.5072337426245212554931640625</LatitudeDegrees>
              <LongitudeDegrees>-0.75071250088512897491455078125</LongitudeDegrees>
            </Position>
            <AltitudeMeters>341</AltitudeMeters>
            <DistanceMeters>55991.109369357</DistanceMeters>
          </Trackpoint>
          <Trackpoint>
            <Time>2021-10-09T09:29:47.000Z</Time>
            <Position>
              <LatitudeDegrees>39.50684105046093463897705078125</LatitudeDegrees>
              <LongitudeDegrees>-0.75030430220067501068115234375</LongitudeDegrees>
            </Position>
            <AltitudeMeters>342.20001220703125</AltitudeMeters>
            <DistanceMeters>56047.137268427</DistanceMeters>
          </Trackpoint>
          <Trackpoint>
            <Time>2021-10-09T09:29:49.000Z</Time>
            <Position>
              <LatitudeDegrees>39.50674499385058879852294921875</LatitudeDegrees>
              <LongitudeDegrees>-0.75019181706011295318603515625</LongitudeDegrees>
            </Position>
            <AltitudeMeters>342.20001220703125</AltitudeMeters>
            <DistanceMeters>56061.546276638</DistanceMeters>
          </Trackpoint>
          <Trackpoint>
            <Time>2021-10-09T09:29:51.000Z</Time>
            <Position>
              <LatitudeDegrees>39.50667022727429866790771484375</LatitudeDegrees>
              <LongitudeDegrees>-0.75005150400102138519287109375</LongitudeDegrees>
            </Position>
            <AltitudeMeters>342.20001220703125</AltitudeMeters>
            <DistanceMeters>56076.190260228</DistanceMeters>
          </Trackpoint>
          <Trackpoint>
            <Time>2021-10-09T09:29:52.000Z</Time>
            <Position>
              <LatitudeDegrees>39.506645500659942626953125</LatitudeDegrees>
              <LongitudeDegrees>-0.74996751733124256134033203125</LongitudeDegrees>
            </Position>
            <AltitudeMeters>342</AltitudeMeters>
            <DistanceMeters>56083.910266998</DistanceMeters>
          </Trackpoint>
          <Trackpoint>
            <Time>2021-10-09T09:29:56.000Z</Time>
            <Position>
              <LatitudeDegrees>39.50658808462321758270263671875</LatitudeDegrees>
              <LongitudeDegrees>-0.749618746340274810791015625</LongitudeDegrees>
            </Position>
            <AltitudeMeters>341.79998779296875</AltitudeMeters>
            <DistanceMeters>56114.53512291</DistanceMeters>
          </Trackpoint>
          <Trackpoint>
            <Time>2021-10-09T09:29:57.000Z</Time>
            <Position>
              <LatitudeDegrees>39.506573416292667388916015625</LatitudeDegrees>
              <LongitudeDegrees>-0.749535262584686279296875</LongitudeDegrees>
            </Position>
            <AltitudeMeters>341.600006103515625</AltitudeMeters>
            <DistanceMeters>56121.887268011</DistanceMeters>
          </Trackpoint>
          <Trackpoint>
            <Time>2021-10-09T09:29:58.000Z</Time>
            <Position>
              <LatitudeDegrees>39.50654885731637477874755859375</LatitudeDegrees>
              <LongitudeDegrees>-0.749454796314239501953125</LongitudeDegrees>
            </Position>
            <AltitudeMeters>341.600006103515625</AltitudeMeters>
            <DistanceMeters>56129.318818827</DistanceMeters>
          </Trackpoint>
          <Trackpoint>
            <Time>2021-10-09T09:29:59.000Z</Time>
            <Position>
              <LatitudeDegrees>39.5065082050859928131103515625</LatitudeDegrees>
              <LongitudeDegrees>-0.74938816018402576446533203125</LongitudeDegrees>
            </Position>
            <AltitudeMeters>341.399993896484375</AltitudeMeters>
            <DistanceMeters>56136.614246886</DistanceMeters>
          </Trackpoint>
          <Trackpoint>
            <Time>2021-10-09T09:30:00.000Z</Time>
            <Position>
              <LatitudeDegrees>39.50644894503057003021240234375</LatitudeDegrees>
              <LongitudeDegrees>-0.74934524483978748321533203125</LongitudeDegrees>
            </Position>
            <AltitudeMeters>341.20001220703125</AltitudeMeters>
            <DistanceMeters>56144.169916498</DistanceMeters>
          </Trackpoint>
          <Trackpoint>
            <Time>2021-10-09T09:30:01.000Z</Time>
            <Position>
              <LatitudeDegrees>39.5063831470906734466552734375</LatitudeDegrees>
              <LongitudeDegrees>-0.7493413053452968597412109375</LongitudeDegrees>
            </Position>
            <AltitudeMeters>341.20001220703125</AltitudeMeters>
            <DistanceMeters>56151.501152068</DistanceMeters>
          </Trackpoint>
          <Trackpoint>
            <Time>2021-10-09T09:30:02.000Z</Time>
            <Position>
              <LatitudeDegrees>39.5063241384923458099365234375</LatitudeDegrees>
              <LongitudeDegrees>-0.749374330043792724609375</LongitudeDegrees>
            </Position>
            <AltitudeMeters>341</AltitudeMeters>
            <DistanceMeters>56158.655344775</DistanceMeters>
          </Trackpoint>
          <Trackpoint>
            <Time>2021-10-09T09:30:03.000Z</Time>
            <Position>
              <LatitudeDegrees>39.5062775351107120513916015625</LatitudeDegrees>
              <LongitudeDegrees>-0.7494452409446239471435546875</LongitudeDegrees>
            </Position>
            <AltitudeMeters>341</AltitudeMeters>
            <DistanceMeters>56166.653410887</DistanceMeters>
          </Trackpoint>
          <Trackpoint>
            <Time>2021-10-09T09:30:05.000Z</Time>
            <Position>
              <LatitudeDegrees>39.50619748793542385101318359375</LatitudeDegrees>
              <LongitudeDegrees>-0.74962620623409748077392578125</LongitudeDegrees>
            </Position>
            <AltitudeMeters>340.600006103515625</AltitudeMeters>
            <DistanceMeters>56184.566387646</DistanceMeters>
          </Trackpoint>
          <Trackpoint>
            <Time>2021-10-09T09:30:06.000Z</Time>
            <Position>
              <LatitudeDegrees>39.50615608133375644683837890625</LatitudeDegrees>
              <LongitudeDegrees>-0.74972343631088733673095703125</LongitudeDegrees>
            </Position>
            <AltitudeMeters>340.399993896484375</AltitudeMeters>
            <DistanceMeters>56194.103207343</DistanceMeters>
          </Trackpoint>
          <Trackpoint>
            <Time>2021-10-09T09:30:07.000Z</Time>
            <Position>
              <LatitudeDegrees>39.50610931031405925750732421875</LatitudeDegrees>
              <LongitudeDegrees>-0.7498200796544551849365234375</LongitudeDegrees>
            </Position>
            <AltitudeMeters>340.20001220703125</AltitudeMeters>
            <DistanceMeters>56203.900180474</DistanceMeters>
          </Trackpoint>
          <Trackpoint>
            <Time>2021-10-09T09:30:09.000Z</Time>
            <Position>
              <LatitudeDegrees>39.5059845037758350372314453125</LatitudeDegrees>
              <LongitudeDegrees>-0.749984867870807647705078125</LongitudeDegrees>
            </Position>
            <AltitudeMeters>339.399993896484375</AltitudeMeters>
            <DistanceMeters>56223.730049582</DistanceMeters>
          </Trackpoint>
          <Trackpoint>
            <Time>2021-10-09T09:30:11.000Z</Time>
            <Position>
              <LatitudeDegrees>39.50581946410238742828369140625</LatitudeDegrees>
              <LongitudeDegrees>-0.7500544376671314239501953125</LongitudeDegrees>
            </Position>
            <AltitudeMeters>337.600006103515625</AltitudeMeters>
            <DistanceMeters>56243.046435337</DistanceMeters>
          </Trackpoint>
          <Trackpoint>
            <Time>2021-10-09T09:30:13.000Z</Time>
            <Position>
              <LatitudeDegrees>39.50564092956483364105224609375</LatitudeDegrees>
              <LongitudeDegrees>-0.75001345016062259674072265625</LongitudeDegrees>
            </Position>
            <AltitudeMeters>336.600006103515625</AltitudeMeters>
            <DistanceMeters>56263.227254887</DistanceMeters>
          </Trackpoint>
          <Trackpoint>
            <Time>2021-10-09T09:30:14.000Z</Time>
            <Position>
              <LatitudeDegrees>39.50555694289505481719970703125</LatitudeDegrees>
              <LongitudeDegrees>-0.7499622367322444915771484375</LongitudeDegrees>
            </Position>
            <AltitudeMeters>336</AltitudeMeters>
            <DistanceMeters>56273.558105457</DistanceMeters>
          </Trackpoint>
          <Trackpoint>
            <Time>2021-10-09T09:30:16.000Z</Time>
            <Position>
              <LatitudeDegrees>39.50540187768638134002685546875</LatitudeDegrees>
              <LongitudeDegrees>-0.7498504221439361572265625</LongitudeDegrees>
            </Position>
            <AltitudeMeters>335</AltitudeMeters>
            <DistanceMeters>56293.308579938</DistanceMeters>
          </Trackpoint>
          <Trackpoint>
            <Time>2021-10-09T09:30:18.000Z</Time>
            <Position>
              <LatitudeDegrees>39.5052519254386425018310546875</LatitudeDegrees>
              <LongitudeDegrees>-0.74973684735596179962158203125</LongitudeDegrees>
            </Position>
            <AltitudeMeters>334</AltitudeMeters>
            <DistanceMeters>56312.639452225</DistanceMeters>
          </Trackpoint>
          <Trackpoint>
            <Time>2021-10-09T09:30:22.000Z</Time>
            <Position>
              <LatitudeDegrees>39.504966102540493011474609375</LatitudeDegrees>
              <LongitudeDegrees>-0.7495361007750034332275390625</LongitudeDegrees>
            </Position>
            <AltitudeMeters>333.399993896484375</AltitudeMeters>
            <DistanceMeters>56348.823049662</DistanceMeters>
          </Trackpoint>
          <Trackpoint>
            <Time>2021-10-09T09:30:23.000Z</Time>
            <Position>
              <LatitudeDegrees>39.50490868650376796722412109375</LatitudeDegrees>
              <LongitudeDegrees>-0.74948773719370365142822265625</LongitudeDegrees>
            </Position>
            <AltitudeMeters>333.600006103515625</AltitudeMeters>
            <DistanceMeters>56356.44535324</DistanceMeters>
          </Trackpoint>
          <Trackpoint>
            <Time>2021-10-09T09:30:25.000Z</Time>
            <Position>
              <LatitudeDegrees>39.504827298223972320556640625</LatitudeDegrees>
              <LongitudeDegrees>-0.74936904944479465484619140625</LongitudeDegrees>
            </Position>
            <AltitudeMeters>333.600006103515625</AltitudeMeters>
            <DistanceMeters>56370.081603976</DistanceMeters>
          </Trackpoint>
          <Trackpoint>
            <Time>2021-10-09T09:30:27.000Z</Time>
            <Position>
              <LatitudeDegrees>39.504801146686077117919921875</LatitudeDegrees>
              <LongitudeDegrees>-0.74923141859471797943115234375</LongitudeDegrees>
            </Position>
            <AltitudeMeters>334.20001220703125</AltitudeMeters>
            <DistanceMeters>56382.25392891</DistanceMeters>
          </Trackpoint>
          <Trackpoint>
            <Time>2021-10-09T09:30:28.000Z</Time>
            <Position>
              <LatitudeDegrees>39.5048096962273120880126953125</LatitudeDegrees>
              <LongitudeDegrees>-0.7491619326174259185791015625</LongitudeDegrees>
            </Position>
            <AltitudeMeters>334</AltitudeMeters>
            <DistanceMeters>56388.296163518</DistanceMeters>
          </Trackpoint>
          <Trackpoint>
            <Time>2021-10-09T09:30:30.000Z</Time>
            <Position>
              <LatitudeDegrees>39.50484012253582477569580078125</LatitudeDegrees>
              <LongitudeDegrees>-0.74902631342411041259765625</LongitudeDegrees>
            </Position>
            <AltitudeMeters>335.20001220703125</AltitudeMeters>
            <DistanceMeters>56400.425384657</DistanceMeters>
          </Trackpoint>
          <Trackpoint>
            <Time>2021-10-09T09:30:32.000Z</Time>
            <Position>
              <LatitudeDegrees>39.50489393435418605804443359375</LatitudeDegrees>
              <LongitudeDegrees>-0.748895220458507537841796875</LongitudeDegrees>
            </Position>
            <AltitudeMeters>336</AltitudeMeters>
            <DistanceMeters>56413.177035002</DistanceMeters>
          </Trackpoint>
          <Trackpoint>
            <Time>2021-10-09T09:30:33.000Z</Time>
            <Position>
              <LatitudeDegrees>39.50492561794817447662353515625</LatitudeDegrees>
              <LongitudeDegrees>-0.74882992543280124664306640625</LongitudeDegrees>
            </Position>
            <AltitudeMeters>336.20001220703125</AltitudeMeters>
            <DistanceMeters>56419.801698882</DistanceMeters>
          </Trackpoint>
          <Trackpoint>
            <Time>2021-10-09T09:30:35.000Z</Time>
            <Position>
              <LatitudeDegrees>39.504984878003597259521484375</LatitudeDegrees>
              <LongitudeDegrees>-0.748693384230136871337890625</LongitudeDegrees>
            </Position>
            <AltitudeMeters>337</AltitudeMeters>
            <DistanceMeters>56433.255280273</DistanceMeters>
          </Trackpoint>
          <Trackpoint>
            <Time>2021-10-09T09:30:36.000Z</Time>
            <Position>
              <LatitudeDegrees>39.50500734150409698486328125</LatitudeDegrees>
              <LongitudeDegrees>-0.74862322770059108734130859375</LongitudeDegrees>
            </Position>
            <AltitudeMeters>337.20001220703125</AltitudeMeters>
            <DistanceMeters>56439.778294929</DistanceMeters>
          </Trackpoint>
          <Trackpoint>
            <Time>2021-10-09T09:30:37.000Z</Time>
            <Position>
              <LatitudeDegrees>39.505021087825298309326171875</LatitudeDegrees>
              <LongitudeDegrees>-0.7485517300665378570556640625</LongitudeDegrees>
            </Position>
            <AltitudeMeters>337.600006103515625</AltitudeMeters>
            <DistanceMeters>56446.105961082</DistanceMeters>
          </Trackpoint>
          <Trackpoint>
            <Time>2021-10-09T09:30:38.000Z</Time>
            <Position>
              <LatitudeDegrees>39.505025111138820648193359375</LatitudeDegrees>
              <LongitudeDegrees>-0.74847889132797718048095703125</LongitudeDegrees>
            </Position>
            <AltitudeMeters>337.600006103515625</AltitudeMeters>
            <DistanceMeters>56452.37700429</DistanceMeters>
          </Trackpoint>
          <Trackpoint>
            <Time>2021-10-09T09:30:40.000Z</Time>
            <Position>
              <LatitudeDegrees>39.50500910170376300811767578125</LatitudeDegrees>
              <LongitudeDegrees>-0.74833639897406101226806640625</LongitudeDegrees>
            </Position>
            <AltitudeMeters>338.20001220703125</AltitudeMeters>
            <DistanceMeters>56464.742897485</DistanceMeters>
          </Trackpoint>
          <Trackpoint>
            <Time>2021-10-09T09:30:42.000Z</Time>
            <Position>
              <LatitudeDegrees>39.50496652163565158843994140625</LatitudeDegrees>
              <LongitudeDegrees>-0.74819541536271572113037109375</LongitudeDegrees>
            </Position>
            <AltitudeMeters>338.399993896484375</AltitudeMeters>
            <DistanceMeters>56477.744552419</DistanceMeters>
          </Trackpoint>
          <Trackpoint>
            <Time>2021-10-09T09:30:43.000Z</Time>
            <Position>
              <LatitudeDegrees>39.50493752025067806243896484375</LatitudeDegrees>
              <LongitudeDegrees>-0.7481282763183116912841796875</LongitudeDegrees>
            </Position>
            <AltitudeMeters>338.600006103515625</AltitudeMeters>
            <DistanceMeters>56484.351472241</DistanceMeters>
          </Trackpoint>
          <Trackpoint>
            <Time>2021-10-09T09:30:49.000Z</Time>
            <Position>
              <LatitudeDegrees>39.50472646392881870269775390625</LatitudeDegrees>
              <LongitudeDegrees>-0.7477004639804363250732421875</LongitudeDegrees>
            </Position>
            <AltitudeMeters>339</AltitudeMeters>
            <DistanceMeters>56527.958899109</DistanceMeters>
          </Trackpoint>
          <Trackpoint>
            <Time>2021-10-09T09:30:57.000Z</Time>
            <Position>
              <LatitudeDegrees>39.50441465713083744049072265625</LatitudeDegrees>
              <LongitudeDegrees>-0.74704592116177082061767578125</LongitudeDegrees>
            </Position>
            <AltitudeMeters>338.20001220703125</AltitudeMeters>
            <DistanceMeters>56594.019896254</DistanceMeters>
          </Trackpoint>
          <Trackpoint>
            <Time>2021-10-09T09:31:01.000Z</Time>
            <Position>
              <LatitudeDegrees>39.50427082367241382598876953125</LatitudeDegrees>
              <LongitudeDegrees>-0.74667661450803279876708984375</LongitudeDegrees>
            </Position>
            <AltitudeMeters>337.399993896484375</AltitudeMeters>
            <DistanceMeters>56629.546672701</DistanceMeters>
          </Trackpoint>
          <Trackpoint>
            <Time>2021-10-09T09:31:05.000Z</Time>
            <Position>
              <LatitudeDegrees>39.50411810539662837982177734375</LatitudeDegrees>
              <LongitudeDegrees>-0.7462938129901885986328125</LongitudeDegrees>
            </Position>
            <AltitudeMeters>336.399993896484375</AltitudeMeters>
            <DistanceMeters>56666.555399709</DistanceMeters>
          </Trackpoint>
          <Trackpoint>
            <Time>2021-10-09T09:31:06.000Z</Time>
            <Position>
              <LatitudeDegrees>39.50407217256724834442138671875</LatitudeDegrees>
              <LongitudeDegrees>-0.7461994327604770660400390625</LongitudeDegrees>
            </Position>
            <AltitudeMeters>336</AltitudeMeters>
            <DistanceMeters>56676.138032299</DistanceMeters>
          </Trackpoint>
          <Trackpoint>
            <Time>2021-10-09T09:31:10.000Z</Time>
            <Position>
              <LatitudeDegrees>39.5038722641766071319580078125</LatitudeDegrees>
              <LongitudeDegrees>-0.745836831629276275634765625</LongitudeDegrees>
            </Position>
            <AltitudeMeters>335.20001220703125</AltitudeMeters>
            <DistanceMeters>56714.410093125</DistanceMeters>
          </Trackpoint>
          <Trackpoint>
            <Time>2021-10-09T09:31:11.000Z</Time>
            <Position>
              <LatitudeDegrees>39.50382088311016559600830078125</LatitudeDegrees>
              <LongitudeDegrees>-0.74574739672243595123291015625</LongitudeDegrees>
            </Position>
            <AltitudeMeters>334.600006103515625</AltitudeMeters>
            <DistanceMeters>56723.985655573</DistanceMeters>
          </Trackpoint>
          <Trackpoint>
            <Time>2021-10-09T09:31:14.000Z</Time>
            <Position>
              <LatitudeDegrees>39.50366464443504810333251953125</LatitudeDegrees>
              <LongitudeDegrees>-0.74548018164932727813720703125</LongitudeDegrees>
            </Position>
            <AltitudeMeters>333.79998779296875</AltitudeMeters>
            <DistanceMeters>56752.778593217</DistanceMeters>
          </Trackpoint>
          <Trackpoint>
            <Time>2021-10-09T09:31:16.000Z</Time>
            <Position>
              <LatitudeDegrees>39.50355668552219867706298828125</LatitudeDegrees>
              <LongitudeDegrees>-0.74529175646603107452392578125</LongitudeDegrees>
            </Position>
            <AltitudeMeters>333.600006103515625</AltitudeMeters>
            <DistanceMeters>56772.933667489</DistanceMeters>
          </Trackpoint>
          <Trackpoint>
            <Time>2021-10-09T09:31:17.000Z</Time>
            <Position>
              <LatitudeDegrees>39.50349918566644191741943359375</LatitudeDegrees>
              <LongitudeDegrees>-0.7451936043798923492431640625</LongitudeDegrees>
            </Position>
            <AltitudeMeters>333.399993896484375</AltitudeMeters>
            <DistanceMeters>56783.517101158</DistanceMeters>
          </Trackpoint>
          <Trackpoint>
            <Time>2021-10-09T09:31:21.000Z</Time>
            <Position>
              <LatitudeDegrees>39.50326390564441680908203125</LatitudeDegrees>
              <LongitudeDegrees>-0.7448294945061206817626953125</LongitudeDegrees>
            </Position>
            <AltitudeMeters>332.399993896484375</AltitudeMeters>
            <DistanceMeters>56824.303603124</DistanceMeters>
          </Trackpoint>
          <Trackpoint>
            <Time>2021-10-09T09:31:23.000Z</Time>
            <Position>
              <LatitudeDegrees>39.50311931781470775604248046875</LatitudeDegrees>
              <LongitudeDegrees>-0.74463017284870147705078125</LongitudeDegrees>
            </Position>
            <AltitudeMeters>331.20001220703125</AltitudeMeters>
            <DistanceMeters>56847.797889297</DistanceMeters>
          </Trackpoint>
          <Trackpoint>
            <Time>2021-10-09T09:31:25.000Z</Time>
            <Position>
              <LatitudeDegrees>39.50298420153558254241943359375</LatitudeDegrees>
              <LongitudeDegrees>-0.7444559969007968902587890625</LongitudeDegrees>
            </Position>
            <AltitudeMeters>330</AltitudeMeters>
            <DistanceMeters>56869.00907806</DistanceMeters>
          </Trackpoint>
          <Trackpoint>
            <Time>2021-10-09T09:31:31.000Z</Time>
            <Position>
              <LatitudeDegrees>39.50253878720104694366455078125</LatitudeDegrees>
              <LongitudeDegrees>-0.74397546239197254180908203125</LongitudeDegrees>
            </Position>
            <AltitudeMeters>328.79998779296875</AltitudeMeters>
            <DistanceMeters>56933.513390965</DistanceMeters>
          </Trackpoint>
          <Trackpoint>
            <Time>2021-10-09T09:31:35.000Z</Time>
            <Position>
              <LatitudeDegrees>39.50222379527986049652099609375</LatitudeDegrees>
              <LongitudeDegrees>-0.7436754740774631500244140625</LongitudeDegrees>
            </Position>
            <AltitudeMeters>327.79998779296875</AltitudeMeters>
            <DistanceMeters>56977.020788661</DistanceMeters>
          </Trackpoint>
          <Trackpoint>
            <Time>2021-10-09T09:31:41.000Z</Time>
            <Position>
              <LatitudeDegrees>39.50171853415668010711669921875</LatitudeDegrees>
              <LongitudeDegrees>-0.74318622238934040069580078125</LongitudeDegrees>
            </Position>
            <AltitudeMeters>326.20001220703125</AltitudeMeters>
            <DistanceMeters>57047.220515711</DistanceMeters>
          </Trackpoint>
          <Trackpoint>
            <Time>2021-10-09T09:31:44.000Z</Time>
            <Position>
              <LatitudeDegrees>39.50148484669625759124755859375</LatitudeDegrees>
              <LongitudeDegrees>-0.74294214136898517608642578125</LongitudeDegrees>
            </Position>
            <AltitudeMeters>325.20001220703125</AltitudeMeters>
            <DistanceMeters>57080.62575118</DistanceMeters>
          </Trackpoint>
          <Trackpoint>
            <Time>2021-10-09T09:31:45.000Z</Time>
            <Position>
              <LatitudeDegrees>39.50143505819141864776611328125</LatitudeDegrees>
              <LongitudeDegrees>-0.7428646087646484375</LongitudeDegrees>
            </Position>
            <AltitudeMeters>324.600006103515625</AltitudeMeters>
            <DistanceMeters>57089.288310574</DistanceMeters>
          </Trackpoint>
          <Trackpoint>
            <Time>2021-10-09T09:31:46.000Z</Time>
            <Position>
              <LatitudeDegrees>39.50137621723115444183349609375</LatitudeDegrees>
              <LongitudeDegrees>-0.74273946695029735565185546875</LongitudeDegrees>
            </Position>
            <AltitudeMeters>324.399993896484375</AltitudeMeters>
            <DistanceMeters>57101.873521769</DistanceMeters>
          </Trackpoint>
          <Trackpoint>
            <Time>2021-10-09T09:31:52.000Z</Time>
            <Position>
              <LatitudeDegrees>39.50113557279109954833984375</LatitudeDegrees>
              <LongitudeDegrees>-0.7420855946838855743408203125</LongitudeDegrees>
            </Position>
            <AltitudeMeters>323.600006103515625</AltitudeMeters>
            <DistanceMeters>57164.089754849</DistanceMeters>
          </Trackpoint>
          <Trackpoint>
            <Time>2021-10-09T09:31:53.000Z</Time>
            <Position>
              <LatitudeDegrees>39.50109609402716159820556640625</LatitudeDegrees>
              <LongitudeDegrees>-0.74197771959006786346435546875</LongitudeDegrees>
            </Position>
            <AltitudeMeters>323.600006103515625</AltitudeMeters>
            <DistanceMeters>57174.342956786</DistanceMeters>
          </Trackpoint>
          <Trackpoint>
            <Time>2021-10-09T09:31:55.000Z</Time>
            <Position>
              <LatitudeDegrees>39.5010160468518733978271484375</LatitudeDegrees>
              <LongitudeDegrees>-0.7417684234678745269775390625</LongitudeDegrees>
            </Position>
            <AltitudeMeters>323.600006103515625</AltitudeMeters>
            <DistanceMeters>57194.404624392</DistanceMeters>
          </Trackpoint>
          <Trackpoint>
            <Time>2021-10-09T09:32:01.000Z</Time>
            <Position>
              <LatitudeDegrees>39.500795267522335052490234375</LatitudeDegrees>
              <LongitudeDegrees>-0.74119049124419689178466796875</LongitudeDegrees>
            </Position>
            <AltitudeMeters>322.600006103515625</AltitudeMeters>
            <DistanceMeters>57249.788652296</DistanceMeters>
          </Trackpoint>
          <Trackpoint>
            <Time>2021-10-09T09:32:03.000Z</Time>
            <Position>
              <LatitudeDegrees>39.50071874074637889862060546875</LatitudeDegrees>
              <LongitudeDegrees>-0.74097809381783008575439453125</LongitudeDegrees>
            </Position>
            <AltitudeMeters>322.399993896484375</AltitudeMeters>
            <DistanceMeters>57269.920415532</DistanceMeters>
          </Trackpoint>
          <Trackpoint>
            <Time>2021-10-09T09:32:07.000Z</Time>
            <Position>
              <LatitudeDegrees>39.500586725771427154541015625</LatitudeDegrees>
              <LongitudeDegrees>-0.74062563478946685791015625</LongitudeDegrees>
            </Position>
            <AltitudeMeters>322.399993896484375</AltitudeMeters>
            <DistanceMeters>57303.568192938</DistanceMeters>
          </Trackpoint>
          <Trackpoint>
            <Time>2021-10-09T09:32:08.000Z</Time>
            <Position>
              <LatitudeDegrees>39.500560574233531951904296875</LatitudeDegrees>
              <LongitudeDegrees>-0.7405456714332103729248046875</LongitudeDegrees>
            </Position>
            <AltitudeMeters>322.600006103515625</AltitudeMeters>
            <DistanceMeters>57311.027638698</DistanceMeters>
          </Trackpoint>
          <Trackpoint>
            <Time>2021-10-09T09:32:10.000Z</Time>
            <Position>
              <LatitudeDegrees>39.50053341686725616455078125</LatitudeDegrees>
              <LongitudeDegrees>-0.74039974249899387359619140625</LongitudeDegrees>
            </Position>
            <AltitudeMeters>322.79998779296875</AltitudeMeters>
            <DistanceMeters>57323.919790847</DistanceMeters>
          </Trackpoint>
          <Trackpoint>
            <Time>2021-10-09T09:32:11.000Z</Time>
            <Position>
              <LatitudeDegrees>39.50053668580949306488037109375</LatitudeDegrees>
              <LongitudeDegrees>-0.7403032667934894561767578125</LongitudeDegrees>
            </Position>
            <AltitudeMeters>322.79998779296875</AltitudeMeters>
            <DistanceMeters>57332.213832223</DistanceMeters>
          </Trackpoint>
          <Trackpoint>
            <Time>2021-10-09T09:32:12.000Z</Time>
            <Position>
              <LatitudeDegrees>39.500558562576770782470703125</LatitudeDegrees>
              <LongitudeDegrees>-0.74022824876010417938232421875</LongitudeDegrees>
            </Position>
            <AltitudeMeters>323</AltitudeMeters>
            <DistanceMeters>57339.101794305</DistanceMeters>
          </Trackpoint>
          <Trackpoint>
            <Time>2021-10-09T09:32:14.000Z</Time>
            <Position>
              <LatitudeDegrees>39.50062100775539875030517578125</LatitudeDegrees>
              <LongitudeDegrees>-0.74009849689900875091552734375</LongitudeDegrees>
            </Position>
            <AltitudeMeters>323.600006103515625</AltitudeMeters>
            <DistanceMeters>57352.234747517</DistanceMeters>
          </Trackpoint>
          <Trackpoint>
            <Time>2021-10-09T09:32:15.000Z</Time>
            <Position>
              <LatitudeDegrees>39.500660486519336700439453125</LatitudeDegrees>
              <LongitudeDegrees>-0.74003286659717559814453125</LongitudeDegrees>
            </Position>
            <AltitudeMeters>323.79998779296875</AltitudeMeters>
            <DistanceMeters>57359.381362965</DistanceMeters>
          </Trackpoint>
          <Trackpoint>
            <Time>2021-10-09T09:32:17.000Z</Time>
            <Position>
              <LatitudeDegrees>39.5007448084652423858642578125</LatitudeDegrees>
              <LongitudeDegrees>-0.739885009825229644775390625</LongitudeDegrees>
            </Position>
            <AltitudeMeters>324.20001220703125</AltitudeMeters>
            <DistanceMeters>57375.170960191</DistanceMeters>
          </Trackpoint>
          <Trackpoint>
            <Time>2021-10-09T09:32:19.000Z</Time>
            <Position>
              <LatitudeDegrees>39.50081278569996356964111328125</LatitudeDegrees>
              <LongitudeDegrees>-0.7397547550499439239501953125</LongitudeDegrees>
            </Position>
            <AltitudeMeters>324.600006103515625</AltitudeMeters>
            <DistanceMeters>57388.675456622</DistanceMeters>
          </Trackpoint>
          <Trackpoint>
            <Time>2021-10-09T09:32:22.000Z</Time>
            <Position>
              <LatitudeDegrees>39.5009181462228298187255859375</LatitudeDegrees>
              <LongitudeDegrees>-0.7394922338426113128662109375</LongitudeDegrees>
            </Position>
            <AltitudeMeters>325.20001220703125</AltitudeMeters>
            <DistanceMeters>57414.088840839</DistanceMeters>
          </Trackpoint>
          <Trackpoint>
            <Time>2021-10-09T09:32:24.000Z</Time>
            <Position>
              <LatitudeDegrees>39.50094404630362987518310546875</LatitudeDegrees>
              <LongitudeDegrees>-0.739324428141117095947265625</LongitudeDegrees>
            </Position>
            <AltitudeMeters>325.399993896484375</AltitudeMeters>
            <DistanceMeters>57428.785759854</DistanceMeters>
          </Trackpoint>
          <Trackpoint>
            <Time>2021-10-09T09:32:25.000Z</Time>
            <Position>
              <LatitudeDegrees>39.50094421394169330596923828125</LatitudeDegrees>
              <LongitudeDegrees>-0.7392261922359466552734375</LongitudeDegrees>
            </Position>
            <AltitudeMeters>325.399993896484375</AltitudeMeters>
            <DistanceMeters>57437.222291282</DistanceMeters>
          </Trackpoint>
          <Trackpoint>
            <Time>2021-10-09T09:32:30.000Z</Time>
            <Position>
              <LatitudeDegrees>39.500846564769744873046875</LatitudeDegrees>
              <LongitudeDegrees>-0.73872931301593780517578125</LongitudeDegrees>
            </Position>
            <AltitudeMeters>325</AltitudeMeters>
            <DistanceMeters>57481.257715835</DistanceMeters>
          </Trackpoint>
          <Trackpoint>
            <Time>2021-10-09T09:32:36.000Z</Time>
            <Position>
              <LatitudeDegrees>39.500597454607486724853515625</LatitudeDegrees>
              <LongitudeDegrees>-0.73819245211780071258544921875</LongitudeDegrees>
            </Position>
            <AltitudeMeters>324.20001220703125</AltitudeMeters>
            <DistanceMeters>57535.059287041</DistanceMeters>
          </Trackpoint>
          <Trackpoint>
            <Time>2021-10-09T09:32:40.000Z</Time>
            <Position>
              <LatitudeDegrees>39.50043140910565853118896484375</LatitudeDegrees>
              <LongitudeDegrees>-0.7378011010587215423583984375</LongitudeDegrees>
            </Position>
            <AltitudeMeters>323.399993896484375</AltitudeMeters>
            <DistanceMeters>57573.415605223</DistanceMeters>
          </Trackpoint>
          <Trackpoint>
            <Time>2021-10-09T09:32:41.000Z</Time>
            <Position>
              <LatitudeDegrees>39.50039737857878208160400390625</LatitudeDegrees>
              <LongitudeDegrees>-0.73769657872617244720458984375</LongitudeDegrees>
            </Position>
            <AltitudeMeters>323</AltitudeMeters>
            <DistanceMeters>57583.158971872</DistanceMeters>
          </Trackpoint>
          <Trackpoint>
            <Time>2021-10-09T09:32:43.000Z</Time>
            <Position>
              <LatitudeDegrees>39.50032797642052173614501953125</LatitudeDegrees>
              <LongitudeDegrees>-0.737487114965915679931640625</LongitudeDegrees>
            </Position>
            <AltitudeMeters>322.20001220703125</AltitudeMeters>
            <DistanceMeters>57602.73678137</DistanceMeters>
          </Trackpoint>
          <Trackpoint>
            <Time>2021-10-09T09:32:45.000Z</Time>
            <Position>
              <LatitudeDegrees>39.50025639496743679046630859375</LatitudeDegrees>
              <LongitudeDegrees>-0.737281255424022674560546875</LongitudeDegrees>
            </Position>
            <AltitudeMeters>321.399993896484375</AltitudeMeters>
            <DistanceMeters>57622.128751447</DistanceMeters>
          </Trackpoint>
          <Trackpoint>
            <Time>2021-10-09T09:32:47.000Z</Time>
            <Position>
              <LatitudeDegrees>39.5001895911991596221923828125</LatitudeDegrees>
              <LongitudeDegrees>-0.7370822690427303314208984375</LongitudeDegrees>
            </Position>
            <AltitudeMeters>320.79998779296875</AltitudeMeters>
            <DistanceMeters>57640.765619755</DistanceMeters>
          </Trackpoint>
          <Trackpoint>
            <Time>2021-10-09T09:32:49.000Z</Time>
            <Position>
              <LatitudeDegrees>39.50012479908764362335205078125</LatitudeDegrees>
              <LongitudeDegrees>-0.7368837855756282806396484375</LongitudeDegrees>
            </Position>
            <AltitudeMeters>320.20001220703125</AltitudeMeters>
            <DistanceMeters>57659.274618651</DistanceMeters>
          </Trackpoint>
          <Trackpoint>
            <Time>2021-10-09T09:32:52.000Z</Time>
            <Position>
              <LatitudeDegrees>39.50001818127930164337158203125</LatitudeDegrees>
              <LongitudeDegrees>-0.73659569956362247467041015625</LongitudeDegrees>
            </Position>
            <AltitudeMeters>319.600006103515625</AltitudeMeters>
            <DistanceMeters>57686.715135307</DistanceMeters>
          </Trackpoint>
          <Trackpoint>
            <Time>2021-10-09T09:32:53.000Z</Time>
            <Position>
              <LatitudeDegrees>39.49997995980083942413330078125</LatitudeDegrees>
              <LongitudeDegrees>-0.73652797378599643707275390625</LongitudeDegrees>
            </Position>
            <AltitudeMeters>319.600006103515625</AltitudeMeters>
            <DistanceMeters>57693.920892696</DistanceMeters>
          </Trackpoint>
          <Trackpoint>
            <Time>2021-10-09T09:32:54.000Z</Time>
            <Position>
              <LatitudeDegrees>39.49991047382354736328125</LatitudeDegrees>
              <LongitudeDegrees>-0.7364428974688053131103515625</LongitudeDegrees>
            </Position>
            <AltitudeMeters>319.399993896484375</AltitudeMeters>
            <DistanceMeters>57704.560490353</DistanceMeters>
          </Trackpoint>
          <Trackpoint>
            <Time>2021-10-09T09:32:57.000Z</Time>
            <Position>
              <LatitudeDegrees>39.49970754794776439666748046875</LatitudeDegrees>
              <LongitudeDegrees>-0.73628204874694347381591796875</LongitudeDegrees>
            </Position>
            <AltitudeMeters>318.79998779296875</AltitudeMeters>
            <DistanceMeters>57731.036304109</DistanceMeters>
          </Trackpoint>
          <Trackpoint>
            <Time>2021-10-09T09:32:58.000Z</Time>
            <Position>
              <LatitudeDegrees>39.49962490238249301910400390625</LatitudeDegrees>
              <LongitudeDegrees>-0.7362355291843414306640625</LongitudeDegrees>
            </Position>
            <AltitudeMeters>318.79998779296875</AltitudeMeters>
            <DistanceMeters>57741.065562382</DistanceMeters>
          </Trackpoint>
          <Trackpoint>
            <Time>2021-10-09T09:32:59.000Z</Time>
            <Position>
              <LatitudeDegrees>39.49951878748834133148193359375</LatitudeDegrees>
              <LongitudeDegrees>-0.73620267212390899658203125</LongitudeDegrees>
            </Position>
            <AltitudeMeters>318.399993896484375</AltitudeMeters>
            <DistanceMeters>57753.20892058</DistanceMeters>
          </Trackpoint>
          <Trackpoint>
            <Time>2021-10-09T09:33:00.000Z</Time>
            <Position>
              <LatitudeDegrees>39.49942608363926410675048828125</LatitudeDegrees>
              <LongitudeDegrees>-0.73619722388684749603271484375</LongitudeDegrees>
            </Position>
            <AltitudeMeters>318.20001220703125</AltitudeMeters>
            <DistanceMeters>57763.537585698</DistanceMeters>
          </Trackpoint>
          <Trackpoint>
            <Time>2021-10-09T09:33:02.000Z</Time>
            <Position>
              <LatitudeDegrees>39.4992380775511264801025390625</LatitudeDegrees>
              <LongitudeDegrees>-0.73620543815195560455322265625</LongitudeDegrees>
            </Position>
            <AltitudeMeters>317.20001220703125</AltitudeMeters>
            <DistanceMeters>57784.474970708</DistanceMeters>
          </Trackpoint>
          <Trackpoint>
            <Time>2021-10-09T09:33:04.000Z</Time>
            <Position>
              <LatitudeDegrees>39.499034397304058074951171875</LatitudeDegrees>
              <LongitudeDegrees>-0.7362219505012035369873046875</LongitudeDegrees>
            </Position>
            <AltitudeMeters>315.600006103515625</AltitudeMeters>
            <DistanceMeters>57807.189337256</DistanceMeters>
          </Trackpoint>
          <Trackpoint>
            <Time>2021-10-09T09:33:07.000Z</Time>
            <Position>
              <LatitudeDegrees>39.49874077923595905303955078125</LatitudeDegrees>
              <LongitudeDegrees>-0.736254639923572540283203125</LongitudeDegrees>
            </Position>
            <AltitudeMeters>314.79998779296875</AltitudeMeters>
            <DistanceMeters>57839.990075936</DistanceMeters>
          </Trackpoint>
          <Trackpoint>
            <Time>2021-10-09T09:33:08.000Z</Time>
            <Position>
              <LatitudeDegrees>39.498639442026615142822265625</LatitudeDegrees>
              <LongitudeDegrees>-0.73628087528049945831298828125</LongitudeDegrees>
            </Position>
            <AltitudeMeters>314.20001220703125</AltitudeMeters>
            <DistanceMeters>57851.491841883</DistanceMeters>
          </Trackpoint>
          <Trackpoint>
            <Time>2021-10-09T09:33:09.000Z</Time>
            <Position>
              <LatitudeDegrees>39.4985222630202770233154296875</LatitudeDegrees>
              <LongitudeDegrees>-0.7363215275108814239501953125</LongitudeDegrees>
            </Position>
            <AltitudeMeters>313.79998779296875</AltitudeMeters>
            <DistanceMeters>57864.993663362</DistanceMeters>
          </Trackpoint>
          <Trackpoint>
            <Time>2021-10-09T09:33:10.000Z</Time>
            <Position>
              <LatitudeDegrees>39.498427212238311767578125</LatitudeDegrees>
              <LongitudeDegrees>-0.73635798878967761993408203125</LongitudeDegrees>
            </Position>
            <AltitudeMeters>313</AltitudeMeters>
            <DistanceMeters>57876.026588199</DistanceMeters>
          </Trackpoint>
          <Trackpoint>
            <Time>2021-10-09T09:33:12.000Z</Time>
            <Position>
              <LatitudeDegrees>39.4982392899692058563232421875</LatitudeDegrees>
              <LongitudeDegrees>-0.73642336763441562652587890625</LongitudeDegrees>
            </Position>
            <AltitudeMeters>311.79998779296875</AltitudeMeters>
            <DistanceMeters>57897.68350789</DistanceMeters>
          </Trackpoint>
          <Trackpoint>
            <Time>2021-10-09T09:33:14.000Z</Time>
            <Position>
              <LatitudeDegrees>39.49805195443332195281982421875</LatitudeDegrees>
              <LongitudeDegrees>-0.73648908175528049468994140625</LongitudeDegrees>
            </Position>
            <AltitudeMeters>311.20001220703125</AltitudeMeters>
            <DistanceMeters>57919.284482637</DistanceMeters>
          </Trackpoint>
          <Trackpoint>
            <Time>2021-10-09T09:33:17.000Z</Time>
            <Position>
              <LatitudeDegrees>39.4977766089141368865966796875</LatitudeDegrees>
              <LongitudeDegrees>-0.7366024889051914215087890625</LongitudeDegrees>
            </Position>
            <AltitudeMeters>310.600006103515625</AltitudeMeters>
            <DistanceMeters>57951.441724964</DistanceMeters>
          </Trackpoint>
          <Trackpoint>
            <Time>2021-10-09T09:33:22.000Z</Time>
            <Position>
              <LatitudeDegrees>39.497320465743541717529296875</LatitudeDegrees>
              <LongitudeDegrees>-0.73680675588548183441162109375</LongitudeDegrees>
            </Position>
            <AltitudeMeters>309.600006103515625</AltitudeMeters>
            <DistanceMeters>58005.157125044</DistanceMeters>
          </Trackpoint>
          <Trackpoint>
            <Time>2021-10-09T09:33:23.000Z</Time>
            <Position>
              <LatitudeDegrees>39.4972257502377033233642578125</LatitudeDegrees>
              <LongitudeDegrees>-0.73682804591953754425048828125</LongitudeDegrees>
            </Position>
            <AltitudeMeters>309.399993896484375</AltitudeMeters>
            <DistanceMeters>58015.856390397</DistanceMeters>
          </Trackpoint>
          <Trackpoint>
            <Time>2021-10-09T09:33:24.000Z</Time>
            <Position>
              <LatitudeDegrees>39.4971303641796112060546875</LatitudeDegrees>
              <LongitudeDegrees>-0.7368229329586029052734375</LongitudeDegrees>
            </Position>
            <AltitudeMeters>309.20001220703125</AltitudeMeters>
            <DistanceMeters>58026.481549958</DistanceMeters>
          </Trackpoint>
          <Trackpoint>
            <Time>2021-10-09T09:33:27.000Z</Time>
            <Position>
              <LatitudeDegrees>39.4968415237963199615478515625</LatitudeDegrees>
              <LongitudeDegrees>-0.7366816140711307525634765625</LongitudeDegrees>
            </Position>
            <AltitudeMeters>308.20001220703125</AltitudeMeters>
            <DistanceMeters>58060.844844421</DistanceMeters>
          </Trackpoint>
          <Trackpoint>
            <Time>2021-10-09T09:33:30.000Z</Time>
            <Position>
              <LatitudeDegrees>39.49655477888882160186767578125</LatitudeDegrees>
              <LongitudeDegrees>-0.73649176396429538726806640625</LongitudeDegrees>
            </Position>
            <AltitudeMeters>307.20001220703125</AltitudeMeters>
            <DistanceMeters>58096.684280293</DistanceMeters>
          </Trackpoint>
          <Trackpoint>
            <Time>2021-10-09T09:33:31.000Z</Time>
            <Position>
              <LatitudeDegrees>39.4964589737355709075927734375</LatitudeDegrees>
              <LongitudeDegrees>-0.73642420582473278045654296875</LongitudeDegrees>
            </Position>
            <AltitudeMeters>306</AltitudeMeters>
            <DistanceMeters>58108.823919808</DistanceMeters>
          </Trackpoint>
          <Trackpoint>
            <Time>2021-10-09T09:33:33.000Z</Time>
            <Position>
              <LatitudeDegrees>39.49627264402806758880615234375</LatitudeDegrees>
              <LongitudeDegrees>-0.736271403729915618896484375</LongitudeDegrees>
            </Position>
            <AltitudeMeters>304.399993896484375</AltitudeMeters>
            <DistanceMeters>58133.366397048</DistanceMeters>
          </Trackpoint>
          <Trackpoint>
            <Time>2021-10-09T09:33:34.000Z</Time>
            <Position>
              <LatitudeDegrees>39.496185220777988433837890625</LatitudeDegrees>
              <LongitudeDegrees>-0.73617962189018726348876953125</LongitudeDegrees>
            </Position>
            <AltitudeMeters>304</AltitudeMeters>
            <DistanceMeters>58145.889749941</DistanceMeters>
          </Trackpoint>
          <Trackpoint>
            <Time>2021-10-09T09:33:35.000Z</Time>
            <Position>
              <LatitudeDegrees>39.4960992224514484405517578125</LatitudeDegrees>
              <LongitudeDegrees>-0.7360791228711605072021484375</LongitudeDegrees>
            </Position>
            <AltitudeMeters>303.20001220703125</AltitudeMeters>
            <DistanceMeters>58158.778399453</DistanceMeters>
          </Trackpoint>
          <Trackpoint>
            <Time>2021-10-09T09:33:36.000Z</Time>
            <Position>
              <LatitudeDegrees>39.49601246975362300872802734375</LatitudeDegrees>
              <LongitudeDegrees>-0.73597946204245090484619140625</LongitudeDegrees>
            </Position>
            <AltitudeMeters>302.20001220703125</AltitudeMeters>
            <DistanceMeters>58171.681753648</DistanceMeters>
          </Trackpoint>
          <Trackpoint>
            <Time>2021-10-09T09:33:38.000Z</Time>
            <Position>
              <LatitudeDegrees>39.495839886367321014404296875</LatitudeDegrees>
              <LongitudeDegrees>-0.73577444069087505340576171875</LongitudeDegrees>
            </Position>
            <AltitudeMeters>300.79998779296875</AltitudeMeters>
            <DistanceMeters>58197.74022038</DistanceMeters>
          </Trackpoint>
          <Trackpoint>
            <Time>2021-10-09T09:33:40.000Z</Time>
            <Position>
              <LatitudeDegrees>39.4956633634865283966064453125</LatitudeDegrees>
              <LongitudeDegrees>-0.73557436466217041015625</LongitudeDegrees>
            </Position>
            <AltitudeMeters>299.20001220703125</AltitudeMeters>
            <DistanceMeters>58223.842313547</DistanceMeters>
          </Trackpoint>
          <Trackpoint>
            <Time>2021-10-09T09:33:41.000Z</Time>
            <Position>
              <LatitudeDegrees>39.49556529521942138671875</LatitudeDegrees>
              <LongitudeDegrees>-0.73548828251659870147705078125</LongitudeDegrees>
            </Position>
            <AltitudeMeters>298.600006103515625</AltitudeMeters>
            <DistanceMeters>58237.025707697</DistanceMeters>
          </Trackpoint>
          <Trackpoint>
            <Time>2021-10-09T09:33:42.000Z</Time>
            <Position>
              <LatitudeDegrees>39.49545607902109622955322265625</LatitudeDegrees>
              <LongitudeDegrees>-0.7354236580431461334228515625</LongitudeDegrees>
            </Position>
            <AltitudeMeters>297.600006103515625</AltitudeMeters>
            <DistanceMeters>58250.388369543</DistanceMeters>
          </Trackpoint>
          <Trackpoint>
            <Time>2021-10-09T09:33:43.000Z</Time>
            <Position>
              <LatitudeDegrees>39.49534208513796329498291015625</LatitudeDegrees>
              <LongitudeDegrees>-0.735378898680210113525390625</LongitudeDegrees>
            </Position>
            <AltitudeMeters>297</AltitudeMeters>
            <DistanceMeters>58263.645532808</DistanceMeters>
          </Trackpoint>
          <Trackpoint>
            <Time>2021-10-09T09:33:44.000Z</Time>
            <Position>
              <LatitudeDegrees>39.4952275045216083526611328125</LatitudeDegrees>
              <LongitudeDegrees>-0.73534394614398479461669921875</LongitudeDegrees>
            </Position>
            <AltitudeMeters>296.399993896484375</AltitudeMeters>
            <DistanceMeters>58276.747507972</DistanceMeters>
          </Trackpoint>
          <Trackpoint>
            <Time>2021-10-09T09:33:46.000Z</Time>
            <Position>
              <LatitudeDegrees>39.4950021989643573760986328125</LatitudeDegrees>
              <LongitudeDegrees>-0.7352872006595134735107421875</LongitudeDegrees>
            </Position>
            <AltitudeMeters>295.399993896484375</AltitudeMeters>
            <DistanceMeters>58302.293615789</DistanceMeters>
          </Trackpoint>
          <Trackpoint>
            <Time>2021-10-09T09:33:49.000Z</Time>
            <Position>
              <LatitudeDegrees>39.4946736283600330352783203125</LatitudeDegrees>
              <LongitudeDegrees>-0.73519357480108737945556640625</LongitudeDegrees>
            </Position>
            <AltitudeMeters>293.79998779296875</AltitudeMeters>
            <DistanceMeters>58339.737758844</DistanceMeters>
          </Trackpoint>
          <Trackpoint>
            <Time>2021-10-09T09:33:50.000Z</Time>
            <Position>
              <LatitudeDegrees>39.494579248130321502685546875</LatitudeDegrees>
              <LongitudeDegrees>-0.73513557203114032745361328125</LongitudeDegrees>
            </Position>
            <AltitudeMeters>293.20001220703125</AltitudeMeters>
            <DistanceMeters>58351.363686085</DistanceMeters>
          </Trackpoint>
          <Trackpoint>
            <Time>2021-10-09T09:33:51.000Z</Time>
            <Position>
              <LatitudeDegrees>39.4944989494979381561279296875</LatitudeDegrees>
              <LongitudeDegrees>-0.73505091480910778045654296875</LongitudeDegrees>
            </Position>
            <AltitudeMeters>293</AltitudeMeters>
            <DistanceMeters>58362.885062901</DistanceMeters>
          </Trackpoint>
          <Trackpoint>
            <Time>2021-10-09T09:33:52.000Z</Time>
            <Position>
              <LatitudeDegrees>39.49442803859710693359375</LatitudeDegrees>
              <LongitudeDegrees>-0.7349507510662078857421875</LongitudeDegrees>
            </Position>
            <AltitudeMeters>292.600006103515625</AltitudeMeters>
            <DistanceMeters>58374.559820879</DistanceMeters>
          </Trackpoint>
          <Trackpoint>
            <Time>2021-10-09T09:33:53.000Z</Time>
            <Position>
              <LatitudeDegrees>39.49436609633266925811767578125</LatitudeDegrees>
              <LongitudeDegrees>-0.734840445220470428466796875</LongitudeDegrees>
            </Position>
            <AltitudeMeters>292.399993896484375</AltitudeMeters>
            <DistanceMeters>58386.277042489</DistanceMeters>
          </Trackpoint>
          <Trackpoint>
            <Time>2021-10-09T09:33:56.000Z</Time>
            <Position>
              <LatitudeDegrees>39.4942002184689044952392578125</LatitudeDegrees>
              <LongitudeDegrees>-0.73450106196105480194091796875</LongitudeDegrees>
            </Position>
            <AltitudeMeters>292</AltitudeMeters>
            <DistanceMeters>58420.781816924</DistanceMeters>
          </Trackpoint>
          <Trackpoint>
            <Time>2021-10-09T09:33:58.000Z</Time>
            <Position>
              <LatitudeDegrees>39.49408781714737415313720703125</LatitudeDegrees>
              <LongitudeDegrees>-0.73427910916507244110107421875</LongitudeDegrees>
            </Position>
            <AltitudeMeters>291.399993896484375</AltitudeMeters>
            <DistanceMeters>58443.584070575</DistanceMeters>
          </Trackpoint>
          <Trackpoint>
            <Time>2021-10-09T09:33:59.000Z</Time>
            <Position>
              <LatitudeDegrees>39.49402595870196819305419921875</LatitudeDegrees>
              <LongitudeDegrees>-0.734173916280269622802734375</LongitudeDegrees>
            </Position>
            <AltitudeMeters>291.20001220703125</AltitudeMeters>
            <DistanceMeters>58454.943638894</DistanceMeters>
          </Trackpoint>
          <Trackpoint>
            <Time>2021-10-09T09:34:00.000Z</Time>
            <Position>
              <LatitudeDegrees>39.49395705945789813995361328125</LatitudeDegrees>
              <LongitudeDegrees>-0.73407878167927265167236328125</LongitudeDegrees>
            </Position>
            <AltitudeMeters>291</AltitudeMeters>
            <DistanceMeters>58466.149541045</DistanceMeters>
          </Trackpoint>
          <Trackpoint>
            <Time>2021-10-09T09:34:03.000Z</Time>
            <Position>
              <LatitudeDegrees>39.49372035451233386993408203125</LatitudeDegrees>
              <LongitudeDegrees>-0.7338277436792850494384765625</LongitudeDegrees>
            </Position>
            <AltitudeMeters>290.399993896484375</AltitudeMeters>
            <DistanceMeters>58500.193781551</DistanceMeters>
          </Trackpoint>
          <Trackpoint>
            <Time>2021-10-09T09:34:05.000Z</Time>
            <Position>
              <LatitudeDegrees>39.49354936368763446807861328125</LatitudeDegrees>
              <LongitudeDegrees>-0.73368332348763942718505859375</LongitudeDegrees>
            </Position>
            <AltitudeMeters>289.79998779296875</AltitudeMeters>
            <DistanceMeters>58522.910930773</DistanceMeters>
          </Trackpoint>
          <Trackpoint>
            <Time>2021-10-09T09:34:06.000Z</Time>
            <Position>
              <LatitudeDegrees>39.4934545643627643585205078125</LatitudeDegrees>
              <LongitudeDegrees>-0.73363387025892734527587890625</LongitudeDegrees>
            </Position>
            <AltitudeMeters>289.20001220703125</AltitudeMeters>
            <DistanceMeters>58534.285195813</DistanceMeters>
          </Trackpoint>
          <Trackpoint>
            <Time>2021-10-09T09:34:07.000Z</Time>
            <Position>
              <LatitudeDegrees>39.4933583401143550872802734375</LatitudeDegrees>
              <LongitudeDegrees>-0.73360227048397064208984375</LongitudeDegrees>
            </Position>
            <AltitudeMeters>289</AltitudeMeters>
            <DistanceMeters>58545.334069215</DistanceMeters>
          </Trackpoint>
          <Trackpoint>
            <Time>2021-10-09T09:34:08.000Z</Time>
            <Position>
              <LatitudeDegrees>39.493259601294994354248046875</LatitudeDegrees>
              <LongitudeDegrees>-0.7335806451737880706787109375</LongitudeDegrees>
            </Position>
            <AltitudeMeters>288.20001220703125</AltitudeMeters>
            <DistanceMeters>58556.479370088</DistanceMeters>
          </Trackpoint>
          <Trackpoint>
            <Time>2021-10-09T09:34:12.000Z</Time>
            <Position>
              <LatitudeDegrees>39.49287495575845241546630859375</LatitudeDegrees>
              <LongitudeDegrees>-0.73351442813873291015625</LongitudeDegrees>
            </Position>
            <AltitudeMeters>287</AltitudeMeters>
            <DistanceMeters>58599.667312964</DistanceMeters>
          </Trackpoint>
          <Trackpoint>
            <Time>2021-10-09T09:34:14.000Z</Time>
            <Position>
              <LatitudeDegrees>39.492701031267642974853515625</LatitudeDegrees>
              <LongitudeDegrees>-0.73341141454875469207763671875</LongitudeDegrees>
            </Position>
            <AltitudeMeters>286.600006103515625</AltitudeMeters>
            <DistanceMeters>58620.951600009</DistanceMeters>
          </Trackpoint>
          <Trackpoint>
            <Time>2021-10-09T09:34:15.000Z</Time>
            <Position>
              <LatitudeDegrees>39.4926296174526214599609375</LatitudeDegrees>
              <LongitudeDegrees>-0.7333335466682910919189453125</LongitudeDegrees>
            </Position>
            <AltitudeMeters>286.399993896484375</AltitudeMeters>
            <DistanceMeters>58631.339545596</DistanceMeters>
          </Trackpoint>
          <Trackpoint>
            <Time>2021-10-09T09:34:16.000Z</Time>
            <Position>
              <LatitudeDegrees>39.49257521890103816986083984375</LatitudeDegrees>
              <LongitudeDegrees>-0.73324142955243587493896484375</LongitudeDegrees>
            </Position>
            <AltitudeMeters>286.399993896484375</AltitudeMeters>
            <DistanceMeters>58641.302859821</DistanceMeters>
          </Trackpoint>
          <Trackpoint>
            <Time>2021-10-09T09:34:17.000Z</Time>
            <Position>
              <LatitudeDegrees>39.4925416074693202972412109375</LatitudeDegrees>
              <LongitudeDegrees>-0.7331370748579502105712890625</LongitudeDegrees>
            </Position>
            <AltitudeMeters>286.399993896484375</AltitudeMeters>
            <DistanceMeters>58651.015594174</DistanceMeters>
          </Trackpoint>
          <Trackpoint>
            <Time>2021-10-09T09:34:18.000Z</Time>
            <Position>
              <LatitudeDegrees>39.4925261847674846649169921875</LatitudeDegrees>
              <LongitudeDegrees>-0.733026601374149322509765625</LongitudeDegrees>
            </Position>
            <AltitudeMeters>286.20001220703125</AltitudeMeters>
            <DistanceMeters>58660.658347782</DistanceMeters>
          </Trackpoint>
          <Trackpoint>
            <Time>2021-10-09T09:34:19.000Z</Time>
            <Position>
              <LatitudeDegrees>39.492520652711391448974609375</LatitudeDegrees>
              <LongitudeDegrees>-0.73291604407131671905517578125</LongitudeDegrees>
            </Position>
            <AltitudeMeters>286.20001220703125</AltitudeMeters>
            <DistanceMeters>58670.174313659</DistanceMeters>
          </Trackpoint>
          <Trackpoint>
            <Time>2021-10-09T09:34:20.000Z</Time>
            <Position>
              <LatitudeDegrees>39.49251629412174224853515625</LatitudeDegrees>
              <LongitudeDegrees>-0.73280456475913524627685546875</LongitudeDegrees>
            </Position>
            <AltitudeMeters>286</AltitudeMeters>
            <DistanceMeters>58679.76165678</DistanceMeters>
          </Trackpoint>
          <Trackpoint>
            <Time>2021-10-09T09:34:21.000Z</Time>
            <Position>
              <LatitudeDegrees>39.49250263161957263946533203125</LatitudeDegrees>
              <LongitudeDegrees>-0.73269828222692012786865234375</LongitudeDegrees>
            </Position>
            <AltitudeMeters>285.79998779296875</AltitudeMeters>
            <DistanceMeters>58689.015912288</DistanceMeters>
          </Trackpoint>
          <Trackpoint>
            <Time>2021-10-09T09:34:23.000Z</Time>
            <Position>
              <LatitudeDegrees>39.49243809096515178680419921875</LatitudeDegrees>
              <LongitudeDegrees>-0.73250935412943363189697265625</LongitudeDegrees>
            </Position>
            <AltitudeMeters>286</AltitudeMeters>
            <DistanceMeters>58706.762262506</DistanceMeters>
          </Trackpoint>
          <Trackpoint>
            <Time>2021-10-09T09:34:25.000Z</Time>
            <Position>
              <LatitudeDegrees>39.4923318922519683837890625</LatitudeDegrees>
              <LongitudeDegrees>-0.73237717151641845703125</LongitudeDegrees>
            </Position>
            <AltitudeMeters>286.20001220703125</AltitudeMeters>
            <DistanceMeters>58723.151822719</DistanceMeters>
          </Trackpoint>
          <Trackpoint>
            <Time>2021-10-09T09:34:26.000Z</Time>
            <Position>
              <LatitudeDegrees>39.4922844506800174713134765625</LatitudeDegrees>
              <LongitudeDegrees>-0.73234003968536853790283203125</LongitudeDegrees>
            </Position>
            <AltitudeMeters>286.20001220703125</AltitudeMeters>
            <DistanceMeters>58729.32051319</DistanceMeters>
          </Trackpoint>
          <Trackpoint>
            <Time>2021-10-09T09:34:27.000Z</Time>
            <Position>
              <LatitudeDegrees>39.49222393333911895751953125</LatitudeDegrees>
              <LongitudeDegrees>-0.73230139911174774169921875</LongitudeDegrees>
            </Position>
            <AltitudeMeters>286.20001220703125</AltitudeMeters>
            <DistanceMeters>58736.829427713</DistanceMeters>
          </Trackpoint>
          <Trackpoint>
            <Time>2021-10-09T09:34:29.000Z</Time>
            <Position>
              <LatitudeDegrees>39.492090828716754913330078125</LatitudeDegrees>
              <LongitudeDegrees>-0.73222897946834564208984375</LongitudeDegrees>
            </Position>
            <AltitudeMeters>287.20001220703125</AltitudeMeters>
            <DistanceMeters>58752.897093553</DistanceMeters>
          </Trackpoint>
          <Trackpoint>
            <Time>2021-10-09T09:34:31.000Z</Time>
            <Position>
              <LatitudeDegrees>39.49198253452777862548828125</LatitudeDegrees>
              <LongitudeDegrees>-0.73217139579355716705322265625</LongitudeDegrees>
            </Position>
            <AltitudeMeters>287.79998779296875</AltitudeMeters>
            <DistanceMeters>58765.925807112</DistanceMeters>
          </Trackpoint>
          <Trackpoint>
            <Time>2021-10-09T09:34:33.000Z</Time>
            <Position>
              <LatitudeDegrees>39.49185605160892009735107421875</LatitudeDegrees>
              <LongitudeDegrees>-0.7320990599691867828369140625</LongitudeDegrees>
            </Position>
            <AltitudeMeters>288.399993896484375</AltitudeMeters>
            <DistanceMeters>58781.313681056</DistanceMeters>
          </Trackpoint>
          <Trackpoint>
            <Time>2021-10-09T09:34:36.000Z</Time>
            <Position>
              <LatitudeDegrees>39.49168589897453784942626953125</LatitudeDegrees>
              <LongitudeDegrees>-0.732007361948490142822265625</LongitudeDegrees>
            </Position>
            <AltitudeMeters>289</AltitudeMeters>
            <DistanceMeters>58801.824708125</DistanceMeters>
          </Trackpoint>
          <Trackpoint>
            <Time>2021-10-09T09:34:38.000Z</Time>
            <Position>
              <LatitudeDegrees>39.4915709830820560455322265625</LatitudeDegrees>
              <LongitudeDegrees>-0.73194374330341815948486328125</LongitudeDegrees>
            </Position>
            <AltitudeMeters>289.600006103515625</AltitudeMeters>
            <DistanceMeters>58815.733710884</DistanceMeters>
          </Trackpoint>
          <Trackpoint>
            <Time>2021-10-09T09:34:41.000Z</Time>
            <Position>
              <LatitudeDegrees>39.4913984835147857666015625</LatitudeDegrees>
              <LongitudeDegrees>-0.73183813132345676422119140625</LongitudeDegrees>
            </Position>
            <AltitudeMeters>290.20001220703125</AltitudeMeters>
            <DistanceMeters>58836.96851409</DistanceMeters>
          </Trackpoint>
          <Trackpoint>
            <Time>2021-10-09T09:34:43.000Z</Time>
            <Position>
              <LatitudeDegrees>39.49128524400293827056884765625</LatitudeDegrees>
              <LongitudeDegrees>-0.73174743913114070892333984375</LongitudeDegrees>
            </Position>
            <AltitudeMeters>290.399993896484375</AltitudeMeters>
            <DistanceMeters>58851.785369982</DistanceMeters>
          </Trackpoint>
          <Trackpoint>
            <Time>2021-10-09T09:34:44.000Z</Time>
            <Position>
              <LatitudeDegrees>39.49122891761362552642822265625</LatitudeDegrees>
              <LongitudeDegrees>-0.73169111274182796478271484375</LongitudeDegrees>
            </Position>
            <AltitudeMeters>290.600006103515625</AltitudeMeters>
            <DistanceMeters>58859.704009437</DistanceMeters>
          </Trackpoint>
          <Trackpoint>
            <Time>2021-10-09T09:34:50.000Z</Time>
            <Position>
              <LatitudeDegrees>39.4908860139548778533935546875</LatitudeDegrees>
              <LongitudeDegrees>-0.73132733814418315887451171875</LongitudeDegrees>
            </Position>
            <AltitudeMeters>290.399993896484375</AltitudeMeters>
            <DistanceMeters>58909.029007523</DistanceMeters>
          </Trackpoint>
          <Trackpoint>
            <Time>2021-10-09T09:34:51.000Z</Time>
            <Position>
              <LatitudeDegrees>39.4908397458493709564208984375</LatitudeDegrees>
              <LongitudeDegrees>-0.7312816567718982696533203125</LongitudeDegrees>
            </Position>
            <AltitudeMeters>290.399993896484375</AltitudeMeters>
            <DistanceMeters>58915.503388949</DistanceMeters>
          </Trackpoint>
          <Trackpoint>
            <Time>2021-10-09T09:34:52.000Z</Time>
            <Position>
              <LatitudeDegrees>39.4907676614820957183837890625</LatitudeDegrees>
              <LongitudeDegrees>-0.73121971450746059417724609375</LongitudeDegrees>
            </Position>
            <AltitudeMeters>290.20001220703125</AltitudeMeters>
            <DistanceMeters>58925.130209533</DistanceMeters>
          </Trackpoint>
          <Trackpoint>
            <Time>2021-10-09T09:34:56.000Z</Time>
            <Position>
              <LatitudeDegrees>39.49051260016858577728271484375</LatitudeDegrees>
              <LongitudeDegrees>-0.73105626739561557769775390625</LongitudeDegrees>
            </Position>
            <AltitudeMeters>290</AltitudeMeters>
            <DistanceMeters>58956.800775854</DistanceMeters>
          </Trackpoint>
          <Trackpoint>
            <Time>2021-10-09T09:35:00.000Z</Time>
            <Position>
              <LatitudeDegrees>39.49025343172252178192138671875</LatitudeDegrees>
              <LongitudeDegrees>-0.73086733929812908172607421875</LongitudeDegrees>
            </Position>
            <AltitudeMeters>290</AltitudeMeters>
            <DistanceMeters>58989.898186227</DistanceMeters>
          </Trackpoint>
          <Trackpoint>
            <Time>2021-10-09T09:35:02.000Z</Time>
            <Position>
              <LatitudeDegrees>39.490131475031375885009765625</LatitudeDegrees>
              <LongitudeDegrees>-0.73074513114988803863525390625</LongitudeDegrees>
            </Position>
            <AltitudeMeters>289.79998779296875</AltitudeMeters>
            <DistanceMeters>59007.057811301</DistanceMeters>
          </Trackpoint>
          <Trackpoint>
            <Time>2021-10-09T09:35:08.000Z</Time>
            <Position>
              <LatitudeDegrees>39.48977448977530002593994140625</LatitudeDegrees>
              <LongitudeDegrees>-0.73037691414356231689453125</LongitudeDegrees>
            </Position>
            <AltitudeMeters>289.399993896484375</AltitudeMeters>
            <DistanceMeters>59057.842367055</DistanceMeters>
          </Trackpoint>
          <Trackpoint>
            <Time>2021-10-09T09:35:10.000Z</Time>
            <Position>
              <LatitudeDegrees>39.48966653086245059967041015625</LatitudeDegrees>
              <LongitudeDegrees>-0.73026954196393489837646484375</LongitudeDegrees>
            </Position>
            <AltitudeMeters>289.399993896484375</AltitudeMeters>
            <DistanceMeters>59072.989518017</DistanceMeters>
          </Trackpoint>
          <Trackpoint>
            <Time>2021-10-09T09:35:11.000Z</Time>
            <Position>
              <LatitudeDegrees>39.48960701934993267059326171875</LatitudeDegrees>
              <LongitudeDegrees>-0.73021321557462215423583984375</LongitudeDegrees>
            </Position>
            <AltitudeMeters>289.399993896484375</AltitudeMeters>
            <DistanceMeters>59081.191595163</DistanceMeters>
          </Trackpoint>
          <Trackpoint>
            <Time>2021-10-09T09:35:13.000Z</Time>
            <Position>
              <LatitudeDegrees>39.48946938849985599517822265625</LatitudeDegrees>
              <LongitudeDegrees>-0.73010307736694812774658203125</LongitudeDegrees>
            </Position>
            <AltitudeMeters>289.399993896484375</AltitudeMeters>
            <DistanceMeters>59099.196085831</DistanceMeters>
          </Trackpoint>
          <Trackpoint>
            <Time>2021-10-09T09:35:15.000Z</Time>
            <Position>
              <LatitudeDegrees>39.4893437437713146209716796875</LatitudeDegrees>
              <LongitudeDegrees>-0.73004205711185932159423828125</LongitudeDegrees>
            </Position>
            <AltitudeMeters>289.399993896484375</AltitudeMeters>
            <DistanceMeters>59114.130403963</DistanceMeters>
          </Trackpoint>
          <Trackpoint>
            <Time>2021-10-09T09:35:21.000Z</Time>
            <Position>
              <LatitudeDegrees>39.48891936801373958587646484375</LatitudeDegrees>
              <LongitudeDegrees>-0.7299335114657878875732421875</LongitudeDegrees>
            </Position>
            <AltitudeMeters>289.600006103515625</AltitudeMeters>
            <DistanceMeters>59162.275667933</DistanceMeters>
          </Trackpoint>
          <Trackpoint>
            <Time>2021-10-09T09:35:26.000Z</Time>
            <Position>
              <LatitudeDegrees>39.48854620568454265594482421875</LatitudeDegrees>
              <LongitudeDegrees>-0.7299231179058551788330078125</LongitudeDegrees>
            </Position>
            <AltitudeMeters>290.600006103515625</AltitudeMeters>
            <DistanceMeters>59203.818973893</DistanceMeters>
          </Trackpoint>
          <Trackpoint>
            <Time>2021-10-09T09:35:27.000Z</Time>
            <Position>
              <LatitudeDegrees>39.48847286403179168701171875</LatitudeDegrees>
              <LongitudeDegrees>-0.72991515509784221649169921875</LongitudeDegrees>
            </Position>
            <AltitudeMeters>290.600006103515625</AltitudeMeters>
            <DistanceMeters>59212.010585338</DistanceMeters>
          </Trackpoint>
          <Trackpoint>
            <Time>2021-10-09T09:35:29.000Z</Time>
            <Position>
              <LatitudeDegrees>39.4883479736745357513427734375</LatitudeDegrees>
              <LongitudeDegrees>-0.729864276945590972900390625</LongitudeDegrees>
            </Position>
            <AltitudeMeters>290.79998779296875</AltitudeMeters>
            <DistanceMeters>59226.581623645</DistanceMeters>
          </Trackpoint>
          <Trackpoint>
            <Time>2021-10-09T09:35:30.000Z</Time>
            <Position>
              <LatitudeDegrees>39.48827966116368770599365234375</LatitudeDegrees>
              <LongitudeDegrees>-0.72979998774826526641845703125</LongitudeDegrees>
            </Position>
            <AltitudeMeters>290.600006103515625</AltitudeMeters>
            <DistanceMeters>59235.978223427</DistanceMeters>
          </Trackpoint>
          <Trackpoint>
            <Time>2021-10-09T09:35:31.000Z</Time>
            <Position>
              <LatitudeDegrees>39.4882299564778804779052734375</LatitudeDegrees>
              <LongitudeDegrees>-0.72973578236997127532958984375</LongitudeDegrees>
            </Position>
            <AltitudeMeters>290.20001220703125</AltitudeMeters>
            <DistanceMeters>59243.790089825</DistanceMeters>
          </Trackpoint>
          <Trackpoint>
            <Time>2021-10-09T09:35:35.000Z</Time>
            <Position>
              <LatitudeDegrees>39.488069526851177215576171875</LatitudeDegrees>
              <LongitudeDegrees>-0.729472339153289794921875</LongitudeDegrees>
            </Position>
            <AltitudeMeters>290</AltitudeMeters>
            <DistanceMeters>59272.615782256</DistanceMeters>
          </Trackpoint>
          <Trackpoint>
            <Time>2021-10-09T09:35:36.000Z</Time>
            <Position>
              <LatitudeDegrees>39.4880163855850696563720703125</LatitudeDegrees>
              <LongitudeDegrees>-0.72939044795930385589599609375</LongitudeDegrees>
            </Position>
            <AltitudeMeters>290</AltitudeMeters>
            <DistanceMeters>59281.806393501</DistanceMeters>
          </Trackpoint>
          <Trackpoint>
            <Time>2021-10-09T09:35:40.000Z</Time>
            <Position>
              <LatitudeDegrees>39.48781060986220836639404296875</LatitudeDegrees>
              <LongitudeDegrees>-0.72916413657367229461669921875</LongitudeDegrees>
            </Position>
            <AltitudeMeters>290.20001220703125</AltitudeMeters>
            <DistanceMeters>59311.84746272</DistanceMeters>
          </Trackpoint>
          <Trackpoint>
            <Time>2021-10-09T09:35:48.000Z</Time>
            <Position>
              <LatitudeDegrees>39.487351365387439727783203125</LatitudeDegrees>
              <LongitudeDegrees>-0.72875124402344226837158203125</LongitudeDegrees>
            </Position>
            <AltitudeMeters>290.600006103515625</AltitudeMeters>
            <DistanceMeters>59374.061881521</DistanceMeters>
          </Trackpoint>
          <Trackpoint>
            <Time>2021-10-09T09:35:49.000Z</Time>
            <Position>
              <LatitudeDegrees>39.487285651266574859619140625</LatitudeDegrees>
              <LongitudeDegrees>-0.7286913134157657623291015625</LongitudeDegrees>
            </Position>
            <AltitudeMeters>290.600006103515625</AltitudeMeters>
            <DistanceMeters>59383.005505906</DistanceMeters>
          </Trackpoint>
          <Trackpoint>
            <Time>2021-10-09T09:35:55.000Z</Time>
            <Position>
              <LatitudeDegrees>39.48690737597644329071044921875</LatitudeDegrees>
              <LongitudeDegrees>-0.72835461236536502838134765625</LongitudeDegrees>
            </Position>
            <AltitudeMeters>290.79998779296875</AltitudeMeters>
            <DistanceMeters>59434.085259798</DistanceMeters>
          </Trackpoint>
          <Trackpoint>
            <Time>2021-10-09T09:35:57.000Z</Time>
            <Position>
              <LatitudeDegrees>39.486783407628536224365234375</LatitudeDegrees>
              <LongitudeDegrees>-0.72824313305318355560302734375</LongitudeDegrees>
            </Position>
            <AltitudeMeters>291</AltitudeMeters>
            <DistanceMeters>59450.880542706</DistanceMeters>
          </Trackpoint>
          <Trackpoint>
            <Time>2021-10-09T09:36:03.000Z</Time>
            <Position>
              <LatitudeDegrees>39.48640010319650173187255859375</LatitudeDegrees>
              <LongitudeDegrees>-0.72790383361279964447021484375</LongitudeDegrees>
            </Position>
            <AltitudeMeters>291</AltitudeMeters>
            <DistanceMeters>59502.548516919</DistanceMeters>
          </Trackpoint>
          <Trackpoint>
            <Time>2021-10-09T09:36:07.000Z</Time>
            <Position>
              <LatitudeDegrees>39.4861354865133762359619140625</LatitudeDegrees>
              <LongitudeDegrees>-0.7276717387139797210693359375</LongitudeDegrees>
            </Position>
            <AltitudeMeters>290.600006103515625</AltitudeMeters>
            <DistanceMeters>59538.114415028</DistanceMeters>
          </Trackpoint>
          <Trackpoint>
            <Time>2021-10-09T09:36:12.000Z</Time>
            <Position>
              <LatitudeDegrees>39.48579409159719944000244140625</LatitudeDegrees>
              <LongitudeDegrees>-0.72736185975372791290283203125</LongitudeDegrees>
            </Position>
            <AltitudeMeters>289.600006103515625</AltitudeMeters>
            <DistanceMeters>59584.508477376</DistanceMeters>
          </Trackpoint>
          <Trackpoint>
            <Time>2021-10-09T09:36:15.000Z</Time>
            <Position>
              <LatitudeDegrees>39.48557632975280284881591796875</LatitudeDegrees>
              <LongitudeDegrees>-0.72720629163086414337158203125</LongitudeDegrees>
            </Position>
            <AltitudeMeters>288.600006103515625</AltitudeMeters>
            <DistanceMeters>59612.185568711</DistanceMeters>
          </Trackpoint>
          <Trackpoint>
            <Time>2021-10-09T09:36:17.000Z</Time>
            <Position>
              <LatitudeDegrees>39.48542562313377857208251953125</LatitudeDegrees>
              <LongitudeDegrees>-0.72713487781584262847900390625</LongitudeDegrees>
            </Position>
            <AltitudeMeters>288.600006103515625</AltitudeMeters>
            <DistanceMeters>59630.046041282</DistanceMeters>
          </Trackpoint>
          <Trackpoint>
            <Time>2021-10-09T09:36:20.000Z</Time>
            <Position>
              <LatitudeDegrees>39.4852213561534881591796875</LatitudeDegrees>
              <LongitudeDegrees>-0.7270672358572483062744140625</LongitudeDegrees>
            </Position>
            <AltitudeMeters>288.600006103515625</AltitudeMeters>
            <DistanceMeters>59653.512060577</DistanceMeters>
          </Trackpoint>
          <Trackpoint>
            <Time>2021-10-09T09:36:26.000Z</Time>
            <Position>
              <LatitudeDegrees>39.48487711139023303985595703125</LatitudeDegrees>
              <LongitudeDegrees>-0.72697998024523258209228515625</LongitudeDegrees>
            </Position>
            <AltitudeMeters>289.20001220703125</AltitudeMeters>
            <DistanceMeters>59692.553355679</DistanceMeters>
          </Trackpoint>
          <Trackpoint>
            <Time>2021-10-09T09:36:28.000Z</Time>
            <Position>
              <LatitudeDegrees>39.48477141559123992919921875</LatitudeDegrees>
              <LongitudeDegrees>-0.7269435189664363861083984375</LongitudeDegrees>
            </Position>
            <AltitudeMeters>290</AltitudeMeters>
            <DistanceMeters>59704.727164229</DistanceMeters>
          </Trackpoint>
          <Trackpoint>
            <Time>2021-10-09T09:36:30.000Z</Time>
            <Position>
              <LatitudeDegrees>39.48467125184834003448486328125</LatitudeDegrees>
              <LongitudeDegrees>-0.72689834050834178924560546875</LongitudeDegrees>
            </Position>
            <AltitudeMeters>291.20001220703125</AltitudeMeters>
            <DistanceMeters>59716.531914954</DistanceMeters>
          </Trackpoint>
          <Trackpoint>
            <Time>2021-10-09T09:36:31.000Z</Time>
            <Position>
              <LatitudeDegrees>39.48462280444800853729248046875</LatitudeDegrees>
              <LongitudeDegrees>-0.72686967439949512481689453125</LongitudeDegrees>
            </Position>
            <AltitudeMeters>291.399993896484375</AltitudeMeters>
            <DistanceMeters>59722.459480006</DistanceMeters>
          </Trackpoint>
          <Trackpoint>
            <Time>2021-10-09T09:36:34.000Z</Time>
            <Position>
              <LatitudeDegrees>39.48448064737021923065185546875</LatitudeDegrees>
              <LongitudeDegrees>-0.72674914263188838958740234375</LongitudeDegrees>
            </Position>
            <AltitudeMeters>292.20001220703125</AltitudeMeters>
            <DistanceMeters>59741.368841099</DistanceMeters>
          </Trackpoint>
          <Trackpoint>
            <Time>2021-10-09T09:36:36.000Z</Time>
            <Position>
              <LatitudeDegrees>39.4844007678329944610595703125</LatitudeDegrees>
              <LongitudeDegrees>-0.7266491465270519256591796875</LongitudeDegrees>
            </Position>
            <AltitudeMeters>292.79998779296875</AltitudeMeters>
            <DistanceMeters>59753.731447775</DistanceMeters>
          </Trackpoint>
          <Trackpoint>
            <Time>2021-10-09T09:36:37.000Z</Time>
            <Position>
              <LatitudeDegrees>39.4843662343919277191162109375</LatitudeDegrees>
              <LongitudeDegrees>-0.72659558616578578948974609375</LongitudeDegrees>
            </Position>
            <AltitudeMeters>292.79998779296875</AltitudeMeters>
            <DistanceMeters>59759.727927108</DistanceMeters>
          </Trackpoint>
          <Trackpoint>
            <Time>2021-10-09T09:36:40.000Z</Time>
            <Position>
              <LatitudeDegrees>39.48428786359727382659912109375</LatitudeDegrees>
              <LongitudeDegrees>-0.72639123536646366119384765625</LongitudeDegrees>
            </Position>
            <AltitudeMeters>293.399993896484375</AltitudeMeters>
            <DistanceMeters>59779.330167104</DistanceMeters>
          </Trackpoint>
          <Trackpoint>
            <Time>2021-10-09T09:36:43.000Z</Time>
            <Position>
              <LatitudeDegrees>39.48421829380095005035400390625</LatitudeDegrees>
              <LongitudeDegrees>-0.726146399974822998046875</LongitudeDegrees>
            </Position>
            <AltitudeMeters>293.79998779296875</AltitudeMeters>
            <DistanceMeters>59801.742575773</DistanceMeters>
          </Trackpoint>
          <Trackpoint>
            <Time>2021-10-09T09:36:46.000Z</Time>
            <Position>
              <LatitudeDegrees>39.4841553457081317901611328125</LatitudeDegrees>
              <LongitudeDegrees>-0.72589418850839138031005859375</LongitudeDegrees>
            </Position>
            <AltitudeMeters>294</AltitudeMeters>
            <DistanceMeters>59824.512927752</DistanceMeters>
          </Trackpoint>
          <Trackpoint>
            <Time>2021-10-09T09:36:48.000Z</Time>
            <Position>
              <LatitudeDegrees>39.484093487262725830078125</LatitudeDegrees>
              <LongitudeDegrees>-0.72572386823594570159912109375</LongitudeDegrees>
            </Position>
            <AltitudeMeters>294</AltitudeMeters>
            <DistanceMeters>59840.682833857</DistanceMeters>
          </Trackpoint>
          <Trackpoint>
            <Time>2021-10-09T09:36:50.000Z</Time>
            <Position>
              <LatitudeDegrees>39.48400002904236316680908203125</LatitudeDegrees>
              <LongitudeDegrees>-0.7255581580102443695068359375</LongitudeDegrees>
            </Position>
            <AltitudeMeters>293.79998779296875</AltitudeMeters>
            <DistanceMeters>59858.3138109</DistanceMeters>
          </Trackpoint>
          <Trackpoint>
            <Time>2021-10-09T09:36:54.000Z</Time>
            <Position>
              <LatitudeDegrees>39.4837312214076519012451171875</LatitudeDegrees>
              <LongitudeDegrees>-0.7252869196236133575439453125</LongitudeDegrees>
            </Position>
            <AltitudeMeters>292.79998779296875</AltitudeMeters>
            <DistanceMeters>59896.235304459</DistanceMeters>
          </Trackpoint>
          <Trackpoint>
            <Time>2021-10-09T09:36:56.000Z</Time>
            <Position>
              <LatitudeDegrees>39.483573473989963531494140625</LatitudeDegrees>
              <LongitudeDegrees>-0.725165046751499176025390625</LongitudeDegrees>
            </Position>
            <AltitudeMeters>292.20001220703125</AltitudeMeters>
            <DistanceMeters>59916.677315552</DistanceMeters>
          </Trackpoint>
          <Trackpoint>
            <Time>2021-10-09T09:36:59.000Z</Time>
            <Position>
              <LatitudeDegrees>39.48331472463905811309814453125</LatitudeDegrees>
              <LongitudeDegrees>-0.72501995600759983062744140625</LongitudeDegrees>
            </Position>
            <AltitudeMeters>290.79998779296875</AltitudeMeters>
            <DistanceMeters>59948.058008603</DistanceMeters>
          </Trackpoint>
          <Trackpoint>
            <Time>2021-10-09T09:37:01.000Z</Time>
            <Position>
              <LatitudeDegrees>39.4831414707005023956298828125</LatitudeDegrees>
              <LongitudeDegrees>-0.724948458373546600341796875</LongitudeDegrees>
            </Position>
            <AltitudeMeters>289.20001220703125</AltitudeMeters>
            <DistanceMeters>59968.296244873</DistanceMeters>
          </Trackpoint>
          <Trackpoint>
            <Time>2021-10-09T09:37:04.000Z</Time>
            <Position>
              <LatitudeDegrees>39.4828916899859905242919921875</LatitudeDegrees>
              <LongitudeDegrees>-0.72487444616854190826416015625</LongitudeDegrees>
            </Position>
            <AltitudeMeters>288.399993896484375</AltitudeMeters>
            <DistanceMeters>59996.815343479</DistanceMeters>
          </Trackpoint>
          <Trackpoint>
            <Time>2021-10-09T09:37:05.000Z</Time>
            <Position>
              <LatitudeDegrees>39.48280979879200458526611328125</LatitudeDegrees>
              <LongitudeDegrees>-0.72485097683966159820556640625</LongitudeDegrees>
            </Position>
            <AltitudeMeters>288.20001220703125</AltitudeMeters>
            <DistanceMeters>60006.150237035</DistanceMeters>
          </Trackpoint>
          <Trackpoint>
            <Time>2021-10-09T09:37:10.000Z</Time>
            <Position>
              <LatitudeDegrees>39.482402019202709197998046875</LatitudeDegrees>
              <LongitudeDegrees>-0.72472684085369110107421875</LongitudeDegrees>
            </Position>
            <AltitudeMeters>287.79998779296875</AltitudeMeters>
            <DistanceMeters>60052.772826207</DistanceMeters>
          </Trackpoint>
          <Trackpoint>
            <Time>2021-10-09T09:37:12.000Z</Time>
            <Position>
              <LatitudeDegrees>39.4822405837476253509521484375</LatitudeDegrees>
              <LongitudeDegrees>-0.724684931337833404541015625</LongitudeDegrees>
            </Position>
            <AltitudeMeters>287.600006103515625</AltitudeMeters>
            <DistanceMeters>60071.098205136</DistanceMeters>
          </Trackpoint>
          <Trackpoint>
            <Time>2021-10-09T09:37:15.000Z</Time>
            <Position>
              <LatitudeDegrees>39.481999017298221588134765625</LatitudeDegrees>
              <LongitudeDegrees>-0.7246685028076171875</LongitudeDegrees>
            </Position>
            <AltitudeMeters>287.399993896484375</AltitudeMeters>
            <DistanceMeters>60098.021975052</DistanceMeters>
          </Trackpoint>
          <Trackpoint>
            <Time>2021-10-09T09:37:17.000Z</Time>
            <Position>
              <LatitudeDegrees>39.48183448053896427154541015625</LatitudeDegrees>
              <LongitudeDegrees>-0.72469172067940235137939453125</LongitudeDegrees>
            </Position>
            <AltitudeMeters>287.20001220703125</AltitudeMeters>
            <DistanceMeters>60116.443682434</DistanceMeters>
          </Trackpoint>
          <Trackpoint>
            <Time>2021-10-09T09:37:18.000Z</Time>
            <Position>
              <LatitudeDegrees>39.48175468482077121734619140625</LatitudeDegrees>
              <LongitudeDegrees>-0.7247115857899188995361328125</LongitudeDegrees>
            </Position>
            <AltitudeMeters>287</AltitudeMeters>
            <DistanceMeters>60125.487709879</DistanceMeters>
          </Trackpoint>
          <Trackpoint>
            <Time>2021-10-09T09:37:19.000Z</Time>
            <Position>
              <LatitudeDegrees>39.4816779904067516326904296875</LatitudeDegrees>
              <LongitudeDegrees>-0.72474016807973384857177734375</LongitudeDegrees>
            </Position>
            <AltitudeMeters>287</AltitudeMeters>
            <DistanceMeters>60134.370547712</DistanceMeters>
          </Trackpoint>
          <Trackpoint>
            <Time>2021-10-09T09:37:21.000Z</Time>
            <Position>
              <LatitudeDegrees>39.4815304689109325408935546875</LatitudeDegrees>
              <LongitudeDegrees>-0.72480998933315277099609375</LongitudeDegrees>
            </Position>
            <AltitudeMeters>286.399993896484375</AltitudeMeters>
            <DistanceMeters>60151.851331071</DistanceMeters>
          </Trackpoint>
          <Trackpoint>
            <Time>2021-10-09T09:37:27.000Z</Time>
            <Position>
              <LatitudeDegrees>39.48109838180243968963623046875</LatitudeDegrees>
              <LongitudeDegrees>-0.7249603606760501861572265625</LongitudeDegrees>
            </Position>
            <AltitudeMeters>286.399993896484375</AltitudeMeters>
            <DistanceMeters>60201.648049557</DistanceMeters>
          </Trackpoint>
          <Trackpoint>
            <Time>2021-10-09T09:37:30.000Z</Time>
            <Position>
              <LatitudeDegrees>39.480906017124652862548828125</LatitudeDegrees>
              <LongitudeDegrees>-0.7249549962580204010009765625</LongitudeDegrees>
            </Position>
            <AltitudeMeters>286.600006103515625</AltitudeMeters>
            <DistanceMeters>60223.063453416</DistanceMeters>
          </Trackpoint>
          <Trackpoint>
            <Time>2021-10-09T09:37:32.000Z</Time>
            <Position>
              <LatitudeDegrees>39.480787999927997589111328125</LatitudeDegrees>
              <LongitudeDegrees>-0.72493026964366436004638671875</LongitudeDegrees>
            </Position>
            <AltitudeMeters>286.79998779296875</AltitudeMeters>
            <DistanceMeters>60236.3699082</DistanceMeters>
          </Trackpoint>
          <Trackpoint>
            <Time>2021-10-09T09:37:36.000Z</Time>
            <Position>
              <LatitudeDegrees>39.48056328110396862030029296875</LatitudeDegrees>
              <LongitudeDegrees>-0.72487436234951019287109375</LongitudeDegrees>
            </Position>
            <AltitudeMeters>288</AltitudeMeters>
            <DistanceMeters>60261.838840476</DistanceMeters>
          </Trackpoint>
          <Trackpoint>
            <Time>2021-10-09T09:37:39.000Z</Time>
            <Position>
              <LatitudeDegrees>39.4804116524755954742431640625</LatitudeDegrees>
              <LongitudeDegrees>-0.72483153082430362701416015625</LongitudeDegrees>
            </Position>
            <AltitudeMeters>288.79998779296875</AltitudeMeters>
            <DistanceMeters>60279.112020721</DistanceMeters>
          </Trackpoint>
          <Trackpoint>
            <Time>2021-10-09T09:37:40.000Z</Time>
            <Position>
              <LatitudeDegrees>39.480362199246883392333984375</LatitudeDegrees>
              <LongitudeDegrees>-0.7248195447027683258056640625</LongitudeDegrees>
            </Position>
            <AltitudeMeters>289</AltitudeMeters>
            <DistanceMeters>60284.711344378</DistanceMeters>
          </Trackpoint>
          <Trackpoint>
            <Time>2021-10-09T09:37:45.000Z</Time>
            <Position>
              <LatitudeDegrees>39.48011132888495922088623046875</LatitudeDegrees>
              <LongitudeDegrees>-0.72476439177989959716796875</LongitudeDegrees>
            </Position>
            <AltitudeMeters>290</AltitudeMeters>
            <DistanceMeters>60313.032812741</DistanceMeters>
          </Trackpoint>
          <Trackpoint>
            <Time>2021-10-09T09:37:46.000Z</Time>
            <Position>
              <LatitudeDegrees>39.480059444904327392578125</LatitudeDegrees>
              <LongitudeDegrees>-0.72474963963031768798828125</LongitudeDegrees>
            </Position>
            <AltitudeMeters>290.20001220703125</AltitudeMeters>
            <DistanceMeters>60318.945124126</DistanceMeters>
          </Trackpoint>
          <Trackpoint>
            <Time>2021-10-09T09:37:50.000Z</Time>
            <Position>
              <LatitudeDegrees>39.47985492646694183349609375</LatitudeDegrees>
              <LongitudeDegrees>-0.7246844284236431121826171875</LongitudeDegrees>
            </Position>
            <AltitudeMeters>291</AltitudeMeters>
            <DistanceMeters>60342.387850552</DistanceMeters>
          </Trackpoint>
          <Trackpoint>
            <Time>2021-10-09T09:37:51.000Z</Time>
            <Position>
              <LatitudeDegrees>39.4798054732382297515869140625</LatitudeDegrees>
              <LongitudeDegrees>-0.724670849740505218505859375</LongitudeDegrees>
            </Position>
            <AltitudeMeters>291.399993896484375</AltitudeMeters>
            <DistanceMeters>60348.01452346</DistanceMeters>
          </Trackpoint>
          <Trackpoint>
            <Time>2021-10-09T09:37:53.000Z</Time>
            <Position>
              <LatitudeDegrees>39.4797042198479175567626953125</LatitudeDegrees>
              <LongitudeDegrees>-0.72464293800294399261474609375</LongitudeDegrees>
            </Position>
            <AltitudeMeters>291.600006103515625</AltitudeMeters>
            <DistanceMeters>60359.536684016</DistanceMeters>
          </Trackpoint>
          <Trackpoint>
            <Time>2021-10-09T09:37:57.000Z</Time>
            <Position>
              <LatitudeDegrees>39.47951068170368671417236328125</LatitudeDegrees>
              <LongitudeDegrees>-0.72457957081496715545654296875</LongitudeDegrees>
            </Position>
            <AltitudeMeters>292.600006103515625</AltitudeMeters>
            <DistanceMeters>60381.755262934</DistanceMeters>
          </Trackpoint>
          <Trackpoint>
            <Time>2021-10-09T09:38:01.000Z</Time>
            <Position>
              <LatitudeDegrees>39.4793109409511089324951171875</LatitudeDegrees>
              <LongitudeDegrees>-0.72451620362699031829833984375</LongitudeDegrees>
            </Position>
            <AltitudeMeters>293.399993896484375</AltitudeMeters>
            <DistanceMeters>60404.643685441</DistanceMeters>
          </Trackpoint>
          <Trackpoint>
            <Time>2021-10-09T09:38:03.000Z</Time>
            <Position>
              <LatitudeDegrees>39.47921362705528736114501953125</LatitudeDegrees>
              <LongitudeDegrees>-0.72448812425136566162109375</LongitudeDegrees>
            </Position>
            <AltitudeMeters>293.600006103515625</AltitudeMeters>
            <DistanceMeters>60415.740267005</DistanceMeters>
          </Trackpoint>
          <Trackpoint>
            <Time>2021-10-09T09:38:13.000Z</Time>
            <Position>
              <LatitudeDegrees>39.4787299074232578277587890625</LatitudeDegrees>
              <LongitudeDegrees>-0.72433599270880222320556640625</LongitudeDegrees>
            </Position>
            <AltitudeMeters>294.79998779296875</AltitudeMeters>
            <DistanceMeters>60471.142878896</DistanceMeters>
          </Trackpoint>
          <Trackpoint>
            <Time>2021-10-09T09:38:22.000Z</Time>
            <Position>
              <LatitudeDegrees>39.478306956589221954345703125</LatitudeDegrees>
              <LongitudeDegrees>-0.72421319782733917236328125</LongitudeDegrees>
            </Position>
            <AltitudeMeters>295.600006103515625</AltitudeMeters>
            <DistanceMeters>60519.385668537</DistanceMeters>
          </Trackpoint>
          <Trackpoint>
            <Time>2021-10-09T09:38:23.000Z</Time>
            <Position>
              <LatitudeDegrees>39.4782611913979053497314453125</LatitudeDegrees>
              <LongitudeDegrees>-0.72419970296323299407958984375</LongitudeDegrees>
            </Position>
            <AltitudeMeters>295.600006103515625</AltitudeMeters>
            <DistanceMeters>60524.609545546</DistanceMeters>
          </Trackpoint>
          <Trackpoint>
            <Time>2021-10-09T09:38:24.000Z</Time>
            <Position>
              <LatitudeDegrees>39.4782139174640178680419921875</LatitudeDegrees>
              <LongitudeDegrees>-0.72418210096657276153564453125</LongitudeDegrees>
            </Position>
            <AltitudeMeters>295.79998779296875</AltitudeMeters>
            <DistanceMeters>60530.083282263</DistanceMeters>
          </Trackpoint>
          <Trackpoint>
            <Time>2021-10-09T09:38:28.000Z</Time>
            <Position>
              <LatitudeDegrees>39.47802297770977020263671875</LatitudeDegrees>
              <LongitudeDegrees>-0.72412845678627490997314453125</LongitudeDegrees>
            </Position>
            <AltitudeMeters>296.20001220703125</AltitudeMeters>
            <DistanceMeters>60551.829248399</DistanceMeters>
          </Trackpoint>
          <Trackpoint>
            <Time>2021-10-09T09:38:32.000Z</Time>
            <Position>
              <LatitudeDegrees>39.47783865965902805328369140625</LatitudeDegrees>
              <LongitudeDegrees>-0.72407045401632785797119140625</LongitudeDegrees>
            </Position>
            <AltitudeMeters>296.79998779296875</AltitudeMeters>
            <DistanceMeters>60572.94079697</DistanceMeters>
          </Trackpoint>
          <Trackpoint>
            <Time>2021-10-09T09:38:33.000Z</Time>
            <Position>
              <LatitudeDegrees>39.47779222391545772552490234375</LatitudeDegrees>
              <LongitudeDegrees>-0.72405503131449222564697265625</LongitudeDegrees>
            </Position>
            <AltitudeMeters>296.79998779296875</AltitudeMeters>
            <DistanceMeters>60578.275850948</DistanceMeters>
          </Trackpoint>
          <Trackpoint>
            <Time>2021-10-09T09:38:36.000Z</Time>
            <Position>
              <LatitudeDegrees>39.4776499830186367034912109375</LatitudeDegrees>
              <LongitudeDegrees>-0.7240127027034759521484375</LongitudeDegrees>
            </Position>
            <AltitudeMeters>296.79998779296875</AltitudeMeters>
            <DistanceMeters>60594.519583084</DistanceMeters>
          </Trackpoint>
          <Trackpoint>
            <Time>2021-10-09T09:38:44.000Z</Time>
            <Position>
              <LatitudeDegrees>39.47722963057458400726318359375</LatitudeDegrees>
              <LongitudeDegrees>-0.7238817773759365081787109375</LongitudeDegrees>
            </Position>
            <AltitudeMeters>297.399993896484375</AltitudeMeters>
            <DistanceMeters>60642.638769293</DistanceMeters>
          </Trackpoint>
          <Trackpoint>
            <Time>2021-10-09T09:38:51.000Z</Time>
            <Position>
              <LatitudeDegrees>39.47682000696659088134765625</LatitudeDegrees>
              <LongitudeDegrees>-0.7237614132463932037353515625</LongitudeDegrees>
            </Position>
            <AltitudeMeters>297.79998779296875</AltitudeMeters>
            <DistanceMeters>60689.388629205</DistanceMeters>
          </Trackpoint>
          <Trackpoint>
            <Time>2021-10-09T09:38:52.000Z</Time>
            <Position>
              <LatitudeDegrees>39.4767615012824535369873046875</LatitudeDegrees>
              <LongitudeDegrees>-0.72374557144939899444580078125</LongitudeDegrees>
            </Position>
            <AltitudeMeters>297.79998779296875</AltitudeMeters>
            <DistanceMeters>60696.041177938</DistanceMeters>
          </Trackpoint>
          <Trackpoint>
            <Time>2021-10-09T09:38:58.000Z</Time>
            <Position>
              <LatitudeDegrees>39.47639898397028446197509765625</LatitudeDegrees>
              <LongitudeDegrees>-0.7236319966614246368408203125</LongitudeDegrees>
            </Position>
            <AltitudeMeters>297.600006103515625</AltitudeMeters>
            <DistanceMeters>60737.553062719</DistanceMeters>
          </Trackpoint>
          <Trackpoint>
            <Time>2021-10-09T09:39:01.000Z</Time>
            <Position>
              <LatitudeDegrees>39.4762166775763034820556640625</LatitudeDegrees>
              <LongitudeDegrees>-0.7235786877572536468505859375</LongitudeDegrees>
            </Position>
            <AltitudeMeters>297.600006103515625</AltitudeMeters>
            <DistanceMeters>60758.354581967</DistanceMeters>
          </Trackpoint>
          <Trackpoint>
            <Time>2021-10-09T09:39:09.000Z</Time>
            <Position>
              <LatitudeDegrees>39.4757600314915180206298828125</LatitudeDegrees>
              <LongitudeDegrees>-0.72344214655458927154541015625</LongitudeDegrees>
            </Position>
            <AltitudeMeters>297.79998779296875</AltitudeMeters>
            <DistanceMeters>60810.516371942</DistanceMeters>
          </Trackpoint>
          <Trackpoint>
            <Time>2021-10-09T09:39:14.000Z</Time>
            <Position>
              <LatitudeDegrees>39.47552408091723918914794921875</LatitudeDegrees>
              <LongitudeDegrees>-0.72338305413722991943359375</LongitudeDegrees>
            </Position>
            <AltitudeMeters>299</AltitudeMeters>
            <DistanceMeters>60837.264324324</DistanceMeters>
          </Trackpoint>
          <Trackpoint>
            <Time>2021-10-09T09:39:18.000Z</Time>
            <Position>
              <LatitudeDegrees>39.47534806095063686370849609375</LatitudeDegrees>
              <LongitudeDegrees>-0.72333284653723239898681640625</LongitudeDegrees>
            </Position>
            <AltitudeMeters>300</AltitudeMeters>
            <DistanceMeters>60857.325091678</DistanceMeters>
          </Trackpoint>
          <Trackpoint>
            <Time>2021-10-09T09:39:21.000Z</Time>
            <Position>
              <LatitudeDegrees>39.4752145372331142425537109375</LatitudeDegrees>
              <LongitudeDegrees>-0.7232963852584362030029296875</LongitudeDegrees>
            </Position>
            <AltitudeMeters>300.600006103515625</AltitudeMeters>
            <DistanceMeters>60872.513321753</DistanceMeters>
          </Trackpoint>
          <Trackpoint>
            <Time>2021-10-09T09:39:23.000Z</Time>
            <Position>
              <LatitudeDegrees>39.47512485086917877197265625</LatitudeDegrees>
              <LongitudeDegrees>-0.72327417321503162384033203125</LongitudeDegrees>
            </Position>
            <AltitudeMeters>301.20001220703125</AltitudeMeters>
            <DistanceMeters>60882.676294466</DistanceMeters>
          </Trackpoint>
          <Trackpoint>
            <Time>2021-10-09T09:39:25.000Z</Time>
            <Position>
              <LatitudeDegrees>39.475030638277530670166015625</LatitudeDegrees>
              <LongitudeDegrees>-0.72324181906878948211669921875</LongitudeDegrees>
            </Position>
            <AltitudeMeters>301.600006103515625</AltitudeMeters>
            <DistanceMeters>60893.524749946</DistanceMeters>
          </Trackpoint>
          <Trackpoint>
            <Time>2021-10-09T09:39:27.000Z</Time>
            <Position>
              <LatitudeDegrees>39.4749389402568340301513671875</LatitudeDegrees>
              <LongitudeDegrees>-0.7232159189879894256591796875</LongitudeDegrees>
            </Position>
            <AltitudeMeters>302.20001220703125</AltitudeMeters>
            <DistanceMeters>60903.970775207</DistanceMeters>
          </Trackpoint>
          <Trackpoint>
            <Time>2021-10-09T09:39:31.000Z</Time>
            <Position>
              <LatitudeDegrees>39.47475814260542392730712890625</LatitudeDegrees>
              <LongitudeDegrees>-0.72316101752221584320068359375</LongitudeDegrees>
            </Position>
            <AltitudeMeters>303.399993896484375</AltitudeMeters>
            <DistanceMeters>60924.639030969</DistanceMeters>
          </Trackpoint>
          <Trackpoint>
            <Time>2021-10-09T09:39:36.000Z</Time>
            <Position>
              <LatitudeDegrees>39.47452730499207973480224609375</LatitudeDegrees>
              <LongitudeDegrees>-0.723091699182987213134765625</LongitudeDegrees>
            </Position>
            <AltitudeMeters>304.20001220703125</AltitudeMeters>
            <DistanceMeters>60951.012839158</DistanceMeters>
          </Trackpoint>
          <Trackpoint>
            <Time>2021-10-09T09:39:37.000Z</Time>
            <Position>
              <LatitudeDegrees>39.4744796119630336761474609375</LatitudeDegrees>
              <LongitudeDegrees>-0.72308004833757877349853515625</LongitudeDegrees>
            </Position>
            <AltitudeMeters>304.399993896484375</AltitudeMeters>
            <DistanceMeters>60956.415172642</DistanceMeters>
          </Trackpoint>
          <Trackpoint>
            <Time>2021-10-09T09:39:43.000Z</Time>
            <Position>
              <LatitudeDegrees>39.4741894304752349853515625</LatitudeDegrees>
              <LongitudeDegrees>-0.72300243191421031951904296875</LongitudeDegrees>
            </Position>
            <AltitudeMeters>304.79998779296875</AltitudeMeters>
            <DistanceMeters>60989.394234594</DistanceMeters>
          </Trackpoint>
          <Trackpoint>
            <Time>2021-10-09T09:39:51.000Z</Time>
            <Position>
              <LatitudeDegrees>39.4737658090889453887939453125</LatitudeDegrees>
              <LongitudeDegrees>-0.7228960655629634857177734375</LongitudeDegrees>
            </Position>
            <AltitudeMeters>305.399993896484375</AltitudeMeters>
            <DistanceMeters>61037.42156709</DistanceMeters>
          </Trackpoint>
          <Trackpoint>
            <Time>2021-10-09T09:39:55.000Z</Time>
            <Position>
              <LatitudeDegrees>39.47354176081717014312744140625</LatitudeDegrees>
              <LongitudeDegrees>-0.7228628732264041900634765625</LongitudeDegrees>
            </Position>
            <AltitudeMeters>305.600006103515625</AltitudeMeters>
            <DistanceMeters>61062.521214761</DistanceMeters>
          </Trackpoint>
          <Trackpoint>
            <Time>2021-10-09T09:40:00.000Z</Time>
            <Position>
              <LatitudeDegrees>39.4732632301747798919677734375</LatitudeDegrees>
              <LongitudeDegrees>-0.72283077053725719451904296875</LongitudeDegrees>
            </Position>
            <AltitudeMeters>306.20001220703125</AltitudeMeters>
            <DistanceMeters>61093.644893694</DistanceMeters>
          </Trackpoint>
          <Trackpoint>
            <Time>2021-10-09T09:40:05.000Z</Time>
            <Position>
              <LatitudeDegrees>39.4729745574295520782470703125</LatitudeDegrees>
              <LongitudeDegrees>-0.7227976620197296142578125</LongitudeDegrees>
            </Position>
            <AltitudeMeters>306.600006103515625</AltitudeMeters>
            <DistanceMeters>61125.900549752</DistanceMeters>
          </Trackpoint>
          <Trackpoint>
            <Time>2021-10-09T09:40:09.000Z</Time>
            <Position>
              <LatitudeDegrees>39.472760818898677825927734375</LatitudeDegrees>
              <LongitudeDegrees>-0.72278098203241825103759765625</LongitudeDegrees>
            </Position>
            <AltitudeMeters>307.20001220703125</AltitudeMeters>
            <DistanceMeters>61149.733507363</DistanceMeters>
          </Trackpoint>
          <Trackpoint>
            <Time>2021-10-09T09:40:16.000Z</Time>
            <Position>
              <LatitudeDegrees>39.4724672846496105194091796875</LatitudeDegrees>
              <LongitudeDegrees>-0.72277947328984737396240234375</LongitudeDegrees>
            </Position>
            <AltitudeMeters>307.79998779296875</AltitudeMeters>
            <DistanceMeters>61182.404736543</DistanceMeters>
          </Trackpoint>
          <Trackpoint>
            <Time>2021-10-09T09:40:19.000Z</Time>
            <Position>
              <LatitudeDegrees>39.47232202626764774322509765625</LatitudeDegrees>
              <LongitudeDegrees>-0.72278114967048168182373046875</LongitudeDegrees>
            </Position>
            <AltitudeMeters>308.600006103515625</AltitudeMeters>
            <DistanceMeters>61198.572687956</DistanceMeters>
          </Trackpoint>
          <Trackpoint>
            <Time>2021-10-09T09:40:22.000Z</Time>
            <Position>
              <LatitudeDegrees>39.47217081673443317413330078125</LatitudeDegrees>
              <LongitudeDegrees>-0.7227864302694797515869140625</LongitudeDegrees>
            </Position>
            <AltitudeMeters>309.20001220703125</AltitudeMeters>
            <DistanceMeters>61215.408783097</DistanceMeters>
          </Trackpoint>
          <Trackpoint>
            <Time>2021-10-09T09:40:29.000Z</Time>
            <Position>
              <LatitudeDegrees>39.47179765440523624420166015625</LatitudeDegrees>
              <LongitudeDegrees>-0.72280495427548885345458984375</LongitudeDegrees>
            </Position>
            <AltitudeMeters>309.600006103515625</AltitudeMeters>
            <DistanceMeters>61256.972950895</DistanceMeters>
          </Trackpoint>
          <Trackpoint>
            <Time>2021-10-09T09:40:35.000Z</Time>
            <Position>
              <LatitudeDegrees>39.47143488563597202301025390625</LatitudeDegrees>
              <LongitudeDegrees>-0.72282255627214908599853515625</LongitudeDegrees>
            </Position>
            <AltitudeMeters>309.399993896484375</AltitudeMeters>
            <DistanceMeters>61297.377970144</DistanceMeters>
          </Trackpoint>
          <Trackpoint>
            <Time>2021-10-09T09:40:38.000Z</Time>
            <Position>
              <LatitudeDegrees>39.47125710546970367431640625</LatitudeDegrees>
              <LongitudeDegrees>-0.72280730120837688446044921875</LongitudeDegrees>
            </Position>
            <AltitudeMeters>309.399993896484375</AltitudeMeters>
            <DistanceMeters>61317.208749986</DistanceMeters>
          </Trackpoint>
          <Trackpoint>
            <Time>2021-10-09T09:40:41.000Z</Time>
            <Position>
              <LatitudeDegrees>39.471082426607608795166015625</LatitudeDegrees>
              <LongitudeDegrees>-0.7227974943816661834716796875</LongitudeDegrees>
            </Position>
            <AltitudeMeters>309.20001220703125</AltitudeMeters>
            <DistanceMeters>61336.669051779</DistanceMeters>
          </Trackpoint>
          <Trackpoint>
            <Time>2021-10-09T09:40:42.000Z</Time>
            <Position>
              <LatitudeDegrees>39.471031129360198974609375</LatitudeDegrees>
              <LongitudeDegrees>-0.72275868616998195648193359375</LongitudeDegrees>
            </Position>
            <AltitudeMeters>309</AltitudeMeters>
            <DistanceMeters>61343.280753532</DistanceMeters>
          </Trackpoint>
          <Trackpoint>
            <Time>2021-10-09T09:40:43.000Z</Time>
            <Position>
              <LatitudeDegrees>39.4709910638630390167236328125</LatitudeDegrees>
              <LongitudeDegrees>-0.72270437143743038177490234375</LongitudeDegrees>
            </Position>
            <AltitudeMeters>309</AltitudeMeters>
            <DistanceMeters>61349.735579069</DistanceMeters>
          </Trackpoint>
          <Trackpoint>
            <Time>2021-10-09T09:40:45.000Z</Time>
            <Position>
              <LatitudeDegrees>39.4709276966750621795654296875</LatitudeDegrees>
              <LongitudeDegrees>-0.7225715182721614837646484375</LongitudeDegrees>
            </Position>
            <AltitudeMeters>308.79998779296875</AltitudeMeters>
            <DistanceMeters>61363.153539575</DistanceMeters>
          </Trackpoint>
          <Trackpoint>
            <Time>2021-10-09T09:40:46.000Z</Time>
            <Position>
              <LatitudeDegrees>39.47090716101229190826416015625</LatitudeDegrees>
              <LongitudeDegrees>-0.7224927283823490142822265625</LongitudeDegrees>
            </Position>
            <AltitudeMeters>308.79998779296875</AltitudeMeters>
            <DistanceMeters>61370.298891366</DistanceMeters>
          </Trackpoint>
          <Trackpoint>
            <Time>2021-10-09T09:40:48.000Z</Time>
            <Position>
              <LatitudeDegrees>39.47087044827640056610107421875</LatitudeDegrees>
              <LongitudeDegrees>-0.7223224081099033355712890625</LongitudeDegrees>
            </Position>
            <AltitudeMeters>308.600006103515625</AltitudeMeters>
            <DistanceMeters>61385.492471399</DistanceMeters>
          </Trackpoint>
          <Trackpoint>
            <Time>2021-10-09T09:40:49.000Z</Time>
            <Position>
              <LatitudeDegrees>39.47085334919393062591552734375</LatitudeDegrees>
              <LongitudeDegrees>-0.7222426123917102813720703125</LongitudeDegrees>
            </Position>
            <AltitudeMeters>308</AltitudeMeters>
            <DistanceMeters>61392.607428078</DistanceMeters>
          </Trackpoint>
          <Trackpoint>
            <Time>2021-10-09T09:40:51.000Z</Time>
            <Position>
              <LatitudeDegrees>39.4708183966577053070068359375</LatitudeDegrees>
              <LongitudeDegrees>-0.72210523299872875213623046875</LongitudeDegrees>
            </Position>
            <AltitudeMeters>307.399993896484375</AltitudeMeters>
            <DistanceMeters>61405.03560001</DistanceMeters>
          </Trackpoint>
          <Trackpoint>
            <Time>2021-10-09T09:40:52.000Z</Time>
            <Position>
              <LatitudeDegrees>39.4708012975752353668212890625</LatitudeDegrees>
              <LongitudeDegrees>-0.7220493257045745849609375</LongitudeDegrees>
            </Position>
            <AltitudeMeters>307</AltitudeMeters>
            <DistanceMeters>61410.202117789</DistanceMeters>
          </Trackpoint>
          <Trackpoint>
            <Time>2021-10-09T09:40:53.000Z</Time>
            <Position>
              <LatitudeDegrees>39.4707875512540340423583984375</LatitudeDegrees>
              <LongitudeDegrees>-0.721999704837799072265625</LongitudeDegrees>
            </Position>
            <AltitudeMeters>306.79998779296875</AltitudeMeters>
            <DistanceMeters>61414.731613753</DistanceMeters>
          </Trackpoint>
          <Trackpoint>
            <Time>2021-10-09T09:41:48.000Z</Time>
            <Position>
              <LatitudeDegrees>39.47063676081597805023193359375</LatitudeDegrees>
              <LongitudeDegrees>-0.72184656746685504913330078125</LongitudeDegrees>
            </Position>
            <AltitudeMeters>305</AltitudeMeters>
            <DistanceMeters>61436.05743777</DistanceMeters>
          </Trackpoint>
          <Trackpoint>
            <Time>2021-10-09T09:41:49.000Z</Time>
            <Position>
              <LatitudeDegrees>39.47060239501297473907470703125</LatitudeDegrees>
              <LongitudeDegrees>-0.72186165489256381988525390625</LongitudeDegrees>
            </Position>
            <AltitudeMeters>305</AltitudeMeters>
            <DistanceMeters>61440.095793631</DistanceMeters>
          </Trackpoint>
          <Trackpoint>
            <Time>2021-10-09T09:41:51.000Z</Time>
            <Position>
              <LatitudeDegrees>39.47053282521665096282958984375</LatitudeDegrees>
              <LongitudeDegrees>-0.721894092857837677001953125</LongitudeDegrees>
            </Position>
            <AltitudeMeters>305</AltitudeMeters>
            <DistanceMeters>61448.325348499</DistanceMeters>
          </Trackpoint>
          <Trackpoint>
            <Time>2021-10-09T09:41:54.000Z</Time>
            <Position>
              <LatitudeDegrees>39.4704137183725833892822265625</LatitudeDegrees>
              <LongitudeDegrees>-0.72195016779005527496337890625</LongitudeDegrees>
            </Position>
            <AltitudeMeters>305.20001220703125</AltitudeMeters>
            <DistanceMeters>61462.430975191</DistanceMeters>
          </Trackpoint>
          <Trackpoint>
            <Time>2021-10-09T09:41:56.000Z</Time>
            <Position>
              <LatitudeDegrees>39.47034255601465702056884765625</LatitudeDegrees>
              <LongitudeDegrees>-0.72199895046651363372802734375</LongitudeDegrees>
            </Position>
            <AltitudeMeters>305.399993896484375</AltitudeMeters>
            <DistanceMeters>61471.392755142</DistanceMeters>
          </Trackpoint>
          <Trackpoint>
            <Time>2021-10-09T09:41:58.000Z</Time>
            <Position>
              <LatitudeDegrees>39.47025286965072154998779296875</LatitudeDegrees>
              <LongitudeDegrees>-0.72205192409455776214599609375</LongitudeDegrees>
            </Position>
            <AltitudeMeters>305.79998779296875</AltitudeMeters>
            <DistanceMeters>61482.363300199</DistanceMeters>
          </Trackpoint>
          <Trackpoint>
            <Time>2021-10-09T09:42:02.000Z</Time>
            <Position>
              <LatitudeDegrees>39.47008204646408557891845703125</LatitudeDegrees>
              <LongitudeDegrees>-0.72216457687318325042724609375</LongitudeDegrees>
            </Position>
            <AltitudeMeters>305.79998779296875</AltitudeMeters>
            <DistanceMeters>61503.698226102</DistanceMeters>
          </Trackpoint>
          <Trackpoint>
            <Time>2021-10-09T09:42:06.000Z</Time>
            <Position>
              <LatitudeDegrees>39.46989060379564762115478515625</LatitudeDegrees>
              <LongitudeDegrees>-0.7222751341760158538818359375</LongitudeDegrees>
            </Position>
            <AltitudeMeters>306</AltitudeMeters>
            <DistanceMeters>61527.027623168</DistanceMeters>
          </Trackpoint>
          <Trackpoint>
            <Time>2021-10-09T09:42:12.000Z</Time>
            <Position>
              <LatitudeDegrees>39.46961986832320690155029296875</LatitudeDegrees>
              <LongitudeDegrees>-0.7224369049072265625</LongitudeDegrees>
            </Position>
            <AltitudeMeters>306.79998779296875</AltitudeMeters>
            <DistanceMeters>61560.212225355</DistanceMeters>
          </Trackpoint>
          <Trackpoint>
            <Time>2021-10-09T09:42:15.000Z</Time>
            <Position>
              <LatitudeDegrees>39.46947435848414897918701171875</LatitudeDegrees>
              <LongitudeDegrees>-0.72251267731189727783203125</LongitudeDegrees>
            </Position>
            <AltitudeMeters>307</AltitudeMeters>
            <DistanceMeters>61577.667161024</DistanceMeters>
          </Trackpoint>
          <Trackpoint>
            <Time>2021-10-09T09:42:22.000Z</Time>
            <Position>
              <LatitudeDegrees>39.469161294400691986083984375</LatitudeDegrees>
              <LongitudeDegrees>-0.72270353324711322784423828125</LongitudeDegrees>
            </Position>
            <AltitudeMeters>308</AltitudeMeters>
            <DistanceMeters>61616.177726261</DistanceMeters>
          </Trackpoint>
          <Trackpoint>
            <Time>2021-10-09T09:42:25.000Z</Time>
            <Position>
              <LatitudeDegrees>39.46902818977832794189453125</LatitudeDegrees>
              <LongitudeDegrees>-0.72278567589819431304931640625</LongitudeDegrees>
            </Position>
            <AltitudeMeters>308</AltitudeMeters>
            <DistanceMeters>61632.588209794</DistanceMeters>
          </Trackpoint>
          <Trackpoint>
            <Time>2021-10-09T09:42:26.000Z</Time>
            <Position>
              <LatitudeDegrees>39.46898334659636020660400390625</LatitudeDegrees>
              <LongitudeDegrees>-0.72281199507415294647216796875</LongitudeDegrees>
            </Position>
            <AltitudeMeters>308.20001220703125</AltitudeMeters>
            <DistanceMeters>61638.067717452</DistanceMeters>
          </Trackpoint>
          <Trackpoint>
            <Time>2021-10-09T09:42:34.000Z</Time>
            <Position>
              <LatitudeDegrees>39.4686250202357769012451171875</LatitudeDegrees>
              <LongitudeDegrees>-0.72301165200769901275634765625</LongitudeDegrees>
            </Position>
            <AltitudeMeters>309</AltitudeMeters>
            <DistanceMeters>61681.483175951</DistanceMeters>
          </Trackpoint>
          <Trackpoint>
            <Time>2021-10-09T09:42:36.000Z</Time>
            <Position>
              <LatitudeDegrees>39.4685395248234272003173828125</LatitudeDegrees>
              <LongitudeDegrees>-0.72306747548282146453857421875</LongitudeDegrees>
            </Position>
            <AltitudeMeters>309.20001220703125</AltitudeMeters>
            <DistanceMeters>61692.139734558</DistanceMeters>
          </Trackpoint>
          <Trackpoint>
            <Time>2021-10-09T09:42:44.000Z</Time>
            <Position>
              <LatitudeDegrees>39.46816711686551570892333984375</LatitudeDegrees>
              <LongitudeDegrees>-0.72328289039433002471923828125</LongitudeDegrees>
            </Position>
            <AltitudeMeters>309.79998779296875</AltitudeMeters>
            <DistanceMeters>61737.534166094</DistanceMeters>
          </Trackpoint>
          <Trackpoint>
            <Time>2021-10-09T09:42:47.000Z</Time>
            <Position>
              <LatitudeDegrees>39.46802713908255100250244140625</LatitudeDegrees>
              <LongitudeDegrees>-0.7233711518347263336181640625</LongitudeDegrees>
            </Position>
            <AltitudeMeters>310.20001220703125</AltitudeMeters>
            <DistanceMeters>61754.861369608</DistanceMeters>
          </Trackpoint>
          <Trackpoint>
            <Time>2021-10-09T09:42:52.000Z</Time>
            <Position>
              <LatitudeDegrees>39.46776688098907470703125</LatitudeDegrees>
              <LongitudeDegrees>-0.72351926006376743316650390625</LongitudeDegrees>
            </Position>
            <AltitudeMeters>310.399993896484375</AltitudeMeters>
            <DistanceMeters>61786.500842018</DistanceMeters>
          </Trackpoint>
          <Trackpoint>
            <Time>2021-10-09T09:43:00.000Z</Time>
            <Position>
              <LatitudeDegrees>39.4673469476401805877685546875</LatitudeDegrees>
              <LongitudeDegrees>-0.723772309720516204833984375</LongitudeDegrees>
            </Position>
            <AltitudeMeters>311</AltitudeMeters>
            <DistanceMeters>61838.05000996</DistanceMeters>
          </Trackpoint>
          <Trackpoint>
            <Time>2021-10-09T09:43:03.000Z</Time>
            <Position>
              <LatitudeDegrees>39.46718148887157440185546875</LatitudeDegrees>
              <LongitudeDegrees>-0.72386727668344974517822265625</LongitudeDegrees>
            </Position>
            <AltitudeMeters>311.20001220703125</AltitudeMeters>
            <DistanceMeters>61858.192983792</DistanceMeters>
          </Trackpoint>
          <Trackpoint>
            <Time>2021-10-09T09:43:06.000Z</Time>
            <Position>
              <LatitudeDegrees>39.46703656576573848724365234375</LatitudeDegrees>
              <LongitudeDegrees>-0.7239515148103237152099609375</LongitudeDegrees>
            </Position>
            <AltitudeMeters>311.600006103515625</AltitudeMeters>
            <DistanceMeters>61875.872805513</DistanceMeters>
          </Trackpoint>
          <Trackpoint>
            <Time>2021-10-09T09:43:07.000Z</Time>
            <Position>
              <LatitudeDegrees>39.466985352337360382080078125</LatitudeDegrees>
              <LongitudeDegrees>-0.72398110292851924896240234375</LongitudeDegrees>
            </Position>
            <AltitudeMeters>311.600006103515625</AltitudeMeters>
            <DistanceMeters>61882.114259653</DistanceMeters>
          </Trackpoint>
          <Trackpoint>
            <Time>2021-10-09T09:43:13.000Z</Time>
            <Position>
              <LatitudeDegrees>39.4666861183941364288330078125</LatitudeDegrees>
              <LongitudeDegrees>-0.72415930218994617462158203125</LongitudeDegrees>
            </Position>
            <AltitudeMeters>312.399993896484375</AltitudeMeters>
            <DistanceMeters>61918.770683852</DistanceMeters>
          </Trackpoint>
          <Trackpoint>
            <Time>2021-10-09T09:43:15.000Z</Time>
            <Position>
              <LatitudeDegrees>39.46659634821116924285888671875</LatitudeDegrees>
              <LongitudeDegrees>-0.724208839237689971923828125</LongitudeDegrees>
            </Position>
            <AltitudeMeters>312.600006103515625</AltitudeMeters>
            <DistanceMeters>61929.631202187</DistanceMeters>
          </Trackpoint>
          <Trackpoint>
            <Time>2021-10-09T09:43:18.000Z</Time>
            <Position>
              <LatitudeDegrees>39.46646022610366344451904296875</LatitudeDegrees>
              <LongitudeDegrees>-0.72429089806973934173583984375</LongitudeDegrees>
            </Position>
            <AltitudeMeters>313.399993896484375</AltitudeMeters>
            <DistanceMeters>61946.342400352</DistanceMeters>
          </Trackpoint>
          <Trackpoint>
            <Time>2021-10-09T09:43:24.000Z</Time>
            <Position>
              <LatitudeDegrees>39.46620373986661434173583984375</LatitudeDegrees>
              <LongitudeDegrees>-0.7244514115154743194580078125</LongitudeDegrees>
            </Position>
            <AltitudeMeters>314.600006103515625</AltitudeMeters>
            <DistanceMeters>61978.047163234</DistanceMeters>
          </Trackpoint>
          <Trackpoint>
            <Time>2021-10-09T09:43:29.000Z</Time>
            <Position>
              <LatitudeDegrees>39.46598933078348636627197265625</LatitudeDegrees>
              <LongitudeDegrees>-0.72457822971045970916748046875</LongitudeDegrees>
            </Position>
            <AltitudeMeters>315.79998779296875</AltitudeMeters>
            <DistanceMeters>62004.281421491</DistanceMeters>
          </Trackpoint>
          <Trackpoint>
            <Time>2021-10-09T09:43:34.000Z</Time>
            <Position>
              <LatitudeDegrees>39.46577492170035839080810546875</LatitudeDegrees>
              <LongitudeDegrees>-0.72470270097255706787109375</LongitudeDegrees>
            </Position>
            <AltitudeMeters>316.399993896484375</AltitudeMeters>
            <DistanceMeters>62030.432766379</DistanceMeters>
          </Trackpoint>
          <Trackpoint>
            <Time>2021-10-09T09:43:38.000Z</Time>
            <Position>
              <LatitudeDegrees>39.46560376323759555816650390625</LatitudeDegrees>
              <LongitudeDegrees>-0.72480621747672557830810546875</LongitudeDegrees>
            </Position>
            <AltitudeMeters>317</AltitudeMeters>
            <DistanceMeters>62051.457520886</DistanceMeters>
          </Trackpoint>
          <Trackpoint>
            <Time>2021-10-09T09:43:42.000Z</Time>
            <Position>
              <LatitudeDegrees>39.46543595753610134124755859375</LatitudeDegrees>
              <LongitudeDegrees>-0.7248983345925807952880859375</LongitudeDegrees>
            </Position>
            <AltitudeMeters>317.79998779296875</AltitudeMeters>
            <DistanceMeters>62071.74255289</DistanceMeters>
          </Trackpoint>
          <Trackpoint>
            <Time>2021-10-09T09:43:43.000Z</Time>
            <Position>
              <LatitudeDegrees>39.46539555676281452178955078125</LatitudeDegrees>
              <LongitudeDegrees>-0.72492507286369800567626953125</LongitudeDegrees>
            </Position>
            <AltitudeMeters>318</AltitudeMeters>
            <DistanceMeters>62076.793292039</DistanceMeters>
          </Trackpoint>
          <Trackpoint>
            <Time>2021-10-09T09:43:52.000Z</Time>
            <Position>
              <LatitudeDegrees>39.4649996794760227203369140625</LatitudeDegrees>
              <LongitudeDegrees>-0.72519245557487010955810546875</LongitudeDegrees>
            </Position>
            <AltitudeMeters>319.20001220703125</AltitudeMeters>
            <DistanceMeters>62126.485449609</DistanceMeters>
          </Trackpoint>
          <Trackpoint>
            <Time>2021-10-09T09:44:00.000Z</Time>
            <Position>
              <LatitudeDegrees>39.464602880179882049560546875</LatitudeDegrees>
              <LongitudeDegrees>-0.72546176612377166748046875</LongitudeDegrees>
            </Position>
            <AltitudeMeters>320</AltitudeMeters>
            <DistanceMeters>62176.345415166</DistanceMeters>
          </Trackpoint>
          <Trackpoint>
            <Time>2021-10-09T09:44:02.000Z</Time>
            <Position>
              <LatitudeDegrees>39.46448796428740024566650390625</LatitudeDegrees>
              <LongitudeDegrees>-0.725541897118091583251953125</LongitudeDegrees>
            </Position>
            <AltitudeMeters>320.399993896484375</AltitudeMeters>
            <DistanceMeters>62190.871142899</DistanceMeters>
          </Trackpoint>
          <Trackpoint>
            <Time>2021-10-09T09:44:09.000Z</Time>
            <Position>
              <LatitudeDegrees>39.46411664597690105438232421875</LatitudeDegrees>
              <LongitudeDegrees>-0.725800730288028717041015625</LongitudeDegrees>
            </Position>
            <AltitudeMeters>320.79998779296875</AltitudeMeters>
            <DistanceMeters>62237.804047315</DistanceMeters>
          </Trackpoint>
          <Trackpoint>
            <Time>2021-10-09T09:44:16.000Z</Time>
            <Position>
              <LatitudeDegrees>39.46376125328242778778076171875</LatitudeDegrees>
              <LongitudeDegrees>-0.72608998976647853851318359375</LongitudeDegrees>
            </Position>
            <AltitudeMeters>321</AltitudeMeters>
            <DistanceMeters>62284.520865653</DistanceMeters>
          </Trackpoint>
          <Trackpoint>
            <Time>2021-10-09T09:44:19.000Z</Time>
            <Position>
              <LatitudeDegrees>39.46363803930580615997314453125</LatitudeDegrees>
              <LongitudeDegrees>-0.72622879408299922943115234375</LongitudeDegrees>
            </Position>
            <AltitudeMeters>321.399993896484375</AltitudeMeters>
            <DistanceMeters>62302.696075596</DistanceMeters>
          </Trackpoint>
          <Trackpoint>
            <Time>2021-10-09T09:44:22.000Z</Time>
            <Position>
              <LatitudeDegrees>39.46353008039295673370361328125</LatitudeDegrees>
              <LongitudeDegrees>-0.72636038996279239654541015625</LongitudeDegrees>
            </Position>
            <AltitudeMeters>321.79998779296875</AltitudeMeters>
            <DistanceMeters>62319.1962818</DistanceMeters>
          </Trackpoint>
          <Trackpoint>
            <Time>2021-10-09T09:44:27.000Z</Time>
            <Position>
              <LatitudeDegrees>39.463318102061748504638671875</LatitudeDegrees>
              <LongitudeDegrees>-0.726613104343414306640625</LongitudeDegrees>
            </Position>
            <AltitudeMeters>322.399993896484375</AltitudeMeters>
            <DistanceMeters>62351.262130992</DistanceMeters>
          </Trackpoint>
          <Trackpoint>
            <Time>2021-10-09T09:44:30.000Z</Time>
            <Position>
              <LatitudeDegrees>39.46320243179798126220703125</LatitudeDegrees>
              <LongitudeDegrees>-0.72674562223255634307861328125</LongitudeDegrees>
            </Position>
            <AltitudeMeters>322.79998779296875</AltitudeMeters>
            <DistanceMeters>62368.449624142</DistanceMeters>
          </Trackpoint>
          <Trackpoint>
            <Time>2021-10-09T09:44:32.000Z</Time>
            <Position>
              <LatitudeDegrees>39.463103525340557098388671875</LatitudeDegrees>
              <LongitudeDegrees>-0.72684821672737598419189453125</LongitudeDegrees>
            </Position>
            <AltitudeMeters>323</AltitudeMeters>
            <DistanceMeters>62382.553330177</DistanceMeters>
          </Trackpoint>
          <Trackpoint>
            <Time>2021-10-09T09:44:34.000Z</Time>
            <Position>
              <LatitudeDegrees>39.46299129165709018707275390625</LatitudeDegrees>
              <LongitudeDegrees>-0.72689834050834178924560546875</LongitudeDegrees>
            </Position>
            <AltitudeMeters>323.20001220703125</AltitudeMeters>
            <DistanceMeters>62395.76716982</DistanceMeters>
          </Trackpoint>
          <Trackpoint>
            <Time>2021-10-09T09:44:36.000Z</Time>
            <Position>
              <LatitudeDegrees>39.46288182400166988372802734375</LatitudeDegrees>
              <LongitudeDegrees>-0.7268960773944854736328125</LongitudeDegrees>
            </Position>
            <AltitudeMeters>323.399993896484375</AltitudeMeters>
            <DistanceMeters>62407.952470266</DistanceMeters>
          </Trackpoint>
          <Trackpoint>
            <Time>2021-10-09T09:44:38.000Z</Time>
            <Position>
              <LatitudeDegrees>39.4627620466053485870361328125</LatitudeDegrees>
              <LongitudeDegrees>-0.72684503160417079925537109375</LongitudeDegrees>
            </Position>
            <AltitudeMeters>323.600006103515625</AltitudeMeters>
            <DistanceMeters>62421.986857584</DistanceMeters>
          </Trackpoint>
          <Trackpoint>
            <Time>2021-10-09T09:44:40.000Z</Time>
            <Position>
              <LatitudeDegrees>39.462732709944248199462890625</LatitudeDegrees>
              <LongitudeDegrees>-0.72672651149332523345947265625</LongitudeDegrees>
            </Position>
            <AltitudeMeters>323.600006103515625</AltitudeMeters>
            <DistanceMeters>62432.682324306</DistanceMeters>
          </Trackpoint>
          <Trackpoint>
            <Time>2021-10-09T09:44:42.000Z</Time>
            <Position>
              <LatitudeDegrees>39.4627980887889862060546875</LatitudeDegrees>
              <LongitudeDegrees>-0.72660245932638645172119140625</LongitudeDegrees>
            </Position>
            <AltitudeMeters>323.79998779296875</AltitudeMeters>
            <DistanceMeters>62445.589177146</DistanceMeters>
          </Trackpoint>
          <Trackpoint>
            <Time>2021-10-09T09:44:49.000Z</Time>
            <Position>
              <LatitudeDegrees>39.46315708570182323455810546875</LatitudeDegrees>
              <LongitudeDegrees>-0.7263393513858318328857421875</LongitudeDegrees>
            </Position>
            <AltitudeMeters>324</AltitudeMeters>
            <DistanceMeters>62491.498981576</DistanceMeters>
          </Trackpoint>
          <Trackpoint>
            <Time>2021-10-09T09:44:53.000Z</Time>
            <Position>
              <LatitudeDegrees>39.46335422806441783905029296875</LatitudeDegrees>
              <LongitudeDegrees>-0.72614078409969806671142578125</LongitudeDegrees>
            </Position>
            <AltitudeMeters>324.399993896484375</AltitudeMeters>
            <DistanceMeters>62519.294579796</DistanceMeters>
          </Trackpoint>
          <Trackpoint>
            <Time>2021-10-09T09:44:55.000Z</Time>
            <Position>
              <LatitudeDegrees>39.46343838237226009368896484375</LatitudeDegrees>
              <LongitudeDegrees>-0.72602503001689910888671875</LongitudeDegrees>
            </Position>
            <AltitudeMeters>324.399993896484375</AltitudeMeters>
            <DistanceMeters>62532.95696283</DistanceMeters>
          </Trackpoint>
          <Trackpoint>
            <Time>2021-10-09T09:44:59.000Z</Time>
            <Position>
              <LatitudeDegrees>39.46358506567776203155517578125</LatitudeDegrees>
              <LongitudeDegrees>-0.725776255130767822265625</LongitudeDegrees>
            </Position>
            <AltitudeMeters>324.600006103515625</AltitudeMeters>
            <DistanceMeters>62559.855062853</DistanceMeters>
          </Trackpoint>
          <Trackpoint>
            <Time>2021-10-09T09:45:02.000Z</Time>
            <Position>
              <LatitudeDegrees>39.46367894299328327178955078125</LatitudeDegrees>
              <LongitudeDegrees>-0.72555363178253173828125</LongitudeDegrees>
            </Position>
            <AltitudeMeters>325</AltitudeMeters>
            <DistanceMeters>62581.652459536</DistanceMeters>
          </Trackpoint>
          <Trackpoint>
            <Time>2021-10-09T09:45:08.000Z</Time>
            <Position>
              <LatitudeDegrees>39.46381791494786739349365234375</LatitudeDegrees>
              <LongitudeDegrees>-0.725122131407260894775390625</LongitudeDegrees>
            </Position>
            <AltitudeMeters>325.79998779296875</AltitudeMeters>
            <DistanceMeters>62621.827524734</DistanceMeters>
          </Trackpoint>
          <Trackpoint>
            <Time>2021-10-09T09:45:11.000Z</Time>
            <Position>
              <LatitudeDegrees>39.4638884067535400390625</LatitudeDegrees>
              <LongitudeDegrees>-0.72489623911678791046142578125</LongitudeDegrees>
            </Position>
            <AltitudeMeters>325.79998779296875</AltitudeMeters>
            <DistanceMeters>62642.763615835</DistanceMeters>
          </Trackpoint>
          <Trackpoint>
            <Time>2021-10-09T09:45:17.000Z</Time>
            <Position>
              <LatitudeDegrees>39.46404757909476757049560546875</LatitudeDegrees>
              <LongitudeDegrees>-0.72431989945471286773681640625</LongitudeDegrees>
            </Position>
            <AltitudeMeters>325.399993896484375</AltitudeMeters>
            <DistanceMeters>62695.360709094</DistanceMeters>
          </Trackpoint>
          <Trackpoint>
            <Time>2021-10-09T09:45:20.000Z</Time>
            <Position>
              <LatitudeDegrees>39.46413760073482990264892578125</LatitudeDegrees>
              <LongitudeDegrees>-0.7240073382854461669921875</LongitudeDegrees>
            </Position>
            <AltitudeMeters>324.600006103515625</AltitudeMeters>
            <DistanceMeters>62724.026506246</DistanceMeters>
          </Trackpoint>
          <Trackpoint>
            <Time>2021-10-09T09:45:23.000Z</Time>
            <Position>
              <LatitudeDegrees>39.4642277061939239501953125</LatitudeDegrees>
              <LongitudeDegrees>-0.72368656285107135772705078125</LongitudeDegrees>
            </Position>
            <AltitudeMeters>323.79998779296875</AltitudeMeters>
            <DistanceMeters>62753.357606514</DistanceMeters>
          </Trackpoint>
          <Trackpoint>
            <Time>2021-10-09T09:45:24.000Z</Time>
            <Position>
              <LatitudeDegrees>39.46425025351345539093017578125</LatitudeDegrees>
              <LongitudeDegrees>-0.7236001454293727874755859375</LongitudeDegrees>
            </Position>
            <AltitudeMeters>323.399993896484375</AltitudeMeters>
            <DistanceMeters>62761.195438488</DistanceMeters>
          </Trackpoint>
          <Trackpoint>
            <Time>2021-10-09T09:45:26.000Z</Time>
            <Position>
              <LatitudeDegrees>39.4643224216997623443603515625</LatitudeDegrees>
              <LongitudeDegrees>-0.72336285375058650970458984375</LongitudeDegrees>
            </Position>
            <AltitudeMeters>322</AltitudeMeters>
            <DistanceMeters>62783.11058498</DistanceMeters>
          </Trackpoint>
          <Trackpoint>
            <Time>2021-10-09T09:45:28.000Z</Time>
            <Position>
              <LatitudeDegrees>39.46439458988606929779052734375</LatitudeDegrees>
              <LongitudeDegrees>-0.72313637472689151763916015625</LongitudeDegrees>
            </Position>
            <AltitudeMeters>320.79998779296875</AltitudeMeters>
            <DistanceMeters>62804.163881687</DistanceMeters>
          </Trackpoint>
          <Trackpoint>
            <Time>2021-10-09T09:45:30.000Z</Time>
            <Position>
              <LatitudeDegrees>39.464474134147167205810546875</LatitudeDegrees>
              <LongitudeDegrees>-0.72290293872356414794921875</LongitudeDegrees>
            </Position>
            <AltitudeMeters>320.20001220703125</AltitudeMeters>
            <DistanceMeters>62826.089326941</DistanceMeters>
          </Trackpoint>
          <Trackpoint>
            <Time>2021-10-09T09:45:32.000Z</Time>
            <Position>
              <LatitudeDegrees>39.46454881690442562103271484375</LatitudeDegrees>
              <LongitudeDegrees>-0.7226677425205707550048828125</LongitudeDegrees>
            </Position>
            <AltitudeMeters>319.399993896484375</AltitudeMeters>
            <DistanceMeters>62847.941545877</DistanceMeters>
          </Trackpoint>
          <Trackpoint>
            <Time>2021-10-09T09:45:37.000Z</Time>
            <Position>
              <LatitudeDegrees>39.4647197239100933074951171875</LatitudeDegrees>
              <LongitudeDegrees>-0.7220987789332866668701171875</LongitudeDegrees>
            </Position>
            <AltitudeMeters>318.600006103515625</AltitudeMeters>
            <DistanceMeters>62900.401284317</DistanceMeters>
          </Trackpoint>
          <Trackpoint>
            <Time>2021-10-09T09:45:38.000Z</Time>
            <Position>
              <LatitudeDegrees>39.46475098840892314910888671875</LatitudeDegrees>
              <LongitudeDegrees>-0.7219878025352954864501953125</LongitudeDegrees>
            </Position>
            <AltitudeMeters>318.399993896484375</AltitudeMeters>
            <DistanceMeters>62910.552699607</DistanceMeters>
          </Trackpoint>
          <Trackpoint>
            <Time>2021-10-09T09:45:39.000Z</Time>
            <Position>
              <LatitudeDegrees>39.46477730758488178253173828125</LatitudeDegrees>
              <LongitudeDegrees>-0.72190540842711925506591796875</LongitudeDegrees>
            </Position>
            <AltitudeMeters>318.20001220703125</AltitudeMeters>
            <DistanceMeters>62918.21517682</DistanceMeters>
          </Trackpoint>
          <Trackpoint>
            <Time>2021-10-09T09:45:42.000Z</Time>
            <Position>
              <LatitudeDegrees>39.46491594426333904266357421875</LatitudeDegrees>
              <LongitudeDegrees>-0.72158337570726871490478515625</LongitudeDegrees>
            </Position>
            <AltitudeMeters>318</AltitudeMeters>
            <DistanceMeters>62949.897858644</DistanceMeters>
          </Trackpoint>
          <Trackpoint>
            <Time>2021-10-09T09:45:47.000Z</Time>
            <Position>
              <LatitudeDegrees>39.46518835611641407012939453125</LatitudeDegrees>
              <LongitudeDegrees>-0.7211385481059551239013671875</LongitudeDegrees>
            </Position>
            <AltitudeMeters>317.600006103515625</AltitudeMeters>
            <DistanceMeters>62998.685725066</DistanceMeters>
          </Trackpoint>
          <Trackpoint>
            <Time>2021-10-09T09:45:50.000Z</Time>
            <Position>
              <LatitudeDegrees>39.46536487899720668792724609375</LatitudeDegrees>
              <LongitudeDegrees>-0.720941238105297088623046875</LongitudeDegrees>
            </Position>
            <AltitudeMeters>317.399993896484375</AltitudeMeters>
            <DistanceMeters>63024.636892693</DistanceMeters>
          </Trackpoint>
          <Trackpoint>
            <Time>2021-10-09T09:45:52.000Z</Time>
            <Position>
              <LatitudeDegrees>39.4655163399875164031982421875</LatitudeDegrees>
              <LongitudeDegrees>-0.72082296945154666900634765625</LongitudeDegrees>
            </Position>
            <AltitudeMeters>317.399993896484375</AltitudeMeters>
            <DistanceMeters>63044.320960364</DistanceMeters>
          </Trackpoint>
          <Trackpoint>
            <Time>2021-10-09T09:45:57.000Z</Time>
            <Position>
              <LatitudeDegrees>39.4658931903541088104248046875</LatitudeDegrees>
              <LongitudeDegrees>-0.720636136829853057861328125</LongitudeDegrees>
            </Position>
            <AltitudeMeters>316.79998779296875</AltitudeMeters>
            <DistanceMeters>63089.232419316</DistanceMeters>
          </Trackpoint>
          <Trackpoint>
            <Time>2021-10-09T09:46:01.000Z</Time>
            <Position>
              <LatitudeDegrees>39.4662013091146945953369140625</LatitudeDegrees>
              <LongitudeDegrees>-0.7205759547650814056396484375</LongitudeDegrees>
            </Position>
            <AltitudeMeters>317</AltitudeMeters>
            <DistanceMeters>63123.914175939</DistanceMeters>
          </Trackpoint>
          <Trackpoint>
            <Time>2021-10-09T09:46:02.000Z</Time>
            <Position>
              <LatitudeDegrees>39.46627213619649410247802734375</LatitudeDegrees>
              <LongitudeDegrees>-0.7205464504659175872802734375</LongitudeDegrees>
            </Position>
            <AltitudeMeters>317</AltitudeMeters>
            <DistanceMeters>63132.195142098</DistanceMeters>
          </Trackpoint>
          <Trackpoint>
            <Time>2021-10-09T09:46:04.000Z</Time>
            <Position>
              <LatitudeDegrees>39.46639199741184711456298828125</LatitudeDegrees>
              <LongitudeDegrees>-0.72044561617076396942138671875</LongitudeDegrees>
            </Position>
            <AltitudeMeters>316.79998779296875</AltitudeMeters>
            <DistanceMeters>63148.102682202</DistanceMeters>
          </Trackpoint>
          <Trackpoint>
            <Time>2021-10-09T09:46:05.000Z</Time>
            <Position>
              <LatitudeDegrees>39.4664512574672698974609375</LatitudeDegrees>
              <LongitudeDegrees>-0.7204133458435535430908203125</LongitudeDegrees>
            </Position>
            <AltitudeMeters>316.79998779296875</AltitudeMeters>
            <DistanceMeters>63155.258137005</DistanceMeters>
          </Trackpoint>
          <Trackpoint>
            <Time>2021-10-09T09:46:07.000Z</Time>
            <Position>
              <LatitudeDegrees>39.4665654189884662628173828125</LatitudeDegrees>
              <LongitudeDegrees>-0.72044335305690765380859375</LongitudeDegrees>
            </Position>
            <AltitudeMeters>317</AltitudeMeters>
            <DistanceMeters>63168.223277691</DistanceMeters>
          </Trackpoint>
          <Trackpoint>
            <Time>2021-10-09T09:46:09.000Z</Time>
            <Position>
              <LatitudeDegrees>39.46668201126158237457275390625</LatitudeDegrees>
              <LongitudeDegrees>-0.72057687677443027496337890625</LongitudeDegrees>
            </Position>
            <AltitudeMeters>317.399993896484375</AltitudeMeters>
            <DistanceMeters>63185.544747604</DistanceMeters>
          </Trackpoint>
          <Trackpoint>
            <Time>2021-10-09T09:46:10.000Z</Time>
            <Position>
              <LatitudeDegrees>39.46675099432468414306640625</LatitudeDegrees>
              <LongitudeDegrees>-0.7206446863710880279541015625</LongitudeDegrees>
            </Position>
            <AltitudeMeters>317.20001220703125</AltitudeMeters>
            <DistanceMeters>63195.18328621</DistanceMeters>
          </Trackpoint>
          <Trackpoint>
            <Time>2021-10-09T09:46:11.000Z</Time>
            <Position>
              <LatitudeDegrees>39.4668366573750972747802734375</LatitudeDegrees>
              <LongitudeDegrees>-0.7206966541707515716552734375</LongitudeDegrees>
            </Position>
            <AltitudeMeters>317.20001220703125</AltitudeMeters>
            <DistanceMeters>63205.711114014</DistanceMeters>
          </Trackpoint>
          <Trackpoint>
            <Time>2021-10-09T09:46:13.000Z</Time>
            <Position>
              <LatitudeDegrees>39.4670146889984607696533203125</LatitudeDegrees>
              <LongitudeDegrees>-0.7207580097019672393798828125</LongitudeDegrees>
            </Position>
            <AltitudeMeters>317.20001220703125</AltitudeMeters>
            <DistanceMeters>63226.215756396</DistanceMeters>
          </Trackpoint>
          <Trackpoint>
            <Time>2021-10-09T09:46:16.000Z</Time>
            <Position>
              <LatitudeDegrees>39.4672876037657260894775390625</LatitudeDegrees>
              <LongitudeDegrees>-0.7208431698381900787353515625</LongitudeDegrees>
            </Position>
            <AltitudeMeters>317</AltitudeMeters>
            <DistanceMeters>63257.460621004</DistanceMeters>
          </Trackpoint>
          <Trackpoint>
            <Time>2021-10-09T09:46:19.000Z</Time>
            <Position>
              <LatitudeDegrees>39.4675531424582004547119140625</LatitudeDegrees>
              <LongitudeDegrees>-0.72092791087925434112548828125</LongitudeDegrees>
            </Position>
            <AltitudeMeters>316.399993896484375</AltitudeMeters>
            <DistanceMeters>63287.899444297</DistanceMeters>
          </Trackpoint>
          <Trackpoint>
            <Time>2021-10-09T09:46:20.000Z</Time>
            <Position>
              <LatitudeDegrees>39.46764140389859676361083984375</LatitudeDegrees>
              <LongitudeDegrees>-0.72095339186489582061767578125</LongitudeDegrees>
            </Position>
            <AltitudeMeters>316</AltitudeMeters>
            <DistanceMeters>63297.96420448</DistanceMeters>
          </Trackpoint>
          <Trackpoint>
            <Time>2021-10-09T09:46:24.000Z</Time>
            <Position>
              <LatitudeDegrees>39.4679950363934040069580078125</LatitudeDegrees>
              <LongitudeDegrees>-0.7210255600512027740478515625</LongitudeDegrees>
            </Position>
            <AltitudeMeters>315</AltitudeMeters>
            <DistanceMeters>63337.809643495</DistanceMeters>
          </Trackpoint>
          <Trackpoint>
            <Time>2021-10-09T09:46:25.000Z</Time>
            <Position>
              <LatitudeDegrees>39.4680872373282909393310546875</LatitudeDegrees>
              <LongitudeDegrees>-0.721034109592437744140625</LongitudeDegrees>
            </Position>
            <AltitudeMeters>314.79998779296875</AltitudeMeters>
            <DistanceMeters>63348.098013438</DistanceMeters>
          </Trackpoint>
          <Trackpoint>
            <Time>2021-10-09T09:46:30.000Z</Time>
            <Position>
              <LatitudeDegrees>39.4685569591820240020751953125</LatitudeDegrees>
              <LongitudeDegrees>-0.7209829799830913543701171875</LongitudeDegrees>
            </Position>
            <AltitudeMeters>314.600006103515625</AltitudeMeters>
            <DistanceMeters>63400.56325986</DistanceMeters>
          </Trackpoint>
          <Trackpoint>
            <Time>2021-10-09T09:46:35.000Z</Time>
            <Position>
              <LatitudeDegrees>39.4690028764307498931884765625</LatitudeDegrees>
              <LongitudeDegrees>-0.7208012603223323822021484375</LongitudeDegrees>
            </Position>
            <AltitudeMeters>314.399993896484375</AltitudeMeters>
            <DistanceMeters>63452.592794133</DistanceMeters>
          </Trackpoint>
          <Trackpoint>
            <Time>2021-10-09T09:46:37.000Z</Time>
            <Position>
              <LatitudeDegrees>39.46916305460035800933837890625</LatitudeDegrees>
              <LongitudeDegrees>-0.720696486532688140869140625</LongitudeDegrees>
            </Position>
            <AltitudeMeters>314</AltitudeMeters>
            <DistanceMeters>63472.565139935</DistanceMeters>
          </Trackpoint>
          <Trackpoint>
            <Time>2021-10-09T09:46:40.000Z</Time>
            <Position>
              <LatitudeDegrees>39.46938450448215007781982421875</LatitudeDegrees>
              <LongitudeDegrees>-0.720514766871929168701171875</LongitudeDegrees>
            </Position>
            <AltitudeMeters>313.79998779296875</AltitudeMeters>
            <DistanceMeters>63501.742210156</DistanceMeters>
          </Trackpoint>
          <Trackpoint>
            <Time>2021-10-09T09:46:45.000Z</Time>
            <Position>
              <LatitudeDegrees>39.4696982391178607940673828125</LatitudeDegrees>
              <LongitudeDegrees>-0.72014286182820796966552734375</LongitudeDegrees>
            </Position>
            <AltitudeMeters>313.79998779296875</AltitudeMeters>
            <DistanceMeters>63549.075626117</DistanceMeters>
          </Trackpoint>
          <Trackpoint>
            <Time>2021-10-09T09:46:50.000Z</Time>
            <Position>
              <LatitudeDegrees>39.46995221078395843505859375</LatitudeDegrees>
              <LongitudeDegrees>-0.719678588211536407470703125</LongitudeDegrees>
            </Position>
            <AltitudeMeters>313.600006103515625</AltitudeMeters>
            <DistanceMeters>63597.966662876</DistanceMeters>
          </Trackpoint>
          <Trackpoint>
            <Time>2021-10-09T09:46:56.000Z</Time>
            <Position>
              <LatitudeDegrees>39.47016083635389804840087890625</LatitudeDegrees>
              <LongitudeDegrees>-0.71907031349837779998779296875</LongitudeDegrees>
            </Position>
            <AltitudeMeters>313.20001220703125</AltitudeMeters>
            <DistanceMeters>63655.1560102</DistanceMeters>
          </Trackpoint>
          <Trackpoint>
            <Time>2021-10-09T09:46:59.000Z</Time>
            <Position>
              <LatitudeDegrees>39.4702135585248470306396484375</LatitudeDegrees>
              <LongitudeDegrees>-0.71880075149238109588623046875</LongitudeDegrees>
            </Position>
            <AltitudeMeters>312.79998779296875</AltitudeMeters>
            <DistanceMeters>63679.048379536</DistanceMeters>
          </Trackpoint>
          <Trackpoint>
            <Time>2021-10-09T09:47:00.000Z</Time>
            <Position>
              <LatitudeDegrees>39.4702219404280185699462890625</LatitudeDegrees>
              <LongitudeDegrees>-0.7187483645975589752197265625</LongitudeDegrees>
            </Position>
            <AltitudeMeters>312.79998779296875</AltitudeMeters>
            <DistanceMeters>63683.645158721</DistanceMeters>
          </Trackpoint>
          <Trackpoint>
            <Time>2021-10-09T09:47:01.000Z</Time>
            <Position>
              <LatitudeDegrees>39.4702259637415409088134765625</LatitudeDegrees>
              <LongitudeDegrees>-0.71872229687869548797607421875</LongitudeDegrees>
            </Position>
            <AltitudeMeters>312.600006103515625</AltitudeMeters>
            <DistanceMeters>63685.925799866</DistanceMeters>
          </Trackpoint>
          <Trackpoint>
            <Time>2021-10-09T09:49:00.000Z</Time>
            <Position>
              <LatitudeDegrees>39.47025588713586330413818359375</LatitudeDegrees>
              <LongitudeDegrees>-0.717860050499439239501953125</LongitudeDegrees>
            </Position>
            <AltitudeMeters>312</AltitudeMeters>
            <DistanceMeters>63760.084942436</DistanceMeters>
          </Trackpoint>
          <Trackpoint>
            <Time>2021-10-09T09:49:01.000Z</Time>
            <Position>
              <LatitudeDegrees>39.4702504388988018035888671875</LatitudeDegrees>
              <LongitudeDegrees>-0.71779006160795688629150390625</LongitudeDegrees>
            </Position>
            <AltitudeMeters>312</AltitudeMeters>
            <DistanceMeters>63766.129418368</DistanceMeters>
          </Trackpoint>
          <Trackpoint>
            <Time>2021-10-09T09:49:04.000Z</Time>
            <Position>
              <LatitudeDegrees>39.47020727209746837615966796875</LatitudeDegrees>
              <LongitudeDegrees>-0.71752435527741909027099609375</LongitudeDegrees>
            </Position>
            <AltitudeMeters>311.79998779296875</AltitudeMeters>
            <DistanceMeters>63789.459202498</DistanceMeters>
          </Trackpoint>
          <Trackpoint>
            <Time>2021-10-09T09:49:05.000Z</Time>
            <Position>
              <LatitudeDegrees>39.47017843835055828094482421875</LatitudeDegrees>
              <LongitudeDegrees>-0.71741522289812564849853515625</LongitudeDegrees>
            </Position>
            <AltitudeMeters>311.79998779296875</AltitudeMeters>
            <DistanceMeters>63799.369810022</DistanceMeters>
          </Trackpoint>
          <Trackpoint>
            <Time>2021-10-09T09:49:07.000Z</Time>
            <Position>
              <LatitudeDegrees>39.470120854675769805908203125</LatitudeDegrees>
              <LongitudeDegrees>-0.71723115630447864532470703125</LongitudeDegrees>
            </Position>
            <AltitudeMeters>311.399993896484375</AltitudeMeters>
            <DistanceMeters>63816.43444905</DistanceMeters>
          </Trackpoint>
          <Trackpoint>
            <Time>2021-10-09T09:49:09.000Z</Time>
            <Position>
              <LatitudeDegrees>39.470054470002651214599609375</LatitudeDegrees>
              <LongitudeDegrees>-0.7170552201569080352783203125</LongitudeDegrees>
            </Position>
            <AltitudeMeters>311.399993896484375</AltitudeMeters>
            <DistanceMeters>63833.260082072</DistanceMeters>
          </Trackpoint>
          <Trackpoint>
            <Time>2021-10-09T09:49:10.000Z</Time>
            <Position>
              <LatitudeDegrees>39.470015577971935272216796875</LatitudeDegrees>
              <LongitudeDegrees>-0.71697014383971691131591796875</LongitudeDegrees>
            </Position>
            <AltitudeMeters>311.20001220703125</AltitudeMeters>
            <DistanceMeters>63841.755279006</DistanceMeters>
          </Trackpoint>
          <Trackpoint>
            <Time>2021-10-09T09:49:13.000Z</Time>
            <Position>
              <LatitudeDegrees>39.4698903523385524749755859375</LatitudeDegrees>
              <LongitudeDegrees>-0.71673025377094745635986328125</LongitudeDegrees>
            </Position>
            <AltitudeMeters>310.79998779296875</AltitudeMeters>
            <DistanceMeters>63866.637040217</DistanceMeters>
          </Trackpoint>
          <Trackpoint>
            <Time>2021-10-09T09:49:16.000Z</Time>
            <Position>
              <LatitudeDegrees>39.46972958743572235107421875</LatitudeDegrees>
              <LongitudeDegrees>-0.71651349775493144989013671875</LongitudeDegrees>
            </Position>
            <AltitudeMeters>310.399993896484375</AltitudeMeters>
            <DistanceMeters>63892.463685888</DistanceMeters>
          </Trackpoint>
          <Trackpoint>
            <Time>2021-10-09T09:49:20.000Z</Time>
            <Position>
              <LatitudeDegrees>39.46949883364140987396240234375</LatitudeDegrees>
              <LongitudeDegrees>-0.71623228490352630615234375</LongitudeDegrees>
            </Position>
            <AltitudeMeters>310</AltitudeMeters>
            <DistanceMeters>63927.726152143</DistanceMeters>
          </Trackpoint>
          <Trackpoint>
            <Time>2021-10-09T09:49:23.000Z</Time>
            <Position>
              <LatitudeDegrees>39.46931920945644378662109375</LatitudeDegrees>
              <LongitudeDegrees>-0.71601494215428829193115234375</LongitudeDegrees>
            </Position>
            <AltitudeMeters>309.79998779296875</AltitudeMeters>
            <DistanceMeters>63955.083780437</DistanceMeters>
          </Trackpoint>
          <Trackpoint>
            <Time>2021-10-09T09:49:29.000Z</Time>
            <Position>
              <LatitudeDegrees>39.46894965134561061859130859375</LatitudeDegrees>
              <LongitudeDegrees>-0.71556667797267436981201171875</LongitudeDegrees>
            </Position>
            <AltitudeMeters>309.399993896484375</AltitudeMeters>
            <DistanceMeters>64011.433900941</DistanceMeters>
          </Trackpoint>
          <Trackpoint>
            <Time>2021-10-09T09:49:31.000Z</Time>
            <Position>
              <LatitudeDegrees>39.46882325224578380584716796875</LatitudeDegrees>
              <LongitudeDegrees>-0.71541211567819118499755859375</LongitudeDegrees>
            </Position>
            <AltitudeMeters>309.20001220703125</AltitudeMeters>
            <DistanceMeters>64030.780182456</DistanceMeters>
          </Trackpoint>
          <Trackpoint>
            <Time>2021-10-09T09:49:37.000Z</Time>
            <Position>
              <LatitudeDegrees>39.46844480931758880615234375</LatitudeDegrees>
              <LongitudeDegrees>-0.71493485011160373687744140625</LongitudeDegrees>
            </Position>
            <AltitudeMeters>308.79998779296875</AltitudeMeters>
            <DistanceMeters>64089.56655286</DistanceMeters>
          </Trackpoint>
          <Trackpoint>
            <Time>2021-10-09T09:49:38.000Z</Time>
            <Position>
              <LatitudeDegrees>39.46836057119071483612060546875</LatitudeDegrees>
              <LongitudeDegrees>-0.71483007632195949554443359375</LongitudeDegrees>
            </Position>
            <AltitudeMeters>308.399993896484375</AltitudeMeters>
            <DistanceMeters>64102.564734666</DistanceMeters>
          </Trackpoint>
          <Trackpoint>
            <Time>2021-10-09T09:49:42.000Z</Time>
            <Position>
              <LatitudeDegrees>39.46805655956268310546875</LatitudeDegrees>
              <LongitudeDegrees>-0.71445775218307971954345703125</LongitudeDegrees>
            </Position>
            <AltitudeMeters>307.20001220703125</AltitudeMeters>
            <DistanceMeters>64149.130539678</DistanceMeters>
          </Trackpoint>
          <Trackpoint>
            <Time>2021-10-09T09:49:44.000Z</Time>
            <Position>
              <LatitudeDegrees>39.467899985611438751220703125</LatitudeDegrees>
              <LongitudeDegrees>-0.71426345966756343841552734375</LongitudeDegrees>
            </Position>
            <AltitudeMeters>306</AltitudeMeters>
            <DistanceMeters>64173.263396538</DistanceMeters>
          </Trackpoint>
          <Trackpoint>
            <Time>2021-10-09T09:49:45.000Z</Time>
            <Position>
              <LatitudeDegrees>39.4678203575313091278076171875</LatitudeDegrees>
              <LongitudeDegrees>-0.71416337974369525909423828125</LongitudeDegrees>
            </Position>
            <AltitudeMeters>305.600006103515625</AltitudeMeters>
            <DistanceMeters>64185.612482779</DistanceMeters>
          </Trackpoint>
          <Trackpoint>
            <Time>2021-10-09T09:49:46.000Z</Time>
            <Position>
              <LatitudeDegrees>39.46773678995668888092041015625</LatitudeDegrees>
              <LongitudeDegrees>-0.71406279690563678741455078125</LongitudeDegrees>
            </Position>
            <AltitudeMeters>304.79998779296875</AltitudeMeters>
            <DistanceMeters>64198.309132915</DistanceMeters>
          </Trackpoint>
          <Trackpoint>
            <Time>2021-10-09T09:49:49.000Z</Time>
            <Position>
              <LatitudeDegrees>39.467495977878570556640625</LatitudeDegrees>
              <LongitudeDegrees>-0.71374394930899143218994140625</LongitudeDegrees>
            </Position>
            <AltitudeMeters>303.399993896484375</AltitudeMeters>
            <DistanceMeters>64236.636129347</DistanceMeters>
          </Trackpoint>
          <Trackpoint>
            <Time>2021-10-09T09:49:51.000Z</Time>
            <Position>
              <LatitudeDegrees>39.46734518744051456451416015625</LatitudeDegrees>
              <LongitudeDegrees>-0.71351210586726665496826171875</LongitudeDegrees>
            </Position>
            <AltitudeMeters>302.600006103515625</AltitudeMeters>
            <DistanceMeters>64262.684371397</DistanceMeters>
          </Trackpoint>
          <Trackpoint>
            <Time>2021-10-09T09:49:52.000Z</Time>
            <Position>
              <LatitudeDegrees>39.46728869341313838958740234375</LatitudeDegrees>
              <LongitudeDegrees>-0.713412277400493621826171875</LongitudeDegrees>
            </Position>
            <AltitudeMeters>302</AltitudeMeters>
            <DistanceMeters>64273.320149113</DistanceMeters>
          </Trackpoint>
          <Trackpoint>
            <Time>2021-10-09T09:49:54.000Z</Time>
            <Position>
              <LatitudeDegrees>39.46714620105922222137451171875</LatitudeDegrees>
              <LongitudeDegrees>-0.71311782114207744598388671875</LongitudeDegrees>
            </Position>
            <AltitudeMeters>300.600006103515625</AltitudeMeters>
            <DistanceMeters>64303.180923858</DistanceMeters>
          </Trackpoint>
          <Trackpoint>
            <Time>2021-10-09T09:49:55.000Z</Time>
            <Position>
              <LatitudeDegrees>39.4670894555747509002685546875</LatitudeDegrees>
              <LongitudeDegrees>-0.7129792682826519012451171875</LongitudeDegrees>
            </Position>
            <AltitudeMeters>300</AltitudeMeters>
            <DistanceMeters>64316.657306809</DistanceMeters>
          </Trackpoint>
          <Trackpoint>
            <Time>2021-10-09T09:49:57.000Z</Time>
            <Position>
              <LatitudeDegrees>39.46699013002216815948486328125</LatitudeDegrees>
              <LongitudeDegrees>-0.7126946188509464263916015625</LongitudeDegrees>
            </Position>
            <AltitudeMeters>299.20001220703125</AltitudeMeters>
            <DistanceMeters>64343.497938297</DistanceMeters>
          </Trackpoint>
          <Trackpoint>
            <Time>2021-10-09T09:49:59.000Z</Time>
            <Position>
              <LatitudeDegrees>39.4669124297797679901123046875</LatitudeDegrees>
              <LongitudeDegrees>-0.71238893084228038787841796875</LongitudeDegrees>
            </Position>
            <AltitudeMeters>297.79998779296875</AltitudeMeters>
            <DistanceMeters>64371.151038729</DistanceMeters>
          </Trackpoint>
          <Trackpoint>
            <Time>2021-10-09T09:50:00.000Z</Time>
            <Position>
              <LatitudeDegrees>39.46688175201416015625</LatitudeDegrees>
              <LongitudeDegrees>-0.71223319508135318756103515625</LongitudeDegrees>
            </Position>
            <AltitudeMeters>296.79998779296875</AltitudeMeters>
            <DistanceMeters>64384.961333606</DistanceMeters>
          </Trackpoint>
          <Trackpoint>
            <Time>2021-10-09T09:50:01.000Z</Time>
            <Position>
              <LatitudeDegrees>39.4668564386665821075439453125</LatitudeDegrees>
              <LongitudeDegrees>-0.712075531482696533203125</LongitudeDegrees>
            </Position>
            <AltitudeMeters>296.399993896484375</AltitudeMeters>
            <DistanceMeters>64398.798737297</DistanceMeters>
          </Trackpoint>
          <Trackpoint>
            <Time>2021-10-09T09:50:03.000Z</Time>
            <Position>
              <LatitudeDegrees>39.46682299487292766571044921875</LatitudeDegrees>
              <LongitudeDegrees>-0.7117598690092563629150390625</LongitudeDegrees>
            </Position>
            <AltitudeMeters>295</AltitudeMeters>
            <DistanceMeters>64426.175998026</DistanceMeters>
          </Trackpoint>
          <Trackpoint>
            <Time>2021-10-09T09:50:04.000Z</Time>
            <Position>
              <LatitudeDegrees>39.46681595407426357269287109375</LatitudeDegrees>
              <LongitudeDegrees>-0.7116021215915679931640625</LongitudeDegrees>
            </Position>
            <AltitudeMeters>293.79998779296875</AltitudeMeters>
            <DistanceMeters>64439.752518949</DistanceMeters>
          </Trackpoint>
          <Trackpoint>
            <Time>2021-10-09T09:50:06.000Z</Time>
            <Position>
              <LatitudeDegrees>39.4668188877403736114501953125</LatitudeDegrees>
              <LongitudeDegrees>-0.71127866394817829132080078125</LongitudeDegrees>
            </Position>
            <AltitudeMeters>292</AltitudeMeters>
            <DistanceMeters>64467.547304971</DistanceMeters>
          </Trackpoint>
          <Trackpoint>
            <Time>2021-10-09T09:50:07.000Z</Time>
            <Position>
              <LatitudeDegrees>39.466831125319004058837890625</LatitudeDegrees>
              <LongitudeDegrees>-0.71111328899860382080078125</LongitudeDegrees>
            </Position>
            <AltitudeMeters>291.399993896484375</AltitudeMeters>
            <DistanceMeters>64481.821886399</DistanceMeters>
          </Trackpoint>
          <Trackpoint>
            <Time>2021-10-09T09:50:08.000Z</Time>
            <Position>
              <LatitudeDegrees>39.46685065515339374542236328125</LatitudeDegrees>
              <LongitudeDegrees>-0.71094699203968048095703125</LongitudeDegrees>
            </Position>
            <AltitudeMeters>291</AltitudeMeters>
            <DistanceMeters>64496.275321577</DistanceMeters>
          </Trackpoint>
          <Trackpoint>
            <Time>2021-10-09T09:50:09.000Z</Time>
            <Position>
              <LatitudeDegrees>39.46687697432935237884521484375</LatitudeDegrees>
              <LongitudeDegrees>-0.710782706737518310546875</LongitudeDegrees>
            </Position>
            <AltitudeMeters>290.600006103515625</AltitudeMeters>
            <DistanceMeters>64510.691848185</DistanceMeters>
          </Trackpoint>
          <Trackpoint>
            <Time>2021-10-09T09:50:11.000Z</Time>
            <Position>
              <LatitudeDegrees>39.46694486774504184722900390625</LatitudeDegrees>
              <LongitudeDegrees>-0.7104589976370334625244140625</LongitudeDegrees>
            </Position>
            <AltitudeMeters>289.20001220703125</AltitudeMeters>
            <DistanceMeters>64539.514564447</DistanceMeters>
          </Trackpoint>
          <Trackpoint>
            <Time>2021-10-09T09:50:12.000Z</Time>
            <Position>
              <LatitudeDegrees>39.46698828600347042083740234375</LatitudeDegrees>
              <LongitudeDegrees>-0.71029848419129848480224609375</LongitudeDegrees>
            </Position>
            <AltitudeMeters>288.79998779296875</AltitudeMeters>
            <DistanceMeters>64554.128610361</DistanceMeters>
          </Trackpoint>
          <Trackpoint>
            <Time>2021-10-09T09:50:13.000Z</Time>
            <Position>
              <LatitudeDegrees>39.4670378230512142181396484375</LatitudeDegrees>
              <LongitudeDegrees>-0.71013989858329296112060546875</LongitudeDegrees>
            </Position>
            <AltitudeMeters>288.20001220703125</AltitudeMeters>
            <DistanceMeters>64568.828294005</DistanceMeters>
          </Trackpoint>
          <Trackpoint>
            <Time>2021-10-09T09:50:15.000Z</Time>
            <Position>
              <LatitudeDegrees>39.46715776808559894561767578125</LatitudeDegrees>
              <LongitudeDegrees>-0.70983110927045345306396484375</LongitudeDegrees>
            </Position>
            <AltitudeMeters>287.20001220703125</AltitudeMeters>
            <DistanceMeters>64598.530185329</DistanceMeters>
          </Trackpoint>
          <Trackpoint>
            <Time>2021-10-09T09:50:16.000Z</Time>
            <Position>
              <LatitudeDegrees>39.467227421700954437255859375</LatitudeDegrees>
              <LongitudeDegrees>-0.7096808217465877532958984375</LongitudeDegrees>
            </Position>
            <AltitudeMeters>286.600006103515625</AltitudeMeters>
            <DistanceMeters>64613.592444143</DistanceMeters>
          </Trackpoint>
          <Trackpoint>
            <Time>2021-10-09T09:50:18.000Z</Time>
            <Position>
              <LatitudeDegrees>39.4673744402825832366943359375</LatitudeDegrees>
              <LongitudeDegrees>-0.7093877904117107391357421875</LongitudeDegrees>
            </Position>
            <AltitudeMeters>285.79998779296875</AltitudeMeters>
            <DistanceMeters>64643.621036243</DistanceMeters>
          </Trackpoint>
          <Trackpoint>
            <Time>2021-10-09T09:50:20.000Z</Time>
            <Position>
              <LatitudeDegrees>39.46752405725419521331787109375</LatitudeDegrees>
              <LongitudeDegrees>-0.709098279476165771484375</LongitudeDegrees>
            </Position>
            <AltitudeMeters>284.399993896484375</AltitudeMeters>
            <DistanceMeters>64673.556412074</DistanceMeters>
          </Trackpoint>
          <Trackpoint>
            <Time>2021-10-09T09:50:21.000Z</Time>
            <Position>
              <LatitudeDegrees>39.46759848855435848236083984375</LatitudeDegrees>
              <LongitudeDegrees>-0.70895385928452014923095703125</LongitudeDegrees>
            </Position>
            <AltitudeMeters>283</AltitudeMeters>
            <DistanceMeters>64688.476514101</DistanceMeters>
          </Trackpoint>
          <Trackpoint>
            <Time>2021-10-09T09:50:23.000Z</Time>
            <Position>
              <LatitudeDegrees>39.4677467644214630126953125</LatitudeDegrees>
              <LongitudeDegrees>-0.708670131862163543701171875</LongitudeDegrees>
            </Position>
            <AltitudeMeters>281.79998779296875</AltitudeMeters>
            <DistanceMeters>64717.916090812</DistanceMeters>
          </Trackpoint>
          <Trackpoint>
            <Time>2021-10-09T09:50:24.000Z</Time>
            <Position>
              <LatitudeDegrees>39.4678218662738800048828125</LatitudeDegrees>
              <LongitudeDegrees>-0.708531327545642852783203125</LongitudeDegrees>
            </Position>
            <AltitudeMeters>281</AltitudeMeters>
            <DistanceMeters>64732.480310519</DistanceMeters>
          </Trackpoint>
          <Trackpoint>
            <Time>2021-10-09T09:50:25.000Z</Time>
            <Position>
              <LatitudeDegrees>39.46789520792663097381591796875</LatitudeDegrees>
              <LongitudeDegrees>-0.70839277468621730804443359375</LongitudeDegrees>
            </Position>
            <AltitudeMeters>279.20001220703125</AltitudeMeters>
            <DistanceMeters>64746.914990421</DistanceMeters>
          </Trackpoint>
          <Trackpoint>
            <Time>2021-10-09T09:50:27.000Z</Time>
            <Position>
              <LatitudeDegrees>39.46803954429924488067626953125</LatitudeDegrees>
              <LongitudeDegrees>-0.7081211172044277191162109375</LongitudeDegrees>
            </Position>
            <AltitudeMeters>278</AltitudeMeters>
            <DistanceMeters>64775.250643704</DistanceMeters>
          </Trackpoint>
          <Trackpoint>
            <Time>2021-10-09T09:50:29.000Z</Time>
            <Position>
              <LatitudeDegrees>39.4681734032928943634033203125</LatitudeDegrees>
              <LongitudeDegrees>-0.7078673131763935089111328125</LongitudeDegrees>
            </Position>
            <AltitudeMeters>277</AltitudeMeters>
            <DistanceMeters>64801.661574869</DistanceMeters>
          </Trackpoint>
          <Trackpoint>
            <Time>2021-10-09T09:50:30.000Z</Time>
            <Position>
              <LatitudeDegrees>39.46823115460574626922607421875</LatitudeDegrees>
              <LongitudeDegrees>-0.70775323547422885894775390625</LongitudeDegrees>
            </Position>
            <AltitudeMeters>276.20001220703125</AltitudeMeters>
            <DistanceMeters>64813.383034381</DistanceMeters>
          </Trackpoint>
          <Trackpoint>
            <Time>2021-10-09T09:50:31.000Z</Time>
            <Position>
              <LatitudeDegrees>39.46827976964414119720458984375</LatitudeDegrees>
              <LongitudeDegrees>-0.707648210227489471435546875</LongitudeDegrees>
            </Position>
            <AltitudeMeters>275.79998779296875</AltitudeMeters>
            <DistanceMeters>64823.905285437</DistanceMeters>
          </Trackpoint>
          <Trackpoint>
            <Time>2021-10-09T09:50:32.000Z</Time>
            <Position>
              <LatitudeDegrees>39.468316398561000823974609375</LatitudeDegrees>
              <LongitudeDegrees>-0.7075466215610504150390625</LongitudeDegrees>
            </Position>
            <AltitudeMeters>274.600006103515625</AltitudeMeters>
            <DistanceMeters>64833.539138544</DistanceMeters>
          </Trackpoint>
          <Trackpoint>
            <Time>2021-10-09T09:50:33.000Z</Time>
            <Position>
              <LatitudeDegrees>39.46833911351859569549560546875</LatitudeDegrees>
              <LongitudeDegrees>-0.70744276978075504302978515625</LongitudeDegrees>
            </Position>
            <AltitudeMeters>274.20001220703125</AltitudeMeters>
            <DistanceMeters>64842.813862702</DistanceMeters>
          </Trackpoint>
          <Trackpoint>
            <Time>2021-10-09T09:50:34.000Z</Time>
            <Position>
              <LatitudeDegrees>39.4683507643640041351318359375</LatitudeDegrees>
              <LongitudeDegrees>-0.70733078755438327789306640625</LongitudeDegrees>
            </Position>
            <AltitudeMeters>273.399993896484375</AltitudeMeters>
            <DistanceMeters>64852.522412435</DistanceMeters>
          </Trackpoint>
          <Trackpoint>
            <Time>2021-10-09T09:50:36.000Z</Time>
            <Position>
              <LatitudeDegrees>39.468349926173686981201171875</LatitudeDegrees>
              <LongitudeDegrees>-0.70709223859012126922607421875</LongitudeDegrees>
            </Position>
            <AltitudeMeters>272.399993896484375</AltitudeMeters>
            <DistanceMeters>64873.019346512</DistanceMeters>
          </Trackpoint>
          <Trackpoint>
            <Time>2021-10-09T09:50:37.000Z</Time>
            <Position>
              <LatitudeDegrees>39.46833559311926364898681640625</LatitudeDegrees>
              <LongitudeDegrees>-0.70697053335607051849365234375</LongitudeDegrees>
            </Position>
            <AltitudeMeters>272</AltitudeMeters>
            <DistanceMeters>64883.597659577</DistanceMeters>
          </Trackpoint>
          <Trackpoint>
            <Time>2021-10-09T09:50:38.000Z</Time>
            <Position>
              <LatitudeDegrees>39.4683068431913852691650390625</LatitudeDegrees>
              <LongitudeDegrees>-0.70685653947293758392333984375</LongitudeDegrees>
            </Position>
            <AltitudeMeters>271.600006103515625</AltitudeMeters>
            <DistanceMeters>64893.901815963</DistanceMeters>
          </Trackpoint>
          <Trackpoint>
            <Time>2021-10-09T09:50:39.000Z</Time>
            <Position>
              <LatitudeDegrees>39.46825982071459293365478515625</LatitudeDegrees>
              <LongitudeDegrees>-0.706748999655246734619140625</LongitudeDegrees>
            </Position>
            <AltitudeMeters>271.20001220703125</AltitudeMeters>
            <DistanceMeters>64904.52102472</DistanceMeters>
          </Trackpoint>
          <Trackpoint>
            <Time>2021-10-09T09:50:40.000Z</Time>
            <Position>
              <LatitudeDegrees>39.46820248849689960479736328125</LatitudeDegrees>
              <LongitudeDegrees>-0.70664917118847370147705078125</LongitudeDegrees>
            </Position>
            <AltitudeMeters>271.20001220703125</AltitudeMeters>
            <DistanceMeters>64915.212269158</DistanceMeters>
          </Trackpoint>
          <Trackpoint>
            <Time>2021-10-09T09:50:42.000Z</Time>
            <Position>
              <LatitudeDegrees>39.4680758379399776458740234375</LatitudeDegrees>
              <LongitudeDegrees>-0.7064678706228733062744140625</LongitudeDegrees>
            </Position>
            <AltitudeMeters>270</AltitudeMeters>
            <DistanceMeters>64936.221126253</DistanceMeters>
          </Trackpoint>
          <Trackpoint>
            <Time>2021-10-09T09:50:47.000Z</Time>
            <Position>
              <LatitudeDegrees>39.46777299977838993072509765625</LatitudeDegrees>
              <LongitudeDegrees>-0.706038214266300201416015625</LongitudeDegrees>
            </Position>
            <AltitudeMeters>269</AltitudeMeters>
            <DistanceMeters>64986.211320045</DistanceMeters>
          </Trackpoint>
          <Trackpoint>
            <Time>2021-10-09T09:50:48.000Z</Time>
            <Position>
              <LatitudeDegrees>39.46771600283682346343994140625</LatitudeDegrees>
              <LongitudeDegrees>-0.7059548981487751007080078125</LongitudeDegrees>
            </Position>
            <AltitudeMeters>268.600006103515625</AltitudeMeters>
            <DistanceMeters>64995.7765035</DistanceMeters>
          </Trackpoint>
          <Trackpoint>
            <Time>2021-10-09T09:50:54.000Z</Time>
            <Position>
              <LatitudeDegrees>39.46737418882548809051513671875</LatitudeDegrees>
              <LongitudeDegrees>-0.70548073388636112213134765625</LongitudeDegrees>
            </Position>
            <AltitudeMeters>268.20001220703125</AltitudeMeters>
            <DistanceMeters>65051.51953378</DistanceMeters>
          </Trackpoint>
          <Trackpoint>
            <Time>2021-10-09T09:50:56.000Z</Time>
            <Position>
              <LatitudeDegrees>39.46725659072399139404296875</LatitudeDegrees>
              <LongitudeDegrees>-0.70533975027501583099365234375</LongitudeDegrees>
            </Position>
            <AltitudeMeters>268.20001220703125</AltitudeMeters>
            <DistanceMeters>65069.353949458</DistanceMeters>
          </Trackpoint>
          <Trackpoint>
            <Time>2021-10-09T09:51:01.000Z</Time>
            <Position>
              <LatitudeDegrees>39.46698225103318691253662109375</LatitudeDegrees>
              <LongitudeDegrees>-0.70503263734281063079833984375</LongitudeDegrees>
            </Position>
            <AltitudeMeters>268.399993896484375</AltitudeMeters>
            <DistanceMeters>65109.711225602</DistanceMeters>
          </Trackpoint>
          <Trackpoint>
            <Time>2021-10-09T09:51:07.000Z</Time>
            <Position>
              <LatitudeDegrees>39.4666576199233531951904296875</LatitudeDegrees>
              <LongitudeDegrees>-0.70463902316987514495849609375</LongitudeDegrees>
            </Position>
            <AltitudeMeters>268.600006103515625</AltitudeMeters>
            <DistanceMeters>65159.202539742</DistanceMeters>
          </Trackpoint>
          <Trackpoint>
            <Time>2021-10-09T09:51:14.000Z</Time>
            <Position>
              <LatitudeDegrees>39.46628688834607601165771484375</LatitudeDegrees>
              <LongitudeDegrees>-0.70422931574285030364990234375</LongitudeDegrees>
            </Position>
            <AltitudeMeters>269.399993896484375</AltitudeMeters>
            <DistanceMeters>65213.442486417</DistanceMeters>
          </Trackpoint>
          <Trackpoint>
            <Time>2021-10-09T09:51:19.000Z</Time>
            <Position>
              <LatitudeDegrees>39.466011039912700653076171875</LatitudeDegrees>
              <LongitudeDegrees>-0.70400417782366275787353515625</LongitudeDegrees>
            </Position>
            <AltitudeMeters>269.79998779296875</AltitudeMeters>
            <DistanceMeters>65249.731246494</DistanceMeters>
          </Trackpoint>
          <Trackpoint>
            <Time>2021-10-09T09:51:20.000Z</Time>
            <Position>
              <LatitudeDegrees>39.46595479734241962432861328125</LatitudeDegrees>
              <LongitudeDegrees>-0.703967548906803131103515625</LongitudeDegrees>
            </Position>
            <AltitudeMeters>269.79998779296875</AltitudeMeters>
            <DistanceMeters>65256.737493389</DistanceMeters>
          </Trackpoint>
          <Trackpoint>
            <Time>2021-10-09T09:51:21.000Z</Time>
            <Position>
              <LatitudeDegrees>39.46589805185794830322265625</LatitudeDegrees>
              <LongitudeDegrees>-0.70393309928476810455322265625</LongitudeDegrees>
            </Position>
            <AltitudeMeters>270</AltitudeMeters>
            <DistanceMeters>65263.712739039</DistanceMeters>
          </Trackpoint>
          <Trackpoint>
            <Time>2021-10-09T09:51:26.000Z</Time>
            <Position>
              <LatitudeDegrees>39.46562069468200206756591796875</LatitudeDegrees>
              <LongitudeDegrees>-0.70378951728343963623046875</LongitudeDegrees>
            </Position>
            <AltitudeMeters>271</AltitudeMeters>
            <DistanceMeters>65296.957152945</DistanceMeters>
          </Trackpoint>
          <Trackpoint>
            <Time>2021-10-09T09:51:28.000Z</Time>
            <Position>
              <LatitudeDegrees>39.46550569497048854827880859375</LatitudeDegrees>
              <LongitudeDegrees>-0.70373662747442722320556640625</LongitudeDegrees>
            </Position>
            <AltitudeMeters>271.399993896484375</AltitudeMeters>
            <DistanceMeters>65310.53965867</DistanceMeters>
          </Trackpoint>
          <Trackpoint>
            <Time>2021-10-09T09:51:34.000Z</Time>
            <Position>
              <LatitudeDegrees>39.46512498892843723297119140625</LatitudeDegrees>
              <LongitudeDegrees>-0.70366613566875457763671875</LongitudeDegrees>
            </Position>
            <AltitudeMeters>271.600006103515625</AltitudeMeters>
            <DistanceMeters>65353.343682433</DistanceMeters>
          </Trackpoint>
          <Trackpoint>
            <Time>2021-10-09T09:51:41.000Z</Time>
            <Position>
              <LatitudeDegrees>39.46461754851043224334716796875</LatitudeDegrees>
              <LongitudeDegrees>-0.70364694111049175262451171875</LongitudeDegrees>
            </Position>
            <AltitudeMeters>271</AltitudeMeters>
            <DistanceMeters>65409.846873644</DistanceMeters>
          </Trackpoint>
          <Trackpoint>
            <Time>2021-10-09T09:51:44.000Z</Time>
            <Position>
              <LatitudeDegrees>39.464393667876720428466796875</LatitudeDegrees>
              <LongitudeDegrees>-0.70362028665840625762939453125</LongitudeDegrees>
            </Position>
            <AltitudeMeters>270.79998779296875</AltitudeMeters>
            <DistanceMeters>65434.870134039</DistanceMeters>
          </Trackpoint>
          <Trackpoint>
            <Time>2021-10-09T09:51:46.000Z</Time>
            <Position>
              <LatitudeDegrees>39.4642479903995990753173828125</LatitudeDegrees>
              <LongitudeDegrees>-0.703566558659076690673828125</LongitudeDegrees>
            </Position>
            <AltitudeMeters>270.600006103515625</AltitudeMeters>
            <DistanceMeters>65451.72874092</DistanceMeters>
          </Trackpoint>
          <Trackpoint>
            <Time>2021-10-09T09:51:49.000Z</Time>
            <Position>
              <LatitudeDegrees>39.46404288522899150848388671875</LatitudeDegrees>
              <LongitudeDegrees>-0.70344829000532627105712890625</LongitudeDegrees>
            </Position>
            <AltitudeMeters>270.399993896484375</AltitudeMeters>
            <DistanceMeters>65476.71733404</DistanceMeters>
          </Trackpoint>
          <Trackpoint>
            <Time>2021-10-09T09:51:51.000Z</Time>
            <Position>
              <LatitudeDegrees>39.46392235346138477325439453125</LatitudeDegrees>
              <LongitudeDegrees>-0.70333354175090789794921875</LongitudeDegrees>
            </Position>
            <AltitudeMeters>270.20001220703125</AltitudeMeters>
            <DistanceMeters>65493.366545931</DistanceMeters>
          </Trackpoint>
          <Trackpoint>
            <Time>2021-10-09T09:51:52.000Z</Time>
            <Position>
              <LatitudeDegrees>39.46386921219527721405029296875</LatitudeDegrees>
              <LongitudeDegrees>-0.70326690562069416046142578125</LongitudeDegrees>
            </Position>
            <AltitudeMeters>270.20001220703125</AltitudeMeters>
            <DistanceMeters>65501.599391963</DistanceMeters>
          </Trackpoint>
          <Trackpoint>
            <Time>2021-10-09T09:51:54.000Z</Time>
            <Position>
              <LatitudeDegrees>39.46378002874553203582763671875</LatitudeDegrees>
              <LongitudeDegrees>-0.70311200805008411407470703125</LongitudeDegrees>
            </Position>
            <AltitudeMeters>270</AltitudeMeters>
            <DistanceMeters>65518.203253979</DistanceMeters>
          </Trackpoint>
          <Trackpoint>
            <Time>2021-10-09T09:51:55.000Z</Time>
            <Position>
              <LatitudeDegrees>39.46374465711414813995361328125</LatitudeDegrees>
              <LongitudeDegrees>-0.70302684791386127471923828125</LongitudeDegrees>
            </Position>
            <AltitudeMeters>270</AltitudeMeters>
            <DistanceMeters>65526.512523772</DistanceMeters>
          </Trackpoint>
          <Trackpoint>
            <Time>2021-10-09T09:51:56.000Z</Time>
            <Position>
              <LatitudeDegrees>39.4637095369398593902587890625</LatitudeDegrees>
              <LongitudeDegrees>-0.70293850265443325042724609375</LongitudeDegrees>
            </Position>
            <AltitudeMeters>269.79998779296875</AltitudeMeters>
            <DistanceMeters>65535.051190952</DistanceMeters>
          </Trackpoint>
          <Trackpoint>
            <Time>2021-10-09T09:52:01.000Z</Time>
            <Position>
              <LatitudeDegrees>39.4635583274066448211669921875</LatitudeDegrees>
              <LongitudeDegrees>-0.70247313939034938812255859375</LongitudeDegrees>
            </Position>
            <AltitudeMeters>269.600006103515625</AltitudeMeters>
            <DistanceMeters>65578.436271962</DistanceMeters>
          </Trackpoint>
          <Trackpoint>
            <Time>2021-10-09T09:52:03.000Z</Time>
            <Position>
              <LatitudeDegrees>39.4635030068457126617431640625</LatitudeDegrees>
              <LongitudeDegrees>-0.70228521712124347686767578125</LongitudeDegrees>
            </Position>
            <AltitudeMeters>269.600006103515625</AltitudeMeters>
            <DistanceMeters>65595.718075928</DistanceMeters>
          </Trackpoint>
          <Trackpoint>
            <Time>2021-10-09T09:52:11.000Z</Time>
            <Position>
              <LatitudeDegrees>39.46327510289847850799560546875</LatitudeDegrees>
              <LongitudeDegrees>-0.7015691511332988739013671875</LongitudeDegrees>
            </Position>
            <AltitudeMeters>269.20001220703125</AltitudeMeters>
            <DistanceMeters>65662.272062265</DistanceMeters>
          </Trackpoint>
          <Trackpoint>
            <Time>2021-10-09T09:52:17.000Z</Time>
            <Position>
              <LatitudeDegrees>39.46311718784272670745849609375</LatitudeDegrees>
              <LongitudeDegrees>-0.7010913826525211334228515625</LongitudeDegrees>
            </Position>
            <AltitudeMeters>269.79998779296875</AltitudeMeters>
            <DistanceMeters>65706.930169738</DistanceMeters>
          </Trackpoint>
          <Trackpoint>
            <Time>2021-10-09T09:52:22.000Z</Time>
            <Position>
              <LatitudeDegrees>39.462994895875453948974609375</LatitudeDegrees>
              <LongitudeDegrees>-0.7007128559052944183349609375</LongitudeDegrees>
            </Position>
            <AltitudeMeters>271</AltitudeMeters>
            <DistanceMeters>65742.189690929</DistanceMeters>
          </Trackpoint>
          <Trackpoint>
            <Time>2021-10-09T09:52:25.000Z</Time>
            <Position>
              <LatitudeDegrees>39.4629246555268764495849609375</LatitudeDegrees>
              <LongitudeDegrees>-0.70049165748059749603271484375</LongitudeDegrees>
            </Position>
            <AltitudeMeters>271.20001220703125</AltitudeMeters>
            <DistanceMeters>65762.74227996</DistanceMeters>
          </Trackpoint>
          <Trackpoint>
            <Time>2021-10-09T09:52:33.000Z</Time>
            <Position>
              <LatitudeDegrees>39.4627229869365692138671875</LatitudeDegrees>
              <LongitudeDegrees>-0.6998498551547527313232421875</LongitudeDegrees>
            </Position>
            <AltitudeMeters>271.399993896484375</AltitudeMeters>
            <DistanceMeters>65822.284687643</DistanceMeters>
          </Trackpoint>
          <Trackpoint>
            <Time>2021-10-09T09:52:34.000Z</Time>
            <Position>
              <LatitudeDegrees>39.46269557811319828033447265625</LatitudeDegrees>
              <LongitudeDegrees>-0.69976779632270336151123046875</LongitudeDegrees>
            </Position>
            <AltitudeMeters>271.399993896484375</AltitudeMeters>
            <DistanceMeters>65829.967172895</DistanceMeters>
          </Trackpoint>
          <Trackpoint>
            <Time>2021-10-09T09:52:40.000Z</Time>
            <Position>
              <LatitudeDegrees>39.46250782348215579986572265625</LatitudeDegrees>
              <LongitudeDegrees>-0.6993167661130428314208984375</LongitudeDegrees>
            </Position>
            <AltitudeMeters>271</AltitudeMeters>
            <DistanceMeters>65873.998906143</DistanceMeters>
          </Trackpoint>
          <Trackpoint>
            <Time>2021-10-09T09:52:41.000Z</Time>
            <Position>
              <LatitudeDegrees>39.46248686872422695159912109375</LatitudeDegrees>
              <LongitudeDegrees>-0.69920738227665424346923828125</LongitudeDegrees>
            </Position>
            <AltitudeMeters>270.79998779296875</AltitudeMeters>
            <DistanceMeters>65883.683708878</DistanceMeters>
          </Trackpoint>
          <Trackpoint>
            <Time>2021-10-09T09:52:48.000Z</Time>
            <Position>
              <LatitudeDegrees>39.462272711098194122314453125</LatitudeDegrees>
              <LongitudeDegrees>-0.69857873953878879547119140625</LongitudeDegrees>
            </Position>
            <AltitudeMeters>270.20001220703125</AltitudeMeters>
            <DistanceMeters>65942.728036147</DistanceMeters>
          </Trackpoint>
          <Trackpoint>
            <Time>2021-10-09T09:52:50.000Z</Time>
            <Position>
              <LatitudeDegrees>39.462188221514225006103515625</LatitudeDegrees>
              <LongitudeDegrees>-0.69841110147535800933837890625</LongitudeDegrees>
            </Position>
            <AltitudeMeters>269.79998779296875</AltitudeMeters>
            <DistanceMeters>65959.930758758</DistanceMeters>
          </Trackpoint>
          <Trackpoint>
            <Time>2021-10-09T09:52:55.000Z</Time>
            <Position>
              <LatitudeDegrees>39.4619533605873584747314453125</LatitudeDegrees>
              <LongitudeDegrees>-0.6980323232710361480712890625</LongitudeDegrees>
            </Position>
            <AltitudeMeters>269.399993896484375</AltitudeMeters>
            <DistanceMeters>66001.676806632</DistanceMeters>
          </Trackpoint>
          <Trackpoint>
            <Time>2021-10-09T09:53:03.000Z</Time>
            <Position>
              <LatitudeDegrees>39.4615842215716838836669921875</LatitudeDegrees>
              <LongitudeDegrees>-0.69746277295053005218505859375</LongitudeDegrees>
            </Position>
            <AltitudeMeters>269.399993896484375</AltitudeMeters>
            <DistanceMeters>66065.577944475</DistanceMeters>
          </Trackpoint>
          <Trackpoint>
            <Time>2021-10-09T09:53:04.000Z</Time>
            <Position>
              <LatitudeDegrees>39.4615374505519866943359375</LatitudeDegrees>
              <LongitudeDegrees>-0.6973895989358425140380859375</LongitudeDegrees>
            </Position>
            <AltitudeMeters>269.399993896484375</AltitudeMeters>
            <DistanceMeters>66073.74139743</DistanceMeters>
          </Trackpoint>
          <Trackpoint>
            <Time>2021-10-09T09:53:12.000Z</Time>
            <Position>
              <LatitudeDegrees>39.46116554550826549530029296875</LatitudeDegrees>
              <LongitudeDegrees>-0.6968115828931331634521484375</LongitudeDegrees>
            </Position>
            <AltitudeMeters>269.600006103515625</AltitudeMeters>
            <DistanceMeters>66138.398191195</DistanceMeters>
          </Trackpoint>
          <Trackpoint>
            <Time>2021-10-09T09:53:15.000Z</Time>
            <Position>
              <LatitudeDegrees>39.46102422662079334259033203125</LatitudeDegrees>
              <LongitudeDegrees>-0.69661620073020458221435546875</LongitudeDegrees>
            </Position>
            <AltitudeMeters>269.79998779296875</AltitudeMeters>
            <DistanceMeters>66161.404470788</DistanceMeters>
          </Trackpoint>
          <Trackpoint>
            <Time>2021-10-09T09:53:17.000Z</Time>
            <Position>
              <LatitudeDegrees>39.4609151780605316162109375</LatitudeDegrees>
              <LongitudeDegrees>-0.69651410914957523345947265625</LongitudeDegrees>
            </Position>
            <AltitudeMeters>269.79998779296875</AltitudeMeters>
            <DistanceMeters>66176.380150357</DistanceMeters>
          </Trackpoint>
          <Trackpoint>
            <Time>2021-10-09T09:53:18.000Z</Time>
            <Position>
              <LatitudeDegrees>39.46085575036704540252685546875</LatitudeDegrees>
              <LongitudeDegrees>-0.69647890515625476837158203125</LongitudeDegrees>
            </Position>
            <AltitudeMeters>269.79998779296875</AltitudeMeters>
            <DistanceMeters>66183.653264395</DistanceMeters>
          </Trackpoint>
          <Trackpoint>
            <Time>2021-10-09T09:53:20.000Z</Time>
            <Position>
              <LatitudeDegrees>39.46073689498007297515869140625</LatitudeDegrees>
              <LongitudeDegrees>-0.69639709778130054473876953125</LongitudeDegrees>
            </Position>
            <AltitudeMeters>270</AltitudeMeters>
            <DistanceMeters>66198.63376705</DistanceMeters>
          </Trackpoint>
          <Trackpoint>
            <Time>2021-10-09T09:53:22.000Z</Time>
            <Position>
              <LatitudeDegrees>39.46065709926187992095947265625</LatitudeDegrees>
              <LongitudeDegrees>-0.69626332260668277740478515625</LongitudeDegrees>
            </Position>
            <AltitudeMeters>270</AltitudeMeters>
            <DistanceMeters>66213.160116431</DistanceMeters>
          </Trackpoint>
          <Trackpoint>
            <Time>2021-10-09T09:53:24.000Z</Time>
            <Position>
              <LatitudeDegrees>39.46065743453800678253173828125</LatitudeDegrees>
              <LongitudeDegrees>-0.6960991211235523223876953125</LongitudeDegrees>
            </Position>
            <AltitudeMeters>270.20001220703125</AltitudeMeters>
            <DistanceMeters>66227.270223639</DistanceMeters>
          </Trackpoint>
          <Trackpoint>
            <Time>2021-10-09T09:53:25.000Z</Time>
            <Position>
              <LatitudeDegrees>39.4606809876859188079833984375</LatitudeDegrees>
              <LongitudeDegrees>-0.69602259434759616851806640625</LongitudeDegrees>
            </Position>
            <AltitudeMeters>270.20001220703125</AltitudeMeters>
            <DistanceMeters>66234.349554417</DistanceMeters>
          </Trackpoint>
          <Trackpoint>
            <Time>2021-10-09T09:53:26.000Z</Time>
            <Position>
              <LatitudeDegrees>39.46071468293666839599609375</LatitudeDegrees>
              <LongitudeDegrees>-0.69594967179000377655029296875</LongitudeDegrees>
            </Position>
            <AltitudeMeters>270.20001220703125</AltitudeMeters>
            <DistanceMeters>66241.652405332</DistanceMeters>
          </Trackpoint>
          <Trackpoint>
            <Time>2021-10-09T09:53:28.000Z</Time>
            <Position>
              <LatitudeDegrees>39.460783414542675018310546875</LatitudeDegrees>
              <LongitudeDegrees>-0.69580382667481899261474609375</LongitudeDegrees>
            </Position>
            <AltitudeMeters>270.399993896484375</AltitudeMeters>
            <DistanceMeters>66256.335493396</DistanceMeters>
          </Trackpoint>
          <Trackpoint>
            <Time>2021-10-09T09:53:30.000Z</Time>
            <Position>
              <LatitudeDegrees>39.46082171984016895294189453125</LatitudeDegrees>
              <LongitudeDegrees>-0.6956424750387668609619140625</LongitudeDegrees>
            </Position>
            <AltitudeMeters>270.600006103515625</AltitudeMeters>
            <DistanceMeters>66270.841314341</DistanceMeters>
          </Trackpoint>
          <Trackpoint>
            <Time>2021-10-09T09:53:31.000Z</Time>
            <Position>
              <LatitudeDegrees>39.46083177812397480010986328125</LatitudeDegrees>
              <LongitudeDegrees>-0.695561505854129791259765625</LongitudeDegrees>
            </Position>
            <AltitudeMeters>270.600006103515625</AltitudeMeters>
            <DistanceMeters>66277.888684094</DistanceMeters>
          </Trackpoint>
          <Trackpoint>
            <Time>2021-10-09T09:53:36.000Z</Time>
            <Position>
              <LatitudeDegrees>39.460854493081569671630859375</LatitudeDegrees>
              <LongitudeDegrees>-0.695160515606403350830078125</LongitudeDegrees>
            </Position>
            <AltitudeMeters>271</AltitudeMeters>
            <DistanceMeters>66312.439095894</DistanceMeters>
          </Trackpoint>
          <Trackpoint>
            <Time>2021-10-09T09:53:44.000Z</Time>
            <Position>
              <LatitudeDegrees>39.46086966432631015777587890625</LatitudeDegrees>
              <LongitudeDegrees>-0.6945233233273029327392578125</LongitudeDegrees>
            </Position>
            <AltitudeMeters>272</AltitudeMeters>
            <DistanceMeters>66367.220080501</DistanceMeters>
          </Trackpoint>
          <Trackpoint>
            <Time>2021-10-09T09:53:45.000Z</Time>
            <Position>
              <LatitudeDegrees>39.4608566723763942718505859375</LatitudeDegrees>
              <LongitudeDegrees>-0.694442689418792724609375</LongitudeDegrees>
            </Position>
            <AltitudeMeters>272</AltitudeMeters>
            <DistanceMeters>66374.298135609</DistanceMeters>
          </Trackpoint>
          <Trackpoint>
            <Time>2021-10-09T09:53:47.000Z</Time>
            <Position>
              <LatitudeDegrees>39.46080009452998638153076171875</LatitudeDegrees>
              <LongitudeDegrees>-0.69429290480911731719970703125</LongitudeDegrees>
            </Position>
            <AltitudeMeters>272</AltitudeMeters>
            <DistanceMeters>66388.627332313</DistanceMeters>
          </Trackpoint>
          <Trackpoint>
            <Time>2021-10-09T09:53:49.000Z</Time>
            <Position>
              <LatitudeDegrees>39.46073253639042377471923828125</LatitudeDegrees>
              <LongitudeDegrees>-0.6941489875316619873046875</LongitudeDegrees>
            </Position>
            <AltitudeMeters>271.79998779296875</AltitudeMeters>
            <DistanceMeters>66403.101370226</DistanceMeters>
          </Trackpoint>
          <Trackpoint>
            <Time>2021-10-09T09:53:51.000Z</Time>
            <Position>
              <LatitudeDegrees>39.46071191690862178802490234375</LatitudeDegrees>
              <LongitudeDegrees>-0.69397573359310626983642578125</LongitudeDegrees>
            </Position>
            <AltitudeMeters>271.79998779296875</AltitudeMeters>
            <DistanceMeters>66418.165427483</DistanceMeters>
          </Trackpoint>
          <Trackpoint>
            <Time>2021-10-09T09:53:54.000Z</Time>
            <Position>
              <LatitudeDegrees>39.46074376814067363739013671875</LatitudeDegrees>
              <LongitudeDegrees>-0.693713128566741943359375</LongitudeDegrees>
            </Position>
            <AltitudeMeters>271.79998779296875</AltitudeMeters>
            <DistanceMeters>66441.008236794</DistanceMeters>
          </Trackpoint>
          <Trackpoint>
            <Time>2021-10-09T09:53:55.000Z</Time>
            <Position>
              <LatitudeDegrees>39.4607302732765674591064453125</LatitudeDegrees>
              <LongitudeDegrees>-0.69362436421215534210205078125</LongitudeDegrees>
            </Position>
            <AltitudeMeters>271.79998779296875</AltitudeMeters>
            <DistanceMeters>66448.782444255</DistanceMeters>
          </Trackpoint>
          <Trackpoint>
            <Time>2021-10-09T09:53:56.000Z</Time>
            <Position>
              <LatitudeDegrees>39.4606950692832469940185546875</LatitudeDegrees>
              <LongitudeDegrees>-0.693544484674930572509765625</LongitudeDegrees>
            </Position>
            <AltitudeMeters>271.600006103515625</AltitudeMeters>
            <DistanceMeters>66456.687387581</DistanceMeters>
          </Trackpoint>
          <Trackpoint>
            <Time>2021-10-09T09:53:58.000Z</Time>
            <Position>
              <LatitudeDegrees>39.46058166213333606719970703125</LatitudeDegrees>
              <LongitudeDegrees>-0.6934363581240177154541015625</LongitudeDegrees>
            </Position>
            <AltitudeMeters>271.600006103515625</AltitudeMeters>
            <DistanceMeters>66472.361323262</DistanceMeters>
          </Trackpoint>
          <Trackpoint>
            <Time>2021-10-09T09:54:00.000Z</Time>
            <Position>
              <LatitudeDegrees>39.4604419358074665069580078125</LatitudeDegrees>
              <LongitudeDegrees>-0.69337273947894573211669921875</LongitudeDegrees>
            </Position>
            <AltitudeMeters>271.600006103515625</AltitudeMeters>
            <DistanceMeters>66488.845650981</DistanceMeters>
          </Trackpoint>
          <Trackpoint>
            <Time>2021-10-09T09:54:02.000Z</Time>
            <Position>
              <LatitudeDegrees>39.4602927379310131072998046875</LatitudeDegrees>
              <LongitudeDegrees>-0.6933568976819515228271484375</LongitudeDegrees>
            </Position>
            <AltitudeMeters>271.399993896484375</AltitudeMeters>
            <DistanceMeters>66505.507061787</DistanceMeters>
          </Trackpoint>
          <Trackpoint>
            <Time>2021-10-09T09:54:10.000Z</Time>
            <Position>
              <LatitudeDegrees>39.45968463085591793060302734375</LatitudeDegrees>
              <LongitudeDegrees>-0.69330283440649509429931640625</LongitudeDegrees>
            </Position>
            <AltitudeMeters>271.20001220703125</AltitudeMeters>
            <DistanceMeters>66573.349747196</DistanceMeters>
          </Trackpoint>
          <Trackpoint>
            <Time>2021-10-09T09:54:15.000Z</Time>
            <Position>
              <LatitudeDegrees>39.459233768284320831298828125</LatitudeDegrees>
              <LongitudeDegrees>-0.69325706921517848968505859375</LongitudeDegrees>
            </Position>
            <AltitudeMeters>270.600006103515625</AltitudeMeters>
            <DistanceMeters>66623.685569122</DistanceMeters>
          </Trackpoint>
          <Trackpoint>
            <Time>2021-10-09T09:54:16.000Z</Time>
            <Position>
              <LatitudeDegrees>39.45913762785494327545166015625</LatitudeDegrees>
              <LongitudeDegrees>-0.6932321749627590179443359375</LongitudeDegrees>
            </Position>
            <AltitudeMeters>270.399993896484375</AltitudeMeters>
            <DistanceMeters>66634.597929915</DistanceMeters>
          </Trackpoint>
          <Trackpoint>
            <Time>2021-10-09T09:54:17.000Z</Time>
            <Position>
              <LatitudeDegrees>39.45904240943491458892822265625</LatitudeDegrees>
              <LongitudeDegrees>-0.69319747388362884521484375</LongitudeDegrees>
            </Position>
            <AltitudeMeters>270.20001220703125</AltitudeMeters>
            <DistanceMeters>66645.607503753</DistanceMeters>
          </Trackpoint>
          <Trackpoint>
            <Time>2021-10-09T09:54:19.000Z</Time>
            <Position>
              <LatitudeDegrees>39.45885532535612583160400390625</LatitudeDegrees>
              <LongitudeDegrees>-0.69309630431234836578369140625</LongitudeDegrees>
            </Position>
            <AltitudeMeters>269.399993896484375</AltitudeMeters>
            <DistanceMeters>66668.172697095</DistanceMeters>
          </Trackpoint>
          <Trackpoint>
            <Time>2021-10-09T09:54:20.000Z</Time>
            <Position>
              <LatitudeDegrees>39.458763711154460906982421875</LatitudeDegrees>
              <LongitudeDegrees>-0.69303310476243495941162109375</LongitudeDegrees>
            </Position>
            <AltitudeMeters>268.79998779296875</AltitudeMeters>
            <DistanceMeters>66679.726163674</DistanceMeters>
          </Trackpoint>
          <Trackpoint>
            <Time>2021-10-09T09:54:21.000Z</Time>
            <Position>
              <LatitudeDegrees>39.45867528207600116729736328125</LatitudeDegrees>
              <LongitudeDegrees>-0.6929595954716205596923828125</LongitudeDegrees>
            </Position>
            <AltitudeMeters>268.600006103515625</AltitudeMeters>
            <DistanceMeters>66691.4217867</DistanceMeters>
          </Trackpoint>
          <Trackpoint>
            <Time>2021-10-09T09:54:22.000Z</Time>
            <Position>
              <LatitudeDegrees>39.45859045721590518951416015625</LatitudeDegrees>
              <LongitudeDegrees>-0.6928751058876514434814453125</LongitudeDegrees>
            </Position>
            <AltitudeMeters>268</AltitudeMeters>
            <DistanceMeters>66703.332012175</DistanceMeters>
          </Trackpoint>
          <Trackpoint>
            <Time>2021-10-09T09:54:24.000Z</Time>
            <Position>
              <LatitudeDegrees>39.45843807421624660491943359375</LatitudeDegrees>
              <LongitudeDegrees>-0.6926850043237209320068359375</LongitudeDegrees>
            </Position>
            <AltitudeMeters>267</AltitudeMeters>
            <DistanceMeters>66726.880621357</DistanceMeters>
          </Trackpoint>
          <Trackpoint>
            <Time>2021-10-09T09:54:25.000Z</Time>
            <Position>
              <LatitudeDegrees>39.458371102809906005859375</LatitudeDegrees>
              <LongitudeDegrees>-0.69257578812539577484130859375</LongitudeDegrees>
            </Position>
            <AltitudeMeters>266.399993896484375</AltitudeMeters>
            <DistanceMeters>66738.866048178</DistanceMeters>
          </Trackpoint>
          <Trackpoint>
            <Time>2021-10-09T09:54:28.000Z</Time>
            <Position>
              <LatitudeDegrees>39.45816733874380588531494140625</LatitudeDegrees>
              <LongitudeDegrees>-0.6922602094709873199462890625</LongitudeDegrees>
            </Position>
            <AltitudeMeters>265</AltitudeMeters>
            <DistanceMeters>66774.218540312</DistanceMeters>
          </Trackpoint>
          <Trackpoint>
            <Time>2021-10-09T09:54:29.000Z</Time>
            <Position>
              <LatitudeDegrees>39.45809894241392612457275390625</LatitudeDegrees>
              <LongitudeDegrees>-0.6921552680432796478271484375</LongitudeDegrees>
            </Position>
            <AltitudeMeters>263.79998779296875</AltitudeMeters>
            <DistanceMeters>66786.02023083</DistanceMeters>
          </Trackpoint>
          <Trackpoint>
            <Time>2021-10-09T09:54:31.000Z</Time>
            <Position>
              <LatitudeDegrees>39.4579647481441497802734375</LatitudeDegrees>
              <LongitudeDegrees>-0.69194622337818145751953125</LongitudeDegrees>
            </Position>
            <AltitudeMeters>262.600006103515625</AltitudeMeters>
            <DistanceMeters>66809.382892078</DistanceMeters>
          </Trackpoint>
          <Trackpoint>
            <Time>2021-10-09T09:54:32.000Z</Time>
            <Position>
              <LatitudeDegrees>39.45789660327136516571044921875</LatitudeDegrees>
              <LongitudeDegrees>-0.6918434612452983856201171875</LongitudeDegrees>
            </Position>
            <AltitudeMeters>262</AltitudeMeters>
            <DistanceMeters>66821.023955483</DistanceMeters>
          </Trackpoint>
          <Trackpoint>
            <Time>2021-10-09T09:54:34.000Z</Time>
            <Position>
              <LatitudeDegrees>39.45776182226836681365966796875</LatitudeDegrees>
              <LongitudeDegrees>-0.69163667969405651092529296875</LongitudeDegrees>
            </Position>
            <AltitudeMeters>261.600006103515625</AltitudeMeters>
            <DistanceMeters>66844.279110785</DistanceMeters>
          </Trackpoint>
          <Trackpoint>
            <Time>2021-10-09T09:54:39.000Z</Time>
            <Position>
              <LatitudeDegrees>39.45742771960794925689697265625</LatitudeDegrees>
              <LongitudeDegrees>-0.69112940691411495208740234375</LongitudeDegrees>
            </Position>
            <AltitudeMeters>260.399993896484375</AltitudeMeters>
            <DistanceMeters>66901.578013249</DistanceMeters>
          </Trackpoint>
          <Trackpoint>
            <Time>2021-10-09T09:54:41.000Z</Time>
            <Position>
              <LatitudeDegrees>39.45731288753449916839599609375</LatitudeDegrees>
              <LongitudeDegrees>-0.6909221224486827850341796875</LongitudeDegrees>
            </Position>
            <AltitudeMeters>259.79998779296875</AltitudeMeters>
            <DistanceMeters>66923.502016968</DistanceMeters>
          </Trackpoint>
          <Trackpoint>
            <Time>2021-10-09T09:54:42.000Z</Time>
            <Position>
              <LatitudeDegrees>39.4572702236473560333251953125</LatitudeDegrees>
              <LongitudeDegrees>-0.690814666450023651123046875</LongitudeDegrees>
            </Position>
            <AltitudeMeters>259.600006103515625</AltitudeMeters>
            <DistanceMeters>66933.88518039</DistanceMeters>
          </Trackpoint>
          <Trackpoint>
            <Time>2021-10-09T09:54:44.000Z</Time>
            <Position>
              <LatitudeDegrees>39.45721951313316822052001953125</LatitudeDegrees>
              <LongitudeDegrees>-0.69058709777891635894775390625</LongitudeDegrees>
            </Position>
            <AltitudeMeters>259.399993896484375</AltitudeMeters>
            <DistanceMeters>66954.239538824</DistanceMeters>
          </Trackpoint>
          <Trackpoint>
            <Time>2021-10-09T09:54:46.000Z</Time>
            <Position>
              <LatitudeDegrees>39.457194618880748748779296875</LatitudeDegrees>
              <LongitudeDegrees>-0.69035709835588932037353515625</LongitudeDegrees>
            </Position>
            <AltitudeMeters>259.20001220703125</AltitudeMeters>
            <DistanceMeters>66974.198089928</DistanceMeters>
          </Trackpoint>
          <Trackpoint>
            <Time>2021-10-09T09:54:50.000Z</Time>
            <Position>
              <LatitudeDegrees>39.45713385008275508880615234375</LatitudeDegrees>
              <LongitudeDegrees>-0.689889304339885711669921875</LongitudeDegrees>
            </Position>
            <AltitudeMeters>259.20001220703125</AltitudeMeters>
            <DistanceMeters>67014.963664353</DistanceMeters>
          </Trackpoint>
          <Trackpoint>
            <Time>2021-10-09T09:54:55.000Z</Time>
            <Position>
              <LatitudeDegrees>39.45702572353184223175048828125</LatitudeDegrees>
              <LongitudeDegrees>-0.68929226137697696685791015625</LongitudeDegrees>
            </Position>
            <AltitudeMeters>258.79998779296875</AltitudeMeters>
            <DistanceMeters>67067.663924328</DistanceMeters>
          </Trackpoint>
          <Trackpoint>
            <Time>2021-10-09T09:54:56.000Z</Time>
            <Position>
              <LatitudeDegrees>39.45697995834052562713623046875</LatitudeDegrees>
              <LongitudeDegrees>-0.68917541764676570892333984375</LongitudeDegrees>
            </Position>
            <AltitudeMeters>258.79998779296875</AltitudeMeters>
            <DistanceMeters>67078.922885786</DistanceMeters>
          </Trackpoint>
          <Trackpoint>
            <Time>2021-10-09T09:54:59.000Z</Time>
            <Position>
              <LatitudeDegrees>39.4567941315472126007080078125</LatitudeDegrees>
              <LongitudeDegrees>-0.688851960003376007080078125</LongitudeDegrees>
            </Position>
            <AltitudeMeters>257.79998779296875</AltitudeMeters>
            <DistanceMeters>67113.570386885</DistanceMeters>
          </Trackpoint>
          <Trackpoint>
            <Time>2021-10-09T09:55:00.000Z</Time>
            <Position>
              <LatitudeDegrees>39.4567223824560642242431640625</LatitudeDegrees>
              <LongitudeDegrees>-0.6887579150497913360595703125</LongitudeDegrees>
            </Position>
            <AltitudeMeters>257.20001220703125</AltitudeMeters>
            <DistanceMeters>67124.932339747</DistanceMeters>
          </Trackpoint>
          <Trackpoint>
            <Time>2021-10-09T09:55:01.000Z</Time>
            <Position>
              <LatitudeDegrees>39.4566499628126621246337890625</LatitudeDegrees>
              <LongitudeDegrees>-0.68866663612425327301025390625</LongitudeDegrees>
            </Position>
            <AltitudeMeters>256.399993896484375</AltitudeMeters>
            <DistanceMeters>67136.180067116</DistanceMeters>
          </Trackpoint>
          <Trackpoint>
            <Time>2021-10-09T09:55:02.000Z</Time>
            <Position>
              <LatitudeDegrees>39.45658408105373382568359375</LatitudeDegrees>
              <LongitudeDegrees>-0.688569657504558563232421875</LongitudeDegrees>
            </Position>
            <AltitudeMeters>256</AltitudeMeters>
            <DistanceMeters>67147.280716789</DistanceMeters>
          </Trackpoint>
          <Trackpoint>
            <Time>2021-10-09T09:55:04.000Z</Time>
            <Position>
              <LatitudeDegrees>39.45648676715791225433349609375</LatitudeDegrees>
              <LongitudeDegrees>-0.68835583515465259552001953125</LongitudeDegrees>
            </Position>
            <AltitudeMeters>255.1999969482421875</AltitudeMeters>
            <DistanceMeters>67168.610774725</DistanceMeters>
          </Trackpoint>
          <Trackpoint>
            <Time>2021-10-09T09:55:06.000Z</Time>
            <Position>
              <LatitudeDegrees>39.45643329061567783355712890625</LatitudeDegrees>
              <LongitudeDegrees>-0.68813287653028964996337890625</LongitudeDegrees>
            </Position>
            <AltitudeMeters>255</AltitudeMeters>
            <DistanceMeters>67188.67446775</DistanceMeters>
          </Trackpoint>
          <Trackpoint>
            <Time>2021-10-09T09:55:07.000Z</Time>
            <Position>
              <LatitudeDegrees>39.45642004720866680145263671875</LatitudeDegrees>
              <LongitudeDegrees>-0.688020475208759307861328125</LongitudeDegrees>
            </Position>
            <AltitudeMeters>255</AltitudeMeters>
            <DistanceMeters>67198.445598608</DistanceMeters>
          </Trackpoint>
          <Trackpoint>
            <Time>2021-10-09T09:55:12.000Z</Time>
            <Position>
              <LatitudeDegrees>39.45637755095958709716796875</LatitudeDegrees>
              <LongitudeDegrees>-0.6874842010438442230224609375</LongitudeDegrees>
            </Position>
            <AltitudeMeters>255</AltitudeMeters>
            <DistanceMeters>67244.773631475</DistanceMeters>
          </Trackpoint>
          <Trackpoint>
            <Time>2021-10-09T09:55:13.000Z</Time>
            <Position>
              <LatitudeDegrees>39.45637126453220844268798828125</LatitudeDegrees>
              <LongitudeDegrees>-0.68738244473934173583984375</LongitudeDegrees>
            </Position>
            <AltitudeMeters>255.1999969482421875</AltitudeMeters>
            <DistanceMeters>67253.54599213</DistanceMeters>
          </Trackpoint>
          <Trackpoint>
            <Time>2021-10-09T09:55:20.000Z</Time>
            <Position>
              <LatitudeDegrees>39.4563166983425617218017578125</LatitudeDegrees>
              <LongitudeDegrees>-0.68665296770632266998291015625</LongitudeDegrees>
            </Position>
            <AltitudeMeters>256.20001220703125</AltitudeMeters>
            <DistanceMeters>67316.528706275</DistanceMeters>
          </Trackpoint>
          <Trackpoint>
            <Time>2021-10-09T09:55:24.000Z</Time>
            <Position>
              <LatitudeDegrees>39.45628174580633640289306640625</LatitudeDegrees>
              <LongitudeDegrees>-0.68622230552136898040771484375</LongitudeDegrees>
            </Position>
            <AltitudeMeters>255.8000030517578125</AltitudeMeters>
            <DistanceMeters>67353.742676954</DistanceMeters>
          </Trackpoint>
          <Trackpoint>
            <Time>2021-10-09T09:55:27.000Z</Time>
            <Position>
              <LatitudeDegrees>39.456210248172283172607421875</LatitudeDegrees>
              <LongitudeDegrees>-0.68589222617447376251220703125</LongitudeDegrees>
            </Position>
            <AltitudeMeters>255.399993896484375</AltitudeMeters>
            <DistanceMeters>67383.204023627</DistanceMeters>
          </Trackpoint>
          <Trackpoint>
            <Time>2021-10-09T09:55:28.000Z</Time>
            <Position>
              <LatitudeDegrees>39.45617093704640865325927734375</LatitudeDegrees>
              <LongitudeDegrees>-0.68578661419451236724853515625</LongitudeDegrees>
            </Position>
            <AltitudeMeters>255.399993896484375</AltitudeMeters>
            <DistanceMeters>67393.279544426</DistanceMeters>
          </Trackpoint>
          <Trackpoint>
            <Time>2021-10-09T09:55:32.000Z</Time>
            <Position>
              <LatitudeDegrees>39.4559569470584392547607421875</LatitudeDegrees>
              <LongitudeDegrees>-0.68540238775312900543212890625</LongitudeDegrees>
            </Position>
            <AltitudeMeters>254.399993896484375</AltitudeMeters>
            <DistanceMeters>67433.992808385</DistanceMeters>
          </Trackpoint>
          <Trackpoint>
            <Time>2021-10-09T09:55:33.000Z</Time>
            <Position>
              <LatitudeDegrees>39.4559006206691265106201171875</LatitudeDegrees>
              <LongitudeDegrees>-0.68531337194144725799560546875</LongitudeDegrees>
            </Position>
            <AltitudeMeters>254.1999969482421875</AltitudeMeters>
            <DistanceMeters>67443.882893725</DistanceMeters>
          </Trackpoint>
          <Trackpoint>
            <Time>2021-10-09T09:55:36.000Z</Time>
            <Position>
              <LatitudeDegrees>39.45573784410953521728515625</LatitudeDegrees>
              <LongitudeDegrees>-0.68505923263728618621826171875</LongitudeDegrees>
            </Position>
            <AltitudeMeters>253</AltitudeMeters>
            <DistanceMeters>67472.259627271</DistanceMeters>
          </Trackpoint>
          <Trackpoint>
            <Time>2021-10-09T09:55:39.000Z</Time>
            <Position>
              <LatitudeDegrees>39.4555821083486080169677734375</LatitudeDegrees>
              <LongitudeDegrees>-0.68480693735182285308837890625</LongitudeDegrees>
            </Position>
            <AltitudeMeters>252.8000030517578125</AltitudeMeters>
            <DistanceMeters>67500.018490416</DistanceMeters>
          </Trackpoint>
          <Trackpoint>
            <Time>2021-10-09T09:55:45.000Z</Time>
            <Position>
              <LatitudeDegrees>39.45533174090087413787841796875</LatitudeDegrees>
              <LongitudeDegrees>-0.68428876809775829315185546875</LongitudeDegrees>
            </Position>
            <AltitudeMeters>252.8000030517578125</AltitudeMeters>
            <DistanceMeters>67552.549529723</DistanceMeters>
          </Trackpoint>
          <Trackpoint>
            <Time>2021-10-09T09:55:50.000Z</Time>
            <Position>
              <LatitudeDegrees>39.4552136398851871490478515625</LatitudeDegrees>
              <LongitudeDegrees>-0.68380731157958507537841796875</LongitudeDegrees>
            </Position>
            <AltitudeMeters>252.8000030517578125</AltitudeMeters>
            <DistanceMeters>67595.963116251</DistanceMeters>
          </Trackpoint>
          <Trackpoint>
            <Time>2021-10-09T09:55:58.000Z</Time>
            <Position>
              <LatitudeDegrees>39.4551090337336063385009765625</LatitudeDegrees>
              <LongitudeDegrees>-0.6830258667469024658203125</LongitudeDegrees>
            </Position>
            <AltitudeMeters>252.600006103515625</AltitudeMeters>
            <DistanceMeters>67664.121254846</DistanceMeters>
          </Trackpoint>
          <Trackpoint>
            <Time>2021-10-09T09:55:59.000Z</Time>
            <Position>
              <LatitudeDegrees>39.45509721525013446807861328125</LatitudeDegrees>
              <LongitudeDegrees>-0.68293224088847637176513671875</LongitudeDegrees>
            </Position>
            <AltitudeMeters>252.600006103515625</AltitudeMeters>
            <DistanceMeters>67672.274746293</DistanceMeters>
          </Trackpoint>
          <Trackpoint>
            <Time>2021-10-09T09:56:04.000Z</Time>
            <Position>
              <LatitudeDegrees>39.4550409726798534393310546875</LatitudeDegrees>
              <LongitudeDegrees>-0.68246603943407535552978515625</LongitudeDegrees>
            </Position>
            <AltitudeMeters>252.399993896484375</AltitudeMeters>
            <DistanceMeters>67712.825663921</DistanceMeters>
          </Trackpoint>
          <Trackpoint>
            <Time>2021-10-09T09:56:06.000Z</Time>
            <Position>
              <LatitudeDegrees>39.4550040923058986663818359375</LatitudeDegrees>
              <LongitudeDegrees>-0.68227945826947689056396484375</LongitudeDegrees>
            </Position>
            <AltitudeMeters>252.399993896484375</AltitudeMeters>
            <DistanceMeters>67729.377233609</DistanceMeters>
          </Trackpoint>
          <Trackpoint>
            <Time>2021-10-09T09:56:14.000Z</Time>
            <Position>
              <LatitudeDegrees>39.4548602588474750518798828125</LatitudeDegrees>
              <LongitudeDegrees>-0.68154285661876201629638671875</LongitudeDegrees>
            </Position>
            <AltitudeMeters>252.600006103515625</AltitudeMeters>
            <DistanceMeters>67794.672826667</DistanceMeters>
          </Trackpoint>
          <Trackpoint>
            <Time>2021-10-09T09:56:15.000Z</Time>
            <Position>
              <LatitudeDegrees>39.45484072901308536529541015625</LatitudeDegrees>
              <LongitudeDegrees>-0.6814512424170970916748046875</LongitudeDegrees>
            </Position>
            <AltitudeMeters>252.600006103515625</AltitudeMeters>
            <DistanceMeters>67802.839597425</DistanceMeters>
          </Trackpoint>
          <Trackpoint>
            <Time>2021-10-09T09:56:21.000Z</Time>
            <Position>
              <LatitudeDegrees>39.4546661339700222015380859375</LatitudeDegrees>
              <LongitudeDegrees>-0.68093173205852508544921875</LongitudeDegrees>
            </Position>
            <AltitudeMeters>252.600006103515625</AltitudeMeters>
            <DistanceMeters>67851.531864482</DistanceMeters>
          </Trackpoint>
          <Trackpoint>
            <Time>2021-10-09T09:56:25.000Z</Time>
            <Position>
              <LatitudeDegrees>39.454496987164020538330078125</LatitudeDegrees>
              <LongitudeDegrees>-0.680641047656536102294921875</LongitudeDegrees>
            </Position>
            <AltitudeMeters>252.8000030517578125</AltitudeMeters>
            <DistanceMeters>67882.812834471</DistanceMeters>
          </Trackpoint>
          <Trackpoint>
            <Time>2021-10-09T09:56:27.000Z</Time>
            <Position>
              <LatitudeDegrees>39.454405121505260467529296875</LatitudeDegrees>
              <LongitudeDegrees>-0.68051573820412158966064453125</LongitudeDegrees>
            </Position>
            <AltitudeMeters>253</AltitudeMeters>
            <DistanceMeters>67897.662868034</DistanceMeters>
          </Trackpoint>
          <Trackpoint>
            <Time>2021-10-09T09:56:31.000Z</Time>
            <Position>
              <LatitudeDegrees>39.45421610958874225616455078125</LatitudeDegrees>
              <LongitudeDegrees>-0.68029244430363178253173828125</LongitudeDegrees>
            </Position>
            <AltitudeMeters>253.399993896484375</AltitudeMeters>
            <DistanceMeters>67926.137603572</DistanceMeters>
          </Trackpoint>
          <Trackpoint>
            <Time>2021-10-09T09:56:34.000Z</Time>
            <Position>
              <LatitudeDegrees>39.454072527587413787841796875</LatitudeDegrees>
              <LongitudeDegrees>-0.68014257587492465972900390625</LongitudeDegrees>
            </Position>
            <AltitudeMeters>253.8000030517578125</AltitudeMeters>
            <DistanceMeters>67946.66249398</DistanceMeters>
          </Trackpoint>
          <Trackpoint>
            <Time>2021-10-09T09:56:37.000Z</Time>
            <Position>
              <LatitudeDegrees>39.4539224915206432342529296875</LatitudeDegrees>
              <LongitudeDegrees>-0.68000947125256061553955078125</LongitudeDegrees>
            </Position>
            <AltitudeMeters>254.1999969482421875</AltitudeMeters>
            <DistanceMeters>67966.903853332</DistanceMeters>
          </Trackpoint>
          <Trackpoint>
            <Time>2021-10-09T09:56:40.000Z</Time>
            <Position>
              <LatitudeDegrees>39.45376642048358917236328125</LatitudeDegrees>
              <LongitudeDegrees>-0.6798984110355377197265625</LongitudeDegrees>
            </Position>
            <AltitudeMeters>254.399993896484375</AltitudeMeters>
            <DistanceMeters>67986.724157205</DistanceMeters>
          </Trackpoint>
          <Trackpoint>
            <Time>2021-10-09T09:56:42.000Z</Time>
            <Position>
              <LatitudeDegrees>39.453711770474910736083984375</LatitudeDegrees>
              <LongitudeDegrees>-0.679782070219516754150390625</LongitudeDegrees>
            </Position>
            <AltitudeMeters>255</AltitudeMeters>
            <DistanceMeters>67998.427498586</DistanceMeters>
          </Trackpoint>
          <Trackpoint>
            <Time>2021-10-09T09:56:44.000Z</Time>
            <Position>
              <LatitudeDegrees>39.4537179730832576751708984375</LatitudeDegrees>
              <LongitudeDegrees>-0.6796474568545818328857421875</LongitudeDegrees>
            </Position>
            <AltitudeMeters>255.1999969482421875</AltitudeMeters>
            <DistanceMeters>68010.016862548</DistanceMeters>
          </Trackpoint>
          <Trackpoint>
            <Time>2021-10-09T09:56:46.000Z</Time>
            <Position>
              <LatitudeDegrees>39.4537297077476978302001953125</LatitudeDegrees>
              <LongitudeDegrees>-0.679504461586475372314453125</LongitudeDegrees>
            </Position>
            <AltitudeMeters>255.600006103515625</AltitudeMeters>
            <DistanceMeters>68022.37545118</DistanceMeters>
          </Trackpoint>
          <Trackpoint>
            <Time>2021-10-09T09:56:50.000Z</Time>
            <Position>
              <LatitudeDegrees>39.4537199847400188446044921875</LatitudeDegrees>
              <LongitudeDegrees>-0.67917362786829471588134765625</LongitudeDegrees>
            </Position>
            <AltitudeMeters>256</AltitudeMeters>
            <DistanceMeters>68050.827979243</DistanceMeters>
          </Trackpoint>
          <Trackpoint>
            <Time>2021-10-09T09:56:51.000Z</Time>
            <Position>
              <LatitudeDegrees>39.453700371086597442626953125</LatitudeDegrees>
              <LongitudeDegrees>-0.67908779717981815338134765625</LongitudeDegrees>
            </Position>
            <AltitudeMeters>256</AltitudeMeters>
            <DistanceMeters>68058.519862034</DistanceMeters>
          </Trackpoint>
          <Trackpoint>
            <Time>2021-10-09T09:56:52.000Z</Time>
            <Position>
              <LatitudeDegrees>39.45366851985454559326171875</LatitudeDegrees>
              <LongitudeDegrees>-0.67900598980486392974853515625</LongitudeDegrees>
            </Position>
            <AltitudeMeters>256</AltitudeMeters>
            <DistanceMeters>68066.393901966</DistanceMeters>
          </Trackpoint>
          <Trackpoint>
            <Time>2021-10-09T09:56:55.000Z</Time>
            <Position>
              <LatitudeDegrees>39.45353097282350063323974609375</LatitudeDegrees>
              <LongitudeDegrees>-0.6787852942943572998046875</LongitudeDegrees>
            </Position>
            <AltitudeMeters>255.8000030517578125</AltitudeMeters>
            <DistanceMeters>68090.768207893</DistanceMeters>
          </Trackpoint>
          <Trackpoint>
            <Time>2021-10-09T09:56:59.000Z</Time>
            <Position>
              <LatitudeDegrees>39.4533324055373668670654296875</LatitudeDegrees>
              <LongitudeDegrees>-0.67850030958652496337890625</LongitudeDegrees>
            </Position>
            <AltitudeMeters>255.1999969482421875</AltitudeMeters>
            <DistanceMeters>68123.757399348</DistanceMeters>
          </Trackpoint>
          <Trackpoint>
            <Time>2021-10-09T09:57:03.000Z</Time>
            <Position>
              <LatitudeDegrees>39.45311238057911396026611328125</LatitudeDegrees>
              <LongitudeDegrees>-0.67821465432643890380859375</LongitudeDegrees>
            </Position>
            <AltitudeMeters>254.1999969482421875</AltitudeMeters>
            <DistanceMeters>68158.432906537</DistanceMeters>
          </Trackpoint>
          <Trackpoint>
            <Time>2021-10-09T09:57:08.000Z</Time>
            <Position>
              <LatitudeDegrees>39.4527961313724517822265625</LatitudeDegrees>
              <LongitudeDegrees>-0.6779194436967372894287109375</LongitudeDegrees>
            </Position>
            <AltitudeMeters>253.1999969482421875</AltitudeMeters>
            <DistanceMeters>68201.822566338</DistanceMeters>
          </Trackpoint>
          <Trackpoint>
            <Time>2021-10-09T09:57:09.000Z</Time>
            <Position>
              <LatitudeDegrees>39.45272597484290599822998046875</LatitudeDegrees>
              <LongitudeDegrees>-0.67788482643663883209228515625</LongitudeDegrees>
            </Position>
            <AltitudeMeters>253</AltitudeMeters>
            <DistanceMeters>68210.178435597</DistanceMeters>
          </Trackpoint>
          <Trackpoint>
            <Time>2021-10-09T09:57:13.000Z</Time>
            <Position>
              <LatitudeDegrees>39.45243411697447299957275390625</LatitudeDegrees>
              <LongitudeDegrees>-0.67778508178889751434326171875</LongitudeDegrees>
            </Position>
            <AltitudeMeters>253</AltitudeMeters>
            <DistanceMeters>68243.774915103</DistanceMeters>
          </Trackpoint>
          <Trackpoint>
            <Time>2021-10-09T09:57:19.000Z</Time>
            <Position>
              <LatitudeDegrees>39.4519654847681522369384765625</LatitudeDegrees>
              <LongitudeDegrees>-0.677660442888736724853515625</LongitudeDegrees>
            </Position>
            <AltitudeMeters>252.8000030517578125</AltitudeMeters>
            <DistanceMeters>68297.023293697</DistanceMeters>
          </Trackpoint>
          <Trackpoint>
            <Time>2021-10-09T09:57:22.000Z</Time>
            <Position>
              <LatitudeDegrees>39.45172794163227081298828125</LatitudeDegrees>
              <LongitudeDegrees>-0.67754988558590412139892578125</LongitudeDegrees>
            </Position>
            <AltitudeMeters>252.399993896484375</AltitudeMeters>
            <DistanceMeters>68325.117954256</DistanceMeters>
          </Trackpoint>
          <Trackpoint>
            <Time>2021-10-09T09:57:24.000Z</Time>
            <Position>
              <LatitudeDegrees>39.45159249007701873779296875</LatitudeDegrees>
              <LongitudeDegrees>-0.67742968909442424774169921875</LongitudeDegrees>
            </Position>
            <AltitudeMeters>252.1999969482421875</AltitudeMeters>
            <DistanceMeters>68343.393496312</DistanceMeters>
          </Trackpoint>
          <Trackpoint>
            <Time>2021-10-09T09:57:26.000Z</Time>
            <Position>
              <LatitudeDegrees>39.4514850340783596038818359375</LatitudeDegrees>
              <LongitudeDegrees>-0.6772814132273197174072265625</LongitudeDegrees>
            </Position>
            <AltitudeMeters>252</AltitudeMeters>
            <DistanceMeters>68360.870663296</DistanceMeters>
          </Trackpoint>
          <Trackpoint>
            <Time>2021-10-09T09:57:27.000Z</Time>
            <Position>
              <LatitudeDegrees>39.45143650285899639129638671875</LatitudeDegrees>
              <LongitudeDegrees>-0.677197761833667755126953125</LongitudeDegrees>
            </Position>
            <AltitudeMeters>251.8000030517578125</AltitudeMeters>
            <DistanceMeters>68369.863123168</DistanceMeters>
          </Trackpoint>
          <Trackpoint>
            <Time>2021-10-09T09:57:29.000Z</Time>
            <Position>
              <LatitudeDegrees>39.45137196220457553863525390625</LatitudeDegrees>
              <LongitudeDegrees>-0.67701830528676509857177734375</LongitudeDegrees>
            </Position>
            <AltitudeMeters>251.399993896484375</AltitudeMeters>
            <DistanceMeters>68386.876886141</DistanceMeters>
          </Trackpoint>
          <Trackpoint>
            <Time>2021-10-09T09:57:32.000Z</Time>
            <Position>
              <LatitudeDegrees>39.45132837630808353424072265625</LatitudeDegrees>
              <LongitudeDegrees>-0.67674882709980010986328125</LongitudeDegrees>
            </Position>
            <AltitudeMeters>251</AltitudeMeters>
            <DistanceMeters>68410.539110462</DistanceMeters>
          </Trackpoint>
          <Trackpoint>
            <Time>2021-10-09T09:57:33.000Z</Time>
            <Position>
              <LatitudeDegrees>39.451327621936798095703125</LatitudeDegrees>
              <LongitudeDegrees>-0.6766624934971332550048828125</LongitudeDegrees>
            </Position>
            <AltitudeMeters>251.1999969482421875</AltitudeMeters>
            <DistanceMeters>68417.95910885</DistanceMeters>
          </Trackpoint>
          <Trackpoint>
            <Time>2021-10-09T09:57:35.000Z</Time>
            <Position>
              <LatitudeDegrees>39.4513452239334583282470703125</LatitudeDegrees>
              <LongitudeDegrees>-0.6764998845756053924560546875</LongitudeDegrees>
            </Position>
            <AltitudeMeters>251.1999969482421875</AltitudeMeters>
            <DistanceMeters>68432.071135845</DistanceMeters>
          </Trackpoint>
          <Trackpoint>
            <Time>2021-10-09T09:57:37.000Z</Time>
            <Position>
              <LatitudeDegrees>39.45137925446033477783203125</LatitudeDegrees>
              <LongitudeDegrees>-0.67635345272719860076904296875</LongitudeDegrees>
            </Position>
            <AltitudeMeters>251.600006103515625</AltitudeMeters>
            <DistanceMeters>68445.21371178</DistanceMeters>
          </Trackpoint>
          <Trackpoint>
            <Time>2021-10-09T09:57:41.000Z</Time>
            <Position>
              <LatitudeDegrees>39.45145477540791034698486328125</LatitudeDegrees>
              <LongitudeDegrees>-0.6760657019913196563720703125</LongitudeDegrees>
            </Position>
            <AltitudeMeters>252.600006103515625</AltitudeMeters>
            <DistanceMeters>68471.33344255</DistanceMeters>
          </Trackpoint>
          <Trackpoint>
            <Time>2021-10-09T09:57:44.000Z</Time>
            <Position>
              <LatitudeDegrees>39.45148997940123081207275390625</LatitudeDegrees>
              <LongitudeDegrees>-0.67586059682071208953857421875</LongitudeDegrees>
            </Position>
            <AltitudeMeters>253.1999969482421875</AltitudeMeters>
            <DistanceMeters>68489.39101881</DistanceMeters>
          </Trackpoint>
          <Trackpoint>
            <Time>2021-10-09T09:57:45.000Z</Time>
            <Position>
              <LatitudeDegrees>39.4514950923621654510498046875</LatitudeDegrees>
              <LongitudeDegrees>-0.67579739727079868316650390625</LongitudeDegrees>
            </Position>
            <AltitudeMeters>253.600006103515625</AltitudeMeters>
            <DistanceMeters>68494.852368689</DistanceMeters>
          </Trackpoint>
          <Trackpoint>
            <Time>2021-10-09T09:57:48.000Z</Time>
            <Position>
              <LatitudeDegrees>39.4514917396008968353271484375</LatitudeDegrees>
              <LongitudeDegrees>-0.6756015121936798095703125</LongitudeDegrees>
            </Position>
            <AltitudeMeters>254.1999969482421875</AltitudeMeters>
            <DistanceMeters>68511.691681635</DistanceMeters>
          </Trackpoint>
          <Trackpoint>
            <Time>2021-10-09T09:57:51.000Z</Time>
            <Position>
              <LatitudeDegrees>39.45144287310540676116943359375</LatitudeDegrees>
              <LongitudeDegrees>-0.675425492227077484130859375</LongitudeDegrees>
            </Position>
            <AltitudeMeters>255.1999969482421875</AltitudeMeters>
            <DistanceMeters>68527.767494452</DistanceMeters>
          </Trackpoint>
          <Trackpoint>
            <Time>2021-10-09T09:57:52.000Z</Time>
            <Position>
              <LatitudeDegrees>39.45142845623195171356201171875</LatitudeDegrees>
              <LongitudeDegrees>-0.67536740563809871673583984375</LongitudeDegrees>
            </Position>
            <AltitudeMeters>255.8000030517578125</AltitudeMeters>
            <DistanceMeters>68533.01207383</DistanceMeters>
          </Trackpoint>
          <Trackpoint>
            <Time>2021-10-09T09:57:53.000Z</Time>
            <Position>
              <LatitudeDegrees>39.4514109380543231964111328125</LatitudeDegrees>
              <LongitudeDegrees>-0.67531141452491283416748046875</LongitudeDegrees>
            </Position>
            <AltitudeMeters>256</AltitudeMeters>
            <DistanceMeters>68538.203872958</DistanceMeters>
          </Trackpoint>
          <Trackpoint>
            <Time>2021-10-09T09:57:56.000Z</Time>
            <Position>
              <LatitudeDegrees>39.4513455592095851898193359375</LatitudeDegrees>
              <LongitudeDegrees>-0.67515651695430278778076171875</LongitudeDegrees>
            </Position>
            <AltitudeMeters>257</AltitudeMeters>
            <DistanceMeters>68553.375446659</DistanceMeters>
          </Trackpoint>
          <Trackpoint>
            <Time>2021-10-09T09:57:57.000Z</Time>
            <Position>
              <LatitudeDegrees>39.45132468827068805694580078125</LatitudeDegrees>
              <LongitudeDegrees>-0.67510941065847873687744140625</LongitudeDegrees>
            </Position>
            <AltitudeMeters>257.20001220703125</AltitudeMeters>
            <DistanceMeters>68558.043377084</DistanceMeters>
          </Trackpoint>
          <Trackpoint>
            <Time>2021-10-09T09:57:58.000Z</Time>
            <Position>
              <LatitudeDegrees>39.451300464570522308349609375</LatitudeDegrees>
              <LongitudeDegrees>-0.675066746771335601806640625</LongitudeDegrees>
            </Position>
            <AltitudeMeters>257.600006103515625</AltitudeMeters>
            <DistanceMeters>68562.594749994</DistanceMeters>
          </Trackpoint>
          <Trackpoint>
            <Time>2021-10-09T09:57:59.000Z</Time>
            <Position>
              <LatitudeDegrees>39.45127489976584911346435546875</LatitudeDegrees>
              <LongitudeDegrees>-0.6750275194644927978515625</LongitudeDegrees>
            </Position>
            <AltitudeMeters>258.20001220703125</AltitudeMeters>
            <DistanceMeters>68567.007101387</DistanceMeters>
          </Trackpoint>
          <Trackpoint>
            <Time>2021-10-09T09:58:02.000Z</Time>
            <Position>
              <LatitudeDegrees>39.4512141309678554534912109375</LatitudeDegrees>
              <LongitudeDegrees>-0.6748969294130802154541015625</LongitudeDegrees>
            </Position>
            <AltitudeMeters>258.79998779296875</AltitudeMeters>
            <DistanceMeters>68580.111144032</DistanceMeters>
          </Trackpoint>
          <Trackpoint>
            <Time>2021-10-09T09:58:05.000Z</Time>
            <Position>
              <LatitudeDegrees>39.45115051232278347015380859375</LatitudeDegrees>
              <LongitudeDegrees>-0.67477245815098285675048828125</LongitudeDegrees>
            </Position>
            <AltitudeMeters>259.399993896484375</AltitudeMeters>
            <DistanceMeters>68592.940102418</DistanceMeters>
          </Trackpoint>
          <Trackpoint>
            <Time>2021-10-09T09:58:08.000Z</Time>
            <Position>
              <LatitudeDegrees>39.4510944373905658721923828125</LatitudeDegrees>
              <LongitudeDegrees>-0.674649663269519805908203125</LongitudeDegrees>
            </Position>
            <AltitudeMeters>261.600006103515625</AltitudeMeters>
            <DistanceMeters>68605.201126545</DistanceMeters>
          </Trackpoint>
          <Trackpoint>
            <Time>2021-10-09T09:58:10.000Z</Time>
            <Position>
              <LatitudeDegrees>39.451048672199249267578125</LatitudeDegrees>
              <LongitudeDegrees>-0.67457447759807109832763671875</LongitudeDegrees>
            </Position>
            <AltitudeMeters>262.600006103515625</AltitudeMeters>
            <DistanceMeters>68613.429584066</DistanceMeters>
          </Trackpoint>
          <Trackpoint>
            <Time>2021-10-09T09:58:14.000Z</Time>
            <Position>
              <LatitudeDegrees>39.4509677030146121978759765625</LatitudeDegrees>
              <LongitudeDegrees>-0.674405582249164581298828125</LongitudeDegrees>
            </Position>
            <AltitudeMeters>263.399993896484375</AltitudeMeters>
            <DistanceMeters>68630.515112481</DistanceMeters>
          </Trackpoint>
          <Trackpoint>
            <Time>2021-10-09T09:58:16.000Z</Time>
            <Position>
              <LatitudeDegrees>39.45092889480292797088623046875</LatitudeDegrees>
              <LongitudeDegrees>-0.674310363829135894775390625</LongitudeDegrees>
            </Position>
            <AltitudeMeters>263.600006103515625</AltitudeMeters>
            <DistanceMeters>68639.768392161</DistanceMeters>
          </Trackpoint>
          <Trackpoint>
            <Time>2021-10-09T09:58:20.000Z</Time>
            <Position>
              <LatitudeDegrees>39.45083769969642162322998046875</LatitudeDegrees>
              <LongitudeDegrees>-0.67414733581244945526123046875</LongitudeDegrees>
            </Position>
            <AltitudeMeters>263.79998779296875</AltitudeMeters>
            <DistanceMeters>68657.069779506</DistanceMeters>
          </Trackpoint>
          <Trackpoint>
            <Time>2021-10-09T09:58:23.000Z</Time>
            <Position>
              <LatitudeDegrees>39.45077240467071533203125</LatitudeDegrees>
              <LongitudeDegrees>-0.67401456646621227264404296875</LongitudeDegrees>
            </Position>
            <AltitudeMeters>264.79998779296875</AltitudeMeters>
            <DistanceMeters>68670.598326706</DistanceMeters>
          </Trackpoint>
          <Trackpoint>
            <Time>2021-10-09T09:58:25.000Z</Time>
            <Position>
              <LatitudeDegrees>39.45072420872747898101806640625</LatitudeDegrees>
              <LongitudeDegrees>-0.6739209406077861785888671875</LongitudeDegrees>
            </Position>
            <AltitudeMeters>265.20001220703125</AltitudeMeters>
            <DistanceMeters>68680.269600242</DistanceMeters>
          </Trackpoint>
          <Trackpoint>
            <Time>2021-10-09T09:58:26.000Z</Time>
            <Position>
              <LatitudeDegrees>39.4507001526653766632080078125</LatitudeDegrees>
              <LongitudeDegrees>-0.6738795340061187744140625</LongitudeDegrees>
            </Position>
            <AltitudeMeters>265.600006103515625</AltitudeMeters>
            <DistanceMeters>68684.722694433</DistanceMeters>
          </Trackpoint>
          <Trackpoint>
            <Time>2021-10-09T09:58:27.000Z</Time>
            <Position>
              <LatitudeDegrees>39.450676850974559783935546875</LatitudeDegrees>
              <LongitudeDegrees>-0.6738361157476902008056640625</LongitudeDegrees>
            </Position>
            <AltitudeMeters>266</AltitudeMeters>
            <DistanceMeters>68689.268111345</DistanceMeters>
          </Trackpoint>
          <Trackpoint>
            <Time>2021-10-09T09:58:31.000Z</Time>
            <Position>
              <LatitudeDegrees>39.45058641023933887481689453125</LatitudeDegrees>
              <LongitudeDegrees>-0.67367342300713062286376953125</LongitudeDegrees>
            </Position>
            <AltitudeMeters>267</AltitudeMeters>
            <DistanceMeters>68706.497322091</DistanceMeters>
          </Trackpoint>
          <Trackpoint>
            <Time>2021-10-09T09:58:34.000Z</Time>
            <Position>
              <LatitudeDegrees>39.45051030255854129791259765625</LatitudeDegrees>
              <LongitudeDegrees>-0.67355691455304622650146484375</LongitudeDegrees>
            </Position>
            <AltitudeMeters>267.600006103515625</AltitudeMeters>
            <DistanceMeters>68719.61273006</DistanceMeters>
          </Trackpoint>
          <Trackpoint>
            <Time>2021-10-09T09:58:36.000Z</Time>
            <Position>
              <LatitudeDegrees>39.45046420209109783172607421875</LatitudeDegrees>
              <LongitudeDegrees>-0.67347359843552112579345703125</LongitudeDegrees>
            </Position>
            <AltitudeMeters>268.20001220703125</AltitudeMeters>
            <DistanceMeters>68728.422070385</DistanceMeters>
          </Trackpoint>
          <Trackpoint>
            <Time>2021-10-09T09:58:40.000Z</Time>
            <Position>
              <LatitudeDegrees>39.45035942830145359039306640625</LatitudeDegrees>
              <LongitudeDegrees>-0.67331920377910137176513671875</LongitudeDegrees>
            </Position>
            <AltitudeMeters>269.20001220703125</AltitudeMeters>
            <DistanceMeters>68746.087585147</DistanceMeters>
          </Trackpoint>
          <Trackpoint>
            <Time>2021-10-09T09:58:42.000Z</Time>
            <Position>
              <LatitudeDegrees>39.45030259899795055389404296875</LatitudeDegrees>
              <LongitudeDegrees>-0.67326237447559833526611328125</LongitudeDegrees>
            </Position>
            <AltitudeMeters>269.399993896484375</AltitudeMeters>
            <DistanceMeters>68754.078874193</DistanceMeters>
          </Trackpoint>
          <Trackpoint>
            <Time>2021-10-09T09:58:45.000Z</Time>
            <Position>
              <LatitudeDegrees>39.4502119906246662139892578125</LatitudeDegrees>
              <LongitudeDegrees>-0.6731484644114971160888671875</LongitudeDegrees>
            </Position>
            <AltitudeMeters>270.399993896484375</AltitudeMeters>
            <DistanceMeters>68768.133836032</DistanceMeters>
          </Trackpoint>
          <Trackpoint>
            <Time>2021-10-09T09:58:46.000Z</Time>
            <Position>
              <LatitudeDegrees>39.45018910802900791168212890625</LatitudeDegrees>
              <LongitudeDegrees>-0.67312021739780902862548828125</LongitudeDegrees>
            </Position>
            <AltitudeMeters>270.600006103515625</AltitudeMeters>
            <DistanceMeters>68771.652391816</DistanceMeters>
          </Trackpoint>
          <Trackpoint>
            <Time>2021-10-09T09:58:52.000Z</Time>
            <Position>
              <LatitudeDegrees>39.4499954022467136383056640625</LatitudeDegrees>
              <LongitudeDegrees>-0.67290027625858783721923828125</LongitudeDegrees>
            </Position>
            <AltitudeMeters>271.600006103515625</AltitudeMeters>
            <DistanceMeters>68800.325590799</DistanceMeters>
          </Trackpoint>
          <Trackpoint>
            <Time>2021-10-09T09:58:57.000Z</Time>
            <Position>
              <LatitudeDegrees>39.4498304463922977447509765625</LatitudeDegrees>
              <LongitudeDegrees>-0.672703720629215240478515625</LongitudeDegrees>
            </Position>
            <AltitudeMeters>272.79998779296875</AltitudeMeters>
            <DistanceMeters>68825.274763719</DistanceMeters>
          </Trackpoint>
          <Trackpoint>
            <Time>2021-10-09T09:59:00.000Z</Time>
            <Position>
              <LatitudeDegrees>39.44972005672752857208251953125</LatitudeDegrees>
              <LongitudeDegrees>-0.6725732982158660888671875</LongitudeDegrees>
            </Position>
            <AltitudeMeters>273.20001220703125</AltitudeMeters>
            <DistanceMeters>68841.90633916</DistanceMeters>
          </Trackpoint>
          <Trackpoint>
            <Time>2021-10-09T09:59:07.000Z</Time>
            <Position>
              <LatitudeDegrees>39.44947882555425167083740234375</LatitudeDegrees>
              <LongitudeDegrees>-0.67229367792606353759765625</LongitudeDegrees>
            </Position>
            <AltitudeMeters>273.79998779296875</AltitudeMeters>
            <DistanceMeters>68877.940138458</DistanceMeters>
          </Trackpoint>
          <Trackpoint>
            <Time>2021-10-09T09:59:08.000Z</Time>
            <Position>
              <LatitudeDegrees>39.449442364275455474853515625</LatitudeDegrees>
              <LongitudeDegrees>-0.67225017584860324859619140625</LongitudeDegrees>
            </Position>
            <AltitudeMeters>274</AltitudeMeters>
            <DistanceMeters>68883.458237567</DistanceMeters>
          </Trackpoint>
          <Trackpoint>
            <Time>2021-10-09T09:59:13.000Z</Time>
            <Position>
              <LatitudeDegrees>39.44925083778798580169677734375</LatitudeDegrees>
              <LongitudeDegrees>-0.67202084697782993316650390625</LongitudeDegrees>
            </Position>
            <AltitudeMeters>274.20001220703125</AltitudeMeters>
            <DistanceMeters>68912.491037218</DistanceMeters>
          </Trackpoint>
          <Trackpoint>
            <Time>2021-10-09T09:59:15.000Z</Time>
            <Position>
              <LatitudeDegrees>39.4491702876985073089599609375</LatitudeDegrees>
              <LongitudeDegrees>-0.67193099297583103179931640625</LongitudeDegrees>
            </Position>
            <AltitudeMeters>274.399993896484375</AltitudeMeters>
            <DistanceMeters>68924.324057345</DistanceMeters>
          </Trackpoint>
          <Trackpoint>
            <Time>2021-10-09T09:59:21.000Z</Time>
            <Position>
              <LatitudeDegrees>39.4489379413425922393798828125</LatitudeDegrees>
              <LongitudeDegrees>-0.67166201770305633544921875</LongitudeDegrees>
            </Position>
            <AltitudeMeters>274.79998779296875</AltitudeMeters>
            <DistanceMeters>68959.011020971</DistanceMeters>
          </Trackpoint>
          <Trackpoint>
            <Time>2021-10-09T09:59:25.000Z</Time>
            <Position>
              <LatitudeDegrees>39.44878346286714076995849609375</LatitudeDegrees>
              <LongitudeDegrees>-0.671488009393215179443359375</LongitudeDegrees>
            </Position>
            <AltitudeMeters>275</AltitudeMeters>
            <DistanceMeters>68981.799211687</DistanceMeters>
          </Trackpoint>
          <Trackpoint>
            <Time>2021-10-09T09:59:29.000Z</Time>
            <Position>
              <LatitudeDegrees>39.44862722419202327728271484375</LatitudeDegrees>
              <LongitudeDegrees>-0.6712977401912212371826171875</LongitudeDegrees>
            </Position>
            <AltitudeMeters>276</AltitudeMeters>
            <DistanceMeters>69005.670028259</DistanceMeters>
          </Trackpoint>
          <Trackpoint>
            <Time>2021-10-09T09:59:33.000Z</Time>
            <Position>
              <LatitudeDegrees>39.44848825223743915557861328125</LatitudeDegrees>
              <LongitudeDegrees>-0.67111912183463573455810546875</LongitudeDegrees>
            </Position>
            <AltitudeMeters>276.79998779296875</AltitudeMeters>
            <DistanceMeters>69027.462867461</DistanceMeters>
          </Trackpoint>
          <Trackpoint>
            <Time>2021-10-09T09:59:36.000Z</Time>
            <Position>
              <LatitudeDegrees>39.4483981467783451080322265625</LatitudeDegrees>
              <LongitudeDegrees>-0.67097797058522701263427734375</LongitudeDegrees>
            </Position>
            <AltitudeMeters>277.399993896484375</AltitudeMeters>
            <DistanceMeters>69043.203204414</DistanceMeters>
          </Trackpoint>
          <Trackpoint>
            <Time>2021-10-09T09:59:41.000Z</Time>
            <Position>
              <LatitudeDegrees>39.44823847152292728424072265625</LatitudeDegrees>
              <LongitudeDegrees>-0.6706808321177959442138671875</LongitudeDegrees>
            </Position>
            <AltitudeMeters>278.399993896484375</AltitudeMeters>
            <DistanceMeters>69074.316872071</DistanceMeters>
          </Trackpoint>
          <Trackpoint>
            <Time>2021-10-09T09:59:47.000Z</Time>
            <Position>
              <LatitudeDegrees>39.44810318760573863983154296875</LatitudeDegrees>
              <LongitudeDegrees>-0.67028629593551158905029296875</LongitudeDegrees>
            </Position>
            <AltitudeMeters>278.600006103515625</AltitudeMeters>
            <DistanceMeters>69111.41893284</DistanceMeters>
          </Trackpoint>
          <Trackpoint>
            <Time>2021-10-09T09:59:48.000Z</Time>
            <Position>
              <LatitudeDegrees>39.4480823166668415069580078125</LatitudeDegrees>
              <LongitudeDegrees>-0.67022359929978847503662109375</LongitudeDegrees>
            </Position>
            <AltitudeMeters>278.600006103515625</AltitudeMeters>
            <DistanceMeters>69117.286014858</DistanceMeters>
          </Trackpoint>
          <Trackpoint>
            <Time>2021-10-09T09:59:53.000Z</Time>
            <Position>
              <LatitudeDegrees>39.4479679875075817108154296875</LatitudeDegrees>
              <LongitudeDegrees>-0.66991388797760009765625</LongitudeDegrees>
            </Position>
            <AltitudeMeters>279.20001220703125</AltitudeMeters>
            <DistanceMeters>69146.790241151</DistanceMeters>
          </Trackpoint>
          <Trackpoint>
            <Time>2021-10-09T09:59:55.000Z</Time>
            <Position>
              <LatitudeDegrees>39.4479227252304553985595703125</LatitudeDegrees>
              <LongitudeDegrees>-0.66980467177927494049072265625</LongitudeDegrees>
            </Position>
            <AltitudeMeters>279.600006103515625</AltitudeMeters>
            <DistanceMeters>69157.443833542</DistanceMeters>
          </Trackpoint>
          <Trackpoint>
            <Time>2021-10-09T09:59:57.000Z</Time>
            <Position>
              <LatitudeDegrees>39.4478647224605083465576171875</LatitudeDegrees>
              <LongitudeDegrees>-0.66966150887310504913330078125</LongitudeDegrees>
            </Position>
            <AltitudeMeters>279.600006103515625</AltitudeMeters>
            <DistanceMeters>69171.338870946</DistanceMeters>
          </Trackpoint>
          <Trackpoint>
            <Time>2021-10-09T10:00:02.000Z</Time>
            <Position>
              <LatitudeDegrees>39.447713010013103485107421875</LatitudeDegrees>
              <LongitudeDegrees>-0.66928633488714694976806640625</LongitudeDegrees>
            </Position>
            <AltitudeMeters>280.399993896484375</AltitudeMeters>
            <DistanceMeters>69207.737948075</DistanceMeters>
          </Trackpoint>
          <Trackpoint>
            <Time>2021-10-09T10:00:07.000Z</Time>
            <Position>
              <LatitudeDegrees>39.44753355346620082855224609375</LatitudeDegrees>
              <LongitudeDegrees>-0.66884259693324565887451171875</LongitudeDegrees>
            </Position>
            <AltitudeMeters>279.600006103515625</AltitudeMeters>
            <DistanceMeters>69250.790188792</DistanceMeters>
          </Trackpoint>
          <Trackpoint>
            <Time>2021-10-09T10:00:08.000Z</Time>
            <Position>
              <LatitudeDegrees>39.44749684073030948638916015625</LatitudeDegrees>
              <LongitudeDegrees>-0.668748132884502410888671875</LongitudeDegrees>
            </Position>
            <AltitudeMeters>279.600006103515625</AltitudeMeters>
            <DistanceMeters>69259.879532519</DistanceMeters>
          </Trackpoint>
          <Trackpoint>
            <Time>2021-10-09T10:00:10.000Z</Time>
            <Position>
              <LatitudeDegrees>39.44741494953632354736328125</LatitudeDegrees>
              <LongitudeDegrees>-0.66856046207249164581298828125</LongitudeDegrees>
            </Position>
            <AltitudeMeters>278</AltitudeMeters>
            <DistanceMeters>69278.406573993</DistanceMeters>
          </Trackpoint>
          <Trackpoint>
            <Time>2021-10-09T10:00:12.000Z</Time>
            <Position>
              <LatitudeDegrees>39.44733314216136932373046875</LatitudeDegrees>
              <LongitudeDegrees>-0.668365918099880218505859375</LongitudeDegrees>
            </Position>
            <AltitudeMeters>277</AltitudeMeters>
            <DistanceMeters>69297.445621464</DistanceMeters>
          </Trackpoint>
          <Trackpoint>
            <Time>2021-10-09T10:00:13.000Z</Time>
            <Position>
              <LatitudeDegrees>39.44729165174067020416259765625</LatitudeDegrees>
              <LongitudeDegrees>-0.66826743073761463165283203125</LongitudeDegrees>
            </Position>
            <AltitudeMeters>276.600006103515625</AltitudeMeters>
            <DistanceMeters>69307.087906829</DistanceMeters>
          </Trackpoint>
          <Trackpoint>
            <Time>2021-10-09T10:00:15.000Z</Time>
            <Position>
              <LatitudeDegrees>39.44720573723316192626953125</LatitudeDegrees>
              <LongitudeDegrees>-0.6680686958134174346923828125</LongitudeDegrees>
            </Position>
            <AltitudeMeters>275.79998779296875</AltitudeMeters>
            <DistanceMeters>69326.66340999</DistanceMeters>
          </Trackpoint>
          <Trackpoint>
            <Time>2021-10-09T10:00:16.000Z</Time>
            <Position>
              <LatitudeDegrees>39.44716122932732105255126953125</LatitudeDegrees>
              <LongitudeDegrees>-0.66796802915632724761962890625</LongitudeDegrees>
            </Position>
            <AltitudeMeters>275.399993896484375</AltitudeMeters>
            <DistanceMeters>69336.632613636</DistanceMeters>
          </Trackpoint>
          <Trackpoint>
            <Time>2021-10-09T10:00:20.000Z</Time>
            <Position>
              <LatitudeDegrees>39.447003901004791259765625</LatitudeDegrees>
              <LongitudeDegrees>-0.66752848215401172637939453125</LongitudeDegrees>
            </Position>
            <AltitudeMeters>274.20001220703125</AltitudeMeters>
            <DistanceMeters>69378.272101119</DistanceMeters>
          </Trackpoint>
          <Trackpoint>
            <Time>2021-10-09T10:00:21.000Z</Time>
            <Position>
              <LatitudeDegrees>39.446971714496612548828125</LatitudeDegrees>
              <LongitudeDegrees>-0.66740828566253185272216796875</LongitudeDegrees>
            </Position>
            <AltitudeMeters>274</AltitudeMeters>
            <DistanceMeters>69389.206781828</DistanceMeters>
          </Trackpoint>
          <Trackpoint>
            <Time>2021-10-09T10:00:23.000Z</Time>
            <Position>
              <LatitudeDegrees>39.4469078443944454193115234375</LatitudeDegrees>
              <LongitudeDegrees>-0.66716705448925495147705078125</LongitudeDegrees>
            </Position>
            <AltitudeMeters>273</AltitudeMeters>
            <DistanceMeters>69411.125224449</DistanceMeters>
          </Trackpoint>
          <Trackpoint>
            <Time>2021-10-09T10:00:25.000Z</Time>
            <Position>
              <LatitudeDegrees>39.44684305228292942047119140625</LatitudeDegrees>
              <LongitudeDegrees>-0.66691794432699680328369140625</LongitudeDegrees>
            </Position>
            <AltitudeMeters>271.399993896484375</AltitudeMeters>
            <DistanceMeters>69433.718013146</DistanceMeters>
          </Trackpoint>
          <Trackpoint>
            <Time>2021-10-09T10:00:27.000Z</Time>
            <Position>
              <LatitudeDegrees>39.446778260171413421630859375</LatitudeDegrees>
              <LongitudeDegrees>-0.66666782833635807037353515625</LongitudeDegrees>
            </Position>
            <AltitudeMeters>269.399993896484375</AltitudeMeters>
            <DistanceMeters>69456.392589931</DistanceMeters>
          </Trackpoint>
          <Trackpoint>
            <Time>2021-10-09T10:00:29.000Z</Time>
            <Position>
              <LatitudeDegrees>39.44670894183218479156494140625</LatitudeDegrees>
              <LongitudeDegrees>-0.6664127670228481292724609375</LongitudeDegrees>
            </Position>
            <AltitudeMeters>268.79998779296875</AltitudeMeters>
            <DistanceMeters>69479.632984987</DistanceMeters>
          </Trackpoint>
          <Trackpoint>
            <Time>2021-10-09T10:00:30.000Z</Time>
            <Position>
              <LatitudeDegrees>39.44667457602918148040771484375</LatitudeDegrees>
              <LongitudeDegrees>-0.66628728993237018585205078125</LongitudeDegrees>
            </Position>
            <AltitudeMeters>268.399993896484375</AltitudeMeters>
            <DistanceMeters>69491.075716673</DistanceMeters>
          </Trackpoint>
          <Trackpoint>
            <Time>2021-10-09T10:00:32.000Z</Time>
            <Position>
              <LatitudeDegrees>39.44660467095673084259033203125</LatitudeDegrees>
              <LongitudeDegrees>-0.66603834740817546844482421875</LongitudeDegrees>
            </Position>
            <AltitudeMeters>266.600006103515625</AltitudeMeters>
            <DistanceMeters>69513.842895858</DistanceMeters>
          </Trackpoint>
          <Trackpoint>
            <Time>2021-10-09T10:00:35.000Z</Time>
            <Position>
              <LatitudeDegrees>39.446497969329357147216796875</LatitudeDegrees>
              <LongitudeDegrees>-0.66564624197781085968017578125</LongitudeDegrees>
            </Position>
            <AltitudeMeters>265.600006103515625</AltitudeMeters>
            <DistanceMeters>69549.575214964</DistanceMeters>
          </Trackpoint>
          <Trackpoint>
            <Time>2021-10-09T10:00:37.000Z</Time>
            <Position>
              <LatitudeDegrees>39.44640099070966243743896484375</LatitudeDegrees>
              <LongitudeDegrees>-0.66539528779685497283935546875</LongitudeDegrees>
            </Position>
            <AltitudeMeters>264.600006103515625</AltitudeMeters>
            <DistanceMeters>69573.694597518</DistanceMeters>
          </Trackpoint>
          <Trackpoint>
            <Time>2021-10-09T10:00:38.000Z</Time>
            <Position>
              <LatitudeDegrees>39.446331001818180084228515625</LatitudeDegrees>
              <LongitudeDegrees>-0.6652885861694812774658203125</LongitudeDegrees>
            </Position>
            <AltitudeMeters>263.79998779296875</AltitudeMeters>
            <DistanceMeters>69585.727396265</DistanceMeters>
          </Trackpoint>
          <Trackpoint>
            <Time>2021-10-09T10:00:39.000Z</Time>
            <Position>
              <LatitudeDegrees>39.446247853338718414306640625</LatitudeDegrees>
              <LongitudeDegrees>-0.66520133055746555328369140625</LongitudeDegrees>
            </Position>
            <AltitudeMeters>263.399993896484375</AltitudeMeters>
            <DistanceMeters>69597.639138</DistanceMeters>
          </Trackpoint>
          <Trackpoint>
            <Time>2021-10-09T10:00:40.000Z</Time>
            <Position>
              <LatitudeDegrees>39.4461538083851337432861328125</LatitudeDegrees>
              <LongitudeDegrees>-0.66514366306364536285400390625</LongitudeDegrees>
            </Position>
            <AltitudeMeters>263</AltitudeMeters>
            <DistanceMeters>69609.220317794</DistanceMeters>
          </Trackpoint>
          <Trackpoint>
            <Time>2021-10-09T10:00:41.000Z</Time>
            <Position>
              <LatitudeDegrees>39.4460552372038364410400390625</LatitudeDegrees>
              <LongitudeDegrees>-0.66510812379419803619384765625</LongitudeDegrees>
            </Position>
            <AltitudeMeters>262.600006103515625</AltitudeMeters>
            <DistanceMeters>69620.608864144</DistanceMeters>
          </Trackpoint>
          <Trackpoint>
            <Time>2021-10-09T10:00:44.000Z</Time>
            <Position>
              <LatitudeDegrees>39.44575357250869274139404296875</LatitudeDegrees>
              <LongitudeDegrees>-0.665019862353801727294921875</LongitudeDegrees>
            </Position>
            <AltitudeMeters>261.399993896484375</AltitudeMeters>
            <DistanceMeters>69655.031102751</DistanceMeters>
          </Trackpoint>
          <Trackpoint>
            <Time>2021-10-09T10:00:45.000Z</Time>
            <Position>
              <LatitudeDegrees>39.4456534087657928466796875</LatitudeDegrees>
              <LongitudeDegrees>-0.6649895198643207550048828125</LongitudeDegrees>
            </Position>
            <AltitudeMeters>260.79998779296875</AltitudeMeters>
            <DistanceMeters>69666.480145927</DistanceMeters>
          </Trackpoint>
          <Trackpoint>
            <Time>2021-10-09T10:00:48.000Z</Time>
            <Position>
              <LatitudeDegrees>39.44534671492874622344970703125</LatitudeDegrees>
              <LongitudeDegrees>-0.664900839328765869140625</LongitudeDegrees>
            </Position>
            <AltitudeMeters>260</AltitudeMeters>
            <DistanceMeters>69701.456431839</DistanceMeters>
          </Trackpoint>
          <Trackpoint>
            <Time>2021-10-09T10:00:50.000Z</Time>
            <Position>
              <LatitudeDegrees>39.4451357424259185791015625</LatitudeDegrees>
              <LongitudeDegrees>-0.6648413278162479400634765625</LongitudeDegrees>
            </Position>
            <AltitudeMeters>259.20001220703125</AltitudeMeters>
            <DistanceMeters>69725.488986621</DistanceMeters>
          </Trackpoint>
          <Trackpoint>
            <Time>2021-10-09T10:00:51.000Z</Time>
            <Position>
              <LatitudeDegrees>39.44502971135079860687255859375</LatitudeDegrees>
              <LongitudeDegrees>-0.66481106914579868316650390625</LongitudeDegrees>
            </Position>
            <AltitudeMeters>258.79998779296875</AltitudeMeters>
            <DistanceMeters>69737.573455838</DistanceMeters>
          </Trackpoint>
          <Trackpoint>
            <Time>2021-10-09T10:00:53.000Z</Time>
            <Position>
              <LatitudeDegrees>39.44481429643929004669189453125</LatitudeDegrees>
              <LongitudeDegrees>-0.664748959243297576904296875</LongitudeDegrees>
            </Position>
            <AltitudeMeters>257.600006103515625</AltitudeMeters>
            <DistanceMeters>69762.1367127</DistanceMeters>
          </Trackpoint>
          <Trackpoint>
            <Time>2021-10-09T10:00:54.000Z</Time>
            <Position>
              <LatitudeDegrees>39.4447037391364574432373046875</LatitudeDegrees>
              <LongitudeDegrees>-0.66471107304096221923828125</LongitudeDegrees>
            </Position>
            <AltitudeMeters>256.79998779296875</AltitudeMeters>
            <DistanceMeters>69774.865327376</DistanceMeters>
          </Trackpoint>
          <Trackpoint>
            <Time>2021-10-09T10:00:55.000Z</Time>
            <Position>
              <LatitudeDegrees>39.444595277309417724609375</LatitudeDegrees>
              <LongitudeDegrees>-0.66465876996517181396484375</LongitudeDegrees>
            </Position>
            <AltitudeMeters>255.8000030517578125</AltitudeMeters>
            <DistanceMeters>69787.746968759</DistanceMeters>
          </Trackpoint>
          <Trackpoint>
            <Time>2021-10-09T10:00:57.000Z</Time>
            <Position>
              <LatitudeDegrees>39.44441900588572025299072265625</LatitudeDegrees>
              <LongitudeDegrees>-0.66450848244130611419677734375</LongitudeDegrees>
            </Position>
            <AltitudeMeters>255</AltitudeMeters>
            <DistanceMeters>69811.23702668</DistanceMeters>
          </Trackpoint>
          <Trackpoint>
            <Time>2021-10-09T10:00:58.000Z</Time>
            <Position>
              <LatitudeDegrees>39.44433233700692653656005859375</LatitudeDegrees>
              <LongitudeDegrees>-0.6644034571945667266845703125</LongitudeDegrees>
            </Position>
            <AltitudeMeters>254.399993896484375</AltitudeMeters>
            <DistanceMeters>69824.448474276</DistanceMeters>
          </Trackpoint>
          <Trackpoint>
            <Time>2021-10-09T10:00:59.000Z</Time>
            <Position>
              <LatitudeDegrees>39.44423460401594638824462890625</LatitudeDegrees>
              <LongitudeDegrees>-0.66426842473447322845458984375</LongitudeDegrees>
            </Position>
            <AltitudeMeters>253.399993896484375</AltitudeMeters>
            <DistanceMeters>69840.355730548</DistanceMeters>
          </Trackpoint>
          <Trackpoint>
            <Time>2021-10-09T10:01:01.000Z</Time>
            <Position>
              <LatitudeDegrees>39.4440730847418308258056640625</LatitudeDegrees>
              <LongitudeDegrees>-0.664034150540828704833984375</LongitudeDegrees>
            </Position>
            <AltitudeMeters>251.600006103515625</AltitudeMeters>
            <DistanceMeters>69867.349674102</DistanceMeters>
          </Trackpoint>
          <Trackpoint>
            <Time>2021-10-09T10:01:02.000Z</Time>
            <Position>
              <LatitudeDegrees>39.444008208811283111572265625</LatitudeDegrees>
              <LongitudeDegrees>-0.66393834538757801055908203125</LongitudeDegrees>
            </Position>
            <AltitudeMeters>250.600006103515625</AltitudeMeters>
            <DistanceMeters>69878.301271032</DistanceMeters>
          </Trackpoint>
          <Trackpoint>
            <Time>2021-10-09T10:01:04.000Z</Time>
            <Position>
              <LatitudeDegrees>39.4438306801021099090576171875</LatitudeDegrees>
              <LongitudeDegrees>-0.6636737287044525146484375</LongitudeDegrees>
            </Position>
            <AltitudeMeters>248.8000030517578125</AltitudeMeters>
            <DistanceMeters>69908.429984985</DistanceMeters>
          </Trackpoint>
          <Trackpoint>
            <Time>2021-10-09T10:01:06.000Z</Time>
            <Position>
              <LatitudeDegrees>39.4436694122850894927978515625</LatitudeDegrees>
              <LongitudeDegrees>-0.6634321622550487518310546875</LongitudeDegrees>
            </Position>
            <AltitudeMeters>247.399993896484375</AltitudeMeters>
            <DistanceMeters>69935.876259906</DistanceMeters>
          </Trackpoint>
          <Trackpoint>
            <Time>2021-10-09T10:01:09.000Z</Time>
            <Position>
              <LatitudeDegrees>39.443432874977588653564453125</LatitudeDegrees>
              <LongitudeDegrees>-0.66307584755122661590576171875</LongitudeDegrees>
            </Position>
            <AltitudeMeters>246.1999969482421875</AltitudeMeters>
            <DistanceMeters>69976.2629489</DistanceMeters>
          </Trackpoint>
          <Trackpoint>
            <Time>2021-10-09T10:01:10.000Z</Time>
            <Position>
              <LatitudeDegrees>39.443353749811649322509765625</LatitudeDegrees>
              <LongitudeDegrees>-0.66295715980231761932373046875</LongitudeDegrees>
            </Position>
            <AltitudeMeters>244.8000030517578125</AltitudeMeters>
            <DistanceMeters>69989.740001901</DistanceMeters>
          </Trackpoint>
          <Trackpoint>
            <Time>2021-10-09T10:01:11.000Z</Time>
            <Position>
              <LatitudeDegrees>39.44327537901699542999267578125</LatitudeDegrees>
              <LongitudeDegrees>-0.66284182481467723846435546875</LongitudeDegrees>
            </Position>
            <AltitudeMeters>243.8000030517578125</AltitudeMeters>
            <DistanceMeters>70002.944954614</DistanceMeters>
          </Trackpoint>
          <Trackpoint>
            <Time>2021-10-09T10:01:13.000Z</Time>
            <Position>
              <LatitudeDegrees>39.44311830215156078338623046875</LatitudeDegrees>
              <LongitudeDegrees>-0.6626083888113498687744140625</LongitudeDegrees>
            </Position>
            <AltitudeMeters>241.600006103515625</AltitudeMeters>
            <DistanceMeters>70029.557524867</DistanceMeters>
          </Trackpoint>
          <Trackpoint>
            <Time>2021-10-09T10:01:15.000Z</Time>
            <Position>
              <LatitudeDegrees>39.44296072237193584442138671875</LatitudeDegrees>
              <LongitudeDegrees>-0.6623844243586063385009765625</LongitudeDegrees>
            </Position>
            <AltitudeMeters>240</AltitudeMeters>
            <DistanceMeters>70055.599699531</DistanceMeters>
          </Trackpoint>
          <Trackpoint>
            <Time>2021-10-09T10:01:18.000Z</Time>
            <Position>
              <LatitudeDegrees>39.442742206156253814697265625</LatitudeDegrees>
              <LongitudeDegrees>-0.66203196533024311065673828125</LongitudeDegrees>
            </Position>
            <AltitudeMeters>239.1999969482421875</AltitudeMeters>
            <DistanceMeters>70094.449707217</DistanceMeters>
          </Trackpoint>
          <Trackpoint>
            <Time>2021-10-09T10:01:20.000Z</Time>
            <Position>
              <LatitudeDegrees>39.442648328840732574462890625</LatitudeDegrees>
              <LongitudeDegrees>-0.6617480702698230743408203125</LongitudeDegrees>
            </Position>
            <AltitudeMeters>238</AltitudeMeters>
            <DistanceMeters>70120.994497572</DistanceMeters>
          </Trackpoint>
          <Trackpoint>
            <Time>2021-10-09T10:01:21.000Z</Time>
            <Position>
              <LatitudeDegrees>39.4426186569035053253173828125</LatitudeDegrees>
              <LongitudeDegrees>-0.66159308888018131256103515625</LongitudeDegrees>
            </Position>
            <AltitudeMeters>237.399993896484375</AltitudeMeters>
            <DistanceMeters>70134.719197737</DistanceMeters>
          </Trackpoint>
          <Trackpoint>
            <Time>2021-10-09T10:01:22.000Z</Time>
            <Position>
              <LatitudeDegrees>39.442591331899166107177734375</LatitudeDegrees>
              <LongitudeDegrees>-0.661436431109905242919921875</LongitudeDegrees>
            </Position>
            <AltitudeMeters>236.399993896484375</AltitudeMeters>
            <DistanceMeters>70148.523933637</DistanceMeters>
          </Trackpoint>
          <Trackpoint>
            <Time>2021-10-09T10:01:24.000Z</Time>
            <Position>
              <LatitudeDegrees>39.4425378553569316864013671875</LatitudeDegrees>
              <LongitudeDegrees>-0.66113032400608062744140625</LongitudeDegrees>
            </Position>
            <AltitudeMeters>235</AltitudeMeters>
            <DistanceMeters>70175.499806937</DistanceMeters>
          </Trackpoint>
          <Trackpoint>
            <Time>2021-10-09T10:01:26.000Z</Time>
            <Position>
              <LatitudeDegrees>39.44248395971953868865966796875</LatitudeDegrees>
              <LongitudeDegrees>-0.66084190271794795989990234375</LongitudeDegrees>
            </Position>
            <AltitudeMeters>233.1999969482421875</AltitudeMeters>
            <DistanceMeters>70201.006117086</DistanceMeters>
          </Trackpoint>
          <Trackpoint>
            <Time>2021-10-09T10:01:28.000Z</Time>
            <Position>
              <LatitudeDegrees>39.44243668578565120697021484375</LatitudeDegrees>
              <LongitudeDegrees>-0.660572089254856109619140625</LongitudeDegrees>
            </Position>
            <AltitudeMeters>232.1999969482421875</AltitudeMeters>
            <DistanceMeters>70224.787299933</DistanceMeters>
          </Trackpoint>
          <Trackpoint>
            <Time>2021-10-09T10:01:29.000Z</Time>
            <Position>
              <LatitudeDegrees>39.442412964999675750732421875</LatitudeDegrees>
              <LongitudeDegrees>-0.6604431755840778350830078125</LongitudeDegrees>
            </Position>
            <AltitudeMeters>232</AltitudeMeters>
            <DistanceMeters>70236.178621125</DistanceMeters>
          </Trackpoint>
          <Trackpoint>
            <Time>2021-10-09T10:01:31.000Z</Time>
            <Position>
              <LatitudeDegrees>39.44236828945577144622802734375</LatitudeDegrees>
              <LongitudeDegrees>-0.6601989269256591796875</LongitudeDegrees>
            </Position>
            <AltitudeMeters>232</AltitudeMeters>
            <DistanceMeters>70257.75366181</DistanceMeters>
          </Trackpoint>
          <Trackpoint>
            <Time>2021-10-09T10:01:33.000Z</Time>
            <Position>
              <LatitudeDegrees>39.44232881069183349609375</LatitudeDegrees>
              <LongitudeDegrees>-0.6599724479019641876220703125</LongitudeDegrees>
            </Position>
            <AltitudeMeters>232</AltitudeMeters>
            <DistanceMeters>70277.710176823</DistanceMeters>
          </Trackpoint>
          <Trackpoint>
            <Time>2021-10-09T10:01:34.000Z</Time>
            <Position>
              <LatitudeDegrees>39.4423088617622852325439453125</LatitudeDegrees>
              <LongitudeDegrees>-0.65986809320747852325439453125</LongitudeDegrees>
            </Position>
            <AltitudeMeters>232.399993896484375</AltitudeMeters>
            <DistanceMeters>70286.950761375</DistanceMeters>
          </Trackpoint>
          <Trackpoint>
            <Time>2021-10-09T10:01:36.000Z</Time>
            <Position>
              <LatitudeDegrees>39.442256391048431396484375</LatitudeDegrees>
              <LongitudeDegrees>-0.659679584205150604248046875</LongitudeDegrees>
            </Position>
            <AltitudeMeters>232.8000030517578125</AltitudeMeters>
            <DistanceMeters>70304.174468041</DistanceMeters>
          </Trackpoint>
          <Trackpoint>
            <Time>2021-10-09T10:01:38.000Z</Time>
            <Position>
              <LatitudeDegrees>39.442168883979320526123046875</LatitudeDegrees>
              <LongitudeDegrees>-0.659524686634540557861328125</LongitudeDegrees>
            </Position>
            <AltitudeMeters>233.600006103515625</AltitudeMeters>
            <DistanceMeters>70320.670842907</DistanceMeters>
          </Trackpoint>
          <Trackpoint>
            <Time>2021-10-09T10:01:40.000Z</Time>
            <Position>
              <LatitudeDegrees>39.44204558618366718292236328125</LatitudeDegrees>
              <LongitudeDegrees>-0.65943919122219085693359375</LongitudeDegrees>
            </Position>
            <AltitudeMeters>234.600006103515625</AltitudeMeters>
            <DistanceMeters>70336.238411491</DistanceMeters>
          </Trackpoint>
          <Trackpoint>
            <Time>2021-10-09T10:01:41.000Z</Time>
            <Position>
              <LatitudeDegrees>39.441978447139263153076171875</LatitudeDegrees>
              <LongitudeDegrees>-0.659416727721691131591796875</LongitudeDegrees>
            </Position>
            <AltitudeMeters>235.600006103515625</AltitudeMeters>
            <DistanceMeters>70343.957248474</DistanceMeters>
          </Trackpoint>
          <Trackpoint>
            <Time>2021-10-09T10:01:42.000Z</Time>
            <Position>
              <LatitudeDegrees>39.4419108889997005462646484375</LatitudeDegrees>
              <LongitudeDegrees>-0.6593971140682697296142578125</LongitudeDegrees>
            </Position>
            <AltitudeMeters>235.8000030517578125</AltitudeMeters>
            <DistanceMeters>70351.664377826</DistanceMeters>
          </Trackpoint>
          <Trackpoint>
            <Time>2021-10-09T10:01:44.000Z</Time>
            <Position>
              <LatitudeDegrees>39.4417818076908588409423828125</LatitudeDegrees>
              <LongitudeDegrees>-0.6593676097691059112548828125</LongitudeDegrees>
            </Position>
            <AltitudeMeters>236.600006103515625</AltitudeMeters>
            <DistanceMeters>70366.253377168</DistanceMeters>
          </Trackpoint>
          <Trackpoint>
            <Time>2021-10-09T10:01:45.000Z</Time>
            <Position>
              <LatitudeDegrees>39.4417174346745014190673828125</LatitudeDegrees>
              <LongitudeDegrees>-0.65935277380049228668212890625</LongitudeDegrees>
            </Position>
            <AltitudeMeters>237.1999969482421875</AltitudeMeters>
            <DistanceMeters>70373.530835401</DistanceMeters>
          </Trackpoint>
          <Trackpoint>
            <Time>2021-10-09T10:01:46.000Z</Time>
            <Position>
              <LatitudeDegrees>39.44165633060038089752197265625</LatitudeDegrees>
              <LongitudeDegrees>-0.6593394465744495391845703125</LongitudeDegrees>
            </Position>
            <AltitudeMeters>237.600006103515625</AltitudeMeters>
            <DistanceMeters>70380.427968335</DistanceMeters>
          </Trackpoint>
          <Trackpoint>
            <Time>2021-10-09T10:01:48.000Z</Time>
            <Position>
              <LatitudeDegrees>39.441537223756313323974609375</LatitudeDegrees>
              <LongitudeDegrees>-0.65930910408496856689453125</LongitudeDegrees>
            </Position>
            <AltitudeMeters>238.600006103515625</AltitudeMeters>
            <DistanceMeters>70393.93914983</DistanceMeters>
          </Trackpoint>
          <Trackpoint>
            <Time>2021-10-09T10:01:50.000Z</Time>
            <Position>
              <LatitudeDegrees>39.4414207153022289276123046875</LatitudeDegrees>
              <LongitudeDegrees>-0.65928337164223194122314453125</LongitudeDegrees>
            </Position>
            <AltitudeMeters>239.8000030517578125</AltitudeMeters>
            <DistanceMeters>70407.094087495</DistanceMeters>
          </Trackpoint>
          <Trackpoint>
            <Time>2021-10-09T10:01:53.000Z</Time>
            <Position>
              <LatitudeDegrees>39.4412470422685146331787109375</LatitudeDegrees>
              <LongitudeDegrees>-0.65922595560550689697265625</LongitudeDegrees>
            </Position>
            <AltitudeMeters>240.8000030517578125</AltitudeMeters>
            <DistanceMeters>70427.044266676</DistanceMeters>
          </Trackpoint>
          <Trackpoint>
            <Time>2021-10-09T10:01:54.000Z</Time>
            <Position>
              <LatitudeDegrees>39.441193901002407073974609375</LatitudeDegrees>
              <LongitudeDegrees>-0.65920072607696056365966796875</LongitudeDegrees>
            </Position>
            <AltitudeMeters>241.1999969482421875</AltitudeMeters>
            <DistanceMeters>70433.343326598</DistanceMeters>
          </Trackpoint>
          <Trackpoint>
            <Time>2021-10-09T10:01:55.000Z</Time>
            <Position>
              <LatitudeDegrees>39.44114134646952152252197265625</LatitudeDegrees>
              <LongitudeDegrees>-0.65917432308197021484375</LongitudeDegrees>
            </Position>
            <AltitudeMeters>241.600006103515625</AltitudeMeters>
            <DistanceMeters>70439.617968683</DistanceMeters>
          </Trackpoint>
          <Trackpoint>
            <Time>2021-10-09T10:01:58.000Z</Time>
            <Position>
              <LatitudeDegrees>39.44099508225917816162109375</LatitudeDegrees>
              <LongitudeDegrees>-0.65907265059649944305419921875</LongitudeDegrees>
            </Position>
            <AltitudeMeters>242</AltitudeMeters>
            <DistanceMeters>70458.094739776</DistanceMeters>
          </Trackpoint>
          <Trackpoint>
            <Time>2021-10-09T10:01:59.000Z</Time>
            <Position>
              <LatitudeDegrees>39.44094479084014892578125</LatitudeDegrees>
              <LongitudeDegrees>-0.659034512937068939208984375</LongitudeDegrees>
            </Position>
            <AltitudeMeters>242.1999969482421875</AltitudeMeters>
            <DistanceMeters>70464.580269521</DistanceMeters>
          </Trackpoint>
          <Trackpoint>
            <Time>2021-10-09T10:02:07.000Z</Time>
            <Position>
              <LatitudeDegrees>39.44052745588123798370361328125</LatitudeDegrees>
              <LongitudeDegrees>-0.65869915299117565155029296875</LongitudeDegrees>
            </Position>
            <AltitudeMeters>243</AltitudeMeters>
            <DistanceMeters>70519.24813979</DistanceMeters>
          </Trackpoint>
          <Trackpoint>
            <Time>2021-10-09T10:02:13.000Z</Time>
            <Position>
              <LatitudeDegrees>39.4401788525283336639404296875</LatitudeDegrees>
              <LongitudeDegrees>-0.6584326922893524169921875</LongitudeDegrees>
            </Position>
            <AltitudeMeters>243</AltitudeMeters>
            <DistanceMeters>70564.304232446</DistanceMeters>
          </Trackpoint>
          <Trackpoint>
            <Time>2021-10-09T10:02:14.000Z</Time>
            <Position>
              <LatitudeDegrees>39.4401107914745807647705078125</LatitudeDegrees>
              <LongitudeDegrees>-0.65839706920087337493896484375</LongitudeDegrees>
            </Position>
            <AltitudeMeters>243</AltitudeMeters>
            <DistanceMeters>70572.474319659</DistanceMeters>
          </Trackpoint>
          <Trackpoint>
            <Time>2021-10-09T10:02:17.000Z</Time>
            <Position>
              <LatitudeDegrees>39.43988540209829807281494140625</LatitudeDegrees>
              <LongitudeDegrees>-0.65835230983793735504150390625</LongitudeDegrees>
            </Position>
            <AltitudeMeters>242.399993896484375</AltitudeMeters>
            <DistanceMeters>70597.853747406</DistanceMeters>
          </Trackpoint>
          <Trackpoint>
            <Time>2021-10-09T10:02:20.000Z</Time>
            <Position>
              <LatitudeDegrees>39.4396420754492282867431640625</LatitudeDegrees>
              <LongitudeDegrees>-0.6583487056195735931396484375</LongitudeDegrees>
            </Position>
            <AltitudeMeters>241.8000030517578125</AltitudeMeters>
            <DistanceMeters>70624.938194788</DistanceMeters>
          </Trackpoint>
          <Trackpoint>
            <Time>2021-10-09T10:02:23.000Z</Time>
            <Position>
              <LatitudeDegrees>39.43938852287828922271728515625</LatitudeDegrees>
              <LongitudeDegrees>-0.65835214219987392425537109375</LongitudeDegrees>
            </Position>
            <AltitudeMeters>241.399993896484375</AltitudeMeters>
            <DistanceMeters>70653.160649019</DistanceMeters>
          </Trackpoint>
          <Trackpoint>
            <Time>2021-10-09T10:02:24.000Z</Time>
            <Position>
              <LatitudeDegrees>39.43930269218981266021728515625</LatitudeDegrees>
              <LongitudeDegrees>-0.658353902399539947509765625</LongitudeDegrees>
            </Position>
            <AltitudeMeters>241</AltitudeMeters>
            <DistanceMeters>70662.714497076</DistanceMeters>
          </Trackpoint>
          <Trackpoint>
            <Time>2021-10-09T10:02:26.000Z</Time>
            <Position>
              <LatitudeDegrees>39.4391287676990032196044921875</LatitudeDegrees>
              <LongitudeDegrees>-0.65835021436214447021484375</LongitudeDegrees>
            </Position>
            <AltitudeMeters>240.399993896484375</AltitudeMeters>
            <DistanceMeters>70682.075242754</DistanceMeters>
          </Trackpoint>
          <Trackpoint>
            <Time>2021-10-09T10:02:27.000Z</Time>
            <Position>
              <LatitudeDegrees>39.43904419429600238800048828125</LatitudeDegrees>
              <LongitudeDegrees>-0.65833655185997486114501953125</LongitudeDegrees>
            </Position>
            <AltitudeMeters>239.8000030517578125</AltitudeMeters>
            <DistanceMeters>70691.56079396</DistanceMeters>
          </Trackpoint>
          <Trackpoint>
            <Time>2021-10-09T10:02:29.000Z</Time>
            <Position>
              <LatitudeDegrees>39.43888862617313861846923828125</LatitudeDegrees>
              <LongitudeDegrees>-0.65826899372041225433349609375</LongitudeDegrees>
            </Position>
            <AltitudeMeters>239.399993896484375</AltitudeMeters>
            <DistanceMeters>70709.823484711</DistanceMeters>
          </Trackpoint>
          <Trackpoint>
            <Time>2021-10-09T10:02:31.000Z</Time>
            <Position>
              <LatitudeDegrees>39.43875677883625030517578125</LatitudeDegrees>
              <LongitudeDegrees>-0.6581542454659938812255859375</LongitudeDegrees>
            </Position>
            <AltitudeMeters>239.399993896484375</AltitudeMeters>
            <DistanceMeters>70727.505604685</DistanceMeters>
          </Trackpoint>
          <Trackpoint>
            <Time>2021-10-09T10:02:32.000Z</Time>
            <Position>
              <LatitudeDegrees>39.43870137445628643035888671875</LatitudeDegrees>
              <LongitudeDegrees>-0.65808199346065521240234375</LongitudeDegrees>
            </Position>
            <AltitudeMeters>239.399993896484375</AltitudeMeters>
            <DistanceMeters>70736.258385303</DistanceMeters>
          </Trackpoint>
          <Trackpoint>
            <Time>2021-10-09T10:02:37.000Z</Time>
            <Position>
              <LatitudeDegrees>39.43848277442157268524169921875</LatitudeDegrees>
              <LongitudeDegrees>-0.65770103596150875091552734375</LongitudeDegrees>
            </Position>
            <AltitudeMeters>239.1999969482421875</AltitudeMeters>
            <DistanceMeters>70777.054406301</DistanceMeters>
          </Trackpoint>
          <Trackpoint>
            <Time>2021-10-09T10:02:38.000Z</Time>
            <Position>
              <LatitudeDegrees>39.43843633867800235748291015625</LatitudeDegrees>
              <LongitudeDegrees>-0.65763398073613643646240234375</LongitudeDegrees>
            </Position>
            <AltitudeMeters>239.600006103515625</AltitudeMeters>
            <DistanceMeters>70784.796605435</DistanceMeters>
          </Trackpoint>
          <Trackpoint>
            <Time>2021-10-09T10:02:40.000Z</Time>
            <Position>
              <LatitudeDegrees>39.4383291341364383697509765625</LatitudeDegrees>
              <LongitudeDegrees>-0.657529123127460479736328125</LongitudeDegrees>
            </Position>
            <AltitudeMeters>240.1999969482421875</AltitudeMeters>
            <DistanceMeters>70799.75056187</DistanceMeters>
          </Trackpoint>
          <Trackpoint>
            <Time>2021-10-09T10:02:41.000Z</Time>
            <Position>
              <LatitudeDegrees>39.438270293176174163818359375</LatitudeDegrees>
              <LongitudeDegrees>-0.65749014727771282196044921875</LongitudeDegrees>
            </Position>
            <AltitudeMeters>240.399993896484375</AltitudeMeters>
            <DistanceMeters>70807.107618225</DistanceMeters>
          </Trackpoint>
          <Trackpoint>
            <Time>2021-10-09T10:02:45.000Z</Time>
            <Position>
              <LatitudeDegrees>39.43803803063929080963134765625</LatitudeDegrees>
              <LongitudeDegrees>-0.65737967379391193389892578125</LongitudeDegrees>
            </Position>
            <AltitudeMeters>241</AltitudeMeters>
            <DistanceMeters>70834.647829022</DistanceMeters>
          </Trackpoint>
          <Trackpoint>
            <Time>2021-10-09T10:02:46.000Z</Time>
            <Position>
              <LatitudeDegrees>39.43797893822193145751953125</LatitudeDegrees>
              <LongitudeDegrees>-0.657356120645999908447265625</LongitudeDegrees>
            </Position>
            <AltitudeMeters>241.1999969482421875</AltitudeMeters>
            <DistanceMeters>70841.529233012</DistanceMeters>
          </Trackpoint>
          <Trackpoint>
            <Time>2021-10-09T10:02:52.000Z</Time>
            <Position>
              <LatitudeDegrees>39.4376408122479915618896484375</LatitudeDegrees>
              <LongitudeDegrees>-0.65725377760827541351318359375</LongitudeDegrees>
            </Position>
            <AltitudeMeters>242.1999969482421875</AltitudeMeters>
            <DistanceMeters>70880.177895667</DistanceMeters>
          </Trackpoint>
          <Trackpoint>
            <Time>2021-10-09T10:02:59.000Z</Time>
            <Position>
              <LatitudeDegrees>39.43722548894584178924560546875</LatitudeDegrees>
              <LongitudeDegrees>-0.65721672959625720977783203125</LongitudeDegrees>
            </Position>
            <AltitudeMeters>243.1999969482421875</AltitudeMeters>
            <DistanceMeters>70926.51372452</DistanceMeters>
          </Trackpoint>
          <Trackpoint>
            <Time>2021-10-09T10:03:06.000Z</Time>
            <Position>
              <LatitudeDegrees>39.43671804852783679962158203125</LatitudeDegrees>
              <LongitudeDegrees>-0.65717163495719432830810546875</LongitudeDegrees>
            </Position>
            <AltitudeMeters>242.600006103515625</AltitudeMeters>
            <DistanceMeters>70983.125725114</DistanceMeters>
          </Trackpoint>
          <Trackpoint>
            <Time>2021-10-09T10:03:10.000Z</Time>
            <Position>
              <LatitudeDegrees>39.4364314712584018707275390625</LatitudeDegrees>
              <LongitudeDegrees>-0.65709183923900127410888671875</LongitudeDegrees>
            </Position>
            <AltitudeMeters>242</AltitudeMeters>
            <DistanceMeters>71015.751456079</DistanceMeters>
          </Trackpoint>
          <Trackpoint>
            <Time>2021-10-09T10:03:11.000Z</Time>
            <Position>
              <LatitudeDegrees>39.43636424839496612548828125</LatitudeDegrees>
              <LongitudeDegrees>-0.6570568867027759552001953125</LongitudeDegrees>
            </Position>
            <AltitudeMeters>241.8000030517578125</AltitudeMeters>
            <DistanceMeters>71023.814740174</DistanceMeters>
          </Trackpoint>
          <Trackpoint>
            <Time>2021-10-09T10:03:13.000Z</Time>
            <Position>
              <LatitudeDegrees>39.4362323172390460968017578125</LatitudeDegrees>
              <LongitudeDegrees>-0.65697516314685344696044921875</LongitudeDegrees>
            </Position>
            <AltitudeMeters>241.8000030517578125</AltitudeMeters>
            <DistanceMeters>71040.092902329</DistanceMeters>
          </Trackpoint>
          <Trackpoint>
            <Time>2021-10-09T10:03:15.000Z</Time>
            <Position>
              <LatitudeDegrees>39.43611371330916881561279296875</LatitudeDegrees>
              <LongitudeDegrees>-0.6568644382059574127197265625</LongitudeDegrees>
            </Position>
            <AltitudeMeters>241.8000030517578125</AltitudeMeters>
            <DistanceMeters>71056.367180873</DistanceMeters>
          </Trackpoint>
          <Trackpoint>
            <Time>2021-10-09T10:03:21.000Z</Time>
            <Position>
              <LatitudeDegrees>39.4357820414006710052490234375</LatitudeDegrees>
              <LongitudeDegrees>-0.65649387426674365997314453125</LongitudeDegrees>
            </Position>
            <AltitudeMeters>241.8000030517578125</AltitudeMeters>
            <DistanceMeters>71105.12672052</DistanceMeters>
          </Trackpoint>
          <Trackpoint>
            <Time>2021-10-09T10:03:23.000Z</Time>
            <Position>
              <LatitudeDegrees>39.4356600008904933929443359375</LatitudeDegrees>
              <LongitudeDegrees>-0.656393207609653472900390625</LongitudeDegrees>
            </Position>
            <AltitudeMeters>241.8000030517578125</AltitudeMeters>
            <DistanceMeters>71121.232557224</DistanceMeters>
          </Trackpoint>
          <Trackpoint>
            <Time>2021-10-09T10:03:26.000Z</Time>
            <Position>
              <LatitudeDegrees>39.43545841611921787261962890625</LatitudeDegrees>
              <LongitudeDegrees>-0.65627552568912506103515625</LongitudeDegrees>
            </Position>
            <AltitudeMeters>241.8000030517578125</AltitudeMeters>
            <DistanceMeters>71145.844292796</DistanceMeters>
          </Trackpoint>
          <Trackpoint>
            <Time>2021-10-09T10:03:30.000Z</Time>
            <Position>
              <LatitudeDegrees>39.43519505672156810760498046875</LatitudeDegrees>
              <LongitudeDegrees>-0.656119622290134429931640625</LongitudeDegrees>
            </Position>
            <AltitudeMeters>242</AltitudeMeters>
            <DistanceMeters>71178.07530355</DistanceMeters>
          </Trackpoint>
          <Trackpoint>
            <Time>2021-10-09T10:03:37.000Z</Time>
            <Position>
              <LatitudeDegrees>39.43475752137601375579833984375</LatitudeDegrees>
              <LongitudeDegrees>-0.6558550894260406494140625</LongitudeDegrees>
            </Position>
            <AltitudeMeters>242.1999969482421875</AltitudeMeters>
            <DistanceMeters>71231.821626904</DistanceMeters>
          </Trackpoint>
          <Trackpoint>
            <Time>2021-10-09T10:03:45.000Z</Time>
            <Position>
              <LatitudeDegrees>39.434276483952999114990234375</LatitudeDegrees>
              <LongitudeDegrees>-0.65556549467146396636962890625</LongitudeDegrees>
            </Position>
            <AltitudeMeters>242.8000030517578125</AltitudeMeters>
            <DistanceMeters>71290.866795322</DistanceMeters>
          </Trackpoint>
          <Trackpoint>
            <Time>2021-10-09T10:03:50.000Z</Time>
            <Position>
              <LatitudeDegrees>39.43399761803448200225830078125</LatitudeDegrees>
              <LongitudeDegrees>-0.65539550967514514923095703125</LongitudeDegrees>
            </Position>
            <AltitudeMeters>243.600006103515625</AltitudeMeters>
            <DistanceMeters>71325.172886954</DistanceMeters>
          </Trackpoint>
          <Trackpoint>
            <Time>2021-10-09T10:03:53.000Z</Time>
            <Position>
              <LatitudeDegrees>39.43384297192096710205078125</LatitudeDegrees>
              <LongitudeDegrees>-0.6552799232304096221923828125</LongitudeDegrees>
            </Position>
            <AltitudeMeters>244</AltitudeMeters>
            <DistanceMeters>71345.047332954</DistanceMeters>
          </Trackpoint>
          <Trackpoint>
            <Time>2021-10-09T10:04:01.000Z</Time>
            <Position>
              <LatitudeDegrees>39.43340283818542957305908203125</LatitudeDegrees>
              <LongitudeDegrees>-0.65484582446515560150146484375</LongitudeDegrees>
            </Position>
            <AltitudeMeters>244.399993896484375</AltitudeMeters>
            <DistanceMeters>71406.629776268</DistanceMeters>
          </Trackpoint>
          <Trackpoint>
            <Time>2021-10-09T10:04:05.000Z</Time>
            <Position>
              <LatitudeDegrees>39.433162026107311248779296875</LatitudeDegrees>
              <LongitudeDegrees>-0.6546187587082386016845703125</LongitudeDegrees>
            </Position>
            <AltitudeMeters>244.600006103515625</AltitudeMeters>
            <DistanceMeters>71439.787155644</DistanceMeters>
          </Trackpoint>
          <Trackpoint>
            <Time>2021-10-09T10:04:07.000Z</Time>
            <Position>
              <LatitudeDegrees>39.4330257363617420196533203125</LatitudeDegrees>
              <LongitudeDegrees>-0.65452446229755878448486328125</LongitudeDegrees>
            </Position>
            <AltitudeMeters>244.1999969482421875</AltitudeMeters>
            <DistanceMeters>71456.986728438</DistanceMeters>
          </Trackpoint>
          <Trackpoint>
            <Time>2021-10-09T10:04:10.000Z</Time>
            <Position>
              <LatitudeDegrees>39.43279012106359004974365234375</LatitudeDegrees>
              <LongitudeDegrees>-0.65445698797702789306640625</LongitudeDegrees>
            </Position>
            <AltitudeMeters>243.600006103515625</AltitudeMeters>
            <DistanceMeters>71483.844848749</DistanceMeters>
          </Trackpoint>
          <Trackpoint>
            <Time>2021-10-09T10:04:11.000Z</Time>
            <Position>
              <LatitudeDegrees>39.43270630203187465667724609375</LatitudeDegrees>
              <LongitudeDegrees>-0.6544517911970615386962890625</LongitudeDegrees>
            </Position>
            <AltitudeMeters>242.8000030517578125</AltitudeMeters>
            <DistanceMeters>71493.184577784</DistanceMeters>
          </Trackpoint>
          <Trackpoint>
            <Time>2021-10-09T10:04:12.000Z</Time>
            <Position>
              <LatitudeDegrees>39.43261929787695407867431640625</LatitudeDegrees>
              <LongitudeDegrees>-0.65445019863545894622802734375</LongitudeDegrees>
            </Position>
            <AltitudeMeters>242.1999969482421875</AltitudeMeters>
            <DistanceMeters>71502.86891431</DistanceMeters>
          </Trackpoint>
          <Trackpoint>
            <Time>2021-10-09T10:04:15.000Z</Time>
            <Position>
              <LatitudeDegrees>39.432348310947418212890625</LatitudeDegrees>
              <LongitudeDegrees>-0.6544521264731884002685546875</LongitudeDegrees>
            </Position>
            <AltitudeMeters>241</AltitudeMeters>
            <DistanceMeters>71533.030579073</DistanceMeters>
          </Trackpoint>
          <Trackpoint>
            <Time>2021-10-09T10:04:17.000Z</Time>
            <Position>
              <LatitudeDegrees>39.43216466344892978668212890625</LatitudeDegrees>
              <LongitudeDegrees>-0.6544538028538227081298828125</LongitudeDegrees>
            </Position>
            <AltitudeMeters>240.399993896484375</AltitudeMeters>
            <DistanceMeters>71553.471264899</DistanceMeters>
          </Trackpoint>
          <Trackpoint>
            <Time>2021-10-09T10:04:19.000Z</Time>
            <Position>
              <LatitudeDegrees>39.43198797293007373809814453125</LatitudeDegrees>
              <LongitudeDegrees>-0.65445707179605960845947265625</LongitudeDegrees>
            </Position>
            <AltitudeMeters>239.8000030517578125</AltitudeMeters>
            <DistanceMeters>71573.139269748</DistanceMeters>
          </Trackpoint>
          <Trackpoint>
            <Time>2021-10-09T10:04:20.000Z</Time>
            <Position>
              <LatitudeDegrees>39.43190314806997776031494140625</LatitudeDegrees>
              <LongitudeDegrees>-0.65445472486317157745361328125</LongitudeDegrees>
            </Position>
            <AltitudeMeters>239.1999969482421875</AltitudeMeters>
            <DistanceMeters>71582.582840839</DistanceMeters>
          </Trackpoint>
          <Trackpoint>
            <Time>2021-10-09T10:04:22.000Z</Time>
            <Position>
              <LatitudeDegrees>39.43174355663359165191650390625</LatitudeDegrees>
              <LongitudeDegrees>-0.6544001586735248565673828125</LongitudeDegrees>
            </Position>
            <AltitudeMeters>238.8000030517578125</AltitudeMeters>
            <DistanceMeters>71600.954726897</DistanceMeters>
          </Trackpoint>
          <Trackpoint>
            <Time>2021-10-09T10:04:24.000Z</Time>
            <Position>
              <LatitudeDegrees>39.43160592578351497650146484375</LatitudeDegrees>
              <LongitudeDegrees>-0.6542851589620113372802734375</LongitudeDegrees>
            </Position>
            <AltitudeMeters>238.600006103515625</AltitudeMeters>
            <DistanceMeters>71619.186735672</DistanceMeters>
          </Trackpoint>
          <Trackpoint>
            <Time>2021-10-09T10:04:25.000Z</Time>
            <Position>
              <LatitudeDegrees>39.43154507316648960113525390625</LatitudeDegrees>
              <LongitudeDegrees>-0.65421332605183124542236328125</LongitudeDegrees>
            </Position>
            <AltitudeMeters>238.399993896484375</AltitudeMeters>
            <DistanceMeters>71628.352750686</DistanceMeters>
          </Trackpoint>
          <Trackpoint>
            <Time>2021-10-09T10:04:30.000Z</Time>
            <Position>
              <LatitudeDegrees>39.4312631897628307342529296875</LatitudeDegrees>
              <LongitudeDegrees>-0.65389581955969333648681640625</LongitudeDegrees>
            </Position>
            <AltitudeMeters>238.1999969482421875</AltitudeMeters>
            <DistanceMeters>71669.938421294</DistanceMeters>
          </Trackpoint>
          <Trackpoint>
            <Time>2021-10-09T10:04:35.000Z</Time>
            <Position>
              <LatitudeDegrees>39.43100745789706707000732421875</LatitudeDegrees>
              <LongitudeDegrees>-0.6536022014915943145751953125</LongitudeDegrees>
            </Position>
            <AltitudeMeters>238.399993896484375</AltitudeMeters>
            <DistanceMeters>71707.982114494</DistanceMeters>
          </Trackpoint>
          <Trackpoint>
            <Time>2021-10-09T10:04:38.000Z</Time>
            <Position>
              <LatitudeDegrees>39.43085926584899425506591796875</LatitudeDegrees>
              <LongitudeDegrees>-0.653431713581085205078125</LongitudeDegrees>
            </Position>
            <AltitudeMeters>238.8000030517578125</AltitudeMeters>
            <DistanceMeters>71730.047350311</DistanceMeters>
          </Trackpoint>
          <Trackpoint>
            <Time>2021-10-09T10:04:42.000Z</Time>
            <Position>
              <LatitudeDegrees>39.4306660629808902740478515625</LatitudeDegrees>
              <LongitudeDegrees>-0.6532119400799274444580078125</LongitudeDegrees>
            </Position>
            <AltitudeMeters>239.8000030517578125</AltitudeMeters>
            <DistanceMeters>71758.672324311</DistanceMeters>
          </Trackpoint>
          <Trackpoint>
            <Time>2021-10-09T10:04:45.000Z</Time>
            <Position>
              <LatitudeDegrees>39.43052046932280063629150390625</LatitudeDegrees>
              <LongitudeDegrees>-0.653048492968082427978515625</LongitudeDegrees>
            </Position>
            <AltitudeMeters>240.1999969482421875</AltitudeMeters>
            <DistanceMeters>71780.120803148</DistanceMeters>
          </Trackpoint>
          <Trackpoint>
            <Time>2021-10-09T10:04:47.000Z</Time>
            <Position>
              <LatitudeDegrees>39.4304125942289829254150390625</LatitudeDegrees>
              <LongitudeDegrees>-0.65295721404254436492919921875</LongitudeDegrees>
            </Position>
            <AltitudeMeters>240.600006103515625</AltitudeMeters>
            <DistanceMeters>71794.464486835</DistanceMeters>
          </Trackpoint>
          <Trackpoint>
            <Time>2021-10-09T10:04:50.000Z</Time>
            <Position>
              <LatitudeDegrees>39.43023950792849063873291015625</LatitudeDegrees>
              <LongitudeDegrees>-0.6528511829674243927001953125</LongitudeDegrees>
            </Position>
            <AltitudeMeters>241</AltitudeMeters>
            <DistanceMeters>71815.776968511</DistanceMeters>
          </Trackpoint>
          <Trackpoint>
            <Time>2021-10-09T10:04:51.000Z</Time>
            <Position>
              <LatitudeDegrees>39.43018016405403614044189453125</LatitudeDegrees>
              <LongitudeDegrees>-0.65282142721116542816162109375</LongitudeDegrees>
            </Position>
            <AltitudeMeters>241.399993896484375</AltitudeMeters>
            <DistanceMeters>71822.860762325</DistanceMeters>
          </Trackpoint>
          <Trackpoint>
            <Time>2021-10-09T10:04:54.000Z</Time>
            <Position>
              <LatitudeDegrees>39.43000397644937038421630859375</LatitudeDegrees>
              <LongitudeDegrees>-0.6527351774275302886962890625</LongitudeDegrees>
            </Position>
            <AltitudeMeters>241.8000030517578125</AltitudeMeters>
            <DistanceMeters>71843.825731699</DistanceMeters>
          </Trackpoint>
          <Trackpoint>
            <Time>2021-10-09T10:04:57.000Z</Time>
            <Position>
              <LatitudeDegrees>39.42982158623635768890380859375</LatitudeDegrees>
              <LongitudeDegrees>-0.6526525318622589111328125</LongitudeDegrees>
            </Position>
            <AltitudeMeters>242.1999969482421875</AltitudeMeters>
            <DistanceMeters>71865.333491368</DistanceMeters>
          </Trackpoint>
          <Trackpoint>
            <Time>2021-10-09T10:05:00.000Z</Time>
            <Position>
              <LatitudeDegrees>39.42963550798594951629638671875</LatitudeDegrees>
              <LongitudeDegrees>-0.65256309695541858673095703125</LongitudeDegrees>
            </Position>
            <AltitudeMeters>242.399993896484375</AltitudeMeters>
            <DistanceMeters>71887.425516437</DistanceMeters>
          </Trackpoint>
          <Trackpoint>
            <Time>2021-10-09T10:05:08.000Z</Time>
            <Position>
              <LatitudeDegrees>39.429127983748912811279296875</LatitudeDegrees>
              <LongitudeDegrees>-0.65231792628765106201171875</LongitudeDegrees>
            </Position>
            <AltitudeMeters>242.600006103515625</AltitudeMeters>
            <DistanceMeters>71947.718150761</DistanceMeters>
          </Trackpoint>
          <Trackpoint>
            <Time>2021-10-09T10:05:09.000Z</Time>
            <Position>
              <LatitudeDegrees>39.42906319163739681243896484375</LatitudeDegrees>
              <LongitudeDegrees>-0.65228817053139209747314453125</LongitudeDegrees>
            </Position>
            <AltitudeMeters>242.600006103515625</AltitudeMeters>
            <DistanceMeters>71955.370014303</DistanceMeters>
          </Trackpoint>
          <Trackpoint>
            <Time>2021-10-09T10:05:17.000Z</Time>
            <Position>
              <LatitudeDegrees>39.42854032851755619049072265625</LatitudeDegrees>
              <LongitudeDegrees>-0.6520773656666278839111328125</LongitudeDegrees>
            </Position>
            <AltitudeMeters>242.1999969482421875</AltitudeMeters>
            <DistanceMeters>72016.32237415</DistanceMeters>
          </Trackpoint>
          <Trackpoint>
            <Time>2021-10-09T10:05:25.000Z</Time>
            <Position>
              <LatitudeDegrees>39.428002126514911651611328125</LatitudeDegrees>
              <LongitudeDegrees>-0.6519744358956813812255859375</LongitudeDegrees>
            </Position>
            <AltitudeMeters>242.600006103515625</AltitudeMeters>
            <DistanceMeters>72076.875347158</DistanceMeters>
          </Trackpoint>
          <Trackpoint>
            <Time>2021-10-09T10:05:33.000Z</Time>
            <Position>
              <LatitudeDegrees>39.42745705135166645050048828125</LatitudeDegrees>
              <LongitudeDegrees>-0.6518104858696460723876953125</LongitudeDegrees>
            </Position>
            <AltitudeMeters>242.600006103515625</AltitudeMeters>
            <DistanceMeters>72139.159106356</DistanceMeters>
          </Trackpoint>
          <Trackpoint>
            <Time>2021-10-09T10:05:39.000Z</Time>
            <Position>
              <LatitudeDegrees>39.427009038627147674560546875</LatitudeDegrees>
              <LongitudeDegrees>-0.6515982560813426971435546875</LongitudeDegrees>
            </Position>
            <AltitudeMeters>242.1999969482421875</AltitudeMeters>
            <DistanceMeters>72192.257275983</DistanceMeters>
          </Trackpoint>
          <Trackpoint>
            <Time>2021-10-09T10:05:42.000Z</Time>
            <Position>
              <LatitudeDegrees>39.42676864564418792724609375</LatitudeDegrees>
              <LongitudeDegrees>-0.65148769877851009368896484375</LongitudeDegrees>
            </Position>
            <AltitudeMeters>241</AltitudeMeters>
            <DistanceMeters>72220.65166531</DistanceMeters>
          </Trackpoint>
          <Trackpoint>
            <Time>2021-10-09T10:05:46.000Z</Time>
            <Position>
              <LatitudeDegrees>39.42643043585121631622314453125</LatitudeDegrees>
              <LongitudeDegrees>-0.65133447758853435516357421875</LongitudeDegrees>
            </Position>
            <AltitudeMeters>239.8000030517578125</AltitudeMeters>
            <DistanceMeters>72260.533461469</DistanceMeters>
          </Trackpoint>
          <Trackpoint>
            <Time>2021-10-09T10:05:49.000Z</Time>
            <Position>
              <LatitudeDegrees>39.426158107817173004150390625</LatitudeDegrees>
              <LongitudeDegrees>-0.6512113474309444427490234375</LongitudeDegrees>
            </Position>
            <AltitudeMeters>238.600006103515625</AltitudeMeters>
            <DistanceMeters>72292.639555691</DistanceMeters>
          </Trackpoint>
          <Trackpoint>
            <Time>2021-10-09T10:05:52.000Z</Time>
            <Position>
              <LatitudeDegrees>39.4258907251060009002685546875</LatitudeDegrees>
              <LongitudeDegrees>-0.6510775722563266754150390625</LongitudeDegrees>
            </Position>
            <AltitudeMeters>237.600006103515625</AltitudeMeters>
            <DistanceMeters>72324.545049223</DistanceMeters>
          </Trackpoint>
          <Trackpoint>
            <Time>2021-10-09T10:05:54.000Z</Time>
            <Position>
              <LatitudeDegrees>39.42571730352938175201416015625</LatitudeDegrees>
              <LongitudeDegrees>-0.65098713152110576629638671875</LongitudeDegrees>
            </Position>
            <AltitudeMeters>237</AltitudeMeters>
            <DistanceMeters>72345.354380923</DistanceMeters>
          </Trackpoint>
          <Trackpoint>
            <Time>2021-10-09T10:05:56.000Z</Time>
            <Position>
              <LatitudeDegrees>39.42554715089499950408935546875</LatitudeDegrees>
              <LongitudeDegrees>-0.65089878626167774200439453125</LongitudeDegrees>
            </Position>
            <AltitudeMeters>236.8000030517578125</AltitudeMeters>
            <DistanceMeters>72365.759030751</DistanceMeters>
          </Trackpoint>
          <Trackpoint>
            <Time>2021-10-09T10:05:58.000Z</Time>
            <Position>
              <LatitudeDegrees>39.42538219504058361053466796875</LatitudeDegrees>
              <LongitudeDegrees>-0.65081723034381866455078125</LongitudeDegrees>
            </Position>
            <AltitudeMeters>236.399993896484375</AltitudeMeters>
            <DistanceMeters>72385.412338102</DistanceMeters>
          </Trackpoint>
          <Trackpoint>
            <Time>2021-10-09T10:06:01.000Z</Time>
            <Position>
              <LatitudeDegrees>39.42513777874410152435302734375</LatitudeDegrees>
              <LongitudeDegrees>-0.650688149034976959228515625</LongitudeDegrees>
            </Position>
            <AltitudeMeters>235.8000030517578125</AltitudeMeters>
            <DistanceMeters>72414.792809465</DistanceMeters>
          </Trackpoint>
          <Trackpoint>
            <Time>2021-10-09T10:06:03.000Z</Time>
            <Position>
              <LatitudeDegrees>39.42497164942324161529541015625</LatitudeDegrees>
              <LongitudeDegrees>-0.6506031565368175506591796875</LongitudeDegrees>
            </Position>
            <AltitudeMeters>235.1999969482421875</AltitudeMeters>
            <DistanceMeters>72434.674750927</DistanceMeters>
          </Trackpoint>
          <Trackpoint>
            <Time>2021-10-09T10:06:10.000Z</Time>
            <Position>
              <LatitudeDegrees>39.424395225942134857177734375</LatitudeDegrees>
              <LongitudeDegrees>-0.6503050960600376129150390625</LongitudeDegrees>
            </Position>
            <AltitudeMeters>234.399993896484375</AltitudeMeters>
            <DistanceMeters>72503.760414016</DistanceMeters>
          </Trackpoint>
          <Trackpoint>
            <Time>2021-10-09T10:06:11.000Z</Time>
            <Position>
              <LatitudeDegrees>39.42431501112878322601318359375</LatitudeDegrees>
              <LongitudeDegrees>-0.6502675451338291168212890625</LongitudeDegrees>
            </Position>
            <AltitudeMeters>234.1999969482421875</AltitudeMeters>
            <DistanceMeters>72513.254529196</DistanceMeters>
          </Trackpoint>
          <Trackpoint>
            <Time>2021-10-09T10:06:12.000Z</Time>
            <Position>
              <LatitudeDegrees>39.4242374785244464874267578125</LatitudeDegrees>
              <LongitudeDegrees>-0.65022739581763744354248046875</LongitudeDegrees>
            </Position>
            <AltitudeMeters>234</AltitudeMeters>
            <DistanceMeters>72522.549191177</DistanceMeters>
          </Trackpoint>
          <Trackpoint>
            <Time>2021-10-09T10:06:16.000Z</Time>
            <Position>
              <LatitudeDegrees>39.42393028177320957183837890625</LatitudeDegrees>
              <LongitudeDegrees>-0.6500776112079620361328125</LongitudeDegrees>
            </Position>
            <AltitudeMeters>233.399993896484375</AltitudeMeters>
            <DistanceMeters>72559.08569622</DistanceMeters>
          </Trackpoint>
          <Trackpoint>
            <Time>2021-10-09T10:06:18.000Z</Time>
            <Position>
              <LatitudeDegrees>39.4237717799842357635498046875</LatitudeDegrees>
              <LongitudeDegrees>-0.65000326372683048248291015625</LongitudeDegrees>
            </Position>
            <AltitudeMeters>233</AltitudeMeters>
            <DistanceMeters>72577.849562574</DistanceMeters>
          </Trackpoint>
          <Trackpoint>
            <Time>2021-10-09T10:06:22.000Z</Time>
            <Position>
              <LatitudeDegrees>39.4234304688870906829833984375</LatitudeDegrees>
              <LongitudeDegrees>-0.6498335301876068115234375</LongitudeDegrees>
            </Position>
            <AltitudeMeters>232</AltitudeMeters>
            <DistanceMeters>72618.544746068</DistanceMeters>
          </Trackpoint>
          <Trackpoint>
            <Time>2021-10-09T10:06:24.000Z</Time>
            <Position>
              <LatitudeDegrees>39.42326224409043788909912109375</LatitudeDegrees>
              <LongitudeDegrees>-0.64974979497492313385009765625</LongitudeDegrees>
            </Position>
            <AltitudeMeters>230</AltitudeMeters>
            <DistanceMeters>72638.604838206</DistanceMeters>
          </Trackpoint>
          <Trackpoint>
            <Time>2021-10-09T10:06:26.000Z</Time>
            <Position>
              <LatitudeDegrees>39.42311547696590423583984375</LatitudeDegrees>
              <LongitudeDegrees>-0.6496918760240077972412109375</LongitudeDegrees>
            </Position>
            <AltitudeMeters>228.399993896484375</AltitudeMeters>
            <DistanceMeters>72655.682701333</DistanceMeters>
          </Trackpoint>
          <Trackpoint>
            <Time>2021-10-09T10:06:27.000Z</Time>
            <Position>
              <LatitudeDegrees>39.42305336706340312957763671875</LatitudeDegrees>
              <LongitudeDegrees>-0.64968089573085308074951171875</LongitudeDegrees>
            </Position>
            <AltitudeMeters>227.8000030517578125</AltitudeMeters>
            <DistanceMeters>72662.659241452</DistanceMeters>
          </Trackpoint>
          <Trackpoint>
            <Time>2021-10-09T10:06:28.000Z</Time>
            <Position>
              <LatitudeDegrees>39.422994442284107208251953125</LatitudeDegrees>
              <LongitudeDegrees>-0.649682991206645965576171875</LongitudeDegrees>
            </Position>
            <AltitudeMeters>227.399993896484375</AltitudeMeters>
            <DistanceMeters>72669.219526837</DistanceMeters>
          </Trackpoint>
          <Trackpoint>
            <Time>2021-10-09T10:06:29.000Z</Time>
            <Position>
              <LatitudeDegrees>39.42293333820998668670654296875</LatitudeDegrees>
              <LongitudeDegrees>-0.6496891938149929046630859375</LongitudeDegrees>
            </Position>
            <AltitudeMeters>227.1999969482421875</AltitudeMeters>
            <DistanceMeters>72676.041624315</DistanceMeters>
          </Trackpoint>
          <Trackpoint>
            <Time>2021-10-09T10:06:31.000Z</Time>
            <Position>
              <LatitudeDegrees>39.42280475981533527374267578125</LatitudeDegrees>
              <LongitudeDegrees>-0.64966983161866664886474609375</LongitudeDegrees>
            </Position>
            <AltitudeMeters>226</AltitudeMeters>
            <DistanceMeters>72690.449065698</DistanceMeters>
          </Trackpoint>
          <Trackpoint>
            <Time>2021-10-09T10:06:32.000Z</Time>
            <Position>
              <LatitudeDegrees>39.42274860106408596038818359375</LatitudeDegrees>
              <LongitudeDegrees>-0.64962574280798435211181640625</LongitudeDegrees>
            </Position>
            <AltitudeMeters>225.8000030517578125</AltitudeMeters>
            <DistanceMeters>72697.759331931</DistanceMeters>
          </Trackpoint>
          <Trackpoint>
            <Time>2021-10-09T10:06:33.000Z</Time>
            <Position>
              <LatitudeDegrees>39.42271037958562374114990234375</LatitudeDegrees>
              <LongitudeDegrees>-0.6495594419538974761962890625</LongitudeDegrees>
            </Position>
            <AltitudeMeters>225.600006103515625</AltitudeMeters>
            <DistanceMeters>72704.871749821</DistanceMeters>
          </Trackpoint>
          <Trackpoint>
            <Time>2021-10-09T10:06:34.000Z</Time>
            <Position>
              <LatitudeDegrees>39.42269445396959781646728515625</LatitudeDegrees>
              <LongitudeDegrees>-0.64947805367410182952880859375</LongitudeDegrees>
            </Position>
            <AltitudeMeters>225.399993896484375</AltitudeMeters>
            <DistanceMeters>72712.090028084</DistanceMeters>
          </Trackpoint>
          <Trackpoint>
            <Time>2021-10-09T10:06:35.000Z</Time>
            <Position>
              <LatitudeDegrees>39.422704093158245086669921875</LatitudeDegrees>
              <LongitudeDegrees>-0.64939423464238643646240234375</LongitudeDegrees>
            </Position>
            <AltitudeMeters>225.1999969482421875</AltitudeMeters>
            <DistanceMeters>72719.375547237</DistanceMeters>
          </Trackpoint>
          <Trackpoint>
            <Time>2021-10-09T10:06:36.000Z</Time>
            <Position>
              <LatitudeDegrees>39.422738961875438690185546875</LatitudeDegrees>
              <LongitudeDegrees>-0.6493197195231914520263671875</LongitudeDegrees>
            </Position>
            <AltitudeMeters>224.8000030517578125</AltitudeMeters>
            <DistanceMeters>72726.865195752</DistanceMeters>
          </Trackpoint>
          <Trackpoint>
            <Time>2021-10-09T10:06:37.000Z</Time>
            <Position>
              <LatitudeDegrees>39.42278984002768993377685546875</LatitudeDegrees>
              <LongitudeDegrees>-0.64926062710583209991455078125</LongitudeDegrees>
            </Position>
            <AltitudeMeters>224.600006103515625</AltitudeMeters>
            <DistanceMeters>72734.473269753</DistanceMeters>
          </Trackpoint>
          <Trackpoint>
            <Time>2021-10-09T10:06:39.000Z</Time>
            <Position>
              <LatitudeDegrees>39.42291070707142353057861328125</LatitudeDegrees>
              <LongitudeDegrees>-0.64916691742837429046630859375</LongitudeDegrees>
            </Position>
            <AltitudeMeters>224.399993896484375</AltitudeMeters>
            <DistanceMeters>72750.154117357</DistanceMeters>
          </Trackpoint>
          <Trackpoint>
            <Time>2021-10-09T10:06:41.000Z</Time>
            <Position>
              <LatitudeDegrees>39.4230231083929538726806640625</LatitudeDegrees>
              <LongitudeDegrees>-0.649062730371952056884765625</LongitudeDegrees>
            </Position>
            <AltitudeMeters>224.1999969482421875</AltitudeMeters>
            <DistanceMeters>72765.540817594</DistanceMeters>
          </Trackpoint>
          <Trackpoint>
            <Time>2021-10-09T10:06:43.000Z</Time>
            <Position>
              <LatitudeDegrees>39.42312662489712238311767578125</LatitudeDegrees>
              <LongitudeDegrees>-0.6489478982985019683837890625</LongitudeDegrees>
            </Position>
            <AltitudeMeters>224.1999969482421875</AltitudeMeters>
            <DistanceMeters>72780.714176781</DistanceMeters>
          </Trackpoint>
          <Trackpoint>
            <Time>2021-10-09T10:06:45.000Z</Time>
            <Position>
              <LatitudeDegrees>39.423223100602626800537109375</LatitudeDegrees>
              <LongitudeDegrees>-0.64881470985710620880126953125</LongitudeDegrees>
            </Position>
            <AltitudeMeters>224.1999969482421875</AltitudeMeters>
            <DistanceMeters>72796.412290877</DistanceMeters>
          </Trackpoint>
          <Trackpoint>
            <Time>2021-10-09T10:06:47.000Z</Time>
            <Position>
              <LatitudeDegrees>39.42331454716622829437255859375</LatitudeDegrees>
              <LongitudeDegrees>-0.6486582197248935699462890625</LongitudeDegrees>
            </Position>
            <AltitudeMeters>224.399993896484375</AltitudeMeters>
            <DistanceMeters>72813.283212888</DistanceMeters>
          </Trackpoint>
          <Trackpoint>
            <Time>2021-10-09T10:06:50.000Z</Time>
            <Position>
              <LatitudeDegrees>39.4234475679695606231689453125</LatitudeDegrees>
              <LongitudeDegrees>-0.648399554193019866943359375</LongitudeDegrees>
            </Position>
            <AltitudeMeters>224.1999969482421875</AltitudeMeters>
            <DistanceMeters>72840.000426117</DistanceMeters>
          </Trackpoint>
          <Trackpoint>
            <Time>2021-10-09T10:06:54.000Z</Time>
            <Position>
              <LatitudeDegrees>39.42363205365836620330810546875</LatitudeDegrees>
              <LongitudeDegrees>-0.648039467632770538330078125</LongitudeDegrees>
            </Position>
            <AltitudeMeters>224</AltitudeMeters>
            <DistanceMeters>72877.150402745</DistanceMeters>
          </Trackpoint>
          <Trackpoint>
            <Time>2021-10-09T10:06:55.000Z</Time>
            <Position>
              <LatitudeDegrees>39.4236789084970951080322265625</LatitudeDegrees>
              <LongitudeDegrees>-0.64794835634529590606689453125</LongitudeDegrees>
            </Position>
            <AltitudeMeters>223.8000030517578125</AltitudeMeters>
            <DistanceMeters>72886.560446826</DistanceMeters>
          </Trackpoint>
          <Trackpoint>
            <Time>2021-10-09T10:06:57.000Z</Time>
            <Position>
              <LatitudeDegrees>39.42377303726971149444580078125</LatitudeDegrees>
              <LongitudeDegrees>-0.64776512794196605682373046875</LongitudeDegrees>
            </Position>
            <AltitudeMeters>223.1999969482421875</AltitudeMeters>
            <DistanceMeters>72905.479595065</DistanceMeters>
          </Trackpoint>
          <Trackpoint>
            <Time>2021-10-09T10:07:00.000Z</Time>
            <Position>
              <LatitudeDegrees>39.4239001907408237457275390625</LatitudeDegrees>
              <LongitudeDegrees>-0.6474897824227809906005859375</LongitudeDegrees>
            </Position>
            <AltitudeMeters>222.600006103515625</AltitudeMeters>
            <DistanceMeters>72933.060924981</DistanceMeters>
          </Trackpoint>
          <Trackpoint>
            <Time>2021-10-09T10:07:03.000Z</Time>
            <Position>
              <LatitudeDegrees>39.4239927269518375396728515625</LatitudeDegrees>
              <LongitudeDegrees>-0.647198259830474853515625</LongitudeDegrees>
            </Position>
            <AltitudeMeters>222.399993896484375</AltitudeMeters>
            <DistanceMeters>72960.159038499</DistanceMeters>
          </Trackpoint>
          <Trackpoint>
            <Time>2021-10-09T10:07:08.000Z</Time>
            <Position>
              <LatitudeDegrees>39.4240812398493289947509765625</LatitudeDegrees>
              <LongitudeDegrees>-0.64670666120946407318115234375</LongitudeDegrees>
            </Position>
            <AltitudeMeters>222</AltitudeMeters>
            <DistanceMeters>73003.558270574</DistanceMeters>
          </Trackpoint>
          <Trackpoint>
            <Time>2021-10-09T10:07:10.000Z</Time>
            <Position>
              <LatitudeDegrees>39.42411267198622226715087890625</LatitudeDegrees>
              <LongitudeDegrees>-0.64651169814169406890869140625</LongitudeDegrees>
            </Position>
            <AltitudeMeters>222</AltitudeMeters>
            <DistanceMeters>73020.682073957</DistanceMeters>
          </Trackpoint>
          <Trackpoint>
            <Time>2021-10-09T10:07:18.000Z</Time>
            <Position>
              <LatitudeDegrees>39.42422415129840373992919921875</LatitudeDegrees>
              <LongitudeDegrees>-0.64576260745525360107421875</LongitudeDegrees>
            </Position>
            <AltitudeMeters>222</AltitudeMeters>
            <DistanceMeters>73086.271023924</DistanceMeters>
          </Trackpoint>
          <Trackpoint>
            <Time>2021-10-09T10:07:25.000Z</Time>
            <Position>
              <LatitudeDegrees>39.424316100776195526123046875</LatitudeDegrees>
              <LongitudeDegrees>-0.64512801356613636016845703125</LongitudeDegrees>
            </Position>
            <AltitudeMeters>222.600006103515625</AltitudeMeters>
            <DistanceMeters>73141.782894429</DistanceMeters>
          </Trackpoint>
          <Trackpoint>
            <Time>2021-10-09T10:07:28.000Z</Time>
            <Position>
              <LatitudeDegrees>39.424333535134792327880859375</LatitudeDegrees>
              <LongitudeDegrees>-0.64485208131372928619384765625</LongitudeDegrees>
            </Position>
            <AltitudeMeters>222.399993896484375</AltitudeMeters>
            <DistanceMeters>73165.585900886</DistanceMeters>
          </Trackpoint>
          <Trackpoint>
            <Time>2021-10-09T10:07:35.000Z</Time>
            <Position>
              <LatitudeDegrees>39.4243578426539897918701171875</LatitudeDegrees>
              <LongitudeDegrees>-0.6441552937030792236328125</LongitudeDegrees>
            </Position>
            <AltitudeMeters>222</AltitudeMeters>
            <DistanceMeters>73225.554609427</DistanceMeters>
          </Trackpoint>
          <Trackpoint>
            <Time>2021-10-09T10:07:36.000Z</Time>
            <Position>
              <LatitudeDegrees>39.4243585132062435150146484375</LatitudeDegrees>
              <LongitudeDegrees>-0.6440521962940692901611328125</LongitudeDegrees>
            </Position>
            <AltitudeMeters>221.8000030517578125</AltitudeMeters>
            <DistanceMeters>73234.419130012</DistanceMeters>
          </Trackpoint>
          <Trackpoint>
            <Time>2021-10-09T10:07:37.000Z</Time>
            <Position>
              <LatitudeDegrees>39.4243620336055755615234375</LatitudeDegrees>
              <LongitudeDegrees>-0.643947757780551910400390625</LongitudeDegrees>
            </Position>
            <AltitudeMeters>221.600006103515625</AltitudeMeters>
            <DistanceMeters>73243.407069925</DistanceMeters>
          </Trackpoint>
          <Trackpoint>
            <Time>2021-10-09T10:07:44.000Z</Time>
            <Position>
              <LatitudeDegrees>39.424382485449314117431640625</LatitudeDegrees>
              <LongitudeDegrees>-0.64320738427340984344482421875</LongitudeDegrees>
            </Position>
            <AltitudeMeters>221.1999969482421875</AltitudeMeters>
            <DistanceMeters>73307.102619577</DistanceMeters>
          </Trackpoint>
          <Trackpoint>
            <Time>2021-10-09T10:07:46.000Z</Time>
            <Position>
              <LatitudeDegrees>39.42439128644764423370361328125</LatitudeDegrees>
              <LongitudeDegrees>-0.64299456775188446044921875</LongitudeDegrees>
            </Position>
            <AltitudeMeters>221</AltitudeMeters>
            <DistanceMeters>73325.426027346</DistanceMeters>
          </Trackpoint>
          <Trackpoint>
            <Time>2021-10-09T10:07:51.000Z</Time>
            <Position>
              <LatitudeDegrees>39.42440536804497241973876953125</LatitudeDegrees>
              <LongitudeDegrees>-0.642467178404331207275390625</LongitudeDegrees>
            </Position>
            <AltitudeMeters>220.600006103515625</AltitudeMeters>
            <DistanceMeters>73370.796283086</DistanceMeters>
          </Trackpoint>
          <Trackpoint>
            <Time>2021-10-09T10:07:56.000Z</Time>
            <Position>
              <LatitudeDegrees>39.42442095838487148284912109375</LatitudeDegrees>
              <LongitudeDegrees>-0.64194808714091777801513671875</LongitudeDegrees>
            </Position>
            <AltitudeMeters>220.399993896484375</AltitudeMeters>
            <DistanceMeters>73415.45964757</DistanceMeters>
          </Trackpoint>
          <Trackpoint>
            <Time>2021-10-09T10:08:01.000Z</Time>
            <Position>
              <LatitudeDegrees>39.42442581988871097564697265625</LatitudeDegrees>
              <LongitudeDegrees>-0.64142740331590175628662109375</LongitudeDegrees>
            </Position>
            <AltitudeMeters>220.399993896484375</AltitudeMeters>
            <DistanceMeters>73460.229636266</DistanceMeters>
          </Trackpoint>
          <Trackpoint>
            <Time>2021-10-09T10:08:04.000Z</Time>
            <Position>
              <LatitudeDegrees>39.42443805746734142303466796875</LatitudeDegrees>
              <LongitudeDegrees>-0.64110922627151012420654296875</LongitudeDegrees>
            </Position>
            <AltitudeMeters>220.399993896484375</AltitudeMeters>
            <DistanceMeters>73487.619427992</DistanceMeters>
          </Trackpoint>
          <Trackpoint>
            <Time>2021-10-09T10:08:09.000Z</Time>
            <Position>
              <LatitudeDegrees>39.424482397735118865966796875</LatitudeDegrees>
              <LongitudeDegrees>-0.6405584514141082763671875</LongitudeDegrees>
            </Position>
            <AltitudeMeters>220.1999969482421875</AltitudeMeters>
            <DistanceMeters>73535.229613761</DistanceMeters>
          </Trackpoint>
          <Trackpoint>
            <Time>2021-10-09T10:08:12.000Z</Time>
            <Position>
              <LatitudeDegrees>39.424530006945133209228515625</LatitudeDegrees>
              <LongitudeDegrees>-0.64021303318440914154052734375</LongitudeDegrees>
            </Position>
            <AltitudeMeters>219.600006103515625</AltitudeMeters>
            <DistanceMeters>73565.396367711</DistanceMeters>
          </Trackpoint>
          <Trackpoint>
            <Time>2021-10-09T10:08:13.000Z</Time>
            <Position>
              <LatitudeDegrees>39.4245486147701740264892578125</LatitudeDegrees>
              <LongitudeDegrees>-0.64009686000645160675048828125</LongitudeDegrees>
            </Position>
            <AltitudeMeters>219.399993896484375</AltitudeMeters>
            <DistanceMeters>73575.59747554</DistanceMeters>
          </Trackpoint>
          <Trackpoint>
            <Time>2021-10-09T10:08:18.000Z</Time>
            <Position>
              <LatitudeDegrees>39.42464299499988555908203125</LatitudeDegrees>
              <LongitudeDegrees>-0.6395219452679157257080078125</LongitudeDegrees>
            </Position>
            <AltitudeMeters>218.399993896484375</AltitudeMeters>
            <DistanceMeters>73626.130516488</DistanceMeters>
          </Trackpoint>
          <Trackpoint>
            <Time>2021-10-09T10:08:21.000Z</Time>
            <Position>
              <LatitudeDegrees>39.42469504661858081817626953125</LatitudeDegrees>
              <LongitudeDegrees>-0.63918507657945156097412109375</LongitudeDegrees>
            </Position>
            <AltitudeMeters>217.600006103515625</AltitudeMeters>
            <DistanceMeters>73655.666861645</DistanceMeters>
          </Trackpoint>
          <Trackpoint>
            <Time>2021-10-09T10:08:22.000Z</Time>
            <Position>
              <LatitudeDegrees>39.42471197806298732757568359375</LatitudeDegrees>
              <LongitudeDegrees>-0.639071166515350341796875</LongitudeDegrees>
            </Position>
            <AltitudeMeters>217</AltitudeMeters>
            <DistanceMeters>73665.639687822</DistanceMeters>
          </Trackpoint>
          <Trackpoint>
            <Time>2021-10-09T10:08:23.000Z</Time>
            <Position>
              <LatitudeDegrees>39.42472790367901325225830078125</LatitudeDegrees>
              <LongitudeDegrees>-0.63895516097545623779296875</LongitudeDegrees>
            </Position>
            <AltitudeMeters>216.8000030517578125</AltitudeMeters>
            <DistanceMeters>73675.769731687</DistanceMeters>
          </Trackpoint>
          <Trackpoint>
            <Time>2021-10-09T10:08:28.000Z</Time>
            <Position>
              <LatitudeDegrees>39.4247937016189098358154296875</LatitudeDegrees>
              <LongitudeDegrees>-0.63834805972874164581298828125</LongitudeDegrees>
            </Position>
            <AltitudeMeters>215.8000030517578125</AltitudeMeters>
            <DistanceMeters>73728.477273442</DistanceMeters>
          </Trackpoint>
          <Trackpoint>
            <Time>2021-10-09T10:08:31.000Z</Time>
            <Position>
              <LatitudeDegrees>39.42481792531907558441162109375</LatitudeDegrees>
              <LongitudeDegrees>-0.6379726342856884002685546875</LongitudeDegrees>
            </Position>
            <AltitudeMeters>214.600006103515625</AltitudeMeters>
            <DistanceMeters>73760.867307113</DistanceMeters>
          </Trackpoint>
          <Trackpoint>
            <Time>2021-10-09T10:08:32.000Z</Time>
            <Position>
              <LatitudeDegrees>39.42482530139386653900146484375</LatitudeDegrees>
              <LongitudeDegrees>-0.63784749247133731842041015625</LongitudeDegrees>
            </Position>
            <AltitudeMeters>214.399993896484375</AltitudeMeters>
            <DistanceMeters>73771.657756857</DistanceMeters>
          </Trackpoint>
          <Trackpoint>
            <Time>2021-10-09T10:08:36.000Z</Time>
            <Position>
              <LatitudeDegrees>39.42484994418919086456298828125</LatitudeDegrees>
              <LongitudeDegrees>-0.6373684667050838470458984375</LongitudeDegrees>
            </Position>
            <AltitudeMeters>213.600006103515625</AltitudeMeters>
            <DistanceMeters>73812.933821989</DistanceMeters>
          </Trackpoint>
          <Trackpoint>
            <Time>2021-10-09T10:08:37.000Z</Time>
            <Position>
              <LatitudeDegrees>39.42485547624528408050537109375</LatitudeDegrees>
              <LongitudeDegrees>-0.6372531317174434661865234375</LongitudeDegrees>
            </Position>
            <AltitudeMeters>213.600006103515625</AltitudeMeters>
            <DistanceMeters>73822.869000176</DistanceMeters>
          </Trackpoint>
          <Trackpoint>
            <Time>2021-10-09T10:08:39.000Z</Time>
            <Position>
              <LatitudeDegrees>39.4248657859861850738525390625</LatitudeDegrees>
              <LongitudeDegrees>-0.63702489249408245086669921875</LongitudeDegrees>
            </Position>
            <AltitudeMeters>213.1999969482421875</AltitudeMeters>
            <DistanceMeters>73842.525982931</DistanceMeters>
          </Trackpoint>
          <Trackpoint>
            <Time>2021-10-09T10:08:41.000Z</Time>
            <Position>
              <LatitudeDegrees>39.4248758442699909210205078125</LatitudeDegrees>
              <LongitudeDegrees>-0.63679237850010395050048828125</LongitudeDegrees>
            </Position>
            <AltitudeMeters>213</AltitudeMeters>
            <DistanceMeters>73862.548226655</DistanceMeters>
          </Trackpoint>
          <Trackpoint>
            <Time>2021-10-09T10:08:44.000Z</Time>
            <Position>
              <LatitudeDegrees>39.42489453591406345367431640625</LatitudeDegrees>
              <LongitudeDegrees>-0.6364332139492034912109375</LongitudeDegrees>
            </Position>
            <AltitudeMeters>212.600006103515625</AltitudeMeters>
            <DistanceMeters>73893.497772514</DistanceMeters>
          </Trackpoint>
          <Trackpoint>
            <Time>2021-10-09T10:08:49.000Z</Time>
            <Position>
              <LatitudeDegrees>39.424924962222576141357421875</LatitudeDegrees>
              <LongitudeDegrees>-0.6358329020440578460693359375</LongitudeDegrees>
            </Position>
            <AltitudeMeters>211.8000030517578125</AltitudeMeters>
            <DistanceMeters>73945.221119541</DistanceMeters>
          </Trackpoint>
          <Trackpoint>
            <Time>2021-10-09T10:08:51.000Z</Time>
            <Position>
              <LatitudeDegrees>39.42493309266865253448486328125</LatitudeDegrees>
              <LongitudeDegrees>-0.6355864740908145904541015625</LongitudeDegrees>
            </Position>
            <AltitudeMeters>211.1999969482421875</AltitudeMeters>
            <DistanceMeters>73966.427411933</DistanceMeters>
          </Trackpoint>
          <Trackpoint>
            <Time>2021-10-09T10:08:54.000Z</Time>
            <Position>
              <LatitudeDegrees>39.424949102103710174560546875</LatitudeDegrees>
              <LongitudeDegrees>-0.63521104864776134490966796875</LongitudeDegrees>
            </Position>
            <AltitudeMeters>210.600006103515625</AltitudeMeters>
            <DistanceMeters>73998.754237583</DistanceMeters>
          </Trackpoint>
          <Trackpoint>
            <Time>2021-10-09T10:08:56.000Z</Time>
            <Position>
              <LatitudeDegrees>39.42496695555746555328369140625</LatitudeDegrees>
              <LongitudeDegrees>-0.63496294431388378143310546875</LongitudeDegrees>
            </Position>
            <AltitudeMeters>210.399993896484375</AltitudeMeters>
            <DistanceMeters>74020.177651535</DistanceMeters>
          </Trackpoint>
          <Trackpoint>
            <Time>2021-10-09T10:08:57.000Z</Time>
            <Position>
              <LatitudeDegrees>39.42498992197215557098388671875</LatitudeDegrees>
              <LongitudeDegrees>-0.6348414905369281768798828125</LongitudeDegrees>
            </Position>
            <AltitudeMeters>210.399993896484375</AltitudeMeters>
            <DistanceMeters>74030.928277024</DistanceMeters>
          </Trackpoint>
          <Trackpoint>
            <Time>2021-10-09T10:08:58.000Z</Time>
            <Position>
              <LatitudeDegrees>39.4250263832509517669677734375</LatitudeDegrees>
              <LongitudeDegrees>-0.63472389243543148040771484375</LongitudeDegrees>
            </Position>
            <AltitudeMeters>210</AltitudeMeters>
            <DistanceMeters>74041.822831846</DistanceMeters>
          </Trackpoint>
          <Trackpoint>
            <Time>2021-10-09T10:09:01.000Z</Time>
            <Position>
              <LatitudeDegrees>39.42516560666263103485107421875</LatitudeDegrees>
              <LongitudeDegrees>-0.6343875266611576080322265625</LongitudeDegrees>
            </Position>
            <AltitudeMeters>209.1999969482421875</AltitudeMeters>
            <DistanceMeters>74074.632103747</DistanceMeters>
          </Trackpoint>
          <Trackpoint>
            <Time>2021-10-09T10:09:04.000Z</Time>
            <Position>
              <LatitudeDegrees>39.42530156113207340240478515625</LatitudeDegrees>
              <LongitudeDegrees>-0.63406541012227535247802734375</LongitudeDegrees>
            </Position>
            <AltitudeMeters>208.8000030517578125</AltitudeMeters>
            <DistanceMeters>74106.190703069</DistanceMeters>
          </Trackpoint>
          <Trackpoint>
            <Time>2021-10-09T10:09:07.000Z</Time>
            <Position>
              <LatitudeDegrees>39.42543433047831058502197265625</LatitudeDegrees>
              <LongitudeDegrees>-0.63375930301845073699951171875</LongitudeDegrees>
            </Position>
            <AltitudeMeters>207.8000030517578125</AltitudeMeters>
            <DistanceMeters>74136.373616979</DistanceMeters>
          </Trackpoint>
          <Trackpoint>
            <Time>2021-10-09T10:09:09.000Z</Time>
            <Position>
              <LatitudeDegrees>39.42552334628999233245849609375</LatitudeDegrees>
              <LongitudeDegrees>-0.6335496716201305389404296875</LongitudeDegrees>
            </Position>
            <AltitudeMeters>207</AltitudeMeters>
            <DistanceMeters>74156.940260867</DistanceMeters>
          </Trackpoint>
          <Trackpoint>
            <Time>2021-10-09T10:09:10.000Z</Time>
            <Position>
              <LatitudeDegrees>39.42556994967162609100341796875</LatitudeDegrees>
              <LongitudeDegrees>-0.633443556725978851318359375</LongitudeDegrees>
            </Position>
            <AltitudeMeters>206.600006103515625</AltitudeMeters>
            <DistanceMeters>74167.435013955</DistanceMeters>
          </Trackpoint>
          <Trackpoint>
            <Time>2021-10-09T10:09:16.000Z</Time>
            <Position>
              <LatitudeDegrees>39.4258384220302104949951171875</LatitudeDegrees>
              <LongitudeDegrees>-0.63281667418777942657470703125</LongitudeDegrees>
            </Position>
            <AltitudeMeters>205.8000030517578125</AltitudeMeters>
            <DistanceMeters>74229.0606991</DistanceMeters>
          </Trackpoint>
          <Trackpoint>
            <Time>2021-10-09T10:09:17.000Z</Time>
            <Position>
              <LatitudeDegrees>39.42588343285024166107177734375</LatitudeDegrees>
              <LongitudeDegrees>-0.63271307386457920074462890625</LongitudeDegrees>
            </Position>
            <AltitudeMeters>205.600006103515625</AltitudeMeters>
            <DistanceMeters>74239.280379337</DistanceMeters>
          </Trackpoint>
          <Trackpoint>
            <Time>2021-10-09T10:09:20.000Z</Time>
            <Position>
              <LatitudeDegrees>39.4260167889297008514404296875</LatitudeDegrees>
              <LongitudeDegrees>-0.63240143470466136932373046875</LongitudeDegrees>
            </Position>
            <AltitudeMeters>205.1999969482421875</AltitudeMeters>
            <DistanceMeters>74269.910247477</DistanceMeters>
          </Trackpoint>
          <Trackpoint>
            <Time>2021-10-09T10:09:26.000Z</Time>
            <Position>
              <LatitudeDegrees>39.42628207616508007049560546875</LatitudeDegrees>
              <LongitudeDegrees>-0.631782598793506622314453125</LongitudeDegrees>
            </Position>
            <AltitudeMeters>204.399993896484375</AltitudeMeters>
            <DistanceMeters>74330.758665728</DistanceMeters>
          </Trackpoint>
          <Trackpoint>
            <Time>2021-10-09T10:09:29.000Z</Time>
            <Position>
              <LatitudeDegrees>39.42640797235071659088134765625</LatitudeDegrees>
              <LongitudeDegrees>-0.63148529268801212310791015625</LongitudeDegrees>
            </Position>
            <AltitudeMeters>204</AltitudeMeters>
            <DistanceMeters>74359.908178127</DistanceMeters>
          </Trackpoint>
          <Trackpoint>
            <Time>2021-10-09T10:09:31.000Z</Time>
            <Position>
              <LatitudeDegrees>39.4264855049550533294677734375</LatitudeDegrees>
              <LongitudeDegrees>-0.6312885694205760955810546875</LongitudeDegrees>
            </Position>
            <AltitudeMeters>203.8000030517578125</AltitudeMeters>
            <DistanceMeters>74378.895457341</DistanceMeters>
          </Trackpoint>
          <Trackpoint>
            <Time>2021-10-09T10:09:32.000Z</Time>
            <Position>
              <LatitudeDegrees>39.42651660181581974029541015625</LatitudeDegrees>
              <LongitudeDegrees>-0.6311876513063907623291015625</LongitudeDegrees>
            </Position>
            <AltitudeMeters>203.600006103515625</AltitudeMeters>
            <DistanceMeters>74388.236636532</DistanceMeters>
          </Trackpoint>
          <Trackpoint>
            <Time>2021-10-09T10:09:33.000Z</Time>
            <Position>
              <LatitudeDegrees>39.42654124461114406585693359375</LatitudeDegrees>
              <LongitudeDegrees>-0.6310823746025562286376953125</LongitudeDegrees>
            </Position>
            <AltitudeMeters>203.1999969482421875</AltitudeMeters>
            <DistanceMeters>74397.69453996</DistanceMeters>
          </Trackpoint>
          <Trackpoint>
            <Time>2021-10-09T10:09:34.000Z</Time>
            <Position>
              <LatitudeDegrees>39.4265612773597240447998046875</LatitudeDegrees>
              <LongitudeDegrees>-0.63097483478486537933349609375</LongitudeDegrees>
            </Position>
            <AltitudeMeters>203.1999969482421875</AltitudeMeters>
            <DistanceMeters>74407.205759956</DistanceMeters>
          </Trackpoint>
          <Trackpoint>
            <Time>2021-10-09T10:09:39.000Z</Time>
            <Position>
              <LatitudeDegrees>39.4266561605036258697509765625</LatitudeDegrees>
              <LongitudeDegrees>-0.6304302625358104705810546875</LongitudeDegrees>
            </Position>
            <AltitudeMeters>202.1999969482421875</AltitudeMeters>
            <DistanceMeters>74455.201118489</DistanceMeters>
          </Trackpoint>
          <Trackpoint>
            <Time>2021-10-09T10:09:40.000Z</Time>
            <Position>
              <LatitudeDegrees>39.42667384631931781768798828125</LatitudeDegrees>
              <LongitudeDegrees>-0.6303209625184535980224609375</LongitudeDegrees>
            </Position>
            <AltitudeMeters>202</AltitudeMeters>
            <DistanceMeters>74464.801638801</DistanceMeters>
          </Trackpoint>
          <Trackpoint>
            <Time>2021-10-09T10:09:46.000Z</Time>
            <Position>
              <LatitudeDegrees>39.42678272724151611328125</LatitudeDegrees>
              <LongitudeDegrees>-0.62965803779661655426025390625</LongitudeDegrees>
            </Position>
            <AltitudeMeters>201.600006103515625</AltitudeMeters>
            <DistanceMeters>74523.069831856</DistanceMeters>
          </Trackpoint>
          <Trackpoint>
            <Time>2021-10-09T10:09:50.000Z</Time>
            <Position>
              <LatitudeDegrees>39.42685707472264766693115234375</LatitudeDegrees>
              <LongitudeDegrees>-0.62920943833887577056884765625</LongitudeDegrees>
            </Position>
            <AltitudeMeters>201</AltitudeMeters>
            <DistanceMeters>74562.515190921</DistanceMeters>
          </Trackpoint>
          <Trackpoint>
            <Time>2021-10-09T10:09:54.000Z</Time>
            <Position>
              <LatitudeDegrees>39.426964782178401947021484375</LatitudeDegrees>
              <LongitudeDegrees>-0.6287686340510845184326171875</LongitudeDegrees>
            </Position>
            <AltitudeMeters>200.1999969482421875</AltitudeMeters>
            <DistanceMeters>74602.263628562</DistanceMeters>
          </Trackpoint>
          <Trackpoint>
            <Time>2021-10-09T10:09:58.000Z</Time>
            <Position>
              <LatitudeDegrees>39.4271795265376567840576171875</LatitudeDegrees>
              <LongitudeDegrees>-0.62837786972522735595703125</LongitudeDegrees>
            </Position>
            <AltitudeMeters>200</AltitudeMeters>
            <DistanceMeters>74643.493835338</DistanceMeters>
          </Trackpoint>
          <Trackpoint>
            <Time>2021-10-09T10:09:59.000Z</Time>
            <Position>
              <LatitudeDegrees>39.4272358529269695281982421875</LatitudeDegrees>
              <LongitudeDegrees>-0.62828105874359607696533203125</LongitudeDegrees>
            </Position>
            <AltitudeMeters>200</AltitudeMeters>
            <DistanceMeters>74653.913894798</DistanceMeters>
          </Trackpoint>
          <Trackpoint>
            <Time>2021-10-09T10:10:05.000Z</Time>
            <Position>
              <LatitudeDegrees>39.4275758229196071624755859375</LatitudeDegrees>
              <LongitudeDegrees>-0.62772751785814762115478515625</LongitudeDegrees>
            </Position>
            <AltitudeMeters>199.399993896484375</AltitudeMeters>
            <DistanceMeters>74714.71346892</DistanceMeters>
          </Trackpoint>
          <Trackpoint>
            <Time>2021-10-09T10:10:07.000Z</Time>
            <Position>
              <LatitudeDegrees>39.4276750646531581878662109375</LatitudeDegrees>
              <LongitudeDegrees>-0.62753942795097827911376953125</LongitudeDegrees>
            </Position>
            <AltitudeMeters>199</AltitudeMeters>
            <DistanceMeters>74734.296812521</DistanceMeters>
          </Trackpoint>
          <Trackpoint>
            <Time>2021-10-09T10:10:08.000Z</Time>
            <Position>
              <LatitudeDegrees>39.42772024311125278472900390625</LatitudeDegrees>
              <LongitudeDegrees>-0.62744219787418842315673828125</LongitudeDegrees>
            </Position>
            <AltitudeMeters>199</AltitudeMeters>
            <DistanceMeters>74744.051757193</DistanceMeters>
          </Trackpoint>
          <Trackpoint>
            <Time>2021-10-09T10:10:12.000Z</Time>
            <Position>
              <LatitudeDegrees>39.42786491475999355316162109375</LatitudeDegrees>
              <LongitudeDegrees>-0.6270329095423221588134765625</LongitudeDegrees>
            </Position>
            <AltitudeMeters>198.1999969482421875</AltitudeMeters>
            <DistanceMeters>74782.748637515</DistanceMeters>
          </Trackpoint>
          <Trackpoint>
            <Time>2021-10-09T10:10:17.000Z</Time>
            <Position>
              <LatitudeDegrees>39.42803188227117061614990234375</LatitudeDegrees>
              <LongitudeDegrees>-0.62651432119309902191162109375</LongitudeDegrees>
            </Position>
            <AltitudeMeters>197.8000030517578125</AltitudeMeters>
            <DistanceMeters>74831.051007136</DistanceMeters>
          </Trackpoint>
          <Trackpoint>
            <Time>2021-10-09T10:10:20.000Z</Time>
            <Position>
              <LatitudeDegrees>39.42813062109053134918212890625</LatitudeDegrees>
              <LongitudeDegrees>-0.6262032687664031982421875</LongitudeDegrees>
            </Position>
            <AltitudeMeters>197.600006103515625</AltitudeMeters>
            <DistanceMeters>74859.963187552</DistanceMeters>
          </Trackpoint>
          <Trackpoint>
            <Time>2021-10-09T10:10:24.000Z</Time>
            <Position>
              <LatitudeDegrees>39.42826121114194393157958984375</LatitudeDegrees>
              <LongitudeDegrees>-0.62579347752034664154052734375</LongitudeDegrees>
            </Position>
            <AltitudeMeters>197</AltitudeMeters>
            <DistanceMeters>74898.074231564</DistanceMeters>
          </Trackpoint>
          <Trackpoint>
            <Time>2021-10-09T10:10:26.000Z</Time>
            <Position>
              <LatitudeDegrees>39.42832876928150653839111328125</LatitudeDegrees>
              <LongitudeDegrees>-0.6255888752639293670654296875</LongitudeDegrees>
            </Position>
            <AltitudeMeters>196.600006103515625</AltitudeMeters>
            <DistanceMeters>74917.204126441</DistanceMeters>
          </Trackpoint>
          <Trackpoint>
            <Time>2021-10-09T10:10:29.000Z</Time>
            <Position>
              <LatitudeDegrees>39.42844594828784465789794921875</LatitudeDegrees>
              <LongitudeDegrees>-0.62529123388230800628662109375</LongitudeDegrees>
            </Position>
            <AltitudeMeters>196</AltitudeMeters>
            <DistanceMeters>74945.925155029</DistanceMeters>
          </Trackpoint>
          <Trackpoint>
            <Time>2021-10-09T10:10:31.000Z</Time>
            <Position>
              <LatitudeDegrees>39.42854820750653743743896484375</LatitudeDegrees>
              <LongitudeDegrees>-0.6251101009547710418701171875</LongitudeDegrees>
            </Position>
            <AltitudeMeters>195.399993896484375</AltitudeMeters>
            <DistanceMeters>74965.213471427</DistanceMeters>
          </Trackpoint>
          <Trackpoint>
            <Time>2021-10-09T10:10:35.000Z</Time>
            <Position>
              <LatitudeDegrees>39.428791701793670654296875</LatitudeDegrees>
              <LongitudeDegrees>-0.624754540622234344482421875</LongitudeDegrees>
            </Position>
            <AltitudeMeters>194.1999969482421875</AltitudeMeters>
            <DistanceMeters>75006.065565351</DistanceMeters>
          </Trackpoint>
          <Trackpoint>
            <Time>2021-10-09T10:10:39.000Z</Time>
            <Position>
              <LatitudeDegrees>39.42904173396527767181396484375</LatitudeDegrees>
              <LongitudeDegrees>-0.62439856119453907012939453125</LongitudeDegrees>
            </Position>
            <AltitudeMeters>193.1999969482421875</AltitudeMeters>
            <DistanceMeters>75047.430465991</DistanceMeters>
          </Trackpoint>
          <Trackpoint>
            <Time>2021-10-09T10:10:42.000Z</Time>
            <Position>
              <LatitudeDegrees>39.42923082970082759857177734375</LatitudeDegrees>
              <LongitudeDegrees>-0.62413218431174755096435546875</LongitudeDegrees>
            </Position>
            <AltitudeMeters>191.8000030517578125</AltitudeMeters>
            <DistanceMeters>75078.533683664</DistanceMeters>
          </Trackpoint>
          <Trackpoint>
            <Time>2021-10-09T10:10:44.000Z</Time>
            <Position>
              <LatitudeDegrees>39.42934800870716571807861328125</LatitudeDegrees>
              <LongitudeDegrees>-0.62396354041993618011474609375</LongitudeDegrees>
            </Position>
            <AltitudeMeters>191.1999969482421875</AltitudeMeters>
            <DistanceMeters>75098.035239999</DistanceMeters>
          </Trackpoint>
          <Trackpoint>
            <Time>2021-10-09T10:10:46.000Z</Time>
            <Position>
              <LatitudeDegrees>39.42946451716125011444091796875</LatitudeDegrees>
              <LongitudeDegrees>-0.6237938068807125091552734375</LongitudeDegrees>
            </Position>
            <AltitudeMeters>190.8000030517578125</AltitudeMeters>
            <DistanceMeters>75117.556697068</DistanceMeters>
          </Trackpoint>
          <Trackpoint>
            <Time>2021-10-09T10:10:53.000Z</Time>
            <Position>
              <LatitudeDegrees>39.429893083870410919189453125</LatitudeDegrees>
              <LongitudeDegrees>-0.6231812573969364166259765625</LongitudeDegrees>
            </Position>
            <AltitudeMeters>189.600006103515625</AltitudeMeters>
            <DistanceMeters>75188.609550973</DistanceMeters>
          </Trackpoint>
          <Trackpoint>
            <Time>2021-10-09T10:11:00.000Z</Time>
            <Position>
              <LatitudeDegrees>39.43028108216822147369384765625</LatitudeDegrees>
              <LongitudeDegrees>-0.6226250343024730682373046875</LongitudeDegrees>
            </Position>
            <AltitudeMeters>188.8000030517578125</AltitudeMeters>
            <DistanceMeters>75253.042008049</DistanceMeters>
          </Trackpoint>
          <Trackpoint>
            <Time>2021-10-09T10:11:01.000Z</Time>
            <Position>
              <LatitudeDegrees>39.43033657036721706390380859375</LatitudeDegrees>
              <LongitudeDegrees>-0.62254582531750202178955078125</LongitudeDegrees>
            </Position>
            <AltitudeMeters>188.8000030517578125</AltitudeMeters>
            <DistanceMeters>75262.23458415</DistanceMeters>
          </Trackpoint>
          <Trackpoint>
            <Time>2021-10-09T10:11:04.000Z</Time>
            <Position>
              <LatitudeDegrees>39.43049289286136627197265625</LatitudeDegrees>
              <LongitudeDegrees>-0.6223269738256931304931640625</LongitudeDegrees>
            </Position>
            <AltitudeMeters>188.8000030517578125</AltitudeMeters>
            <DistanceMeters>75287.860806644</DistanceMeters>
          </Trackpoint>
          <Trackpoint>
            <Time>2021-10-09T10:11:06.000Z</Time>
            <Position>
              <LatitudeDegrees>39.43058702163398265838623046875</LatitudeDegrees>
              <LongitudeDegrees>-0.6221888400614261627197265625</LongitudeDegrees>
            </Position>
            <AltitudeMeters>189.1999969482421875</AltitudeMeters>
            <DistanceMeters>75303.696945157</DistanceMeters>
          </Trackpoint>
          <Trackpoint>
            <Time>2021-10-09T10:11:08.000Z</Time>
            <Position>
              <LatitudeDegrees>39.4306529872119426727294921875</LatitudeDegrees>
              <LongitudeDegrees>-0.62205858528614044189453125</LongitudeDegrees>
            </Position>
            <AltitudeMeters>189</AltitudeMeters>
            <DistanceMeters>75317.087284879</DistanceMeters>
          </Trackpoint>
          <Trackpoint>
            <Time>2021-10-09T10:11:09.000Z</Time>
            <Position>
              <LatitudeDegrees>39.43065592087805271148681640625</LatitudeDegrees>
              <LongitudeDegrees>-0.6219890154898166656494140625</LongitudeDegrees>
            </Position>
            <AltitudeMeters>189</AltitudeMeters>
            <DistanceMeters>75323.076983846</DistanceMeters>
          </Trackpoint>
          <Trackpoint>
            <Time>2021-10-09T10:11:10.000Z</Time>
            <Position>
              <LatitudeDegrees>39.43062943406403064727783203125</LatitudeDegrees>
              <LongitudeDegrees>-0.6219149194657802581787109375</LongitudeDegrees>
            </Position>
            <AltitudeMeters>189</AltitudeMeters>
            <DistanceMeters>75330.096750733</DistanceMeters>
          </Trackpoint>
          <Trackpoint>
            <Time>2021-10-09T10:11:12.000Z</Time>
            <Position>
              <LatitudeDegrees>39.43052373826503753662109375</LatitudeDegrees>
              <LongitudeDegrees>-0.62176915816962718963623046875</LongitudeDegrees>
            </Position>
            <AltitudeMeters>189</AltitudeMeters>
            <DistanceMeters>75347.284506574</DistanceMeters>
          </Trackpoint>
          <Trackpoint>
            <Time>2021-10-09T10:11:15.000Z</Time>
            <Position>
              <LatitudeDegrees>39.43034713156521320343017578125</LatitudeDegrees>
              <LongitudeDegrees>-0.62154754064977169036865234375</LongitudeDegrees>
            </Position>
            <AltitudeMeters>189</AltitudeMeters>
            <DistanceMeters>75374.659128467</DistanceMeters>
          </Trackpoint>
          <Trackpoint>
            <Time>2021-10-09T10:11:16.000Z</Time>
            <Position>
              <LatitudeDegrees>39.43029097281396389007568359375</LatitudeDegrees>
              <LongitudeDegrees>-0.621478557586669921875</LongitudeDegrees>
            </Position>
            <AltitudeMeters>188.600006103515625</AltitudeMeters>
            <DistanceMeters>75383.275699045</DistanceMeters>
          </Trackpoint>
          <Trackpoint>
            <Time>2021-10-09T10:11:19.000Z</Time>
            <Position>
              <LatitudeDegrees>39.43013775162398815155029296875</LatitudeDegrees>
              <LongitudeDegrees>-0.62128988094627857208251953125</LongitudeDegrees>
            </Position>
            <AltitudeMeters>188</AltitudeMeters>
            <DistanceMeters>75406.811458631</DistanceMeters>
          </Trackpoint>
          <Trackpoint>
            <Time>2021-10-09T10:11:23.000Z</Time>
            <Position>
              <LatitudeDegrees>39.42997480742633342742919921875</LatitudeDegrees>
              <LongitudeDegrees>-0.62107899226248264312744140625</LongitudeDegrees>
            </Position>
            <AltitudeMeters>188</AltitudeMeters>
            <DistanceMeters>75432.455293894</DistanceMeters>
          </Trackpoint>
          <Trackpoint>
            <Time>2021-10-09T10:11:24.000Z</Time>
            <Position>
              <LatitudeDegrees>39.42993977107107639312744140625</LatitudeDegrees>
              <LongitudeDegrees>-0.62103456817567348480224609375</LongitudeDegrees>
            </Position>
            <AltitudeMeters>188</AltitudeMeters>
            <DistanceMeters>75437.912508578</DistanceMeters>
          </Trackpoint>
          <Trackpoint>
            <Time>2021-10-09T10:11:27.000Z</Time>
            <Position>
              <LatitudeDegrees>39.4298553653061389923095703125</LatitudeDegrees>
              <LongitudeDegrees>-0.62091504223644733428955078125</LongitudeDegrees>
            </Position>
            <AltitudeMeters>188.600006103515625</AltitudeMeters>
            <DistanceMeters>75451.835786967</DistanceMeters>
          </Trackpoint>
          <Trackpoint>
            <Time>2021-10-09T10:11:28.000Z</Time>
            <Position>
              <LatitudeDegrees>39.4298302195966243743896484375</LatitudeDegrees>
              <LongitudeDegrees>-0.62087841331958770751953125</LongitudeDegrees>
            </Position>
            <AltitudeMeters>188.600006103515625</AltitudeMeters>
            <DistanceMeters>75456.049233334</DistanceMeters>
          </Trackpoint>
          <Trackpoint>
            <Time>2021-10-09T10:11:29.000Z</Time>
            <Position>
              <LatitudeDegrees>39.429805576801300048828125</LatitudeDegrees>
              <LongitudeDegrees>-0.6208427064120769500732421875</LongitudeDegrees>
            </Position>
            <AltitudeMeters>188.8000030517578125</AltitudeMeters>
            <DistanceMeters>75460.165107896</DistanceMeters>
          </Trackpoint>
          <Trackpoint>
            <Time>2021-10-09T10:11:31.000Z</Time>
            <Position>
              <LatitudeDegrees>39.42974883131682872772216796875</LatitudeDegrees>
              <LongitudeDegrees>-0.6207659281790256500244140625</LongitudeDegrees>
            </Position>
            <AltitudeMeters>189.399993896484375</AltitudeMeters>
            <DistanceMeters>75469.300531613</DistanceMeters>
          </Trackpoint>
          <Trackpoint>
            <Time>2021-10-09T10:11:32.000Z</Time>
            <Position>
              <LatitudeDegrees>39.429715387523174285888671875</LatitudeDegrees>
              <LongitudeDegrees>-0.62072862870991230010986328125</LongitudeDegrees>
            </Position>
            <AltitudeMeters>190</AltitudeMeters>
            <DistanceMeters>75474.21259475</DistanceMeters>
          </Trackpoint>
          <Trackpoint>
            <Time>2021-10-09T10:11:34.000Z</Time>
            <Position>
              <LatitudeDegrees>39.42964590154588222503662109375</LatitudeDegrees>
              <LongitudeDegrees>-0.6206455640494823455810546875</LongitudeDegrees>
            </Position>
            <AltitudeMeters>190.1999969482421875</AltitudeMeters>
            <DistanceMeters>75484.739135874</DistanceMeters>
          </Trackpoint>
          <Trackpoint>
            <Time>2021-10-09T10:11:36.000Z</Time>
            <Position>
              <LatitudeDegrees>39.42956577055156230926513671875</LatitudeDegrees>
              <LongitudeDegrees>-0.62054489739239215850830078125</LongitudeDegrees>
            </Position>
            <AltitudeMeters>190.1999969482421875</AltitudeMeters>
            <DistanceMeters>75497.166217887</DistanceMeters>
          </Trackpoint>
          <Trackpoint>
            <Time>2021-10-09T10:11:38.000Z</Time>
            <Position>
              <LatitudeDegrees>39.4294791854918003082275390625</LatitudeDegrees>
              <LongitudeDegrees>-0.6204464100301265716552734375</LongitudeDegrees>
            </Position>
            <AltitudeMeters>190.399993896484375</AltitudeMeters>
            <DistanceMeters>75509.994472371</DistanceMeters>
          </Trackpoint>
          <Trackpoint>
            <Time>2021-10-09T10:11:39.000Z</Time>
            <Position>
              <LatitudeDegrees>39.42943786270916461944580078125</LatitudeDegrees>
              <LongitudeDegrees>-0.62040089629590511322021484375</LongitudeDegrees>
            </Position>
            <AltitudeMeters>190.399993896484375</AltitudeMeters>
            <DistanceMeters>75516.032969592</DistanceMeters>
          </Trackpoint>
          <Trackpoint>
            <Time>2021-10-09T10:11:42.000Z</Time>
            <Position>
              <LatitudeDegrees>39.42930207587778568267822265625</LatitudeDegrees>
              <LongitudeDegrees>-0.62027768231928348541259765625</LongitudeDegrees>
            </Position>
            <AltitudeMeters>190.399993896484375</AltitudeMeters>
            <DistanceMeters>75534.488958147</DistanceMeters>
          </Trackpoint>
          <Trackpoint>
            <Time>2021-10-09T10:11:44.000Z</Time>
            <Position>
              <LatitudeDegrees>39.42919244058430194854736328125</LatitudeDegrees>
              <LongitudeDegrees>-0.62025505118072032928466796875</LongitudeDegrees>
            </Position>
            <AltitudeMeters>190.1999969482421875</AltitudeMeters>
            <DistanceMeters>75546.846085348</DistanceMeters>
          </Trackpoint>
          <Trackpoint>
            <Time>2021-10-09T10:11:46.000Z</Time>
            <Position>
              <LatitudeDegrees>39.42908607423305511474609375</LatitudeDegrees>
              <LongitudeDegrees>-0.6202941946685314178466796875</LongitudeDegrees>
            </Position>
            <AltitudeMeters>190.399993896484375</AltitudeMeters>
            <DistanceMeters>75559.154154344</DistanceMeters>
          </Trackpoint>
          <Trackpoint>
            <Time>2021-10-09T10:11:47.000Z</Time>
            <Position>
              <LatitudeDegrees>39.42904181778430938720703125</LatitudeDegrees>
              <LongitudeDegrees>-0.62033702619373798370361328125</LongitudeDegrees>
            </Position>
            <AltitudeMeters>190.399993896484375</AltitudeMeters>
            <DistanceMeters>75565.30378524</DistanceMeters>
          </Trackpoint>
          <Trackpoint>
            <Time>2021-10-09T10:11:51.000Z</Time>
            <Position>
              <LatitudeDegrees>39.42889488302171230316162109375</LatitudeDegrees>
              <LongitudeDegrees>-0.62057373113930225372314453125</LongitudeDegrees>
            </Position>
            <AltitudeMeters>190.600006103515625</AltitudeMeters>
            <DistanceMeters>75591.410548343</DistanceMeters>
          </Trackpoint>
          <Trackpoint>
            <Time>2021-10-09T10:11:52.000Z</Time>
            <Position>
              <LatitudeDegrees>39.42884333431720733642578125</LatitudeDegrees>
              <LongitudeDegrees>-0.620623938739299774169921875</LongitudeDegrees>
            </Position>
            <AltitudeMeters>190.600006103515625</AltitudeMeters>
            <DistanceMeters>75598.589940821</DistanceMeters>
          </Trackpoint>
          <Trackpoint>
            <Time>2021-10-09T10:11:53.000Z</Time>
            <Position>
              <LatitudeDegrees>39.42878155969083309173583984375</LatitudeDegrees>
              <LongitudeDegrees>-0.62066651880741119384765625</LongitudeDegrees>
            </Position>
            <AltitudeMeters>190.8000030517578125</AltitudeMeters>
            <DistanceMeters>75606.379233704</DistanceMeters>
          </Trackpoint>
          <Trackpoint>
            <Time>2021-10-09T10:11:55.000Z</Time>
            <Position>
              <LatitudeDegrees>39.42863822914659976959228515625</LatitudeDegrees>
              <LongitudeDegrees>-0.620692670345306396484375</LongitudeDegrees>
            </Position>
            <AltitudeMeters>189.8000030517578125</AltitudeMeters>
            <DistanceMeters>75622.490115657</DistanceMeters>
          </Trackpoint>
          <Trackpoint>
            <Time>2021-10-09T10:11:57.000Z</Time>
            <Position>
              <LatitudeDegrees>39.42849372513592243194580078125</LatitudeDegrees>
              <LongitudeDegrees>-0.62065687961876392364501953125</LongitudeDegrees>
            </Position>
            <AltitudeMeters>189.8000030517578125</AltitudeMeters>
            <DistanceMeters>75638.865068785</DistanceMeters>
          </Trackpoint>
          <Trackpoint>
            <Time>2021-10-09T10:11:58.000Z</Time>
            <Position>
              <LatitudeDegrees>39.42842465825378894805908203125</LatitudeDegrees>
              <LongitudeDegrees>-0.62061413191258907318115234375</LongitudeDegrees>
            </Position>
            <AltitudeMeters>189.399993896484375</AltitudeMeters>
            <DistanceMeters>75647.38573863</DistanceMeters>
          </Trackpoint>
          <Trackpoint>
            <Time>2021-10-09T10:12:01.000Z</Time>
            <Position>
              <LatitudeDegrees>39.42823103629052639007568359375</LatitudeDegrees>
              <LongitudeDegrees>-0.62046694569289684295654296875</LongitudeDegrees>
            </Position>
            <AltitudeMeters>189</AltitudeMeters>
            <DistanceMeters>75672.376499863</DistanceMeters>
          </Trackpoint>
          <Trackpoint>
            <Time>2021-10-09T10:12:02.000Z</Time>
            <Position>
              <LatitudeDegrees>39.4281803257763385772705078125</LatitudeDegrees>
              <LongitudeDegrees>-0.62040768563747406005859375</LongitudeDegrees>
            </Position>
            <AltitudeMeters>188.399993896484375</AltitudeMeters>
            <DistanceMeters>75679.979824754</DistanceMeters>
          </Trackpoint>
          <Trackpoint>
            <Time>2021-10-09T10:12:03.000Z</Time>
            <Position>
              <LatitudeDegrees>39.42813363857567310333251953125</LatitudeDegrees>
              <LongitudeDegrees>-0.62034624628722667694091796875</LongitudeDegrees>
            </Position>
            <AltitudeMeters>188.399993896484375</AltitudeMeters>
            <DistanceMeters>75687.389471492</DistanceMeters>
          </Trackpoint>
          <Trackpoint>
            <Time>2021-10-09T10:12:05.000Z</Time>
            <Position>
              <LatitudeDegrees>39.4280656613409519195556640625</LatitudeDegrees>
              <LongitudeDegrees>-0.620207525789737701416015625</LongitudeDegrees>
            </Position>
            <AltitudeMeters>187.8000030517578125</AltitudeMeters>
            <DistanceMeters>75701.513011722</DistanceMeters>
          </Trackpoint>
          <Trackpoint>
            <Time>2021-10-09T10:12:07.000Z</Time>
            <Position>
              <LatitudeDegrees>39.42802635021507740020751953125</LatitudeDegrees>
              <LongitudeDegrees>-0.6200531311333179473876953125</LongitudeDegrees>
            </Position>
            <AltitudeMeters>187.399993896484375</AltitudeMeters>
            <DistanceMeters>75715.488724709</DistanceMeters>
          </Trackpoint>
          <Trackpoint>
            <Time>2021-10-09T10:12:08.000Z</Time>
            <Position>
              <LatitudeDegrees>39.42801478318870067596435546875</LatitudeDegrees>
              <LongitudeDegrees>-0.619972161948680877685546875</LongitudeDegrees>
            </Position>
            <AltitudeMeters>187.399993896484375</AltitudeMeters>
            <DistanceMeters>75722.567417681</DistanceMeters>
          </Trackpoint>
          <Trackpoint>
            <Time>2021-10-09T10:12:11.000Z</Time>
            <Position>
              <LatitudeDegrees>39.42797907628118991851806640625</LatitudeDegrees>
              <LongitudeDegrees>-0.61972598545253276824951171875</LongitudeDegrees>
            </Position>
            <AltitudeMeters>187.399993896484375</AltitudeMeters>
            <DistanceMeters>75744.101611783</DistanceMeters>
          </Trackpoint>
          <Trackpoint>
            <Time>2021-10-09T10:12:12.000Z</Time>
            <Position>
              <LatitudeDegrees>39.42795820534229278564453125</LatitudeDegrees>
              <LongitudeDegrees>-0.61964903958141803741455078125</LongitudeDegrees>
            </Position>
            <AltitudeMeters>187.600006103515625</AltitudeMeters>
            <DistanceMeters>75751.113012225</DistanceMeters>
          </Trackpoint>
          <Trackpoint>
            <Time>2021-10-09T10:12:13.000Z</Time>
            <Position>
              <LatitudeDegrees>39.42793129943311214447021484375</LatitudeDegrees>
              <LongitudeDegrees>-0.61957879923284053802490234375</LongitudeDegrees>
            </Position>
            <AltitudeMeters>187.600006103515625</AltitudeMeters>
            <DistanceMeters>75757.853213601</DistanceMeters>
          </Trackpoint>
          <Trackpoint>
            <Time>2021-10-09T10:12:15.000Z</Time>
            <Position>
              <LatitudeDegrees>39.4278520904481410980224609375</LatitudeDegrees>
              <LongitudeDegrees>-0.6194761209189891815185546875</LongitudeDegrees>
            </Position>
            <AltitudeMeters>187.600006103515625</AltitudeMeters>
            <DistanceMeters>75770.328885831</DistanceMeters>
          </Trackpoint>
          <Trackpoint>
            <Time>2021-10-09T10:12:17.000Z</Time>
            <Position>
              <LatitudeDegrees>39.427754022181034088134765625</LatitudeDegrees>
              <LongitudeDegrees>-0.6194211356341838836669921875</LongitudeDegrees>
            </Position>
            <AltitudeMeters>187.8000030517578125</AltitudeMeters>
            <DistanceMeters>75782.223938071</DistanceMeters>
          </Trackpoint>
          <Trackpoint>
            <Time>2021-10-09T10:12:19.000Z</Time>
            <Position>
              <LatitudeDegrees>39.42764799110591411590576171875</LatitudeDegrees>
              <LongitudeDegrees>-0.61938601545989513397216796875</LongitudeDegrees>
            </Position>
            <AltitudeMeters>188.1999969482421875</AltitudeMeters>
            <DistanceMeters>75794.405161989</DistanceMeters>
          </Trackpoint>
          <Trackpoint>
            <Time>2021-10-09T10:12:20.000Z</Time>
            <Position>
              <LatitudeDegrees>39.42759602330625057220458984375</LatitudeDegrees>
              <LongitudeDegrees>-0.61936967074871063232421875</LongitudeDegrees>
            </Position>
            <AltitudeMeters>188.600006103515625</AltitudeMeters>
            <DistanceMeters>75800.357051595</DistanceMeters>
          </Trackpoint>
          <Trackpoint>
            <Time>2021-10-09T10:12:22.000Z</Time>
            <Position>
              <LatitudeDegrees>39.42749275825917720794677734375</LatitudeDegrees>
              <LongitudeDegrees>-0.61933907680213451385498046875</LongitudeDegrees>
            </Position>
            <AltitudeMeters>189.399993896484375</AltitudeMeters>
            <DistanceMeters>75812.147642202</DistanceMeters>
          </Trackpoint>
          <Trackpoint>
            <Time>2021-10-09T10:12:23.000Z</Time>
            <Position>
              <LatitudeDegrees>39.42744347266852855682373046875</LatitudeDegrees>
              <LongitudeDegrees>-0.6193252466619014739990234375</LongitudeDegrees>
            </Position>
            <AltitudeMeters>189.600006103515625</AltitudeMeters>
            <DistanceMeters>75817.760657142</DistanceMeters>
          </Trackpoint>
          <Trackpoint>
            <Time>2021-10-09T10:12:26.000Z</Time>
            <Position>
              <LatitudeDegrees>39.42730299197137355804443359375</LatitudeDegrees>
              <LongitudeDegrees>-0.619285516440868377685546875</LongitudeDegrees>
            </Position>
            <AltitudeMeters>190.399993896484375</AltitudeMeters>
            <DistanceMeters>75833.765254869</DistanceMeters>
          </Trackpoint>
          <Trackpoint>
            <Time>2021-10-09T10:12:29.000Z</Time>
            <Position>
              <LatitudeDegrees>39.4271622598171234130859375</LatitudeDegrees>
              <LongitudeDegrees>-0.6192320398986339569091796875</LongitudeDegrees>
            </Position>
            <AltitudeMeters>190.8000030517578125</AltitudeMeters>
            <DistanceMeters>75850.090224887</DistanceMeters>
          </Trackpoint>
          <Trackpoint>
            <Time>2021-10-09T10:12:31.000Z</Time>
            <Position>
              <LatitudeDegrees>39.42707366310060024261474609375</LatitudeDegrees>
              <LongitudeDegrees>-0.61917143873870372772216796875</LongitudeDegrees>
            </Position>
            <AltitudeMeters>191.399993896484375</AltitudeMeters>
            <DistanceMeters>75861.242815301</DistanceMeters>
          </Trackpoint>
          <Trackpoint>
            <Time>2021-10-09T10:12:32.000Z</Time>
            <Position>
              <LatitudeDegrees>39.4270326755940914154052734375</LatitudeDegrees>
              <LongitudeDegrees>-0.61913103796541690826416015625</LongitudeDegrees>
            </Position>
            <AltitudeMeters>191.600006103515625</AltitudeMeters>
            <DistanceMeters>75866.976006232</DistanceMeters>
          </Trackpoint>
          <Trackpoint>
            <Time>2021-10-09T10:12:34.000Z</Time>
            <Position>
              <LatitudeDegrees>39.4269515387713909149169921875</LatitudeDegrees>
              <LongitudeDegrees>-0.6190385855734348297119140625</LongitudeDegrees>
            </Position>
            <AltitudeMeters>191.8000030517578125</AltitudeMeters>
            <DistanceMeters>75879.006553404</DistanceMeters>
          </Trackpoint>
          <Trackpoint>
            <Time>2021-10-09T10:12:38.000Z</Time>
            <Position>
              <LatitudeDegrees>39.4267845712602138519287109375</LatitudeDegrees>
              <LongitudeDegrees>-0.61882786452770233154296875</LongitudeDegrees>
            </Position>
            <AltitudeMeters>192</AltitudeMeters>
            <DistanceMeters>75904.959808731</DistanceMeters>
          </Trackpoint>
          <Trackpoint>
            <Time>2021-10-09T10:12:39.000Z</Time>
            <Position>
              <LatitudeDegrees>39.42674978636205196380615234375</LatitudeDegrees>
              <LongitudeDegrees>-0.61876491643488407135009765625</LongitudeDegrees>
            </Position>
            <AltitudeMeters>191.8000030517578125</AltitudeMeters>
            <DistanceMeters>75911.613036123</DistanceMeters>
          </Trackpoint>
          <Trackpoint>
            <Time>2021-10-09T10:12:41.000Z</Time>
            <Position>
              <LatitudeDegrees>39.4266950525343418121337890625</LatitudeDegrees>
              <LongitudeDegrees>-0.61862938106060028076171875</LongitudeDegrees>
            </Position>
            <AltitudeMeters>191.8000030517578125</AltitudeMeters>
            <DistanceMeters>75924.761794376</DistanceMeters>
          </Trackpoint>
          <Trackpoint>
            <Time>2021-10-09T10:12:43.000Z</Time>
            <Position>
              <LatitudeDegrees>39.42666898481547832489013671875</LatitudeDegrees>
              <LongitudeDegrees>-0.6184816919267177581787109375</LongitudeDegrees>
            </Position>
            <AltitudeMeters>191.8000030517578125</AltitudeMeters>
            <DistanceMeters>75937.786348729</DistanceMeters>
          </Trackpoint>
          <Trackpoint>
            <Time>2021-10-09T10:12:49.000Z</Time>
            <Position>
              <LatitudeDegrees>39.4266501255333423614501953125</LatitudeDegrees>
              <LongitudeDegrees>-0.61806435696780681610107421875</LongitudeDegrees>
            </Position>
            <AltitudeMeters>192.1999969482421875</AltitudeMeters>
            <DistanceMeters>75973.727557605</DistanceMeters>
          </Trackpoint>
          <Trackpoint>
            <Time>2021-10-09T10:12:50.000Z</Time>
            <Position>
              <LatitudeDegrees>39.4266447611153125762939453125</LatitudeDegrees>
              <LongitudeDegrees>-0.617998056113719940185546875</LongitudeDegrees>
            </Position>
            <AltitudeMeters>192.399993896484375</AltitudeMeters>
            <DistanceMeters>75979.459173267</DistanceMeters>
          </Trackpoint>
          <Trackpoint>
            <Time>2021-10-09T10:12:55.000Z</Time>
            <Position>
              <LatitudeDegrees>39.4265867583453655242919921875</LatitudeDegrees>
              <LongitudeDegrees>-0.617682896554470062255859375</LongitudeDegrees>
            </Position>
            <AltitudeMeters>193</AltitudeMeters>
            <DistanceMeters>76007.313187482</DistanceMeters>
          </Trackpoint>
          <Trackpoint>
            <Time>2021-10-09T10:12:56.000Z</Time>
            <Position>
              <LatitudeDegrees>39.42657410167157649993896484375</LatitudeDegrees>
              <LongitudeDegrees>-0.6176264025270938873291015625</LongitudeDegrees>
            </Position>
            <AltitudeMeters>193.1999969482421875</AltitudeMeters>
            <DistanceMeters>76012.369287404</DistanceMeters>
          </Trackpoint>
          <Trackpoint>
            <Time>2021-10-09T10:12:59.000Z</Time>
            <Position>
              <LatitudeDegrees>39.4265321083366870880126953125</LatitudeDegrees>
              <LongitudeDegrees>-0.61745767481625080108642578125</LongitudeDegrees>
            </Position>
            <AltitudeMeters>194.399993896484375</AltitudeMeters>
            <DistanceMeters>76027.609747577</DistanceMeters>
          </Trackpoint>
          <Trackpoint>
            <Time>2021-10-09T10:13:03.000Z</Time>
            <Position>
              <LatitudeDegrees>39.42646916024386882781982421875</LatitudeDegrees>
              <LongitudeDegrees>-0.617229603230953216552734375</LongitudeDegrees>
            </Position>
            <AltitudeMeters>195.399993896484375</AltitudeMeters>
            <DistanceMeters>76048.432093515</DistanceMeters>
          </Trackpoint>
          <Trackpoint>
            <Time>2021-10-09T10:13:04.000Z</Time>
            <Position>
              <LatitudeDegrees>39.42644552327692508697509765625</LatitudeDegrees>
              <LongitudeDegrees>-0.61716900207102298736572265625</LongitudeDegrees>
            </Position>
            <AltitudeMeters>195.600006103515625</AltitudeMeters>
            <DistanceMeters>76054.268312184</DistanceMeters>
          </Trackpoint>
          <Trackpoint>
            <Time>2021-10-09T10:13:05.000Z</Time>
            <Position>
              <LatitudeDegrees>39.4264187850058078765869140625</LatitudeDegrees>
              <LongitudeDegrees>-0.6171094067394733428955078125</LongitudeDegrees>
            </Position>
            <AltitudeMeters>195.600006103515625</AltitudeMeters>
            <DistanceMeters>76060.192829644</DistanceMeters>
          </Trackpoint>
          <Trackpoint>
            <Time>2021-10-09T10:13:10.000Z</Time>
            <Position>
              <LatitudeDegrees>39.4262712635099887847900390625</LatitudeDegrees>
              <LongitudeDegrees>-0.6168584525585174560546875</LongitudeDegrees>
            </Position>
            <AltitudeMeters>196.399993896484375</AltitudeMeters>
            <DistanceMeters>76087.305601598</DistanceMeters>
          </Trackpoint>
          <Trackpoint>
            <Time>2021-10-09T10:13:11.000Z</Time>
            <Position>
              <LatitudeDegrees>39.42623899318277835845947265625</LatitudeDegrees>
              <LongitudeDegrees>-0.6168173812329769134521484375</LongitudeDegrees>
            </Position>
            <AltitudeMeters>196.600006103515625</AltitudeMeters>
            <DistanceMeters>76092.342913858</DistanceMeters>
          </Trackpoint>
          <Trackpoint>
            <Time>2021-10-09T10:13:17.000Z</Time>
            <Position>
              <LatitudeDegrees>39.42604084499180316925048828125</LatitudeDegrees>
              <LongitudeDegrees>-0.61657480895519256591796875</LongitudeDegrees>
            </Position>
            <AltitudeMeters>197.8000030517578125</AltitudeMeters>
            <DistanceMeters>76122.696326673</DistanceMeters>
          </Trackpoint>
          <Trackpoint>
            <Time>2021-10-09T10:13:19.000Z</Time>
            <Position>
              <LatitudeDegrees>39.42597806453704833984375</LatitudeDegrees>
              <LongitudeDegrees>-0.6164834462106227874755859375</LongitudeDegrees>
            </Position>
            <AltitudeMeters>198.600006103515625</AltitudeMeters>
            <DistanceMeters>76133.209562886</DistanceMeters>
          </Trackpoint>
          <Trackpoint>
            <Time>2021-10-09T10:13:21.000Z</Time>
            <Position>
              <LatitudeDegrees>39.42592835985124111175537109375</LatitudeDegrees>
              <LongitudeDegrees>-0.61637942679226398468017578125</LongitudeDegrees>
            </Position>
            <AltitudeMeters>199</AltitudeMeters>
            <DistanceMeters>76143.725375557</DistanceMeters>
          </Trackpoint>
          <Trackpoint>
            <Time>2021-10-09T10:13:22.000Z</Time>
            <Position>
              <LatitudeDegrees>39.42590639926493167877197265625</LatitudeDegrees>
              <LongitudeDegrees>-0.61632670462131500244140625</LongitudeDegrees>
            </Position>
            <AltitudeMeters>199.1999969482421875</AltitudeMeters>
            <DistanceMeters>76148.875262402</DistanceMeters>
          </Trackpoint>
          <Trackpoint>
            <Time>2021-10-09T10:13:24.000Z</Time>
            <Position>
              <LatitudeDegrees>39.42586398683488368988037109375</LatitudeDegrees>
              <LongitudeDegrees>-0.616231150925159454345703125</LongitudeDegrees>
            </Position>
            <AltitudeMeters>199.399993896484375</AltitudeMeters>
            <DistanceMeters>76158.350336017</DistanceMeters>
          </Trackpoint>
          <Trackpoint>
            <Time>2021-10-09T10:13:25.000Z</Time>
            <Position>
              <LatitudeDegrees>39.4258387573063373565673828125</LatitudeDegrees>
              <LongitudeDegrees>-0.61619133688509464263916015625</LongitudeDegrees>
            </Position>
            <AltitudeMeters>199.8000030517578125</AltitudeMeters>
            <DistanceMeters>76162.778009893</DistanceMeters>
          </Trackpoint>
          <Trackpoint>
            <Time>2021-10-09T10:13:26.000Z</Time>
            <Position>
              <LatitudeDegrees>39.4258131086826324462890625</LatitudeDegrees>
              <LongitudeDegrees>-0.61615529470145702362060546875</LongitudeDegrees>
            </Position>
            <AltitudeMeters>200</AltitudeMeters>
            <DistanceMeters>76166.991456261</DistanceMeters>
          </Trackpoint>
          <Trackpoint>
            <Time>2021-10-09T10:13:30.000Z</Time>
            <Position>
              <LatitudeDegrees>39.425734318792819976806640625</LatitudeDegrees>
              <LongitudeDegrees>-0.61601380817592144012451171875</LongitudeDegrees>
            </Position>
            <AltitudeMeters>201</AltitudeMeters>
            <DistanceMeters>76181.987322147</DistanceMeters>
          </Trackpoint>
          <Trackpoint>
            <Time>2021-10-09T10:13:34.000Z</Time>
            <Position>
              <LatitudeDegrees>39.4256536848843097686767578125</LatitudeDegrees>
              <LongitudeDegrees>-0.61586402356624603271484375</LongitudeDegrees>
            </Position>
            <AltitudeMeters>202.399993896484375</AltitudeMeters>
            <DistanceMeters>76197.684285734</DistanceMeters>
          </Trackpoint>
          <Trackpoint>
            <Time>2021-10-09T10:13:37.000Z</Time>
            <Position>
              <LatitudeDegrees>39.42558369599282741546630859375</LatitudeDegrees>
              <LongitudeDegrees>-0.61574759893119335174560546875</LongitudeDegrees>
            </Position>
            <AltitudeMeters>202.8000030517578125</AltitudeMeters>
            <DistanceMeters>76210.367771526</DistanceMeters>
          </Trackpoint>
          <Trackpoint>
            <Time>2021-10-09T10:13:40.000Z</Time>
            <Position>
              <LatitudeDegrees>39.425511695444583892822265625</LatitudeDegrees>
              <LongitudeDegrees>-0.6156434118747711181640625</LongitudeDegrees>
            </Position>
            <AltitudeMeters>203.600006103515625</AltitudeMeters>
            <DistanceMeters>76222.38705449</DistanceMeters>
          </Trackpoint>
          <Trackpoint>
            <Time>2021-10-09T10:13:43.000Z</Time>
            <Position>
              <LatitudeDegrees>39.4254578836262226104736328125</LatitudeDegrees>
              <LongitudeDegrees>-0.6155222095549106597900390625</LongitudeDegrees>
            </Position>
            <AltitudeMeters>204.8000030517578125</AltitudeMeters>
            <DistanceMeters>76234.406337453</DistanceMeters>
          </Trackpoint>
          <Trackpoint>
            <Time>2021-10-09T10:13:44.000Z</Time>
            <Position>
              <LatitudeDegrees>39.42544254474341869354248046875</LatitudeDegrees>
              <LongitudeDegrees>-0.6154771149158477783203125</LongitudeDegrees>
            </Position>
            <AltitudeMeters>205</AltitudeMeters>
            <DistanceMeters>76238.64329296</DistanceMeters>
          </Trackpoint>
          <Trackpoint>
            <Time>2021-10-09T10:13:47.000Z</Time>
            <Position>
              <LatitudeDegrees>39.42539493553340435028076171875</LatitudeDegrees>
              <LongitudeDegrees>-0.61534191481769084930419921875</LongitudeDegrees>
            </Position>
            <AltitudeMeters>205.8000030517578125</AltitudeMeters>
            <DistanceMeters>76251.418290869</DistanceMeters>
          </Trackpoint>
          <Trackpoint>
            <Time>2021-10-09T10:13:50.000Z</Time>
            <Position>
              <LatitudeDegrees>39.425336681306362152099609375</LatitudeDegrees>
              <LongitudeDegrees>-0.61520461924374103546142578125</LongitudeDegrees>
            </Position>
            <AltitudeMeters>207</AltitudeMeters>
            <DistanceMeters>76264.885624881</DistanceMeters>
          </Trackpoint>
          <Trackpoint>
            <Time>2021-10-09T10:13:54.000Z</Time>
            <Position>
              <LatitudeDegrees>39.42525990307331085205078125</LatitudeDegrees>
              <LongitudeDegrees>-0.6150129251182079315185546875</LongitudeDegrees>
            </Position>
            <AltitudeMeters>207.8000030517578125</AltitudeMeters>
            <DistanceMeters>76283.450644614</DistanceMeters>
          </Trackpoint>
          <Trackpoint>
            <Time>2021-10-09T10:13:55.000Z</Time>
            <Position>
              <LatitudeDegrees>39.4252396188676357269287109375</LatitudeDegrees>
              <LongitudeDegrees>-0.6149700097739696502685546875</LongitudeDegrees>
            </Position>
            <AltitudeMeters>208</AltitudeMeters>
            <DistanceMeters>76287.777230851</DistanceMeters>
          </Trackpoint>
          <Trackpoint>
            <Time>2021-10-09T10:13:59.000Z</Time>
            <Position>
              <LatitudeDegrees>39.42512713372707366943359375</LatitudeDegrees>
              <LongitudeDegrees>-0.61479373835027217864990234375</LongitudeDegrees>
            </Position>
            <AltitudeMeters>209.1999969482421875</AltitudeMeters>
            <DistanceMeters>76307.434902669</DistanceMeters>
          </Trackpoint>
          <Trackpoint>
            <Time>2021-10-09T10:14:01.000Z</Time>
            <Position>
              <LatitudeDegrees>39.4250548817217350006103515625</LatitudeDegrees>
              <LongitudeDegrees>-0.61472542583942413330078125</LongitudeDegrees>
            </Position>
            <AltitudeMeters>209.399993896484375</AltitudeMeters>
            <DistanceMeters>76317.393230817</DistanceMeters>
          </Trackpoint>
          <Trackpoint>
            <Time>2021-10-09T10:14:08.000Z</Time>
            <Position>
              <LatitudeDegrees>39.4247658737003803253173828125</LatitudeDegrees>
              <LongitudeDegrees>-0.6144104339182376861572265625</LongitudeDegrees>
            </Position>
            <AltitudeMeters>209.600006103515625</AltitudeMeters>
            <DistanceMeters>76359.442525082</DistanceMeters>
          </Trackpoint>
          <Trackpoint>
            <Time>2021-10-09T10:14:14.000Z</Time>
            <Position>
              <LatitudeDegrees>39.42448583431541919708251953125</LatitudeDegrees>
              <LongitudeDegrees>-0.61407792381942272186279296875</LongitudeDegrees>
            </Position>
            <AltitudeMeters>209.1999969482421875</AltitudeMeters>
            <DistanceMeters>76401.73635256</DistanceMeters>
          </Trackpoint>
          <Trackpoint>
            <Time>2021-10-09T10:14:20.000Z</Time>
            <Position>
              <LatitudeDegrees>39.4242227263748645782470703125</LatitudeDegrees>
              <LongitudeDegrees>-0.6136791966855525970458984375</LongitudeDegrees>
            </Position>
            <AltitudeMeters>208</AltitudeMeters>
            <DistanceMeters>76446.822698259</DistanceMeters>
          </Trackpoint>
          <Trackpoint>
            <Time>2021-10-09T10:14:22.000Z</Time>
            <Position>
              <LatitudeDegrees>39.42413069307804107666015625</LatitudeDegrees>
              <LongitudeDegrees>-0.61354793608188629150390625</LongitudeDegrees>
            </Position>
            <AltitudeMeters>208</AltitudeMeters>
            <DistanceMeters>76462.063750928</DistanceMeters>
          </Trackpoint>
          <Trackpoint>
            <Time>2021-10-09T10:14:29.000Z</Time>
            <Position>
              <LatitudeDegrees>39.42379541695117950439453125</LatitudeDegrees>
              <LongitudeDegrees>-0.613059103488922119140625</LongitudeDegrees>
            </Position>
            <AltitudeMeters>207.1999969482421875</AltitudeMeters>
            <DistanceMeters>76518.268337236</DistanceMeters>
          </Trackpoint>
          <Trackpoint>
            <Time>2021-10-09T10:14:30.000Z</Time>
            <Position>
              <LatitudeDegrees>39.42374386824667453765869140625</LatitudeDegrees>
              <LongitudeDegrees>-0.61298676766455173492431640625</LongitudeDegrees>
            </Position>
            <AltitudeMeters>207.1999969482421875</AltitudeMeters>
            <DistanceMeters>76526.730518172</DistanceMeters>
          </Trackpoint>
          <Trackpoint>
            <Time>2021-10-09T10:14:33.000Z</Time>
            <Position>
              <LatitudeDegrees>39.42358888685703277587890625</LatitudeDegrees>
              <LongitudeDegrees>-0.6127654016017913818359375</LongitudeDegrees>
            </Position>
            <AltitudeMeters>207</AltitudeMeters>
            <DistanceMeters>76552.417102132</DistanceMeters>
          </Trackpoint>
          <Trackpoint>
            <Time>2021-10-09T10:14:37.000Z</Time>
            <Position>
              <LatitudeDegrees>39.42338026128709316253662109375</LatitudeDegrees>
              <LongitudeDegrees>-0.6124483980238437652587890625</LongitudeDegrees>
            </Position>
            <AltitudeMeters>206.600006103515625</AltitudeMeters>
            <DistanceMeters>76588.222633452</DistanceMeters>
          </Trackpoint>
          <Trackpoint>
            <Time>2021-10-09T10:14:40.000Z</Time>
            <Position>
              <LatitudeDegrees>39.423232488334178924560546875</LatitudeDegrees>
              <LongitudeDegrees>-0.6121972762048244476318359375</LongitudeDegrees>
            </Position>
            <AltitudeMeters>206</AltitudeMeters>
            <DistanceMeters>76615.364698525</DistanceMeters>
          </Trackpoint>
          <Trackpoint>
            <Time>2021-10-09T10:14:44.000Z</Time>
            <Position>
              <LatitudeDegrees>39.42302671261131763458251953125</LatitudeDegrees>
              <LongitudeDegrees>-0.6118532828986644744873046875</LongitudeDegrees>
            </Position>
            <AltitudeMeters>204.8000030517578125</AltitudeMeters>
            <DistanceMeters>76652.771684311</DistanceMeters>
          </Trackpoint>
          <Trackpoint>
            <Time>2021-10-09T10:14:45.000Z</Time>
            <Position>
              <LatitudeDegrees>39.42297340370714664459228515625</LatitudeDegrees>
              <LongitudeDegrees>-0.6117671169340610504150390625</LongitudeDegrees>
            </Position>
            <AltitudeMeters>204.399993896484375</AltitudeMeters>
            <DistanceMeters>76662.262945692</DistanceMeters>
          </Trackpoint>
          <Trackpoint>
            <Time>2021-10-09T10:14:48.000Z</Time>
            <Position>
              <LatitudeDegrees>39.42280475981533527374267578125</LatitudeDegrees>
              <LongitudeDegrees>-0.61150082387030124664306640625</LongitudeDegrees>
            </Position>
            <AltitudeMeters>203.600006103515625</AltitudeMeters>
            <DistanceMeters>76691.869219694</DistanceMeters>
          </Trackpoint>
          <Trackpoint>
            <Time>2021-10-09T10:14:52.000Z</Time>
            <Position>
              <LatitudeDegrees>39.42258280701935291290283203125</LatitudeDegrees>
              <LongitudeDegrees>-0.61112984083592891693115234375</LongitudeDegrees>
            </Position>
            <AltitudeMeters>202.600006103515625</AltitudeMeters>
            <DistanceMeters>76732.213627969</DistanceMeters>
          </Trackpoint>
          <Trackpoint>
            <Time>2021-10-09T10:14:53.000Z</Time>
            <Position>
              <LatitudeDegrees>39.42252161912620067596435546875</LatitudeDegrees>
              <LongitudeDegrees>-0.6110394001007080078125</LongitudeDegrees>
            </Position>
            <AltitudeMeters>202.399993896484375</AltitudeMeters>
            <DistanceMeters>76742.550158551</DistanceMeters>
          </Trackpoint>
          <Trackpoint>
            <Time>2021-10-09T10:14:55.000Z</Time>
            <Position>
              <LatitudeDegrees>39.4223927892744541168212890625</LatitudeDegrees>
              <LongitudeDegrees>-0.6108702532947063446044921875</LongitudeDegrees>
            </Position>
            <AltitudeMeters>201.399993896484375</AltitudeMeters>
            <DistanceMeters>76762.973608091</DistanceMeters>
          </Trackpoint>
          <Trackpoint>
            <Time>2021-10-09T10:14:57.000Z</Time>
            <Position>
              <LatitudeDegrees>39.422257505357265472412109375</LatitudeDegrees>
              <LongitudeDegrees>-0.61071979813277721405029296875</LongitudeDegrees>
            </Position>
            <AltitudeMeters>200</AltitudeMeters>
            <DistanceMeters>76782.824868404</DistanceMeters>
          </Trackpoint>
          <Trackpoint>
            <Time>2021-10-09T10:14:59.000Z</Time>
            <Position>
              <LatitudeDegrees>39.42212079651653766632080078125</LatitudeDegrees>
              <LongitudeDegrees>-0.61056691221892833709716796875</LongitudeDegrees>
            </Position>
            <AltitudeMeters>199.399993896484375</AltitudeMeters>
            <DistanceMeters>76802.93239542</DistanceMeters>
          </Trackpoint>
          <Trackpoint>
            <Time>2021-10-09T10:15:00.000Z</Time>
            <Position>
              <LatitudeDegrees>39.42205307073891162872314453125</LatitudeDegrees>
              <LongitudeDegrees>-0.61048594303429126739501953125</LongitudeDegrees>
            </Position>
            <AltitudeMeters>198.8000030517578125</AltitudeMeters>
            <DistanceMeters>76813.193520667</DistanceMeters>
          </Trackpoint>
          <Trackpoint>
            <Time>2021-10-09T10:15:04.000Z</Time>
            <Position>
              <LatitudeDegrees>39.42177428863942623138427734375</LatitudeDegrees>
              <LongitudeDegrees>-0.610150583088397979736328125</LongitudeDegrees>
            </Position>
            <AltitudeMeters>197.600006103515625</AltitudeMeters>
            <DistanceMeters>76855.551565344</DistanceMeters>
          </Trackpoint>
          <Trackpoint>
            <Time>2021-10-09T10:15:07.000Z</Time>
            <Position>
              <LatitudeDegrees>39.4215562753379344940185546875</LatitudeDegrees>
              <LongitudeDegrees>-0.6098962761461734771728515625</LongitudeDegrees>
            </Position>
            <AltitudeMeters>196.399993896484375</AltitudeMeters>
            <DistanceMeters>76888.215054622</DistanceMeters>
          </Trackpoint>
          <Trackpoint>
            <Time>2021-10-09T10:15:09.000Z</Time>
            <Position>
              <LatitudeDegrees>39.42140783183276653289794921875</LatitudeDegrees>
              <LongitudeDegrees>-0.6097336672246456146240234375</LongitudeDegrees>
            </Position>
            <AltitudeMeters>195.600006103515625</AltitudeMeters>
            <DistanceMeters>76909.859044683</DistanceMeters>
          </Trackpoint>
          <Trackpoint>
            <Time>2021-10-09T10:15:10.000Z</Time>
            <Position>
              <LatitudeDegrees>39.4213313050568103790283203125</LatitudeDegrees>
              <LongitudeDegrees>-0.6096572242677211761474609375</LongitudeDegrees>
            </Position>
            <AltitudeMeters>195</AltitudeMeters>
            <DistanceMeters>76920.617646816</DistanceMeters>
          </Trackpoint>
          <Trackpoint>
            <Time>2021-10-09T10:15:14.000Z</Time>
            <Position>
              <LatitudeDegrees>39.421039782464504241943359375</LatitudeDegrees>
              <LongitudeDegrees>-0.6093501113355159759521484375</LongitudeDegrees>
            </Position>
            <AltitudeMeters>193.600006103515625</AltitudeMeters>
            <DistanceMeters>76962.451640115</DistanceMeters>
          </Trackpoint>
          <Trackpoint>
            <Time>2021-10-09T10:15:20.000Z</Time>
            <Position>
              <LatitudeDegrees>39.42060601897537708282470703125</LatitudeDegrees>
              <LongitudeDegrees>-0.6088180281221866607666015625</LongitudeDegrees>
            </Position>
            <AltitudeMeters>192.399993896484375</AltitudeMeters>
            <DistanceMeters>77028.963416439</DistanceMeters>
          </Trackpoint>
          <Trackpoint>
            <Time>2021-10-09T10:15:21.000Z</Time>
            <Position>
              <LatitudeDegrees>39.42052840255200862884521484375</LatitudeDegrees>
              <LongitudeDegrees>-0.60872205533087253570556640625</LongitudeDegrees>
            </Position>
            <AltitudeMeters>191.600006103515625</AltitudeMeters>
            <DistanceMeters>77040.910356979</DistanceMeters>
          </Trackpoint>
          <Trackpoint>
            <Time>2021-10-09T10:15:22.000Z</Time>
            <Position>
              <LatitudeDegrees>39.42045070230960845947265625</LatitudeDegrees>
              <LongitudeDegrees>-0.6086275912821292877197265625</LongitudeDegrees>
            </Position>
            <AltitudeMeters>191.1999969482421875</AltitudeMeters>
            <DistanceMeters>77052.774623986</DistanceMeters>
          </Trackpoint>
          <Trackpoint>
            <Time>2021-10-09T10:15:25.000Z</Time>
            <Position>
              <LatitudeDegrees>39.420228414237499237060546875</LatitudeDegrees>
              <LongitudeDegrees>-0.6083580292761325836181640625</LongitudeDegrees>
            </Position>
            <AltitudeMeters>189.600006103515625</AltitudeMeters>
            <DistanceMeters>77086.676128517</DistanceMeters>
          </Trackpoint>
          <Trackpoint>
            <Time>2021-10-09T10:15:26.000Z</Time>
            <Position>
              <LatitudeDegrees>39.42016848362982273101806640625</LatitudeDegrees>
              <LongitudeDegrees>-0.6082594580948352813720703125</LongitudeDegrees>
            </Position>
            <AltitudeMeters>188.8000030517578125</AltitudeMeters>
            <DistanceMeters>77097.461974559</DistanceMeters>
          </Trackpoint>
          <Trackpoint>
            <Time>2021-10-09T10:15:27.000Z</Time>
            <Position>
              <LatitudeDegrees>39.420117437839508056640625</LatitudeDegrees>
              <LongitudeDegrees>-0.608154349029064178466796875</LongitudeDegrees>
            </Position>
            <AltitudeMeters>188.600006103515625</AltitudeMeters>
            <DistanceMeters>77108.137159087</DistanceMeters>
          </Trackpoint>
          <Trackpoint>
            <Time>2021-10-09T10:15:30.000Z</Time>
            <Position>
              <LatitudeDegrees>39.4199999235570430755615234375</LatitudeDegrees>
              <LongitudeDegrees>-0.6078360043466091156005859375</LongitudeDegrees>
            </Position>
            <AltitudeMeters>188</AltitudeMeters>
            <DistanceMeters>77138.47346095</DistanceMeters>
          </Trackpoint>
          <Trackpoint>
            <Time>2021-10-09T10:15:34.000Z</Time>
            <Position>
              <LatitudeDegrees>39.41984678618609905242919921875</LatitudeDegrees>
              <LongitudeDegrees>-0.6074410490691661834716796875</LongitudeDegrees>
            </Position>
            <AltitudeMeters>188</AltitudeMeters>
            <DistanceMeters>77176.469890017</DistanceMeters>
          </Trackpoint>
          <Trackpoint>
            <Time>2021-10-09T10:15:36.000Z</Time>
            <Position>
              <LatitudeDegrees>39.4197655655443668365478515625</LatitudeDegrees>
              <LongitudeDegrees>-0.60724868439137935638427734375</LongitudeDegrees>
            </Position>
            <AltitudeMeters>188.399993896484375</AltitudeMeters>
            <DistanceMeters>77195.318744826</DistanceMeters>
          </Trackpoint>
          <Trackpoint>
            <Time>2021-10-09T10:15:42.000Z</Time>
            <Position>
              <LatitudeDegrees>39.41951972432434558868408203125</LatitudeDegrees>
              <LongitudeDegrees>-0.60664552263915538787841796875</LongitudeDegrees>
            </Position>
            <AltitudeMeters>188.600006103515625</AltitudeMeters>
            <DistanceMeters>77253.956002838</DistanceMeters>
          </Trackpoint>
          <Trackpoint>
            <Time>2021-10-09T10:15:43.000Z</Time>
            <Position>
              <LatitudeDegrees>39.4194789044559001922607421875</LatitudeDegrees>
              <LongitudeDegrees>-0.606544353067874908447265625</LongitudeDegrees>
            </Position>
            <AltitudeMeters>188.600006103515625</AltitudeMeters>
            <DistanceMeters>77263.770012995</DistanceMeters>
          </Trackpoint>
          <Trackpoint>
            <Time>2021-10-09T10:15:49.000Z</Time>
            <Position>
              <LatitudeDegrees>39.4192123599350452423095703125</LatitudeDegrees>
              <LongitudeDegrees>-0.6059245951473712921142578125</LongitudeDegrees>
            </Position>
            <AltitudeMeters>187.600006103515625</AltitudeMeters>
            <DistanceMeters>77324.760213355</DistanceMeters>
          </Trackpoint>
          <Trackpoint>
            <Time>2021-10-09T10:15:53.000Z</Time>
            <Position>
              <LatitudeDegrees>39.41902971826493740081787109375</LatitudeDegrees>
              <LongitudeDegrees>-0.60550625436007976531982421875</LongitudeDegrees>
            </Position>
            <AltitudeMeters>186.8000030517578125</AltitudeMeters>
            <DistanceMeters>77366.077278006</DistanceMeters>
          </Trackpoint>
          <Trackpoint>
            <Time>2021-10-09T10:15:55.000Z</Time>
            <Position>
              <LatitudeDegrees>39.4189387746155261993408203125</LatitudeDegrees>
              <LongitudeDegrees>-0.6052939407527446746826171875</LongitudeDegrees>
            </Position>
            <AltitudeMeters>186.399993896484375</AltitudeMeters>
            <DistanceMeters>77386.951167164</DistanceMeters>
          </Trackpoint>
          <Trackpoint>
            <Time>2021-10-09T10:15:56.000Z</Time>
            <Position>
              <LatitudeDegrees>39.418873898684978485107421875</LatitudeDegrees>
              <LongitudeDegrees>-0.60517399571835994720458984375</LongitudeDegrees>
            </Position>
            <AltitudeMeters>186.1999969482421875</AltitudeMeters>
            <DistanceMeters>77399.541041342</DistanceMeters>
          </Trackpoint>
          <Trackpoint>
            <Time>2021-10-09T10:15:57.000Z</Time>
            <Position>
              <LatitudeDegrees>39.41882721148431301116943359375</LatitudeDegrees>
              <LongitudeDegrees>-0.6050978042185306549072265625</LongitudeDegrees>
            </Position>
            <AltitudeMeters>186</AltitudeMeters>
            <DistanceMeters>77407.903392207</DistanceMeters>
          </Trackpoint>
          <Trackpoint>
            <Time>2021-10-09T10:16:00.000Z</Time>
            <Position>
              <LatitudeDegrees>39.418645240366458892822265625</LatitudeDegrees>
              <LongitudeDegrees>-0.60482262633740901947021484375</LongitudeDegrees>
            </Position>
            <AltitudeMeters>185.1999969482421875</AltitudeMeters>
            <DistanceMeters>77439.048968649</DistanceMeters>
          </Trackpoint>
          <Trackpoint>
            <Time>2021-10-09T10:16:05.000Z</Time>
            <Position>
              <LatitudeDegrees>39.41831968724727630615234375</LatitudeDegrees>
              <LongitudeDegrees>-0.6043467856943607330322265625</LongitudeDegrees>
            </Position>
            <AltitudeMeters>183.600006103515625</AltitudeMeters>
            <DistanceMeters>77493.70213586</DistanceMeters>
          </Trackpoint>
          <Trackpoint>
            <Time>2021-10-09T10:16:09.000Z</Time>
            <Position>
              <LatitudeDegrees>39.4180824793875217437744140625</LatitudeDegrees>
              <LongitudeDegrees>-0.60398275963962078094482421875</LongitudeDegrees>
            </Position>
            <AltitudeMeters>182.1999969482421875</AltitudeMeters>
            <DistanceMeters>77534.650711718</DistanceMeters>
          </Trackpoint>
          <Trackpoint>
            <Time>2021-10-09T10:16:11.000Z</Time>
            <Position>
              <LatitudeDegrees>39.41794074140489101409912109375</LatitudeDegrees>
              <LongitudeDegrees>-0.6038234196603298187255859375</LongitudeDegrees>
            </Position>
            <AltitudeMeters>181.8000030517578125</AltitudeMeters>
            <DistanceMeters>77555.545355431</DistanceMeters>
          </Trackpoint>
          <Trackpoint>
            <Time>2021-10-09T10:16:12.000Z</Time>
            <Position>
              <LatitudeDegrees>39.41786706447601318359375</LatitudeDegrees>
              <LongitudeDegrees>-0.60375108383595943450927734375</LongitudeDegrees>
            </Position>
            <AltitudeMeters>181.1999969482421875</AltitudeMeters>
            <DistanceMeters>77565.838112926</DistanceMeters>
          </Trackpoint>
          <Trackpoint>
            <Time>2021-10-09T10:16:18.000Z</Time>
            <Position>
              <LatitudeDegrees>39.41741083748638629913330078125</LatitudeDegrees>
              <LongitudeDegrees>-0.60334523208439350128173828125</LongitudeDegrees>
            </Position>
            <AltitudeMeters>180.600006103515625</AltitudeMeters>
            <DistanceMeters>77627.452367589</DistanceMeters>
          </Trackpoint>
          <Trackpoint>
            <Time>2021-10-09T10:16:22.000Z</Time>
            <Position>
              <LatitudeDegrees>39.41709584556519985198974609375</LatitudeDegrees>
              <LongitudeDegrees>-0.60306795872747898101806640625</LongitudeDegrees>
            </Position>
            <AltitudeMeters>180.399993896484375</AltitudeMeters>
            <DistanceMeters>77669.85004603</DistanceMeters>
          </Trackpoint>
          <Trackpoint>
            <Time>2021-10-09T10:16:24.000Z</Time>
            <Position>
              <LatitudeDegrees>39.41693927161395549774169921875</LatitudeDegrees>
              <LongitudeDegrees>-0.60291356407105922698974609375</LongitudeDegrees>
            </Position>
            <AltitudeMeters>180</AltitudeMeters>
            <DistanceMeters>77691.757568321</DistanceMeters>
          </Trackpoint>
          <Trackpoint>
            <Time>2021-10-09T10:16:26.000Z</Time>
            <Position>
              <LatitudeDegrees>39.416812621057033538818359375</LatitudeDegrees>
              <LongitudeDegrees>-0.6027250550687313079833984375</LongitudeDegrees>
            </Position>
            <AltitudeMeters>179.600006103515625</AltitudeMeters>
            <DistanceMeters>77713.238650843</DistanceMeters>
          </Trackpoint>
          <Trackpoint>
            <Time>2021-10-09T10:16:28.000Z</Time>
            <Position>
              <LatitudeDegrees>39.416707344353199005126953125</LatitudeDegrees>
              <LongitudeDegrees>-0.6025124900043010711669921875</LongitudeDegrees>
            </Position>
            <AltitudeMeters>179</AltitudeMeters>
            <DistanceMeters>77734.950123628</DistanceMeters>
          </Trackpoint>
          <Trackpoint>
            <Time>2021-10-09T10:16:33.000Z</Time>
            <Position>
              <LatitudeDegrees>39.41640551201999187469482421875</LatitudeDegrees>
              <LongitudeDegrees>-0.6020323745906352996826171875</LongitudeDegrees>
            </Position>
            <AltitudeMeters>178</AltitudeMeters>
            <DistanceMeters>77788.175264136</DistanceMeters>
          </Trackpoint>
          <Trackpoint>
            <Time>2021-10-09T10:16:34.000Z</Time>
            <Position>
              <LatitudeDegrees>39.41634281538426876068115234375</LatitudeDegrees>
              <LongitudeDegrees>-0.60194394551217555999755859375</LongitudeDegrees>
            </Position>
            <AltitudeMeters>177.600006103515625</AltitudeMeters>
            <DistanceMeters>77798.496495254</DistanceMeters>
          </Trackpoint>
          <Trackpoint>
            <Time>2021-10-09T10:16:37.000Z</Time>
            <Position>
              <LatitudeDegrees>39.41615187563002109527587890625</LatitudeDegrees>
              <LongitudeDegrees>-0.60167086310684680938720703125</LongitudeDegrees>
            </Position>
            <AltitudeMeters>177</AltitudeMeters>
            <DistanceMeters>77830.167061575</DistanceMeters>
          </Trackpoint>
          <Trackpoint>
            <Time>2021-10-09T10:16:40.000Z</Time>
            <Position>
              <LatitudeDegrees>39.4159514643251895904541015625</LatitudeDegrees>
              <LongitudeDegrees>-0.60139241628348827362060546875</LongitudeDegrees>
            </Position>
            <AltitudeMeters>175.8000030517578125</AltitudeMeters>
            <DistanceMeters>77862.890487206</DistanceMeters>
          </Trackpoint>
          <Trackpoint>
            <Time>2021-10-09T10:16:42.000Z</Time>
            <Position>
              <LatitudeDegrees>39.41581576131284236907958984375</LatitudeDegrees>
              <LongitudeDegrees>-0.601211450994014739990234375</LongitudeDegrees>
            </Position>
            <AltitudeMeters>175.1999969482421875</AltitudeMeters>
            <DistanceMeters>77884.576158076</DistanceMeters>
          </Trackpoint>
          <Trackpoint>
            <Time>2021-10-09T10:16:44.000Z</Time>
            <Position>
              <LatitudeDegrees>39.41567896865308284759521484375</LatitudeDegrees>
              <LongitudeDegrees>-0.601028390228748321533203125</LongitudeDegrees>
            </Position>
            <AltitudeMeters>174.600006103515625</AltitudeMeters>
            <DistanceMeters>77906.475641173</DistanceMeters>
          </Trackpoint>
          <Trackpoint>
            <Time>2021-10-09T10:16:49.000Z</Time>
            <Position>
              <LatitudeDegrees>39.41531737335026264190673828125</LatitudeDegrees>
              <LongitudeDegrees>-0.60062899254262447357177734375</LongitudeDegrees>
            </Position>
            <AltitudeMeters>173.600006103515625</AltitudeMeters>
            <DistanceMeters>77959.383252504</DistanceMeters>
          </Trackpoint>
          <Trackpoint>
            <Time>2021-10-09T10:16:54.000Z</Time>
            <Position>
              <LatitudeDegrees>39.41492359153926372528076171875</LatitudeDegrees>
              <LongitudeDegrees>-0.60032707639038562774658203125</LongitudeDegrees>
            </Position>
            <AltitudeMeters>173</AltitudeMeters>
            <DistanceMeters>78010.323776131</DistanceMeters>
          </Trackpoint>
          <Trackpoint>
            <Time>2021-10-09T10:16:55.000Z</Time>
            <Position>
              <LatitudeDegrees>39.414854943752288818359375</LatitudeDegrees>
              <LongitudeDegrees>-0.600254237651824951171875</LongitudeDegrees>
            </Position>
            <AltitudeMeters>172.8000030517578125</AltitudeMeters>
            <DistanceMeters>78020.20381289</DistanceMeters>
          </Trackpoint>
          <Trackpoint>
            <Time>2021-10-09T10:16:56.000Z</Time>
            <Position>
              <LatitudeDegrees>39.4148018024861812591552734375</LatitudeDegrees>
              <LongitudeDegrees>-0.6001632101833820343017578125</LongitudeDegrees>
            </Position>
            <AltitudeMeters>172.8000030517578125</AltitudeMeters>
            <DistanceMeters>78030.015062295</DistanceMeters>
          </Trackpoint>
          <Trackpoint>
            <Time>2021-10-09T10:16:57.000Z</Time>
            <Position>
              <LatitudeDegrees>39.414767436683177947998046875</LatitudeDegrees>
              <LongitudeDegrees>-0.60005164705216884613037109375</LongitudeDegrees>
            </Position>
            <AltitudeMeters>172.600006103515625</AltitudeMeters>
            <DistanceMeters>78040.342853102</DistanceMeters>
          </Trackpoint>
          <Trackpoint>
            <Time>2021-10-09T10:16:58.000Z</Time>
            <Position>
              <LatitudeDegrees>39.4147578813135623931884765625</LatitudeDegrees>
              <LongitudeDegrees>-0.59992709197103977203369140625</LongitudeDegrees>
            </Position>
            <AltitudeMeters>172.600006103515625</AltitudeMeters>
            <DistanceMeters>78051.105651095</DistanceMeters>
          </Trackpoint>
          <Trackpoint>
            <Time>2021-10-09T10:16:59.000Z</Time>
            <Position>
              <LatitudeDegrees>39.4147736392915248870849609375</LatitudeDegrees>
              <LongitudeDegrees>-0.5997991003096103668212890625</LongitudeDegrees>
            </Position>
            <AltitudeMeters>172.600006103515625</AltitudeMeters>
            <DistanceMeters>78062.250546854</DistanceMeters>
          </Trackpoint>
          <Trackpoint>
            <Time>2021-10-09T10:17:02.000Z</Time>
            <Position>
              <LatitudeDegrees>39.4148187339305877685546875</LatitudeDegrees>
              <LongitudeDegrees>-0.5994323082268238067626953125</LongitudeDegrees>
            </Position>
            <AltitudeMeters>171.399993896484375</AltitudeMeters>
            <DistanceMeters>78094.187158045</DistanceMeters>
          </Trackpoint>
          <Trackpoint>
            <Time>2021-10-09T10:17:03.000Z</Time>
            <Position>
              <LatitudeDegrees>39.41481445915997028350830078125</LatitudeDegrees>
              <LongitudeDegrees>-0.5993132852017879486083984375</LongitudeDegrees>
            </Position>
            <AltitudeMeters>171.1999969482421875</AltitudeMeters>
            <DistanceMeters>78104.432871229</DistanceMeters>
          </Trackpoint>
          <Trackpoint>
            <Time>2021-10-09T10:17:06.000Z</Time>
            <Position>
              <LatitudeDegrees>39.41478361375629901885986328125</LatitudeDegrees>
              <LongitudeDegrees>-0.5989736504852771759033203125</LongitudeDegrees>
            </Position>
            <AltitudeMeters>170.1999969482421875</AltitudeMeters>
            <DistanceMeters>78133.838688003</DistanceMeters>
          </Trackpoint>
          <Trackpoint>
            <Time>2021-10-09T10:17:09.000Z</Time>
            <Position>
              <LatitudeDegrees>39.41477942280471324920654296875</LatitudeDegrees>
              <LongitudeDegrees>-0.598623789846897125244140625</LongitudeDegrees>
            </Position>
            <AltitudeMeters>169.399993896484375</AltitudeMeters>
            <DistanceMeters>78163.92631276</DistanceMeters>
          </Trackpoint>
          <Trackpoint>
            <Time>2021-10-09T10:17:11.000Z</Time>
            <Position>
              <LatitudeDegrees>39.41477959044277667999267578125</LatitudeDegrees>
              <LongitudeDegrees>-0.59838951565325260162353515625</LongitudeDegrees>
            </Position>
            <AltitudeMeters>169</AltitudeMeters>
            <DistanceMeters>78184.071079708</DistanceMeters>
          </Trackpoint>
          <Trackpoint>
            <Time>2021-10-09T10:17:17.000Z</Time>
            <Position>
              <LatitudeDegrees>39.41479258239269256591796875</LatitudeDegrees>
              <LongitudeDegrees>-0.59767470695078372955322265625</LongitudeDegrees>
            </Position>
            <AltitudeMeters>168</AltitudeMeters>
            <DistanceMeters>78245.553363906</DistanceMeters>
          </Trackpoint>
          <Trackpoint>
            <Time>2021-10-09T10:17:19.000Z</Time>
            <Position>
              <LatitudeDegrees>39.41479467786848545074462890625</LatitudeDegrees>
              <LongitudeDegrees>-0.59746599756181240081787109375</LongitudeDegrees>
            </Position>
            <AltitudeMeters>167.8000030517578125</AltitudeMeters>
            <DistanceMeters>78263.501090416</DistanceMeters>
          </Trackpoint>
          <Trackpoint>
            <Time>2021-10-09T10:17:22.000Z</Time>
            <Position>
              <LatitudeDegrees>39.414793588221073150634765625</LatitudeDegrees>
              <LongitudeDegrees>-0.5971158854663372039794921875</LongitudeDegrees>
            </Position>
            <AltitudeMeters>167</AltitudeMeters>
            <DistanceMeters>78293.607017289</DistanceMeters>
          </Trackpoint>
          <Trackpoint>
            <Time>2021-10-09T10:17:29.000Z</Time>
            <Position>
              <LatitudeDegrees>39.4148011319339275360107421875</LatitudeDegrees>
              <LongitudeDegrees>-0.5963476002216339111328125</LongitudeDegrees>
            </Position>
            <AltitudeMeters>166</AltitudeMeters>
            <DistanceMeters>78359.67607883</DistanceMeters>
          </Trackpoint>
          <Trackpoint>
            <Time>2021-10-09T10:17:35.000Z</Time>
            <Position>
              <LatitudeDegrees>39.41474572755396366119384765625</LatitudeDegrees>
              <LongitudeDegrees>-0.59572524391114711761474609375</LongitudeDegrees>
            </Position>
            <AltitudeMeters>166.1999969482421875</AltitudeMeters>
            <DistanceMeters>78413.545750133</DistanceMeters>
          </Trackpoint>
          <Trackpoint>
            <Time>2021-10-09T10:17:41.000Z</Time>
            <Position>
              <LatitudeDegrees>39.4147220067679882049560546875</LatitudeDegrees>
              <LongitudeDegrees>-0.5950991995632648468017578125</LongitudeDegrees>
            </Position>
            <AltitudeMeters>166.1999969482421875</AltitudeMeters>
            <DistanceMeters>78467.443072994</DistanceMeters>
          </Trackpoint>
          <Trackpoint>
            <Time>2021-10-09T10:17:44.000Z</Time>
            <Position>
              <LatitudeDegrees>39.41470197401940822601318359375</LatitudeDegrees>
              <LongitudeDegrees>-0.59476040303707122802734375</LongitudeDegrees>
            </Position>
            <AltitudeMeters>166.1999969482421875</AltitudeMeters>
            <DistanceMeters>78496.660813098</DistanceMeters>
          </Trackpoint>
          <Trackpoint>
            <Time>2021-10-09T10:17:47.000Z</Time>
            <Position>
              <LatitudeDegrees>39.41469141282141208648681640625</LatitudeDegrees>
              <LongitudeDegrees>-0.59446678496897220611572265625</LongitudeDegrees>
            </Position>
            <AltitudeMeters>165.8000030517578125</AltitudeMeters>
            <DistanceMeters>78521.935954206</DistanceMeters>
          </Trackpoint>
          <Trackpoint>
            <Time>2021-10-09T10:17:49.000Z</Time>
            <Position>
              <LatitudeDegrees>39.4146955199539661407470703125</LatitudeDegrees>
              <LongitudeDegrees>-0.59425505809485912322998046875</LongitudeDegrees>
            </Position>
            <AltitudeMeters>165.600006103515625</AltitudeMeters>
            <DistanceMeters>78540.147892812</DistanceMeters>
          </Trackpoint>
          <Trackpoint>
            <Time>2021-10-09T10:17:51.000Z</Time>
            <Position>
              <LatitudeDegrees>39.41473348997533321380615234375</LatitudeDegrees>
              <LongitudeDegrees>-0.59404349885880947113037109375</LongitudeDegrees>
            </Position>
            <AltitudeMeters>165.600006103515625</AltitudeMeters>
            <DistanceMeters>78558.823724859</DistanceMeters>
          </Trackpoint>
          <Trackpoint>
            <Time>2021-10-09T10:17:56.000Z</Time>
            <Position>
              <LatitudeDegrees>39.41492736339569091796875</LatitudeDegrees>
              <LongitudeDegrees>-0.593537986278533935546875</LongitudeDegrees>
            </Position>
            <AltitudeMeters>164.8000030517578125</AltitudeMeters>
            <DistanceMeters>78607.353264082</DistanceMeters>
          </Trackpoint>
          <Trackpoint>
            <Time>2021-10-09T10:18:03.000Z</Time>
            <Position>
              <LatitudeDegrees>39.41521226428449153900146484375</LatitudeDegrees>
              <LongitudeDegrees>-0.5928659252822399139404296875</LongitudeDegrees>
            </Position>
            <AltitudeMeters>163.8000030517578125</AltitudeMeters>
            <DistanceMeters>78673.270851292</DistanceMeters>
          </Trackpoint>
          <Trackpoint>
            <Time>2021-10-09T10:18:07.000Z</Time>
            <Position>
              <LatitudeDegrees>39.41535794176161289215087890625</LatitudeDegrees>
              <LongitudeDegrees>-0.59248245321214199066162109375</LongitudeDegrees>
            </Position>
            <AltitudeMeters>163.8000030517578125</AltitudeMeters>
            <DistanceMeters>78710.015729303</DistanceMeters>
          </Trackpoint>
          <Trackpoint>
            <Time>2021-10-09T10:18:08.000Z</Time>
            <Position>
              <LatitudeDegrees>39.4153610430657863616943359375</LatitudeDegrees>
              <LongitudeDegrees>-0.59240634553134441375732421875</LongitudeDegrees>
            </Position>
            <AltitudeMeters>164</AltitudeMeters>
            <DistanceMeters>78716.569128693</DistanceMeters>
          </Trackpoint>
          <Trackpoint>
            <Time>2021-10-09T10:18:09.000Z</Time>
            <Position>
              <LatitudeDegrees>39.41534855403006076812744140625</LatitudeDegrees>
              <LongitudeDegrees>-0.59231263585388660430908203125</LongitudeDegrees>
            </Position>
            <AltitudeMeters>164</AltitudeMeters>
            <DistanceMeters>78724.74529258</DistanceMeters>
          </Trackpoint>
          <Trackpoint>
            <Time>2021-10-09T10:18:11.000Z</Time>
            <Position>
              <LatitudeDegrees>39.41529273055493831634521484375</LatitudeDegrees>
              <LongitudeDegrees>-0.592138208448886871337890625</LongitudeDegrees>
            </Position>
            <AltitudeMeters>164.600006103515625</AltitudeMeters>
            <DistanceMeters>78740.979571471</DistanceMeters>
          </Trackpoint>
          <Trackpoint>
            <Time>2021-10-09T10:18:17.000Z</Time>
            <Position>
              <LatitudeDegrees>39.41516197286546230316162109375</LatitudeDegrees>
              <LongitudeDegrees>-0.59164694510400295257568359375</LongitudeDegrees>
            </Position>
            <AltitudeMeters>165.600006103515625</AltitudeMeters>
            <DistanceMeters>78785.659107495</DistanceMeters>
          </Trackpoint>
          <Trackpoint>
            <Time>2021-10-09T10:18:19.000Z</Time>
            <Position>
              <LatitudeDegrees>39.41514520905911922454833984375</LatitudeDegrees>
              <LongitudeDegrees>-0.5914926342666149139404296875</LongitudeDegrees>
            </Position>
            <AltitudeMeters>166.1999969482421875</AltitudeMeters>
            <DistanceMeters>78799.058885105</DistanceMeters>
          </Trackpoint>
          <Trackpoint>
            <Time>2021-10-09T10:18:24.000Z</Time>
            <Position>
              <LatitudeDegrees>39.4151058979332447052001953125</LatitudeDegrees>
              <LongitudeDegrees>-0.59107865206897258758544921875</LongitudeDegrees>
            </Position>
            <AltitudeMeters>167</AltitudeMeters>
            <DistanceMeters>78834.924389276</DistanceMeters>
          </Trackpoint>
          <Trackpoint>
            <Time>2021-10-09T10:18:25.000Z</Time>
            <Position>
              <LatitudeDegrees>39.41509835422039031982421875</LatitudeDegrees>
              <LongitudeDegrees>-0.59097320772707462310791015625</LongitudeDegrees>
            </Position>
            <AltitudeMeters>167.1999969482421875</AltitudeMeters>
            <DistanceMeters>78844.03011066</DistanceMeters>
          </Trackpoint>
          <Trackpoint>
            <Time>2021-10-09T10:18:27.000Z</Time>
            <Position>
              <LatitudeDegrees>39.41509726457297801971435546875</LatitudeDegrees>
              <LongitudeDegrees>-0.59081613086163997650146484375</LongitudeDegrees>
            </Position>
            <AltitudeMeters>167.600006103515625</AltitudeMeters>
            <DistanceMeters>78857.537281513</DistanceMeters>
          </Trackpoint>
          <Trackpoint>
            <Time>2021-10-09T10:18:29.000Z</Time>
            <Position>
              <LatitudeDegrees>39.41511176526546478271484375</LatitudeDegrees>
              <LongitudeDegrees>-0.59063759632408618927001953125</LongitudeDegrees>
            </Position>
            <AltitudeMeters>167.600006103515625</AltitudeMeters>
            <DistanceMeters>78872.973785561</DistanceMeters>
          </Trackpoint>
          <Trackpoint>
            <Time>2021-10-09T10:18:34.000Z</Time>
            <Position>
              <LatitudeDegrees>39.41513749770820140838623046875</LatitudeDegrees>
              <LongitudeDegrees>-0.59014289639890193939208984375</LongitudeDegrees>
            </Position>
            <AltitudeMeters>167.8000030517578125</AltitudeMeters>
            <DistanceMeters>78915.608386975</DistanceMeters>
          </Trackpoint>
          <Trackpoint>
            <Time>2021-10-09T10:18:36.000Z</Time>
            <Position>
              <LatitudeDegrees>39.41515342332422733306884765625</LatitudeDegrees>
              <LongitudeDegrees>-0.589960254728794097900390625</LongitudeDegrees>
            </Position>
            <AltitudeMeters>167.600006103515625</AltitudeMeters>
            <DistanceMeters>78931.413132294</DistanceMeters>
          </Trackpoint>
          <Trackpoint>
            <Time>2021-10-09T10:18:43.000Z</Time>
            <Position>
              <LatitudeDegrees>39.415212012827396392822265625</LatitudeDegrees>
              <LongitudeDegrees>-0.589235723018646240234375</LongitudeDegrees>
            </Position>
            <AltitudeMeters>166.399993896484375</AltitudeMeters>
            <DistanceMeters>78994.054552123</DistanceMeters>
          </Trackpoint>
          <Trackpoint>
            <Time>2021-10-09T10:18:46.000Z</Time>
            <Position>
              <LatitudeDegrees>39.41523523069918155670166015625</LatitudeDegrees>
              <LongitudeDegrees>-0.58891930617392063140869140625</LongitudeDegrees>
            </Position>
            <AltitudeMeters>166.1999969482421875</AltitudeMeters>
            <DistanceMeters>79021.384935642</DistanceMeters>
          </Trackpoint>
          <Trackpoint>
            <Time>2021-10-09T10:18:49.000Z</Time>
            <Position>
              <LatitudeDegrees>39.41523221321403980255126953125</LatitudeDegrees>
              <LongitudeDegrees>-0.58858889155089855194091796875</LongitudeDegrees>
            </Position>
            <AltitudeMeters>165.399993896484375</AltitudeMeters>
            <DistanceMeters>79049.798717765</DistanceMeters>
          </Trackpoint>
          <Trackpoint>
            <Time>2021-10-09T10:18:51.000Z</Time>
            <Position>
              <LatitudeDegrees>39.41522483713924884796142578125</LatitudeDegrees>
              <LongitudeDegrees>-0.5883735604584217071533203125</LongitudeDegrees>
            </Position>
            <AltitudeMeters>165.1999969482421875</AltitudeMeters>
            <DistanceMeters>79068.33258158</DistanceMeters>
          </Trackpoint>
          <Trackpoint>
            <Time>2021-10-09T10:18:52.000Z</Time>
            <Position>
              <LatitudeDegrees>39.4152289442718029022216796875</LatitudeDegrees>
              <LongitudeDegrees>-0.58826350606977939605712890625</LongitudeDegrees>
            </Position>
            <AltitudeMeters>164.8000030517578125</AltitudeMeters>
            <DistanceMeters>79077.807178666</DistanceMeters>
          </Trackpoint>
          <Trackpoint>
            <Time>2021-10-09T10:18:54.000Z</Time>
            <Position>
              <LatitudeDegrees>39.4152607955038547515869140625</LatitudeDegrees>
              <LongitudeDegrees>-0.5880510248243808746337890625</LongitudeDegrees>
            </Position>
            <AltitudeMeters>164.399993896484375</AltitudeMeters>
            <DistanceMeters>79096.418834487</DistanceMeters>
          </Trackpoint>
          <Trackpoint>
            <Time>2021-10-09T10:18:58.000Z</Time>
            <Position>
              <LatitudeDegrees>39.4153788127005100250244140625</LatitudeDegrees>
              <LongitudeDegrees>-0.587634108960628509521484375</LongitudeDegrees>
            </Position>
            <AltitudeMeters>163.600006103515625</AltitudeMeters>
            <DistanceMeters>79134.599239153</DistanceMeters>
          </Trackpoint>
          <Trackpoint>
            <Time>2021-10-09T10:19:00.000Z</Time>
            <Position>
              <LatitudeDegrees>39.41545031033456325531005859375</LatitudeDegrees>
              <LongitudeDegrees>-0.58743285946547985076904296875</LongitudeDegrees>
            </Position>
            <AltitudeMeters>163.399993896484375</AltitudeMeters>
            <DistanceMeters>79153.646347889</DistanceMeters>
          </Trackpoint>
          <Trackpoint>
            <Time>2021-10-09T10:19:04.000Z</Time>
            <Position>
              <LatitudeDegrees>39.41562767140567302703857421875</LatitudeDegrees>
              <LongitudeDegrees>-0.58705584146082401275634765625</LongitudeDegrees>
            </Position>
            <AltitudeMeters>162.600006103515625</AltitudeMeters>
            <DistanceMeters>79191.602591856</DistanceMeters>
          </Trackpoint>
          <Trackpoint>
            <Time>2021-10-09T10:19:05.000Z</Time>
            <Position>
              <LatitudeDegrees>39.415665976703166961669921875</LatitudeDegrees>
              <LongitudeDegrees>-0.586956851184368133544921875</LongitudeDegrees>
            </Position>
            <AltitudeMeters>162.399993896484375</AltitudeMeters>
            <DistanceMeters>79201.122352735</DistanceMeters>
          </Trackpoint>
          <Trackpoint>
            <Time>2021-10-09T10:19:10.000Z</Time>
            <Position>
              <LatitudeDegrees>39.41578893922269344329833984375</LatitudeDegrees>
              <LongitudeDegrees>-0.58645762503147125244140625</LongitudeDegrees>
            </Position>
            <AltitudeMeters>161.600006103515625</AltitudeMeters>
            <DistanceMeters>79246.178345181</DistanceMeters>
          </Trackpoint>
          <Trackpoint>
            <Time>2021-10-09T10:19:12.000Z</Time>
            <Position>
              <LatitudeDegrees>39.41581240855157375335693359375</LatitudeDegrees>
              <LongitudeDegrees>-0.586256124079227447509765625</LongitudeDegrees>
            </Position>
            <AltitudeMeters>161.600006103515625</AltitudeMeters>
            <DistanceMeters>79263.700663211</DistanceMeters>
          </Trackpoint>
          <Trackpoint>
            <Time>2021-10-09T10:19:14.000Z</Time>
            <Position>
              <LatitudeDegrees>39.41582146100699901580810546875</LatitudeDegrees>
              <LongitudeDegrees>-0.58605663478374481201171875</LongitudeDegrees>
            </Position>
            <AltitudeMeters>161.600006103515625</AltitudeMeters>
            <DistanceMeters>79280.883952756</DistanceMeters>
          </Trackpoint>
          <Trackpoint>
            <Time>2021-10-09T10:19:22.000Z</Time>
            <Position>
              <LatitudeDegrees>39.41585096530616283416748046875</LatitudeDegrees>
              <LongitudeDegrees>-0.58529983274638652801513671875</LongitudeDegrees>
            </Position>
            <AltitudeMeters>161.600006103515625</AltitudeMeters>
            <DistanceMeters>79346.042073822</DistanceMeters>
          </Trackpoint>
          <Trackpoint>
            <Time>2021-10-09T10:19:23.000Z</Time>
            <Position>
              <LatitudeDegrees>39.4158408232033252716064453125</LatitudeDegrees>
              <LongitudeDegrees>-0.58520863763988018035888671875</LongitudeDegrees>
            </Position>
            <AltitudeMeters>161.600006103515625</AltitudeMeters>
            <DistanceMeters>79353.964703522</DistanceMeters>
          </Trackpoint>
          <Trackpoint>
            <Time>2021-10-09T10:19:25.000Z</Time>
            <Position>
              <LatitudeDegrees>39.41580017097294330596923828125</LatitudeDegrees>
              <LongitudeDegrees>-0.5850459448993206024169921875</LongitudeDegrees>
            </Position>
            <AltitudeMeters>161.600006103515625</AltitudeMeters>
            <DistanceMeters>79368.66776545</DistanceMeters>
          </Trackpoint>
          <Trackpoint>
            <Time>2021-10-09T10:19:26.000Z</Time>
            <Position>
              <LatitudeDegrees>39.4157727621495723724365234375</LatitudeDegrees>
              <LongitudeDegrees>-0.5849738605320453643798828125</LongitudeDegrees>
            </Position>
            <AltitudeMeters>161.600006103515625</AltitudeMeters>
            <DistanceMeters>79375.576018052</DistanceMeters>
          </Trackpoint>
          <Trackpoint>
            <Time>2021-10-09T10:19:32.000Z</Time>
            <Position>
              <LatitudeDegrees>39.4155930541455745697021484375</LatitudeDegrees>
              <LongitudeDegrees>-0.584562309086322784423828125</LongitudeDegrees>
            </Position>
            <AltitudeMeters>162.1999969482421875</AltitudeMeters>
            <DistanceMeters>79416.225687526</DistanceMeters>
          </Trackpoint>
          <Trackpoint>
            <Time>2021-10-09T10:19:38.000Z</Time>
            <Position>
              <LatitudeDegrees>39.41537805832922458648681640625</LatitudeDegrees>
              <LongitudeDegrees>-0.5840850435197353363037109375</LongitudeDegrees>
            </Position>
            <AltitudeMeters>162.8000030517578125</AltitudeMeters>
            <DistanceMeters>79463.731632049</DistanceMeters>
          </Trackpoint>
          <Trackpoint>
            <Time>2021-10-09T10:19:39.000Z</Time>
            <Position>
              <LatitudeDegrees>39.41534302197396755218505859375</LatitudeDegrees>
              <LongitudeDegrees>-0.58399477042257785797119140625</LongitudeDegrees>
            </Position>
            <AltitudeMeters>162.600006103515625</AltitudeMeters>
            <DistanceMeters>79472.418653912</DistanceMeters>
          </Trackpoint>
          <Trackpoint>
            <Time>2021-10-09T10:19:41.000Z</Time>
            <Position>
              <LatitudeDegrees>39.41530714742839336395263671875</LatitudeDegrees>
              <LongitudeDegrees>-0.58379796333611011505126953125</LongitudeDegrees>
            </Position>
            <AltitudeMeters>162.1999969482421875</AltitudeMeters>
            <DistanceMeters>79489.806465431</DistanceMeters>
          </Trackpoint>
          <Trackpoint>
            <Time>2021-10-09T10:19:43.000Z</Time>
            <Position>
              <LatitudeDegrees>39.41532307304441928863525390625</LatitudeDegrees>
              <LongitudeDegrees>-0.58359227143228054046630859375</LongitudeDegrees>
            </Position>
            <AltitudeMeters>161.399993896484375</AltitudeMeters>
            <DistanceMeters>79507.581795942</DistanceMeters>
          </Trackpoint>
          <Trackpoint>
            <Time>2021-10-09T10:19:45.000Z</Time>
            <Position>
              <LatitudeDegrees>39.41535995341837406158447265625</LatitudeDegrees>
              <LongitudeDegrees>-0.58338557370007038116455078125</LongitudeDegrees>
            </Position>
            <AltitudeMeters>160.399993896484375</AltitudeMeters>
            <DistanceMeters>79525.822965225</DistanceMeters>
          </Trackpoint>
          <Trackpoint>
            <Time>2021-10-09T10:19:48.000Z</Time>
            <Position>
              <LatitudeDegrees>39.4154166989028453826904296875</LatitudeDegrees>
              <LongitudeDegrees>-0.58307494036853313446044921875</LongitudeDegrees>
            </Position>
            <AltitudeMeters>159.1999969482421875</AltitudeMeters>
            <DistanceMeters>79553.270062656</DistanceMeters>
          </Trackpoint>
          <Trackpoint>
            <Time>2021-10-09T10:19:51.000Z</Time>
            <Position>
              <LatitudeDegrees>39.415464140474796295166015625</LatitudeDegrees>
              <LongitudeDegrees>-0.58275760151445865631103515625</LongitudeDegrees>
            </Position>
            <AltitudeMeters>159</AltitudeMeters>
            <DistanceMeters>79581.063549112</DistanceMeters>
          </Trackpoint>
          <Trackpoint>
            <Time>2021-10-09T10:19:52.000Z</Time>
            <Position>
              <LatitudeDegrees>39.4154797308146953582763671875</LatitudeDegrees>
              <LongitudeDegrees>-0.58265249244868755340576171875</LongitudeDegrees>
            </Position>
            <AltitudeMeters>159</AltitudeMeters>
            <DistanceMeters>79590.26692442</DistanceMeters>
          </Trackpoint>
          <Trackpoint>
            <Time>2021-10-09T10:19:54.000Z</Time>
            <Position>
              <LatitudeDegrees>39.41551200114190578460693359375</LatitudeDegrees>
              <LongitudeDegrees>-0.58244512416422367095947265625</LongitudeDegrees>
            </Position>
            <AltitudeMeters>158.8000030517578125</AltitudeMeters>
            <DistanceMeters>79608.456040417</DistanceMeters>
          </Trackpoint>
          <Trackpoint>
            <Time>2021-10-09T10:19:56.000Z</Time>
            <Position>
              <LatitudeDegrees>39.4155420921742916107177734375</LatitudeDegrees>
              <LongitudeDegrees>-0.5822353251278400421142578125</LongitudeDegrees>
            </Position>
            <AltitudeMeters>158.1999969482421875</AltitudeMeters>
            <DistanceMeters>79626.804318537</DistanceMeters>
          </Trackpoint>
          <Trackpoint>
            <Time>2021-10-09T10:20:00.000Z</Time>
            <Position>
              <LatitudeDegrees>39.4156101532280445098876953125</LatitudeDegrees>
              <LongitudeDegrees>-0.58181338012218475341796875</LongitudeDegrees>
            </Position>
            <AltitudeMeters>157.1999969482421875</AltitudeMeters>
            <DistanceMeters>79663.8688791</DistanceMeters>
          </Trackpoint>
          <Trackpoint>
            <Time>2021-10-09T10:20:01.000Z</Time>
            <Position>
              <LatitudeDegrees>39.41563152708113193511962890625</LatitudeDegrees>
              <LongitudeDegrees>-0.58171003125607967376708984375</LongitudeDegrees>
            </Position>
            <AltitudeMeters>157</AltitudeMeters>
            <DistanceMeters>79673.06832889</DistanceMeters>
          </Trackpoint>
          <Trackpoint>
            <Time>2021-10-09T10:20:06.000Z</Time>
            <Position>
              <LatitudeDegrees>39.41572171635925769805908203125</LatitudeDegrees>
              <LongitudeDegrees>-0.5811909399926662445068359375</LongitudeDegrees>
            </Position>
            <AltitudeMeters>156.399993896484375</AltitudeMeters>
            <DistanceMeters>79718.818436965</DistanceMeters>
          </Trackpoint>
          <Trackpoint>
            <Time>2021-10-09T10:20:12.000Z</Time>
            <Position>
              <LatitudeDegrees>39.415740408003330230712890625</LatitudeDegrees>
              <LongitudeDegrees>-0.580588281154632568359375</LongitudeDegrees>
            </Position>
            <AltitudeMeters>156</AltitudeMeters>
            <DistanceMeters>79770.681263248</DistanceMeters>
          </Trackpoint>
          <Trackpoint>
            <Time>2021-10-09T10:20:16.000Z</Time>
            <Position>
              <LatitudeDegrees>39.41571794450283050537109375</LatitudeDegrees>
              <LongitudeDegrees>-0.58019869029521942138671875</LongitudeDegrees>
            </Position>
            <AltitudeMeters>156.1999969482421875</AltitudeMeters>
            <DistanceMeters>79804.27438283</DistanceMeters>
          </Trackpoint>
          <Trackpoint>
            <Time>2021-10-09T10:20:20.000Z</Time>
            <Position>
              <LatitudeDegrees>39.4156993366777896881103515625</LatitudeDegrees>
              <LongitudeDegrees>-0.57984187267720699310302734375</LongitudeDegrees>
            </Position>
            <AltitudeMeters>156.8000030517578125</AltitudeMeters>
            <DistanceMeters>79835.026061248</DistanceMeters>
          </Trackpoint>
          <Trackpoint>
            <Time>2021-10-09T10:20:26.000Z</Time>
            <Position>
              <LatitudeDegrees>39.41571366973221302032470703125</LatitudeDegrees>
              <LongitudeDegrees>-0.57926419191062450408935546875</LongitudeDegrees>
            </Position>
            <AltitudeMeters>157.399993896484375</AltitudeMeters>
            <DistanceMeters>79884.724942016</DistanceMeters>
          </Trackpoint>
          <Trackpoint>
            <Time>2021-10-09T10:20:27.000Z</Time>
            <Position>
              <LatitudeDegrees>39.41572138108313083648681640625</LatitudeDegrees>
              <LongitudeDegrees>-0.57915857993066310882568359375</LongitudeDegrees>
            </Position>
            <AltitudeMeters>157.399993896484375</AltitudeMeters>
            <DistanceMeters>79893.84651668</DistanceMeters>
          </Trackpoint>
          <Trackpoint>
            <Time>2021-10-09T10:20:31.000Z</Time>
            <Position>
              <LatitudeDegrees>39.4157673977315425872802734375</LatitudeDegrees>
              <LongitudeDegrees>-0.57873529382050037384033203125</LongitudeDegrees>
            </Position>
            <AltitudeMeters>156.8000030517578125</AltitudeMeters>
            <DistanceMeters>79930.602328966</DistanceMeters>
          </Trackpoint>
          <Trackpoint>
            <Time>2021-10-09T10:20:34.000Z</Time>
            <Position>
              <LatitudeDegrees>39.41581173799932003021240234375</LatitudeDegrees>
              <LongitudeDegrees>-0.5784061364829540252685546875</LongitudeDegrees>
            </Position>
            <AltitudeMeters>155.8000030517578125</AltitudeMeters>
            <DistanceMeters>79959.332631047</DistanceMeters>
          </Trackpoint>
          <Trackpoint>
            <Time>2021-10-09T10:20:37.000Z</Time>
            <Position>
              <LatitudeDegrees>39.41585180349647998809814453125</LatitudeDegrees>
              <LongitudeDegrees>-0.5780661664903163909912109375</LongitudeDegrees>
            </Position>
            <AltitudeMeters>154</AltitudeMeters>
            <DistanceMeters>79988.903961297</DistanceMeters>
          </Trackpoint>
          <Trackpoint>
            <Time>2021-10-09T10:20:40.000Z</Time>
            <Position>
              <LatitudeDegrees>39.415879547595977783203125</LatitudeDegrees>
              <LongitudeDegrees>-0.577720664441585540771484375</LongitudeDegrees>
            </Position>
            <AltitudeMeters>153.1999969482421875</AltitudeMeters>
            <DistanceMeters>80018.772899887</DistanceMeters>
          </Trackpoint>
          <Trackpoint>
            <Time>2021-10-09T10:20:41.000Z</Time>
            <Position>
              <LatitudeDegrees>39.41588600166141986846923828125</LatitudeDegrees>
              <LongitudeDegrees>-0.57760792784392833709716796875</LongitudeDegrees>
            </Position>
            <AltitudeMeters>152.8000030517578125</AltitudeMeters>
            <DistanceMeters>80028.493533607</DistanceMeters>
          </Trackpoint>
          <Trackpoint>
            <Time>2021-10-09T10:20:42.000Z</Time>
            <Position>
              <LatitudeDegrees>39.4158968143165111541748046875</LatitudeDegrees>
              <LongitudeDegrees>-0.5774978734552860260009765625</LongitudeDegrees>
            </Position>
            <AltitudeMeters>152.600006103515625</AltitudeMeters>
            <DistanceMeters>80038.033193475</DistanceMeters>
          </Trackpoint>
          <Trackpoint>
            <Time>2021-10-09T10:20:44.000Z</Time>
            <Position>
              <LatitudeDegrees>39.41594316624104976654052734375</LatitudeDegrees>
              <LongitudeDegrees>-0.57727315463125705718994140625</LongitudeDegrees>
            </Position>
            <AltitudeMeters>152</AltitudeMeters>
            <DistanceMeters>80058.033100129</DistanceMeters>
          </Trackpoint>
          <Trackpoint>
            <Time>2021-10-09T10:20:45.000Z</Time>
            <Position>
              <LatitudeDegrees>39.41597719676792621612548828125</LatitudeDegrees>
              <LongitudeDegrees>-0.57715832255780696868896484375</LongitudeDegrees>
            </Position>
            <AltitudeMeters>151.8000030517578125</AltitudeMeters>
            <DistanceMeters>80068.608851962</DistanceMeters>
          </Trackpoint>
          <Trackpoint>
            <Time>2021-10-09T10:20:46.000Z</Time>
            <Position>
              <LatitudeDegrees>39.41601156257092952728271484375</LatitudeDegrees>
              <LongitudeDegrees>-0.57704281993210315704345703125</LongitudeDegrees>
            </Position>
            <AltitudeMeters>151.399993896484375</AltitudeMeters>
            <DistanceMeters>80079.251843971</DistanceMeters>
          </Trackpoint>
          <Trackpoint>
            <Time>2021-10-09T10:20:50.000Z</Time>
            <Position>
              <LatitudeDegrees>39.41616143099963665008544921875</LatitudeDegrees>
              <LongitudeDegrees>-0.57655566371977329254150390625</LongitudeDegrees>
            </Position>
            <AltitudeMeters>150.1999969482421875</AltitudeMeters>
            <DistanceMeters>80124.339992191</DistanceMeters>
          </Trackpoint>
          <Trackpoint>
            <Time>2021-10-09T10:20:52.000Z</Time>
            <Position>
              <LatitudeDegrees>39.4162295758724212646484375</LatitudeDegrees>
              <LongitudeDegrees>-0.57630957104265689849853515625</LongitudeDegrees>
            </Position>
            <AltitudeMeters>149.399993896484375</AltitudeMeters>
            <DistanceMeters>80146.818982774</DistanceMeters>
          </Trackpoint>
          <Trackpoint>
            <Time>2021-10-09T10:20:53.000Z</Time>
            <Position>
              <LatitudeDegrees>39.416262097656726837158203125</LatitudeDegrees>
              <LongitudeDegrees>-0.57619038037955760955810546875</LongitudeDegrees>
            </Position>
            <AltitudeMeters>148.8000030517578125</AltitudeMeters>
            <DistanceMeters>80157.688643311</DistanceMeters>
          </Trackpoint>
          <Trackpoint>
            <Time>2021-10-09T10:20:58.000Z</Time>
            <Position>
              <LatitudeDegrees>39.41639193333685398101806640625</LatitudeDegrees>
              <LongitudeDegrees>-0.57563088834285736083984375</LongitudeDegrees>
            </Position>
            <AltitudeMeters>148.1999969482421875</AltitudeMeters>
            <DistanceMeters>80207.921026501</DistanceMeters>
          </Trackpoint>
          <Trackpoint>
            <Time>2021-10-09T10:20:59.000Z</Time>
            <Position>
              <LatitudeDegrees>39.41640953533351421356201171875</LatitudeDegrees>
              <LongitudeDegrees>-0.5755277909338474273681640625</LongitudeDegrees>
            </Position>
            <AltitudeMeters>148.1999969482421875</AltitudeMeters>
            <DistanceMeters>80216.9999327</DistanceMeters>
          </Trackpoint>
          <Trackpoint>
            <Time>2021-10-09T10:21:02.000Z</Time>
            <Position>
              <LatitudeDegrees>39.41645815037190914154052734375</LatitudeDegrees>
              <LongitudeDegrees>-0.5752458237111568450927734375</LongitudeDegrees>
            </Position>
            <AltitudeMeters>148.399993896484375</AltitudeMeters>
            <DistanceMeters>80241.84174069</DistanceMeters>
          </Trackpoint>
          <Trackpoint>
            <Time>2021-10-09T10:21:04.000Z</Time>
            <Position>
              <LatitudeDegrees>39.416492097079753875732421875</LatitudeDegrees>
              <LongitudeDegrees>-0.57508162222802639007568359375</LongitudeDegrees>
            </Position>
            <AltitudeMeters>148.8000030517578125</AltitudeMeters>
            <DistanceMeters>80256.457640198</DistanceMeters>
          </Trackpoint>
          <Trackpoint>
            <Time>2021-10-09T10:21:08.000Z</Time>
            <Position>
              <LatitudeDegrees>39.41656392998993396759033203125</LatitudeDegrees>
              <LongitudeDegrees>-0.57475489564239978790283203125</LongitudeDegrees>
            </Position>
            <AltitudeMeters>150</AltitudeMeters>
            <DistanceMeters>80285.667189026</DistanceMeters>
          </Trackpoint>
          <Trackpoint>
            <Time>2021-10-09T10:21:10.000Z</Time>
            <Position>
              <LatitudeDegrees>39.41660332493484020233154296875</LatitudeDegrees>
              <LongitudeDegrees>-0.57457116432487964630126953125</LongitudeDegrees>
            </Position>
            <AltitudeMeters>150.399993896484375</AltitudeMeters>
            <DistanceMeters>80302.062808735</DistanceMeters>
          </Trackpoint>
          <Trackpoint>
            <Time>2021-10-09T10:21:18.000Z</Time>
            <Position>
              <LatitudeDegrees>39.4167380221188068389892578125</LatitudeDegrees>
              <LongitudeDegrees>-0.57380036450922489166259765625</LongitudeDegrees>
            </Position>
            <AltitudeMeters>149.399993896484375</AltitudeMeters>
            <DistanceMeters>80370.015414866</DistanceMeters>
          </Trackpoint>
          <Trackpoint>
            <Time>2021-10-09T10:21:23.000Z</Time>
            <Position>
              <LatitudeDegrees>39.416793175041675567626953125</LatitudeDegrees>
              <LongitudeDegrees>-0.5733179859817028045654296875</LongitudeDegrees>
            </Position>
            <AltitudeMeters>149.399993896484375</AltitudeMeters>
            <DistanceMeters>80411.94503057</DistanceMeters>
          </Trackpoint>
          <Trackpoint>
            <Time>2021-10-09T10:21:26.000Z</Time>
            <Position>
              <LatitudeDegrees>39.4168436340987682342529296875</LatitudeDegrees>
              <LongitudeDegrees>-0.57304398156702518463134765625</LongitudeDegrees>
            </Position>
            <AltitudeMeters>149.399993896484375</AltitudeMeters>
            <DistanceMeters>80436.165474127</DistanceMeters>
          </Trackpoint>
          <Trackpoint>
            <Time>2021-10-09T10:21:33.000Z</Time>
            <Position>
              <LatitudeDegrees>39.41703046672046184539794921875</LatitudeDegrees>
              <LongitudeDegrees>-0.57239924557507038116455078125</LongitudeDegrees>
            </Position>
            <AltitudeMeters>149.399993896484375</AltitudeMeters>
            <DistanceMeters>80495.375429527</DistanceMeters>
          </Trackpoint>
          <Trackpoint>
            <Time>2021-10-09T10:21:39.000Z</Time>
            <Position>
              <LatitudeDegrees>39.41719290800392627716064453125</LatitudeDegrees>
              <LongitudeDegrees>-0.57184788398444652557373046875</LongitudeDegrees>
            </Position>
            <AltitudeMeters>149</AltitudeMeters>
            <DistanceMeters>80546.115068021</DistanceMeters>
          </Trackpoint>
          <Trackpoint>
            <Time>2021-10-09T10:21:42.000Z</Time>
            <Position>
              <LatitudeDegrees>39.41726155579090118408203125</LatitudeDegrees>
              <LongitudeDegrees>-0.5715802498161792755126953125</LongitudeDegrees>
            </Position>
            <AltitudeMeters>148.8000030517578125</AltitudeMeters>
            <DistanceMeters>80570.363085206</DistanceMeters>
          </Trackpoint>
          <Trackpoint>
            <Time>2021-10-09T10:21:49.000Z</Time>
            <Position>
              <LatitudeDegrees>39.417426176369190216064453125</LatitudeDegrees>
              <LongitudeDegrees>-0.57098991237580776214599609375</LongitudeDegrees>
            </Position>
            <AltitudeMeters>148.600006103515625</AltitudeMeters>
            <DistanceMeters>80624.329140318</DistanceMeters>
          </Trackpoint>
          <Trackpoint>
            <Time>2021-10-09T10:21:54.000Z</Time>
            <Position>
              <LatitudeDegrees>39.41751376725733280181884765625</LatitudeDegrees>
              <LongitudeDegrees>-0.57054139673709869384765625</LongitudeDegrees>
            </Position>
            <AltitudeMeters>148.1999969482421875</AltitudeMeters>
            <DistanceMeters>80664.10800852</DistanceMeters>
          </Trackpoint>
          <Trackpoint>
            <Time>2021-10-09T10:21:55.000Z</Time>
            <Position>
              <LatitudeDegrees>39.41752147860825061798095703125</LatitudeDegrees>
              <LongitudeDegrees>-0.5704399757087230682373046875</LongitudeDegrees>
            </Position>
            <AltitudeMeters>148.1999969482421875</AltitudeMeters>
            <DistanceMeters>80672.871099874</DistanceMeters>
          </Trackpoint>
          <Trackpoint>
            <Time>2021-10-09T10:21:57.000Z</Time>
            <Position>
              <LatitudeDegrees>39.41750739701092243194580078125</LatitudeDegrees>
              <LongitudeDegrees>-0.5702307634055614471435546875</LongitudeDegrees>
            </Position>
            <AltitudeMeters>147.600006103515625</AltitudeMeters>
            <DistanceMeters>80690.928676134</DistanceMeters>
          </Trackpoint>
          <Trackpoint>
            <Time>2021-10-09T10:22:02.000Z</Time>
            <Position>
              <LatitudeDegrees>39.41740832291543483734130859375</LatitudeDegrees>
              <LongitudeDegrees>-0.56972055695950984954833984375</LongitudeDegrees>
            </Position>
            <AltitudeMeters>146.600006103515625</AltitudeMeters>
            <DistanceMeters>80736.163588117</DistanceMeters>
          </Trackpoint>
          <Trackpoint>
            <Time>2021-10-09T10:22:03.000Z</Time>
            <Position>
              <LatitudeDegrees>39.4173881225287914276123046875</LatitudeDegrees>
              <LongitudeDegrees>-0.56962131522595882415771484375</LongitudeDegrees>
            </Position>
            <AltitudeMeters>146.399993896484375</AltitudeMeters>
            <DistanceMeters>80744.988290902</DistanceMeters>
          </Trackpoint>
          <Trackpoint>
            <Time>2021-10-09T10:22:10.000Z</Time>
            <Position>
              <LatitudeDegrees>39.417236410081386566162109375</LatitudeDegrees>
              <LongitudeDegrees>-0.5689389444887638092041015625</LongitudeDegrees>
            </Position>
            <AltitudeMeters>145.399993896484375</AltitudeMeters>
            <DistanceMeters>80806.0438238</DistanceMeters>
          </Trackpoint>
          <Trackpoint>
            <Time>2021-10-09T10:22:17.000Z</Time>
            <Position>
              <LatitudeDegrees>39.41708427853882312774658203125</LatitudeDegrees>
              <LongitudeDegrees>-0.56826311163604259490966796875</LongitudeDegrees>
            </Position>
            <AltitudeMeters>144.600006103515625</AltitudeMeters>
            <DistanceMeters>80866.572484245</DistanceMeters>
          </Trackpoint>
          <Trackpoint>
            <Time>2021-10-09T10:22:22.000Z</Time>
            <Position>
              <LatitudeDegrees>39.41707036457955837249755859375</LatitudeDegrees>
              <LongitudeDegrees>-0.56776170618832111358642578125</LongitudeDegrees>
            </Position>
            <AltitudeMeters>144.399993896484375</AltitudeMeters>
            <DistanceMeters>80909.713984634</DistanceMeters>
          </Trackpoint>
          <Trackpoint>
            <Time>2021-10-09T10:22:23.000Z</Time>
            <Position>
              <LatitudeDegrees>39.4170662574470043182373046875</LatitudeDegrees>
              <LongitudeDegrees>-0.5676575191318988800048828125</LongitudeDegrees>
            </Position>
            <AltitudeMeters>144.1999969482421875</AltitudeMeters>
            <DistanceMeters>80918.684325274</DistanceMeters>
          </Trackpoint>
          <Trackpoint>
            <Time>2021-10-09T10:22:28.000Z</Time>
            <Position>
              <LatitudeDegrees>39.41698034293949604034423828125</LatitudeDegrees>
              <LongitudeDegrees>-0.5671623162925243377685546875</LongitudeDegrees>
            </Position>
            <AltitudeMeters>144</AltitudeMeters>
            <DistanceMeters>80962.325285653</DistanceMeters>
          </Trackpoint>
          <Trackpoint>
            <Time>2021-10-09T10:22:35.000Z</Time>
            <Position>
              <LatitudeDegrees>39.4167839549481868743896484375</LatitudeDegrees>
              <LongitudeDegrees>-0.56650190614163875579833984375</LongitudeDegrees>
            </Position>
            <AltitudeMeters>143.600006103515625</AltitudeMeters>
            <DistanceMeters>81023.172961886</DistanceMeters>
          </Trackpoint>
          <Trackpoint>
            <Time>2021-10-09T10:22:40.000Z</Time>
            <Position>
              <LatitudeDegrees>39.41656175069510936737060546875</LatitudeDegrees>
              <LongitudeDegrees>-0.56611130945384502410888671875</LongitudeDegrees>
            </Position>
            <AltitudeMeters>143.1999969482421875</AltitudeMeters>
            <DistanceMeters>81064.882329145</DistanceMeters>
          </Trackpoint>
          <Trackpoint>
            <Time>2021-10-09T10:22:41.000Z</Time>
            <Position>
              <LatitudeDegrees>39.41651531495153903961181640625</LatitudeDegrees>
              <LongitudeDegrees>-0.56603218428790569305419921875</LongitudeDegrees>
            </Position>
            <AltitudeMeters>143.1999969482421875</AltitudeMeters>
            <DistanceMeters>81073.426282444</DistanceMeters>
          </Trackpoint>
          <Trackpoint>
            <Time>2021-10-09T10:22:43.000Z</Time>
            <Position>
              <LatitudeDegrees>39.4164459966123104095458984375</LatitudeDegrees>
              <LongitudeDegrees>-0.565863959491252899169921875</LongitudeDegrees>
            </Position>
            <AltitudeMeters>143.1999969482421875</AltitudeMeters>
            <DistanceMeters>81089.820525192</DistanceMeters>
          </Trackpoint>
          <Trackpoint>
            <Time>2021-10-09T10:22:44.000Z</Time>
            <Position>
              <LatitudeDegrees>39.416421353816986083984375</LatitudeDegrees>
              <LongitudeDegrees>-0.5657705850899219512939453125</LongitudeDegrees>
            </Position>
            <AltitudeMeters>143</AltitudeMeters>
            <DistanceMeters>81098.305085841</DistanceMeters>
          </Trackpoint>
          <Trackpoint>
            <Time>2021-10-09T10:22:46.000Z</Time>
            <Position>
              <LatitudeDegrees>39.41637969575822353363037109375</LatitudeDegrees>
              <LongitudeDegrees>-0.56557503528892993927001953125</LongitudeDegrees>
            </Position>
            <AltitudeMeters>143</AltitudeMeters>
            <DistanceMeters>81115.747083301</DistanceMeters>
          </Trackpoint>
          <Trackpoint>
            <Time>2021-10-09T10:22:48.000Z</Time>
            <Position>
              <LatitudeDegrees>39.41637449897825717926025390625</LatitudeDegrees>
              <LongitudeDegrees>-0.565363727509975433349609375</LongitudeDegrees>
            </Position>
            <AltitudeMeters>142.8000030517578125</AltitudeMeters>
            <DistanceMeters>81133.926267488</DistanceMeters>
          </Trackpoint>
          <Trackpoint>
            <Time>2021-10-09T10:22:50.000Z</Time>
            <Position>
              <LatitudeDegrees>39.41642462275922298431396484375</LatitudeDegrees>
              <LongitudeDegrees>-0.5651481449604034423828125</LongitudeDegrees>
            </Position>
            <AltitudeMeters>142.600006103515625</AltitudeMeters>
            <DistanceMeters>81153.285147429</DistanceMeters>
          </Trackpoint>
          <Trackpoint>
            <Time>2021-10-09T10:22:51.000Z</Time>
            <Position>
              <LatitudeDegrees>39.4164667837321758270263671875</LatitudeDegrees>
              <LongitudeDegrees>-0.56504680775105953216552734375</LongitudeDegrees>
            </Position>
            <AltitudeMeters>142.399993896484375</AltitudeMeters>
            <DistanceMeters>81163.181622009</DistanceMeters>
          </Trackpoint>
          <Trackpoint>
            <Time>2021-10-09T10:22:52.000Z</Time>
            <Position>
              <LatitudeDegrees>39.416516907513141632080078125</LatitudeDegrees>
              <LongitudeDegrees>-0.56494823656976222991943359375</LongitudeDegrees>
            </Position>
            <AltitudeMeters>142.399993896484375</AltitudeMeters>
            <DistanceMeters>81173.328588631</DistanceMeters>
          </Trackpoint>
          <Trackpoint>
            <Time>2021-10-09T10:22:53.000Z</Time>
            <Position>
              <LatitudeDegrees>39.41656979732215404510498046875</LatitudeDegrees>
              <LongitudeDegrees>-0.56485016830265522003173828125</LongitudeDegrees>
            </Position>
            <AltitudeMeters>142.1999969482421875</AltitudeMeters>
            <DistanceMeters>81183.612569149</DistanceMeters>
          </Trackpoint>
          <Trackpoint>
            <Time>2021-10-09T10:22:54.000Z</Time>
            <Position>
              <LatitudeDegrees>39.41662394441664218902587890625</LatitudeDegrees>
              <LongitudeDegrees>-0.56474992074072360992431640625</LongitudeDegrees>
            </Position>
            <AltitudeMeters>141.8000030517578125</AltitudeMeters>
            <DistanceMeters>81194.130957647</DistanceMeters>
          </Trackpoint>
          <Trackpoint>
            <Time>2021-10-09T10:22:55.000Z</Time>
            <Position>
              <LatitudeDegrees>39.41668379120528697967529296875</LatitudeDegrees>
              <LongitudeDegrees>-0.56465067900717258453369140625</LongitudeDegrees>
            </Position>
            <AltitudeMeters>141.600006103515625</AltitudeMeters>
            <DistanceMeters>81204.956498377</DistanceMeters>
          </Trackpoint>
          <Trackpoint>
            <Time>2021-10-09T10:22:56.000Z</Time>
            <Position>
              <LatitudeDegrees>39.4167417101562023162841796875</LatitudeDegrees>
              <LongitudeDegrees>-0.56455194018781185150146484375</LongitudeDegrees>
            </Position>
            <AltitudeMeters>141</AltitudeMeters>
            <DistanceMeters>81215.617293006</DistanceMeters>
          </Trackpoint>
          <Trackpoint>
            <Time>2021-10-09T10:22:58.000Z</Time>
            <Position>
              <LatitudeDegrees>39.41686517558991909027099609375</LatitudeDegrees>
              <LongitudeDegrees>-0.5643649399280548095703125</LongitudeDegrees>
            </Position>
            <AltitudeMeters>140</AltitudeMeters>
            <DistanceMeters>81236.768796672</DistanceMeters>
          </Trackpoint>
          <Trackpoint>
            <Time>2021-10-09T10:22:59.000Z</Time>
            <Position>
              <LatitudeDegrees>39.416936673223972320556640625</LatitudeDegrees>
              <LongitudeDegrees>-0.56428170762956142425537109375</LongitudeDegrees>
            </Position>
            <AltitudeMeters>139.8000030517578125</AltitudeMeters>
            <DistanceMeters>81247.471437453</DistanceMeters>
          </Trackpoint>
          <Trackpoint>
            <Time>2021-10-09T10:23:00.000Z</Time>
            <Position>
              <LatitudeDegrees>39.41701286472380161285400390625</LatitudeDegrees>
              <LongitudeDegrees>-0.56420140899717807769775390625</LongitudeDegrees>
            </Position>
            <AltitudeMeters>138.8000030517578125</AltitudeMeters>
            <DistanceMeters>81258.407356821</DistanceMeters>
          </Trackpoint>
          <Trackpoint>
            <Time>2021-10-09T10:23:01.000Z</Time>
            <Position>
              <LatitudeDegrees>39.41709081642329692840576171875</LatitudeDegrees>
              <LongitudeDegrees>-0.56411926634609699249267578125</LongitudeDegrees>
            </Position>
            <AltitudeMeters>138.1999969482421875</AltitudeMeters>
            <DistanceMeters>81269.595113057</DistanceMeters>
          </Trackpoint>
          <Trackpoint>
            <Time>2021-10-09T10:23:04.000Z</Time>
            <Position>
              <LatitudeDegrees>39.41733791492879390716552734375</LatitudeDegrees>
              <LongitudeDegrees>-0.56384316645562648773193359375</LongitudeDegrees>
            </Position>
            <AltitudeMeters>136.8000030517578125</AltitudeMeters>
            <DistanceMeters>81305.927145406</DistanceMeters>
          </Trackpoint>
          <Trackpoint>
            <Time>2021-10-09T10:23:05.000Z</Time>
            <Position>
              <LatitudeDegrees>39.41741821356117725372314453125</LatitudeDegrees>
              <LongitudeDegrees>-0.56373529136180877685546875</LongitudeDegrees>
            </Position>
            <AltitudeMeters>136.1999969482421875</AltitudeMeters>
            <DistanceMeters>81318.808085767</DistanceMeters>
          </Trackpoint>
          <Trackpoint>
            <Time>2021-10-09T10:23:06.000Z</Time>
            <Position>
              <LatitudeDegrees>39.4174900464713573455810546875</LatitudeDegrees>
              <LongitudeDegrees>-0.56361534632742404937744140625</LongitudeDegrees>
            </Position>
            <AltitudeMeters>136</AltitudeMeters>
            <DistanceMeters>81331.857575472</DistanceMeters>
          </Trackpoint>
          <Trackpoint>
            <Time>2021-10-09T10:23:07.000Z</Time>
            <Position>
              <LatitudeDegrees>39.41755031235516071319580078125</LatitudeDegrees>
              <LongitudeDegrees>-0.56348274461925029754638671875</LongitudeDegrees>
            </Position>
            <AltitudeMeters>135.600006103515625</AltitudeMeters>
            <DistanceMeters>81345.085758315</DistanceMeters>
          </Trackpoint>
          <Trackpoint>
            <Time>2021-10-09T10:23:08.000Z</Time>
            <Position>
              <LatitudeDegrees>39.41759540699422359466552734375</LatitudeDegrees>
              <LongitudeDegrees>-0.5633403360843658447265625</LongitudeDegrees>
            </Position>
            <AltitudeMeters>134.1999969482421875</AltitudeMeters>
            <DistanceMeters>81358.319401146</DistanceMeters>
          </Trackpoint>
          <Trackpoint>
            <Time>2021-10-09T10:23:10.000Z</Time>
            <Position>
              <LatitudeDegrees>39.417626671493053436279296875</LatitudeDegrees>
              <LongitudeDegrees>-0.56302995420992374420166015625</LongitudeDegrees>
            </Position>
            <AltitudeMeters>132.399993896484375</AltitudeMeters>
            <DistanceMeters>81385.233442873</DistanceMeters>
          </Trackpoint>
          <Trackpoint>
            <Time>2021-10-09T10:23:11.000Z</Time>
            <Position>
              <LatitudeDegrees>39.4176094047725200653076171875</LatitudeDegrees>
              <LongitudeDegrees>-0.56287002749741077423095703125</LongitudeDegrees>
            </Position>
            <AltitudeMeters>131.399993896484375</AltitudeMeters>
            <DistanceMeters>81399.118403517</DistanceMeters>
          </Trackpoint>
          <Trackpoint>
            <Time>2021-10-09T10:23:12.000Z</Time>
            <Position>
              <LatitudeDegrees>39.41757797263562679290771484375</LatitudeDegrees>
              <LongitudeDegrees>-0.56271730922162532806396484375</LongitudeDegrees>
            </Position>
            <AltitudeMeters>130.399993896484375</AltitudeMeters>
            <DistanceMeters>81412.708220419</DistanceMeters>
          </Trackpoint>
          <Trackpoint>
            <Time>2021-10-09T10:23:14.000Z</Time>
            <Position>
              <LatitudeDegrees>39.4175071455538272857666015625</LatitudeDegrees>
              <LongitudeDegrees>-0.5624205060303211212158203125</LongitudeDegrees>
            </Position>
            <AltitudeMeters>128.8000030517578125</AltitudeMeters>
            <DistanceMeters>81439.418673049</DistanceMeters>
          </Trackpoint>
          <Trackpoint>
            <Time>2021-10-09T10:23:16.000Z</Time>
            <Position>
              <LatitudeDegrees>39.4174404256045818328857421875</LatitudeDegrees>
              <LongitudeDegrees>-0.56213535368442535400390625</LongitudeDegrees>
            </Position>
            <AltitudeMeters>126.8000030517578125</AltitudeMeters>
            <DistanceMeters>81465.037494569</DistanceMeters>
          </Trackpoint>
          <Trackpoint>
            <Time>2021-10-09T10:23:19.000Z</Time>
            <Position>
              <LatitudeDegrees>39.417320899665355682373046875</LatitudeDegrees>
              <LongitudeDegrees>-0.561739392578601837158203125</LongitudeDegrees>
            </Position>
            <AltitudeMeters>125.40000152587890625</AltitudeMeters>
            <DistanceMeters>81501.591172651</DistanceMeters>
          </Trackpoint>
          <Trackpoint>
            <Time>2021-10-09T10:23:20.000Z</Time>
            <Position>
              <LatitudeDegrees>39.417272619903087615966796875</LatitudeDegrees>
              <LongitudeDegrees>-0.56161542423069477081298828125</LongitudeDegrees>
            </Position>
            <AltitudeMeters>125.1999969482421875</AltitudeMeters>
            <DistanceMeters>81513.528661347</DistanceMeters>
          </Trackpoint>
          <Trackpoint>
            <Time>2021-10-09T10:23:26.000Z</Time>
            <Position>
              <LatitudeDegrees>39.41693843342363834381103515625</LatitudeDegrees>
              <LongitudeDegrees>-0.56096884422004222869873046875</LongitudeDegrees>
            </Position>
            <AltitudeMeters>124.40000152587890625</AltitudeMeters>
            <DistanceMeters>81580.420313881</DistanceMeters>
          </Trackpoint>
          <Trackpoint>
            <Time>2021-10-09T10:23:32.000Z</Time>
            <Position>
              <LatitudeDegrees>39.41661514341831207275390625</LatitudeDegrees>
              <LongitudeDegrees>-0.56037724949419498443603515625</LongitudeDegrees>
            </Position>
            <AltitudeMeters>123.8000030517578125</AltitudeMeters>
            <DistanceMeters>81642.729294988</DistanceMeters>
          </Trackpoint>
          <Trackpoint>
            <Time>2021-10-09T10:23:33.000Z</Time>
            <Position>
              <LatitudeDegrees>39.41657222807407379150390625</LatitudeDegrees>
              <LongitudeDegrees>-0.56027834303677082061767578125</LongitudeDegrees>
            </Position>
            <AltitudeMeters>123.8000030517578125</AltitudeMeters>
            <DistanceMeters>81652.483313924</DistanceMeters>
          </Trackpoint>
          <Trackpoint>
            <Time>2021-10-09T10:23:38.000Z</Time>
            <Position>
              <LatitudeDegrees>39.416410960257053375244140625</LatitudeDegrees>
              <LongitudeDegrees>-0.55976956151425838470458984375</LongitudeDegrees>
            </Position>
            <AltitudeMeters>123.59999847412109375</AltitudeMeters>
            <DistanceMeters>81699.770730534</DistanceMeters>
          </Trackpoint>
          <Trackpoint>
            <Time>2021-10-09T10:23:41.000Z</Time>
            <Position>
              <LatitudeDegrees>39.41635496914386749267578125</LatitudeDegrees>
              <LongitudeDegrees>-0.55948692373931407928466796875</LongitudeDegrees>
            </Position>
            <AltitudeMeters>123.8000030517578125</AltitudeMeters>
            <DistanceMeters>81724.859942733</DistanceMeters>
          </Trackpoint>
          <Trackpoint>
            <Time>2021-10-09T10:23:42.000Z</Time>
            <Position>
              <LatitudeDegrees>39.4163437373936176300048828125</LatitudeDegrees>
              <LongitudeDegrees>-0.5593983270227909088134765625</LongitudeDegrees>
            </Position>
            <AltitudeMeters>124</AltitudeMeters>
            <DistanceMeters>81732.579949503</DistanceMeters>
          </Trackpoint>
          <Trackpoint>
            <Time>2021-10-09T10:23:44.000Z</Time>
            <Position>
              <LatitudeDegrees>39.41631230525672435760498046875</LatitudeDegrees>
              <LongitudeDegrees>-0.5592444352805614471435546875</LongitudeDegrees>
            </Position>
            <AltitudeMeters>124.1999969482421875</AltitudeMeters>
            <DistanceMeters>81746.267425384</DistanceMeters>
          </Trackpoint>
          <Trackpoint>
            <Time>2021-10-09T10:23:46.000Z</Time>
            <Position>
              <LatitudeDegrees>39.41625036299228668212890625</LatitudeDegrees>
              <LongitudeDegrees>-0.5591126717627048492431640625</LongitudeDegrees>
            </Position>
            <AltitudeMeters>124.8000030517578125</AltitudeMeters>
            <DistanceMeters>81759.529696267</DistanceMeters>
          </Trackpoint>
          <Trackpoint>
            <Time>2021-10-09T10:23:48.000Z</Time>
            <Position>
              <LatitudeDegrees>39.41616964526474475860595703125</LatitudeDegrees>
              <LongitudeDegrees>-0.55901032872498035430908203125</LongitudeDegrees>
            </Position>
            <AltitudeMeters>125.59999847412109375</AltitudeMeters>
            <DistanceMeters>81772.105576309</DistanceMeters>
          </Trackpoint>
          <Trackpoint>
            <Time>2021-10-09T10:23:49.000Z</Time>
            <Position>
              <LatitudeDegrees>39.416126646101474761962890625</LatitudeDegrees>
              <LongitudeDegrees>-0.55896590463817119598388671875</LongitudeDegrees>
            </Position>
            <AltitudeMeters>126</AltitudeMeters>
            <DistanceMeters>81778.22871908</DistanceMeters>
          </Trackpoint>
          <Trackpoint>
            <Time>2021-10-09T10:23:50.000Z</Time>
            <Position>
              <LatitudeDegrees>39.41607861779630184173583984375</LatitudeDegrees>
              <LongitudeDegrees>-0.5589269287884235382080078125</LongitudeDegrees>
            </Position>
            <AltitudeMeters>126.40000152587890625</AltitudeMeters>
            <DistanceMeters>81784.537805937</DistanceMeters>
          </Trackpoint>
          <Trackpoint>
            <Time>2021-10-09T10:23:51.000Z</Time>
            <Position>
              <LatitudeDegrees>39.4160329364240169525146484375</LatitudeDegrees>
              <LongitudeDegrees>-0.5588850192725658416748046875</LongitudeDegrees>
            </Position>
            <AltitudeMeters>127.1999969482421875</AltitudeMeters>
            <DistanceMeters>81790.769848843</DistanceMeters>
          </Trackpoint>
          <Trackpoint>
            <Time>2021-10-09T10:23:53.000Z</Time>
            <Position>
              <LatitudeDegrees>39.4159345328807830810546875</LatitudeDegrees>
              <LongitudeDegrees>-0.5588012002408504486083984375</LongitudeDegrees>
            </Position>
            <AltitudeMeters>128</AltitudeMeters>
            <DistanceMeters>81803.88078074</DistanceMeters>
          </Trackpoint>
          <Trackpoint>
            <Time>2021-10-09T10:23:54.000Z</Time>
            <Position>
              <LatitudeDegrees>39.41588021814823150634765625</LatitudeDegrees>
              <LongitudeDegrees>-0.5587636493146419525146484375</LongitudeDegrees>
            </Position>
            <AltitudeMeters>128.1999969482421875</AltitudeMeters>
            <DistanceMeters>81810.73457222</DistanceMeters>
          </Trackpoint>
          <Trackpoint>
            <Time>2021-10-09T10:23:56.000Z</Time>
            <Position>
              <LatitudeDegrees>39.4157736003398895263671875</LatitudeDegrees>
              <LongitudeDegrees>-0.55868091993033885955810546875</LongitudeDegrees>
            </Position>
            <AltitudeMeters>129.1999969482421875</AltitudeMeters>
            <DistanceMeters>81824.570018019</DistanceMeters>
          </Trackpoint>
          <Trackpoint>
            <Time>2021-10-09T10:23:59.000Z</Time>
            <Position>
              <LatitudeDegrees>39.41561224870383739471435546875</LatitudeDegrees>
              <LongitudeDegrees>-0.55855192244052886962890625</LongitudeDegrees>
            </Position>
            <AltitudeMeters>130.1999969482421875</AltitudeMeters>
            <DistanceMeters>81845.677930558</DistanceMeters>
          </Trackpoint>
          <Trackpoint>
            <Time>2021-10-09T10:24:00.000Z</Time>
            <Position>
              <LatitudeDegrees>39.41555835306644439697265625</LatitudeDegrees>
              <LongitudeDegrees>-0.55850087665021419525146484375</LongitudeDegrees>
            </Position>
            <AltitudeMeters>130.399993896484375</AltitudeMeters>
            <DistanceMeters>81853.111303801</DistanceMeters>
          </Trackpoint>
          <Trackpoint>
            <Time>2021-10-09T10:24:02.000Z</Time>
            <Position>
              <LatitudeDegrees>39.41546045243740081787109375</LatitudeDegrees>
              <LongitudeDegrees>-0.55837665684521198272705078125</LongitudeDegrees>
            </Position>
            <AltitudeMeters>130.600006103515625</AltitudeMeters>
            <DistanceMeters>81868.37012063</DistanceMeters>
          </Trackpoint>
          <Trackpoint>
            <Time>2021-10-09T10:24:03.000Z</Time>
            <Position>
              <LatitudeDegrees>39.41541711799800395965576171875</LatitudeDegrees>
              <LongitudeDegrees>-0.55830876342952251434326171875</LongitudeDegrees>
            </Position>
            <AltitudeMeters>130.600006103515625</AltitudeMeters>
            <DistanceMeters>81875.942503704</DistanceMeters>
          </Trackpoint>
          <Trackpoint>
            <Time>2021-10-09T10:24:08.000Z</Time>
            <Position>
              <LatitudeDegrees>39.41522710025310516357421875</LatitudeDegrees>
              <LongitudeDegrees>-0.5579107068479061126708984375</LongitudeDegrees>
            </Position>
            <AltitudeMeters>130.600006103515625</AltitudeMeters>
            <DistanceMeters>81916.17753725</DistanceMeters>
          </Trackpoint>
          <Trackpoint>
            <Time>2021-10-09T10:24:15.000Z</Time>
            <Position>
              <LatitudeDegrees>39.41496734507381916046142578125</LatitudeDegrees>
              <LongitudeDegrees>-0.5572758615016937255859375</LongitudeDegrees>
            </Position>
            <AltitudeMeters>129.399993896484375</AltitudeMeters>
            <DistanceMeters>81977.950018201</DistanceMeters>
          </Trackpoint>
          <Trackpoint>
            <Time>2021-10-09T10:24:16.000Z</Time>
            <Position>
              <LatitudeDegrees>39.4149295426905155181884765625</LatitudeDegrees>
              <LongitudeDegrees>-0.55717854760587215423583984375</LongitudeDegrees>
            </Position>
            <AltitudeMeters>129</AltitudeMeters>
            <DistanceMeters>81987.315815689</DistanceMeters>
          </Trackpoint>
          <Trackpoint>
            <Time>2021-10-09T10:24:20.000Z</Time>
            <Position>
              <LatitudeDegrees>39.414772130548954010009765625</LatitudeDegrees>
              <LongitudeDegrees>-0.5568073131144046783447265625</LongitudeDegrees>
            </Position>
            <AltitudeMeters>128</AltitudeMeters>
            <DistanceMeters>82023.729650902</DistanceMeters>
          </Trackpoint>
          <Trackpoint>
            <Time>2021-10-09T10:24:22.000Z</Time>
            <Position>
              <LatitudeDegrees>39.41468923352658748626708984375</LatitudeDegrees>
              <LongitudeDegrees>-0.5566215701401233673095703125</LongitudeDegrees>
            </Position>
            <AltitudeMeters>127.40000152587890625</AltitudeMeters>
            <DistanceMeters>82042.175117019</DistanceMeters>
          </Trackpoint>
          <Trackpoint>
            <Time>2021-10-09T10:24:24.000Z</Time>
            <Position>
              <LatitudeDegrees>39.4145942665636539459228515625</LatitudeDegrees>
              <LongitudeDegrees>-0.55643775500357151031494140625</LongitudeDegrees>
            </Position>
            <AltitudeMeters>127</AltitudeMeters>
            <DistanceMeters>82061.18996019</DistanceMeters>
          </Trackpoint>
          <Trackpoint>
            <Time>2021-10-09T10:24:28.000Z</Time>
            <Position>
              <LatitudeDegrees>39.41436887718737125396728515625</LatitudeDegrees>
              <LongitudeDegrees>-0.5561059154570102691650390625</LongitudeDegrees>
            </Position>
            <AltitudeMeters>125.8000030517578125</AltitudeMeters>
            <DistanceMeters>82099.183893788</DistanceMeters>
          </Trackpoint>
          <Trackpoint>
            <Time>2021-10-09T10:24:30.000Z</Time>
            <Position>
              <LatitudeDegrees>39.4142465852200984954833984375</LatitudeDegrees>
              <LongitudeDegrees>-0.55592880584299564361572265625</LongitudeDegrees>
            </Position>
            <AltitudeMeters>125.59999847412109375</AltitudeMeters>
            <DistanceMeters>82119.609332872</DistanceMeters>
          </Trackpoint>
          <Trackpoint>
            <Time>2021-10-09T10:24:32.000Z</Time>
            <Position>
              <LatitudeDegrees>39.414136447012424468994140625</LatitudeDegrees>
              <LongitudeDegrees>-0.5557079426944255828857421875</LongitudeDegrees>
            </Position>
            <AltitudeMeters>125.1999969482421875</AltitudeMeters>
            <DistanceMeters>82142.213709562</DistanceMeters>
          </Trackpoint>
          <Trackpoint>
            <Time>2021-10-09T10:24:34.000Z</Time>
            <Position>
              <LatitudeDegrees>39.4140427373349666595458984375</LatitudeDegrees>
              <LongitudeDegrees>-0.55545791052281856536865234375</LongitudeDegrees>
            </Position>
            <AltitudeMeters>124.40000152587890625</AltitudeMeters>
            <DistanceMeters>82166.110047023</DistanceMeters>
          </Trackpoint>
          <Trackpoint>
            <Time>2021-10-09T10:24:36.000Z</Time>
            <Position>
              <LatitudeDegrees>39.41394911147654056549072265625</LatitudeDegrees>
              <LongitudeDegrees>-0.555206872522830963134765625</LongitudeDegrees>
            </Position>
            <AltitudeMeters>123.40000152587890625</AltitudeMeters>
            <DistanceMeters>82190.080523951</DistanceMeters>
          </Trackpoint>
          <Trackpoint>
            <Time>2021-10-09T10:24:37.000Z</Time>
            <Position>
              <LatitudeDegrees>39.41390720196068286895751953125</LatitudeDegrees>
              <LongitudeDegrees>-0.555085502564907073974609375</LongitudeDegrees>
            </Position>
            <AltitudeMeters>122.40000152587890625</AltitudeMeters>
            <DistanceMeters>82201.511807178</DistanceMeters>
          </Trackpoint>
          <Trackpoint>
            <Time>2021-10-09T10:24:38.000Z</Time>
            <Position>
              <LatitudeDegrees>39.41387250088155269622802734375</LatitudeDegrees>
              <LongitudeDegrees>-0.5549612827599048614501953125</LongitudeDegrees>
            </Position>
            <AltitudeMeters>121.8000030517578125</AltitudeMeters>
            <DistanceMeters>82212.870183037</DistanceMeters>
          </Trackpoint>
          <Trackpoint>
            <Time>2021-10-09T10:24:40.000Z</Time>
            <Position>
              <LatitudeDegrees>39.4138512946665287017822265625</LatitudeDegrees>
              <LongitudeDegrees>-0.55470965802669525146484375</LongitudeDegrees>
            </Position>
            <AltitudeMeters>120.59999847412109375</AltitudeMeters>
            <DistanceMeters>82234.635657312</DistanceMeters>
          </Trackpoint>
          <Trackpoint>
            <Time>2021-10-09T10:24:42.000Z</Time>
            <Position>
              <LatitudeDegrees>39.4138838164508342742919921875</LatitudeDegrees>
              <LongitudeDegrees>-0.55446532554924488067626953125</LongitudeDegrees>
            </Position>
            <AltitudeMeters>120</AltitudeMeters>
            <DistanceMeters>82255.955340654</DistanceMeters>
          </Trackpoint>
          <Trackpoint>
            <Time>2021-10-09T10:24:43.000Z</Time>
            <Position>
              <LatitudeDegrees>39.41391021944582462310791015625</LatitudeDegrees>
              <LongitudeDegrees>-0.554352588951587677001953125</LongitudeDegrees>
            </Position>
            <AltitudeMeters>120</AltitudeMeters>
            <DistanceMeters>82266.085384519</DistanceMeters>
          </Trackpoint>
          <Trackpoint>
            <Time>2021-10-09T10:24:46.000Z</Time>
            <Position>
              <LatitudeDegrees>39.41400024108588695526123046875</LatitudeDegrees>
              <LongitudeDegrees>-0.554035417735576629638671875</LongitudeDegrees>
            </Position>
            <AltitudeMeters>119.59999847412109375</AltitudeMeters>
            <DistanceMeters>82295.141191286</DistanceMeters>
          </Trackpoint>
          <Trackpoint>
            <Time>2021-10-09T10:24:49.000Z</Time>
            <Position>
              <LatitudeDegrees>39.4140776060521602630615234375</LatitudeDegrees>
              <LongitudeDegrees>-0.55371028371155261993408203125</LongitudeDegrees>
            </Position>
            <AltitudeMeters>119.40000152587890625</AltitudeMeters>
            <DistanceMeters>82324.395223568</DistanceMeters>
          </Trackpoint>
          <Trackpoint>
            <Time>2021-10-09T10:24:55.000Z</Time>
            <Position>
              <LatitudeDegrees>39.4141989760100841522216796875</LatitudeDegrees>
              <LongitudeDegrees>-0.55302011780440807342529296875</LongitudeDegrees>
            </Position>
            <AltitudeMeters>118.59999847412109375</AltitudeMeters>
            <DistanceMeters>82385.260186484</DistanceMeters>
          </Trackpoint>
          <Trackpoint>
            <Time>2021-10-09T10:24:56.000Z</Time>
            <Position>
              <LatitudeDegrees>39.41420492716133594512939453125</LatitudeDegrees>
              <LongitudeDegrees>-0.55289916694164276123046875</LongitudeDegrees>
            </Position>
            <AltitudeMeters>118.59999847412109375</AltitudeMeters>
            <DistanceMeters>82395.681979011</DistanceMeters>
          </Trackpoint>
          <Trackpoint>
            <Time>2021-10-09T10:24:57.000Z</Time>
            <Position>
              <LatitudeDegrees>39.41420526243746280670166015625</LatitudeDegrees>
              <LongitudeDegrees>-0.5527789704501628875732421875</LongitudeDegrees>
            </Position>
            <AltitudeMeters>118.40000152587890625</AltitudeMeters>
            <DistanceMeters>82406.017635948</DistanceMeters>
          </Trackpoint>
          <Trackpoint>
            <Time>2021-10-09T10:25:00.000Z</Time>
            <Position>
              <LatitudeDegrees>39.414212219417095184326171875</LatitudeDegrees>
              <LongitudeDegrees>-0.5524182133376598358154296875</LongitudeDegrees>
            </Position>
            <AltitudeMeters>117.59999847412109375</AltitudeMeters>
            <DistanceMeters>82437.048478211</DistanceMeters>
          </Trackpoint>
          <Trackpoint>
            <Time>2021-10-09T10:25:04.000Z</Time>
            <Position>
              <LatitudeDegrees>39.4142237864434719085693359375</LatitudeDegrees>
              <LongitudeDegrees>-0.5519209988415241241455078125</LongitudeDegrees>
            </Position>
            <AltitudeMeters>116.59999847412109375</AltitudeMeters>
            <DistanceMeters>82479.822851367</DistanceMeters>
          </Trackpoint>
          <Trackpoint>
            <Time>2021-10-09T10:25:05.000Z</Time>
            <Position>
              <LatitudeDegrees>39.4142125546932220458984375</LatitudeDegrees>
              <LongitudeDegrees>-0.55179283954203128814697265625</LongitudeDegrees>
            </Position>
            <AltitudeMeters>116.40000152587890625</AltitudeMeters>
            <DistanceMeters>82490.913327968</DistanceMeters>
          </Trackpoint>
          <Trackpoint>
            <Time>2021-10-09T10:25:08.000Z</Time>
            <Position>
              <LatitudeDegrees>39.414163939654827117919921875</LatitudeDegrees>
              <LongitudeDegrees>-0.5514180846512317657470703125</LongitudeDegrees>
            </Position>
            <AltitudeMeters>116</AltitudeMeters>
            <DistanceMeters>82523.589531831</DistanceMeters>
          </Trackpoint>
          <Trackpoint>
            <Time>2021-10-09T10:25:12.000Z</Time>
            <Position>
              <LatitudeDegrees>39.4142137281596660614013671875</LatitudeDegrees>
              <LongitudeDegrees>-0.55093604139983654022216796875</LongitudeDegrees>
            </Position>
            <AltitudeMeters>115.40000152587890625</AltitudeMeters>
            <DistanceMeters>82565.409060344</DistanceMeters>
          </Trackpoint>
          <Trackpoint>
            <Time>2021-10-09T10:25:14.000Z</Time>
            <Position>
              <LatitudeDegrees>39.41427449695765972137451171875</LatitudeDegrees>
              <LongitudeDegrees>-0.55073269642889499664306640625</LongitudeDegrees>
            </Position>
            <AltitudeMeters>115.40000152587890625</AltitudeMeters>
            <DistanceMeters>82584.157038782</DistanceMeters>
          </Trackpoint>
          <Trackpoint>
            <Time>2021-10-09T10:25:16.000Z</Time>
            <Position>
              <LatitudeDegrees>39.414353035390377044677734375</LatitudeDegrees>
              <LongitudeDegrees>-0.55056438781321048736572265625</LongitudeDegrees>
            </Position>
            <AltitudeMeters>115.40000152587890625</AltitudeMeters>
            <DistanceMeters>82601.064852362</DistanceMeters>
          </Trackpoint>
          <Trackpoint>
            <Time>2021-10-09T10:25:19.000Z</Time>
            <Position>
              <LatitudeDegrees>39.41447214223444461822509765625</LatitudeDegrees>
              <LongitudeDegrees>-0.5503207258880138397216796875</LongitudeDegrees>
            </Position>
            <AltitudeMeters>115.40000152587890625</AltitudeMeters>
            <DistanceMeters>82625.858995706</DistanceMeters>
          </Trackpoint>
          <Trackpoint>
            <Time>2021-10-09T10:25:22.000Z</Time>
            <Position>
              <LatitudeDegrees>39.41459409892559051513671875</LatitudeDegrees>
              <LongitudeDegrees>-0.5500598810613155364990234375</LongitudeDegrees>
            </Position>
            <AltitudeMeters>116.59999847412109375</AltitudeMeters>
            <DistanceMeters>82652.076037846</DistanceMeters>
          </Trackpoint>
          <Trackpoint>
            <Time>2021-10-09T10:25:23.000Z</Time>
            <Position>
              <LatitudeDegrees>39.41463927738368511199951171875</LatitudeDegrees>
              <LongitudeDegrees>-0.5499722063541412353515625</LongitudeDegrees>
            </Position>
            <AltitudeMeters>117.1999969482421875</AltitudeMeters>
            <DistanceMeters>82661.138019704</DistanceMeters>
          </Trackpoint>
          <Trackpoint>
            <Time>2021-10-09T10:25:27.000Z</Time>
            <Position>
              <LatitudeDegrees>39.41484329290688037872314453125</LatitudeDegrees>
              <LongitudeDegrees>-0.54960541427135467529296875</LongitudeDegrees>
            </Position>
            <AltitudeMeters>117</AltitudeMeters>
            <DistanceMeters>82700.001738596</DistanceMeters>
          </Trackpoint>
          <Trackpoint>
            <Time>2021-10-09T10:25:33.000Z</Time>
            <Position>
              <LatitudeDegrees>39.41523254849016666412353515625</LatitudeDegrees>
              <LongitudeDegrees>-0.5490916036069393157958984375</LongitudeDegrees>
            </Position>
            <AltitudeMeters>116.1999969482421875</AltitudeMeters>
            <DistanceMeters>82761.881278794</DistanceMeters>
          </Trackpoint>
          <Trackpoint>
            <Time>2021-10-09T10:25:35.000Z</Time>
            <Position>
              <LatitudeDegrees>39.4153784774243831634521484375</LatitudeDegrees>
              <LongitudeDegrees>-0.548946596682071685791015625</LongitudeDegrees>
            </Position>
            <AltitudeMeters>115.59999847412109375</AltitudeMeters>
            <DistanceMeters>82782.357716703</DistanceMeters>
          </Trackpoint>
          <Trackpoint>
            <Time>2021-10-09T10:25:37.000Z</Time>
            <Position>
              <LatitudeDegrees>39.4155407510697841644287109375</LatitudeDegrees>
              <LongitudeDegrees>-0.5488295853137969970703125</LongitudeDegrees>
            </Position>
            <AltitudeMeters>115</AltitudeMeters>
            <DistanceMeters>82803.03252501</DistanceMeters>
          </Trackpoint>
          <Trackpoint>
            <Time>2021-10-09T10:25:39.000Z</Time>
            <Position>
              <LatitudeDegrees>39.41571584902703762054443359375</LatitudeDegrees>
              <LongitudeDegrees>-0.54872305132448673248291015625</LongitudeDegrees>
            </Position>
            <AltitudeMeters>114.1999969482421875</AltitudeMeters>
            <DistanceMeters>82824.56692878</DistanceMeters>
          </Trackpoint>
          <Trackpoint>
            <Time>2021-10-09T10:25:42.000Z</Time>
            <Position>
              <LatitudeDegrees>39.415975771844387054443359375</LatitudeDegrees>
              <LongitudeDegrees>-0.548560358583927154541015625</LongitudeDegrees>
            </Position>
            <AltitudeMeters>113.1999969482421875</AltitudeMeters>
            <DistanceMeters>82856.701698451</DistanceMeters>
          </Trackpoint>
          <Trackpoint>
            <Time>2021-10-09T10:25:43.000Z</Time>
            <Position>
              <LatitudeDegrees>39.41605900414288043975830078125</LatitudeDegrees>
              <LongitudeDegrees>-0.548505373299121856689453125</LongitudeDegrees>
            </Position>
            <AltitudeMeters>113</AltitudeMeters>
            <DistanceMeters>82867.102675126</DistanceMeters>
          </Trackpoint>
          <Trackpoint>
            <Time>2021-10-09T10:25:45.000Z</Time>
            <Position>
              <LatitudeDegrees>39.41621574573218822479248046875</LatitudeDegrees>
              <LongitudeDegrees>-0.54838056676089763641357421875</LongitudeDegrees>
            </Position>
            <AltitudeMeters>112.1999969482421875</AltitudeMeters>
            <DistanceMeters>82887.584845212</DistanceMeters>
          </Trackpoint>
          <Trackpoint>
            <Time>2021-10-09T10:25:46.000Z</Time>
            <Position>
              <LatitudeDegrees>39.4162859022617340087890625</LatitudeDegrees>
              <LongitudeDegrees>-0.5483047105371952056884765625</LongitudeDegrees>
            </Position>
            <AltitudeMeters>111.8000030517578125</AltitudeMeters>
            <DistanceMeters>82897.75936222</DistanceMeters>
          </Trackpoint>
          <Trackpoint>
            <Time>2021-10-09T10:25:48.000Z</Time>
            <Position>
              <LatitudeDegrees>39.41639394499361515045166015625</LatitudeDegrees>
              <LongitudeDegrees>-0.5481350608170032501220703125</LongitudeDegrees>
            </Position>
            <AltitudeMeters>111.59999847412109375</AltitudeMeters>
            <DistanceMeters>82916.664902565</DistanceMeters>
          </Trackpoint>
          <Trackpoint>
            <Time>2021-10-09T10:25:50.000Z</Time>
            <Position>
              <LatitudeDegrees>39.4164547137916088104248046875</LatitudeDegrees>
              <LongitudeDegrees>-0.547946132719516754150390625</LongitudeDegrees>
            </Position>
            <AltitudeMeters>111.59999847412109375</AltitudeMeters>
            <DistanceMeters>82934.262043851</DistanceMeters>
          </Trackpoint>
          <Trackpoint>
            <Time>2021-10-09T10:25:51.000Z</Time>
            <Position>
              <LatitudeDegrees>39.41647189669311046600341796875</LatitudeDegrees>
              <LongitudeDegrees>-0.54784848354756832122802734375</LongitudeDegrees>
            </Position>
            <AltitudeMeters>111.59999847412109375</AltitudeMeters>
            <DistanceMeters>82942.873372886</DistanceMeters>
          </Trackpoint>
          <Trackpoint>
            <Time>2021-10-09T10:25:57.000Z</Time>
            <Position>
              <LatitudeDegrees>39.4165727309882640838623046875</LatitudeDegrees>
              <LongitudeDegrees>-0.54725839756429195404052734375</LongitudeDegrees>
            </Position>
            <AltitudeMeters>112.8000030517578125</AltitudeMeters>
            <DistanceMeters>82994.839172799</DistanceMeters>
          </Trackpoint>
          <Trackpoint>
            <Time>2021-10-09T10:25:58.000Z</Time>
            <Position>
              <LatitudeDegrees>39.41659444011747837066650390625</LatitudeDegrees>
              <LongitudeDegrees>-0.5471594072878360748291015625</LongitudeDegrees>
            </Position>
            <AltitudeMeters>112.8000030517578125</AltitudeMeters>
            <DistanceMeters>83003.687379553</DistanceMeters>
          </Trackpoint>
          <Trackpoint>
            <Time>2021-10-09T10:26:04.000Z</Time>
            <Position>
              <LatitudeDegrees>39.41678236238658428192138671875</LatitudeDegrees>
              <LongitudeDegrees>-0.54659019224345684051513671875</LongitudeDegrees>
            </Position>
            <AltitudeMeters>113</AltitudeMeters>
            <DistanceMeters>83056.913877308</DistanceMeters>
          </Trackpoint>
          <Trackpoint>
            <Time>2021-10-09T10:26:07.000Z</Time>
            <Position>
              <LatitudeDegrees>39.4168882258236408233642578125</LatitudeDegrees>
              <LongitudeDegrees>-0.54633119143545627593994140625</LongitudeDegrees>
            </Position>
            <AltitudeMeters>113</AltitudeMeters>
            <DistanceMeters>83082.109041802</DistanceMeters>
          </Trackpoint>
          <Trackpoint>
            <Time>2021-10-09T10:26:13.000Z</Time>
            <Position>
              <LatitudeDegrees>39.41709995269775390625</LatitudeDegrees>
              <LongitudeDegrees>-0.545794330537319183349609375</LongitudeDegrees>
            </Position>
            <AltitudeMeters>112.1999969482421875</AltitudeMeters>
            <DistanceMeters>83133.938601523</DistanceMeters>
          </Trackpoint>
          <Trackpoint>
            <Time>2021-10-09T10:26:19.000Z</Time>
            <Position>
              <LatitudeDegrees>39.41733657382428646087646484375</LatitudeDegrees>
              <LongitudeDegrees>-0.54520080797374248504638671875</LongitudeDegrees>
            </Position>
            <AltitudeMeters>111.8000030517578125</AltitudeMeters>
            <DistanceMeters>83191.367766588</DistanceMeters>
          </Trackpoint>
          <Trackpoint>
            <Time>2021-10-09T10:26:20.000Z</Time>
            <Position>
              <LatitudeDegrees>39.4173936545848846435546875</LatitudeDegrees>
              <LongitudeDegrees>-0.545102320611476898193359375</LongitudeDegrees>
            </Position>
            <AltitudeMeters>111.59999847412109375</AltitudeMeters>
            <DistanceMeters>83201.954612616</DistanceMeters>
          </Trackpoint>
          <Trackpoint>
            <Time>2021-10-09T10:26:22.000Z</Time>
            <Position>
              <LatitudeDegrees>39.41753338091075420379638671875</LatitudeDegrees>
              <LongitudeDegrees>-0.544929988682270050048828125</LongitudeDegrees>
            </Position>
            <AltitudeMeters>111.1999969482421875</AltitudeMeters>
            <DistanceMeters>83223.43548495</DistanceMeters>
          </Trackpoint>
          <Trackpoint>
            <Time>2021-10-09T10:26:23.000Z</Time>
            <Position>
              <LatitudeDegrees>39.41761066205799579620361328125</LatitudeDegrees>
              <LongitudeDegrees>-0.54485430009663105010986328125</LongitudeDegrees>
            </Position>
            <AltitudeMeters>110.8000030517578125</AltitudeMeters>
            <DistanceMeters>83234.221749591</DistanceMeters>
          </Trackpoint>
          <Trackpoint>
            <Time>2021-10-09T10:26:25.000Z</Time>
            <Position>
              <LatitudeDegrees>39.4177622906863689422607421875</LatitudeDegrees>
              <LongitudeDegrees>-0.54471113719046115875244140625</LongitudeDegrees>
            </Position>
            <AltitudeMeters>109.8000030517578125</AltitudeMeters>
            <DistanceMeters>83255.110774315</DistanceMeters>
          </Trackpoint>
          <Trackpoint>
            <Time>2021-10-09T10:26:28.000Z</Time>
            <Position>
              <LatitudeDegrees>39.4179721735417842864990234375</LatitudeDegrees>
              <LongitudeDegrees>-0.5444775335490703582763671875</LongitudeDegrees>
            </Position>
            <AltitudeMeters>108.8000030517578125</AltitudeMeters>
            <DistanceMeters>83285.919367194</DistanceMeters>
          </Trackpoint>
          <Trackpoint>
            <Time>2021-10-09T10:26:32.000Z</Time>
            <Position>
              <LatitudeDegrees>39.41819965839385986328125</LatitudeDegrees>
              <LongitudeDegrees>-0.5440859310328960418701171875</LongitudeDegrees>
            </Position>
            <AltitudeMeters>107.40000152587890625</AltitudeMeters>
            <DistanceMeters>83328.048365461</DistanceMeters>
          </Trackpoint>
          <Trackpoint>
            <Time>2021-10-09T10:26:34.000Z</Time>
            <Position>
              <LatitudeDegrees>39.41826964728534221649169921875</LatitudeDegrees>
              <LongitudeDegrees>-0.5438586138188838958740234375</LongitudeDegrees>
            </Position>
            <AltitudeMeters>106.59999847412109375</AltitudeMeters>
            <DistanceMeters>83349.089219954</DistanceMeters>
          </Trackpoint>
          <Trackpoint>
            <Time>2021-10-09T10:26:36.000Z</Time>
            <Position>
              <LatitudeDegrees>39.41831105388700962066650390625</LatitudeDegrees>
              <LongitudeDegrees>-0.54362274706363677978515625</LongitudeDegrees>
            </Position>
            <AltitudeMeters>106.40000152587890625</AltitudeMeters>
            <DistanceMeters>83369.886831876</DistanceMeters>
          </Trackpoint>
          <Trackpoint>
            <Time>2021-10-09T10:26:43.000Z</Time>
            <Position>
              <LatitudeDegrees>39.4184137322008609771728515625</LatitudeDegrees>
              <LongitudeDegrees>-0.54281867109239101409912109375</LongitudeDegrees>
            </Position>
            <AltitudeMeters>105.59999847412109375</AltitudeMeters>
            <DistanceMeters>83439.962832554</DistanceMeters>
          </Trackpoint>
          <Trackpoint>
            <Time>2021-10-09T10:26:44.000Z</Time>
            <Position>
              <LatitudeDegrees>39.41842454485595226287841796875</LatitudeDegrees>
              <LongitudeDegrees>-0.54270836524665355682373046875</LongitudeDegrees>
            </Position>
            <AltitudeMeters>105.59999847412109375</AltitudeMeters>
            <DistanceMeters>83449.52329456</DistanceMeters>
          </Trackpoint>
          <Trackpoint>
            <Time>2021-10-09T10:26:51.000Z</Time>
            <Position>
              <LatitudeDegrees>39.41848975606262683868408203125</LatitudeDegrees>
              <LongitudeDegrees>-0.54196388460695743560791015625</LongitudeDegrees>
            </Position>
            <AltitudeMeters>105.8000030517578125</AltitudeMeters>
            <DistanceMeters>83513.946851627</DistanceMeters>
          </Trackpoint>
          <Trackpoint>
            <Time>2021-10-09T10:26:54.000Z</Time>
            <Position>
              <LatitudeDegrees>39.4185535423457622528076171875</LatitudeDegrees>
              <LongitudeDegrees>-0.54166314192116260528564453125</LongitudeDegrees>
            </Position>
            <AltitudeMeters>105.59999847412109375</AltitudeMeters>
            <DistanceMeters>83540.762912254</DistanceMeters>
          </Trackpoint>
          <Trackpoint>
            <Time>2021-10-09T10:26:58.000Z</Time>
            <Position>
              <LatitudeDegrees>39.41865538246929645538330078125</LatitudeDegrees>
              <LongitudeDegrees>-0.5412820167839527130126953125</LongitudeDegrees>
            </Position>
            <AltitudeMeters>105.40000152587890625</AltitudeMeters>
            <DistanceMeters>83575.438419443</DistanceMeters>
          </Trackpoint>
          <Trackpoint>
            <Time>2021-10-09T10:27:00.000Z</Time>
            <Position>
              <LatitudeDegrees>39.4187040813267230987548828125</LatitudeDegrees>
              <LongitudeDegrees>-0.54109686054289340972900390625</LongitudeDegrees>
            </Position>
            <AltitudeMeters>105.1999969482421875</AltitudeMeters>
            <DistanceMeters>83592.256537187</DistanceMeters>
          </Trackpoint>
          <Trackpoint>
            <Time>2021-10-09T10:27:05.000Z</Time>
            <Position>
              <LatitudeDegrees>39.41884648986160755157470703125</LatitudeDegrees>
              <LongitudeDegrees>-0.54064842872321605682373046875</LongitudeDegrees>
            </Position>
            <AltitudeMeters>105.40000152587890625</AltitudeMeters>
            <DistanceMeters>83633.945115269</DistanceMeters>
          </Trackpoint>
          <Trackpoint>
            <Time>2021-10-09T10:27:06.000Z</Time>
            <Position>
              <LatitudeDegrees>39.41888370551168918609619140625</LatitudeDegrees>
              <LongitudeDegrees>-0.5405658669769763946533203125</LongitudeDegrees>
            </Position>
            <AltitudeMeters>105.59999847412109375</AltitudeMeters>
            <DistanceMeters>83642.164239424</DistanceMeters>
          </Trackpoint>
          <Trackpoint>
            <Time>2021-10-09T10:27:11.000Z</Time>
            <Position>
              <LatitudeDegrees>39.419104568660259246826171875</LatitudeDegrees>
              <LongitudeDegrees>-0.5402205325663089752197265625</LongitudeDegrees>
            </Position>
            <AltitudeMeters>105.59999847412109375</AltitudeMeters>
            <DistanceMeters>83680.712655079</DistanceMeters>
          </Trackpoint>
          <Trackpoint>
            <Time>2021-10-09T10:27:17.000Z</Time>
            <Position>
              <LatitudeDegrees>39.4193662516772747039794921875</LatitudeDegrees>
              <LongitudeDegrees>-0.5398450233042240142822265625</LongitudeDegrees>
            </Position>
            <AltitudeMeters>106</AltitudeMeters>
            <DistanceMeters>83724.195866167</DistanceMeters>
          </Trackpoint>
          <Trackpoint>
            <Time>2021-10-09T10:27:18.000Z</Time>
            <Position>
              <LatitudeDegrees>39.41941545344889163970947265625</LatitudeDegrees>
              <LongitudeDegrees>-0.53979146294295787811279296875</LongitudeDegrees>
            </Position>
            <AltitudeMeters>106</AltitudeMeters>
            <DistanceMeters>83731.35132097</DistanceMeters>
          </Trackpoint>
          <Trackpoint>
            <Time>2021-10-09T10:27:21.000Z</Time>
            <Position>
              <LatitudeDegrees>39.41958175040781497955322265625</LatitudeDegrees>
              <LongitudeDegrees>-0.539647042751312255859375</LongitudeDegrees>
            </Position>
            <AltitudeMeters>106.40000152587890625</AltitudeMeters>
            <DistanceMeters>83753.63989709</DistanceMeters>
          </Trackpoint>
          <Trackpoint>
            <Time>2021-10-09T10:27:22.000Z</Time>
            <Position>
              <LatitudeDegrees>39.41963556222617626190185546875</LatitudeDegrees>
              <LongitudeDegrees>-0.53960287012159824371337890625</LongitudeDegrees>
            </Position>
            <AltitudeMeters>106.59999847412109375</AltitudeMeters>
            <DistanceMeters>83760.731971948</DistanceMeters>
          </Trackpoint>
          <Trackpoint>
            <Time>2021-10-09T10:27:24.000Z</Time>
            <Position>
              <LatitudeDegrees>39.41974536515772342681884765625</LatitudeDegrees>
              <LongitudeDegrees>-0.53950848989188671112060546875</LongitudeDegrees>
            </Position>
            <AltitudeMeters>106.8000030517578125</AltitudeMeters>
            <DistanceMeters>83775.40213936</DistanceMeters>
          </Trackpoint>
          <Trackpoint>
            <Time>2021-10-09T10:27:28.000Z</Time>
            <Position>
              <LatitudeDegrees>39.41996664740145206451416015625</LatitudeDegrees>
              <LongitudeDegrees>-0.539310090243816375732421875</LongitudeDegrees>
            </Position>
            <AltitudeMeters>106.8000030517578125</AltitudeMeters>
            <DistanceMeters>83805.362089771</DistanceMeters>
          </Trackpoint>
          <Trackpoint>
            <Time>2021-10-09T10:27:30.000Z</Time>
            <Position>
              <LatitudeDegrees>39.42007997073233127593994140625</LatitudeDegrees>
              <LongitudeDegrees>-0.53925602696835994720458984375</LongitudeDegrees>
            </Position>
            <AltitudeMeters>106.8000030517578125</AltitudeMeters>
            <DistanceMeters>83818.804255878</DistanceMeters>
          </Trackpoint>
          <Trackpoint>
            <Time>2021-10-09T10:27:32.000Z</Time>
            <Position>
              <LatitudeDegrees>39.42019932903349399566650390625</LatitudeDegrees>
              <LongitudeDegrees>-0.5392809212207794189453125</LongitudeDegrees>
            </Position>
            <AltitudeMeters>106.59999847412109375</AltitudeMeters>
            <DistanceMeters>83832.260186272</DistanceMeters>
          </Trackpoint>
          <Trackpoint>
            <Time>2021-10-09T10:27:33.000Z</Time>
            <Position>
              <LatitudeDegrees>39.4202597625553607940673828125</LatitudeDegrees>
              <LongitudeDegrees>-0.53931553848087787628173828125</LongitudeDegrees>
            </Position>
            <AltitudeMeters>106.59999847412109375</AltitudeMeters>
            <DistanceMeters>83839.616015121</DistanceMeters>
          </Trackpoint>
          <Trackpoint>
            <Time>2021-10-09T10:27:38.000Z</Time>
            <Position>
              <LatitudeDegrees>39.42056746222078800201416015625</LatitudeDegrees>
              <LongitudeDegrees>-0.53948351182043552398681640625</LongitudeDegrees>
            </Position>
            <AltitudeMeters>106.59999847412109375</AltitudeMeters>
            <DistanceMeters>83876.784339066</DistanceMeters>
          </Trackpoint>
          <Trackpoint>
            <Time>2021-10-09T10:27:40.000Z</Time>
            <Position>
              <LatitudeDegrees>39.420699141919612884521484375</LatitudeDegrees>
              <LongitudeDegrees>-0.5395223200321197509765625</LongitudeDegrees>
            </Position>
            <AltitudeMeters>106.59999847412109375</AltitudeMeters>
            <DistanceMeters>83891.815691058</DistanceMeters>
          </Trackpoint>
          <Trackpoint>
            <Time>2021-10-09T10:27:48.000Z</Time>
            <Position>
              <LatitudeDegrees>39.42124254070222377777099609375</LatitudeDegrees>
              <LongitudeDegrees>-0.53968350403010845184326171875</LongitudeDegrees>
            </Position>
            <AltitudeMeters>106.59999847412109375</AltitudeMeters>
            <DistanceMeters>83953.864570119</DistanceMeters>
          </Trackpoint>
          <Trackpoint>
            <Time>2021-10-09T10:27:49.000Z</Time>
            <Position>
              <LatitudeDegrees>39.4213138706982135772705078125</LatitudeDegrees>
              <LongitudeDegrees>-0.53970412351191043853759765625</LongitudeDegrees>
            </Position>
            <AltitudeMeters>106.59999847412109375</AltitudeMeters>
            <DistanceMeters>83961.999212101</DistanceMeters>
          </Trackpoint>
          <Trackpoint>
            <Time>2021-10-09T10:27:55.000Z</Time>
            <Position>
              <LatitudeDegrees>39.42174361087381839752197265625</LatitudeDegrees>
              <LongitudeDegrees>-0.5398688279092311859130859375</LongitudeDegrees>
            </Position>
            <AltitudeMeters>106.1999969482421875</AltitudeMeters>
            <DistanceMeters>84011.882535217</DistanceMeters>
          </Trackpoint>
          <Trackpoint>
            <Time>2021-10-09T10:28:01.000Z</Time>
            <Position>
              <LatitudeDegrees>39.422197155654430389404296875</LatitudeDegrees>
              <LongitudeDegrees>-0.53990813903510570526123046875</LongitudeDegrees>
            </Position>
            <AltitudeMeters>106.1999969482421875</AltitudeMeters>
            <DistanceMeters>84062.476028762</DistanceMeters>
          </Trackpoint>
          <Trackpoint>
            <Time>2021-10-09T10:28:05.000Z</Time>
            <Position>
              <LatitudeDegrees>39.422500915825366973876953125</LatitudeDegrees>
              <LongitudeDegrees>-0.53996664471924304962158203125</LongitudeDegrees>
            </Position>
            <AltitudeMeters>105.8000030517578125</AltitudeMeters>
            <DistanceMeters>84096.657390215</DistanceMeters>
          </Trackpoint>
          <Trackpoint>
            <Time>2021-10-09T10:28:06.000Z</Time>
            <Position>
              <LatitudeDegrees>39.42257358692586421966552734375</LatitudeDegrees>
              <LongitudeDegrees>-0.54000184871256351470947265625</LongitudeDegrees>
            </Position>
            <AltitudeMeters>105.59999847412109375</AltitudeMeters>
            <DistanceMeters>84105.293849642</DistanceMeters>
          </Trackpoint>
          <Trackpoint>
            <Time>2021-10-09T10:28:10.000Z</Time>
            <Position>
              <LatitudeDegrees>39.42284063436090946197509765625</LatitudeDegrees>
              <LongitudeDegrees>-0.540201254189014434814453125</LongitudeDegrees>
            </Position>
            <AltitudeMeters>105.1999969482421875</AltitudeMeters>
            <DistanceMeters>84139.6070475</DistanceMeters>
          </Trackpoint>
          <Trackpoint>
            <Time>2021-10-09T10:28:11.000Z</Time>
            <Position>
              <LatitudeDegrees>39.42290198989212512969970703125</LatitudeDegrees>
              <LongitudeDegrees>-0.54026034660637378692626953125</LongitudeDegrees>
            </Position>
            <AltitudeMeters>105</AltitudeMeters>
            <DistanceMeters>84148.119234844</DistanceMeters>
          </Trackpoint>
          <Trackpoint>
            <Time>2021-10-09T10:28:14.000Z</Time>
            <Position>
              <LatitudeDegrees>39.42308505065739154815673828125</LatitudeDegrees>
              <LongitudeDegrees>-0.54042831994593143463134765625</LongitudeDegrees>
            </Position>
            <AltitudeMeters>104.59999847412109375</AltitudeMeters>
            <DistanceMeters>84173.093369063</DistanceMeters>
          </Trackpoint>
          <Trackpoint>
            <Time>2021-10-09T10:28:15.000Z</Time>
            <Position>
              <LatitudeDegrees>39.42315302789211273193359375</LatitudeDegrees>
              <LongitudeDegrees>-0.5404718220233917236328125</LongitudeDegrees>
            </Position>
            <AltitudeMeters>104.59999847412109375</AltitudeMeters>
            <DistanceMeters>84181.533110942</DistanceMeters>
          </Trackpoint>
          <Trackpoint>
            <Time>2021-10-09T10:28:16.000Z</Time>
            <Position>
              <LatitudeDegrees>39.4232279621064662933349609375</LatitudeDegrees>
              <LongitudeDegrees>-0.54049353115260601043701171875</LongitudeDegrees>
            </Position>
            <AltitudeMeters>104.1999969482421875</AltitudeMeters>
            <DistanceMeters>84190.079177773</DistanceMeters>
          </Trackpoint>
          <Trackpoint>
            <Time>2021-10-09T10:28:17.000Z</Time>
            <Position>
              <LatitudeDegrees>39.42330549471080303192138671875</LatitudeDegrees>
              <LongitudeDegrees>-0.5404887534677982330322265625</LongitudeDegrees>
            </Position>
            <AltitudeMeters>104.1999969482421875</AltitudeMeters>
            <DistanceMeters>84198.717728099</DistanceMeters>
          </Trackpoint>
          <Trackpoint>
            <Time>2021-10-09T10:28:19.000Z</Time>
            <Position>
              <LatitudeDegrees>39.42345351912081241607666015625</LatitudeDegrees>
              <LongitudeDegrees>-0.540401749312877655029296875</LongitudeDegrees>
            </Position>
            <AltitudeMeters>104</AltitudeMeters>
            <DistanceMeters>84216.811772742</DistanceMeters>
          </Trackpoint>
          <Trackpoint>
            <Time>2021-10-09T10:28:24.000Z</Time>
            <Position>
              <LatitudeDegrees>39.4237590394914150238037109375</LatitudeDegrees>
              <LongitudeDegrees>-0.54002447985112667083740234375</LongitudeDegrees>
            </Position>
            <AltitudeMeters>103.59999847412109375</AltitudeMeters>
            <DistanceMeters>84263.806302168</DistanceMeters>
          </Trackpoint>
          <Trackpoint>
            <Time>2021-10-09T10:28:25.000Z</Time>
            <Position>
              <LatitudeDegrees>39.42381813190877437591552734375</LatitudeDegrees>
              <LongitudeDegrees>-0.5399472825229167938232421875</LongitudeDegrees>
            </Position>
            <AltitudeMeters>103.40000152587890625</AltitudeMeters>
            <DistanceMeters>84273.149897785</DistanceMeters>
          </Trackpoint>
          <Trackpoint>
            <Time>2021-10-09T10:28:31.000Z</Time>
            <Position>
              <LatitudeDegrees>39.4241982512176036834716796875</LatitudeDegrees>
              <LongitudeDegrees>-0.5394954979419708251953125</LongitudeDegrees>
            </Position>
            <AltitudeMeters>102.40000152587890625</AltitudeMeters>
            <DistanceMeters>84330.584723158</DistanceMeters>
          </Trackpoint>
          <Trackpoint>
            <Time>2021-10-09T10:28:33.000Z</Time>
            <Position>
              <LatitudeDegrees>39.424336887896060943603515625</LatitudeDegrees>
              <LongitudeDegrees>-0.5393380858004093170166015625</LongitudeDegrees>
            </Position>
            <AltitudeMeters>102</AltitudeMeters>
            <DistanceMeters>84351.109613566</DistanceMeters>
          </Trackpoint>
          <Trackpoint>
            <Time>2021-10-09T10:28:36.000Z</Time>
            <Position>
              <LatitudeDegrees>39.4245536439120769500732421875</LatitudeDegrees>
              <LongitudeDegrees>-0.53909878246486186981201171875</LongitudeDegrees>
            </Position>
            <AltitudeMeters>101.1999969482421875</AltitudeMeters>
            <DistanceMeters>84382.816939704</DistanceMeters>
          </Trackpoint>
          <Trackpoint>
            <Time>2021-10-09T10:28:39.000Z</Time>
            <Position>
              <LatitudeDegrees>39.4247670471668243408203125</LatitudeDegrees>
              <LongitudeDegrees>-0.53886559791862964630126953125</LongitudeDegrees>
            </Position>
            <AltitudeMeters>101</AltitudeMeters>
            <DistanceMeters>84413.899246867</DistanceMeters>
          </Trackpoint>
          <Trackpoint>
            <Time>2021-10-09T10:28:42.000Z</Time>
            <Position>
              <LatitudeDegrees>39.424944408237934112548828125</LatitudeDegrees>
              <LongitudeDegrees>-0.53860391490161418914794921875</LongitudeDegrees>
            </Position>
            <AltitudeMeters>100</AltitudeMeters>
            <DistanceMeters>84443.830399267</DistanceMeters>
          </Trackpoint>
          <Trackpoint>
            <Time>2021-10-09T10:28:45.000Z</Time>
            <Position>
              <LatitudeDegrees>39.4251028262078762054443359375</LatitudeDegrees>
              <LongitudeDegrees>-0.53834038786590099334716796875</LongitudeDegrees>
            </Position>
            <AltitudeMeters>99.40000152587890625</AltitudeMeters>
            <DistanceMeters>84472.53979246</DistanceMeters>
          </Trackpoint>
          <Trackpoint>
            <Time>2021-10-09T10:28:47.000Z</Time>
            <Position>
              <LatitudeDegrees>39.42520215176045894622802734375</LatitudeDegrees>
              <LongitudeDegrees>-0.53815414197742938995361328125</LongitudeDegrees>
            </Position>
            <AltitudeMeters>99</AltitudeMeters>
            <DistanceMeters>84491.998238063</DistanceMeters>
          </Trackpoint>
          <Trackpoint>
            <Time>2021-10-09T10:28:50.000Z</Time>
            <Position>
              <LatitudeDegrees>39.42533240653574466705322265625</LatitudeDegrees>
              <LongitudeDegrees>-0.53782640956342220306396484375</LongitudeDegrees>
            </Position>
            <AltitudeMeters>98.1999969482421875</AltitudeMeters>
            <DistanceMeters>84523.686192248</DistanceMeters>
          </Trackpoint>
          <Trackpoint>
            <Time>2021-10-09T10:28:51.000Z</Time>
            <Position>
              <LatitudeDegrees>39.42536241374909877777099609375</LatitudeDegrees>
              <LongitudeDegrees>-0.53771006874740123748779296875</LongitudeDegrees>
            </Position>
            <AltitudeMeters>97.8000030517578125</AltitudeMeters>
            <DistanceMeters>84534.231588941</DistanceMeters>
          </Trackpoint>
          <Trackpoint>
            <Time>2021-10-09T10:28:53.000Z</Time>
            <Position>
              <LatitudeDegrees>39.4253490865230560302734375</LatitudeDegrees>
              <LongitudeDegrees>-0.53749498911201953887939453125</LongitudeDegrees>
            </Position>
            <AltitudeMeters>97</AltitudeMeters>
            <DistanceMeters>84552.782984399</DistanceMeters>
          </Trackpoint>
          <Trackpoint>
            <Time>2021-10-09T10:28:54.000Z</Time>
            <Position>
              <LatitudeDegrees>39.42530876956880092620849609375</LatitudeDegrees>
              <LongitudeDegrees>-0.53741083480417728424072265625</LongitudeDegrees>
            </Position>
            <AltitudeMeters>96.59999847412109375</AltitudeMeters>
            <DistanceMeters>84561.297293161</DistanceMeters>
          </Trackpoint>
          <Trackpoint>
            <Time>2021-10-09T10:28:55.000Z</Time>
            <Position>
              <LatitudeDegrees>39.42526099272072315216064453125</LatitudeDegrees>
              <LongitudeDegrees>-0.53734260611236095428466796875</LongitudeDegrees>
            </Position>
            <AltitudeMeters>96.40000152587890625</AltitudeMeters>
            <DistanceMeters>84569.214792177</DistanceMeters>
          </Trackpoint>
          <Trackpoint>
            <Time>2021-10-09T10:28:56.000Z</Time>
            <Position>
              <LatitudeDegrees>39.425209276378154754638671875</LatitudeDegrees>
              <LongitudeDegrees>-0.5372804962098598480224609375</LongitudeDegrees>
            </Position>
            <AltitudeMeters>96.1999969482421875</AltitudeMeters>
            <DistanceMeters>84577.06701237</DistanceMeters>
          </Trackpoint>
          <Trackpoint>
            <Time>2021-10-09T10:29:00.000Z</Time>
            <Position>
              <LatitudeDegrees>39.42501523531973361968994140625</LatitudeDegrees>
              <LongitudeDegrees>-0.53701990284025669097900390625</LongitudeDegrees>
            </Position>
            <AltitudeMeters>95.8000030517578125</AltitudeMeters>
            <DistanceMeters>84608.186193882</DistanceMeters>
          </Trackpoint>
          <Trackpoint>
            <Time>2021-10-09T10:29:02.000Z</Time>
            <Position>
              <LatitudeDegrees>39.42492772825062274932861328125</LatitudeDegrees>
              <LongitudeDegrees>-0.53688369691371917724609375</LongitudeDegrees>
            </Position>
            <AltitudeMeters>96.1999969482421875</AltitudeMeters>
            <DistanceMeters>84623.41776386</DistanceMeters>
          </Trackpoint>
          <Trackpoint>
            <Time>2021-10-09T10:29:10.000Z</Time>
            <Position>
              <LatitudeDegrees>39.42461483180522918701171875</LatitudeDegrees>
              <LongitudeDegrees>-0.536301992833614349365234375</LongitudeDegrees>
            </Position>
            <AltitudeMeters>96.8000030517578125</AltitudeMeters>
            <DistanceMeters>84684.361382246</DistanceMeters>
          </Trackpoint>
          <Trackpoint>
            <Time>2021-10-09T10:29:12.000Z</Time>
            <Position>
              <LatitudeDegrees>39.42455406300723552703857421875</LatitudeDegrees>
              <LongitudeDegrees>-0.5361341871321201324462890625</LongitudeDegrees>
            </Position>
            <AltitudeMeters>96.8000030517578125</AltitudeMeters>
            <DistanceMeters>84700.295296683</DistanceMeters>
          </Trackpoint>
          <Trackpoint>
            <Time>2021-10-09T10:29:14.000Z</Time>
            <Position>
              <LatitudeDegrees>39.42452631890773773193359375</LatitudeDegrees>
              <LongitudeDegrees>-0.53594869561493396759033203125</LongitudeDegrees>
            </Position>
            <AltitudeMeters>96.59999847412109375</AltitudeMeters>
            <DistanceMeters>84716.539028819</DistanceMeters>
          </Trackpoint>
          <Trackpoint>
            <Time>2021-10-09T10:29:16.000Z</Time>
            <Position>
              <LatitudeDegrees>39.424528665840625762939453125</LatitudeDegrees>
              <LongitudeDegrees>-0.53575641475617885589599609375</LongitudeDegrees>
            </Position>
            <AltitudeMeters>96.59999847412109375</AltitudeMeters>
            <DistanceMeters>84733.072857903</DistanceMeters>
          </Trackpoint>
          <Trackpoint>
            <Time>2021-10-09T10:29:19.000Z</Time>
            <Position>
              <LatitudeDegrees>39.42455557174980640411376953125</LatitudeDegrees>
              <LongitudeDegrees>-0.53547981195151805877685546875</LongitudeDegrees>
            </Position>
            <AltitudeMeters>96.40000152587890625</AltitudeMeters>
            <DistanceMeters>84757.042204654</DistanceMeters>
          </Trackpoint>
          <Trackpoint>
            <Time>2021-10-09T10:29:23.000Z</Time>
            <Position>
              <LatitudeDegrees>39.42459161393344402313232421875</LatitudeDegrees>
              <LongitudeDegrees>-0.5351310409605503082275390625</LongitudeDegrees>
            </Position>
            <AltitudeMeters>96.59999847412109375</AltitudeMeters>
            <DistanceMeters>84787.295343798</DistanceMeters>
          </Trackpoint>
          <Trackpoint>
            <Time>2021-10-09T10:29:25.000Z</Time>
            <Position>
              <LatitudeDegrees>39.42463687621057033538818359375</LatitudeDegrees>
              <LongitudeDegrees>-0.53497790358960628509521484375</LongitudeDegrees>
            </Position>
            <AltitudeMeters>97</AltitudeMeters>
            <DistanceMeters>84801.392645752</DistanceMeters>
          </Trackpoint>
          <Trackpoint>
            <Time>2021-10-09T10:29:27.000Z</Time>
            <Position>
              <LatitudeDegrees>39.4247149117290973663330078125</LatitudeDegrees>
              <LongitudeDegrees>-0.5348497442901134490966796875</LongitudeDegrees>
            </Position>
            <AltitudeMeters>97.59999847412109375</AltitudeMeters>
            <DistanceMeters>84815.423171988</DistanceMeters>
          </Trackpoint>
          <Trackpoint>
            <Time>2021-10-09T10:29:29.000Z</Time>
            <Position>
              <LatitudeDegrees>39.42482412792742252349853515625</LatitudeDegrees>
              <LongitudeDegrees>-0.534779168665409088134765625</LongitudeDegrees>
            </Position>
            <AltitudeMeters>97.59999847412109375</AltitudeMeters>
            <DistanceMeters>84829.009001463</DistanceMeters>
          </Trackpoint>
          <Trackpoint>
            <Time>2021-10-09T10:29:31.000Z</Time>
            <Position>
              <LatitudeDegrees>39.4249472580850124359130859375</LatitudeDegrees>
              <LongitudeDegrees>-0.53478277288377285003662109375</LongitudeDegrees>
            </Position>
            <AltitudeMeters>98</AltitudeMeters>
            <DistanceMeters>84842.717243174</DistanceMeters>
          </Trackpoint>
          <Trackpoint>
            <Time>2021-10-09T10:29:32.000Z</Time>
            <Position>
              <LatitudeDegrees>39.42500936798751354217529296875</LatitudeDegrees>
              <LongitudeDegrees>-0.53479953669011592864990234375</LongitudeDegrees>
            </Position>
            <AltitudeMeters>98</AltitudeMeters>
            <DistanceMeters>84849.7786936</DistanceMeters>
          </Trackpoint>
          <Trackpoint>
            <Time>2021-10-09T10:29:35.000Z</Time>
            <Position>
              <LatitudeDegrees>39.42518756724894046783447265625</LatitudeDegrees>
              <LongitudeDegrees>-0.53485594689846038818359375</LongitudeDegrees>
            </Position>
            <AltitudeMeters>99</AltitudeMeters>
            <DistanceMeters>84870.19683674</DistanceMeters>
          </Trackpoint>
          <Trackpoint>
            <Time>2021-10-09T10:29:38.000Z</Time>
            <Position>
              <LatitudeDegrees>39.425361156463623046875</LatitudeDegrees>
              <LongitudeDegrees>-0.53488804958760738372802734375</LongitudeDegrees>
            </Position>
            <AltitudeMeters>99.59999847412109375</AltitudeMeters>
            <DistanceMeters>84889.713898881</DistanceMeters>
          </Trackpoint>
          <Trackpoint>
            <Time>2021-10-09T10:29:40.000Z</Time>
            <Position>
              <LatitudeDegrees>39.425484202802181243896484375</LatitudeDegrees>
              <LongitudeDegrees>-0.53490062244236469268798828125</LongitudeDegrees>
            </Position>
            <AltitudeMeters>100.40000152587890625</AltitudeMeters>
            <DistanceMeters>84903.451751613</DistanceMeters>
          </Trackpoint>
          <Trackpoint>
            <Time>2021-10-09T10:29:41.000Z</Time>
            <Position>
              <LatitudeDegrees>39.42554832436144351959228515625</LatitudeDegrees>
              <LongitudeDegrees>-0.5349010415375232696533203125</LongitudeDegrees>
            </Position>
            <AltitudeMeters>100.59999847412109375</AltitudeMeters>
            <DistanceMeters>84910.588251535</DistanceMeters>
          </Trackpoint>
          <Trackpoint>
            <Time>2021-10-09T10:29:43.000Z</Time>
            <Position>
              <LatitudeDegrees>39.42567698657512664794921875</LatitudeDegrees>
              <LongitudeDegrees>-0.53486743010580539703369140625</LongitudeDegrees>
            </Position>
            <AltitudeMeters>100.8000030517578125</AltitudeMeters>
            <DistanceMeters>84925.197353381</DistanceMeters>
          </Trackpoint>
          <Trackpoint>
            <Time>2021-10-09T10:29:45.000Z</Time>
            <Position>
              <LatitudeDegrees>39.4257971830666065216064453125</LatitudeDegrees>
              <LongitudeDegrees>-0.5347914062440395355224609375</LongitudeDegrees>
            </Position>
            <AltitudeMeters>101</AltitudeMeters>
            <DistanceMeters>84940.087163214</DistanceMeters>
          </Trackpoint>
          <Trackpoint>
            <Time>2021-10-09T10:29:47.000Z</Time>
            <Position>
              <LatitudeDegrees>39.42590237595140933990478515625</LatitudeDegrees>
              <LongitudeDegrees>-0.53467649035155773162841796875</LongitudeDegrees>
            </Position>
            <AltitudeMeters>101</AltitudeMeters>
            <DistanceMeters>84955.406813562</DistanceMeters>
          </Trackpoint>
          <Trackpoint>
            <Time>2021-10-09T10:29:55.000Z</Time>
            <Position>
              <LatitudeDegrees>39.4263386540114879608154296875</LatitudeDegrees>
              <LongitudeDegrees>-0.534195117652416229248046875</LongitudeDegrees>
            </Position>
            <AltitudeMeters>100.8000030517578125</AltitudeMeters>
            <DistanceMeters>85019.208955458</DistanceMeters>
          </Trackpoint>
          <Trackpoint>
            <Time>2021-10-09T10:30:01.000Z</Time>
            <Position>
              <LatitudeDegrees>39.42665473558008670806884765625</LatitudeDegrees>
              <LongitudeDegrees>-0.5337778665125370025634765625</LongitudeDegrees>
            </Position>
            <AltitudeMeters>100.40000152587890625</AltitudeMeters>
            <DistanceMeters>85069.453561251</DistanceMeters>
          </Trackpoint>
          <Trackpoint>
            <Time>2021-10-09T10:30:02.000Z</Time>
            <Position>
              <LatitudeDegrees>39.42671089433133602142333984375</LatitudeDegrees>
              <LongitudeDegrees>-0.53369857370853424072265625</LongitudeDegrees>
            </Position>
            <AltitudeMeters>100.1999969482421875</AltitudeMeters>
            <DistanceMeters>85078.701960252</DistanceMeters>
          </Trackpoint>
          <Trackpoint>
            <Time>2021-10-09T10:30:04.000Z</Time>
            <Position>
              <LatitudeDegrees>39.42684181965887546539306640625</LatitudeDegrees>
              <LongitudeDegrees>-0.5335609428584575653076171875</LongitudeDegrees>
            </Position>
            <AltitudeMeters>100.1999969482421875</AltitudeMeters>
            <DistanceMeters>85097.473043941</DistanceMeters>
          </Trackpoint>
          <Trackpoint>
            <Time>2021-10-09T10:30:05.000Z</Time>
            <Position>
              <LatitudeDegrees>39.426913820207118988037109375</LatitudeDegrees>
              <LongitudeDegrees>-0.53350151516497135162353515625</LongitudeDegrees>
            </Position>
            <AltitudeMeters>100.1999969482421875</AltitudeMeters>
            <DistanceMeters>85106.976665597</DistanceMeters>
          </Trackpoint>
          <Trackpoint>
            <Time>2021-10-09T10:30:10.000Z</Time>
            <Position>
              <LatitudeDegrees>39.42729326896369457244873046875</LatitudeDegrees>
              <LongitudeDegrees>-0.53327419795095920562744140625</LongitudeDegrees>
            </Position>
            <AltitudeMeters>99.8000030517578125</AltitudeMeters>
            <DistanceMeters>85153.512597229</DistanceMeters>
          </Trackpoint>
          <Trackpoint>
            <Time>2021-10-09T10:30:17.000Z</Time>
            <Position>
              <LatitudeDegrees>39.42782551981508731842041015625</LatitudeDegrees>
              <LongitudeDegrees>-0.53298032842576503753662109375</LongitudeDegrees>
            </Position>
            <AltitudeMeters>99.8000030517578125</AltitudeMeters>
            <DistanceMeters>85217.915616512</DistanceMeters>
          </Trackpoint>
          <Trackpoint>
            <Time>2021-10-09T10:30:19.000Z</Time>
            <Position>
              <LatitudeDegrees>39.4279717840254306793212890625</LatitudeDegrees>
              <LongitudeDegrees>-0.53290187381207942962646484375</LongitudeDegrees>
            </Position>
            <AltitudeMeters>99.8000030517578125</AltitudeMeters>
            <DistanceMeters>85235.537115843</DistanceMeters>
          </Trackpoint>
          <Trackpoint>
            <Time>2021-10-09T10:30:25.000Z</Time>
            <Position>
              <LatitudeDegrees>39.4283962436020374298095703125</LatitudeDegrees>
              <LongitudeDegrees>-0.5326344072818756103515625</LongitudeDegrees>
            </Position>
            <AltitudeMeters>99.40000152587890625</AltitudeMeters>
            <DistanceMeters>85288.079241518</DistanceMeters>
          </Trackpoint>
          <Trackpoint>
            <Time>2021-10-09T10:30:32.000Z</Time>
            <Position>
              <LatitudeDegrees>39.42888197489082813262939453125</LatitudeDegrees>
              <LongitudeDegrees>-0.53220584057271480560302734375</LongitudeDegrees>
            </Position>
            <AltitudeMeters>99</AltitudeMeters>
            <DistanceMeters>85353.503322825</DistanceMeters>
          </Trackpoint>
          <Trackpoint>
            <Time>2021-10-09T10:30:35.000Z</Time>
            <Position>
              <LatitudeDegrees>39.4291006587445735931396484375</LatitudeDegrees>
              <LongitudeDegrees>-0.53201682865619659423828125</LongitudeDegrees>
            </Position>
            <AltitudeMeters>98.8000030517578125</AltitudeMeters>
            <DistanceMeters>85382.768928243</DistanceMeters>
          </Trackpoint>
          <Trackpoint>
            <Time>2021-10-09T10:30:38.000Z</Time>
            <Position>
              <LatitudeDegrees>39.4293219409883022308349609375</LatitudeDegrees>
              <LongitudeDegrees>-0.531813986599445343017578125</LongitudeDegrees>
            </Position>
            <AltitudeMeters>98.59999847412109375</AltitudeMeters>
            <DistanceMeters>85412.946755692</DistanceMeters>
          </Trackpoint>
          <Trackpoint>
            <Time>2021-10-09T10:30:41.000Z</Time>
            <Position>
              <LatitudeDegrees>39.4295346736907958984375</LatitudeDegrees>
              <LongitudeDegrees>-0.53159211762249469757080078125</LongitudeDegrees>
            </Position>
            <AltitudeMeters>98</AltitudeMeters>
            <DistanceMeters>85443.351443585</DistanceMeters>
          </Trackpoint>
          <Trackpoint>
            <Time>2021-10-09T10:30:43.000Z</Time>
            <Position>
              <LatitudeDegrees>39.429681859910488128662109375</LatitudeDegrees>
              <LongitudeDegrees>-0.53145247511565685272216796875</LongitudeDegrees>
            </Position>
            <AltitudeMeters>97.40000152587890625</AltitudeMeters>
            <DistanceMeters>85463.661389227</DistanceMeters>
          </Trackpoint>
          <Trackpoint>
            <Time>2021-10-09T10:30:44.000Z</Time>
            <Position>
              <LatitudeDegrees>39.4297604821622371673583984375</LatitudeDegrees>
              <LongitudeDegrees>-0.53138894028961658477783203125</LongitudeDegrees>
            </Position>
            <AltitudeMeters>97.1999969482421875</AltitudeMeters>
            <DistanceMeters>85473.976931908</DistanceMeters>
          </Trackpoint>
          <Trackpoint>
            <Time>2021-10-09T10:30:46.000Z</Time>
            <Position>
              <LatitudeDegrees>39.4299294613301753997802734375</LatitudeDegrees>
              <LongitudeDegrees>-0.53127796389162540435791015625</LongitudeDegrees>
            </Position>
            <AltitudeMeters>97</AltitudeMeters>
            <DistanceMeters>85495.066226707</DistanceMeters>
          </Trackpoint>
          <Trackpoint>
            <Time>2021-10-09T10:30:49.000Z</Time>
            <Position>
              <LatitudeDegrees>39.43018150515854358673095703125</LatitudeDegrees>
              <LongitudeDegrees>-0.5310921370983123779296875</LongitudeDegrees>
            </Position>
            <AltitudeMeters>96.40000152587890625</AltitudeMeters>
            <DistanceMeters>85527.349306527</DistanceMeters>
          </Trackpoint>
          <Trackpoint>
            <Time>2021-10-09T10:30:50.000Z</Time>
            <Position>
              <LatitudeDegrees>39.43026063032448291778564453125</LatitudeDegrees>
              <LongitudeDegrees>-0.5310158617794513702392578125</LongitudeDegrees>
            </Position>
            <AltitudeMeters>96.1999969482421875</AltitudeMeters>
            <DistanceMeters>85538.329313385</DistanceMeters>
          </Trackpoint>
          <Trackpoint>
            <Time>2021-10-09T10:30:51.000Z</Time>
            <Position>
              <LatitudeDegrees>39.43033330142498016357421875</LatitudeDegrees>
              <LongitudeDegrees>-0.53092910908162593841552734375</LongitudeDegrees>
            </Position>
            <AltitudeMeters>96</AltitudeMeters>
            <DistanceMeters>85549.331913297</DistanceMeters>
          </Trackpoint>
          <Trackpoint>
            <Time>2021-10-09T10:30:53.000Z</Time>
            <Position>
              <LatitudeDegrees>39.43046112544834613800048828125</LatitudeDegrees>
              <LongitudeDegrees>-0.53073565475642681121826171875</LongitudeDegrees>
            </Position>
            <AltitudeMeters>95.1999969482421875</AltitudeMeters>
            <DistanceMeters>85571.217784878</DistanceMeters>
          </Trackpoint>
          <Trackpoint>
            <Time>2021-10-09T10:30:55.000Z</Time>
            <Position>
              <LatitudeDegrees>39.43056573159992694854736328125</LatitudeDegrees>
              <LongitudeDegrees>-0.53051638416945934295654296875</LongitudeDegrees>
            </Position>
            <AltitudeMeters>94.59999847412109375</AltitudeMeters>
            <DistanceMeters>85593.374094267</DistanceMeters>
          </Trackpoint>
          <Trackpoint>
            <Time>2021-10-09T10:30:57.000Z</Time>
            <Position>
              <LatitudeDegrees>39.43064636550843715667724609375</LatitudeDegrees>
              <LongitudeDegrees>-0.53026375360786914825439453125</LongitudeDegrees>
            </Position>
            <AltitudeMeters>94</AltitudeMeters>
            <DistanceMeters>85616.87356862</DistanceMeters>
          </Trackpoint>
          <Trackpoint>
            <Time>2021-10-09T10:30:59.000Z</Time>
            <Position>
              <LatitudeDegrees>39.4307113252580165863037109375</LatitudeDegrees>
              <LongitudeDegrees>-0.529982037842273712158203125</LongitudeDegrees>
            </Position>
            <AltitudeMeters>93.1999969482421875</AltitudeMeters>
            <DistanceMeters>85642.148531092</DistanceMeters>
          </Trackpoint>
          <Trackpoint>
            <Time>2021-10-09T10:31:00.000Z</Time>
            <Position>
              <LatitudeDegrees>39.43074770271778106689453125</LatitudeDegrees>
              <LongitudeDegrees>-0.52983996458351612091064453125</LongitudeDegrees>
            </Position>
            <AltitudeMeters>92.40000152587890625</AltitudeMeters>
            <DistanceMeters>85655.016144766</DistanceMeters>
          </Trackpoint>
          <Trackpoint>
            <Time>2021-10-09T10:31:02.000Z</Time>
            <Position>
              <LatitudeDegrees>39.43084686063230037689208984375</LatitudeDegrees>
              <LongitudeDegrees>-0.52956989966332912445068359375</LongitudeDegrees>
            </Position>
            <AltitudeMeters>91.8000030517578125</AltitudeMeters>
            <DistanceMeters>85680.723110445</DistanceMeters>
          </Trackpoint>
          <Trackpoint>
            <Time>2021-10-09T10:31:03.000Z</Time>
            <Position>
              <LatitudeDegrees>39.43091131746768951416015625</LatitudeDegrees>
              <LongitudeDegrees>-0.529446266591548919677734375</LongitudeDegrees>
            </Position>
            <AltitudeMeters>90.59999847412109375</AltitudeMeters>
            <DistanceMeters>85693.546788627</DistanceMeters>
          </Trackpoint>
          <Trackpoint>
            <Time>2021-10-09T10:31:05.000Z</Time>
            <Position>
              <LatitudeDegrees>39.4310580007731914520263671875</LatitudeDegrees>
              <LongitudeDegrees>-0.52923001348972320556640625</LongitudeDegrees>
            </Position>
            <AltitudeMeters>89.1999969482421875</AltitudeMeters>
            <DistanceMeters>85718.288796272</DistanceMeters>
          </Trackpoint>
          <Trackpoint>
            <Time>2021-10-09T10:31:07.000Z</Time>
            <Position>
              <LatitudeDegrees>39.43120761774480342864990234375</LatitudeDegrees>
              <LongitudeDegrees>-0.52905499935150146484375</LongitudeDegrees>
            </Position>
            <AltitudeMeters>88.40000152587890625</AltitudeMeters>
            <DistanceMeters>85740.731603669</DistanceMeters>
          </Trackpoint>
          <Trackpoint>
            <Time>2021-10-09T10:31:09.000Z</Time>
            <Position>
              <LatitudeDegrees>39.43137324415147304534912109375</LatitudeDegrees>
              <LongitudeDegrees>-0.52895248867571353912353515625</LongitudeDegrees>
            </Position>
            <AltitudeMeters>88.1999969482421875</AltitudeMeters>
            <DistanceMeters>85761.164336093</DistanceMeters>
          </Trackpoint>
          <Trackpoint>
            <Time>2021-10-09T10:31:10.000Z</Time>
            <Position>
              <LatitudeDegrees>39.431457482278347015380859375</LatitudeDegrees>
              <LongitudeDegrees>-0.528909154236316680908203125</LongitudeDegrees>
            </Position>
            <AltitudeMeters>88.1999969482421875</AltitudeMeters>
            <DistanceMeters>85771.253291524</DistanceMeters>
          </Trackpoint>
          <Trackpoint>
            <Time>2021-10-09T10:31:13.000Z</Time>
            <Position>
              <LatitudeDegrees>39.4316926784813404083251953125</LatitudeDegrees>
              <LongitudeDegrees>-0.5287973396480083465576171875</LongitudeDegrees>
            </Position>
            <AltitudeMeters>88.1999969482421875</AltitudeMeters>
            <DistanceMeters>85799.140030009</DistanceMeters>
          </Trackpoint>
          <Trackpoint>
            <Time>2021-10-09T10:31:14.000Z</Time>
            <Position>
              <LatitudeDegrees>39.4317600689828395843505859375</LatitudeDegrees>
              <LongitudeDegrees>-0.52874914370477199554443359375</LongitudeDegrees>
            </Position>
            <AltitudeMeters>88.40000152587890625</AltitudeMeters>
            <DistanceMeters>85807.709311288</DistanceMeters>
          </Trackpoint>
          <Trackpoint>
            <Time>2021-10-09T10:31:17.000Z</Time>
            <Position>
              <LatitudeDegrees>39.431940615177154541015625</LatitudeDegrees>
              <LongitudeDegrees>-0.52858049981296062469482421875</LongitudeDegrees>
            </Position>
            <AltitudeMeters>89.59999847412109375</AltitudeMeters>
            <DistanceMeters>85832.488153427</DistanceMeters>
          </Trackpoint>
          <Trackpoint>
            <Time>2021-10-09T10:31:19.000Z</Time>
            <Position>
              <LatitudeDegrees>39.43204723298549652099609375</LatitudeDegrees>
              <LongitudeDegrees>-0.528453178703784942626953125</LongitudeDegrees>
            </Position>
            <AltitudeMeters>90</AltitudeMeters>
            <DistanceMeters>85848.632070743</DistanceMeters>
          </Trackpoint>
          <Trackpoint>
            <Time>2021-10-09T10:31:21.000Z</Time>
            <Position>
              <LatitudeDegrees>39.4321516714990139007568359375</LatitudeDegrees>
              <LongitudeDegrees>-0.5283242650330066680908203125</LongitudeDegrees>
            </Position>
            <AltitudeMeters>90.40000152587890625</AltitudeMeters>
            <DistanceMeters>85864.692428882</DistanceMeters>
          </Trackpoint>
          <Trackpoint>
            <Time>2021-10-09T10:31:22.000Z</Time>
            <Position>
              <LatitudeDegrees>39.43220104090869426727294921875</LatitudeDegrees>
              <LongitudeDegrees>-0.5282535217702388763427734375</LongitudeDegrees>
            </Position>
            <AltitudeMeters>90.59999847412109375</AltitudeMeters>
            <DistanceMeters>85872.88899943</DistanceMeters>
          </Trackpoint>
          <Trackpoint>
            <Time>2021-10-09T10:31:25.000Z</Time>
            <Position>
              <LatitudeDegrees>39.432360716164112091064453125</LatitudeDegrees>
              <LongitudeDegrees>-0.52804422564804553985595703125</LongitudeDegrees>
            </Position>
            <AltitudeMeters>91</AltitudeMeters>
            <DistanceMeters>85898.179141471</DistanceMeters>
          </Trackpoint>
          <Trackpoint>
            <Time>2021-10-09T10:31:32.000Z</Time>
            <Position>
              <LatitudeDegrees>39.43277788348495960235595703125</LatitudeDegrees>
              <LongitudeDegrees>-0.52756796590983867645263671875</LongitudeDegrees>
            </Position>
            <AltitudeMeters>91</AltitudeMeters>
            <DistanceMeters>85960.083630655</DistanceMeters>
          </Trackpoint>
          <Trackpoint>
            <Time>2021-10-09T10:31:39.000Z</Time>
            <Position>
              <LatitudeDegrees>39.4332446716725826263427734375</LatitudeDegrees>
              <LongitudeDegrees>-0.5271772854030132293701171875</LongitudeDegrees>
            </Position>
            <AltitudeMeters>90.40000152587890625</AltitudeMeters>
            <DistanceMeters>86021.948357192</DistanceMeters>
          </Trackpoint>
          <Trackpoint>
            <Time>2021-10-09T10:31:42.000Z</Time>
            <Position>
              <LatitudeDegrees>39.43343795835971832275390625</LatitudeDegrees>
              <LongitudeDegrees>-0.5270354636013507843017578125</LongitudeDegrees>
            </Position>
            <AltitudeMeters>90.1999969482421875</AltitudeMeters>
            <DistanceMeters>86046.676126932</DistanceMeters>
          </Trackpoint>
          <Trackpoint>
            <Time>2021-10-09T10:31:47.000Z</Time>
            <Position>
              <LatitudeDegrees>39.4337604939937591552734375</LatitudeDegrees>
              <LongitudeDegrees>-0.52679465152323246002197265625</LongitudeDegrees>
            </Position>
            <AltitudeMeters>90</AltitudeMeters>
            <DistanceMeters>86088.116055715</DistanceMeters>
          </Trackpoint>
          <Trackpoint>
            <Time>2021-10-09T10:31:51.000Z</Time>
            <Position>
              <LatitudeDegrees>39.43403919227421283721923828125</LatitudeDegrees>
              <LongitudeDegrees>-0.52657605148851871490478515625</LongitudeDegrees>
            </Position>
            <AltitudeMeters>89.8000030517578125</AltitudeMeters>
            <DistanceMeters>86124.383907252</DistanceMeters>
          </Trackpoint>
          <Trackpoint>
            <Time>2021-10-09T10:31:53.000Z</Time>
            <Position>
              <LatitudeDegrees>39.43417347036302089691162109375</LatitudeDegrees>
              <LongitudeDegrees>-0.5264520831406116485595703125</LongitudeDegrees>
            </Position>
            <AltitudeMeters>89.59999847412109375</AltitudeMeters>
            <DistanceMeters>86142.739566115</DistanceMeters>
          </Trackpoint>
          <Trackpoint>
            <Time>2021-10-09T10:31:54.000Z</Time>
            <Position>
              <LatitudeDegrees>39.434237591922283172607421875</LatitudeDegrees>
              <LongitudeDegrees>-0.526386201381683349609375</LongitudeDegrees>
            </Position>
            <AltitudeMeters>89.1999969482421875</AltitudeMeters>
            <DistanceMeters>86151.850244612</DistanceMeters>
          </Trackpoint>
          <Trackpoint>
            <Time>2021-10-09T10:31:59.000Z</Time>
            <Position>
              <LatitudeDegrees>39.43455736152827739715576171875</LatitudeDegrees>
              <LongitudeDegrees>-0.5260497517883777618408203125</LongitudeDegrees>
            </Position>
            <AltitudeMeters>88.59999847412109375</AltitudeMeters>
            <DistanceMeters>86197.711440464</DistanceMeters>
          </Trackpoint>
          <Trackpoint>
            <Time>2021-10-09T10:32:03.000Z</Time>
            <Position>
              <LatitudeDegrees>39.43480328656733036041259765625</LatitudeDegrees>
              <LongitudeDegrees>-0.52576937712728977203369140625</LongitudeDegrees>
            </Position>
            <AltitudeMeters>88.40000152587890625</AltitudeMeters>
            <DistanceMeters>86234.182391373</DistanceMeters>
          </Trackpoint>
          <Trackpoint>
            <Time>2021-10-09T10:32:05.000Z</Time>
            <Position>
              <LatitudeDegrees>39.43491996265947818756103515625</LatitudeDegrees>
              <LongitudeDegrees>-0.525632165372371673583984375</LongitudeDegrees>
            </Position>
            <AltitudeMeters>88.1999969482421875</AltitudeMeters>
            <DistanceMeters>86251.725568547</DistanceMeters>
          </Trackpoint>
          <Trackpoint>
            <Time>2021-10-09T10:32:11.000Z</Time>
            <Position>
              <LatitudeDegrees>39.43525792099535465240478515625</LatitudeDegrees>
              <LongitudeDegrees>-0.52517719566822052001953125</LongitudeDegrees>
            </Position>
            <AltitudeMeters>87.8000030517578125</AltitudeMeters>
            <DistanceMeters>86305.989483604</DistanceMeters>
          </Trackpoint>
          <Trackpoint>
            <Time>2021-10-09T10:32:15.000Z</Time>
            <Position>
              <LatitudeDegrees>39.4354792870581150054931640625</LatitudeDegrees>
              <LongitudeDegrees>-0.524856336414813995361328125</LongitudeDegrees>
            </Position>
            <AltitudeMeters>87.40000152587890625</AltitudeMeters>
            <DistanceMeters>86342.973680625</DistanceMeters>
          </Trackpoint>
          <Trackpoint>
            <Time>2021-10-09T10:32:19.000Z</Time>
            <Position>
              <LatitudeDegrees>39.43569612689316272735595703125</LatitudeDegrees>
              <LongitudeDegrees>-0.524536482989788055419921875</LongitudeDegrees>
            </Position>
            <AltitudeMeters>87.40000152587890625</AltitudeMeters>
            <DistanceMeters>86379.558842246</DistanceMeters>
          </Trackpoint>
          <Trackpoint>
            <Time>2021-10-09T10:32:20.000Z</Time>
            <Position>
              <LatitudeDegrees>39.4357505254447460174560546875</LatitudeDegrees>
              <LongitudeDegrees>-0.52446448244154453277587890625</LongitudeDegrees>
            </Position>
            <AltitudeMeters>87.40000152587890625</AltitudeMeters>
            <DistanceMeters>86388.217230932</DistanceMeters>
          </Trackpoint>
          <Trackpoint>
            <Time>2021-10-09T10:32:23.000Z</Time>
            <Position>
              <LatitudeDegrees>39.43593107163906097412109375</LatitudeDegrees>
              <LongitudeDegrees>-0.52428376860916614532470703125</LongitudeDegrees>
            </Position>
            <AltitudeMeters>87.1999969482421875</AltitudeMeters>
            <DistanceMeters>86413.616931353</DistanceMeters>
          </Trackpoint>
          <Trackpoint>
            <Time>2021-10-09T10:32:25.000Z</Time>
            <Position>
              <LatitudeDegrees>39.4360673613846302032470703125</LatitudeDegrees>
              <LongitudeDegrees>-0.5241854488849639892578125</LongitudeDegrees>
            </Position>
            <AltitudeMeters>87.1999969482421875</AltitudeMeters>
            <DistanceMeters>86430.982137162</DistanceMeters>
          </Trackpoint>
          <Trackpoint>
            <Time>2021-10-09T10:32:29.000Z</Time>
            <Position>
              <LatitudeDegrees>39.4363600574433803558349609375</LatitudeDegrees>
              <LongitudeDegrees>-0.523993335664272308349609375</LongitudeDegrees>
            </Position>
            <AltitudeMeters>87.1999969482421875</AltitudeMeters>
            <DistanceMeters>86467.50652974</DistanceMeters>
          </Trackpoint>
          <Trackpoint>
            <Time>2021-10-09T10:32:30.000Z</Time>
            <Position>
              <LatitudeDegrees>39.43643859587609767913818359375</LatitudeDegrees>
              <LongitudeDegrees>-0.5239636637270450592041015625</LongitudeDegrees>
            </Position>
            <AltitudeMeters>87.1999969482421875</AltitudeMeters>
            <DistanceMeters>86476.612746956</DistanceMeters>
          </Trackpoint>
          <Trackpoint>
            <Time>2021-10-09T10:32:31.000Z</Time>
            <Position>
              <LatitudeDegrees>39.43650280125439167022705078125</LatitudeDegrees>
              <LongitudeDegrees>-0.52394581027328968048095703125</LongitudeDegrees>
            </Position>
            <AltitudeMeters>87.1999969482421875</AltitudeMeters>
            <DistanceMeters>86483.921777825</DistanceMeters>
          </Trackpoint>
          <Trackpoint>
            <Time>2021-10-09T10:32:37.000Z</Time>
            <Position>
              <LatitudeDegrees>39.4369940645992755889892578125</LatitudeDegrees>
              <LongitudeDegrees>-0.52380784414708614349365234375</LongitudeDegrees>
            </Position>
            <AltitudeMeters>87</AltitudeMeters>
            <DistanceMeters>86539.871777113</DistanceMeters>
          </Trackpoint>
          <Trackpoint>
            <Time>2021-10-09T10:32:39.000Z</Time>
            <Position>
              <LatitudeDegrees>39.437139742076396942138671875</LatitudeDegrees>
              <LongitudeDegrees>-0.523745231330394744873046875</LongitudeDegrees>
            </Position>
            <AltitudeMeters>86.8000030517578125</AltitudeMeters>
            <DistanceMeters>86556.955984172</DistanceMeters>
          </Trackpoint>
          <Trackpoint>
            <Time>2021-10-09T10:32:41.000Z</Time>
            <Position>
              <LatitudeDegrees>39.437283240258693695068359375</LatitudeDegrees>
              <LongitudeDegrees>-0.52366786636412143707275390625</LongitudeDegrees>
            </Position>
            <AltitudeMeters>86.8000030517578125</AltitudeMeters>
            <DistanceMeters>86574.257110551</DistanceMeters>
          </Trackpoint>
          <Trackpoint>
            <Time>2021-10-09T10:32:44.000Z</Time>
            <Position>
              <LatitudeDegrees>39.43747200071811676025390625</LatitudeDegrees>
              <LongitudeDegrees>-0.52352093160152435302734375</LongitudeDegrees>
            </Position>
            <AltitudeMeters>86.59999847412109375</AltitudeMeters>
            <DistanceMeters>86598.771056116</DistanceMeters>
          </Trackpoint>
          <Trackpoint>
            <Time>2021-10-09T10:32:45.000Z</Time>
            <Position>
              <LatitudeDegrees>39.4375398941338062286376953125</LatitudeDegrees>
              <LongitudeDegrees>-0.52346820943057537078857421875</LongitudeDegrees>
            </Position>
            <AltitudeMeters>86.40000152587890625</AltitudeMeters>
            <DistanceMeters>86607.582446317</DistanceMeters>
          </Trackpoint>
          <Trackpoint>
            <Time>2021-10-09T10:32:50.000Z</Time>
            <Position>
              <LatitudeDegrees>39.43788640201091766357421875</LatitudeDegrees>
              <LongitudeDegrees>-0.5232414789497852325439453125</LongitudeDegrees>
            </Position>
            <AltitudeMeters>86.40000152587890625</AltitudeMeters>
            <DistanceMeters>86650.794427611</DistanceMeters>
          </Trackpoint>
          <Trackpoint>
            <Time>2021-10-09T10:32:52.000Z</Time>
            <Position>
              <LatitudeDegrees>39.4380039162933826446533203125</LatitudeDegrees>
              <LongitudeDegrees>-0.523112230002880096435546875</LongitudeDegrees>
            </Position>
            <AltitudeMeters>86.40000152587890625</AltitudeMeters>
            <DistanceMeters>86667.955894425</DistanceMeters>
          </Trackpoint>
          <Trackpoint>
            <Time>2021-10-09T10:32:53.000Z</Time>
            <Position>
              <LatitudeDegrees>39.43804708309471607208251953125</LatitudeDegrees>
              <LongitudeDegrees>-0.5230453424155712127685546875</LongitudeDegrees>
            </Position>
            <AltitudeMeters>86.40000152587890625</AltitudeMeters>
            <DistanceMeters>86675.44915909</DistanceMeters>
          </Trackpoint>
          <Trackpoint>
            <Time>2021-10-09T10:32:54.000Z</Time>
            <Position>
              <LatitudeDegrees>39.43808932788670063018798828125</LatitudeDegrees>
              <LongitudeDegrees>-0.52297820337116718292236328125</LongitudeDegrees>
            </Position>
            <AltitudeMeters>86.59999847412109375</AltitudeMeters>
            <DistanceMeters>86682.894064006</DistanceMeters>
          </Trackpoint>
          <Trackpoint>
            <Time>2021-10-09T10:32:57.000Z</Time>
            <Position>
              <LatitudeDegrees>39.43819594569504261016845703125</LatitudeDegrees>
              <LongitudeDegrees>-0.5227969028055667877197265625</LongitudeDegrees>
            </Position>
            <AltitudeMeters>86.59999847412109375</AltitudeMeters>
            <DistanceMeters>86702.482248664</DistanceMeters>
          </Trackpoint>
          <Trackpoint>
            <Time>2021-10-09T10:32:58.000Z</Time>
            <Position>
              <LatitudeDegrees>39.43821991793811321258544921875</LatitudeDegrees>
              <LongitudeDegrees>-0.52274703048169612884521484375</LongitudeDegrees>
            </Position>
            <AltitudeMeters>86.59999847412109375</AltitudeMeters>
            <DistanceMeters>86707.532093798</DistanceMeters>
          </Trackpoint>
          <Trackpoint>
            <Time>2021-10-09T10:32:59.000Z</Time>
            <Position>
              <LatitudeDegrees>39.43825428374111652374267578125</LatitudeDegrees>
              <LongitudeDegrees>-0.52268517203629016876220703125</LongitudeDegrees>
            </Position>
            <AltitudeMeters>86.59999847412109375</AltitudeMeters>
            <DistanceMeters>86714.082047476</DistanceMeters>
          </Trackpoint>
          <Trackpoint>
            <Time>2021-10-09T10:33:03.000Z</Time>
            <Position>
              <LatitudeDegrees>39.4384436309337615966796875</LatitudeDegrees>
              <LongitudeDegrees>-0.52242617122828960418701171875</LongitudeDegrees>
            </Position>
            <AltitudeMeters>86.59999847412109375</AltitudeMeters>
            <DistanceMeters>86744.738142723</DistanceMeters>
          </Trackpoint>
          <Trackpoint>
            <Time>2021-10-09T10:33:10.000Z</Time>
            <Position>
              <LatitudeDegrees>39.43880463950335979461669921875</LatitudeDegrees>
              <LongitudeDegrees>-0.5220039747655391693115234375</LongitudeDegrees>
            </Position>
            <AltitudeMeters>86</AltitudeMeters>
            <DistanceMeters>86798.882359934</DistanceMeters>
          </Trackpoint>
          <Trackpoint>
            <Time>2021-10-09T10:33:14.000Z</Time>
            <Position>
              <LatitudeDegrees>39.4390023685991764068603515625</LatitudeDegrees>
              <LongitudeDegrees>-0.52176048047840595245361328125</LongitudeDegrees>
            </Position>
            <AltitudeMeters>86.1999969482421875</AltitudeMeters>
            <DistanceMeters>86829.253766039</DistanceMeters>
          </Trackpoint>
          <Trackpoint>
            <Time>2021-10-09T10:33:18.000Z</Time>
            <Position>
              <LatitudeDegrees>39.4391917996108531951904296875</LatitudeDegrees>
              <LongitudeDegrees>-0.521541126072406768798828125</LongitudeDegrees>
            </Position>
            <AltitudeMeters>86.40000152587890625</AltitudeMeters>
            <DistanceMeters>86857.539341921</DistanceMeters>
          </Trackpoint>
          <Trackpoint>
            <Time>2021-10-09T10:33:20.000Z</Time>
            <Position>
              <LatitudeDegrees>39.43930118344724178314208984375</LatitudeDegrees>
              <LongitudeDegrees>-0.52142838947474956512451171875</LongitudeDegrees>
            </Position>
            <AltitudeMeters>86.40000152587890625</AltitudeMeters>
            <DistanceMeters>86873.099948265</DistanceMeters>
          </Trackpoint>
          <Trackpoint>
            <Time>2021-10-09T10:33:25.000Z</Time>
            <Position>
              <LatitudeDegrees>39.43955783732235431671142578125</LatitudeDegrees>
              <LongitudeDegrees>-0.52118615247309207916259765625</LongitudeDegrees>
            </Position>
            <AltitudeMeters>86.59999847412109375</AltitudeMeters>
            <DistanceMeters>86908.449502836</DistanceMeters>
          </Trackpoint>
          <Trackpoint>
            <Time>2021-10-09T10:33:28.000Z</Time>
            <Position>
              <LatitudeDegrees>39.4396816380321979522705078125</LatitudeDegrees>
              <LongitudeDegrees>-0.52100795321166515350341796875</LongitudeDegrees>
            </Position>
            <AltitudeMeters>86.59999847412109375</AltitudeMeters>
            <DistanceMeters>86929.05255682</DistanceMeters>
          </Trackpoint>
          <Trackpoint>
            <Time>2021-10-09T10:33:29.000Z</Time>
            <Position>
              <LatitudeDegrees>39.439733438193798065185546875</LatitudeDegrees>
              <LongitudeDegrees>-0.52097140811383724212646484375</LongitudeDegrees>
            </Position>
            <AltitudeMeters>86.59999847412109375</AltitudeMeters>
            <DistanceMeters>86935.618345801</DistanceMeters>
          </Trackpoint>
          <Trackpoint>
            <Time>2021-10-09T10:33:30.000Z</Time>
            <Position>
              <LatitudeDegrees>39.43978884257376194000244140625</LatitudeDegrees>
              <LongitudeDegrees>-0.52095363847911357879638671875</LongitudeDegrees>
            </Position>
            <AltitudeMeters>86.8000030517578125</AltitudeMeters>
            <DistanceMeters>86941.97022596</DistanceMeters>
          </Trackpoint>
          <Trackpoint>
            <Time>2021-10-09T10:33:32.000Z</Time>
            <Position>
              <LatitudeDegrees>39.4398791156709194183349609375</LatitudeDegrees>
              <LongitudeDegrees>-0.52098163403570652008056640625</LongitudeDegrees>
            </Position>
            <AltitudeMeters>87</AltitudeMeters>
            <DistanceMeters>86952.301950581</DistanceMeters>
          </Trackpoint>
          <Trackpoint>
            <Time>2021-10-09T10:33:35.000Z</Time>
            <Position>
              <LatitudeDegrees>39.440023116767406463623046875</LatitudeDegrees>
              <LongitudeDegrees>-0.521144159138202667236328125</LongitudeDegrees>
            </Position>
            <AltitudeMeters>87.59999847412109375</AltitudeMeters>
            <DistanceMeters>86973.563527589</DistanceMeters>
          </Trackpoint>
          <Trackpoint>
            <Time>2021-10-09T10:33:37.000Z</Time>
            <Position>
              <LatitudeDegrees>39.44013811647891998291015625</LatitudeDegrees>
              <LongitudeDegrees>-0.521211214363574981689453125</LongitudeDegrees>
            </Position>
            <AltitudeMeters>87.8000030517578125</AltitudeMeters>
            <DistanceMeters>86987.601131664</DistanceMeters>
          </Trackpoint>
          <Trackpoint>
            <Time>2021-10-09T10:33:39.000Z</Time>
            <Position>
              <LatitudeDegrees>39.440259821712970733642578125</LatitudeDegrees>
              <LongitudeDegrees>-0.5212484300136566162109375</LongitudeDegrees>
            </Position>
            <AltitudeMeters>88.1999969482421875</AltitudeMeters>
            <DistanceMeters>87001.519869395</DistanceMeters>
          </Trackpoint>
          <Trackpoint>
            <Time>2021-10-09T10:33:41.000Z</Time>
            <Position>
              <LatitudeDegrees>39.44038161076605319976806640625</LatitudeDegrees>
              <LongitudeDegrees>-0.521249435842037200927734375</LongitudeDegrees>
            </Position>
            <AltitudeMeters>88.1999969482421875</AltitudeMeters>
            <DistanceMeters>87015.075755778</DistanceMeters>
          </Trackpoint>
          <Trackpoint>
            <Time>2021-10-09T10:33:42.000Z</Time>
            <Position>
              <LatitudeDegrees>39.44042871706187725067138671875</LatitudeDegrees>
              <LongitudeDegrees>-0.521229319274425506591796875</LongitudeDegrees>
            </Position>
            <AltitudeMeters>88.40000152587890625</AltitudeMeters>
            <DistanceMeters>87020.596309011</DistanceMeters>
          </Trackpoint>
          <Trackpoint>
            <Time>2021-10-09T10:33:43.000Z</Time>
            <Position>
              <LatitudeDegrees>39.4404933415353298187255859375</LatitudeDegrees>
              <LongitudeDegrees>-0.52118464373052120208740234375</LongitudeDegrees>
            </Position>
            <AltitudeMeters>88.40000152587890625</AltitudeMeters>
            <DistanceMeters>87028.750354195</DistanceMeters>
          </Trackpoint>
          <Trackpoint>
            <Time>2021-10-09T10:33:44.000Z</Time>
            <Position>
              <LatitudeDegrees>39.44054438732564449310302734375</LatitudeDegrees>
              <LongitudeDegrees>-0.5211411416530609130859375</LongitudeDegrees>
            </Position>
            <AltitudeMeters>88.40000152587890625</AltitudeMeters>
            <DistanceMeters>87035.551904137</DistanceMeters>
          </Trackpoint>
          <Trackpoint>
            <Time>2021-10-09T10:33:45.000Z</Time>
            <Position>
              <LatitudeDegrees>39.44060021080076694488525390625</LatitudeDegrees>
              <LongitudeDegrees>-0.52110065706074237823486328125</LongitudeDegrees>
            </Position>
            <AltitudeMeters>88.59999847412109375</AltitudeMeters>
            <DistanceMeters>87042.672569783</DistanceMeters>
          </Trackpoint>
          <Trackpoint>
            <Time>2021-10-09T10:33:46.000Z</Time>
            <Position>
              <LatitudeDegrees>39.4406593032181262969970703125</LatitudeDegrees>
              <LongitudeDegrees>-0.521073751151561737060546875</LongitudeDegrees>
            </Position>
            <AltitudeMeters>88.59999847412109375</AltitudeMeters>
            <DistanceMeters>87049.643930584</DistanceMeters>
          </Trackpoint>
          <Trackpoint>
            <Time>2021-10-09T10:33:47.000Z</Time>
            <Position>
              <LatitudeDegrees>39.4407223351299762725830078125</LatitudeDegrees>
              <LongitudeDegrees>-0.5210635252296924591064453125</LongitudeDegrees>
            </Position>
            <AltitudeMeters>88.59999847412109375</AltitudeMeters>
            <DistanceMeters>87056.714326838</DistanceMeters>
          </Trackpoint>
          <Trackpoint>
            <Time>2021-10-09T10:33:49.000Z</Time>
            <Position>
              <LatitudeDegrees>39.440851248800754547119140625</LatitudeDegrees>
              <LongitudeDegrees>-0.52109219133853912353515625</LongitudeDegrees>
            </Position>
            <AltitudeMeters>88.59999847412109375</AltitudeMeters>
            <DistanceMeters>87071.272345046</DistanceMeters>
          </Trackpoint>
          <Trackpoint>
            <Time>2021-10-09T10:33:51.000Z</Time>
            <Position>
              <LatitudeDegrees>39.44096088409423828125</LatitudeDegrees>
              <LongitudeDegrees>-0.52119034342467784881591796875</LongitudeDegrees>
            </Position>
            <AltitudeMeters>88.8000030517578125</AltitudeMeters>
            <DistanceMeters>87086.107473057</DistanceMeters>
          </Trackpoint>
          <Trackpoint>
            <Time>2021-10-09T10:33:52.000Z</Time>
            <Position>
              <LatitudeDegrees>39.44100086577236652374267578125</LatitudeDegrees>
              <LongitudeDegrees>-0.52126360125839710235595703125</LongitudeDegrees>
            </Position>
            <AltitudeMeters>88.8000030517578125</AltitudeMeters>
            <DistanceMeters>87093.818116565</DistanceMeters>
          </Trackpoint>
          <Trackpoint>
            <Time>2021-10-09T10:33:57.000Z</Time>
            <Position>
              <LatitudeDegrees>39.44120152853429317474365234375</LatitudeDegrees>
              <LongitudeDegrees>-0.5216467380523681640625</LongitudeDegrees>
            </Position>
            <AltitudeMeters>89.59999847412109375</AltitudeMeters>
            <DistanceMeters>87133.610148987</DistanceMeters>
          </Trackpoint>
          <Trackpoint>
            <Time>2021-10-09T10:33:59.000Z</Time>
            <Position>
              <LatitudeDegrees>39.44130898453295230865478515625</LatitudeDegrees>
              <LongitudeDegrees>-0.5217404477298259735107421875</LongitudeDegrees>
            </Position>
            <AltitudeMeters>89.59999847412109375</AltitudeMeters>
            <DistanceMeters>87148.029807104</DistanceMeters>
          </Trackpoint>
          <Trackpoint>
            <Time>2021-10-09T10:34:00.000Z</Time>
            <Position>
              <LatitudeDegrees>39.441353492438793182373046875</LatitudeDegrees>
              <LongitudeDegrees>-0.5217652581632137298583984375</LongitudeDegrees>
            </Position>
            <AltitudeMeters>89.8000030517578125</AltitudeMeters>
            <DistanceMeters>87153.422102176</DistanceMeters>
          </Trackpoint>
          <Trackpoint>
            <Time>2021-10-09T10:34:05.000Z</Time>
            <Position>
              <LatitudeDegrees>39.4416181929409503936767578125</LatitudeDegrees>
              <LongitudeDegrees>-0.5218913219869136810302734375</LongitudeDegrees>
            </Position>
            <AltitudeMeters>90.59999847412109375</AltitudeMeters>
            <DistanceMeters>87184.813440504</DistanceMeters>
          </Trackpoint>
          <Trackpoint>
            <Time>2021-10-09T10:34:07.000Z</Time>
            <Position>
              <LatitudeDegrees>39.4417224638164043426513671875</LatitudeDegrees>
              <LongitudeDegrees>-0.52193800918757915496826171875</LongitudeDegrees>
            </Position>
            <AltitudeMeters>91.40000152587890625</AltitudeMeters>
            <DistanceMeters>87197.093230671</DistanceMeters>
          </Trackpoint>
          <Trackpoint>
            <Time>2021-10-09T10:34:08.000Z</Time>
            <Position>
              <LatitudeDegrees>39.44177719764411449432373046875</LatitudeDegrees>
              <LongitudeDegrees>-0.5219618976116180419921875</LongitudeDegrees>
            </Position>
            <AltitudeMeters>92.1999969482421875</AltitudeMeters>
            <DistanceMeters>87203.522123257</DistanceMeters>
          </Trackpoint>
          <Trackpoint>
            <Time>2021-10-09T10:34:09.000Z</Time>
            <Position>
              <LatitudeDegrees>39.441827237606048583984375</LatitudeDegrees>
              <LongitudeDegrees>-0.5219865404069423675537109375</LongitudeDegrees>
            </Position>
            <AltitudeMeters>92.59999847412109375</AltitudeMeters>
            <DistanceMeters>87209.480836254</DistanceMeters>
          </Trackpoint>
          <Trackpoint>
            <Time>2021-10-09T10:34:10.000Z</Time>
            <Position>
              <LatitudeDegrees>39.44187794812023639678955078125</LatitudeDegrees>
              <LongitudeDegrees>-0.52201009355485439300537109375</LongitudeDegrees>
            </Position>
            <AltitudeMeters>93.1999969482421875</AltitudeMeters>
            <DistanceMeters>87215.477315587</DistanceMeters>
          </Trackpoint>
          <Trackpoint>
            <Time>2021-10-09T10:34:12.000Z</Time>
            <Position>
              <LatitudeDegrees>39.44197568111121654510498046875</LatitudeDegrees>
              <LongitudeDegrees>-0.52205736748874187469482421875</LongitudeDegrees>
            </Position>
            <AltitudeMeters>93.8000030517578125</AltitudeMeters>
            <DistanceMeters>87227.089253473</DistanceMeters>
          </Trackpoint>
          <Trackpoint>
            <Time>2021-10-09T10:34:16.000Z</Time>
            <Position>
              <LatitudeDegrees>39.44217617623507976531982421875</LatitudeDegrees>
              <LongitudeDegrees>-0.52214688621461391448974609375</LongitudeDegrees>
            </Position>
            <AltitudeMeters>94.8000030517578125</AltitudeMeters>
            <DistanceMeters>87250.694164761</DistanceMeters>
          </Trackpoint>
          <Trackpoint>
            <Time>2021-10-09T10:34:17.000Z</Time>
            <Position>
              <LatitudeDegrees>39.44222596473991870880126953125</LatitudeDegrees>
              <LongitudeDegrees>-0.52217152900993824005126953125</LongitudeDegrees>
            </Position>
            <AltitudeMeters>95</AltitudeMeters>
            <DistanceMeters>87256.627059331</DistanceMeters>
          </Trackpoint>
          <Trackpoint>
            <Time>2021-10-09T10:34:22.000Z</Time>
            <Position>
              <LatitudeDegrees>39.44247088395059108734130859375</LatitudeDegrees>
              <LongitudeDegrees>-0.52228082902729511260986328125</LongitudeDegrees>
            </Position>
            <AltitudeMeters>96</AltitudeMeters>
            <DistanceMeters>87285.46042573</DistanceMeters>
          </Trackpoint>
          <Trackpoint>
            <Time>2021-10-09T10:34:23.000Z</Time>
            <Position>
              <LatitudeDegrees>39.44251866079866886138916015625</LatitudeDegrees>
              <LongitudeDegrees>-0.5223037116229534149169921875</LongitudeDegrees>
            </Position>
            <AltitudeMeters>96.40000152587890625</AltitudeMeters>
            <DistanceMeters>87291.13026454</DistanceMeters>
          </Trackpoint>
          <Trackpoint>
            <Time>2021-10-09T10:34:26.000Z</Time>
            <Position>
              <LatitudeDegrees>39.442669786512851715087890625</LatitudeDegrees>
              <LongitudeDegrees>-0.52237302996218204498291015625</LongitudeDegrees>
            </Position>
            <AltitudeMeters>97.1999969482421875</AltitudeMeters>
            <DistanceMeters>87308.975056938</DistanceMeters>
          </Trackpoint>
          <Trackpoint>
            <Time>2021-10-09T10:34:33.000Z</Time>
            <Position>
              <LatitudeDegrees>39.4430692680180072784423828125</LatitudeDegrees>
              <LongitudeDegrees>-0.52255709655582904815673828125</LongitudeDegrees>
            </Position>
            <AltitudeMeters>97.59999847412109375</AltitudeMeters>
            <DistanceMeters>87356.169096657</DistanceMeters>
          </Trackpoint>
          <Trackpoint>
            <Time>2021-10-09T10:34:36.000Z</Time>
            <Position>
              <LatitudeDegrees>39.44326867349445819854736328125</LatitudeDegrees>
              <LongitudeDegrees>-0.522644184529781341552734375</LongitudeDegrees>
            </Position>
            <AltitudeMeters>97.40000152587890625</AltitudeMeters>
            <DistanceMeters>87379.591591492</DistanceMeters>
          </Trackpoint>
          <Trackpoint>
            <Time>2021-10-09T10:34:38.000Z</Time>
            <Position>
              <LatitudeDegrees>39.44341116584837436676025390625</LatitudeDegrees>
              <LongitudeDegrees>-0.522706210613250732421875</LongitudeDegrees>
            </Position>
            <AltitudeMeters>97.1999969482421875</AltitudeMeters>
            <DistanceMeters>87396.323310767</DistanceMeters>
          </Trackpoint>
          <Trackpoint>
            <Time>2021-10-09T10:34:42.000Z</Time>
            <Position>
              <LatitudeDegrees>39.4437061250209808349609375</LatitudeDegrees>
              <LongitudeDegrees>-0.52284711040556430816650390625</LongitudeDegrees>
            </Position>
            <AltitudeMeters>96</AltitudeMeters>
            <DistanceMeters>87431.315341939</DistanceMeters>
          </Trackpoint>
          <Trackpoint>
            <Time>2021-10-09T10:34:44.000Z</Time>
            <Position>
              <LatitudeDegrees>39.44388994015753269195556640625</LatitudeDegrees>
              <LongitudeDegrees>-0.52293528802692890167236328125</LongitudeDegrees>
            </Position>
            <AltitudeMeters>94.8000030517578125</AltitudeMeters>
            <DistanceMeters>87453.133028564</DistanceMeters>
          </Trackpoint>
          <Trackpoint>
            <Time>2021-10-09T10:34:45.000Z</Time>
            <Position>
              <LatitudeDegrees>39.44397711195051670074462890625</LatitudeDegrees>
              <LongitudeDegrees>-0.5229662172496318817138671875</LongitudeDegrees>
            </Position>
            <AltitudeMeters>94.59999847412109375</AltitudeMeters>
            <DistanceMeters>87463.192852951</DistanceMeters>
          </Trackpoint>
          <Trackpoint>
            <Time>2021-10-09T10:34:47.000Z</Time>
            <Position>
              <LatitudeDegrees>39.44416235201060771942138671875</LatitudeDegrees>
              <LongitudeDegrees>-0.52297082729637622833251953125</LongitudeDegrees>
            </Position>
            <AltitudeMeters>93.40000152587890625</AltitudeMeters>
            <DistanceMeters>87483.814306826</DistanceMeters>
          </Trackpoint>
          <Trackpoint>
            <Time>2021-10-09T10:34:49.000Z</Time>
            <Position>
              <LatitudeDegrees>39.44433040916919708251953125</LatitudeDegrees>
              <LongitudeDegrees>-0.522915087640285491943359375</LongitudeDegrees>
            </Position>
            <AltitudeMeters>92.1999969482421875</AltitudeMeters>
            <DistanceMeters>87503.123211409</DistanceMeters>
          </Trackpoint>
          <Trackpoint>
            <Time>2021-10-09T10:34:50.000Z</Time>
            <Position>
              <LatitudeDegrees>39.44441012106835842132568359375</LatitudeDegrees>
              <LongitudeDegrees>-0.5229058675467967987060546875</LongitudeDegrees>
            </Position>
            <AltitudeMeters>92</AltitudeMeters>
            <DistanceMeters>87512.030920526</DistanceMeters>
          </Trackpoint>
          <Trackpoint>
            <Time>2021-10-09T10:34:51.000Z</Time>
            <Position>
              <LatitudeDegrees>39.4444866478443145751953125</LatitudeDegrees>
              <LongitudeDegrees>-0.5229221284389495849609375</LongitudeDegrees>
            </Position>
            <AltitudeMeters>91.59999847412109375</AltitudeMeters>
            <DistanceMeters>87520.662150489</DistanceMeters>
          </Trackpoint>
          <Trackpoint>
            <Time>2021-10-09T10:34:52.000Z</Time>
            <Position>
              <LatitudeDegrees>39.44455278106033802032470703125</LatitudeDegrees>
              <LongitudeDegrees>-0.5229631997644901275634765625</LongitudeDegrees>
            </Position>
            <AltitudeMeters>91.40000152587890625</AltitudeMeters>
            <DistanceMeters>87528.825603444</DistanceMeters>
          </Trackpoint>
          <Trackpoint>
            <Time>2021-10-09T10:34:53.000Z</Time>
            <Position>
              <LatitudeDegrees>39.44460525177419185638427734375</LatitudeDegrees>
              <LongitudeDegrees>-0.52302665077149868011474609375</LongitudeDegrees>
            </Position>
            <AltitudeMeters>91.40000152587890625</AltitudeMeters>
            <DistanceMeters>87536.81689249</DistanceMeters>
          </Trackpoint>
          <Trackpoint>
            <Time>2021-10-09T10:34:55.000Z</Time>
            <Position>
              <LatitudeDegrees>39.4446671940386295318603515625</LatitudeDegrees>
              <LongitudeDegrees>-0.52318842150270938873291015625</LongitudeDegrees>
            </Position>
            <AltitudeMeters>91.1999969482421875</AltitudeMeters>
            <DistanceMeters>87552.336823516</DistanceMeters>
          </Trackpoint>
          <Trackpoint>
            <Time>2021-10-09T10:34:57.000Z</Time>
            <Position>
              <LatitudeDegrees>39.4446829520165920257568359375</LatitudeDegrees>
              <LongitudeDegrees>-0.5233628489077091217041015625</LongitudeDegrees>
            </Position>
            <AltitudeMeters>91</AltitudeMeters>
            <DistanceMeters>87567.431421518</DistanceMeters>
          </Trackpoint>
          <Trackpoint>
            <Time>2021-10-09T10:34:58.000Z</Time>
            <Position>
              <LatitudeDegrees>39.44469158537685871124267578125</LatitudeDegrees>
              <LongitudeDegrees>-0.52344976924359798431396484375</LongitudeDegrees>
            </Position>
            <AltitudeMeters>91.1999969482421875</AltitudeMeters>
            <DistanceMeters>87574.96434926</DistanceMeters>
          </Trackpoint>
          <Trackpoint>
            <Time>2021-10-09T10:34:59.000Z</Time>
            <Position>
              <LatitudeDegrees>39.44471371360123157501220703125</LatitudeDegrees>
              <LongitudeDegrees>-0.5235335044562816619873046875</LongitudeDegrees>
            </Position>
            <AltitudeMeters>91.1999969482421875</AltitudeMeters>
            <DistanceMeters>87582.570642693</DistanceMeters>
          </Trackpoint>
          <Trackpoint>
            <Time>2021-10-09T10:35:00.000Z</Time>
            <Position>
              <LatitudeDegrees>39.444750510156154632568359375</LatitudeDegrees>
              <LongitudeDegrees>-0.5236086063086986541748046875</LongitudeDegrees>
            </Position>
            <AltitudeMeters>91.1999969482421875</AltitudeMeters>
            <DistanceMeters>87590.216012849</DistanceMeters>
          </Trackpoint>
          <Trackpoint>
            <Time>2021-10-09T10:35:02.000Z</Time>
            <Position>
              <LatitudeDegrees>39.44485419429838657379150390625</LatitudeDegrees>
              <LongitudeDegrees>-0.52372402511537075042724609375</LongitudeDegrees>
            </Position>
            <AltitudeMeters>91.1999969482421875</AltitudeMeters>
            <DistanceMeters>87605.434237796</DistanceMeters>
          </Trackpoint>
          <Trackpoint>
            <Time>2021-10-09T10:35:10.000Z</Time>
            <Position>
              <LatitudeDegrees>39.4452698528766632080078125</LatitudeDegrees>
              <LongitudeDegrees>-0.52417228929698467254638671875</LongitudeDegrees>
            </Position>
            <AltitudeMeters>91.8000030517578125</AltitudeMeters>
            <DistanceMeters>87665.640467338</DistanceMeters>
          </Trackpoint>
          <Trackpoint>
            <Time>2021-10-09T10:35:15.000Z</Time>
            <Position>
              <LatitudeDegrees>39.445525668561458587646484375</LatitudeDegrees>
              <LongitudeDegrees>-0.52445760928094387054443359375</LongitudeDegrees>
            </Position>
            <AltitudeMeters>92</AltitudeMeters>
            <DistanceMeters>87703.218456829</DistanceMeters>
          </Trackpoint>
          <Trackpoint>
            <Time>2021-10-09T10:35:18.000Z</Time>
            <Position>
              <LatitudeDegrees>39.44568626582622528076171875</LatitudeDegrees>
              <LongitudeDegrees>-0.52460311912000179290771484375</LongitudeDegrees>
            </Position>
            <AltitudeMeters>92.1999969482421875</AltitudeMeters>
            <DistanceMeters>87725.034280878</DistanceMeters>
          </Trackpoint>
          <Trackpoint>
            <Time>2021-10-09T10:35:21.000Z</Time>
            <Position>
              <LatitudeDegrees>39.445833452045917510986328125</LatitudeDegrees>
              <LongitudeDegrees>-0.52475030533969402313232421875</LongitudeDegrees>
            </Position>
            <AltitudeMeters>92.1999969482421875</AltitudeMeters>
            <DistanceMeters>87745.732661173</DistanceMeters>
          </Trackpoint>
          <Trackpoint>
            <Time>2021-10-09T10:35:22.000Z</Time>
            <Position>
              <LatitudeDegrees>39.44588634185492992401123046875</LatitudeDegrees>
              <LongitudeDegrees>-0.5247958190739154815673828125</LongitudeDegrees>
            </Position>
            <AltitudeMeters>92.1999969482421875</AltitudeMeters>
            <DistanceMeters>87752.800502632</DistanceMeters>
          </Trackpoint>
          <Trackpoint>
            <Time>2021-10-09T10:35:27.000Z</Time>
            <Position>
              <LatitudeDegrees>39.44616059772670269012451171875</LatitudeDegrees>
              <LongitudeDegrees>-0.52500444464385509490966796875</LongitudeDegrees>
            </Position>
            <AltitudeMeters>92.40000152587890625</AltitudeMeters>
            <DistanceMeters>87788.202768519</DistanceMeters>
          </Trackpoint>
          <Trackpoint>
            <Time>2021-10-09T10:35:32.000Z</Time>
            <Position>
              <LatitudeDegrees>39.44641892798244953155517578125</LatitudeDegrees>
              <LongitudeDegrees>-0.52515297196805477142333984375</LongitudeDegrees>
            </Position>
            <AltitudeMeters>93</AltitudeMeters>
            <DistanceMeters>87819.661921688</DistanceMeters>
          </Trackpoint>
          <Trackpoint>
            <Time>2021-10-09T10:35:33.000Z</Time>
            <Position>
              <LatitudeDegrees>39.446465782821178436279296875</LatitudeDegrees>
              <LongitudeDegrees>-0.52517912350594997406005859375</LongitudeDegrees>
            </Position>
            <AltitudeMeters>93</AltitudeMeters>
            <DistanceMeters>87825.341308368</DistanceMeters>
          </Trackpoint>
          <Trackpoint>
            <Time>2021-10-09T10:35:36.000Z</Time>
            <Position>
              <LatitudeDegrees>39.44659880362451076507568359375</LatitudeDegrees>
              <LongitudeDegrees>-0.525237880647182464599609375</LongitudeDegrees>
            </Position>
            <AltitudeMeters>93.40000152587890625</AltitudeMeters>
            <DistanceMeters>87840.98467986</DistanceMeters>
          </Trackpoint>
          <Trackpoint>
            <Time>2021-10-09T10:35:39.000Z</Time>
            <Position>
              <LatitudeDegrees>39.446719922125339508056640625</LatitudeDegrees>
              <LongitudeDegrees>-0.52528590895235538482666015625</LongitudeDegrees>
            </Position>
            <AltitudeMeters>93.59999847412109375</AltitudeMeters>
            <DistanceMeters>87855.083262862</DistanceMeters>
          </Trackpoint>
          <Trackpoint>
            <Time>2021-10-09T10:35:47.000Z</Time>
            <Position>
              <LatitudeDegrees>39.44704120047390460968017578125</LatitudeDegrees>
              <LongitudeDegrees>-0.52540786564350128173828125</LongitudeDegrees>
            </Position>
            <AltitudeMeters>93.59999847412109375</AltitudeMeters>
            <DistanceMeters>87892.346823011</DistanceMeters>
          </Trackpoint>
          <Trackpoint>
            <Time>2021-10-09T10:35:50.000Z</Time>
            <Position>
              <LatitudeDegrees>39.44718939252197742462158203125</LatitudeDegrees>
              <LongitudeDegrees>-0.52546528168022632598876953125</LongitudeDegrees>
            </Position>
            <AltitudeMeters>93.59999847412109375</AltitudeMeters>
            <DistanceMeters>87909.563188167</DistanceMeters>
          </Trackpoint>
          <Trackpoint>
            <Time>2021-10-09T10:35:53.000Z</Time>
            <Position>
              <LatitudeDegrees>39.44734211079776287078857421875</LatitudeDegrees>
              <LongitudeDegrees>-0.52551649510860443115234375</LongitudeDegrees>
            </Position>
            <AltitudeMeters>93.59999847412109375</AltitudeMeters>
            <DistanceMeters>87927.121800582</DistanceMeters>
          </Trackpoint>
          <Trackpoint>
            <Time>2021-10-09T10:35:58.000Z</Time>
            <Position>
              <LatitudeDegrees>39.44758820347487926483154296875</LatitudeDegrees>
              <LongitudeDegrees>-0.5256195925176143646240234375</LongitudeDegrees>
            </Position>
            <AltitudeMeters>93.40000152587890625</AltitudeMeters>
            <DistanceMeters>87955.910033524</DistanceMeters>
          </Trackpoint>
          <Trackpoint>
            <Time>2021-10-09T10:35:59.000Z</Time>
            <Position>
              <LatitudeDegrees>39.4476477988064289093017578125</LatitudeDegrees>
              <LongitudeDegrees>-0.5256122164428234100341796875</LongitudeDegrees>
            </Position>
            <AltitudeMeters>93.40000152587890625</AltitudeMeters>
            <DistanceMeters>87962.57411005</DistanceMeters>
          </Trackpoint>
          <Trackpoint>
            <Time>2021-10-09T10:36:00.000Z</Time>
            <Position>
              <LatitudeDegrees>39.44769230671226978302001953125</LatitudeDegrees>
              <LongitudeDegrees>-0.5255807004868984222412109375</LongitudeDegrees>
            </Position>
            <AltitudeMeters>93.40000152587890625</AltitudeMeters>
            <DistanceMeters>87968.220008548</DistanceMeters>
          </Trackpoint>
          <Trackpoint>
            <Time>2021-10-09T10:36:02.000Z</Time>
            <Position>
              <LatitudeDegrees>39.447755925357341766357421875</LatitudeDegrees>
              <LongitudeDegrees>-0.5254771001636981964111328125</LongitudeDegrees>
            </Position>
            <AltitudeMeters>93.40000152587890625</AltitudeMeters>
            <DistanceMeters>87979.596258176</DistanceMeters>
          </Trackpoint>
          <Trackpoint>
            <Time>2021-10-09T10:36:05.000Z</Time>
            <Position>
              <LatitudeDegrees>39.44782935082912445068359375</LatitudeDegrees>
              <LongitudeDegrees>-0.52525137551128864288330078125</LongitudeDegrees>
            </Position>
            <AltitudeMeters>93.40000152587890625</AltitudeMeters>
            <DistanceMeters>88000.648053627</DistanceMeters>
          </Trackpoint>
          <Trackpoint>
            <Time>2021-10-09T10:36:07.000Z</Time>
            <Position>
              <LatitudeDegrees>39.44787436164915561676025390625</LatitudeDegrees>
              <LongitudeDegrees>-0.5251269042491912841796875</LongitudeDegrees>
            </Position>
            <AltitudeMeters>93.59999847412109375</AltitudeMeters>
            <DistanceMeters>88012.461215835</DistanceMeters>
          </Trackpoint>
          <Trackpoint>
            <Time>2021-10-09T10:36:09.000Z</Time>
            <Position>
              <LatitudeDegrees>39.44793622009456157684326171875</LatitudeDegrees>
              <LongitudeDegrees>-0.5249767005443572998046875</LongitudeDegrees>
            </Position>
            <AltitudeMeters>93.8000030517578125</AltitudeMeters>
            <DistanceMeters>88027.09224424</DistanceMeters>
          </Trackpoint>
          <Trackpoint>
            <Time>2021-10-09T10:36:12.000Z</Time>
            <Position>
              <LatitudeDegrees>39.44802355952560901641845703125</LatitudeDegrees>
              <LongitudeDegrees>-0.5247847549617290496826171875</LongitudeDegrees>
            </Position>
            <AltitudeMeters>94</AltitudeMeters>
            <DistanceMeters>88046.240539828</DistanceMeters>
          </Trackpoint>
          <Trackpoint>
            <Time>2021-10-09T10:36:15.000Z</Time>
            <Position>
              <LatitudeDegrees>39.4481225498020648956298828125</LatitudeDegrees>
              <LongitudeDegrees>-0.52457730285823345184326171875</LongitudeDegrees>
            </Position>
            <AltitudeMeters>94.8000030517578125</AltitudeMeters>
            <DistanceMeters>88067.200339899</DistanceMeters>
          </Trackpoint>
          <Trackpoint>
            <Time>2021-10-09T10:36:18.000Z</Time>
            <Position>
              <LatitudeDegrees>39.448201842606067657470703125</LatitudeDegrees>
              <LongitudeDegrees>-0.52440178580582141876220703125</LongitudeDegrees>
            </Position>
            <AltitudeMeters>95.40000152587890625</AltitudeMeters>
            <DistanceMeters>88084.677506883</DistanceMeters>
          </Trackpoint>
          <Trackpoint>
            <Time>2021-10-09T10:36:20.000Z</Time>
            <Position>
              <LatitudeDegrees>39.4482486136257648468017578125</LatitudeDegrees>
              <LongitudeDegrees>-0.524296425282955169677734375</LongitudeDegrees>
            </Position>
            <AltitudeMeters>95.59999847412109375</AltitudeMeters>
            <DistanceMeters>88095.122667657</DistanceMeters>
          </Trackpoint>
          <Trackpoint>
            <Time>2021-10-09T10:36:22.000Z</Time>
            <Position>
              <LatitudeDegrees>39.4482999108731746673583984375</LatitudeDegrees>
              <LongitudeDegrees>-0.5241827666759490966796875</LongitudeDegrees>
            </Position>
            <AltitudeMeters>96</AltitudeMeters>
            <DistanceMeters>88106.436834161</DistanceMeters>
          </Trackpoint>
          <Trackpoint>
            <Time>2021-10-09T10:36:24.000Z</Time>
            <Position>
              <LatitudeDegrees>39.4483502022922039031982421875</LatitudeDegrees>
              <LongitudeDegrees>-0.524060390889644622802734375</LongitudeDegrees>
            </Position>
            <AltitudeMeters>96.40000152587890625</AltitudeMeters>
            <DistanceMeters>88118.351228887</DistanceMeters>
          </Trackpoint>
          <Trackpoint>
            <Time>2021-10-09T10:36:26.000Z</Time>
            <Position>
              <LatitudeDegrees>39.4483951292932033538818359375</LatitudeDegrees>
              <LongitudeDegrees>-0.52396056242287158966064453125</LongitudeDegrees>
            </Position>
            <AltitudeMeters>97</AltitudeMeters>
            <DistanceMeters>88128.281861538</DistanceMeters>
          </Trackpoint>
          <Trackpoint>
            <Time>2021-10-09T10:36:27.000Z</Time>
            <Position>
              <LatitudeDegrees>39.44841650314629077911376953125</LatitudeDegrees>
              <LongitudeDegrees>-0.52390289492905139923095703125</LongitudeDegrees>
            </Position>
            <AltitudeMeters>97.40000152587890625</AltitudeMeters>
            <DistanceMeters>88133.778645669</DistanceMeters>
          </Trackpoint>
          <Trackpoint>
            <Time>2021-10-09T10:36:28.000Z</Time>
            <Position>
              <LatitudeDegrees>39.44844248704612255096435546875</LatitudeDegrees>
              <LongitudeDegrees>-0.52384589798748493194580078125</LongitudeDegrees>
            </Position>
            <AltitudeMeters>97.59999847412109375</AltitudeMeters>
            <DistanceMeters>88139.468357793</DistanceMeters>
          </Trackpoint>
          <Trackpoint>
            <Time>2021-10-09T10:36:29.000Z</Time>
            <Position>
              <LatitudeDegrees>39.448475427925586700439453125</LatitudeDegrees>
              <LongitudeDegrees>-0.52377884276211261749267578125</LongitudeDegrees>
            </Position>
            <AltitudeMeters>98</AltitudeMeters>
            <DistanceMeters>88146.299053583</DistanceMeters>
          </Trackpoint>
          <Trackpoint>
            <Time>2021-10-09T10:36:31.000Z</Time>
            <Position>
              <LatitudeDegrees>39.44851926527917385101318359375</LatitudeDegrees>
              <LongitudeDegrees>-0.52367473952472209930419921875</LongitudeDegrees>
            </Position>
            <AltitudeMeters>98.40000152587890625</AltitudeMeters>
            <DistanceMeters>88156.490419501</DistanceMeters>
          </Trackpoint>
          <Trackpoint>
            <Time>2021-10-09T10:36:33.000Z</Time>
            <Position>
              <LatitudeDegrees>39.44856503047049045562744140625</LatitudeDegrees>
              <LongitudeDegrees>-0.52355043590068817138671875</LongitudeDegrees>
            </Position>
            <AltitudeMeters>99</AltitudeMeters>
            <DistanceMeters>88168.325728782</DistanceMeters>
          </Trackpoint>
          <Trackpoint>
            <Time>2021-10-09T10:36:35.000Z</Time>
            <Position>
              <LatitudeDegrees>39.44860241375863552093505859375</LatitudeDegrees>
              <LongitudeDegrees>-0.52344826050102710723876953125</LongitudeDegrees>
            </Position>
            <AltitudeMeters>99.59999847412109375</AltitudeMeters>
            <DistanceMeters>88178.043575223</DistanceMeters>
          </Trackpoint>
          <Trackpoint>
            <Time>2021-10-09T10:36:36.000Z</Time>
            <Position>
              <LatitudeDegrees>39.448623955249786376953125</LatitudeDegrees>
              <LongitudeDegrees>-0.52339352667331695556640625</LongitudeDegrees>
            </Position>
            <AltitudeMeters>100</AltitudeMeters>
            <DistanceMeters>88183.324188451</DistanceMeters>
          </Trackpoint>
          <Trackpoint>
            <Time>2021-10-09T10:36:38.000Z</Time>
            <Position>
              <LatitudeDegrees>39.448673911392688751220703125</LatitudeDegrees>
              <LongitudeDegrees>-0.523264110088348388671875</LongitudeDegrees>
            </Position>
            <AltitudeMeters>100.59999847412109375</AltitudeMeters>
            <DistanceMeters>88195.759260989</DistanceMeters>
          </Trackpoint>
          <Trackpoint>
            <Time>2021-10-09T10:36:44.000Z</Time>
            <Position>
              <LatitudeDegrees>39.44880257360637187957763671875</LatitudeDegrees>
              <LongitudeDegrees>-0.52291366271674633026123046875</LongitudeDegrees>
            </Position>
            <AltitudeMeters>102</AltitudeMeters>
            <DistanceMeters>88229.110253419</DistanceMeters>
          </Trackpoint>
          <Trackpoint>
            <Time>2021-10-09T10:36:45.000Z</Time>
            <Position>
              <LatitudeDegrees>39.44882403127849102020263671875</LatitudeDegrees>
              <LongitudeDegrees>-0.5228528939187526702880859375</LongitudeDegrees>
            </Position>
            <AltitudeMeters>102</AltitudeMeters>
            <DistanceMeters>88234.853673067</DistanceMeters>
          </Trackpoint>
          <Trackpoint>
            <Time>2021-10-09T10:36:51.000Z</Time>
            <Position>
              <LatitudeDegrees>39.44894975982606410980224609375</LatitudeDegrees>
              <LongitudeDegrees>-0.5224995128810405731201171875</LongitudeDegrees>
            </Position>
            <AltitudeMeters>103</AltitudeMeters>
            <DistanceMeters>88268.294166584</DistanceMeters>
          </Trackpoint>
          <Trackpoint>
            <Time>2021-10-09T10:36:54.000Z</Time>
            <Position>
              <LatitudeDegrees>39.44901480339467525482177734375</LatitudeDegrees>
              <LongitudeDegrees>-0.52231393754482269287109375</LongitudeDegrees>
            </Position>
            <AltitudeMeters>103.40000152587890625</AltitudeMeters>
            <DistanceMeters>88285.809526047</DistanceMeters>
          </Trackpoint>
          <Trackpoint>
            <Time>2021-10-09T10:37:02.000Z</Time>
            <Position>
              <LatitudeDegrees>39.449215047061443328857421875</LatitudeDegrees>
              <LongitudeDegrees>-0.52173726260662078857421875</LongitudeDegrees>
            </Position>
            <AltitudeMeters>103.40000152587890625</AltitudeMeters>
            <DistanceMeters>88340.153010112</DistanceMeters>
          </Trackpoint>
          <Trackpoint>
            <Time>2021-10-09T10:37:09.000Z</Time>
            <Position>
              <LatitudeDegrees>39.4494053162634372711181640625</LatitudeDegrees>
              <LongitudeDegrees>-0.5211815424263477325439453125</LongitudeDegrees>
            </Position>
            <AltitudeMeters>102.8000030517578125</AltitudeMeters>
            <DistanceMeters>88392.399299148</DistanceMeters>
          </Trackpoint>
          <Trackpoint>
            <Time>2021-10-09T10:37:14.000Z</Time>
            <Position>
              <LatitudeDegrees>39.4495761394500732421875</LatitudeDegrees>
              <LongitudeDegrees>-0.52068022079765796661376953125</LongitudeDegrees>
            </Position>
            <AltitudeMeters>102</AltitudeMeters>
            <DistanceMeters>88439.494216665</DistanceMeters>
          </Trackpoint>
          <Trackpoint>
            <Time>2021-10-09T10:37:16.000Z</Time>
            <Position>
              <LatitudeDegrees>39.44964897818863391876220703125</LatitudeDegrees>
              <LongitudeDegrees>-0.52046581171452999114990234375</LongitudeDegrees>
            </Position>
            <AltitudeMeters>101.59999847412109375</AltitudeMeters>
            <DistanceMeters>88459.626204173</DistanceMeters>
          </Trackpoint>
          <Trackpoint>
            <Time>2021-10-09T10:37:19.000Z</Time>
            <Position>
              <LatitudeDegrees>39.44975358434021472930908203125</LatitudeDegrees>
              <LongitudeDegrees>-0.52014939486980438232421875</LongitudeDegrees>
            </Position>
            <AltitudeMeters>100.40000152587890625</AltitudeMeters>
            <DistanceMeters>88489.208220299</DistanceMeters>
          </Trackpoint>
          <Trackpoint>
            <Time>2021-10-09T10:37:21.000Z</Time>
            <Position>
              <LatitudeDegrees>39.4498403370380401611328125</LatitudeDegrees>
              <LongitudeDegrees>-0.5198903940618038177490234375</LongitudeDegrees>
            </Position>
            <AltitudeMeters>99.1999969482421875</AltitudeMeters>
            <DistanceMeters>88513.471873442</DistanceMeters>
          </Trackpoint>
          <Trackpoint>
            <Time>2021-10-09T10:37:23.000Z</Time>
            <Position>
              <LatitudeDegrees>39.44992407225072383880615234375</LatitudeDegrees>
              <LongitudeDegrees>-0.51964421756565570831298828125</LongitudeDegrees>
            </Position>
            <AltitudeMeters>98.1999969482421875</AltitudeMeters>
            <DistanceMeters>88536.591308662</DistanceMeters>
          </Trackpoint>
          <Trackpoint>
            <Time>2021-10-09T10:37:24.000Z</Time>
            <Position>
              <LatitudeDegrees>39.4499565102159976959228515625</LatitudeDegrees>
              <LongitudeDegrees>-0.5195427127182483673095703125</LongitudeDegrees>
            </Position>
            <AltitudeMeters>97.1999969482421875</AltitudeMeters>
            <DistanceMeters>88546.032967131</DistanceMeters>
          </Trackpoint>
          <Trackpoint>
            <Time>2021-10-09T10:37:26.000Z</Time>
            <Position>
              <LatitudeDegrees>39.4500483758747577667236328125</LatitudeDegrees>
              <LongitudeDegrees>-0.5192640982568264007568359375</LongitudeDegrees>
            </Position>
            <AltitudeMeters>95.8000030517578125</AltitudeMeters>
            <DistanceMeters>88572.070286869</DistanceMeters>
          </Trackpoint>
          <Trackpoint>
            <Time>2021-10-09T10:37:28.000Z</Time>
            <Position>
              <LatitudeDegrees>39.450126327574253082275390625</LatitudeDegrees>
              <LongitudeDegrees>-0.5190351046621799468994140625</LongitudeDegrees>
            </Position>
            <AltitudeMeters>94.8000030517578125</AltitudeMeters>
            <DistanceMeters>88593.578676307</DistanceMeters>
          </Trackpoint>
          <Trackpoint>
            <Time>2021-10-09T10:37:31.000Z</Time>
            <Position>
              <LatitudeDegrees>39.45026353932917118072509765625</LatitudeDegrees>
              <LongitudeDegrees>-0.5186344496905803680419921875</LongitudeDegrees>
            </Position>
            <AltitudeMeters>93.1999969482421875</AltitudeMeters>
            <DistanceMeters>88631.247630262</DistanceMeters>
          </Trackpoint>
          <Trackpoint>
            <Time>2021-10-09T10:37:33.000Z</Time>
            <Position>
              <LatitudeDegrees>39.45035062730312347412109375</LatitudeDegrees>
              <LongitudeDegrees>-0.51839397288858890533447265625</LongitudeDegrees>
            </Position>
            <AltitudeMeters>92</AltitudeMeters>
            <DistanceMeters>88654.075412709</DistanceMeters>
          </Trackpoint>
          <Trackpoint>
            <Time>2021-10-09T10:37:35.000Z</Time>
            <Position>
              <LatitudeDegrees>39.45044056512415409088134765625</LatitudeDegrees>
              <LongitudeDegrees>-0.51816380582749843597412109375</LongitudeDegrees>
            </Position>
            <AltitudeMeters>91</AltitudeMeters>
            <DistanceMeters>88676.245778538</DistanceMeters>
          </Trackpoint>
          <Trackpoint>
            <Time>2021-10-09T10:37:36.000Z</Time>
            <Position>
              <LatitudeDegrees>39.450484402477741241455078125</LatitudeDegrees>
              <LongitudeDegrees>-0.51805400289595127105712890625</LongitudeDegrees>
            </Position>
            <AltitudeMeters>90.40000152587890625</AltitudeMeters>
            <DistanceMeters>88686.869663208</DistanceMeters>
          </Trackpoint>
          <Trackpoint>
            <Time>2021-10-09T10:37:38.000Z</Time>
            <Position>
              <LatitudeDegrees>39.45056361146271228790283203125</LatitudeDegrees>
              <LongitudeDegrees>-0.5178364925086498260498046875</LongitudeDegrees>
            </Position>
            <AltitudeMeters>89.8000030517578125</AltitudeMeters>
            <DistanceMeters>88707.538137422</DistanceMeters>
          </Trackpoint>
          <Trackpoint>
            <Time>2021-10-09T10:37:39.000Z</Time>
            <Position>
              <LatitudeDegrees>39.45059739053249359130859375</LatitudeDegrees>
              <LongitudeDegrees>-0.517729036509990692138671875</LongitudeDegrees>
            </Position>
            <AltitudeMeters>89.8000030517578125</AltitudeMeters>
            <DistanceMeters>88717.509605304</DistanceMeters>
          </Trackpoint>
          <Trackpoint>
            <Time>2021-10-09T10:37:41.000Z</Time>
            <Position>
              <LatitudeDegrees>39.4506481848657131195068359375</LatitudeDegrees>
              <LongitudeDegrees>-0.51751538179814815521240234375</LongitudeDegrees>
            </Position>
            <AltitudeMeters>89.59999847412109375</AltitudeMeters>
            <DistanceMeters>88736.722869603</DistanceMeters>
          </Trackpoint>
          <Trackpoint>
            <Time>2021-10-09T10:37:48.000Z</Time>
            <Position>
              <LatitudeDegrees>39.45080199278891086578369140625</LatitudeDegrees>
              <LongitudeDegrees>-0.51681314595043659210205078125</LongitudeDegrees>
            </Position>
            <AltitudeMeters>90</AltitudeMeters>
            <DistanceMeters>88799.456912645</DistanceMeters>
          </Trackpoint>
          <Trackpoint>
            <Time>2021-10-09T10:37:49.000Z</Time>
            <Position>
              <LatitudeDegrees>39.45082428865134716033935546875</LatitudeDegrees>
              <LongitudeDegrees>-0.51671759225428104400634765625</LongitudeDegrees>
            </Position>
            <AltitudeMeters>90.1999969482421875</AltitudeMeters>
            <DistanceMeters>88808.035672638</DistanceMeters>
          </Trackpoint>
          <Trackpoint>
            <Time>2021-10-09T10:37:56.000Z</Time>
            <Position>
              <LatitudeDegrees>39.45096326060593128204345703125</LatitudeDegrees>
              <LongitudeDegrees>-0.51606765948235988616943359375</LongitudeDegrees>
            </Position>
            <AltitudeMeters>91</AltitudeMeters>
            <DistanceMeters>88865.995581011</DistanceMeters>
          </Trackpoint>
          <Trackpoint>
            <Time>2021-10-09T10:37:57.000Z</Time>
            <Position>
              <LatitudeDegrees>39.45098337717354297637939453125</LatitudeDegrees>
              <LongitudeDegrees>-0.5159763805568218231201171875</LongitudeDegrees>
            </Position>
            <AltitudeMeters>91</AltitudeMeters>
            <DistanceMeters>88874.153501297</DistanceMeters>
          </Trackpoint>
          <Trackpoint>
            <Time>2021-10-09T10:38:05.000Z</Time>
            <Position>
              <LatitudeDegrees>39.45114179514348506927490234375</LatitudeDegrees>
              <LongitudeDegrees>-0.51527322269976139068603515625</LongitudeDegrees>
            </Position>
            <AltitudeMeters>92</AltitudeMeters>
            <DistanceMeters>88937.105239065</DistanceMeters>
          </Trackpoint>
          <Trackpoint>
            <Time>2021-10-09T10:38:07.000Z</Time>
            <Position>
              <LatitudeDegrees>39.45117934606969356536865234375</LatitudeDegrees>
              <LongitudeDegrees>-0.515102483332157135009765625</LongitudeDegrees>
            </Position>
            <AltitudeMeters>92</AltitudeMeters>
            <DistanceMeters>88952.362872261</DistanceMeters>
          </Trackpoint>
          <Trackpoint>
            <Time>2021-10-09T10:38:13.000Z</Time>
            <Position>
              <LatitudeDegrees>39.4512895680963993072509765625</LatitudeDegrees>
              <LongitudeDegrees>-0.51461457274854183197021484375</LongitudeDegrees>
            </Position>
            <AltitudeMeters>92.40000152587890625</AltitudeMeters>
            <DistanceMeters>88996.053361265</DistanceMeters>
          </Trackpoint>
          <Trackpoint>
            <Time>2021-10-09T10:38:21.000Z</Time>
            <Position>
              <LatitudeDegrees>39.45141680538654327392578125</LatitudeDegrees>
              <LongitudeDegrees>-0.51398408599197864532470703125</LongitudeDegrees>
            </Position>
            <AltitudeMeters>92.59999847412109375</AltitudeMeters>
            <DistanceMeters>89052.059659248</DistanceMeters>
          </Trackpoint>
          <Trackpoint>
            <Time>2021-10-09T10:38:28.000Z</Time>
            <Position>
              <LatitudeDegrees>39.451420493423938751220703125</LatitudeDegrees>
              <LongitudeDegrees>-0.5133743025362491607666015625</LongitudeDegrees>
            </Position>
            <AltitudeMeters>93</AltitudeMeters>
            <DistanceMeters>89104.468076813</DistanceMeters>
          </Trackpoint>
          <Trackpoint>
            <Time>2021-10-09T10:38:30.000Z</Time>
            <Position>
              <LatitudeDegrees>39.45140683092176914215087890625</LatitudeDegrees>
              <LongitudeDegrees>-0.51319434307515621185302734375</LongitudeDegrees>
            </Position>
            <AltitudeMeters>93.1999969482421875</AltitudeMeters>
            <DistanceMeters>89120.00893987</DistanceMeters>
          </Trackpoint>
          <Trackpoint>
            <Time>2021-10-09T10:38:36.000Z</Time>
            <Position>
              <LatitudeDegrees>39.451327286660671234130859375</LatitudeDegrees>
              <LongitudeDegrees>-0.51264231093227863311767578125</LongitudeDegrees>
            </Position>
            <AltitudeMeters>92.8000030517578125</AltitudeMeters>
            <DistanceMeters>89168.271472941</DistanceMeters>
          </Trackpoint>
          <Trackpoint>
            <Time>2021-10-09T10:38:44.000Z</Time>
            <Position>
              <LatitudeDegrees>39.45120918564498424530029296875</LatitudeDegrees>
              <LongitudeDegrees>-0.51193219609558582305908203125</LongitudeDegrees>
            </Position>
            <AltitudeMeters>92.1999969482421875</AltitudeMeters>
            <DistanceMeters>89230.700769858</DistanceMeters>
          </Trackpoint>
          <Trackpoint>
            <Time>2021-10-09T10:38:47.000Z</Time>
            <Position>
              <LatitudeDegrees>39.45116442628204822540283203125</LatitudeDegrees>
              <LongitudeDegrees>-0.51166146062314510345458984375</LongitudeDegrees>
            </Position>
            <AltitudeMeters>92.40000152587890625</AltitudeMeters>
            <DistanceMeters>89254.49599802</DistanceMeters>
          </Trackpoint>
          <Trackpoint>
            <Time>2021-10-09T10:38:48.000Z</Time>
            <Position>
              <LatitudeDegrees>39.45114833302795886993408203125</LatitudeDegrees>
              <LongitudeDegrees>-0.51156993024051189422607421875</LongitudeDegrees>
            </Position>
            <AltitudeMeters>92.1999969482421875</AltitudeMeters>
            <DistanceMeters>89262.563760473</DistanceMeters>
          </Trackpoint>
          <Trackpoint>
            <Time>2021-10-09T10:38:56.000Z</Time>
            <Position>
              <LatitudeDegrees>39.451022855937480926513671875</LatitudeDegrees>
              <LongitudeDegrees>-0.5108253657817840576171875</LongitudeDegrees>
            </Position>
            <AltitudeMeters>91.1999969482421875</AltitudeMeters>
            <DistanceMeters>89328.060677772</DistanceMeters>
          </Trackpoint>
          <Trackpoint>
            <Time>2021-10-09T10:38:58.000Z</Time>
            <Position>
              <LatitudeDegrees>39.45099427364766597747802734375</LatitudeDegrees>
              <LongitudeDegrees>-0.5106418021023273468017578125</LongitudeDegrees>
            </Position>
            <AltitudeMeters>91</AltitudeMeters>
            <DistanceMeters>89344.154174986</DistanceMeters>
          </Trackpoint>
          <Trackpoint>
            <Time>2021-10-09T10:39:02.000Z</Time>
            <Position>
              <LatitudeDegrees>39.450932331383228302001953125</LatitudeDegrees>
              <LongitudeDegrees>-0.51028850488364696502685546875</LongitudeDegrees>
            </Position>
            <AltitudeMeters>90.40000152587890625</AltitudeMeters>
            <DistanceMeters>89375.290762262</DistanceMeters>
          </Trackpoint>
          <Trackpoint>
            <Time>2021-10-09T10:39:04.000Z</Time>
            <Position>
              <LatitudeDegrees>39.45090291090309619903564453125</LatitudeDegrees>
              <LongitudeDegrees>-0.51011248491704463958740234375</LongitudeDegrees>
            </Position>
            <AltitudeMeters>90.1999969482421875</AltitudeMeters>
            <DistanceMeters>89390.768744303</DistanceMeters>
          </Trackpoint>
          <Trackpoint>
            <Time>2021-10-09T10:39:10.000Z</Time>
            <Position>
              <LatitudeDegrees>39.4508174993097782135009765625</LatitudeDegrees>
              <LongitudeDegrees>-0.50955877639353275299072265625</LongitudeDegrees>
            </Position>
            <AltitudeMeters>90</AltitudeMeters>
            <DistanceMeters>89439.296980991</DistanceMeters>
          </Trackpoint>
          <Trackpoint>
            <Time>2021-10-09T10:39:11.000Z</Time>
            <Position>
              <LatitudeDegrees>39.45080098696053028106689453125</LatitudeDegrees>
              <LongitudeDegrees>-0.50946389324963092803955078125</LongitudeDegrees>
            </Position>
            <AltitudeMeters>89.8000030517578125</AltitudeMeters>
            <DistanceMeters>89447.656631798</DistanceMeters>
          </Trackpoint>
          <Trackpoint>
            <Time>2021-10-09T10:39:13.000Z</Time>
            <Position>
              <LatitudeDegrees>39.45076896809041500091552734375</LatitudeDegrees>
              <LongitudeDegrees>-0.50926767289638519287109375</LongitudeDegrees>
            </Position>
            <AltitudeMeters>89.8000030517578125</AltitudeMeters>
            <DistanceMeters>89464.893178583</DistanceMeters>
          </Trackpoint>
          <Trackpoint>
            <Time>2021-10-09T10:39:20.000Z</Time>
            <Position>
              <LatitudeDegrees>39.4506610929965972900390625</LatitudeDegrees>
              <LongitudeDegrees>-0.50855848006904125213623046875</LongitudeDegrees>
            </Position>
            <AltitudeMeters>89.1999969482421875</AltitudeMeters>
            <DistanceMeters>89527.015507659</DistanceMeters>
          </Trackpoint>
          <Trackpoint>
            <Time>2021-10-09T10:39:21.000Z</Time>
            <Position>
              <LatitudeDegrees>39.45065162144601345062255859375</LatitudeDegrees>
              <LongitudeDegrees>-0.5084511078894138336181640625</LongitudeDegrees>
            </Position>
            <AltitudeMeters>89</AltitudeMeters>
            <DistanceMeters>89536.30288028</DistanceMeters>
          </Trackpoint>
          <Trackpoint>
            <Time>2021-10-09T10:39:25.000Z</Time>
            <Position>
              <LatitudeDegrees>39.4506622664630413055419921875</LatitudeDegrees>
              <LongitudeDegrees>-0.50802455283701419830322265625</LongitudeDegrees>
            </Position>
            <AltitudeMeters>88.8000030517578125</AltitudeMeters>
            <DistanceMeters>89572.981837994</DistanceMeters>
          </Trackpoint>
          <Trackpoint>
            <Time>2021-10-09T10:39:26.000Z</Time>
            <Position>
              <LatitudeDegrees>39.45067592896521091461181640625</LatitudeDegrees>
              <LongitudeDegrees>-0.50792279653251171112060546875</LongitudeDegrees>
            </Position>
            <AltitudeMeters>88.8000030517578125</AltitudeMeters>
            <DistanceMeters>89581.858065626</DistanceMeters>
          </Trackpoint>
          <Trackpoint>
            <Time>2021-10-09T10:39:29.000Z</Time>
            <Position>
              <LatitudeDegrees>39.45073963142931461334228515625</LatitudeDegrees>
              <LongitudeDegrees>-0.5076182819902896881103515625</LongitudeDegrees>
            </Position>
            <AltitudeMeters>87.59999847412109375</AltitudeMeters>
            <DistanceMeters>89608.972835843</DistanceMeters>
          </Trackpoint>
          <Trackpoint>
            <Time>2021-10-09T10:39:31.000Z</Time>
            <Position>
              <LatitudeDegrees>39.45079587399959564208984375</LatitudeDegrees>
              <LongitudeDegrees>-0.50741703249514102935791015625</LongitudeDegrees>
            </Position>
            <AltitudeMeters>87</AltitudeMeters>
            <DistanceMeters>89627.367072285</DistanceMeters>
          </Trackpoint>
          <Trackpoint>
            <Time>2021-10-09T10:39:34.000Z</Time>
            <Position>
              <LatitudeDegrees>39.45088111795485019683837890625</LatitudeDegrees>
              <LongitudeDegrees>-0.50711645744740962982177734375</LongitudeDegrees>
            </Position>
            <AltitudeMeters>86.59999847412109375</AltitudeMeters>
            <DistanceMeters>89654.886782516</DistanceMeters>
          </Trackpoint>
          <Trackpoint>
            <Time>2021-10-09T10:39:40.000Z</Time>
            <Position>
              <LatitudeDegrees>39.451047666370868682861328125</LatitudeDegrees>
              <LongitudeDegrees>-0.50655637867748737335205078125</LongitudeDegrees>
            </Position>
            <AltitudeMeters>86.59999847412109375</AltitudeMeters>
            <DistanceMeters>89706.468172412</DistanceMeters>
          </Trackpoint>
          <Trackpoint>
            <Time>2021-10-09T10:39:45.000Z</Time>
            <Position>
              <LatitudeDegrees>39.451110363006591796875</LatitudeDegrees>
              <LongitudeDegrees>-0.5061162449419498443603515625</LongitudeDegrees>
            </Position>
            <AltitudeMeters>86.1999969482421875</AltitudeMeters>
            <DistanceMeters>89744.93322103</DistanceMeters>
          </Trackpoint>
          <Trackpoint>
            <Time>2021-10-09T10:39:49.000Z</Time>
            <Position>
              <LatitudeDegrees>39.45107943378388881683349609375</LatitudeDegrees>
              <LongitudeDegrees>-0.5057880096137523651123046875</LongitudeDegrees>
            </Position>
            <AltitudeMeters>86.40000152587890625</AltitudeMeters>
            <DistanceMeters>89773.352246472</DistanceMeters>
          </Trackpoint>
          <Trackpoint>
            <Time>2021-10-09T10:39:50.000Z</Time>
            <Position>
              <LatitudeDegrees>39.451059401035308837890625</LatitudeDegrees>
              <LongitudeDegrees>-0.5057095550000667572021484375</LongitudeDegrees>
            </Position>
            <AltitudeMeters>86.40000152587890625</AltitudeMeters>
            <DistanceMeters>89780.45450013</DistanceMeters>
          </Trackpoint>
          <Trackpoint>
            <Time>2021-10-09T10:39:52.000Z</Time>
            <Position>
              <LatitudeDegrees>39.45100517012178897857666015625</LatitudeDegrees>
              <LongitudeDegrees>-0.50555809400975704193115234375</LongitudeDegrees>
            </Position>
            <AltitudeMeters>86.59999847412109375</AltitudeMeters>
            <DistanceMeters>89794.802589994</DistanceMeters>
          </Trackpoint>
          <Trackpoint>
            <Time>2021-10-09T10:39:55.000Z</Time>
            <Position>
              <LatitudeDegrees>39.4508899189531803131103515625</LatitudeDegrees>
              <LongitudeDegrees>-0.50534251146018505096435546875</LongitudeDegrees>
            </Position>
            <AltitudeMeters>87</AltitudeMeters>
            <DistanceMeters>89817.337750057</DistanceMeters>
          </Trackpoint>
          <Trackpoint>
            <Time>2021-10-09T10:39:57.000Z</Time>
            <Position>
              <LatitudeDegrees>39.45080417208373546600341796875</LatitudeDegrees>
              <LongitudeDegrees>-0.5052049644291400909423828125</LongitudeDegrees>
            </Position>
            <AltitudeMeters>87.8000030517578125</AltitudeMeters>
            <DistanceMeters>89832.53133009</DistanceMeters>
          </Trackpoint>
          <Trackpoint>
            <Time>2021-10-09T10:40:02.000Z</Time>
            <Position>
              <LatitudeDegrees>39.45058800280094146728515625</LatitudeDegrees>
              <LongitudeDegrees>-0.5048512481153011322021484375</LongitudeDegrees>
            </Position>
            <AltitudeMeters>88.8000030517578125</AltitudeMeters>
            <DistanceMeters>89871.300366239</DistanceMeters>
          </Trackpoint>
          <Trackpoint>
            <Time>2021-10-09T10:40:03.000Z</Time>
            <Position>
              <LatitudeDegrees>39.45054852403700351715087890625</LatitudeDegrees>
              <LongitudeDegrees>-0.50477363169193267822265625</LongitudeDegrees>
            </Position>
            <AltitudeMeters>88.8000030517578125</AltitudeMeters>
            <DistanceMeters>89879.288264596</DistanceMeters>
          </Trackpoint>
          <Trackpoint>
            <Time>2021-10-09T10:40:07.000Z</Time>
            <Position>
              <LatitudeDegrees>39.45043872110545635223388671875</LatitudeDegrees>
              <LongitudeDegrees>-0.50444179214537143707275390625</LongitudeDegrees>
            </Position>
            <AltitudeMeters>88.59999847412109375</AltitudeMeters>
            <DistanceMeters>89910.316196689</DistanceMeters>
          </Trackpoint>
          <Trackpoint>
            <Time>2021-10-09T10:40:12.000Z</Time>
            <Position>
              <LatitudeDegrees>39.4503923691809177398681640625</LatitudeDegrees>
              <LongitudeDegrees>-0.50396804697811603546142578125</LongitudeDegrees>
            </Position>
            <AltitudeMeters>87.40000152587890625</AltitudeMeters>
            <DistanceMeters>89951.357617465</DistanceMeters>
          </Trackpoint>
          <Trackpoint>
            <Time>2021-10-09T10:40:18.000Z</Time>
            <Position>
              <LatitudeDegrees>39.45043872110545635223388671875</LatitudeDegrees>
              <LongitudeDegrees>-0.503381900489330291748046875</LongitudeDegrees>
            </Position>
            <AltitudeMeters>86.8000030517578125</AltitudeMeters>
            <DistanceMeters>90001.997316997</DistanceMeters>
          </Trackpoint>
          <Trackpoint>
            <Time>2021-10-09T10:40:21.000Z</Time>
            <Position>
              <LatitudeDegrees>39.450477026402950286865234375</LatitudeDegrees>
              <LongitudeDegrees>-0.5030990950763225555419921875</LongitudeDegrees>
            </Position>
            <AltitudeMeters>86.59999847412109375</AltitudeMeters>
            <DistanceMeters>90026.673908636</DistanceMeters>
          </Trackpoint>
          <Trackpoint>
            <Time>2021-10-09T10:40:26.000Z</Time>
            <Position>
              <LatitudeDegrees>39.450548775494098663330078125</LatitudeDegrees>
              <LongitudeDegrees>-0.5026137828826904296875</LongitudeDegrees>
            </Position>
            <AltitudeMeters>86.40000152587890625</AltitudeMeters>
            <DistanceMeters>90069.141388752</DistanceMeters>
          </Trackpoint>
          <Trackpoint>
            <Time>2021-10-09T10:40:31.000Z</Time>
            <Position>
              <LatitudeDegrees>39.45060702972114086151123046875</LatitudeDegrees>
              <LongitudeDegrees>-0.5021093599498271942138671875</LongitudeDegrees>
            </Position>
            <AltitudeMeters>85.8000030517578125</AltitudeMeters>
            <DistanceMeters>90112.975802014</DistanceMeters>
          </Trackpoint>
          <Trackpoint>
            <Time>2021-10-09T10:40:35.000Z</Time>
            <Position>
              <LatitudeDegrees>39.45065799169242382049560546875</LatitudeDegrees>
              <LongitudeDegrees>-0.5016973055899143218994140625</LongitudeDegrees>
            </Position>
            <AltitudeMeters>85.59999847412109375</AltitudeMeters>
            <DistanceMeters>90148.840928519</DistanceMeters>
          </Trackpoint>
          <Trackpoint>
            <Time>2021-10-09T10:40:42.000Z</Time>
            <Position>
              <LatitudeDegrees>39.45074466057121753692626953125</LatitudeDegrees>
              <LongitudeDegrees>-0.50097151659429073333740234375</LongitudeDegrees>
            </Position>
            <AltitudeMeters>85.1999969482421875</AltitudeMeters>
            <DistanceMeters>90211.959843961</DistanceMeters>
          </Trackpoint>
          <Trackpoint>
            <Time>2021-10-09T10:40:44.000Z</Time>
            <Position>
              <LatitudeDegrees>39.4507735781371593475341796875</LatitudeDegrees>
              <LongitudeDegrees>-0.50076498650014400482177734375</LongitudeDegrees>
            </Position>
            <AltitudeMeters>85</AltitudeMeters>
            <DistanceMeters>90229.999658953</DistanceMeters>
          </Trackpoint>
          <Trackpoint>
            <Time>2021-10-09T10:40:50.000Z</Time>
            <Position>
              <LatitudeDegrees>39.45088396780192852020263671875</LatitudeDegrees>
              <LongitudeDegrees>-0.5001573823392391204833984375</LongitudeDegrees>
            </Position>
            <AltitudeMeters>84.59999847412109375</AltitudeMeters>
            <DistanceMeters>90283.645584825</DistanceMeters>
          </Trackpoint>
          <Trackpoint>
            <Time>2021-10-09T10:40:53.000Z</Time>
            <Position>
              <LatitudeDegrees>39.45093627087771892547607421875</LatitudeDegrees>
              <LongitudeDegrees>-0.49987466074526309967041015625</LongitudeDegrees>
            </Position>
            <AltitudeMeters>84.40000152587890625</AltitudeMeters>
            <DistanceMeters>90308.631286834</DistanceMeters>
          </Trackpoint>
          <Trackpoint>
            <Time>2021-10-09T10:41:01.000Z</Time>
            <Position>
              <LatitudeDegrees>39.45108094252645969390869140625</LatitudeDegrees>
              <LongitudeDegrees>-0.4991733469069004058837890625</LongitudeDegrees>
            </Position>
            <AltitudeMeters>84</AltitudeMeters>
            <DistanceMeters>90371.018695013</DistanceMeters>
          </Trackpoint>
          <Trackpoint>
            <Time>2021-10-09T10:41:02.000Z</Time>
            <Position>
              <LatitudeDegrees>39.45109904743731021881103515625</LatitudeDegrees>
              <LongitudeDegrees>-0.49908709712326526641845703125</LongitudeDegrees>
            </Position>
            <AltitudeMeters>84</AltitudeMeters>
            <DistanceMeters>90378.700004764</DistanceMeters>
          </Trackpoint>
          <Trackpoint>
            <Time>2021-10-09T10:41:09.000Z</Time>
            <Position>
              <LatitudeDegrees>39.45122041739523410797119140625</LatitudeDegrees>
              <LongitudeDegrees>-0.49844956956803798675537109375</LongitudeDegrees>
            </Position>
            <AltitudeMeters>83.8000030517578125</AltitudeMeters>
            <DistanceMeters>90435.132113346</DistanceMeters>
          </Trackpoint>
          <Trackpoint>
            <Time>2021-10-09T10:41:10.000Z</Time>
            <Position>
              <LatitudeDegrees>39.4512459821999073028564453125</LatitudeDegrees>
              <LongitudeDegrees>-0.49835368059575557708740234375</LongitudeDegrees>
            </Position>
            <AltitudeMeters>83.8000030517578125</AltitudeMeters>
            <DistanceMeters>90443.85026415</DistanceMeters>
          </Trackpoint>
          <Trackpoint>
            <Time>2021-10-09T10:41:15.000Z</Time>
            <Position>
              <LatitudeDegrees>39.4513799250125885009765625</LatitudeDegrees>
              <LongitudeDegrees>-0.49788647331297397613525390625</LongitudeDegrees>
            </Position>
            <AltitudeMeters>83.1999969482421875</AltitudeMeters>
            <DistanceMeters>90486.681704357</DistanceMeters>
          </Trackpoint>
          <Trackpoint>
            <Time>2021-10-09T10:41:19.000Z</Time>
            <Position>
              <LatitudeDegrees>39.45148914121091365814208984375</LatitudeDegrees>
              <LongitudeDegrees>-0.49751230515539646148681640625</LongitudeDegrees>
            </Position>
            <AltitudeMeters>82.8000030517578125</AltitudeMeters>
            <DistanceMeters>90521.059711496</DistanceMeters>
          </Trackpoint>
          <Trackpoint>
            <Time>2021-10-09T10:41:26.000Z</Time>
            <Position>
              <LatitudeDegrees>39.4516642391681671142578125</LatitudeDegrees>
              <LongitudeDegrees>-0.496856085956096649169921875</LongitudeDegrees>
            </Position>
            <AltitudeMeters>82</AltitudeMeters>
            <DistanceMeters>90580.72952716</DistanceMeters>
          </Trackpoint>
          <Trackpoint>
            <Time>2021-10-09T10:41:29.000Z</Time>
            <Position>
              <LatitudeDegrees>39.45174403488636016845703125</LatitudeDegrees>
              <LongitudeDegrees>-0.4965762980282306671142578125</LongitudeDegrees>
            </Position>
            <AltitudeMeters>81.8000030517578125</AltitudeMeters>
            <DistanceMeters>90606.36314849</DistanceMeters>
          </Trackpoint>
          <Trackpoint>
            <Time>2021-10-09T10:41:34.000Z</Time>
            <Position>
              <LatitudeDegrees>39.4518652372062206268310546875</LatitudeDegrees>
              <LongitudeDegrees>-0.49610984511673450469970703125</LongitudeDegrees>
            </Position>
            <AltitudeMeters>81.8000030517578125</AltitudeMeters>
            <DistanceMeters>90648.660285215</DistanceMeters>
          </Trackpoint>
          <Trackpoint>
            <Time>2021-10-09T10:41:36.000Z</Time>
            <Position>
              <LatitudeDegrees>39.45190169848501682281494140625</LatitudeDegrees>
              <LongitudeDegrees>-0.49591697752475738525390625</LongitudeDegrees>
            </Position>
            <AltitudeMeters>81.59999847412109375</AltitudeMeters>
            <DistanceMeters>90665.725453404</DistanceMeters>
          </Trackpoint>
          <Trackpoint>
            <Time>2021-10-09T10:41:41.000Z</Time>
            <Position>
              <LatitudeDegrees>39.45195349864661693572998046875</LatitudeDegrees>
              <LongitudeDegrees>-0.49542102031409740447998046875</LongitudeDegrees>
            </Position>
            <AltitudeMeters>81.59999847412109375</AltitudeMeters>
            <DistanceMeters>90708.737613796</DistanceMeters>
          </Trackpoint>
          <Trackpoint>
            <Time>2021-10-09T10:41:45.000Z</Time>
            <Position>
              <LatitudeDegrees>39.4519887864589691162109375</LatitudeDegrees>
              <LongitudeDegrees>-0.49502086825668811798095703125</LongitudeDegrees>
            </Position>
            <AltitudeMeters>81.40000152587890625</AltitudeMeters>
            <DistanceMeters>90743.351347235</DistanceMeters>
          </Trackpoint>
          <Trackpoint>
            <Time>2021-10-09T10:41:47.000Z</Time>
            <Position>
              <LatitudeDegrees>39.45199473761022090911865234375</LatitudeDegrees>
              <LongitudeDegrees>-0.4948167689144611358642578125</LongitudeDegrees>
            </Position>
            <AltitudeMeters>81.40000152587890625</AltitudeMeters>
            <DistanceMeters>90760.904816078</DistanceMeters>
          </Trackpoint>
          <Trackpoint>
            <Time>2021-10-09T10:41:53.000Z</Time>
            <Position>
              <LatitudeDegrees>39.45204486139118671417236328125</LatitudeDegrees>
              <LongitudeDegrees>-0.49422718584537506103515625</LongitudeDegrees>
            </Position>
            <AltitudeMeters>81</AltitudeMeters>
            <DistanceMeters>90811.881400786</DistanceMeters>
          </Trackpoint>
          <Trackpoint>
            <Time>2021-10-09T10:41:55.000Z</Time>
            <Position>
              <LatitudeDegrees>39.45205793716013431549072265625</LatitudeDegrees>
              <LongitudeDegrees>-0.494043789803981781005859375</LongitudeDegrees>
            </Position>
            <AltitudeMeters>80.8000030517578125</AltitudeMeters>
            <DistanceMeters>90827.710124709</DistanceMeters>
          </Trackpoint>
          <Trackpoint>
            <Time>2021-10-09T10:41:56.000Z</Time>
            <Position>
              <LatitudeDegrees>39.4520653970539569854736328125</LatitudeDegrees>
              <LongitudeDegrees>-0.4939507506787776947021484375</LongitudeDegrees>
            </Position>
            <AltitudeMeters>80.59999847412109375</AltitudeMeters>
            <DistanceMeters>90835.749294884</DistanceMeters>
          </Trackpoint>
          <Trackpoint>
            <Time>2021-10-09T10:42:03.000Z</Time>
            <Position>
              <LatitudeDegrees>39.45210747420787811279296875</LatitudeDegrees>
              <LongitudeDegrees>-0.4933217726647853851318359375</LongitudeDegrees>
            </Position>
            <AltitudeMeters>80.59999847412109375</AltitudeMeters>
            <DistanceMeters>90890.007801335</DistanceMeters>
          </Trackpoint>
          <Trackpoint>
            <Time>2021-10-09T10:42:11.000Z</Time>
            <Position>
              <LatitudeDegrees>39.45214502513408660888671875</LatitudeDegrees>
              <LongitudeDegrees>-0.49256262369453907012939453125</LongitudeDegrees>
            </Position>
            <AltitudeMeters>80.59999847412109375</AltitudeMeters>
            <DistanceMeters>90955.384661482</DistanceMeters>
          </Trackpoint>
          <Trackpoint>
            <Time>2021-10-09T10:42:12.000Z</Time>
            <Position>
              <LatitudeDegrees>39.452152065932750701904296875</LatitudeDegrees>
              <LongitudeDegrees>-0.49247226677834987640380859375</LongitudeDegrees>
            </Position>
            <AltitudeMeters>80.59999847412109375</AltitudeMeters>
            <DistanceMeters>90963.189589136</DistanceMeters>
          </Trackpoint>
          <Trackpoint>
            <Time>2021-10-09T10:42:17.000Z</Time>
            <Position>
              <LatitudeDegrees>39.45218123495578765869140625</LatitudeDegrees>
              <LongitudeDegrees>-0.49203104339540004730224609375</LongitudeDegrees>
            </Position>
            <AltitudeMeters>80.59999847412109375</AltitudeMeters>
            <DistanceMeters>91001.248114486</DistanceMeters>
          </Trackpoint>
          <Trackpoint>
            <Time>2021-10-09T10:42:23.000Z</Time>
            <Position>
              <LatitudeDegrees>39.452265389263629913330078125</LatitudeDegrees>
              <LongitudeDegrees>-0.49148990772664546966552734375</LongitudeDegrees>
            </Position>
            <AltitudeMeters>80.59999847412109375</AltitudeMeters>
            <DistanceMeters>91048.688339846</DistanceMeters>
          </Trackpoint>
          <Trackpoint>
            <Time>2021-10-09T10:42:27.000Z</Time>
            <Position>
              <LatitudeDegrees>39.45233101956546306610107421875</LatitudeDegrees>
              <LongitudeDegrees>-0.491147004067897796630859375</LongitudeDegrees>
            </Position>
            <AltitudeMeters>80.8000030517578125</AltitudeMeters>
            <DistanceMeters>91079.05008146</DistanceMeters>
          </Trackpoint>
          <Trackpoint>
            <Time>2021-10-09T10:42:35.000Z</Time>
            <Position>
              <LatitudeDegrees>39.452469237148761749267578125</LatitudeDegrees>
              <LongitudeDegrees>-0.4904325306415557861328125</LongitudeDegrees>
            </Position>
            <AltitudeMeters>79.8000030517578125</AltitudeMeters>
            <DistanceMeters>91142.351212662</DistanceMeters>
          </Trackpoint>
          <Trackpoint>
            <Time>2021-10-09T10:42:37.000Z</Time>
            <Position>
              <LatitudeDegrees>39.4525029323995113372802734375</LatitudeDegrees>
              <LongitudeDegrees>-0.4902489669620990753173828125</LongitudeDegrees>
            </Position>
            <AltitudeMeters>79.59999847412109375</AltitudeMeters>
            <DistanceMeters>91158.566568529</DistanceMeters>
          </Trackpoint>
          <Trackpoint>
            <Time>2021-10-09T10:42:45.000Z</Time>
            <Position>
              <LatitudeDegrees>39.4525746814906597137451171875</LatitudeDegrees>
              <LongitudeDegrees>-0.48954245634377002716064453125</LongitudeDegrees>
            </Position>
            <AltitudeMeters>79.1999969482421875</AltitudeMeters>
            <DistanceMeters>91219.808318588</DistanceMeters>
          </Trackpoint>
          <Trackpoint>
            <Time>2021-10-09T10:42:50.000Z</Time>
            <Position>
              <LatitudeDegrees>39.45253687910735607147216796875</LatitudeDegrees>
              <LongitudeDegrees>-0.48914766870439052581787109375</LongitudeDegrees>
            </Position>
            <AltitudeMeters>79</AltitudeMeters>
            <DistanceMeters>91253.997076317</DistanceMeters>
          </Trackpoint>
          <Trackpoint>
            <Time>2021-10-09T10:42:53.000Z</Time>
            <Position>
              <LatitudeDegrees>39.45243461988866329193115234375</LatitudeDegrees>
              <LongitudeDegrees>-0.48893845640122890472412109375</LongitudeDegrees>
            </Position>
            <AltitudeMeters>79</AltitudeMeters>
            <DistanceMeters>91275.276695988</DistanceMeters>
          </Trackpoint>
          <Trackpoint>
            <Time>2021-10-09T10:42:54.000Z</Time>
            <Position>
              <LatitudeDegrees>39.45240913890302181243896484375</LatitudeDegrees>
              <LongitudeDegrees>-0.48886008560657501220703125</LongitudeDegrees>
            </Position>
            <AltitudeMeters>79</AltitudeMeters>
            <DistanceMeters>91282.584491284</DistanceMeters>
          </Trackpoint>
          <Trackpoint>
            <Time>2021-10-09T10:42:55.000Z</Time>
            <Position>
              <LatitudeDegrees>39.45240008644759654998779296875</LatitudeDegrees>
              <LongitudeDegrees>-0.48877685330808162689208984375</LongitudeDegrees>
            </Position>
            <AltitudeMeters>79</AltitudeMeters>
            <DistanceMeters>91289.80777182</DistanceMeters>
          </Trackpoint>
          <Trackpoint>
            <Time>2021-10-09T10:42:57.000Z</Time>
            <Position>
              <LatitudeDegrees>39.4524318538606166839599609375</LatitudeDegrees>
              <LongitudeDegrees>-0.48861407674849033355712890625</LongitudeDegrees>
            </Position>
            <AltitudeMeters>79</AltitudeMeters>
            <DistanceMeters>91304.236820385</DistanceMeters>
          </Trackpoint>
          <Trackpoint>
            <Time>2021-10-09T10:42:59.000Z</Time>
            <Position>
              <LatitudeDegrees>39.452522210776805877685546875</LatitudeDegrees>
              <LongitudeDegrees>-0.48848591744899749755859375</LongitudeDegrees>
            </Position>
            <AltitudeMeters>79</AltitudeMeters>
            <DistanceMeters>91319.152079795</DistanceMeters>
          </Trackpoint>
          <Trackpoint>
            <Time>2021-10-09T10:43:00.000Z</Time>
            <Position>
              <LatitudeDegrees>39.4525810517370700836181640625</LatitudeDegrees>
              <LongitudeDegrees>-0.488445349037647247314453125</LongitudeDegrees>
            </Position>
            <AltitudeMeters>78.8000030517578125</AltitudeMeters>
            <DistanceMeters>91326.571469662</DistanceMeters>
          </Trackpoint>
          <Trackpoint>
            <Time>2021-10-09T10:43:01.000Z</Time>
            <Position>
              <LatitudeDegrees>39.452644921839237213134765625</LatitudeDegrees>
              <LongitudeDegrees>-0.48842288553714752197265625</LongitudeDegrees>
            </Position>
            <AltitudeMeters>78.8000030517578125</AltitudeMeters>
            <DistanceMeters>91333.938338701</DistanceMeters>
          </Trackpoint>
          <Trackpoint>
            <Time>2021-10-09T10:43:02.000Z</Time>
            <Position>
              <LatitudeDegrees>39.4527103006839752197265625</LatitudeDegrees>
              <LongitudeDegrees>-0.48842011950910091400146484375</LongitudeDegrees>
            </Position>
            <AltitudeMeters>78.59999847412109375</AltitudeMeters>
            <DistanceMeters>91341.218898344</DistanceMeters>
          </Trackpoint>
          <Trackpoint>
            <Time>2021-10-09T10:43:03.000Z</Time>
            <Position>
              <LatitudeDegrees>39.4527738355100154876708984375</LatitudeDegrees>
              <LongitudeDegrees>-0.48843738622963428497314453125</LongitudeDegrees>
            </Position>
            <AltitudeMeters>78.59999847412109375</AltitudeMeters>
            <DistanceMeters>91348.444678717</DistanceMeters>
          </Trackpoint>
          <Trackpoint>
            <Time>2021-10-09T10:43:05.000Z</Time>
            <Position>
              <LatitudeDegrees>39.4528801180422306060791015625</LatitudeDegrees>
              <LongitudeDegrees>-0.4885246418416500091552734375</LongitudeDegrees>
            </Position>
            <AltitudeMeters>78.40000152587890625</AltitudeMeters>
            <DistanceMeters>91362.450726721</DistanceMeters>
          </Trackpoint>
          <Trackpoint>
            <Time>2021-10-09T10:43:06.000Z</Time>
            <Position>
              <LatitudeDegrees>39.452921859920024871826171875</LatitudeDegrees>
              <LongitudeDegrees>-0.4885870032012462615966796875</LongitudeDegrees>
            </Position>
            <AltitudeMeters>78.40000152587890625</AltitudeMeters>
            <DistanceMeters>91369.542801579</DistanceMeters>
          </Trackpoint>
          <Trackpoint>
            <Time>2021-10-09T10:43:07.000Z</Time>
            <Position>
              <LatitudeDegrees>39.45296108722686767578125</LatitudeDegrees>
              <LongitudeDegrees>-0.4886547289788722991943359375</LongitudeDegrees>
            </Position>
            <AltitudeMeters>78.40000152587890625</AltitudeMeters>
            <DistanceMeters>91376.818398332</DistanceMeters>
          </Trackpoint>
          <Trackpoint>
            <Time>2021-10-09T10:43:08.000Z</Time>
            <Position>
              <LatitudeDegrees>39.4530081935226917266845703125</LatitudeDegrees>
              <LongitudeDegrees>-0.48871935345232486724853515625</LongitudeDegrees>
            </Position>
            <AltitudeMeters>78.59999847412109375</AltitudeMeters>
            <DistanceMeters>91384.456087369</DistanceMeters>
          </Trackpoint>
          <Trackpoint>
            <Time>2021-10-09T10:43:10.000Z</Time>
            <Position>
              <LatitudeDegrees>39.45312411524355411529541015625</LatitudeDegrees>
              <LongitudeDegrees>-0.48881205730140209197998046875</LongitudeDegrees>
            </Position>
            <AltitudeMeters>78.59999847412109375</AltitudeMeters>
            <DistanceMeters>91399.620219281</DistanceMeters>
          </Trackpoint>
          <Trackpoint>
            <Time>2021-10-09T10:43:15.000Z</Time>
            <Position>
              <LatitudeDegrees>39.45346693508327007293701171875</LatitudeDegrees>
              <LongitudeDegrees>-0.48893208615481853485107421875</LongitudeDegrees>
            </Position>
            <AltitudeMeters>78.8000030517578125</AltitudeMeters>
            <DistanceMeters>91439.146535146</DistanceMeters>
          </Trackpoint>
          <Trackpoint>
            <Time>2021-10-09T10:43:23.000Z</Time>
            <Position>
              <LatitudeDegrees>39.4540358148515224456787109375</LatitudeDegrees>
              <LongitudeDegrees>-0.489062257111072540283203125</LongitudeDegrees>
            </Position>
            <AltitudeMeters>79</AltitudeMeters>
            <DistanceMeters>91503.444660535</DistanceMeters>
          </Trackpoint>
          <Trackpoint>
            <Time>2021-10-09T10:43:24.000Z</Time>
            <Position>
              <LatitudeDegrees>39.45410571992397308349609375</LatitudeDegrees>
              <LongitudeDegrees>-0.48908044584095478057861328125</LongitudeDegrees>
            </Position>
            <AltitudeMeters>79</AltitudeMeters>
            <DistanceMeters>91511.380955841</DistanceMeters>
          </Trackpoint>
          <Trackpoint>
            <Time>2021-10-09T10:43:31.000Z</Time>
            <Position>
              <LatitudeDegrees>39.454612322151660919189453125</LatitudeDegrees>
              <LongitudeDegrees>-0.4892062582075595855712890625</LongitudeDegrees>
            </Position>
            <AltitudeMeters>79</AltitudeMeters>
            <DistanceMeters>91568.794001697</DistanceMeters>
          </Trackpoint>
          <Trackpoint>
            <Time>2021-10-09T10:43:38.000Z</Time>
            <Position>
              <LatitudeDegrees>39.455127976834774017333984375</LatitudeDegrees>
              <LongitudeDegrees>-0.4893286339938640594482421875</LongitudeDegrees>
            </Position>
            <AltitudeMeters>79.40000152587890625</AltitudeMeters>
            <DistanceMeters>91627.142880534</DistanceMeters>
          </Trackpoint>
          <Trackpoint>
            <Time>2021-10-09T10:43:40.000Z</Time>
            <Position>
              <LatitudeDegrees>39.4552773423492908477783203125</LatitudeDegrees>
              <LongitudeDegrees>-0.4893631674349308013916015625</LongitudeDegrees>
            </Position>
            <AltitudeMeters>80</AltitudeMeters>
            <DistanceMeters>91644.030119627</DistanceMeters>
          </Trackpoint>
          <Trackpoint>
            <Time>2021-10-09T10:43:46.000Z</Time>
            <Position>
              <LatitudeDegrees>39.45572133176028728485107421875</LatitudeDegrees>
              <LongitudeDegrees>-0.4894734732806682586669921875</LongitudeDegrees>
            </Position>
            <AltitudeMeters>79.1999969482421875</AltitudeMeters>
            <DistanceMeters>91694.347998693</DistanceMeters>
          </Trackpoint>
          <Trackpoint>
            <Time>2021-10-09T10:43:50.000Z</Time>
            <Position>
              <LatitudeDegrees>39.4560266844928264617919921875</LatitudeDegrees>
              <LongitudeDegrees>-0.4895428754389286041259765625</LongitudeDegrees>
            </Position>
            <AltitudeMeters>79</AltitudeMeters>
            <DistanceMeters>91728.853558234</DistanceMeters>
          </Trackpoint>
          <Trackpoint>
            <Time>2021-10-09T10:43:55.000Z</Time>
            <Position>
              <LatitudeDegrees>39.45638962090015411376953125</LatitudeDegrees>
              <LongitudeDegrees>-0.48963348381221294403076171875</LongitudeDegrees>
            </Position>
            <AltitudeMeters>78.59999847412109375</AltitudeMeters>
            <DistanceMeters>91769.992772948</DistanceMeters>
          </Trackpoint>
          <Trackpoint>
            <Time>2021-10-09T10:44:02.000Z</Time>
            <Position>
              <LatitudeDegrees>39.45689580403268337249755859375</LatitudeDegrees>
              <LongitudeDegrees>-0.48975887708365917205810546875</LongitudeDegrees>
            </Position>
            <AltitudeMeters>78.1999969482421875</AltitudeMeters>
            <DistanceMeters>91827.353183628</DistanceMeters>
          </Trackpoint>
          <Trackpoint>
            <Time>2021-10-09T10:44:10.000Z</Time>
            <Position>
              <LatitudeDegrees>39.45744733326137065887451171875</LatitudeDegrees>
              <LongitudeDegrees>-0.48987655900418758392333984375</LongitudeDegrees>
            </Position>
            <AltitudeMeters>78.59999847412109375</AltitudeMeters>
            <DistanceMeters>91889.566876703</DistanceMeters>
          </Trackpoint>
          <Trackpoint>
            <Time>2021-10-09T10:44:11.000Z</Time>
            <Position>
              <LatitudeDegrees>39.45751480758190155029296875</LatitudeDegrees>
              <LongitudeDegrees>-0.48988594673573970794677734375</LongitudeDegrees>
            </Position>
            <AltitudeMeters>78.8000030517578125</AltitudeMeters>
            <DistanceMeters>91897.120155658</DistanceMeters>
          </Trackpoint>
          <Trackpoint>
            <Time>2021-10-09T10:44:19.000Z</Time>
            <Position>
              <LatitudeDegrees>39.458058960735797882080078125</LatitudeDegrees>
              <LongitudeDegrees>-0.48996171914041042327880859375</LongitudeDegrees>
            </Position>
            <AltitudeMeters>79</AltitudeMeters>
            <DistanceMeters>91958.034577364</DistanceMeters>
          </Trackpoint>
          <Trackpoint>
            <Time>2021-10-09T10:44:26.000Z</Time>
            <Position>
              <LatitudeDegrees>39.45852206088602542877197265625</LatitudeDegrees>
              <LongitudeDegrees>-0.49000211991369724273681640625</LongitudeDegrees>
            </Position>
            <AltitudeMeters>79.59999847412109375</AltitudeMeters>
            <DistanceMeters>92009.695385459</DistanceMeters>
          </Trackpoint>
          <Trackpoint>
            <Time>2021-10-09T10:44:32.000Z</Time>
            <Position>
              <LatitudeDegrees>39.458897151052951812744140625</LatitudeDegrees>
              <LongitudeDegrees>-0.49001335166394710540771484375</LongitudeDegrees>
            </Position>
            <AltitudeMeters>80</AltitudeMeters>
            <DistanceMeters>92051.454842382</DistanceMeters>
          </Trackpoint>
          <Trackpoint>
            <Time>2021-10-09T10:44:34.000Z</Time>
            <Position>
              <LatitudeDegrees>39.4590081274509429931640625</LatitudeDegrees>
              <LongitudeDegrees>-0.4900146089494228363037109375</LongitudeDegrees>
            </Position>
            <AltitudeMeters>80.1999969482421875</AltitudeMeters>
            <DistanceMeters>92063.806853214</DistanceMeters>
          </Trackpoint>
          <Trackpoint>
            <Time>2021-10-09T10:44:40.000Z</Time>
            <Position>
              <LatitudeDegrees>39.45933225564658641815185546875</LatitudeDegrees>
              <LongitudeDegrees>-0.4899998567998409271240234375</LongitudeDegrees>
            </Position>
            <AltitudeMeters>80.40000152587890625</AltitudeMeters>
            <DistanceMeters>92099.905249458</DistanceMeters>
          </Trackpoint>
          <Trackpoint>
            <Time>2021-10-09T10:44:48.000Z</Time>
            <Position>
              <LatitudeDegrees>39.45978940464556217193603515625</LatitudeDegrees>
              <LongitudeDegrees>-0.48996708355844020843505859375</LongitudeDegrees>
            </Position>
            <AltitudeMeters>80.59999847412109375</AltitudeMeters>
            <DistanceMeters>92150.86482573</DistanceMeters>
          </Trackpoint>
          <Trackpoint>
            <Time>2021-10-09T10:44:55.000Z</Time>
            <Position>
              <LatitudeDegrees>39.4601643271744251251220703125</LatitudeDegrees>
              <LongitudeDegrees>-0.4898925684392452239990234375</LongitudeDegrees>
            </Position>
            <AltitudeMeters>81</AltitudeMeters>
            <DistanceMeters>92193.08278978</DistanceMeters>
          </Trackpoint>
          <Trackpoint>
            <Time>2021-10-09T10:44:57.000Z</Time>
            <Position>
              <LatitudeDegrees>39.460259377956390380859375</LatitudeDegrees>
              <LongitudeDegrees>-0.4898550175130367279052734375</LongitudeDegrees>
            </Position>
            <AltitudeMeters>81</AltitudeMeters>
            <DistanceMeters>92204.143507463</DistanceMeters>
          </Trackpoint>
          <Trackpoint>
            <Time>2021-10-09T10:44:58.000Z</Time>
            <Position>
              <LatitudeDegrees>39.4603061489760875701904296875</LatitudeDegrees>
              <LongitudeDegrees>-0.4898228310048580169677734375</LongitudeDegrees>
            </Position>
            <AltitudeMeters>81</AltitudeMeters>
            <DistanceMeters>92210.038228334</DistanceMeters>
          </Trackpoint>
          <Trackpoint>
            <Time>2021-10-09T10:44:59.000Z</Time>
            <Position>
              <LatitudeDegrees>39.460352249443531036376953125</LatitudeDegrees>
              <LongitudeDegrees>-0.489777736365795135498046875</LongitudeDegrees>
            </Position>
            <AltitudeMeters>81</AltitudeMeters>
            <DistanceMeters>92216.468525376</DistanceMeters>
          </Trackpoint>
          <Trackpoint>
            <Time>2021-10-09T10:45:00.000Z</Time>
            <Position>
              <LatitudeDegrees>39.460400529205799102783203125</LatitudeDegrees>
              <LongitudeDegrees>-0.4897245950996875762939453125</LongitudeDegrees>
            </Position>
            <AltitudeMeters>81</AltitudeMeters>
            <DistanceMeters>92223.521018626</DistanceMeters>
          </Trackpoint>
          <Trackpoint>
            <Time>2021-10-09T10:45:01.000Z</Time>
            <Position>
              <LatitudeDegrees>39.4604536704719066619873046875</LatitudeDegrees>
              <LongitudeDegrees>-0.4896788299083709716796875</LongitudeDegrees>
            </Position>
            <AltitudeMeters>81</AltitudeMeters>
            <DistanceMeters>92230.624543608</DistanceMeters>
          </Trackpoint>
          <Trackpoint>
            <Time>2021-10-09T10:45:03.000Z</Time>
            <Position>
              <LatitudeDegrees>39.46057931520044803619384765625</LatitudeDegrees>
              <LongitudeDegrees>-0.4896493256092071533203125</LongitudeDegrees>
            </Position>
            <AltitudeMeters>81</AltitudeMeters>
            <DistanceMeters>92244.837312869</DistanceMeters>
          </Trackpoint>
          <Trackpoint>
            <Time>2021-10-09T10:45:05.000Z</Time>
            <Position>
              <LatitudeDegrees>39.4607044570147991180419921875</LatitudeDegrees>
              <LongitudeDegrees>-0.48968595452606678009033203125</LongitudeDegrees>
            </Position>
            <AltitudeMeters>81</AltitudeMeters>
            <DistanceMeters>92259.117270371</DistanceMeters>
          </Trackpoint>
          <Trackpoint>
            <Time>2021-10-09T10:45:07.000Z</Time>
            <Position>
              <LatitudeDegrees>39.46082943119108676910400390625</LatitudeDegrees>
              <LongitudeDegrees>-0.48969919793307781219482421875</LongitudeDegrees>
            </Position>
            <AltitudeMeters>80.8000030517578125</AltitudeMeters>
            <DistanceMeters>92273.074233115</DistanceMeters>
          </Trackpoint>
          <Trackpoint>
            <Time>2021-10-09T10:45:11.000Z</Time>
            <Position>
              <LatitudeDegrees>39.46107217110693454742431640625</LatitudeDegrees>
              <LongitudeDegrees>-0.4896102659404277801513671875</LongitudeDegrees>
            </Position>
            <AltitudeMeters>81</AltitudeMeters>
            <DistanceMeters>92301.151692646</DistanceMeters>
          </Trackpoint>
          <Trackpoint>
            <Time>2021-10-09T10:45:12.000Z</Time>
            <Position>
              <LatitudeDegrees>39.46112866513431072235107421875</LatitudeDegrees>
              <LongitudeDegrees>-0.48957464285194873809814453125</LongitudeDegrees>
            </Position>
            <AltitudeMeters>81</AltitudeMeters>
            <DistanceMeters>92308.145039057</DistanceMeters>
          </Trackpoint>
          <Trackpoint>
            <Time>2021-10-09T10:45:16.000Z</Time>
            <Position>
              <LatitudeDegrees>39.46134491823613643646240234375</LatitudeDegrees>
              <LongitudeDegrees>-0.48941371031105518341064453125</LongitudeDegrees>
            </Position>
            <AltitudeMeters>81.40000152587890625</AltitudeMeters>
            <DistanceMeters>92335.904390154</DistanceMeters>
          </Trackpoint>
          <Trackpoint>
            <Time>2021-10-09T10:45:20.000Z</Time>
            <Position>
              <LatitudeDegrees>39.46154340170323848724365234375</LatitudeDegrees>
              <LongitudeDegrees>-0.4892759956419467926025390625</LongitudeDegrees>
            </Position>
            <AltitudeMeters>81.8000030517578125</AltitudeMeters>
            <DistanceMeters>92360.965693131</DistanceMeters>
          </Trackpoint>
          <Trackpoint>
            <Time>2021-10-09T10:45:21.000Z</Time>
            <Position>
              <LatitudeDegrees>39.4615910947322845458984375</LatitudeDegrees>
              <LongitudeDegrees>-0.4892485029995441436767578125</LongitudeDegrees>
            </Position>
            <AltitudeMeters>82.1999969482421875</AltitudeMeters>
            <DistanceMeters>92366.775549046</DistanceMeters>
          </Trackpoint>
          <Trackpoint>
            <Time>2021-10-09T10:45:22.000Z</Time>
            <Position>
              <LatitudeDegrees>39.46163736283779144287109375</LatitudeDegrees>
              <LongitudeDegrees>-0.489221177995204925537109375</LongitudeDegrees>
            </Position>
            <AltitudeMeters>82.40000152587890625</AltitudeMeters>
            <DistanceMeters>92372.434228315</DistanceMeters>
          </Trackpoint>
          <Trackpoint>
            <Time>2021-10-09T10:45:24.000Z</Time>
            <Position>
              <LatitudeDegrees>39.461723864078521728515625</LatitudeDegrees>
              <LongitudeDegrees>-0.4891646839678287506103515625</LongitudeDegrees>
            </Position>
            <AltitudeMeters>82.8000030517578125</AltitudeMeters>
            <DistanceMeters>92383.217143704</DistanceMeters>
          </Trackpoint>
          <Trackpoint>
            <Time>2021-10-09T10:45:25.000Z</Time>
            <Position>
              <LatitudeDegrees>39.46176870726048946380615234375</LatitudeDegrees>
              <LongitudeDegrees>-0.48914565704762935638427734375</LongitudeDegrees>
            </Position>
            <AltitudeMeters>83</AltitudeMeters>
            <DistanceMeters>92388.470324989</DistanceMeters>
          </Trackpoint>
          <Trackpoint>
            <Time>2021-10-09T10:45:26.000Z</Time>
            <Position>
              <LatitudeDegrees>39.46181279607117176055908203125</LatitudeDegrees>
              <LongitudeDegrees>-0.48912688158452510833740234375</LongitudeDegrees>
            </Position>
            <AltitudeMeters>83.59999847412109375</AltitudeMeters>
            <DistanceMeters>92393.635968791</DistanceMeters>
          </Trackpoint>
          <Trackpoint>
            <Time>2021-10-09T10:45:29.000Z</Time>
            <Position>
              <LatitudeDegrees>39.46193098090589046478271484375</LatitudeDegrees>
              <LongitudeDegrees>-0.489053539931774139404296875</LongitudeDegrees>
            </Position>
            <AltitudeMeters>84.1999969482421875</AltitudeMeters>
            <DistanceMeters>92408.221872981</DistanceMeters>
          </Trackpoint>
          <Trackpoint>
            <Time>2021-10-09T10:45:30.000Z</Time>
            <Position>
              <LatitudeDegrees>39.46197272278368473052978515625</LatitudeDegrees>
              <LongitudeDegrees>-0.48903300426900386810302734375</LongitudeDegrees>
            </Position>
            <AltitudeMeters>84.8000030517578125</AltitudeMeters>
            <DistanceMeters>92413.192415119</DistanceMeters>
          </Trackpoint>
          <Trackpoint>
            <Time>2021-10-09T10:45:32.000Z</Time>
            <Position>
              <LatitudeDegrees>39.46205821819603443145751953125</LatitudeDegrees>
              <LongitudeDegrees>-0.48900132067501544952392578125</LongitudeDegrees>
            </Position>
            <AltitudeMeters>85.40000152587890625</AltitudeMeters>
            <DistanceMeters>92423.089802111</DistanceMeters>
          </Trackpoint>
          <Trackpoint>
            <Time>2021-10-09T10:45:34.000Z</Time>
            <Position>
              <LatitudeDegrees>39.4621421210467815399169921875</LatitudeDegrees>
              <LongitudeDegrees>-0.48897332511842250823974609375</LongitudeDegrees>
            </Position>
            <AltitudeMeters>85.8000030517578125</AltitudeMeters>
            <DistanceMeters>92432.733023939</DistanceMeters>
          </Trackpoint>
          <Trackpoint>
            <Time>2021-10-09T10:45:35.000Z</Time>
            <Position>
              <LatitudeDegrees>39.46218461729586124420166015625</LatitudeDegrees>
              <LongitudeDegrees>-0.48895304091274738311767578125</LongitudeDegrees>
            </Position>
            <AltitudeMeters>86</AltitudeMeters>
            <DistanceMeters>92437.7739202</DistanceMeters>
          </Trackpoint>
          <Trackpoint>
            <Time>2021-10-09T10:45:38.000Z</Time>
            <Position>
              <LatitudeDegrees>39.46230523288249969482421875</LatitudeDegrees>
              <LongitudeDegrees>-0.48889889381825923919677734375</LongitudeDegrees>
            </Position>
            <AltitudeMeters>87</AltitudeMeters>
            <DistanceMeters>92451.981923539</DistanceMeters>
          </Trackpoint>
          <Trackpoint>
            <Time>2021-10-09T10:45:39.000Z</Time>
            <Position>
              <LatitudeDegrees>39.4623476453125476837158203125</LatitudeDegrees>
              <LongitudeDegrees>-0.48888296820223331451416015625</LongitudeDegrees>
            </Position>
            <AltitudeMeters>87.8000030517578125</AltitudeMeters>
            <DistanceMeters>92456.896743423</DistanceMeters>
          </Trackpoint>
          <Trackpoint>
            <Time>2021-10-09T10:45:41.000Z</Time>
            <Position>
              <LatitudeDegrees>39.46243607439100742340087890625</LatitudeDegrees>
              <LongitudeDegrees>-0.48885832540690898895263671875</LongitudeDegrees>
            </Position>
            <AltitudeMeters>88.40000152587890625</AltitudeMeters>
            <DistanceMeters>92466.964643307</DistanceMeters>
          </Trackpoint>
          <Trackpoint>
            <Time>2021-10-09T10:45:42.000Z</Time>
            <Position>
              <LatitudeDegrees>39.4624790735542774200439453125</LatitudeDegrees>
              <LongitudeDegrees>-0.48884709365665912628173828125</LongitudeDegrees>
            </Position>
            <AltitudeMeters>88.8000030517578125</AltitudeMeters>
            <DistanceMeters>92471.847204296</DistanceMeters>
          </Trackpoint>
          <Trackpoint>
            <Time>2021-10-09T10:45:45.000Z</Time>
            <Position>
              <LatitudeDegrees>39.462620057165622711181640625</LatitudeDegrees>
              <LongitudeDegrees>-0.48881205730140209197998046875</LongitudeDegrees>
            </Position>
            <AltitudeMeters>89.40000152587890625</AltitudeMeters>
            <DistanceMeters>92487.824979209</DistanceMeters>
          </Trackpoint>
          <Trackpoint>
            <Time>2021-10-09T10:45:50.000Z</Time>
            <Position>
              <LatitudeDegrees>39.462861455976963043212890625</LatitudeDegrees>
              <LongitudeDegrees>-0.4887533001601696014404296875</LongitudeDegrees>
            </Position>
            <AltitudeMeters>90.40000152587890625</AltitudeMeters>
            <DistanceMeters>92515.163291281</DistanceMeters>
          </Trackpoint>
          <Trackpoint>
            <Time>2021-10-09T10:45:51.000Z</Time>
            <Position>
              <LatitudeDegrees>39.4629112444818019866943359375</LatitudeDegrees>
              <LongitudeDegrees>-0.4887429066002368927001953125</LongitudeDegrees>
            </Position>
            <AltitudeMeters>90.59999847412109375</AltitudeMeters>
            <DistanceMeters>92520.77711055</DistanceMeters>
          </Trackpoint>
          <Trackpoint>
            <Time>2021-10-09T10:45:58.000Z</Time>
            <Position>
              <LatitudeDegrees>39.4633078761398792266845703125</LatitudeDegrees>
              <LongitudeDegrees>-0.48865757882595062255859375</LongitudeDegrees>
            </Position>
            <AltitudeMeters>91.1999969482421875</AltitudeMeters>
            <DistanceMeters>92565.527731922</DistanceMeters>
          </Trackpoint>
          <Trackpoint>
            <Time>2021-10-09T10:46:04.000Z</Time>
            <Position>
              <LatitudeDegrees>39.4637596607208251953125</LatitudeDegrees>
              <LongitudeDegrees>-0.4885370470583438873291015625</LongitudeDegrees>
            </Position>
            <AltitudeMeters>90</AltitudeMeters>
            <DistanceMeters>92616.867843661</DistanceMeters>
          </Trackpoint>
          <Trackpoint>
            <Time>2021-10-09T10:46:06.000Z</Time>
            <Position>
              <LatitudeDegrees>39.4639365188777446746826171875</LatitudeDegrees>
              <LongitudeDegrees>-0.488470159471035003662109375</LongitudeDegrees>
            </Position>
            <AltitudeMeters>89.40000152587890625</AltitudeMeters>
            <DistanceMeters>92637.374467711</DistanceMeters>
          </Trackpoint>
          <Trackpoint>
            <Time>2021-10-09T10:46:09.000Z</Time>
            <Position>
              <LatitudeDegrees>39.46421856991946697235107421875</LatitudeDegrees>
              <LongitudeDegrees>-0.4883167706429958343505859375</LongitudeDegrees>
            </Position>
            <AltitudeMeters>87.40000152587890625</AltitudeMeters>
            <DistanceMeters>92671.422023622</DistanceMeters>
          </Trackpoint>
          <Trackpoint>
            <Time>2021-10-09T10:46:11.000Z</Time>
            <Position>
              <LatitudeDegrees>39.464397691190242767333984375</LatitudeDegrees>
              <LongitudeDegrees>-0.48817746341228485107421875</LongitudeDegrees>
            </Position>
            <AltitudeMeters>85.40000152587890625</AltitudeMeters>
            <DistanceMeters>92694.676208143</DistanceMeters>
          </Trackpoint>
          <Trackpoint>
            <Time>2021-10-09T10:46:13.000Z</Time>
            <Position>
              <LatitudeDegrees>39.464535154402256011962890625</LatitudeDegrees>
              <LongitudeDegrees>-0.487986020743846893310546875</LongitudeDegrees>
            </Position>
            <AltitudeMeters>84.1999969482421875</AltitudeMeters>
            <DistanceMeters>92717.141536373</DistanceMeters>
          </Trackpoint>
          <Trackpoint>
            <Time>2021-10-09T10:46:15.000Z</Time>
            <Position>
              <LatitudeDegrees>39.4646530039608478546142578125</LatitudeDegrees>
              <LongitudeDegrees>-0.4877934046089649200439453125</LongitudeDegrees>
            </Position>
            <AltitudeMeters>82.8000030517578125</AltitudeMeters>
            <DistanceMeters>92738.25992754</DistanceMeters>
          </Trackpoint>
          <Trackpoint>
            <Time>2021-10-09T10:46:16.000Z</Time>
            <Position>
              <LatitudeDegrees>39.46473271586000919342041015625</LatitudeDegrees>
              <LongitudeDegrees>-0.4877414368093013763427734375</LongitudeDegrees>
            </Position>
            <AltitudeMeters>82.1999969482421875</AltitudeMeters>
            <DistanceMeters>92748.192833219</DistanceMeters>
          </Trackpoint>
          <Trackpoint>
            <Time>2021-10-09T10:46:17.000Z</Time>
            <Position>
              <LatitudeDegrees>39.4648166187107563018798828125</LatitudeDegrees>
              <LongitudeDegrees>-0.4877206496894359588623046875</LongitudeDegrees>
            </Position>
            <AltitudeMeters>82</AltitudeMeters>
            <DistanceMeters>92757.700254804</DistanceMeters>
          </Trackpoint>
          <Trackpoint>
            <Time>2021-10-09T10:46:18.000Z</Time>
            <Position>
              <LatitudeDegrees>39.46490186266601085662841796875</LatitudeDegrees>
              <LongitudeDegrees>-0.487721152603626251220703125</LongitudeDegrees>
            </Position>
            <AltitudeMeters>81.8000030517578125</AltitudeMeters>
            <DistanceMeters>92767.188185668</DistanceMeters>
          </Trackpoint>
          <Trackpoint>
            <Time>2021-10-09T10:46:19.000Z</Time>
            <Position>
              <LatitudeDegrees>39.4649899564683437347412109375</LatitudeDegrees>
              <LongitudeDegrees>-0.48772760666906833648681640625</LongitudeDegrees>
            </Position>
            <AltitudeMeters>81.8000030517578125</AltitudeMeters>
            <DistanceMeters>92777.009094307</DistanceMeters>
          </Trackpoint>
          <Trackpoint>
            <Time>2021-10-09T10:46:20.000Z</Time>
            <Position>
              <LatitudeDegrees>39.46507838554680347442626953125</LatitudeDegrees>
              <LongitudeDegrees>-0.4877219907939434051513671875</LongitudeDegrees>
            </Position>
            <AltitudeMeters>81.59999847412109375</AltitudeMeters>
            <DistanceMeters>92786.863048437</DistanceMeters>
          </Trackpoint>
          <Trackpoint>
            <Time>2021-10-09T10:46:22.000Z</Time>
            <Position>
              <LatitudeDegrees>39.46524485014379024505615234375</LatitudeDegrees>
              <LongitudeDegrees>-0.48765443265438079833984375</LongitudeDegrees>
            </Position>
            <AltitudeMeters>81.40000152587890625</AltitudeMeters>
            <DistanceMeters>92806.27875268</DistanceMeters>
          </Trackpoint>
          <Trackpoint>
            <Time>2021-10-09T10:46:27.000Z</Time>
            <Position>
              <LatitudeDegrees>39.465625472366809844970703125</LatitudeDegrees>
              <LongitudeDegrees>-0.48740473575890064239501953125</LongitudeDegrees>
            </Position>
            <AltitudeMeters>81</AltitudeMeters>
            <DistanceMeters>92853.766065407</DistanceMeters>
          </Trackpoint>
          <Trackpoint>
            <Time>2021-10-09T10:46:32.000Z</Time>
            <Position>
              <LatitudeDegrees>39.4659981317818164825439453125</LatitudeDegrees>
              <LongitudeDegrees>-0.48716685734689235687255859375</LongitudeDegrees>
            </Position>
            <AltitudeMeters>80.8000030517578125</AltitudeMeters>
            <DistanceMeters>92900.00669344</DistanceMeters>
          </Trackpoint>
          <Trackpoint>
            <Time>2021-10-09T10:46:38.000Z</Time>
            <Position>
              <LatitudeDegrees>39.46642401628196239471435546875</LatitudeDegrees>
              <LongitudeDegrees>-0.4868920147418975830078125</LongitudeDegrees>
            </Position>
            <AltitudeMeters>80.8000030517578125</AltitudeMeters>
            <DistanceMeters>92952.965482914</DistanceMeters>
          </Trackpoint>
          <Trackpoint>
            <Time>2021-10-09T10:46:41.000Z</Time>
            <Position>
              <LatitudeDegrees>39.4666318036615848541259765625</LatitudeDegrees>
              <LongitudeDegrees>-0.48675882630050182342529296875</LongitudeDegrees>
            </Position>
            <AltitudeMeters>80.8000030517578125</AltitudeMeters>
            <DistanceMeters>92978.769391856</DistanceMeters>
          </Trackpoint>
          <Trackpoint>
            <Time>2021-10-09T10:46:48.000Z</Time>
            <Position>
              <LatitudeDegrees>39.4670985080301761627197265625</LatitudeDegrees>
              <LongitudeDegrees>-0.486458502709865570068359375</LongitudeDegrees>
            </Position>
            <AltitudeMeters>80.8000030517578125</AltitudeMeters>
            <DistanceMeters>93036.771194928</DistanceMeters>
          </Trackpoint>
          <Trackpoint>
            <Time>2021-10-09T10:46:55.000Z</Time>
            <Position>
              <LatitudeDegrees>39.467529170215129852294921875</LatitudeDegrees>
              <LongitudeDegrees>-0.4861817322671413421630859375</LongitudeDegrees>
            </Position>
            <AltitudeMeters>81.40000152587890625</AltitudeMeters>
            <DistanceMeters>93090.27984253</DistanceMeters>
          </Trackpoint>
          <Trackpoint>
            <Time>2021-10-09T10:46:56.000Z</Time>
            <Position>
              <LatitudeDegrees>39.467586837708950042724609375</LatitudeDegrees>
              <LongitudeDegrees>-0.486139990389347076416015625</LongitudeDegrees>
            </Position>
            <AltitudeMeters>81.59999847412109375</AltitudeMeters>
            <DistanceMeters>93097.631987632</DistanceMeters>
          </Trackpoint>
          <Trackpoint>
            <Time>2021-10-09T10:46:58.000Z</Time>
            <Position>
              <LatitudeDegrees>39.4676889292895793914794921875</LatitudeDegrees>
              <LongitudeDegrees>-0.4860308580100536346435546875</LongitudeDegrees>
            </Position>
            <AltitudeMeters>81.59999847412109375</AltitudeMeters>
            <DistanceMeters>93112.364193418</DistanceMeters>
          </Trackpoint>
          <Trackpoint>
            <Time>2021-10-09T10:46:59.000Z</Time>
            <Position>
              <LatitudeDegrees>39.46772840805351734161376953125</LatitudeDegrees>
              <LongitudeDegrees>-0.48596103675663471221923828125</LongitudeDegrees>
            </Position>
            <AltitudeMeters>81.59999847412109375</AltitudeMeters>
            <DistanceMeters>93119.800603045</DistanceMeters>
          </Trackpoint>
          <Trackpoint>
            <Time>2021-10-09T10:47:00.000Z</Time>
            <Position>
              <LatitudeDegrees>39.4677610136568546295166015625</LatitudeDegrees>
              <LongitudeDegrees>-0.48588207922875881195068359375</LongitudeDegrees>
            </Position>
            <AltitudeMeters>81.59999847412109375</AltitudeMeters>
            <DistanceMeters>93127.494833427</DistanceMeters>
          </Trackpoint>
          <Trackpoint>
            <Time>2021-10-09T10:47:02.000Z</Time>
            <Position>
              <LatitudeDegrees>39.46779546327888965606689453125</LatitudeDegrees>
              <LongitudeDegrees>-0.4857163690030574798583984375</LongitudeDegrees>
            </Position>
            <AltitudeMeters>81.8000030517578125</AltitudeMeters>
            <DistanceMeters>93142.240824095</DistanceMeters>
          </Trackpoint>
          <Trackpoint>
            <Time>2021-10-09T10:47:04.000Z</Time>
            <Position>
              <LatitudeDegrees>39.46785832755267620086669921875</LatitudeDegrees>
              <LongitudeDegrees>-0.4855745472013950347900390625</LongitudeDegrees>
            </Position>
            <AltitudeMeters>81.8000030517578125</AltitudeMeters>
            <DistanceMeters>93156.29257315</DistanceMeters>
          </Trackpoint>
          <Trackpoint>
            <Time>2021-10-09T10:47:05.000Z</Time>
            <Position>
              <LatitudeDegrees>39.46790073998272418975830078125</LatitudeDegrees>
              <LongitudeDegrees>-0.48551210202276706695556640625</LongitudeDegrees>
            </Position>
            <AltitudeMeters>81.59999847412109375</AltitudeMeters>
            <DistanceMeters>93163.439188599</DistanceMeters>
          </Trackpoint>
          <Trackpoint>
            <Time>2021-10-09T10:47:06.000Z</Time>
            <Position>
              <LatitudeDegrees>39.4679507799446582794189453125</LatitudeDegrees>
              <LongitudeDegrees>-0.48545778729021549224853515625</LongitudeDegrees>
            </Position>
            <AltitudeMeters>81.59999847412109375</AltitudeMeters>
            <DistanceMeters>93170.704849401</DistanceMeters>
          </Trackpoint>
          <Trackpoint>
            <Time>2021-10-09T10:47:09.000Z</Time>
            <Position>
              <LatitudeDegrees>39.46813191287219524383544921875</LatitudeDegrees>
              <LongitudeDegrees>-0.4853365011513233184814453125</LongitudeDegrees>
            </Position>
            <AltitudeMeters>81.59999847412109375</AltitudeMeters>
            <DistanceMeters>93193.399329788</DistanceMeters>
          </Trackpoint>
          <Trackpoint>
            <Time>2021-10-09T10:47:11.000Z</Time>
            <Position>
              <LatitudeDegrees>39.46823534555733203887939453125</LatitudeDegrees>
              <LongitudeDegrees>-0.4852268658578395843505859375</LongitudeDegrees>
            </Position>
            <AltitudeMeters>81.59999847412109375</AltitudeMeters>
            <DistanceMeters>93208.274273926</DistanceMeters>
          </Trackpoint>
          <Trackpoint>
            <Time>2021-10-09T10:47:13.000Z</Time>
            <Position>
              <LatitudeDegrees>39.46830667555332183837890625</LatitudeDegrees>
              <LongitudeDegrees>-0.48508261330425739288330078125</LongitudeDegrees>
            </Position>
            <AltitudeMeters>81.59999847412109375</AltitudeMeters>
            <DistanceMeters>93222.993908915</DistanceMeters>
          </Trackpoint>
          <Trackpoint>
            <Time>2021-10-09T10:47:19.000Z</Time>
            <Position>
              <LatitudeDegrees>39.468449167907238006591796875</LatitudeDegrees>
              <LongitudeDegrees>-0.48458841629326343536376953125</LongitudeDegrees>
            </Position>
            <AltitudeMeters>81.40000152587890625</AltitudeMeters>
            <DistanceMeters>93268.32155206</DistanceMeters>
          </Trackpoint>
          <Trackpoint>
            <Time>2021-10-09T10:47:20.000Z</Time>
            <Position>
              <LatitudeDegrees>39.46847238577902317047119140625</LatitudeDegrees>
              <LongitudeDegrees>-0.48450510017573833465576171875</LongitudeDegrees>
            </Position>
            <AltitudeMeters>81.40000152587890625</AltitudeMeters>
            <DistanceMeters>93275.931999505</DistanceMeters>
          </Trackpoint>
          <Trackpoint>
            <Time>2021-10-09T10:47:27.000Z</Time>
            <Position>
              <LatitudeDegrees>39.46864572353661060333251953125</LatitudeDegrees>
              <LongitudeDegrees>-0.4838961549103260040283203125</LongitudeDegrees>
            </Position>
            <AltitudeMeters>80.8000030517578125</AltitudeMeters>
            <DistanceMeters>93331.697542504</DistanceMeters>
          </Trackpoint>
          <Trackpoint>
            <Time>2021-10-09T10:47:35.000Z</Time>
            <Position>
              <LatitudeDegrees>39.46884269826114177703857421875</LatitudeDegrees>
              <LongitudeDegrees>-0.48317070119082927703857421875</LongitudeDegrees>
            </Position>
            <AltitudeMeters>79.8000030517578125</AltitudeMeters>
            <DistanceMeters>93397.77302752</DistanceMeters>
          </Trackpoint>
          <Trackpoint>
            <Time>2021-10-09T10:47:36.000Z</Time>
            <Position>
              <LatitudeDegrees>39.468867592513561248779296875</LatitudeDegrees>
              <LongitudeDegrees>-0.4830831103026866912841796875</LongitudeDegrees>
            </Position>
            <AltitudeMeters>79.8000030517578125</AltitudeMeters>
            <DistanceMeters>93405.792516558</DistanceMeters>
          </Trackpoint>
          <Trackpoint>
            <Time>2021-10-09T10:47:37.000Z</Time>
            <Position>
              <LatitudeDegrees>39.468893073499202728271484375</LatitudeDegrees>
              <LongitudeDegrees>-0.4829966090619564056396484375</LongitudeDegrees>
            </Position>
            <AltitudeMeters>79.8000030517578125</AltitudeMeters>
            <DistanceMeters>93413.746996154</DistanceMeters>
          </Trackpoint>
          <Trackpoint>
            <Time>2021-10-09T10:47:44.000Z</Time>
            <Position>
              <LatitudeDegrees>39.4690612144768238067626953125</LatitudeDegrees>
              <LongitudeDegrees>-0.48241876065731048583984375</LongitudeDegrees>
            </Position>
            <AltitudeMeters>79.40000152587890625</AltitudeMeters>
            <DistanceMeters>93466.806632349</DistanceMeters>
          </Trackpoint>
          <Trackpoint>
            <Time>2021-10-09T10:47:45.000Z</Time>
            <Position>
              <LatitudeDegrees>39.46908443234860897064208984375</LatitudeDegrees>
              <LongitudeDegrees>-0.48233385197818279266357421875</LongitudeDegrees>
            </Position>
            <AltitudeMeters>79.1999969482421875</AltitudeMeters>
            <DistanceMeters>93474.545915071</DistanceMeters>
          </Trackpoint>
          <Trackpoint>
            <Time>2021-10-09T10:47:48.000Z</Time>
            <Position>
              <LatitudeDegrees>39.46915886364877223968505859375</LatitudeDegrees>
              <LongitudeDegrees>-0.482073090970516204833984375</LongitudeDegrees>
            </Position>
            <AltitudeMeters>79.40000152587890625</AltitudeMeters>
            <DistanceMeters>93498.433370576</DistanceMeters>
          </Trackpoint>
          <Trackpoint>
            <Time>2021-10-09T10:47:52.000Z</Time>
            <Position>
              <LatitudeDegrees>39.469254501163959503173828125</LatitudeDegrees>
              <LongitudeDegrees>-0.4817155189812183380126953125</LongitudeDegrees>
            </Position>
            <AltitudeMeters>79.59999847412109375</AltitudeMeters>
            <DistanceMeters>93530.948063097</DistanceMeters>
          </Trackpoint>
          <Trackpoint>
            <Time>2021-10-09T10:47:56.000Z</Time>
            <Position>
              <LatitudeDegrees>39.4693575985729694366455078125</LatitudeDegrees>
              <LongitudeDegrees>-0.4813668318092823028564453125</LongitudeDegrees>
            </Position>
            <AltitudeMeters>79.59999847412109375</AltitudeMeters>
            <DistanceMeters>93563.030241533</DistanceMeters>
          </Trackpoint>
          <Trackpoint>
            <Time>2021-10-09T10:48:01.000Z</Time>
            <Position>
              <LatitudeDegrees>39.46947284974157810211181640625</LatitudeDegrees>
              <LongitudeDegrees>-0.480949915945529937744140625</LongitudeDegrees>
            </Position>
            <AltitudeMeters>79.59999847412109375</AltitudeMeters>
            <DistanceMeters>93601.079868287</DistanceMeters>
          </Trackpoint>
          <Trackpoint>
            <Time>2021-10-09T10:48:05.000Z</Time>
            <Position>
              <LatitudeDegrees>39.46957024745643138885498046875</LatitudeDegrees>
              <LongitudeDegrees>-0.48060567118227481842041015625</LongitudeDegrees>
            </Position>
            <AltitudeMeters>79.40000152587890625</AltitudeMeters>
            <DistanceMeters>93632.581761578</DistanceMeters>
          </Trackpoint>
          <Trackpoint>
            <Time>2021-10-09T10:48:13.000Z</Time>
            <Position>
              <LatitudeDegrees>39.469759762287139892578125</LatitudeDegrees>
              <LongitudeDegrees>-0.47992422245442867279052734375</LongitudeDegrees>
            </Position>
            <AltitudeMeters>79</AltitudeMeters>
            <DistanceMeters>93694.81606199</DistanceMeters>
          </Trackpoint>
          <Trackpoint>
            <Time>2021-10-09T10:48:14.000Z</Time>
            <Position>
              <LatitudeDegrees>39.46978247724473476409912109375</LatitudeDegrees>
              <LongitudeDegrees>-0.47984157688915729522705078125</LongitudeDegrees>
            </Position>
            <AltitudeMeters>79.1999969482421875</AltitudeMeters>
            <DistanceMeters>93702.353783196</DistanceMeters>
          </Trackpoint>
          <Trackpoint>
            <Time>2021-10-09T10:48:23.000Z</Time>
            <Position>
              <LatitudeDegrees>39.46998917497694492340087890625</LatitudeDegrees>
              <LongitudeDegrees>-0.47911587171256542205810546875</LongitudeDegrees>
            </Position>
            <AltitudeMeters>79</AltitudeMeters>
            <DistanceMeters>93768.815578639</DistanceMeters>
          </Trackpoint>
          <Trackpoint>
            <Time>2021-10-09T10:48:25.000Z</Time>
            <Position>
              <LatitudeDegrees>39.4700346887111663818359375</LatitudeDegrees>
              <LongitudeDegrees>-0.47895376570522785186767578125</LongitudeDegrees>
            </Position>
            <AltitudeMeters>78.8000030517578125</AltitudeMeters>
            <DistanceMeters>93783.636090757</DistanceMeters>
          </Trackpoint>
          <Trackpoint>
            <Time>2021-10-09T10:48:26.000Z</Time>
            <Position>
              <LatitudeDegrees>39.47005723603069782257080078125</LatitudeDegrees>
              <LongitudeDegrees>-0.47887153923511505126953125</LongitudeDegrees>
            </Position>
            <AltitudeMeters>78.8000030517578125</AltitudeMeters>
            <DistanceMeters>93791.134174241</DistanceMeters>
          </Trackpoint>
          <Trackpoint>
            <Time>2021-10-09T10:48:35.000Z</Time>
            <Position>
              <LatitudeDegrees>39.47026074863970279693603515625</LatitudeDegrees>
              <LongitudeDegrees>-0.47816502861678600311279296875</LongitudeDegrees>
            </Position>
            <AltitudeMeters>78.8000030517578125</AltitudeMeters>
            <DistanceMeters>93855.926228524</DistanceMeters>
          </Trackpoint>
          <Trackpoint>
            <Time>2021-10-09T10:48:44.000Z</Time>
            <Position>
              <LatitudeDegrees>39.47047146968543529510498046875</LatitudeDegrees>
              <LongitudeDegrees>-0.4774414189159870147705078125</LongitudeDegrees>
            </Position>
            <AltitudeMeters>79</AltitudeMeters>
            <DistanceMeters>93922.375454926</DistanceMeters>
          </Trackpoint>
          <Trackpoint>
            <Time>2021-10-09T10:48:45.000Z</Time>
            <Position>
              <LatitudeDegrees>39.47049812413752079010009765625</LatitudeDegrees>
              <LongitudeDegrees>-0.47735952772200107574462890625</LongitudeDegrees>
            </Position>
            <AltitudeMeters>79</AltitudeMeters>
            <DistanceMeters>93930.010778987</DistanceMeters>
          </Trackpoint>
          <Trackpoint>
            <Time>2021-10-09T10:48:52.000Z</Time>
            <Position>
              <LatitudeDegrees>39.47069509886205196380615234375</LatitudeDegrees>
              <LongitudeDegrees>-0.4767919890582561492919921875</LongitudeDegrees>
            </Position>
            <AltitudeMeters>78.59999847412109375</AltitudeMeters>
            <DistanceMeters>93983.475277846</DistanceMeters>
          </Trackpoint>
          <Trackpoint>
            <Time>2021-10-09T10:48:54.000Z</Time>
            <Position>
              <LatitudeDegrees>39.47075712494552135467529296875</LatitudeDegrees>
              <LongitudeDegrees>-0.4766310565173625946044921875</LongitudeDegrees>
            </Position>
            <AltitudeMeters>78.59999847412109375</AltitudeMeters>
            <DistanceMeters>93998.929905694</DistanceMeters>
          </Trackpoint>
          <Trackpoint>
            <Time>2021-10-09T10:48:56.000Z</Time>
            <Position>
              <LatitudeDegrees>39.470806829631328582763671875</LatitudeDegrees>
              <LongitudeDegrees>-0.47646668739616870880126953125</LongitudeDegrees>
            </Position>
            <AltitudeMeters>78.40000152587890625</AltitudeMeters>
            <DistanceMeters>94014.097312443</DistanceMeters>
          </Trackpoint>
          <Trackpoint>
            <Time>2021-10-09T10:48:58.000Z</Time>
            <Position>
              <LatitudeDegrees>39.4708499126136302947998046875</LatitudeDegrees>
              <LongitudeDegrees>-0.47630441375076770782470703125</LongitudeDegrees>
            </Position>
            <AltitudeMeters>78.1999969482421875</AltitudeMeters>
            <DistanceMeters>94028.841465871</DistanceMeters>
          </Trackpoint>
          <Trackpoint>
            <Time>2021-10-09T10:49:03.000Z</Time>
            <Position>
              <LatitudeDegrees>39.4709273613989353179931640625</LatitudeDegrees>
              <LongitudeDegrees>-0.4758976399898529052734375</LongitudeDegrees>
            </Position>
            <AltitudeMeters>78.1999969482421875</AltitudeMeters>
            <DistanceMeters>94064.838533523</DistanceMeters>
          </Trackpoint>
          <Trackpoint>
            <Time>2021-10-09T10:49:04.000Z</Time>
            <Position>
              <LatitudeDegrees>39.47093063034117221832275390625</LatitudeDegrees>
              <LongitudeDegrees>-0.47581004910171031951904296875</LongitudeDegrees>
            </Position>
            <AltitudeMeters>78</AltitudeMeters>
            <DistanceMeters>94072.372659917</DistanceMeters>
          </Trackpoint>
          <Trackpoint>
            <Time>2021-10-09T10:49:05.000Z</Time>
            <Position>
              <LatitudeDegrees>39.4709253497421741485595703125</LatitudeDegrees>
              <LongitudeDegrees>-0.47572036273777484893798828125</LongitudeDegrees>
            </Position>
            <AltitudeMeters>78</AltitudeMeters>
            <DistanceMeters>94080.100850236</DistanceMeters>
          </Trackpoint>
          <Trackpoint>
            <Time>2021-10-09T10:49:06.000Z</Time>
            <Position>
              <LatitudeDegrees>39.470902048051357269287109375</LatitudeDegrees>
              <LongitudeDegrees>-0.4756339453160762786865234375</LongitudeDegrees>
            </Position>
            <AltitudeMeters>78.1999969482421875</AltitudeMeters>
            <DistanceMeters>94087.965710288</DistanceMeters>
          </Trackpoint>
          <Trackpoint>
            <Time>2021-10-09T10:49:08.000Z</Time>
            <Position>
              <LatitudeDegrees>39.47081764228641986846923828125</LatitudeDegrees>
              <LongitudeDegrees>-0.47548256814479827880859375</LongitudeDegrees>
            </Position>
            <AltitudeMeters>78.40000152587890625</AltitudeMeters>
            <DistanceMeters>94104.009754638</DistanceMeters>
          </Trackpoint>
          <Trackpoint>
            <Time>2021-10-09T10:49:10.000Z</Time>
            <Position>
              <LatitudeDegrees>39.47073633782565593719482421875</LatitudeDegrees>
              <LongitudeDegrees>-0.47532993368804454803466796875</LongitudeDegrees>
            </Position>
            <AltitudeMeters>78.40000152587890625</AltitudeMeters>
            <DistanceMeters>94119.943102345</DistanceMeters>
          </Trackpoint>
          <Trackpoint>
            <Time>2021-10-09T10:49:12.000Z</Time>
            <Position>
              <LatitudeDegrees>39.4706846214830875396728515625</LatitudeDegrees>
              <LongitudeDegrees>-0.4751524887979030609130859375</LongitudeDegrees>
            </Position>
            <AltitudeMeters>78.59999847412109375</AltitudeMeters>
            <DistanceMeters>94136.239560494</DistanceMeters>
          </Trackpoint>
          <Trackpoint>
            <Time>2021-10-09T10:49:15.000Z</Time>
            <Position>
              <LatitudeDegrees>39.4706936739385128021240234375</LatitudeDegrees>
              <LongitudeDegrees>-0.474865324795246124267578125</LongitudeDegrees>
            </Position>
            <AltitudeMeters>78.59999847412109375</AltitudeMeters>
            <DistanceMeters>94160.932979495</DistanceMeters>
          </Trackpoint>
          <Trackpoint>
            <Time>2021-10-09T10:49:16.000Z</Time>
            <Position>
              <LatitudeDegrees>39.47071529924869537353515625</LatitudeDegrees>
              <LongitudeDegrees>-0.47477446496486663818359375</LongitudeDegrees>
            </Position>
            <AltitudeMeters>78.59999847412109375</AltitudeMeters>
            <DistanceMeters>94169.101961373</DistanceMeters>
          </Trackpoint>
          <Trackpoint>
            <Time>2021-10-09T10:49:18.000Z</Time>
            <Position>
              <LatitudeDegrees>39.47078310884535312652587890625</LatitudeDegrees>
              <LongitudeDegrees>-0.47460950911045074462890625</LongitudeDegrees>
            </Position>
            <AltitudeMeters>78.59999847412109375</AltitudeMeters>
            <DistanceMeters>94185.159507972</DistanceMeters>
          </Trackpoint>
          <Trackpoint>
            <Time>2021-10-09T10:49:20.000Z</Time>
            <Position>
              <LatitudeDegrees>39.47088159620761871337890625</LatitudeDegrees>
              <LongitudeDegrees>-0.47446995042264461517333984375</LongitudeDegrees>
            </Position>
            <AltitudeMeters>78.40000152587890625</AltitudeMeters>
            <DistanceMeters>94201.405463601</DistanceMeters>
          </Trackpoint>
          <Trackpoint>
            <Time>2021-10-09T10:49:22.000Z</Time>
            <Position>
              <LatitudeDegrees>39.4709908962249755859375</LatitudeDegrees>
              <LongitudeDegrees>-0.47435025684535503387451171875</LongitudeDegrees>
            </Position>
            <AltitudeMeters>78.40000152587890625</AltitudeMeters>
            <DistanceMeters>94217.334843629</DistanceMeters>
          </Trackpoint>
          <Trackpoint>
            <Time>2021-10-09T10:49:24.000Z</Time>
            <Position>
              <LatitudeDegrees>39.47107203304767608642578125</LatitudeDegrees>
              <LongitudeDegrees>-0.47419938258826732635498046875</LongitudeDegrees>
            </Position>
            <AltitudeMeters>78.59999847412109375</AltitudeMeters>
            <DistanceMeters>94233.133302823</DistanceMeters>
          </Trackpoint>
          <Trackpoint>
            <Time>2021-10-09T10:49:26.000Z</Time>
            <Position>
              <LatitudeDegrees>39.47109910659492015838623046875</LatitudeDegrees>
              <LongitudeDegrees>-0.47401464544236660003662109375</LongitudeDegrees>
            </Position>
            <AltitudeMeters>78.59999847412109375</AltitudeMeters>
            <DistanceMeters>94249.288962189</DistanceMeters>
          </Trackpoint>
          <Trackpoint>
            <Time>2021-10-09T10:49:27.000Z</Time>
            <Position>
              <LatitudeDegrees>39.4710986874997615814208984375</LatitudeDegrees>
              <LongitudeDegrees>-0.473919846117496490478515625</LongitudeDegrees>
            </Position>
            <AltitudeMeters>78.59999847412109375</AltitudeMeters>
            <DistanceMeters>94257.434697374</DistanceMeters>
          </Trackpoint>
          <Trackpoint>
            <Time>2021-10-09T10:49:33.000Z</Time>
            <Position>
              <LatitudeDegrees>39.471054263412952423095703125</LatitudeDegrees>
              <LongitudeDegrees>-0.473321378231048583984375</LongitudeDegrees>
            </Position>
            <AltitudeMeters>78.1999969482421875</AltitudeMeters>
            <DistanceMeters>94309.091834634</DistanceMeters>
          </Trackpoint>
          <Trackpoint>
            <Time>2021-10-09T10:49:34.000Z</Time>
            <Position>
              <LatitudeDegrees>39.4710453785955905914306640625</LatitudeDegrees>
              <LongitudeDegrees>-0.4732186160981655120849609375</LongitudeDegrees>
            </Position>
            <AltitudeMeters>78</AltitudeMeters>
            <DistanceMeters>94317.976705385</DistanceMeters>
          </Trackpoint>
          <Trackpoint>
            <Time>2021-10-09T10:49:40.000Z</Time>
            <Position>
              <LatitudeDegrees>39.47099701501429080963134765625</LatitudeDegrees>
              <LongitudeDegrees>-0.47257765196263790130615234375</LongitudeDegrees>
            </Position>
            <AltitudeMeters>76.8000030517578125</AltitudeMeters>
            <DistanceMeters>94373.310166325</DistanceMeters>
          </Trackpoint>
          <Trackpoint>
            <Time>2021-10-09T10:49:41.000Z</Time>
            <Position>
              <LatitudeDegrees>39.4709890522062778472900390625</LatitudeDegrees>
              <LongitudeDegrees>-0.4724692739546298980712890625</LongitudeDegrees>
            </Position>
            <AltitudeMeters>76.8000030517578125</AltitudeMeters>
            <DistanceMeters>94382.663421405</DistanceMeters>
          </Trackpoint>
          <Trackpoint>
            <Time>2021-10-09T10:49:48.000Z</Time>
            <Position>
              <LatitudeDegrees>39.47092895396053791046142578125</LatitudeDegrees>
              <LongitudeDegrees>-0.4717159084975719451904296875</LongitudeDegrees>
            </Position>
            <AltitudeMeters>75.8000030517578125</AltitudeMeters>
            <DistanceMeters>94447.73667188</DistanceMeters>
          </Trackpoint>
          <Trackpoint>
            <Time>2021-10-09T10:49:49.000Z</Time>
            <Position>
              <LatitudeDegrees>39.470919482409954071044921875</LatitudeDegrees>
              <LongitudeDegrees>-0.47161289490759372711181640625</LongitudeDegrees>
            </Position>
            <AltitudeMeters>75.59999847412109375</AltitudeMeters>
            <DistanceMeters>94456.649954808</DistanceMeters>
          </Trackpoint>
          <Trackpoint>
            <Time>2021-10-09T10:49:56.000Z</Time>
            <Position>
              <LatitudeDegrees>39.470859132707118988037109375</LatitudeDegrees>
              <LongitudeDegrees>-0.470893643796443939208984375</LongitudeDegrees>
            </Position>
            <AltitudeMeters>75</AltitudeMeters>
            <DistanceMeters>94518.811373316</DistanceMeters>
          </Trackpoint>
          <Trackpoint>
            <Time>2021-10-09T10:49:58.000Z</Time>
            <Position>
              <LatitudeDegrees>39.47084144689142704010009765625</LatitudeDegrees>
              <LongitudeDegrees>-0.47068568877875804901123046875</LongitudeDegrees>
            </Position>
            <AltitudeMeters>74.8000030517578125</AltitudeMeters>
            <DistanceMeters>94536.78675079</DistanceMeters>
          </Trackpoint>
          <Trackpoint>
            <Time>2021-10-09T10:50:00.000Z</Time>
            <Position>
              <LatitudeDegrees>39.47082518599927425384521484375</LatitudeDegrees>
              <LongitudeDegrees>-0.47047756612300872802734375</LongitudeDegrees>
            </Position>
            <AltitudeMeters>74.59999847412109375</AltitudeMeters>
            <DistanceMeters>94554.759616297</DistanceMeters>
          </Trackpoint>
          <Trackpoint>
            <Time>2021-10-09T10:50:01.000Z</Time>
            <Position>
              <LatitudeDegrees>39.4708157144486904144287109375</LatitudeDegrees>
              <LongitudeDegrees>-0.47038461081683635711669921875</LongitudeDegrees>
            </Position>
            <AltitudeMeters>74.59999847412109375</AltitudeMeters>
            <DistanceMeters>94562.81561775</DistanceMeters>
          </Trackpoint>
          <Trackpoint>
            <Time>2021-10-09T10:50:03.000Z</Time>
            <Position>
              <LatitudeDegrees>39.4707830250263214111328125</LatitudeDegrees>
              <LongitudeDegrees>-0.47024060972034931182861328125</LongitudeDegrees>
            </Position>
            <AltitudeMeters>74.40000152587890625</AltitudeMeters>
            <DistanceMeters>94575.711971806</DistanceMeters>
          </Trackpoint>
          <Trackpoint>
            <Time>2021-10-09T10:50:06.000Z</Time>
            <Position>
              <LatitudeDegrees>39.47067665867507457733154296875</LatitudeDegrees>
              <LongitudeDegrees>-0.470058806240558624267578125</LongitudeDegrees>
            </Position>
            <AltitudeMeters>74.40000152587890625</AltitudeMeters>
            <DistanceMeters>94595.311908339</DistanceMeters>
          </Trackpoint>
          <Trackpoint>
            <Time>2021-10-09T10:50:07.000Z</Time>
            <Position>
              <LatitudeDegrees>39.47062687017023563385009765625</LatitudeDegrees>
              <LongitudeDegrees>-0.4699999652802944183349609375</LongitudeDegrees>
            </Position>
            <AltitudeMeters>74.40000152587890625</AltitudeMeters>
            <DistanceMeters>94602.813002014</DistanceMeters>
          </Trackpoint>
          <Trackpoint>
            <Time>2021-10-09T10:50:08.000Z</Time>
            <Position>
              <LatitudeDegrees>39.47058462537825107574462890625</LatitudeDegrees>
              <LongitudeDegrees>-0.46992930583655834197998046875</LongitudeDegrees>
            </Position>
            <AltitudeMeters>74.40000152587890625</AltitudeMeters>
            <DistanceMeters>94610.490784182</DistanceMeters>
          </Trackpoint>
          <Trackpoint>
            <Time>2021-10-09T10:50:10.000Z</Time>
            <Position>
              <LatitudeDegrees>39.47054221294820308685302734375</LatitudeDegrees>
              <LongitudeDegrees>-0.46975764445960521697998046875</LongitudeDegrees>
            </Position>
            <AltitudeMeters>74.40000152587890625</AltitudeMeters>
            <DistanceMeters>94625.97693187</DistanceMeters>
          </Trackpoint>
          <Trackpoint>
            <Time>2021-10-09T10:50:12.000Z</Time>
            <Position>
              <LatitudeDegrees>39.47056375443935394287109375</LatitudeDegrees>
              <LongitudeDegrees>-0.46957902610301971435546875</LongitudeDegrees>
            </Position>
            <AltitudeMeters>74.1999969482421875</AltitudeMeters>
            <DistanceMeters>94641.509658045</DistanceMeters>
          </Trackpoint>
          <Trackpoint>
            <Time>2021-10-09T10:50:13.000Z</Time>
            <Position>
              <LatitudeDegrees>39.47059837169945240020751953125</LatitudeDegrees>
              <LongitudeDegrees>-0.46949981711804866790771484375</LongitudeDegrees>
            </Position>
            <AltitudeMeters>74.1999969482421875</AltitudeMeters>
            <DistanceMeters>94649.330189213</DistanceMeters>
          </Trackpoint>
          <Trackpoint>
            <Time>2021-10-09T10:50:14.000Z</Time>
            <Position>
              <LatitudeDegrees>39.4706430472433567047119140625</LatitudeDegrees>
              <LongitudeDegrees>-0.4694281518459320068359375</LongitudeDegrees>
            </Position>
            <AltitudeMeters>74</AltitudeMeters>
            <DistanceMeters>94657.244836413</DistanceMeters>
          </Trackpoint>
          <Trackpoint>
            <Time>2021-10-09T10:50:16.000Z</Time>
            <Position>
              <LatitudeDegrees>39.4707248546183109283447265625</LatitudeDegrees>
              <LongitudeDegrees>-0.46927417628467082977294921875</LongitudeDegrees>
            </Position>
            <AltitudeMeters>74</AltitudeMeters>
            <DistanceMeters>94673.304632283</DistanceMeters>
          </Trackpoint>
          <Trackpoint>
            <Time>2021-10-09T10:50:17.000Z</Time>
            <Position>
              <LatitudeDegrees>39.47075678966939449310302734375</LatitudeDegrees>
              <LongitudeDegrees>-0.4691855795681476593017578125</LongitudeDegrees>
            </Position>
            <AltitudeMeters>73.8000030517578125</AltitudeMeters>
            <DistanceMeters>94681.705767771</DistanceMeters>
          </Trackpoint>
          <Trackpoint>
            <Time>2021-10-09T10:50:18.000Z</Time>
            <Position>
              <LatitudeDegrees>39.47077774442732334136962890625</LatitudeDegrees>
              <LongitudeDegrees>-0.4690928757190704345703125</LongitudeDegrees>
            </Position>
            <AltitudeMeters>73.8000030517578125</AltitudeMeters>
            <DistanceMeters>94690.005251075</DistanceMeters>
          </Trackpoint>
          <Trackpoint>
            <Time>2021-10-09T10:50:19.000Z</Time>
            <Position>
              <LatitudeDegrees>39.47078377939760684967041015625</LatitudeDegrees>
              <LongitudeDegrees>-0.46899874694645404815673828125</LongitudeDegrees>
            </Position>
            <AltitudeMeters>73.40000152587890625</AltitudeMeters>
            <DistanceMeters>94698.120999813</DistanceMeters>
          </Trackpoint>
          <Trackpoint>
            <Time>2021-10-09T10:50:20.000Z</Time>
            <Position>
              <LatitudeDegrees>39.4707815162837505340576171875</LatitudeDegrees>
              <LongitudeDegrees>-0.46890570782124996185302734375</LongitudeDegrees>
            </Position>
            <AltitudeMeters>73.40000152587890625</AltitudeMeters>
            <DistanceMeters>94706.118501389</DistanceMeters>
          </Trackpoint>
          <Trackpoint>
            <Time>2021-10-09T10:50:28.000Z</Time>
            <Position>
              <LatitudeDegrees>39.470766596496105194091796875</LatitudeDegrees>
              <LongitudeDegrees>-0.468133650720119476318359375</LongitudeDegrees>
            </Position>
            <AltitudeMeters>73.1999969482421875</AltitudeMeters>
            <DistanceMeters>94772.47396246</DistanceMeters>
          </Trackpoint>
          <Trackpoint>
            <Time>2021-10-09T10:50:29.000Z</Time>
            <Position>
              <LatitudeDegrees>39.4707642495632171630859375</LatitudeDegrees>
              <LongitudeDegrees>-0.468035750091075897216796875</LongitudeDegrees>
            </Position>
            <AltitudeMeters>73.1999969482421875</AltitudeMeters>
            <DistanceMeters>94780.889596099</DistanceMeters>
          </Trackpoint>
          <Trackpoint>
            <Time>2021-10-09T10:50:37.000Z</Time>
            <Position>
              <LatitudeDegrees>39.47076768614351749420166015625</LatitudeDegrees>
              <LongitudeDegrees>-0.4672714881598949432373046875</LongitudeDegrees>
            </Position>
            <AltitudeMeters>72.59999847412109375</AltitudeMeters>
            <DistanceMeters>94846.555668568</DistanceMeters>
          </Trackpoint>
          <Trackpoint>
            <Time>2021-10-09T10:50:42.000Z</Time>
            <Position>
              <LatitudeDegrees>39.47076492011547088623046875</LatitudeDegrees>
              <LongitudeDegrees>-0.4667836613953113555908203125</LongitudeDegrees>
            </Position>
            <AltitudeMeters>72.40000152587890625</AltitudeMeters>
            <DistanceMeters>94888.470529329</DistanceMeters>
          </Trackpoint>
          <Trackpoint>
            <Time>2021-10-09T10:50:47.000Z</Time>
            <Position>
              <LatitudeDegrees>39.4707577116787433624267578125</LatitudeDegrees>
              <LongitudeDegrees>-0.466307736933231353759765625</LongitudeDegrees>
            </Position>
            <AltitudeMeters>71.8000030517578125</AltitudeMeters>
            <DistanceMeters>94929.369567954</DistanceMeters>
          </Trackpoint>
          <Trackpoint>
            <Time>2021-10-09T10:50:54.000Z</Time>
            <Position>
              <LatitudeDegrees>39.47076031006872653961181640625</LatitudeDegrees>
              <LongitudeDegrees>-0.4656447283923625946044921875</LongitudeDegrees>
            </Position>
            <AltitudeMeters>71.1999969482421875</AltitudeMeters>
            <DistanceMeters>94986.335685706</DistanceMeters>
          </Trackpoint>
          <Trackpoint>
            <Time>2021-10-09T10:50:56.000Z</Time>
            <Position>
              <LatitudeDegrees>39.47076349519193172454833984375</LatitudeDegrees>
              <LongitudeDegrees>-0.46545512974262237548828125</LongitudeDegrees>
            </Position>
            <AltitudeMeters>71</AltitudeMeters>
            <DistanceMeters>95002.629927253</DistanceMeters>
          </Trackpoint>
          <Trackpoint>
            <Time>2021-10-09T10:51:00.000Z</Time>
            <Position>
              <LatitudeDegrees>39.47076885960996150970458984375</LatitudeDegrees>
              <LongitudeDegrees>-0.46507450751960277557373046875</LongitudeDegrees>
            </Position>
            <AltitudeMeters>70</AltitudeMeters>
            <DistanceMeters>95035.338172034</DistanceMeters>
          </Trackpoint>
          <Trackpoint>
            <Time>2021-10-09T10:51:03.000Z</Time>
            <Position>
              <LatitudeDegrees>39.47076902724802494049072265625</LatitudeDegrees>
              <LongitudeDegrees>-0.46479673124849796295166015625</LongitudeDegrees>
            </Position>
            <AltitudeMeters>69</AltitudeMeters>
            <DistanceMeters>95059.204448701</DistanceMeters>
          </Trackpoint>
          <Trackpoint>
            <Time>2021-10-09T10:51:04.000Z</Time>
            <Position>
              <LatitudeDegrees>39.47077673859894275665283203125</LatitudeDegrees>
              <LongitudeDegrees>-0.464612580835819244384765625</LongitudeDegrees>
            </Position>
            <AltitudeMeters>69</AltitudeMeters>
            <DistanceMeters>95075.0497081</DistanceMeters>
          </Trackpoint>
          <Trackpoint>
            <Time>2021-10-09T10:51:11.000Z</Time>
            <Position>
              <LatitudeDegrees>39.47079819627106189727783203125</LatitudeDegrees>
              <LongitudeDegrees>-0.4640565253794193267822265625</LongitudeDegrees>
            </Position>
            <AltitudeMeters>70.1999969482421875</AltitudeMeters>
            <DistanceMeters>95122.885253786</DistanceMeters>
          </Trackpoint>
          <Trackpoint>
            <Time>2021-10-09T10:51:15.000Z</Time>
            <Position>
              <LatitudeDegrees>39.47079576551914215087890625</LatitudeDegrees>
              <LongitudeDegrees>-0.46359761618077754974365234375</LongitudeDegrees>
            </Position>
            <AltitudeMeters>70.59999847412109375</AltitudeMeters>
            <DistanceMeters>95162.31538632</DistanceMeters>
          </Trackpoint>
          <Trackpoint>
            <Time>2021-10-09T10:51:17.000Z</Time>
            <Position>
              <LatitudeDegrees>39.4707677699625492095947265625</LatitudeDegrees>
              <LongitudeDegrees>-0.4634771682322025299072265625</LongitudeDegrees>
            </Position>
            <AltitudeMeters>70.59999847412109375</AltitudeMeters>
            <DistanceMeters>95173.12297804</DistanceMeters>
          </Trackpoint>
          <Trackpoint>
            <Time>2021-10-09T10:51:18.000Z</Time>
            <Position>
              <LatitudeDegrees>39.4707489944994449615478515625</LatitudeDegrees>
              <LongitudeDegrees>-0.4634379409253597259521484375</LongitudeDegrees>
            </Position>
            <AltitudeMeters>70.59999847412109375</AltitudeMeters>
            <DistanceMeters>95177.087995454</DistanceMeters>
          </Trackpoint>
          <Trackpoint>
            <Time>2021-10-09T10:51:21.000Z</Time>
            <Position>
              <LatitudeDegrees>39.47066056542098522186279296875</LatitudeDegrees>
              <LongitudeDegrees>-0.46332822181284427642822265625</LongitudeDegrees>
            </Position>
            <AltitudeMeters>70.59999847412109375</AltitudeMeters>
            <DistanceMeters>95190.71629734</DistanceMeters>
          </Trackpoint>
          <Trackpoint>
            <Time>2021-10-09T10:51:23.000Z</Time>
            <Position>
              <LatitudeDegrees>39.4705766625702381134033203125</LatitudeDegrees>
              <LongitudeDegrees>-0.46322814188897609710693359375</LongitudeDegrees>
            </Position>
            <AltitudeMeters>70.59999847412109375</AltitudeMeters>
            <DistanceMeters>95203.410813645</DistanceMeters>
          </Trackpoint>
          <Trackpoint>
            <Time>2021-10-09T10:51:26.000Z</Time>
            <Position>
              <LatitudeDegrees>39.47051589377224445343017578125</LatitudeDegrees>
              <LongitudeDegrees>-0.46300250105559825897216796875</LongitudeDegrees>
            </Position>
            <AltitudeMeters>70.59999847412109375</AltitudeMeters>
            <DistanceMeters>95223.943621758</DistanceMeters>
          </Trackpoint>
          <Trackpoint>
            <Time>2021-10-09T10:51:27.000Z</Time>
            <Position>
              <LatitudeDegrees>39.47052226401865482330322265625</LatitudeDegrees>
              <LongitudeDegrees>-0.46292044222354888916015625</LongitudeDegrees>
            </Position>
            <AltitudeMeters>70.59999847412109375</AltitudeMeters>
            <DistanceMeters>95231.029964616</DistanceMeters>
          </Trackpoint>
          <Trackpoint>
            <Time>2021-10-09T10:51:28.000Z</Time>
            <Position>
              <LatitudeDegrees>39.47053869254887104034423828125</LatitudeDegrees>
              <LongitudeDegrees>-0.4628401435911655426025390625</LongitudeDegrees>
            </Position>
            <AltitudeMeters>70.59999847412109375</AltitudeMeters>
            <DistanceMeters>95238.167729764</DistanceMeters>
          </Trackpoint>
          <Trackpoint>
            <Time>2021-10-09T10:51:31.000Z</Time>
            <Position>
              <LatitudeDegrees>39.4705657660961151123046875</LatitudeDegrees>
              <LongitudeDegrees>-0.46258843503892421722412109375</LongitudeDegrees>
            </Position>
            <AltitudeMeters>70.59999847412109375</AltitudeMeters>
            <DistanceMeters>95260.00341309</DistanceMeters>
          </Trackpoint>
          <Trackpoint>
            <Time>2021-10-09T10:51:34.000Z</Time>
            <Position>
              <LatitudeDegrees>39.4704982079565525054931640625</LatitudeDegrees>
              <LongitudeDegrees>-0.46233848668634891510009765625</LongitudeDegrees>
            </Position>
            <AltitudeMeters>70.1999969482421875</AltitudeMeters>
            <DistanceMeters>95282.757499821</DistanceMeters>
          </Trackpoint>
          <Trackpoint>
            <Time>2021-10-09T10:51:35.000Z</Time>
            <Position>
              <LatitudeDegrees>39.4704982079565525054931640625</LatitudeDegrees>
              <LongitudeDegrees>-0.46233848668634891510009765625</LongitudeDegrees>
            </Position>
            <AltitudeMeters>70.1999969482421875</AltitudeMeters>
            <DistanceMeters>95282.757499821</DistanceMeters>
          </Trackpoint>
          <Trackpoint>
            <Time>2021-10-09T10:51:43.000Z</Time>
            <Position>
              <LatitudeDegrees>39.47028941474854946136474609375</LatitudeDegrees>
              <LongitudeDegrees>-0.46156718395650386810302734375</LongitudeDegrees>
            </Position>
            <AltitudeMeters>70</AltitudeMeters>
            <DistanceMeters>95352.984299123</DistanceMeters>
          </Trackpoint>
          <Trackpoint>
            <Time>2021-10-09T10:51:44.000Z</Time>
            <Position>
              <LatitudeDegrees>39.47026737034320831298828125</LatitudeDegrees>
              <LongitudeDegrees>-0.46148621477186679840087890625</LongitudeDegrees>
            </Position>
            <AltitudeMeters>69.8000030517578125</AltitudeMeters>
            <DistanceMeters>95360.362191831</DistanceMeters>
          </Trackpoint>
          <Trackpoint>
            <Time>2021-10-09T10:51:51.000Z</Time>
            <Position>
              <LatitudeDegrees>39.4701253809034824371337890625</LatitudeDegrees>
              <LongitudeDegrees>-0.46089646406471729278564453125</LongitudeDegrees>
            </Position>
            <AltitudeMeters>69.59999847412109375</AltitudeMeters>
            <DistanceMeters>95413.440970644</DistanceMeters>
          </Trackpoint>
          <Trackpoint>
            <Time>2021-10-09T10:51:52.000Z</Time>
            <Position>
              <LatitudeDegrees>39.4701253809034824371337890625</LatitudeDegrees>
              <LongitudeDegrees>-0.46089646406471729278564453125</LongitudeDegrees>
            </Position>
            <AltitudeMeters>69.59999847412109375</AltitudeMeters>
            <DistanceMeters>95413.440970644</DistanceMeters>
          </Trackpoint>
          <Trackpoint>
            <Time>2021-10-09T10:52:00.000Z</Time>
            <Position>
              <LatitudeDegrees>39.4699205271899700164794921875</LatitudeDegrees>
              <LongitudeDegrees>-0.46006984077394008636474609375</LongitudeDegrees>
            </Position>
            <AltitudeMeters>69.40000152587890625</AltitudeMeters>
            <DistanceMeters>95488.034822965</DistanceMeters>
          </Trackpoint>
          <Trackpoint>
            <Time>2021-10-09T10:52:01.000Z</Time>
            <Position>
              <LatitudeDegrees>39.469899237155914306640625</LatitudeDegrees>
              <LongitudeDegrees>-0.45997562818229198455810546875</LongitudeDegrees>
            </Position>
            <AltitudeMeters>69.40000152587890625</AltitudeMeters>
            <DistanceMeters>95496.469748708</DistanceMeters>
          </Trackpoint>
          <Trackpoint>
            <Time>2021-10-09T10:52:02.000Z</Time>
            <Position>
              <LatitudeDegrees>39.4698779471218585968017578125</LatitudeDegrees>
              <LongitudeDegrees>-0.4598789848387241363525390625</LongitudeDegrees>
            </Position>
            <AltitudeMeters>69.1999969482421875</AltitudeMeters>
            <DistanceMeters>95505.105162495</DistanceMeters>
          </Trackpoint>
          <Trackpoint>
            <Time>2021-10-09T10:52:05.000Z</Time>
            <Position>
              <LatitudeDegrees>39.4698112271726131439208984375</LatitudeDegrees>
              <LongitudeDegrees>-0.4596043936908245086669921875</LongitudeDegrees>
            </Position>
            <AltitudeMeters>69</AltitudeMeters>
            <DistanceMeters>95529.839139509</DistanceMeters>
          </Trackpoint>
          <Trackpoint>
            <Time>2021-10-09T10:52:08.000Z</Time>
            <Position>
              <LatitudeDegrees>39.4697451777756214141845703125</LatitudeDegrees>
              <LongitudeDegrees>-0.459342040121555328369140625</LongitudeDegrees>
            </Position>
            <AltitudeMeters>68.8000030517578125</AltitudeMeters>
            <DistanceMeters>95553.549018863</DistanceMeters>
          </Trackpoint>
          <Trackpoint>
            <Time>2021-10-09T10:52:11.000Z</Time>
            <Position>
              <LatitudeDegrees>39.4696905277669429779052734375</LatitudeDegrees>
              <LongitudeDegrees>-0.45908647589385509490966796875</LongitudeDegrees>
            </Position>
            <AltitudeMeters>68.59999847412109375</AltitudeMeters>
            <DistanceMeters>95576.334039269</DistanceMeters>
          </Trackpoint>
          <Trackpoint>
            <Time>2021-10-09T10:52:15.000Z</Time>
            <Position>
              <LatitudeDegrees>39.469618611037731170654296875</LatitudeDegrees>
              <LongitudeDegrees>-0.45873879455029964447021484375</LongitudeDegrees>
            </Position>
            <AltitudeMeters>68.59999847412109375</AltitudeMeters>
            <DistanceMeters>95607.260672886</DistanceMeters>
          </Trackpoint>
          <Trackpoint>
            <Time>2021-10-09T10:52:17.000Z</Time>
            <Position>
              <LatitudeDegrees>39.46958282031118869781494140625</LatitudeDegrees>
              <LongitudeDegrees>-0.458570234477519989013671875</LongitudeDegrees>
            </Position>
            <AltitudeMeters>68.59999847412109375</AltitudeMeters>
            <DistanceMeters>95622.280906901</DistanceMeters>
          </Trackpoint>
          <Trackpoint>
            <Time>2021-10-09T10:52:18.000Z</Time>
            <Position>
              <LatitudeDegrees>39.4695574231445789337158203125</LatitudeDegrees>
              <LongitudeDegrees>-0.4584889300167560577392578125</LongitudeDegrees>
            </Position>
            <AltitudeMeters>68.40000152587890625</AltitudeMeters>
            <DistanceMeters>95629.816231757</DistanceMeters>
          </Trackpoint>
          <Trackpoint>
            <Time>2021-10-09T10:52:19.000Z</Time>
            <Position>
              <LatitudeDegrees>39.46951878257095813751220703125</LatitudeDegrees>
              <LongitudeDegrees>-0.4584124870598316192626953125</LongitudeDegrees>
            </Position>
            <AltitudeMeters>68.40000152587890625</AltitudeMeters>
            <DistanceMeters>95637.667301862</DistanceMeters>
          </Trackpoint>
          <Trackpoint>
            <Time>2021-10-09T10:52:21.000Z</Time>
            <Position>
              <LatitudeDegrees>39.46946673095226287841796875</LatitudeDegrees>
              <LongitudeDegrees>-0.45834953896701335906982421875</LongitudeDegrees>
            </Position>
            <AltitudeMeters>68.1999969482421875</AltitudeMeters>
            <DistanceMeters>95645.592780507</DistanceMeters>
          </Trackpoint>
          <Trackpoint>
            <Time>2021-10-09T10:52:23.000Z</Time>
            <Position>
              <LatitudeDegrees>39.46928811259567737579345703125</LatitudeDegrees>
              <LongitudeDegrees>-0.45819036662578582763671875</LongitudeDegrees>
            </Position>
            <AltitudeMeters>68</AltitudeMeters>
            <DistanceMeters>95669.723392172</DistanceMeters>
          </Trackpoint>
          <Trackpoint>
            <Time>2021-10-09T10:52:25.000Z</Time>
            <Position>
              <LatitudeDegrees>39.4692338816821575164794921875</LatitudeDegrees>
              <LongitudeDegrees>-0.45801308937370777130126953125</LongitudeDegrees>
            </Position>
            <AltitudeMeters>67.8000030517578125</AltitudeMeters>
            <DistanceMeters>95686.107441807</DistanceMeters>
          </Trackpoint>
          <Trackpoint>
            <Time>2021-10-09T10:52:27.000Z</Time>
            <Position>
              <LatitudeDegrees>39.4692596979439258575439453125</LatitudeDegrees>
              <LongitudeDegrees>-0.45782013796269893646240234375</LongitudeDegrees>
            </Position>
            <AltitudeMeters>67.8000030517578125</AltitudeMeters>
            <DistanceMeters>95702.932806484</DistanceMeters>
          </Trackpoint>
          <Trackpoint>
            <Time>2021-10-09T10:52:28.000Z</Time>
            <Position>
              <LatitudeDegrees>39.46929012425243854522705078125</LatitudeDegrees>
              <LongitudeDegrees>-0.45772894285619258880615234375</LongitudeDegrees>
            </Position>
            <AltitudeMeters>67.8000030517578125</AltitudeMeters>
            <DistanceMeters>95711.468829377</DistanceMeters>
          </Trackpoint>
          <Trackpoint>
            <Time>2021-10-09T10:52:29.000Z</Time>
            <Position>
              <LatitudeDegrees>39.46932189166545867919921875</LatitudeDegrees>
              <LongitudeDegrees>-0.45763858594000339508056640625</LongitudeDegrees>
            </Position>
            <AltitudeMeters>67.8000030517578125</AltitudeMeters>
            <DistanceMeters>95720.000090488</DistanceMeters>
          </Trackpoint>
          <Trackpoint>
            <Time>2021-10-09T10:52:31.000Z</Time>
            <Position>
              <LatitudeDegrees>39.46933622471988201141357421875</LatitudeDegrees>
              <LongitudeDegrees>-0.45744261704385280609130859375</LongitudeDegrees>
            </Position>
            <AltitudeMeters>67.8000030517578125</AltitudeMeters>
            <DistanceMeters>95736.913777896</DistanceMeters>
          </Trackpoint>
          <Trackpoint>
            <Time>2021-10-09T10:52:32.000Z</Time>
            <Position>
              <LatitudeDegrees>39.46931518614292144775390625</LatitudeDegrees>
              <LongitudeDegrees>-0.4573436267673969268798828125</LongitudeDegrees>
            </Position>
            <AltitudeMeters>67.8000030517578125</AltitudeMeters>
            <DistanceMeters>95745.735922129</DistanceMeters>
          </Trackpoint>
          <Trackpoint>
            <Time>2021-10-09T10:52:33.000Z</Time>
            <Position>
              <LatitudeDegrees>39.4692841731011867523193359375</LatitudeDegrees>
              <LongitudeDegrees>-0.45724622905254364013671875</LongitudeDegrees>
            </Position>
            <AltitudeMeters>67.8000030517578125</AltitudeMeters>
            <DistanceMeters>95754.78793371</DistanceMeters>
          </Trackpoint>
          <Trackpoint>
            <Time>2021-10-09T10:52:37.000Z</Time>
            <Position>
              <LatitudeDegrees>39.46916439570486545562744140625</LatitudeDegrees>
              <LongitudeDegrees>-0.456966273486614227294921875</LongitudeDegrees>
            </Position>
            <AltitudeMeters>67.59999847412109375</AltitudeMeters>
            <DistanceMeters>95782.289426628</DistanceMeters>
          </Trackpoint>
          <Trackpoint>
            <Time>2021-10-09T10:52:38.000Z</Time>
            <Position>
              <LatitudeDegrees>39.4690719433128833770751953125</LatitudeDegrees>
              <LongitudeDegrees>-0.45678698457777500152587890625</LongitudeDegrees>
            </Position>
            <AltitudeMeters>67.40000152587890625</AltitudeMeters>
            <DistanceMeters>95800.815005845</DistanceMeters>
          </Trackpoint>
          <Trackpoint>
            <Time>2021-10-09T10:52:39.000Z</Time>
            <Position>
              <LatitudeDegrees>39.4690189696848392486572265625</LatitudeDegrees>
              <LongitudeDegrees>-0.45670316554605960845947265625</LongitudeDegrees>
            </Position>
            <AltitudeMeters>67.1999969482421875</AltitudeMeters>
            <DistanceMeters>95810.122774289</DistanceMeters>
          </Trackpoint>
          <Trackpoint>
            <Time>2021-10-09T10:52:41.000Z</Time>
            <Position>
              <LatitudeDegrees>39.468910507857799530029296875</LatitudeDegrees>
              <LongitudeDegrees>-0.45655153691768646240234375</LongitudeDegrees>
            </Position>
            <AltitudeMeters>67</AltitudeMeters>
            <DistanceMeters>95827.883874775</DistanceMeters>
          </Trackpoint>
          <Trackpoint>
            <Time>2021-10-09T10:52:45.000Z</Time>
            <Position>
              <LatitudeDegrees>39.468657709658145904541015625</LatitudeDegrees>
              <LongitudeDegrees>-0.4562938772141933441162109375</LongitudeDegrees>
            </Position>
            <AltitudeMeters>67</AltitudeMeters>
            <DistanceMeters>95863.686127373</DistanceMeters>
          </Trackpoint>
          <Trackpoint>
            <Time>2021-10-09T10:52:47.000Z</Time>
            <Position>
              <LatitudeDegrees>39.46851915679872035980224609375</LatitudeDegrees>
              <LongitudeDegrees>-0.45618952251970767974853515625</LongitudeDegrees>
            </Position>
            <AltitudeMeters>67</AltitudeMeters>
            <DistanceMeters>95881.524340112</DistanceMeters>
          </Trackpoint>
          <Trackpoint>
            <Time>2021-10-09T10:52:50.000Z</Time>
            <Position>
              <LatitudeDegrees>39.46829862892627716064453125</LatitudeDegrees>
              <LongitudeDegrees>-0.4560709185898303985595703125</LongitudeDegrees>
            </Position>
            <AltitudeMeters>66.8000030517578125</AltitudeMeters>
            <DistanceMeters>95908.100918509</DistanceMeters>
          </Trackpoint>
          <Trackpoint>
            <Time>2021-10-09T10:52:52.000Z</Time>
            <Position>
              <LatitudeDegrees>39.46814666502177715301513671875</LatitudeDegrees>
              <LongitudeDegrees>-0.4560142569243907928466796875</LongitudeDegrees>
            </Position>
            <AltitudeMeters>66.8000030517578125</AltitudeMeters>
            <DistanceMeters>95925.701651519</DistanceMeters>
          </Trackpoint>
          <Trackpoint>
            <Time>2021-10-09T10:52:57.000Z</Time>
            <Position>
              <LatitudeDegrees>39.46775187738239765167236328125</LatitudeDegrees>
              <LongitudeDegrees>-0.455956421792507171630859375</LongitudeDegrees>
            </Position>
            <AltitudeMeters>66.40000152587890625</AltitudeMeters>
            <DistanceMeters>95969.922269492</DistanceMeters>
          </Trackpoint>
          <Trackpoint>
            <Time>2021-10-09T10:52:59.000Z</Time>
            <Position>
              <LatitudeDegrees>39.467591531574726104736328125</LatitudeDegrees>
              <LongitudeDegrees>-0.4559666477143764495849609375</LongitudeDegrees>
            </Position>
            <AltitudeMeters>66.59999847412109375</AltitudeMeters>
            <DistanceMeters>95987.790324304</DistanceMeters>
          </Trackpoint>
          <Trackpoint>
            <Time>2021-10-09T10:53:01.000Z</Time>
            <Position>
              <LatitudeDegrees>39.46743017993867397308349609375</LatitudeDegrees>
              <LongitudeDegrees>-0.4559911228716373443603515625</LongitudeDegrees>
            </Position>
            <AltitudeMeters>66.59999847412109375</AltitudeMeters>
            <DistanceMeters>96005.871888056</DistanceMeters>
          </Trackpoint>
          <Trackpoint>
            <Time>2021-10-09T10:53:03.000Z</Time>
            <Position>
              <LatitudeDegrees>39.4672708399593830108642578125</LatitudeDegrees>
              <LongitudeDegrees>-0.45602574013173580169677734375</LongitudeDegrees>
            </Position>
            <AltitudeMeters>66.59999847412109375</AltitudeMeters>
            <DistanceMeters>96023.854297168</DistanceMeters>
          </Trackpoint>
          <Trackpoint>
            <Time>2021-10-09T10:53:10.000Z</Time>
            <Position>
              <LatitudeDegrees>39.46672392077744007110595703125</LatitudeDegrees>
              <LongitudeDegrees>-0.45613302849233150482177734375</LongitudeDegrees>
            </Position>
            <AltitudeMeters>66.40000152587890625</AltitudeMeters>
            <DistanceMeters>96085.421635333</DistanceMeters>
          </Trackpoint>
          <Trackpoint>
            <Time>2021-10-09T10:53:11.000Z</Time>
            <Position>
              <LatitudeDegrees>39.4666416943073272705078125</LatitudeDegrees>
              <LongitudeDegrees>-0.45614727772772312164306640625</LongitudeDegrees>
            </Position>
            <AltitudeMeters>66.40000152587890625</AltitudeMeters>
            <DistanceMeters>96094.654887832</DistanceMeters>
          </Trackpoint>
          <Trackpoint>
            <Time>2021-10-09T10:53:17.000Z</Time>
            <Position>
              <LatitudeDegrees>39.4661535322666168212890625</LatitudeDegrees>
              <LongitudeDegrees>-0.456240065395832061767578125</LongitudeDegrees>
            </Position>
            <AltitudeMeters>66.40000152587890625</AltitudeMeters>
            <DistanceMeters>96149.570134615</DistanceMeters>
          </Trackpoint>
          <Trackpoint>
            <Time>2021-10-09T10:53:55.000Z</Time>
            <Position>
              <LatitudeDegrees>39.46560007520020008087158203125</LatitudeDegrees>
              <LongitudeDegrees>-0.456356741487979888916015625</LongitudeDegrees>
            </Position>
            <AltitudeMeters>67</AltitudeMeters>
            <DistanceMeters>96211.981565336</DistanceMeters>
          </Trackpoint>
          <Trackpoint>
            <Time>2021-10-09T10:53:56.000Z</Time>
            <Position>
              <LatitudeDegrees>39.46553436107933521270751953125</LatitudeDegrees>
              <LongitudeDegrees>-0.45637442730367183685302734375</LongitudeDegrees>
            </Position>
            <AltitudeMeters>67</AltitudeMeters>
            <DistanceMeters>96219.451898155</DistanceMeters>
          </Trackpoint>
          <Trackpoint>
            <Time>2021-10-09T10:53:58.000Z</Time>
            <Position>
              <LatitudeDegrees>39.4654051959514617919921875</LatitudeDegrees>
              <LongitudeDegrees>-0.45640326105058193206787109375</LongitudeDegrees>
            </Position>
            <AltitudeMeters>67</AltitudeMeters>
            <DistanceMeters>96234.040278519</DistanceMeters>
          </Trackpoint>
          <Trackpoint>
            <Time>2021-10-09T10:54:01.000Z</Time>
            <Position>
              <LatitudeDegrees>39.4651998393237590789794921875</LatitudeDegrees>
              <LongitudeDegrees>-0.4564408957958221435546875</LongitudeDegrees>
            </Position>
            <AltitudeMeters>67</AltitudeMeters>
            <DistanceMeters>96257.124730022</DistanceMeters>
          </Trackpoint>
          <Trackpoint>
            <Time>2021-10-09T10:54:03.000Z</Time>
            <Position>
              <LatitudeDegrees>39.46505676023662090301513671875</LatitudeDegrees>
              <LongitudeDegrees>-0.45646260492503643035888671875</LongitudeDegrees>
            </Position>
            <AltitudeMeters>66.8000030517578125</AltitudeMeters>
            <DistanceMeters>96273.158640223</DistanceMeters>
          </Trackpoint>
          <Trackpoint>
            <Time>2021-10-09T10:54:08.000Z</Time>
            <Position>
              <LatitudeDegrees>39.4647024571895599365234375</LatitudeDegrees>
              <LongitudeDegrees>-0.45651935040950775146484375</LongitudeDegrees>
            </Position>
            <AltitudeMeters>66.8000030517578125</AltitudeMeters>
            <DistanceMeters>96312.893444687</DistanceMeters>
          </Trackpoint>
          <Trackpoint>
            <Time>2021-10-09T10:54:09.000Z</Time>
            <Position>
              <LatitudeDegrees>39.46463146246969699859619140625</LatitudeDegrees>
              <LongitudeDegrees>-0.4565186798572540283203125</LongitudeDegrees>
            </Position>
            <AltitudeMeters>66.8000030517578125</AltitudeMeters>
            <DistanceMeters>96320.796103018</DistanceMeters>
          </Trackpoint>
          <Trackpoint>
            <Time>2021-10-09T10:54:11.000Z</Time>
            <Position>
              <LatitudeDegrees>39.46449123322963714599609375</LatitudeDegrees>
              <LongitudeDegrees>-0.45651474036276340484619140625</LongitudeDegrees>
            </Position>
            <AltitudeMeters>66.8000030517578125</AltitudeMeters>
            <DistanceMeters>96336.407693687</DistanceMeters>
          </Trackpoint>
          <Trackpoint>
            <Time>2021-10-09T10:54:13.000Z</Time>
            <Position>
              <LatitudeDegrees>39.46442375890910625457763671875</LatitudeDegrees>
              <LongitudeDegrees>-0.45652949251234531402587890625</LongitudeDegrees>
            </Position>
            <AltitudeMeters>66.8000030517578125</AltitudeMeters>
            <DistanceMeters>96344.024071505</DistanceMeters>
          </Trackpoint>
          <Trackpoint>
            <Time>2021-10-09T10:54:14.000Z</Time>
            <Position>
              <LatitudeDegrees>39.4642939232289791107177734375</LatitudeDegrees>
              <LongitudeDegrees>-0.456574670970439910888671875</LongitudeDegrees>
            </Position>
            <AltitudeMeters>66.8000030517578125</AltitudeMeters>
            <DistanceMeters>96358.987384823</DistanceMeters>
          </Trackpoint>
          <Trackpoint>
            <Time>2021-10-09T10:54:16.000Z</Time>
            <Position>
              <LatitudeDegrees>39.46416459046304225921630859375</LatitudeDegrees>
              <LongitudeDegrees>-0.45654525049030780792236328125</LongitudeDegrees>
            </Position>
            <AltitudeMeters>66.8000030517578125</AltitudeMeters>
            <DistanceMeters>96373.602357563</DistanceMeters>
          </Trackpoint>
          <Trackpoint>
            <Time>2021-10-09T10:54:18.000Z</Time>
            <Position>
              <LatitudeDegrees>39.46408362127840518951416015625</LatitudeDegrees>
              <LongitudeDegrees>-0.456410385668277740478515625</LongitudeDegrees>
            </Position>
            <AltitudeMeters>67</AltitudeMeters>
            <DistanceMeters>96388.282677873</DistanceMeters>
          </Trackpoint>
          <Trackpoint>
            <Time>2021-10-09T10:54:20.000Z</Time>
            <Position>
              <LatitudeDegrees>39.46408689022064208984375</LatitudeDegrees>
              <LongitudeDegrees>-0.45623025856912136077880859375</LongitudeDegrees>
            </Position>
            <AltitudeMeters>67</AltitudeMeters>
            <DistanceMeters>96403.764743276</DistanceMeters>
          </Trackpoint>
          <Trackpoint>
            <Time>2021-10-09T10:54:24.000Z</Time>
            <Position>
              <LatitudeDegrees>39.46416408754885196685791015625</LatitudeDegrees>
              <LongitudeDegrees>-0.4558858461678028106689453125</LongitudeDegrees>
            </Position>
            <AltitudeMeters>66.59999847412109375</AltitudeMeters>
            <DistanceMeters>96434.581248907</DistanceMeters>
          </Trackpoint>
          <Trackpoint>
            <Time>2021-10-09T10:54:25.000Z</Time>
            <Position>
              <LatitudeDegrees>39.4641621597111225128173828125</LatitudeDegrees>
              <LongitudeDegrees>-0.4558067210018634796142578125</LongitudeDegrees>
            </Position>
            <AltitudeMeters>66.59999847412109375</AltitudeMeters>
            <DistanceMeters>96441.383462642</DistanceMeters>
          </Trackpoint>
          <Trackpoint>
            <Time>2021-10-09T10:54:30.000Z</Time>
            <Position>
              <LatitudeDegrees>39.4641041569411754608154296875</LatitudeDegrees>
              <LongitudeDegrees>-0.45540698803961277008056640625</LongitudeDegrees>
            </Position>
            <AltitudeMeters>66.59999847412109375</AltitudeMeters>
            <DistanceMeters>96476.333017008</DistanceMeters>
          </Trackpoint>
          <Trackpoint>
            <Time>2021-10-09T10:54:36.000Z</Time>
            <Position>
              <LatitudeDegrees>39.46404305286705493927001953125</LatitudeDegrees>
              <LongitudeDegrees>-0.45492201112210750579833984375</LongitudeDegrees>
            </Position>
            <AltitudeMeters>66.59999847412109375</AltitudeMeters>
            <DistanceMeters>96518.557183464</DistanceMeters>
          </Trackpoint>
          <Trackpoint>
            <Time>2021-10-09T10:54:38.000Z</Time>
            <Position>
              <LatitudeDegrees>39.46400667540729045867919921875</LatitudeDegrees>
              <LongitudeDegrees>-0.45464104972779750823974609375</LongitudeDegrees>
            </Position>
            <AltitudeMeters>66.59999847412109375</AltitudeMeters>
            <DistanceMeters>96543.036662684</DistanceMeters>
          </Trackpoint>
          <Trackpoint>
            <Time>2021-10-09T10:54:42.000Z</Time>
            <Position>
              <LatitudeDegrees>39.4639656879007816314697265625</LatitudeDegrees>
              <LongitudeDegrees>-0.45425749383866786956787109375</LongitudeDegrees>
            </Position>
            <AltitudeMeters>66.1999969482421875</AltitudeMeters>
            <DistanceMeters>96576.308906697</DistanceMeters>
          </Trackpoint>
          <Trackpoint>
            <Time>2021-10-09T10:54:47.000Z</Time>
            <Position>
              <LatitudeDegrees>39.463911540806293487548828125</LatitudeDegrees>
              <LongitudeDegrees>-0.45378140173852443695068359375</LongitudeDegrees>
            </Position>
            <AltitudeMeters>66</AltitudeMeters>
            <DistanceMeters>96617.660161156</DistanceMeters>
          </Trackpoint>
          <Trackpoint>
            <Time>2021-10-09T10:54:55.000Z</Time>
            <Position>
              <LatitudeDegrees>39.4638543762266635894775390625</LatitudeDegrees>
              <LongitudeDegrees>-0.45307832770049571990966796875</LongitudeDegrees>
            </Position>
            <AltitudeMeters>65.8000030517578125</AltitudeMeters>
            <DistanceMeters>96678.408027623</DistanceMeters>
          </Trackpoint>
          <Trackpoint>
            <Time>2021-10-09T10:55:02.000Z</Time>
            <Position>
              <LatitudeDegrees>39.46379679255187511444091796875</LatitudeDegrees>
              <LongitudeDegrees>-0.45250274240970611572265625</LongitudeDegrees>
            </Position>
            <AltitudeMeters>65.59999847412109375</AltitudeMeters>
            <DistanceMeters>96728.280488119</DistanceMeters>
          </Trackpoint>
          <Trackpoint>
            <Time>2021-10-09T10:55:05.000Z</Time>
            <Position>
              <LatitudeDegrees>39.46374348364770412445068359375</LatitudeDegrees>
              <LongitudeDegrees>-0.45211725868284702301025390625</LongitudeDegrees>
            </Position>
            <AltitudeMeters>65.59999847412109375</AltitudeMeters>
            <DistanceMeters>96761.931485819</DistanceMeters>
          </Trackpoint>
          <Trackpoint>
            <Time>2021-10-09T10:55:12.000Z</Time>
            <Position>
              <LatitudeDegrees>39.463667459785938262939453125</LatitudeDegrees>
              <LongitudeDegrees>-0.45143614523112773895263671875</LongitudeDegrees>
            </Position>
            <AltitudeMeters>65.59999847412109375</AltitudeMeters>
            <DistanceMeters>96821.066817083</DistanceMeters>
          </Trackpoint>
          <Trackpoint>
            <Time>2021-10-09T10:55:17.000Z</Time>
            <Position>
              <LatitudeDegrees>39.46359579451382160186767578125</LatitudeDegrees>
              <LongitudeDegrees>-0.45094194822013378143310546875</LongitudeDegrees>
            </Position>
            <AltitudeMeters>65.59999847412109375</AltitudeMeters>
            <DistanceMeters>96864.27493223</DistanceMeters>
          </Trackpoint>
          <Trackpoint>
            <Time>2021-10-09T10:55:18.000Z</Time>
            <Position>
              <LatitudeDegrees>39.463589675724506378173828125</LatitudeDegrees>
              <LongitudeDegrees>-0.45083968900144100189208984375</LongitudeDegrees>
            </Position>
            <AltitudeMeters>65.59999847412109375</AltitudeMeters>
            <DistanceMeters>96873.088371829</DistanceMeters>
          </Trackpoint>
          <Trackpoint>
            <Time>2021-10-09T10:55:19.000Z</Time>
            <Position>
              <LatitudeDegrees>39.463589675724506378173828125</LatitudeDegrees>
              <LongitudeDegrees>-0.45083968900144100189208984375</LongitudeDegrees>
            </Position>
            <AltitudeMeters>65.59999847412109375</AltitudeMeters>
            <DistanceMeters>96873.222759898</DistanceMeters>
          </Trackpoint>
          <Trackpoint>
            <Time>2021-10-09T10:55:27.000Z</Time>
            <Position>
              <LatitudeDegrees>39.463501833379268646240234375</LatitudeDegrees>
              <LongitudeDegrees>-0.4499692283570766448974609375</LongitudeDegrees>
            </Position>
            <AltitudeMeters>65.59999847412109375</AltitudeMeters>
            <DistanceMeters>96948.656435804</DistanceMeters>
          </Trackpoint>
          <Trackpoint>
            <Time>2021-10-09T10:55:33.000Z</Time>
            <Position>
              <LatitudeDegrees>39.46347693912684917449951171875</LatitudeDegrees>
              <LongitudeDegrees>-0.4494096525013446807861328125</LongitudeDegrees>
            </Position>
            <AltitudeMeters>65.1999969482421875</AltitudeMeters>
            <DistanceMeters>96996.819608325</DistanceMeters>
          </Trackpoint>
          <Trackpoint>
            <Time>2021-10-09T10:55:36.000Z</Time>
            <Position>
              <LatitudeDegrees>39.4635020010173320770263671875</LatitudeDegrees>
              <LongitudeDegrees>-0.4491343908011913299560546875</LongitudeDegrees>
            </Position>
            <AltitudeMeters>65.1999969482421875</AltitudeMeters>
            <DistanceMeters>97020.636457654</DistanceMeters>
          </Trackpoint>
          <Trackpoint>
            <Time>2021-10-09T10:55:39.000Z</Time>
            <Position>
              <LatitudeDegrees>39.46355941705405712127685546875</LatitudeDegrees>
              <LongitudeDegrees>-0.44885602779686450958251953125</LongitudeDegrees>
            </Position>
            <AltitudeMeters>65.1999969482421875</AltitudeMeters>
            <DistanceMeters>97045.394518746</DistanceMeters>
          </Trackpoint>
          <Trackpoint>
            <Time>2021-10-09T10:55:46.000Z</Time>
            <Position>
              <LatitudeDegrees>39.46375438012182712554931640625</LatitudeDegrees>
              <LongitudeDegrees>-0.44822168536484241485595703125</LongitudeDegrees>
            </Position>
            <AltitudeMeters>65.40000152587890625</AltitudeMeters>
            <DistanceMeters>97104.062953258</DistanceMeters>
          </Trackpoint>
          <Trackpoint>
            <Time>2021-10-09T10:55:50.000Z</Time>
            <Position>
              <LatitudeDegrees>39.463824369013309478759765625</LatitudeDegrees>
              <LongitudeDegrees>-0.447846092283725738525390625</LongitudeDegrees>
            </Position>
            <AltitudeMeters>65</AltitudeMeters>
            <DistanceMeters>97137.263742427</DistanceMeters>
          </Trackpoint>
          <Trackpoint>
            <Time>2021-10-09T10:55:51.000Z</Time>
            <Position>
              <LatitudeDegrees>39.46382897906005382537841796875</LatitudeDegrees>
              <LongitudeDegrees>-0.44775280170142650604248046875</LongitudeDegrees>
            </Position>
            <AltitudeMeters>64.8000030517578125</AltitudeMeters>
            <DistanceMeters>97145.296732298</DistanceMeters>
          </Trackpoint>
          <Trackpoint>
            <Time>2021-10-09T10:55:53.000Z</Time>
            <Position>
              <LatitudeDegrees>39.46380685083568096160888671875</LatitudeDegrees>
              <LongitudeDegrees>-0.447575859725475311279296875</LongitudeDegrees>
            </Position>
            <AltitudeMeters>64.8000030517578125</AltitudeMeters>
            <DistanceMeters>97160.698683739</DistanceMeters>
          </Trackpoint>
          <Trackpoint>
            <Time>2021-10-09T10:55:54.000Z</Time>
            <Position>
              <LatitudeDegrees>39.46376527659595012664794921875</LatitudeDegrees>
              <LongitudeDegrees>-0.44750251807272434234619140625</LongitudeDegrees>
            </Position>
            <AltitudeMeters>64.8000030517578125</AltitudeMeters>
            <DistanceMeters>97168.51690524</DistanceMeters>
          </Trackpoint>
          <Trackpoint>
            <Time>2021-10-09T10:55:55.000Z</Time>
            <Position>
              <LatitudeDegrees>39.4637088663876056671142578125</LatitudeDegrees>
              <LongitudeDegrees>-0.447445772588253021240234375</LongitudeDegrees>
            </Position>
            <AltitudeMeters>64.8000030517578125</AltitudeMeters>
            <DistanceMeters>97176.466842663</DistanceMeters>
          </Trackpoint>
          <Trackpoint>
            <Time>2021-10-09T10:55:57.000Z</Time>
            <Position>
              <LatitudeDegrees>39.4636454991996288299560546875</LatitudeDegrees>
              <LongitudeDegrees>-0.4474114067852497100830078125</LongitudeDegrees>
            </Position>
            <AltitudeMeters>64.8000030517578125</AltitudeMeters>
            <DistanceMeters>97184.11398429</DistanceMeters>
          </Trackpoint>
          <Trackpoint>
            <Time>2021-10-09T10:56:01.000Z</Time>
            <Position>
              <LatitudeDegrees>39.4633112289011478424072265625</LatitudeDegrees>
              <LongitudeDegrees>-0.44735801406204700469970703125</LongitudeDegrees>
            </Position>
            <AltitudeMeters>65</AltitudeMeters>
            <DistanceMeters>97221.600788584</DistanceMeters>
          </Trackpoint>
          <Trackpoint>
            <Time>2021-10-09T10:56:06.000Z</Time>
            <Position>
              <LatitudeDegrees>39.46302448399364948272705078125</LatitudeDegrees>
              <LongitudeDegrees>-0.44737393967807292938232421875</LongitudeDegrees>
            </Position>
            <AltitudeMeters>65.1999969482421875</AltitudeMeters>
            <DistanceMeters>97253.545457133</DistanceMeters>
          </Trackpoint>
          <Trackpoint>
            <Time>2021-10-09T10:56:08.000Z</Time>
            <Position>
              <LatitudeDegrees>39.4629179500043392181396484375</LatitudeDegrees>
              <LongitudeDegrees>-0.4473882727324962615966796875</LongitudeDegrees>
            </Position>
            <AltitudeMeters>65.8000030517578125</AltitudeMeters>
            <DistanceMeters>97265.466671126</DistanceMeters>
          </Trackpoint>
          <Trackpoint>
            <Time>2021-10-09T10:56:10.000Z</Time>
            <Position>
              <LatitudeDegrees>39.46281024254858493804931640625</LatitudeDegrees>
              <LongitudeDegrees>-0.44740076176822185516357421875</LongitudeDegrees>
            </Position>
            <AltitudeMeters>66.40000152587890625</AltitudeMeters>
            <DistanceMeters>97277.502846449</DistanceMeters>
          </Trackpoint>
          <Trackpoint>
            <Time>2021-10-09T10:56:11.000Z</Time>
            <Position>
              <LatitudeDegrees>39.46276045404374599456787109375</LatitudeDegrees>
              <LongitudeDegrees>-0.4474097304046154022216796875</LongitudeDegrees>
            </Position>
            <AltitudeMeters>66.8000030517578125</AltitudeMeters>
            <DistanceMeters>97283.097329888</DistanceMeters>
          </Trackpoint>
          <Trackpoint>
            <Time>2021-10-09T10:56:12.000Z</Time>
            <Position>
              <LatitudeDegrees>39.462708570063114166259765625</LatitudeDegrees>
              <LongitudeDegrees>-0.447421967983245849609375</LongitudeDegrees>
            </Position>
            <AltitudeMeters>67.1999969482421875</AltitudeMeters>
            <DistanceMeters>97288.965950813</DistanceMeters>
          </Trackpoint>
          <Trackpoint>
            <Time>2021-10-09T10:56:13.000Z</Time>
            <Position>
              <LatitudeDegrees>39.46265299804508686065673828125</LatitudeDegrees>
              <LongitudeDegrees>-0.44742523692548274993896484375</LongitudeDegrees>
            </Position>
            <AltitudeMeters>67.59999847412109375</AltitudeMeters>
            <DistanceMeters>97295.158018689</DistanceMeters>
          </Trackpoint>
          <Trackpoint>
            <Time>2021-10-09T10:56:14.000Z</Time>
            <Position>
              <LatitudeDegrees>39.46260103024542331695556640625</LatitudeDegrees>
              <LongitudeDegrees>-0.44743470847606658935546875</LongitudeDegrees>
            </Position>
            <AltitudeMeters>67.8000030517578125</AltitudeMeters>
            <DistanceMeters>97300.998877256</DistanceMeters>
          </Trackpoint>
          <Trackpoint>
            <Time>2021-10-09T10:56:15.000Z</Time>
            <Position>
              <LatitudeDegrees>39.462549649178981781005859375</LatitudeDegrees>
              <LongitudeDegrees>-0.447445772588253021240234375</LongitudeDegrees>
            </Position>
            <AltitudeMeters>68.40000152587890625</AltitudeMeters>
            <DistanceMeters>97306.795506833</DistanceMeters>
          </Trackpoint>
          <Trackpoint>
            <Time>2021-10-09T10:56:17.000Z</Time>
            <Position>
              <LatitudeDegrees>39.46244294755160808563232421875</LatitudeDegrees>
              <LongitudeDegrees>-0.4474570043385028839111328125</LongitudeDegrees>
            </Position>
            <AltitudeMeters>69</AltitudeMeters>
            <DistanceMeters>97318.710659449</DistanceMeters>
          </Trackpoint>
          <Trackpoint>
            <Time>2021-10-09T10:56:19.000Z</Time>
            <Position>
              <LatitudeDegrees>39.462335407733917236328125</LatitudeDegrees>
              <LongitudeDegrees>-0.44747217558324337005615234375</LongitudeDegrees>
            </Position>
            <AltitudeMeters>69.40000152587890625</AltitudeMeters>
            <DistanceMeters>97330.75096041</DistanceMeters>
          </Trackpoint>
          <Trackpoint>
            <Time>2021-10-09T10:56:22.000Z</Time>
            <Position>
              <LatitudeDegrees>39.46215813048183917999267578125</LatitudeDegrees>
              <LongitudeDegrees>-0.44751022942364215850830078125</LongitudeDegrees>
            </Position>
            <AltitudeMeters>70.59999847412109375</AltitudeMeters>
            <DistanceMeters>97350.751318564</DistanceMeters>
          </Trackpoint>
          <Trackpoint>
            <Time>2021-10-09T10:56:25.000Z</Time>
            <Position>
              <LatitudeDegrees>39.46197657845914363861083984375</LatitudeDegrees>
              <LongitudeDegrees>-0.44753621332347393035888671875</LongitudeDegrees>
            </Position>
            <AltitudeMeters>71.59999847412109375</AltitudeMeters>
            <DistanceMeters>97371.081261969</DistanceMeters>
          </Trackpoint>
          <Trackpoint>
            <Time>2021-10-09T10:56:30.000Z</Time>
            <Position>
              <LatitudeDegrees>39.461675249040126800537109375</LatitudeDegrees>
              <LongitudeDegrees>-0.447584576904773712158203125</LongitudeDegrees>
            </Position>
            <AltitudeMeters>72.40000152587890625</AltitudeMeters>
            <DistanceMeters>97404.876320905</DistanceMeters>
          </Trackpoint>
          <Trackpoint>
            <Time>2021-10-09T10:56:35.000Z</Time>
            <Position>
              <LatitudeDegrees>39.46142253465950489044189453125</LatitudeDegrees>
              <LongitudeDegrees>-0.44762053526937961578369140625</LongitudeDegrees>
            </Position>
            <AltitudeMeters>72.40000152587890625</AltitudeMeters>
            <DistanceMeters>97433.173227775</DistanceMeters>
          </Trackpoint>
          <Trackpoint>
            <Time>2021-10-09T10:56:38.000Z</Time>
            <Position>
              <LatitudeDegrees>39.46113050915300846099853515625</LatitudeDegrees>
              <LongitudeDegrees>-0.44764350168406963348388671875</LongitudeDegrees>
            </Position>
            <AltitudeMeters>72.1999969482421875</AltitudeMeters>
            <DistanceMeters>97465.736208234</DistanceMeters>
          </Trackpoint>
          <Trackpoint>
            <Time>2021-10-09T10:56:43.000Z</Time>
            <Position>
              <LatitudeDegrees>39.46069146506488323211669921875</LatitudeDegrees>
              <LongitudeDegrees>-0.447624139487743377685546875</LongitudeDegrees>
            </Position>
            <AltitudeMeters>71</AltitudeMeters>
            <DistanceMeters>97514.630938813</DistanceMeters>
          </Trackpoint>
          <Trackpoint>
            <Time>2021-10-09T10:56:44.000Z</Time>
            <Position>
              <LatitudeDegrees>39.4605968333780765533447265625</LatitudeDegrees>
              <LongitudeDegrees>-0.4476108960807323455810546875</LongitudeDegrees>
            </Position>
            <AltitudeMeters>70.59999847412109375</AltitudeMeters>
            <DistanceMeters>97525.225032456</DistanceMeters>
          </Trackpoint>
          <Trackpoint>
            <Time>2021-10-09T10:56:46.000Z</Time>
            <Position>
              <LatitudeDegrees>39.46040782146155834197998046875</LatitudeDegrees>
              <LongitudeDegrees>-0.4475693218410015106201171875</LongitudeDegrees>
            </Position>
            <AltitudeMeters>69.40000152587890625</AltitudeMeters>
            <DistanceMeters>97546.563555709</DistanceMeters>
          </Trackpoint>
          <Trackpoint>
            <Time>2021-10-09T10:56:48.000Z</Time>
            <Position>
              <LatitudeDegrees>39.4602169655263423919677734375</LatitudeDegrees>
              <LongitudeDegrees>-0.44751039706170558929443359375</LongitudeDegrees>
            </Position>
            <AltitudeMeters>68</AltitudeMeters>
            <DistanceMeters>97568.401513424</DistanceMeters>
          </Trackpoint>
          <Trackpoint>
            <Time>2021-10-09T10:56:50.000Z</Time>
            <Position>
              <LatitudeDegrees>39.4600295461714267730712890625</LatitudeDegrees>
              <LongitudeDegrees>-0.4474456049501895904541015625</LongitudeDegrees>
            </Position>
            <AltitudeMeters>67</AltitudeMeters>
            <DistanceMeters>97589.992034636</DistanceMeters>
          </Trackpoint>
          <Trackpoint>
            <Time>2021-10-09T10:56:52.000Z</Time>
            <Position>
              <LatitudeDegrees>39.459860734641551971435546875</LatitudeDegrees>
              <LongitudeDegrees>-0.44738919474184513092041015625</LongitudeDegrees>
            </Position>
            <AltitudeMeters>65.59999847412109375</AltitudeMeters>
            <DistanceMeters>97609.39610811</DistanceMeters>
          </Trackpoint>
          <Trackpoint>
            <Time>2021-10-09T10:56:53.000Z</Time>
            <Position>
              <LatitudeDegrees>39.45975034497678279876708984375</LatitudeDegrees>
              <LongitudeDegrees>-0.44736773706972599029541015625</LongitudeDegrees>
            </Position>
            <AltitudeMeters>65.1999969482421875</AltitudeMeters>
            <DistanceMeters>97621.820283203</DistanceMeters>
          </Trackpoint>
          <Trackpoint>
            <Time>2021-10-09T10:56:54.000Z</Time>
            <Position>
              <LatitudeDegrees>39.45975034497678279876708984375</LatitudeDegrees>
              <LongitudeDegrees>-0.44736773706972599029541015625</LongitudeDegrees>
            </Position>
            <AltitudeMeters>64.8000030517578125</AltitudeMeters>
            <DistanceMeters>97621.820283203</DistanceMeters>
          </Trackpoint>
          <Trackpoint>
            <Time>2021-10-09T10:56:55.000Z</Time>
            <Position>
              <LatitudeDegrees>39.45957298390567302703857421875</LatitudeDegrees>
              <LongitudeDegrees>-0.44737528078258037567138671875</LongitudeDegrees>
            </Position>
            <AltitudeMeters>64.1999969482421875</AltitudeMeters>
            <DistanceMeters>97641.571214887</DistanceMeters>
          </Trackpoint>
          <Trackpoint>
            <Time>2021-10-09T10:56:56.000Z</Time>
            <Position>
              <LatitudeDegrees>39.4594936072826385498046875</LatitudeDegrees>
              <LongitudeDegrees>-0.44740813784301280975341796875</LongitudeDegrees>
            </Position>
            <AltitudeMeters>64</AltitudeMeters>
            <DistanceMeters>97650.845939045</DistanceMeters>
          </Trackpoint>
          <Trackpoint>
            <Time>2021-10-09T10:56:58.000Z</Time>
            <Position>
              <LatitudeDegrees>39.45934499613940715789794921875</LatitudeDegrees>
              <LongitudeDegrees>-0.4474834911525249481201171875</LongitudeDegrees>
            </Position>
            <AltitudeMeters>63.40000152587890625</AltitudeMeters>
            <DistanceMeters>97668.60907309</DistanceMeters>
          </Trackpoint>
          <Trackpoint>
            <Time>2021-10-09T10:56:59.000Z</Time>
            <Position>
              <LatitudeDegrees>39.45927056483924388885498046875</LatitudeDegrees>
              <LongitudeDegrees>-0.44751785695552825927734375</LongitudeDegrees>
            </Position>
            <AltitudeMeters>63.200000762939453125</AltitudeMeters>
            <DistanceMeters>97677.404050908</DistanceMeters>
          </Trackpoint>
          <Trackpoint>
            <Time>2021-10-09T10:57:00.000Z</Time>
            <Position>
              <LatitudeDegrees>39.4592017494142055511474609375</LatitudeDegrees>
              <LongitudeDegrees>-0.44756772927939891815185546875</LongitudeDegrees>
            </Position>
            <AltitudeMeters>63.200000762939453125</AltitudeMeters>
            <DistanceMeters>97686.180528109</DistanceMeters>
          </Trackpoint>
          <Trackpoint>
            <Time>2021-10-09T10:57:01.000Z</Time>
            <Position>
              <LatitudeDegrees>39.4591454230248928070068359375</LatitudeDegrees>
              <LongitudeDegrees>-0.447634868323802947998046875</LongitudeDegrees>
            </Position>
            <AltitudeMeters>63</AltitudeMeters>
            <DistanceMeters>97694.700138104</DistanceMeters>
          </Trackpoint>
          <Trackpoint>
            <Time>2021-10-09T10:57:03.000Z</Time>
            <Position>
              <LatitudeDegrees>39.45906168781220912933349609375</LatitudeDegrees>
              <LongitudeDegrees>-0.44779387302696704864501953125</LongitudeDegrees>
            </Position>
            <AltitudeMeters>63</AltitudeMeters>
            <DistanceMeters>97711.239700849</DistanceMeters>
          </Trackpoint>
          <Trackpoint>
            <Time>2021-10-09T10:57:05.000Z</Time>
            <Position>
              <LatitudeDegrees>39.45899446494877338409423828125</LatitudeDegrees>
              <LongitudeDegrees>-0.44795782305300235748291015625</LongitudeDegrees>
            </Position>
            <AltitudeMeters>63</AltitudeMeters>
            <DistanceMeters>97727.191740035</DistanceMeters>
          </Trackpoint>
          <Trackpoint>
            <Time>2021-10-09T10:57:07.000Z</Time>
            <Position>
              <LatitudeDegrees>39.45893579162657260894775390625</LatitudeDegrees>
              <LongitudeDegrees>-0.4481003992259502410888671875</LongitudeDegrees>
            </Position>
            <AltitudeMeters>63</AltitudeMeters>
            <DistanceMeters>97741.075399918</DistanceMeters>
          </Trackpoint>
          <Trackpoint>
            <Time>2021-10-09T10:57:08.000Z</Time>
            <Position>
              <LatitudeDegrees>39.4589050300419330596923828125</LatitudeDegrees>
              <LongitudeDegrees>-0.4481771774590015411376953125</LongitudeDegrees>
            </Position>
            <AltitudeMeters>63</AltitudeMeters>
            <DistanceMeters>97748.508165735</DistanceMeters>
          </Trackpoint>
        </Track>
      </Lap>
    </Activity>
  </Activities>
</TrainingCenterDatabase>
